<?xml version="1.0" encoding="UTF-8" standalone="no" ?><gpx xmlns="http://www.topografix.com/GPX/1/1" xmlns:gpxx="http://www.garmin.com/xmlschemas/GpxExtensions/v3" xmlns:wptx1="http://www.garmin.com/xmlschemas/WaypointExtension/v1" xmlns:gpxtpx="http://www.garmin.com/xmlschemas/TrackPointExtension/v1" creator="Oregon 450" version="1.1" xmlns:xsi="http://www.w3.org/2001/XMLSchema-instance" xsi:schemaLocation="http://www.topografix.com/GPX/1/1 http://www.topografix.com/GPX/1/1/gpx.xsd http://www.garmin.com/xmlschemas/GpxExtensions/v3 http://www8.garmin.com/xmlschemas/GpxExtensionsv3.xsd http://www.garmin.com/xmlschemas/WaypointExtension/v1 http://www8.garmin.com/xmlschemas/WaypointExtensionv1.xsd http://www.garmin.com/xmlschemas/TrackPointExtension/v1 http://www.garmin.com/xmlschemas/TrackPointExtensionv1.xsd"><metadata><link href="http://www.garmin.com"><text>Garmin International</text></link><time>2012-08-11T06:15:11Z</time></metadata><trk><name>2012-08-10 06:20:26 Day</name><extensions><gpxx:TrackExtension><gpxx:DisplayColor>Black</gpxx:DisplayColor></gpxx:TrackExtension></extensions><trkseg><trkpt lat="57.2413207311" lon="-5.9116341826"><ele>-14.28</ele><time>2012-08-10T05:20:26Z</time></trkpt><trkpt lat="57.2413380817" lon="-5.9117023274"><ele>-14.28</ele><time>2012-08-10T05:20:45Z</time></trkpt><trkpt lat="57.2413611319" lon="-5.9117095359"><ele>-13.80</ele><time>2012-08-10T05:21:13Z</time></trkpt><trkpt lat="57.2413532529" lon="-5.9115863219"><ele>-14.28</ele><time>2012-08-10T05:21:45Z</time></trkpt><trkpt lat="57.2413400933" lon="-5.9116035048"><ele>-14.28</ele><time>2012-08-10T05:22:16Z</time></trkpt><trkpt lat="57.2413683403" lon="-5.9115422331"><ele>-14.28</ele><time>2012-08-10T05:22:43Z</time></trkpt><trkpt lat="57.2413448710" lon="-5.9115717374"><ele>-14.28</ele><time>2012-08-10T05:23:09Z</time></trkpt><trkpt lat="57.2413489781" lon="-5.9115009103"><ele>-14.28</ele><time>2012-08-10T05:23:39Z</time></trkpt><trkpt lat="57.2413747106" lon="-5.9115007427"><ele>-13.80</ele><time>2012-08-10T05:24:13Z</time></trkpt><trkpt lat="57.2413686756" lon="-5.9115299117"><ele>-14.28</ele><time>2012-08-10T05:24:44Z</time></trkpt><trkpt lat="57.2413649876" lon="-5.9115973022"><ele>-13.80</ele><time>2012-08-10T05:25:15Z</time></trkpt><trkpt lat="57.2413734533" lon="-5.9115763474"><ele>-14.28</ele><time>2012-08-10T05:25:46Z</time></trkpt><trkpt lat="57.2413818352" lon="-5.9115776885"><ele>-14.28</ele><time>2012-08-10T05:26:19Z</time></trkpt><trkpt lat="57.2413929831" lon="-5.9116151556"><ele>-14.28</ele><time>2012-08-10T05:26:46Z</time></trkpt><trkpt lat="57.2413789015" lon="-5.9116586577"><ele>-13.80</ele><time>2012-08-10T05:27:14Z</time></trkpt><trkpt lat="57.2413726151" lon="-5.9116858989"><ele>-14.28</ele><time>2012-08-10T05:27:49Z</time></trkpt><trkpt lat="57.2413561027" lon="-5.9116941132"><ele>-14.28</ele><time>2012-08-10T05:28:19Z</time></trkpt><trkpt lat="57.2413537558" lon="-5.9116750862"><ele>-14.28</ele><time>2012-08-10T05:28:48Z</time></trkpt><trkpt lat="57.2413302027" lon="-5.9117258806"><ele>-13.80</ele><time>2012-08-10T05:29:21Z</time></trkpt><trkpt lat="57.2413074039" lon="-5.9115894232"><ele>-14.28</ele><time>2012-08-10T05:29:59Z</time></trkpt><trkpt lat="57.2413318790" lon="-5.9116351046"><ele>-13.80</ele><time>2012-08-10T05:30:36Z</time></trkpt><trkpt lat="57.2413324658" lon="-5.9116250463"><ele>-13.80</ele><time>2012-08-10T05:31:16Z</time></trkpt><trkpt lat="57.2413131874" lon="-5.9116328415"><ele>-10.44</ele><time>2012-08-10T05:31:46Z</time></trkpt><trkpt lat="57.2413125169" lon="-5.9116163291"><ele>-7.07</ele><time>2012-08-10T05:31:50Z</time></trkpt><trkpt lat="57.2413151152" lon="-5.9116049297"><ele>-3.71</ele><time>2012-08-10T05:31:54Z</time></trkpt><trkpt lat="57.2413411830" lon="-5.9115653671"><ele>0.14</ele><time>2012-08-10T05:32:00Z</time></trkpt><trkpt lat="57.2413449548" lon="-5.9115539677"><ele>0.62</ele><time>2012-08-10T05:32:01Z</time></trkpt><trkpt lat="57.2413466312" lon="-5.9115442447"><ele>3.50</ele><time>2012-08-10T05:32:06Z</time></trkpt><trkpt lat="57.2413385008" lon="-5.9115265589"><ele>6.87</ele><time>2012-08-10T05:32:13Z</time></trkpt><trkpt lat="57.2413376626" lon="-5.9115318395"><ele>6.87</ele><time>2012-08-10T05:32:14Z</time></trkpt><trkpt lat="57.2413369920" lon="-5.9115931112"><ele>9.75</ele><time>2012-08-10T05:32:24Z</time></trkpt><trkpt lat="57.2413430270" lon="-5.9115947038"><ele>13.12</ele><time>2012-08-10T05:32:39Z</time></trkpt><trkpt lat="57.2413321305" lon="-5.9115761798"><ele>16.00</ele><time>2012-08-10T05:33:03Z</time></trkpt><trkpt lat="57.2413216531" lon="-5.9115372878"><ele>19.36</ele><time>2012-08-10T05:33:24Z</time></trkpt><trkpt lat="57.2413229942" lon="-5.9114427399"><ele>22.73</ele><time>2012-08-10T05:33:42Z</time></trkpt><trkpt lat="57.2413060628" lon="-5.9115893394"><ele>22.73</ele><time>2012-08-10T05:34:12Z</time></trkpt><trkpt lat="57.2413280234" lon="-5.9115158301"><ele>22.25</ele><time>2012-08-10T05:34:39Z</time></trkpt><trkpt lat="57.2413103376" lon="-5.9116066899"><ele>22.73</ele><time>2012-08-10T05:35:07Z</time></trkpt><trkpt lat="57.2412487306" lon="-5.9116275609"><ele>22.73</ele><time>2012-08-10T05:35:31Z</time></trkpt><trkpt lat="57.2412390914" lon="-5.9116819594"><ele>23.69</ele><time>2012-08-10T05:35:56Z</time></trkpt><trkpt lat="57.2412307095" lon="-5.9116853960"><ele>23.21</ele><time>2012-08-10T05:35:57Z</time></trkpt><trkpt lat="57.2410318069" lon="-5.9115142375"><ele>23.21</ele><time>2012-08-10T05:36:23Z</time></trkpt><trkpt lat="57.2411684319" lon="-5.9115835559"><ele>23.21</ele><time>2012-08-10T05:36:48Z</time></trkpt><trkpt lat="57.2412743792" lon="-5.9115758445"><ele>23.21</ele><time>2012-08-10T05:37:15Z</time></trkpt><trkpt lat="57.2412877902" lon="-5.9115999006"><ele>23.69</ele><time>2012-08-10T05:37:49Z</time></trkpt><trkpt lat="57.2413499840" lon="-5.9116160776"><ele>23.21</ele><time>2012-08-10T05:38:23Z</time></trkpt><trkpt lat="57.2413572762" lon="-5.9115737490"><ele>23.69</ele><time>2012-08-10T05:39:01Z</time></trkpt><trkpt lat="57.2413384169" lon="-5.9115680493"><ele>23.21</ele><time>2012-08-10T05:39:42Z</time></trkpt><trkpt lat="57.2413553484" lon="-5.9115765151"><ele>23.69</ele><time>2012-08-10T05:40:20Z</time></trkpt><trkpt lat="57.2413562704" lon="-5.9115787782"><ele>23.69</ele><time>2012-08-10T05:40:46Z</time></trkpt><trkpt lat="57.2413457930" lon="-5.9117770940"><ele>23.69</ele><time>2012-08-10T05:41:17Z</time></trkpt><trkpt lat="57.2413732857" lon="-5.9117325023"><ele>24.17</ele><time>2012-08-10T05:41:44Z</time></trkpt><trkpt lat="57.2413645685" lon="-5.9117129724"><ele>23.21</ele><time>2012-08-10T05:42:18Z</time></trkpt><trkpt lat="57.2413331363" lon="-5.9116159100"><ele>23.69</ele><time>2012-08-10T05:42:44Z</time></trkpt><trkpt lat="57.2412897181" lon="-5.9115141537"><ele>23.69</ele><time>2012-08-10T05:43:13Z</time></trkpt><trkpt lat="57.2412837669" lon="-5.9116139822"><ele>23.69</ele><time>2012-08-10T05:43:44Z</time></trkpt><trkpt lat="57.2413126007" lon="-5.9115815442"><ele>23.69</ele><time>2012-08-10T05:44:11Z</time></trkpt><trkpt lat="57.2413148638" lon="-5.9114285745"><ele>23.69</ele><time>2012-08-10T05:44:39Z</time></trkpt><trkpt lat="57.2413268499" lon="-5.9114755969"><ele>23.69</ele><time>2012-08-10T05:45:05Z</time></trkpt><trkpt lat="57.2413237486" lon="-5.9115576558"><ele>23.69</ele><time>2012-08-10T05:45:38Z</time></trkpt><trkpt lat="57.2413636465" lon="-5.9115962125"><ele>23.69</ele><time>2012-08-10T05:46:12Z</time></trkpt><trkpt lat="57.2413554322" lon="-5.9116100427"><ele>23.69</ele><time>2012-08-10T05:46:44Z</time></trkpt><trkpt lat="57.2413422726" lon="-5.9116030857"><ele>24.17</ele><time>2012-08-10T05:47:16Z</time></trkpt><trkpt lat="57.2413247544" lon="-5.9115811251"><ele>23.69</ele><time>2012-08-10T05:47:50Z</time></trkpt><trkpt lat="57.2413463797" lon="-5.9115579072"><ele>23.21</ele><time>2012-08-10T05:48:28Z</time></trkpt><trkpt lat="57.2413571086" lon="-5.9116222803"><ele>23.21</ele><time>2012-08-10T05:48:58Z</time></trkpt><trkpt lat="57.2413489781" lon="-5.9115335997"><ele>23.21</ele><time>2012-08-10T05:49:26Z</time></trkpt><trkpt lat="57.2413227428" lon="-5.9114897624"><ele>23.21</ele><time>2012-08-10T05:49:56Z</time></trkpt><trkpt lat="57.2413868643" lon="-5.9115597513"><ele>23.21</ele><time>2012-08-10T05:50:24Z</time></trkpt><trkpt lat="57.2414866090" lon="-5.9118397906"><ele>23.69</ele><time>2012-08-10T05:50:53Z</time></trkpt><trkpt lat="57.2414847650" lon="-5.9119023196"><ele>22.73</ele><time>2012-08-10T05:51:22Z</time></trkpt><trkpt lat="57.2413546778" lon="-5.9115893394"><ele>22.73</ele><time>2012-08-10T05:51:54Z</time></trkpt><trkpt lat="57.2413803264" lon="-5.9116293211"><ele>22.73</ele><time>2012-08-10T05:52:17Z</time></trkpt><trkpt lat="57.2413857747" lon="-5.9116101265"><ele>23.21</ele><time>2012-08-10T05:52:42Z</time></trkpt><trkpt lat="57.2413480561" lon="-5.9116113000"><ele>22.73</ele><time>2012-08-10T05:53:09Z</time></trkpt><trkpt lat="57.2413224075" lon="-5.9116030019"><ele>23.21</ele><time>2012-08-10T05:53:39Z</time></trkpt><trkpt lat="57.2412483953" lon="-5.9114812966"><ele>22.73</ele><time>2012-08-10T05:54:11Z</time></trkpt><trkpt lat="57.2412843537" lon="-5.9115686361"><ele>22.73</ele><time>2012-08-10T05:54:46Z</time></trkpt><trkpt lat="57.2412888799" lon="-5.9115346055"><ele>22.73</ele><time>2012-08-10T05:55:14Z</time></trkpt><trkpt lat="57.2413201444" lon="-5.9116663691"><ele>22.73</ele><time>2012-08-10T05:55:40Z</time></trkpt><trkpt lat="57.2413213179" lon="-5.9116137307"><ele>23.69</ele><time>2012-08-10T05:56:11Z</time></trkpt><trkpt lat="57.2412631474" lon="-5.9114105534"><ele>22.25</ele><time>2012-08-10T05:56:40Z</time></trkpt><trkpt lat="57.2412467189" lon="-5.9113408159"><ele>23.69</ele><time>2012-08-10T05:57:02Z</time></trkpt><trkpt lat="57.2412902210" lon="-5.9113665484"><ele>23.21</ele><time>2012-08-10T05:57:33Z</time></trkpt><trkpt lat="57.2413501516" lon="-5.9115267266"><ele>23.21</ele><time>2012-08-10T05:57:59Z</time></trkpt><trkpt lat="57.2413812485" lon="-5.9115158301"><ele>23.69</ele><time>2012-08-10T05:58:22Z</time></trkpt><trkpt lat="57.2413306218" lon="-5.9115451667"><ele>23.21</ele><time>2012-08-10T05:58:48Z</time></trkpt><trkpt lat="57.2413533367" lon="-5.9116679616"><ele>23.21</ele><time>2012-08-10T05:59:12Z</time></trkpt><trkpt lat="57.2413954139" lon="-5.9116097074"><ele>23.21</ele><time>2012-08-10T05:59:41Z</time></trkpt><trkpt lat="57.2413588688" lon="-5.9116454981"><ele>22.73</ele><time>2012-08-10T06:00:06Z</time></trkpt><trkpt lat="57.2412953340" lon="-5.9116095398"><ele>23.21</ele><time>2012-08-10T06:00:33Z</time></trkpt><trkpt lat="57.2413079068" lon="-5.9115288220"><ele>22.73</ele><time>2012-08-10T06:00:59Z</time></trkpt><trkpt lat="57.2413074877" lon="-5.9115904290"><ele>22.73</ele><time>2012-08-10T06:01:26Z</time></trkpt><trkpt lat="57.2413048055" lon="-5.9115257207"><ele>22.73</ele><time>2012-08-10T06:01:55Z</time></trkpt><trkpt lat="57.2413221560" lon="-5.9115180094"><ele>24.17</ele><time>2012-08-10T06:02:22Z</time></trkpt><trkpt lat="57.2413500678" lon="-5.9115911834"><ele>24.17</ele><time>2012-08-10T06:02:51Z</time></trkpt><trkpt lat="57.2413342260" lon="-5.9115435742"><ele>22.73</ele><time>2012-08-10T06:03:19Z</time></trkpt><trkpt lat="57.2412851080" lon="-5.9115635231"><ele>22.73</ele><time>2012-08-10T06:03:50Z</time></trkpt><trkpt lat="57.2413479723" lon="-5.9115636069"><ele>22.73</ele><time>2012-08-10T06:04:25Z</time></trkpt><trkpt lat="57.2413571086" lon="-5.9115237091"><ele>23.21</ele><time>2012-08-10T06:05:02Z</time></trkpt><trkpt lat="57.2413285263" lon="-5.9115372039"><ele>23.21</ele><time>2012-08-10T06:05:39Z</time></trkpt><trkpt lat="57.2413638979" lon="-5.9116089530"><ele>23.21</ele><time>2012-08-10T06:06:19Z</time></trkpt><trkpt lat="57.2413745429" lon="-5.9116428997"><ele>22.73</ele><time>2012-08-10T06:06:49Z</time></trkpt><trkpt lat="57.2413995210" lon="-5.9116219450"><ele>23.21</ele><time>2012-08-10T06:07:16Z</time></trkpt><trkpt lat="57.2414240800" lon="-5.9117083624"><ele>22.73</ele><time>2012-08-10T06:07:28Z</time></trkpt><trkpt lat="57.2415279318" lon="-5.9120622464"><ele>21.77</ele><time>2012-08-10T06:07:55Z</time></trkpt><trkpt lat="57.2415299434" lon="-5.9120643418"><ele>24.17</ele><time>2012-08-10T06:07:56Z</time></trkpt><trkpt lat="57.2415324580" lon="-5.9120637551"><ele>23.21</ele><time>2012-08-10T06:07:57Z</time></trkpt><trkpt lat="57.2415347211" lon="-5.9120633360"><ele>21.29</ele><time>2012-08-10T06:07:58Z</time></trkpt><trkpt lat="57.2415373195" lon="-5.9120671079"><ele>24.17</ele><time>2012-08-10T06:07:59Z</time></trkpt><trkpt lat="57.2415400855" lon="-5.9120733943"><ele>22.73</ele><time>2012-08-10T06:08:00Z</time></trkpt><trkpt lat="57.2415441088" lon="-5.9120873082"><ele>21.77</ele><time>2012-08-10T06:08:02Z</time></trkpt><trkpt lat="57.2415451147" lon="-5.9120952711"><ele>23.69</ele><time>2012-08-10T06:08:03Z</time></trkpt><trkpt lat="57.2415584419" lon="-5.9122971073"><ele>22.25</ele><time>2012-08-10T06:08:33Z</time></trkpt><trkpt lat="57.2415598668" lon="-5.9123045672"><ele>23.69</ele><time>2012-08-10T06:08:34Z</time></trkpt><trkpt lat="57.2415657341" lon="-5.9123370051"><ele>24.17</ele><time>2012-08-10T06:08:38Z</time></trkpt><trkpt lat="57.2415671591" lon="-5.9123449679"><ele>22.73</ele><time>2012-08-10T06:08:39Z</time></trkpt><trkpt lat="57.2414875310" lon="-5.9117055126"><ele>23.21</ele><time>2012-08-10T06:09:06Z</time></trkpt><trkpt lat="57.2414454538" lon="-5.9117027465"><ele>24.17</ele><time>2012-08-10T06:09:14Z</time></trkpt><trkpt lat="57.2414384969" lon="-5.9117017407"><ele>23.21</ele><time>2012-08-10T06:09:15Z</time></trkpt><trkpt lat="57.2413738724" lon="-5.9116954543"><ele>22.25</ele><time>2012-08-10T06:09:26Z</time></trkpt><trkpt lat="57.2413448710" lon="-5.9116871562"><ele>21.77</ele><time>2012-08-10T06:09:30Z</time></trkpt><trkpt lat="57.2413364891" lon="-5.9116866533"><ele>24.17</ele><time>2012-08-10T06:09:31Z</time></trkpt><trkpt lat="57.2413289454" lon="-5.9116870724"><ele>21.77</ele><time>2012-08-10T06:09:32Z</time></trkpt><trkpt lat="57.2413221560" lon="-5.9116876591"><ele>23.69</ele><time>2012-08-10T06:09:33Z</time></trkpt><trkpt lat="57.2412990220" lon="-5.9116841387"><ele>21.77</ele><time>2012-08-10T06:09:37Z</time></trkpt><trkpt lat="57.2412879579" lon="-5.9116753377"><ele>24.17</ele><time>2012-08-10T06:09:40Z</time></trkpt><trkpt lat="57.2412855271" lon="-5.9116716497"><ele>22.73</ele><time>2012-08-10T06:09:41Z</time></trkpt><trkpt lat="57.2413208988" lon="-5.9116694704"><ele>23.21</ele><time>2012-08-10T06:10:12Z</time></trkpt><trkpt lat="57.2413204797" lon="-5.9116776008"><ele>21.77</ele><time>2012-08-10T06:10:17Z</time></trkpt><trkpt lat="57.2413799074" lon="-5.9116356075"><ele>22.25</ele><time>2012-08-10T06:10:53Z</time></trkpt><trkpt lat="57.2413049731" lon="-5.9115763474"><ele>21.29</ele><time>2012-08-10T06:11:27Z</time></trkpt><trkpt lat="57.2413292807" lon="-5.9116250463"><ele>22.73</ele><time>2012-08-10T06:11:56Z</time></trkpt><trkpt lat="57.2413254250" lon="-5.9116311651"><ele>22.25</ele><time>2012-08-10T06:12:28Z</time></trkpt><trkpt lat="57.2413231619" lon="-5.9116473421"><ele>18.88</ele><time>2012-08-10T06:12:35Z</time></trkpt><trkpt lat="57.2413249221" lon="-5.9116483480"><ele>23.21</ele><time>2012-08-10T06:12:36Z</time></trkpt><trkpt lat="57.2413244192" lon="-5.9116375353"><ele>19.36</ele><time>2012-08-10T06:12:42Z</time></trkpt><trkpt lat="57.2413247544" lon="-5.9116361942"><ele>19.36</ele><time>2012-08-10T06:12:43Z</time></trkpt><trkpt lat="57.2413253412" lon="-5.9116339311"><ele>22.73</ele><time>2012-08-10T06:12:44Z</time></trkpt><trkpt lat="57.2413273528" lon="-5.9116321709"><ele>19.36</ele><time>2012-08-10T06:12:45Z</time></trkpt><trkpt lat="57.2413296159" lon="-5.9116311651"><ele>19.36</ele><time>2012-08-10T06:12:46Z</time></trkpt><trkpt lat="57.2413329687" lon="-5.9116300754"><ele>22.25</ele><time>2012-08-10T06:12:47Z</time></trkpt><trkpt lat="57.2413371596" lon="-5.9116302431"><ele>23.21</ele><time>2012-08-10T06:12:48Z</time></trkpt><trkpt lat="57.2413406800" lon="-5.9116309136"><ele>22.73</ele><time>2012-08-10T06:12:49Z</time></trkpt><trkpt lat="57.2413552646" lon="-5.9116204362"><ele>21.77</ele><time>2012-08-10T06:12:53Z</time></trkpt><trkpt lat="57.2413592879" lon="-5.9116187599"><ele>20.32</ele><time>2012-08-10T06:12:54Z</time></trkpt><trkpt lat="57.2413628921" lon="-5.9116181731"><ele>22.25</ele><time>2012-08-10T06:12:55Z</time></trkpt><trkpt lat="57.2413661610" lon="-5.9116199333"><ele>19.84</ele><time>2012-08-10T06:12:59Z</time></trkpt><trkpt lat="57.2413659096" lon="-5.9116188437"><ele>22.25</ele><time>2012-08-10T06:13:00Z</time></trkpt><trkpt lat="57.2413599584" lon="-5.9115822148"><ele>20.32</ele><time>2012-08-10T06:13:12Z</time></trkpt><trkpt lat="57.2413614672" lon="-5.9115812927"><ele>22.73</ele><time>2012-08-10T06:13:13Z</time></trkpt><trkpt lat="57.2413665801" lon="-5.9115799516"><ele>19.84</ele><time>2012-08-10T06:13:15Z</time></trkpt><trkpt lat="57.2413700167" lon="-5.9115806222"><ele>22.73</ele><time>2012-08-10T06:13:16Z</time></trkpt><trkpt lat="57.2413732857" lon="-5.9115807898"><ele>19.84</ele><time>2012-08-10T06:13:17Z</time></trkpt><trkpt lat="57.2413761355" lon="-5.9115807898"><ele>22.73</ele><time>2012-08-10T06:13:18Z</time></trkpt><trkpt lat="57.2414134350" lon="-5.9115574881"><ele>21.77</ele><time>2012-08-10T06:13:45Z</time></trkpt><trkpt lat="57.2413643170" lon="-5.9115564823"><ele>21.77</ele><time>2012-08-10T06:14:14Z</time></trkpt><trkpt lat="57.2413792368" lon="-5.9116037562"><ele>22.25</ele><time>2012-08-10T06:14:44Z</time></trkpt><trkpt lat="57.2413538396" lon="-5.9116283990"><ele>22.25</ele><time>2012-08-10T06:15:19Z</time></trkpt><trkpt lat="57.2413467988" lon="-5.9116370324"><ele>22.25</ele><time>2012-08-10T06:15:44Z</time></trkpt><trkpt lat="57.2413567733" lon="-5.9115791135"><ele>21.77</ele><time>2012-08-10T06:16:18Z</time></trkpt><trkpt lat="57.2414028738" lon="-5.9115653671"><ele>21.77</ele><time>2012-08-10T06:16:48Z</time></trkpt><trkpt lat="57.2414052207" lon="-5.9115232062"><ele>20.81</ele><time>2012-08-10T06:17:12Z</time></trkpt><trkpt lat="57.2413783986" lon="-5.9115897585"><ele>20.81</ele><time>2012-08-10T06:17:41Z</time></trkpt><trkpt lat="57.2413634788" lon="-5.9116143174"><ele>21.29</ele><time>2012-08-10T06:18:15Z</time></trkpt><trkpt lat="57.2412906401" lon="-5.9116039239"><ele>20.81</ele><time>2012-08-10T06:18:42Z</time></trkpt><trkpt lat="57.2413271014" lon="-5.9115817118"><ele>21.77</ele><time>2012-08-10T06:18:53Z</time></trkpt><trkpt lat="57.2413400095" lon="-5.9115253855"><ele>21.29</ele><time>2012-08-10T06:19:16Z</time></trkpt><trkpt lat="57.2413274366" lon="-5.9115636908"><ele>21.29</ele><time>2012-08-10T06:19:46Z</time></trkpt><trkpt lat="57.2413571086" lon="-5.9115730785"><ele>21.29</ele><time>2012-08-10T06:20:08Z</time></trkpt><trkpt lat="57.2413576953" lon="-5.9116374515"><ele>21.77</ele><time>2012-08-10T06:20:36Z</time></trkpt><trkpt lat="57.2413971741" lon="-5.9116342664"><ele>21.29</ele><time>2012-08-10T06:21:04Z</time></trkpt><trkpt lat="57.2413606290" lon="-5.9115831368"><ele>21.77</ele><time>2012-08-10T06:21:41Z</time></trkpt><trkpt lat="57.2413492296" lon="-5.9116837196"><ele>21.29</ele><time>2012-08-10T06:22:20Z</time></trkpt><trkpt lat="57.2413493134" lon="-5.9116012417"><ele>21.29</ele><time>2012-08-10T06:23:01Z</time></trkpt><trkpt lat="57.2413956653" lon="-5.9116442408"><ele>20.81</ele><time>2012-08-10T06:23:35Z</time></trkpt></trkseg><trkseg><trkpt lat="57.2414101660" lon="-5.9116572328"><ele>20.81</ele><time>2012-08-10T06:23:44Z</time></trkpt><trkpt lat="57.2413930669" lon="-5.9116307460"><ele>20.81</ele><time>2012-08-10T06:24:17Z</time></trkpt><trkpt lat="57.2414263431" lon="-5.9116817918"><ele>19.84</ele><time>2012-08-10T06:24:48Z</time></trkpt><trkpt lat="57.2413767222" lon="-5.9117050935"><ele>19.84</ele><time>2012-08-10T06:25:28Z</time></trkpt><trkpt lat="57.2413731180" lon="-5.9116289020"><ele>19.36</ele><time>2012-08-10T06:26:03Z</time></trkpt><trkpt lat="57.2413901333" lon="-5.9116289020"><ele>19.36</ele><time>2012-08-10T06:26:36Z</time></trkpt><trkpt lat="57.2413071524" lon="-5.9116117191"><ele>18.40</ele><time>2012-08-10T06:27:02Z</time></trkpt><trkpt lat="57.2412721161" lon="-5.9116152395"><ele>18.88</ele><time>2012-08-10T06:27:33Z</time></trkpt><trkpt lat="57.2413419373" lon="-5.9115701448"><ele>18.88</ele><time>2012-08-10T06:27:59Z</time></trkpt><trkpt lat="57.2413427755" lon="-5.9115864895"><ele>19.36</ele><time>2012-08-10T06:28:30Z</time></trkpt><trkpt lat="57.2414011136" lon="-5.9117296524"><ele>18.88</ele><time>2012-08-10T06:29:06Z</time></trkpt><trkpt lat="57.2412957530" lon="-5.9115490224"><ele>19.36</ele><time>2012-08-10T06:29:48Z</time></trkpt><trkpt lat="57.2413454577" lon="-5.9116315003"><ele>18.88</ele><time>2012-08-10T06:30:25Z</time></trkpt><trkpt lat="57.2413471341" lon="-5.9116146527"><ele>19.36</ele><time>2012-08-10T06:31:06Z</time></trkpt><trkpt lat="57.2413151991" lon="-5.9115964640"><ele>18.88</ele><time>2012-08-10T06:31:53Z</time></trkpt><trkpt lat="57.2412767261" lon="-5.9115987271"><ele>18.88</ele><time>2012-08-10T06:32:27Z</time></trkpt><trkpt lat="57.2412431147" lon="-5.9115443286"><ele>18.88</ele><time>2012-08-10T06:33:02Z</time></trkpt><trkpt lat="57.2412674222" lon="-5.9114980604"><ele>18.40</ele><time>2012-08-10T06:33:38Z</time></trkpt><trkpt lat="57.2412830126" lon="-5.9115558118"><ele>18.88</ele><time>2012-08-10T06:34:08Z</time></trkpt><trkpt lat="57.2412041388" lon="-5.9115567338"><ele>18.88</ele><time>2012-08-10T06:34:43Z</time></trkpt><trkpt lat="57.2412468027" lon="-5.9116154071"><ele>18.40</ele><time>2012-08-10T06:35:23Z</time></trkpt><trkpt lat="57.2412507422" lon="-5.9116762597"><ele>18.88</ele><time>2012-08-10T06:35:47Z</time></trkpt><trkpt lat="57.2411584575" lon="-5.9118277207"><ele>18.88</ele><time>2012-08-10T06:36:13Z</time></trkpt><trkpt lat="57.2412281949" lon="-5.9115849808"><ele>18.88</ele><time>2012-08-10T06:36:42Z</time></trkpt><trkpt lat="57.2412291169" lon="-5.9115710668"><ele>19.36</ele><time>2012-08-10T06:37:20Z</time></trkpt><trkpt lat="57.2412408516" lon="-5.9115159977"><ele>19.36</ele><time>2012-08-10T06:37:58Z</time></trkpt><trkpt lat="57.2412694339" lon="-5.9115683008"><ele>20.32</ele><time>2012-08-10T06:38:29Z</time></trkpt><trkpt lat="57.2412964236" lon="-5.9115085378"><ele>20.32</ele><time>2012-08-10T06:38:57Z</time></trkpt><trkpt lat="57.2412519157" lon="-5.9115740005"><ele>20.32</ele><time>2012-08-10T06:39:23Z</time></trkpt><trkpt lat="57.2413487267" lon="-5.9116677102"><ele>20.32</ele><time>2012-08-10T06:39:51Z</time></trkpt><trkpt lat="57.2413215693" lon="-5.9115180932"><ele>20.32</ele><time>2012-08-10T06:40:17Z</time></trkpt><trkpt lat="57.2413352318" lon="-5.9115563147"><ele>20.81</ele><time>2012-08-10T06:40:40Z</time></trkpt><trkpt lat="57.2412588727" lon="-5.9115392994"><ele>20.32</ele><time>2012-08-10T06:41:04Z</time></trkpt><trkpt lat="57.2412907239" lon="-5.9115803707"><ele>19.36</ele><time>2012-08-10T06:41:39Z</time></trkpt><trkpt lat="57.2412803303" lon="-5.9115799516"><ele>19.84</ele><time>2012-08-10T06:42:08Z</time></trkpt><trkpt lat="57.2412603814" lon="-5.9115739167"><ele>19.84</ele><time>2012-08-10T06:42:41Z</time></trkpt><trkpt lat="57.2412511613" lon="-5.9115310013"><ele>19.36</ele><time>2012-08-10T06:43:08Z</time></trkpt><trkpt lat="57.2412534244" lon="-5.9115349408"><ele>19.84</ele><time>2012-08-10T06:43:36Z</time></trkpt><trkpt lat="57.2413021233" lon="-5.9115100466"><ele>19.84</ele><time>2012-08-10T06:44:06Z</time></trkpt><trkpt lat="57.2412697691" lon="-5.9115589969"><ele>19.84</ele><time>2012-08-10T06:44:40Z</time></trkpt><trkpt lat="57.2412988544" lon="-5.9115180932"><ele>19.84</ele><time>2012-08-10T06:45:11Z</time></trkpt><trkpt lat="57.2413524985" lon="-5.9114688914"><ele>19.84</ele><time>2012-08-10T06:45:46Z</time></trkpt><trkpt lat="57.2412903886" lon="-5.9115661215"><ele>19.84</ele><time>2012-08-10T06:46:24Z</time></trkpt><trkpt lat="57.2412849404" lon="-5.9115512017"><ele>20.32</ele><time>2012-08-10T06:47:03Z</time></trkpt><trkpt lat="57.2412891313" lon="-5.9115183447"><ele>19.84</ele><time>2012-08-10T06:47:35Z</time></trkpt><trkpt lat="57.2412863653" lon="-5.9115656186"><ele>19.84</ele><time>2012-08-10T06:48:01Z</time></trkpt><trkpt lat="57.2412832640" lon="-5.9116035886"><ele>19.36</ele><time>2012-08-10T06:48:36Z</time></trkpt><trkpt lat="57.2413012013" lon="-5.9116103780"><ele>19.84</ele><time>2012-08-10T06:49:11Z</time></trkpt><trkpt lat="57.2412833478" lon="-5.9115367848"><ele>19.84</ele><time>2012-08-10T06:49:53Z</time></trkpt><trkpt lat="57.2412843537" lon="-5.9115261398"><ele>20.32</ele><time>2012-08-10T06:50:39Z</time></trkpt><trkpt lat="57.2412918974" lon="-5.9115578234"><ele>19.84</ele><time>2012-08-10T06:51:26Z</time></trkpt><trkpt lat="57.2412696015" lon="-5.9115631878"><ele>19.36</ele><time>2012-08-10T06:51:58Z</time></trkpt><trkpt lat="57.2412484791" lon="-5.9114963003"><ele>19.36</ele><time>2012-08-10T06:52:25Z</time></trkpt><trkpt lat="57.2413389198" lon="-5.9115155786"><ele>19.36</ele><time>2012-08-10T06:52:50Z</time></trkpt><trkpt lat="57.2412993573" lon="-5.9115334321"><ele>19.36</ele><time>2012-08-10T06:53:15Z</time></trkpt><trkpt lat="57.2412902210" lon="-5.9115589969"><ele>19.36</ele><time>2012-08-10T06:53:44Z</time></trkpt><trkpt lat="57.2412403487" lon="-5.9113952983"><ele>19.84</ele><time>2012-08-10T06:54:11Z</time></trkpt><trkpt lat="57.2412191425" lon="-5.9113974776"><ele>19.36</ele><time>2012-08-10T06:54:38Z</time></trkpt><trkpt lat="57.2412349842" lon="-5.9114305023"><ele>19.84</ele><time>2012-08-10T06:55:07Z</time></trkpt><trkpt lat="57.2413180489" lon="-5.9115522914"><ele>19.36</ele><time>2012-08-10T06:55:39Z</time></trkpt><trkpt lat="57.2413322981" lon="-5.9114908520"><ele>19.36</ele><time>2012-08-10T06:56:20Z</time></trkpt><trkpt lat="57.2413644847" lon="-5.9114913549"><ele>19.36</ele><time>2012-08-10T06:57:01Z</time></trkpt><trkpt lat="57.2413267661" lon="-5.9114744235"><ele>19.36</ele><time>2012-08-10T06:57:47Z</time></trkpt><trkpt lat="57.2413137741" lon="-5.9115046822"><ele>19.36</ele><time>2012-08-10T06:58:20Z</time></trkpt><trkpt lat="57.2413948271" lon="-5.9115330130"><ele>18.88</ele><time>2012-08-10T06:58:47Z</time></trkpt><trkpt lat="57.2413571924" lon="-5.9115087893"><ele>19.36</ele><time>2012-08-10T06:59:14Z</time></trkpt><trkpt lat="57.2414707672" lon="-5.9114507027"><ele>19.84</ele><time>2012-08-10T06:59:41Z</time></trkpt><trkpt lat="57.2414435260" lon="-5.9115098789"><ele>19.36</ele><time>2012-08-10T07:00:08Z</time></trkpt><trkpt lat="57.2413431946" lon="-5.9115303308"><ele>18.88</ele><time>2012-08-10T07:00:36Z</time></trkpt><trkpt lat="57.2413566895" lon="-5.9115303308"><ele>19.36</ele><time>2012-08-10T07:01:05Z</time></trkpt><trkpt lat="57.2413433623" lon="-5.9115760960"><ele>19.36</ele><time>2012-08-10T07:01:38Z</time></trkpt><trkpt lat="57.2413451225" lon="-5.9114534687"><ele>19.36</ele><time>2012-08-10T07:02:12Z</time></trkpt><trkpt lat="57.2413579468" lon="-5.9115876630"><ele>19.84</ele><time>2012-08-10T07:02:42Z</time></trkpt><trkpt lat="57.2413835116" lon="-5.9116237052"><ele>18.88</ele><time>2012-08-10T07:03:08Z</time></trkpt><trkpt lat="57.2413775604" lon="-5.9116150718"><ele>19.36</ele><time>2012-08-10T07:03:37Z</time></trkpt><trkpt lat="57.2414618824" lon="-5.9117072728"><ele>18.40</ele><time>2012-08-10T07:04:02Z</time></trkpt><trkpt lat="57.2414837591" lon="-5.9117366932"><ele>18.88</ele><time>2012-08-10T07:04:05Z</time></trkpt><trkpt lat="57.2417542432" lon="-5.9120488353"><ele>18.88</ele><time>2012-08-10T07:04:36Z</time></trkpt><trkpt lat="57.2417101543" lon="-5.9117802791"><ele>19.36</ele><time>2012-08-10T07:05:00Z</time></trkpt><trkpt lat="57.2416203003" lon="-5.9116641060"><ele>18.88</ele><time>2012-08-10T07:05:22Z</time></trkpt><trkpt lat="57.2415589448" lon="-5.9116277285"><ele>18.88</ele><time>2012-08-10T07:05:31Z</time></trkpt><trkpt lat="57.2413183004" lon="-5.9114355315"><ele>18.40</ele><time>2012-08-10T07:05:52Z</time></trkpt><trkpt lat="57.2413089126" lon="-5.9114995692"><ele>18.88</ele><time>2012-08-10T07:06:22Z</time></trkpt><trkpt lat="57.2413114272" lon="-5.9115833882"><ele>18.40</ele><time>2012-08-10T07:07:00Z</time></trkpt><trkpt lat="57.2413265146" lon="-5.9115879145"><ele>18.40</ele><time>2012-08-10T07:07:36Z</time></trkpt><trkpt lat="57.2413002793" lon="-5.9115895908"><ele>18.88</ele><time>2012-08-10T07:08:09Z</time></trkpt><trkpt lat="57.2413024586" lon="-5.9115838911"><ele>18.40</ele><time>2012-08-10T07:08:42Z</time></trkpt><trkpt lat="57.2413001116" lon="-5.9115256369"><ele>17.92</ele><time>2012-08-10T07:09:15Z</time></trkpt><trkpt lat="57.2413053922" lon="-5.9115377069"><ele>17.92</ele><time>2012-08-10T07:09:41Z</time></trkpt><trkpt lat="57.2412696853" lon="-5.9115223680"><ele>17.92</ele><time>2012-08-10T07:10:05Z</time></trkpt><trkpt lat="57.2412902210" lon="-5.9116082825"><ele>18.40</ele><time>2012-08-10T07:10:33Z</time></trkpt><trkpt lat="57.2412465513" lon="-5.9116525389"><ele>17.92</ele><time>2012-08-10T07:11:00Z</time></trkpt><trkpt lat="57.2412748821" lon="-5.9115751740"><ele>17.92</ele><time>2012-08-10T07:11:24Z</time></trkpt><trkpt lat="57.2413269337" lon="-5.9115009941"><ele>18.40</ele><time>2012-08-10T07:11:52Z</time></trkpt><trkpt lat="57.2413256764" lon="-5.9115059394"><ele>18.40</ele><time>2012-08-10T07:12:23Z</time></trkpt><trkpt lat="57.2413328011" lon="-5.9114667121"><ele>18.40</ele><time>2012-08-10T07:12:53Z</time></trkpt><trkpt lat="57.2413181327" lon="-5.9114073683"><ele>18.40</ele><time>2012-08-10T07:13:22Z</time></trkpt><trkpt lat="57.2413351480" lon="-5.9112753533"><ele>17.92</ele><time>2012-08-10T07:13:48Z</time></trkpt><trkpt lat="57.2413242515" lon="-5.9110506345"><ele>17.92</ele><time>2012-08-10T07:14:21Z</time></trkpt><trkpt lat="57.2413094155" lon="-5.9109287616"><ele>17.92</ele><time>2012-08-10T07:14:31Z</time></trkpt><trkpt lat="57.2412792407" lon="-5.9108141810"><ele>18.40</ele><time>2012-08-10T07:14:57Z</time></trkpt><trkpt lat="57.2413213179" lon="-5.9113262314"><ele>17.44</ele><time>2012-08-10T07:15:18Z</time></trkpt><trkpt lat="57.2412915621" lon="-5.9114610963"><ele>17.92</ele><time>2012-08-10T07:15:42Z</time></trkpt><trkpt lat="57.2412473056" lon="-5.9114125650"><ele>18.40</ele><time>2012-08-10T07:16:12Z</time></trkpt><trkpt lat="57.2413234133" lon="-5.9115173388"><ele>18.40</ele><time>2012-08-10T07:16:48Z</time></trkpt><trkpt lat="57.2413363215" lon="-5.9116242919"><ele>17.92</ele><time>2012-08-10T07:17:17Z</time></trkpt><trkpt lat="57.2413720284" lon="-5.9116836358"><ele>17.92</ele><time>2012-08-10T07:17:45Z</time></trkpt><trkpt lat="57.2413340583" lon="-5.9116272256"><ele>17.92</ele><time>2012-08-10T07:18:08Z</time></trkpt><trkpt lat="57.2413307056" lon="-5.9116629325"><ele>16.96</ele><time>2012-08-10T07:18:33Z</time></trkpt><trkpt lat="57.2412799112" lon="-5.9116571490"><ele>17.44</ele><time>2012-08-10T07:18:58Z</time></trkpt><trkpt lat="57.2412798274" lon="-5.9115580749"><ele>17.44</ele><time>2012-08-10T07:19:26Z</time></trkpt><trkpt lat="57.2413187195" lon="-5.9115635231"><ele>16.00</ele><time>2012-08-10T07:19:40Z</time></trkpt><trkpt lat="57.2413272690" lon="-5.9115657024"><ele>18.88</ele><time>2012-08-10T07:19:41Z</time></trkpt><trkpt lat="57.2413352318" lon="-5.9115670435"><ele>17.44</ele><time>2012-08-10T07:19:42Z</time></trkpt><trkpt lat="57.2414312884" lon="-5.9117807820"><ele>18.40</ele><time>2012-08-10T07:20:04Z</time></trkpt><trkpt lat="57.2414252535" lon="-5.9117231984"><ele>16.96</ele><time>2012-08-10T07:20:14Z</time></trkpt><trkpt lat="57.2417423408" lon="-5.9114465117"><ele>16.96</ele><time>2012-08-10T07:20:37Z</time></trkpt><trkpt lat="57.2417583503" lon="-5.9114279039"><ele>17.92</ele><time>2012-08-10T07:20:38Z</time></trkpt><trkpt lat="57.2418875154" lon="-5.9113366250"><ele>15.52</ele><time>2012-08-10T07:20:50Z</time></trkpt><trkpt lat="57.2418930475" lon="-5.9113395587"><ele>19.36</ele><time>2012-08-10T07:20:51Z</time></trkpt><trkpt lat="57.2418978252" lon="-5.9113406483"><ele>17.44</ele><time>2012-08-10T07:20:52Z</time></trkpt><trkpt lat="57.2413234133" lon="-5.9115803707"><ele>17.44</ele><time>2012-08-10T07:21:16Z</time></trkpt><trkpt lat="57.2412536759" lon="-5.9115985595"><ele>16.96</ele><time>2012-08-10T07:21:47Z</time></trkpt><trkpt lat="57.2412722837" lon="-5.9116026666"><ele>16.96</ele><time>2012-08-10T07:22:15Z</time></trkpt><trkpt lat="57.2412968427" lon="-5.9115431551"><ele>16.96</ele><time>2012-08-10T07:22:40Z</time></trkpt><trkpt lat="57.2413311247" lon="-5.9115102142"><ele>16.96</ele><time>2012-08-10T07:23:13Z</time></trkpt><trkpt lat="57.2412955016" lon="-5.9115681332"><ele>16.96</ele><time>2012-08-10T07:23:47Z</time></trkpt><trkpt lat="57.2413099185" lon="-5.9115817118"><ele>17.92</ele><time>2012-08-10T07:24:12Z</time></trkpt><trkpt lat="57.2413150314" lon="-5.9115655348"><ele>18.88</ele><time>2012-08-10T07:24:18Z</time></trkpt><trkpt lat="57.2413022909" lon="-5.9115659539"><ele>17.92</ele><time>2012-08-10T07:24:38Z</time></trkpt><trkpt lat="57.2412343975" lon="-5.9115918539"><ele>17.92</ele><time>2012-08-10T07:25:06Z</time></trkpt><trkpt lat="57.2412479762" lon="-5.9115714859"><ele>17.92</ele><time>2012-08-10T07:25:33Z</time></trkpt><trkpt lat="57.2413435299" lon="-5.9115651157"><ele>17.44</ele><time>2012-08-10T07:26:02Z</time></trkpt><trkpt lat="57.2412447073" lon="-5.9116254654"><ele>17.44</ele><time>2012-08-10T07:26:36Z</time></trkpt><trkpt lat="57.2412420250" lon="-5.9117508586"><ele>17.44</ele><time>2012-08-10T07:26:57Z</time></trkpt><trkpt lat="57.2413555160" lon="-5.9116592444"><ele>17.92</ele><time>2012-08-10T07:27:17Z</time></trkpt><trkpt lat="57.2413412668" lon="-5.9115423169"><ele>17.44</ele><time>2012-08-10T07:27:45Z</time></trkpt><trkpt lat="57.2413261794" lon="-5.9115987271"><ele>17.44</ele><time>2012-08-10T07:28:14Z</time></trkpt><trkpt lat="57.2412759718" lon="-5.9115926083"><ele>17.92</ele><time>2012-08-10T07:28:43Z</time></trkpt><trkpt lat="57.2413316276" lon="-5.9115486033"><ele>17.44</ele><time>2012-08-10T07:29:09Z</time></trkpt><trkpt lat="57.2413734533" lon="-5.9114468470"><ele>17.44</ele><time>2012-08-10T07:29:35Z</time></trkpt><trkpt lat="57.2416089009" lon="-5.9113581665"><ele>18.40</ele><time>2012-08-10T07:30:04Z</time></trkpt><trkpt lat="57.2414661571" lon="-5.9113870002"><ele>17.92</ele><time>2012-08-10T07:30:31Z</time></trkpt><trkpt lat="57.2413533367" lon="-5.9114244673"><ele>17.44</ele><time>2012-08-10T07:31:01Z</time></trkpt><trkpt lat="57.2413110081" lon="-5.9114740044"><ele>17.44</ele><time>2012-08-10T07:31:30Z</time></trkpt><trkpt lat="57.2412511613" lon="-5.9115108848"><ele>17.44</ele><time>2012-08-10T07:31:53Z</time></trkpt><trkpt lat="57.2413026262" lon="-5.9114102181"><ele>17.44</ele><time>2012-08-10T07:32:25Z</time></trkpt><trkpt lat="57.2413048893" lon="-5.9113394748"><ele>17.92</ele><time>2012-08-10T07:32:56Z</time></trkpt><trkpt lat="57.2413104214" lon="-5.9115024190"><ele>17.92</ele><time>2012-08-10T07:33:27Z</time></trkpt><trkpt lat="57.2413230781" lon="-5.9115522914"><ele>17.44</ele><time>2012-08-10T07:33:58Z</time></trkpt><trkpt lat="57.2412858624" lon="-5.9114843141"><ele>17.44</ele><time>2012-08-10T07:34:28Z</time></trkpt><trkpt lat="57.2413093317" lon="-5.9115469269"><ele>17.44</ele><time>2012-08-10T07:35:00Z</time></trkpt><trkpt lat="57.2413337231" lon="-5.9115162492"><ele>17.44</ele><time>2012-08-10T07:35:34Z</time></trkpt><trkpt lat="57.2413364891" lon="-5.9115228709"><ele>17.44</ele><time>2012-08-10T07:36:09Z</time></trkpt><trkpt lat="57.2413517442" lon="-5.9115548059"><ele>17.92</ele><time>2012-08-10T07:36:44Z</time></trkpt><trkpt lat="57.2413460445" lon="-5.9115668759"><ele>17.92</ele><time>2012-08-10T07:37:16Z</time></trkpt><trkpt lat="57.2412996925" lon="-5.9114942048"><ele>17.92</ele><time>2012-08-10T07:37:48Z</time></trkpt><trkpt lat="57.2413307894" lon="-5.9114623535"><ele>17.44</ele><time>2012-08-10T07:38:18Z</time></trkpt><trkpt lat="57.2413277719" lon="-5.9113754332"><ele>17.44</ele><time>2012-08-10T07:38:38Z</time></trkpt><trkpt lat="57.2414913028" lon="-5.9113852400"><ele>17.92</ele><time>2012-08-10T07:39:02Z</time></trkpt><trkpt lat="57.2415712662" lon="-5.9114495292"><ele>17.44</ele><time>2012-08-10T07:39:24Z</time></trkpt><trkpt lat="57.2415916342" lon="-5.9114022553"><ele>17.92</ele><time>2012-08-10T07:39:52Z</time></trkpt><trkpt lat="57.2414246667" lon="-5.9114670474"><ele>17.92</ele><time>2012-08-10T07:40:21Z</time></trkpt><trkpt lat="57.2413685918" lon="-5.9115182608"><ele>17.44</ele><time>2012-08-10T07:40:50Z</time></trkpt><trkpt lat="57.2413291130" lon="-5.9114951268"><ele>17.92</ele><time>2012-08-10T07:41:17Z</time></trkpt><trkpt lat="57.2413574439" lon="-5.9115557279"><ele>17.92</ele><time>2012-08-10T07:41:43Z</time></trkpt><trkpt lat="57.2414074000" lon="-5.9115865733"><ele>17.92</ele><time>2012-08-10T07:42:12Z</time></trkpt><trkpt lat="57.2413651552" lon="-5.9115391318"><ele>17.92</ele><time>2012-08-10T07:42:39Z</time></trkpt><trkpt lat="57.2412880417" lon="-5.9114558995"><ele>17.92</ele><time>2012-08-10T07:43:10Z</time></trkpt><trkpt lat="57.2412656620" lon="-5.9114469308"><ele>17.92</ele><time>2012-08-10T07:43:45Z</time></trkpt><trkpt lat="57.2413371596" lon="-5.9115916025"><ele>17.92</ele><time>2012-08-10T07:44:21Z</time></trkpt><trkpt lat="57.2412851918" lon="-5.9114527982"><ele>18.40</ele><time>2012-08-10T07:44:52Z</time></trkpt><trkpt lat="57.2413104214" lon="-5.9115705639"><ele>17.92</ele><time>2012-08-10T07:45:25Z</time></trkpt><trkpt lat="57.2413455416" lon="-5.9115708154"><ele>18.40</ele><time>2012-08-10T07:46:03Z</time></trkpt><trkpt lat="57.2413695976" lon="-5.9116029181"><ele>17.92</ele><time>2012-08-10T07:46:35Z</time></trkpt><trkpt lat="57.2413479723" lon="-5.9114626888"><ele>17.92</ele><time>2012-08-10T07:47:01Z</time></trkpt><trkpt lat="57.2412799951" lon="-5.9113885928"><ele>17.92</ele><time>2012-08-10T07:47:26Z</time></trkpt><trkpt lat="57.2413102537" lon="-5.9113315120"><ele>17.44</ele><time>2012-08-10T07:47:54Z</time></trkpt><trkpt lat="57.2412950825" lon="-5.9115222842"><ele>17.92</ele><time>2012-08-10T07:48:22Z</time></trkpt><trkpt lat="57.2413009498" lon="-5.9116356075"><ele>17.44</ele><time>2012-08-10T07:48:55Z</time></trkpt><trkpt lat="57.2413014527" lon="-5.9115751740"><ele>17.44</ele><time>2012-08-10T07:49:27Z</time></trkpt><trkpt lat="57.2412807494" lon="-5.9115700610"><ele>17.92</ele><time>2012-08-10T07:49:59Z</time></trkpt><trkpt lat="57.2413275205" lon="-5.9115935303"><ele>17.44</ele><time>2012-08-10T07:50:23Z</time></trkpt><trkpt lat="57.2412684280" lon="-5.9115615115"><ele>17.44</ele><time>2012-08-10T07:50:45Z</time></trkpt><trkpt lat="57.2412598785" lon="-5.9115310851"><ele>17.44</ele><time>2012-08-10T07:51:13Z</time></trkpt><trkpt lat="57.2413451225" lon="-5.9116116352"><ele>17.44</ele><time>2012-08-10T07:51:41Z</time></trkpt><trkpt lat="57.2413784824" lon="-5.9115806222"><ele>16.96</ele><time>2012-08-10T07:52:11Z</time></trkpt><trkpt lat="57.2413392551" lon="-5.9115340188"><ele>16.96</ele><time>2012-08-10T07:52:41Z</time></trkpt><trkpt lat="57.2413059790" lon="-5.9115126450"><ele>17.44</ele><time>2012-08-10T07:53:15Z</time></trkpt><trkpt lat="57.2413390875" lon="-5.9115543868"><ele>17.44</ele><time>2012-08-10T07:53:53Z</time></trkpt><trkpt lat="57.2413290292" lon="-5.9114112239"><ele>17.44</ele><time>2012-08-10T07:54:31Z</time></trkpt><trkpt lat="57.2413197253" lon="-5.9114769381"><ele>16.96</ele><time>2012-08-10T07:55:06Z</time></trkpt><trkpt lat="57.2413131874" lon="-5.9115088731"><ele>17.44</ele><time>2012-08-10T07:55:39Z</time></trkpt><trkpt lat="57.2413240839" lon="-5.9115910996"><ele>17.44</ele><time>2012-08-10T07:56:11Z</time></trkpt><trkpt lat="57.2413087450" lon="-5.9116421454"><ele>16.96</ele><time>2012-08-10T07:56:47Z</time></trkpt><trkpt lat="57.2413362376" lon="-5.9117592406"><ele>16.96</ele><time>2012-08-10T07:57:24Z</time></trkpt><trkpt lat="57.2413069010" lon="-5.9115716536"><ele>16.96</ele><time>2012-08-10T07:57:58Z</time></trkpt><trkpt lat="57.2412944119" lon="-5.9115224518"><ele>16.48</ele><time>2012-08-10T07:58:33Z</time></trkpt><trkpt lat="57.2412893828" lon="-5.9115361981"><ele>16.96</ele><time>2012-08-10T07:59:03Z</time></trkpt><trkpt lat="57.2412987705" lon="-5.9115708992"><ele>16.96</ele><time>2012-08-10T07:59:45Z</time></trkpt><trkpt lat="57.2412784025" lon="-5.9115218651"><ele>16.96</ele><time>2012-08-10T08:00:19Z</time></trkpt><trkpt lat="57.2412737925" lon="-5.9114652034"><ele>16.96</ele><time>2012-08-10T08:00:54Z</time></trkpt><trkpt lat="57.2412956692" lon="-5.9113766905"><ele>16.96</ele><time>2012-08-10T08:01:22Z</time></trkpt><trkpt lat="57.2412610520" lon="-5.9113999084"><ele>16.96</ele><time>2012-08-10T08:01:46Z</time></trkpt><trkpt lat="57.2413224913" lon="-5.9113336913"><ele>17.44</ele><time>2012-08-10T08:02:12Z</time></trkpt><trkpt lat="57.2413039673" lon="-5.9114958812"><ele>17.44</ele><time>2012-08-10T08:02:43Z</time></trkpt><trkpt lat="57.2413338069" lon="-5.9114802070"><ele>16.96</ele><time>2012-08-10T08:03:11Z</time></trkpt><trkpt lat="57.2413484752" lon="-5.9114965517"><ele>17.44</ele><time>2012-08-10T08:03:37Z</time></trkpt><trkpt lat="57.2413482238" lon="-5.9116085339"><ele>16.96</ele><time>2012-08-10T08:04:18Z</time></trkpt><trkpt lat="57.2413144447" lon="-5.9115564823"><ele>17.44</ele><time>2012-08-10T08:04:52Z</time></trkpt><trkpt lat="57.2412855271" lon="-5.9114325140"><ele>17.44</ele><time>2012-08-10T08:05:30Z</time></trkpt><trkpt lat="57.2413137741" lon="-5.9115020838"><ele>17.44</ele><time>2012-08-10T08:06:12Z</time></trkpt><trkpt lat="57.2413364891" lon="-5.9115762636"><ele>17.44</ele><time>2012-08-10T08:06:54Z</time></trkpt><trkpt lat="57.2413278557" lon="-5.9116241243"><ele>16.96</ele><time>2012-08-10T08:07:34Z</time></trkpt><trkpt lat="57.2413224075" lon="-5.9115679655"><ele>16.96</ele><time>2012-08-10T08:08:13Z</time></trkpt><trkpt lat="57.2412804142" lon="-5.9114613477"><ele>16.96</ele><time>2012-08-10T08:08:46Z</time></trkpt><trkpt lat="57.2412888799" lon="-5.9114651196"><ele>17.44</ele><time>2012-08-10T08:09:14Z</time></trkpt><trkpt lat="57.2413307056" lon="-5.9115030058"><ele>17.44</ele><time>2012-08-10T08:09:45Z</time></trkpt><trkpt lat="57.2413036320" lon="-5.9114463441"><ele>16.96</ele><time>2012-08-10T08:10:15Z</time></trkpt><trkpt lat="57.2413014527" lon="-5.9113882575"><ele>17.92</ele><time>2012-08-10T08:10:50Z</time></trkpt><trkpt lat="57.2412690148" lon="-5.9113298357"><ele>17.92</ele><time>2012-08-10T08:11:24Z</time></trkpt><trkpt lat="57.2413108405" lon="-5.9113681410"><ele>17.44</ele><time>2012-08-10T08:11:56Z</time></trkpt><trkpt lat="57.2413320467" lon="-5.9114533849"><ele>18.40</ele><time>2012-08-10T08:12:33Z</time></trkpt><trkpt lat="57.2413298674" lon="-5.9115175903"><ele>17.44</ele><time>2012-08-10T08:13:14Z</time></trkpt><trkpt lat="57.2413012013" lon="-5.9114746749"><ele>17.44</ele><time>2012-08-10T08:13:46Z</time></trkpt><trkpt lat="57.2413666639" lon="-5.9115439933"><ele>17.92</ele><time>2012-08-10T08:14:12Z</time></trkpt><trkpt lat="57.2414656542" lon="-5.9114703164"><ele>16.96</ele><time>2012-08-10T08:14:34Z</time></trkpt><trkpt lat="57.2414362337" lon="-5.9115206078"><ele>16.48</ele><time>2012-08-10T08:14:38Z</time></trkpt><trkpt lat="57.2414195538" lon="-5.9116294049"><ele>16.96</ele><time>2012-08-10T08:14:57Z</time></trkpt><trkpt lat="57.2414249182" lon="-5.9116492700"><ele>17.44</ele><time>2012-08-10T08:15:13Z</time></trkpt><trkpt lat="57.2414316237" lon="-5.9116588254"><ele>16.48</ele><time>2012-08-10T08:15:32Z</time></trkpt><trkpt lat="57.2414330486" lon="-5.9116480127"><ele>17.92</ele><time>2012-08-10T08:15:44Z</time></trkpt><trkpt lat="57.2414501477" lon="-5.9116527904"><ele>16.96</ele><time>2012-08-10T08:16:04Z</time></trkpt><trkpt lat="57.2414304502" lon="-5.9116365295"><ele>16.00</ele><time>2012-08-10T08:16:19Z</time></trkpt><trkpt lat="57.2414233256" lon="-5.9116416425"><ele>9.75</ele><time>2012-08-10T08:16:25Z</time></trkpt><trkpt lat="57.2414245829" lon="-5.9116385411"><ele>25.61</ele><time>2012-08-10T08:16:26Z</time></trkpt><trkpt lat="57.2414198052" lon="-5.9116434027"><ele>17.92</ele><time>2012-08-10T08:16:27Z</time></trkpt><trkpt lat="57.2413866967" lon="-5.9116468392"><ele>17.44</ele><time>2012-08-10T08:16:59Z</time></trkpt><trkpt lat="57.2414208110" lon="-5.9116902575"><ele>16.96</ele><time>2012-08-10T08:17:30Z</time></trkpt><trkpt lat="57.2413969226" lon="-5.9116786066"><ele>16.96</ele><time>2012-08-10T08:18:06Z</time></trkpt><trkpt lat="57.2414203081" lon="-5.9116829652"><ele>17.44</ele><time>2012-08-10T08:18:50Z</time></trkpt><trkpt lat="57.2414247505" lon="-5.9116644412"><ele>17.44</ele><time>2012-08-10T08:19:23Z</time></trkpt><trkpt lat="57.2414231580" lon="-5.9116395470"><ele>17.44</ele><time>2012-08-10T08:20:01Z</time></trkpt><trkpt lat="57.2413796559" lon="-5.9116632678"><ele>18.40</ele><time>2012-08-10T08:20:35Z</time></trkpt><trkpt lat="57.2413353156" lon="-5.9116198495"><ele>18.40</ele><time>2012-08-10T08:21:15Z</time></trkpt><trkpt lat="57.2413580306" lon="-5.9116216097"><ele>17.92</ele><time>2012-08-10T08:21:49Z</time></trkpt><trkpt lat="57.2413776442" lon="-5.9116647765"><ele>17.92</ele><time>2012-08-10T08:22:23Z</time></trkpt><trkpt lat="57.2413851880" lon="-5.9116446599"><ele>17.92</ele><time>2012-08-10T08:22:39Z</time></trkpt><trkpt lat="57.2413352318" lon="-5.9120184090"><ele>18.88</ele><time>2012-08-10T08:22:47Z</time></trkpt><trkpt lat="57.2414492257" lon="-5.9121108614"><ele>17.44</ele><time>2012-08-10T08:22:54Z</time></trkpt><trkpt lat="57.2414763831" lon="-5.9120692872"><ele>18.40</ele><time>2012-08-10T08:22:55Z</time></trkpt><trkpt lat="57.2415036242" lon="-5.9120009746"><ele>17.92</ele><time>2012-08-10T08:22:56Z</time></trkpt><trkpt lat="57.2415277641" lon="-5.9119127970"><ele>17.92</ele><time>2012-08-10T08:22:57Z</time></trkpt><trkpt lat="57.2415474616" lon="-5.9118181653"><ele>17.92</ele><time>2012-08-10T08:22:58Z</time></trkpt><trkpt lat="57.2415673267" lon="-5.9117094520"><ele>17.92</ele><time>2012-08-10T08:22:59Z</time></trkpt><trkpt lat="57.2416317835" lon="-5.9113965556"><ele>16.96</ele><time>2012-08-10T08:23:02Z</time></trkpt><trkpt lat="57.2416631319" lon="-5.9113158379"><ele>16.00</ele><time>2012-08-10T08:23:03Z</time></trkpt><trkpt lat="57.2416892834" lon="-5.9112629481"><ele>16.00</ele><time>2012-08-10T08:23:04Z</time></trkpt><trkpt lat="57.2417082265" lon="-5.9112344496"><ele>15.52</ele><time>2012-08-10T08:23:05Z</time></trkpt><trkpt lat="57.2417221405" lon="-5.9112231340"><ele>15.04</ele><time>2012-08-10T08:23:06Z</time></trkpt><trkpt lat="57.2417344619" lon="-5.9112186078"><ele>15.04</ele><time>2012-08-10T08:23:07Z</time></trkpt><trkpt lat="57.2417503875" lon="-5.9112072922"><ele>15.04</ele><time>2012-08-10T08:23:08Z</time></trkpt><trkpt lat="57.2417709231" lon="-5.9111642931"><ele>15.04</ele><time>2012-08-10T08:23:09Z</time></trkpt><trkpt lat="57.2417774610" lon="-5.9110903647"><ele>15.04</ele><time>2012-08-10T08:23:10Z</time></trkpt><trkpt lat="57.2417599428" lon="-5.9110002592"><ele>15.52</ele><time>2012-08-10T08:23:11Z</time></trkpt><trkpt lat="57.2417288460" lon="-5.9109026939"><ele>15.04</ele><time>2012-08-10T08:23:12Z</time></trkpt><trkpt lat="57.2413963359" lon="-5.9095795266"><ele>16.48</ele><time>2012-08-10T08:23:22Z</time></trkpt><trkpt lat="57.2412069049" lon="-5.9081199858"><ele>16.96</ele><time>2012-08-10T08:23:33Z</time></trkpt><trkpt lat="57.2411944997" lon="-5.9079039004"><ele>17.44</ele><time>2012-08-10T08:23:35Z</time></trkpt><trkpt lat="57.2412012052" lon="-5.9078256972"><ele>17.44</ele><time>2012-08-10T08:23:36Z</time></trkpt><trkpt lat="57.2412174661" lon="-5.9077655990"><ele>17.44</ele><time>2012-08-10T08:23:37Z</time></trkpt><trkpt lat="57.2412362415" lon="-5.9077330772"><ele>17.44</ele><time>2012-08-10T08:23:38Z</time></trkpt><trkpt lat="57.2412554361" lon="-5.9077080991"><ele>17.44</ele><time>2012-08-10T08:23:39Z</time></trkpt><trkpt lat="57.2413328011" lon="-5.9076045826"><ele>16.96</ele><time>2012-08-10T08:23:44Z</time></trkpt><trkpt lat="57.2413418535" lon="-5.9075643495"><ele>17.44</ele><time>2012-08-10T08:23:45Z</time></trkpt><trkpt lat="57.2413408477" lon="-5.9075066820"><ele>17.44</ele><time>2012-08-10T08:23:46Z</time></trkpt><trkpt lat="57.2413352318" lon="-5.9074480925"><ele>17.92</ele><time>2012-08-10T08:23:47Z</time></trkpt><trkpt lat="57.2413250059" lon="-5.9073964600"><ele>17.92</ele><time>2012-08-10T08:23:48Z</time></trkpt><trkpt lat="57.2413030453" lon="-5.9073599149"><ele>17.92</ele><time>2012-08-10T08:23:49Z</time></trkpt><trkpt lat="57.2411615588" lon="-5.9074335080"><ele>18.40</ele><time>2012-08-10T08:23:55Z</time></trkpt><trkpt lat="57.2411469743" lon="-5.9074836317"><ele>18.40</ele><time>2012-08-10T08:23:56Z</time></trkpt><trkpt lat="57.2411394306" lon="-5.9075671993"><ele>18.40</ele><time>2012-08-10T08:23:57Z</time></trkpt><trkpt lat="57.2411445435" lon="-5.9076752421"><ele>18.40</ele><time>2012-08-10T08:23:58Z</time></trkpt><trkpt lat="57.2411542665" lon="-5.9077993780"><ele>18.40</ele><time>2012-08-10T08:23:59Z</time></trkpt><trkpt lat="57.2413286101" lon="-5.9093470126"><ele>16.96</ele><time>2012-08-10T08:24:08Z</time></trkpt><trkpt lat="57.2418741882" lon="-5.9114197735"><ele>17.44</ele><time>2012-08-10T08:24:20Z</time></trkpt><trkpt lat="57.2426252905" lon="-5.9129557572"><ele>18.88</ele><time>2012-08-10T08:24:31Z</time></trkpt><trkpt lat="57.2431922425" lon="-5.9141978715"><ele>19.84</ele><time>2012-08-10T08:24:42Z</time></trkpt><trkpt lat="57.2433180548" lon="-5.9145952575"><ele>18.40</ele><time>2012-08-10T08:24:46Z</time></trkpt><trkpt lat="57.2433155403" lon="-5.9146696888"><ele>17.92</ele><time>2012-08-10T08:24:47Z</time></trkpt><trkpt lat="57.2432953399" lon="-5.9147270210"><ele>18.40</ele><time>2012-08-10T08:24:48Z</time></trkpt><trkpt lat="57.2432660870" lon="-5.9147649910"><ele>17.92</ele><time>2012-08-10T08:24:49Z</time></trkpt><trkpt lat="57.2432335652" lon="-5.9147851076"><ele>18.40</ele><time>2012-08-10T08:24:50Z</time></trkpt><trkpt lat="57.2431972716" lon="-5.9147898015"><ele>18.40</ele><time>2012-08-10T08:24:51Z</time></trkpt><trkpt lat="57.2431674320" lon="-5.9147715289"><ele>17.92</ele><time>2012-08-10T08:24:52Z</time></trkpt><trkpt lat="57.2431442980" lon="-5.9147369955"><ele>17.92</ele><time>2012-08-10T08:24:53Z</time></trkpt><trkpt lat="57.2431266960" lon="-5.9146998636"><ele>17.92</ele><time>2012-08-10T08:24:54Z</time></trkpt><trkpt lat="57.2431158833" lon="-5.9146744665"><ele>17.44</ele><time>2012-08-10T08:24:55Z</time></trkpt><trkpt lat="57.2431057412" lon="-5.9146479797"><ele>18.88</ele><time>2012-08-10T08:25:12Z</time></trkpt><trkpt lat="57.2431054059" lon="-5.9146462195"><ele>15.52</ele><time>2012-08-10T08:25:13Z</time></trkpt><trkpt lat="57.2431056574" lon="-5.9146450460"><ele>19.36</ele><time>2012-08-10T08:25:14Z</time></trkpt><trkpt lat="57.2431056574" lon="-5.9146447945"><ele>15.52</ele><time>2012-08-10T08:25:17Z</time></trkpt><trkpt lat="57.2431059927" lon="-5.9146454651"><ele>15.52</ele><time>2012-08-10T08:25:18Z</time></trkpt><trkpt lat="57.2431064118" lon="-5.9146453813"><ele>18.88</ele><time>2012-08-10T08:25:19Z</time></trkpt><trkpt lat="57.2431064118" lon="-5.9146457165"><ele>17.92</ele><time>2012-08-10T08:25:20Z</time></trkpt><trkpt lat="57.2431020532" lon="-5.9146406036"><ele>17.44</ele><time>2012-08-10T08:25:29Z</time></trkpt><trkpt lat="57.2430963535" lon="-5.9146043099"><ele>17.92</ele><time>2012-08-10T08:25:30Z</time></trkpt><trkpt lat="57.2429158911" lon="-5.9139268007"><ele>19.36</ele><time>2012-08-10T08:25:36Z</time></trkpt><trkpt lat="57.2426649369" lon="-5.9131536540"><ele>19.36</ele><time>2012-08-10T08:25:43Z</time></trkpt><trkpt lat="57.2426549625" lon="-5.9131001774"><ele>18.88</ele><time>2012-08-10T08:25:44Z</time></trkpt><trkpt lat="57.2426435631" lon="-5.9129750356"><ele>18.40</ele><time>2012-08-10T08:25:49Z</time></trkpt><trkpt lat="57.2426184174" lon="-5.9128891211"><ele>18.40</ele><time>2012-08-10T08:25:50Z</time></trkpt><trkpt lat="57.2425721493" lon="-5.9128032904"><ele>18.40</ele><time>2012-08-10T08:25:51Z</time></trkpt><trkpt lat="57.2420331929" lon="-5.9117532894"><ele>17.44</ele><time>2012-08-10T08:25:59Z</time></trkpt><trkpt lat="57.2414241638" lon="-5.9097483382"><ele>16.96</ele><time>2012-08-10T08:26:09Z</time></trkpt><trkpt lat="57.2411707789" lon="-5.9076760802"><ele>18.88</ele><time>2012-08-10T08:26:19Z</time></trkpt><trkpt lat="57.2408349160" lon="-5.9046140872"><ele>19.84</ele><time>2012-08-10T08:26:35Z</time></trkpt><trkpt lat="57.2404687945" lon="-5.9021610394"><ele>23.21</ele><time>2012-08-10T08:26:46Z</time></trkpt><trkpt lat="57.2397546563" lon="-5.8997782320"><ele>21.29</ele><time>2012-08-10T08:26:56Z</time></trkpt><trkpt lat="57.2387377638" lon="-5.8973793313"><ele>22.25</ele><time>2012-08-10T08:27:07Z</time></trkpt><trkpt lat="57.2384350933" lon="-5.8964671288"><ele>25.13</ele><time>2012-08-10T08:27:11Z</time></trkpt><trkpt lat="57.2381702252" lon="-5.8955871128"><ele>25.13</ele><time>2012-08-10T08:27:15Z</time></trkpt><trkpt lat="57.2381228674" lon="-5.8953568619"><ele>25.13</ele><time>2012-08-10T08:27:16Z</time></trkpt><trkpt lat="57.2380895074" lon="-5.8951184805"><ele>25.61</ele><time>2012-08-10T08:27:17Z</time></trkpt><trkpt lat="57.2380679660" lon="-5.8948811051"><ele>25.13</ele><time>2012-08-10T08:27:18Z</time></trkpt><trkpt lat="57.2380564827" lon="-5.8946434781"><ele>24.65</ele><time>2012-08-10T08:27:19Z</time></trkpt><trkpt lat="57.2380498610" lon="-5.8944048453"><ele>24.17</ele><time>2012-08-10T08:27:20Z</time></trkpt><trkpt lat="57.2379973065" lon="-5.8921588305"><ele>20.81</ele><time>2012-08-10T08:27:29Z</time></trkpt><trkpt lat="57.2377892677" lon="-5.8875912800"><ele>19.84</ele><time>2012-08-10T08:27:46Z</time></trkpt><trkpt lat="57.2377697378" lon="-5.8873509709"><ele>19.84</ele><time>2012-08-10T08:27:47Z</time></trkpt><trkpt lat="57.2377067897" lon="-5.8865281194"><ele>17.44</ele><time>2012-08-10T08:27:51Z</time></trkpt><trkpt lat="57.2377233859" lon="-5.8857909311"><ele>16.00</ele><time>2012-08-10T08:27:55Z</time></trkpt><trkpt lat="57.2377469391" lon="-5.8855935372"><ele>16.48</ele><time>2012-08-10T08:27:56Z</time></trkpt><trkpt lat="57.2377818078" lon="-5.8853889350"><ele>15.52</ele><time>2012-08-10T08:27:57Z</time></trkpt><trkpt lat="57.2382613365" lon="-5.8833061997"><ele>18.40</ele><time>2012-08-10T08:28:06Z</time></trkpt><trkpt lat="57.2382931039" lon="-5.8830270823"><ele>18.88</ele><time>2012-08-10T08:28:07Z</time></trkpt><trkpt lat="57.2383097000" lon="-5.8827474620"><ele>18.88</ele><time>2012-08-10T08:28:08Z</time></trkpt><trkpt lat="57.2383054253" lon="-5.8824778162"><ele>18.88</ele><time>2012-08-10T08:28:09Z</time></trkpt><trkpt lat="57.2382812854" lon="-5.8822147083"><ele>18.40</ele><time>2012-08-10T08:28:10Z</time></trkpt><trkpt lat="57.2382399626" lon="-5.8819525223"><ele>19.36</ele><time>2012-08-10T08:28:11Z</time></trkpt><trkpt lat="57.2381827980" lon="-5.8816942759"><ele>18.88</ele><time>2012-08-10T08:28:12Z</time></trkpt><trkpt lat="57.2381086182" lon="-5.8814444952"><ele>19.36</ele><time>2012-08-10T08:28:13Z</time></trkpt><trkpt lat="57.2380182613" lon="-5.8812111430"><ele>19.36</ele><time>2012-08-10T08:28:14Z</time></trkpt><trkpt lat="57.2379127331" lon="-5.8809930459"><ele>20.32</ele><time>2012-08-10T08:28:15Z</time></trkpt><trkpt lat="57.2377955541" lon="-5.8807862643"><ele>20.32</ele><time>2012-08-10T08:28:16Z</time></trkpt><trkpt lat="57.2376679815" lon="-5.8805918880"><ele>21.77</ele><time>2012-08-10T08:28:17Z</time></trkpt><trkpt lat="57.2375324462" lon="-5.8804104198"><ele>22.73</ele><time>2012-08-10T08:28:18Z</time></trkpt><trkpt lat="57.2368989419" lon="-5.8794584870"><ele>25.13</ele><time>2012-08-10T08:28:23Z</time></trkpt><trkpt lat="57.2368185595" lon="-5.8792211115"><ele>25.13</ele><time>2012-08-10T08:28:24Z</time></trkpt><trkpt lat="57.2367634065" lon="-5.8789640386"><ele>25.61</ele><time>2012-08-10T08:28:25Z</time></trkpt><trkpt lat="57.2367329802" lon="-5.8786921296"><ele>25.61</ele><time>2012-08-10T08:28:26Z</time></trkpt><trkpt lat="57.2367255203" lon="-5.8784053847"><ele>27.05</ele><time>2012-08-10T08:28:27Z</time></trkpt><trkpt lat="57.2367393505" lon="-5.8781012055"><ele>28.50</ele><time>2012-08-10T08:28:28Z</time></trkpt><trkpt lat="57.2367652506" lon="-5.8777816035"><ele>28.50</ele><time>2012-08-10T08:28:29Z</time></trkpt><trkpt lat="57.2369006183" lon="-5.8755961061"><ele>28.98</ele><time>2012-08-10T08:28:36Z</time></trkpt><trkpt lat="57.2368733771" lon="-5.8753247838"><ele>28.98</ele><time>2012-08-10T08:28:37Z</time></trkpt><trkpt lat="57.2368162964" lon="-5.8750687167"><ele>29.46</ele><time>2012-08-10T08:28:38Z</time></trkpt><trkpt lat="57.2367347404" lon="-5.8748301677"><ele>29.46</ele><time>2012-08-10T08:28:39Z</time></trkpt><trkpt lat="57.2366390191" lon="-5.8746002521"><ele>28.98</ele><time>2012-08-10T08:28:40Z</time></trkpt><trkpt lat="57.2363479156" lon="-5.8738870360"><ele>30.90</ele><time>2012-08-10T08:28:43Z</time></trkpt><trkpt lat="57.2360505257" lon="-5.8730321657"><ele>31.38</ele><time>2012-08-10T08:28:47Z</time></trkpt><trkpt lat="57.2360212728" lon="-5.8728047647"><ele>30.90</ele><time>2012-08-10T08:28:48Z</time></trkpt><trkpt lat="57.2360150702" lon="-5.8725679759"><ele>31.38</ele><time>2012-08-10T08:28:49Z</time></trkpt><trkpt lat="57.2360312473" lon="-5.8723279182"><ele>31.38</ele><time>2012-08-10T08:28:50Z</time></trkpt><trkpt lat="57.2360638529" lon="-5.8720858488"><ele>30.90</ele><time>2012-08-10T08:28:51Z</time></trkpt><trkpt lat="57.2364215925" lon="-5.8694327250"><ele>28.02</ele><time>2012-08-10T08:29:01Z</time></trkpt><trkpt lat="57.2365724668" lon="-5.8682261501"><ele>24.17</ele><time>2012-08-10T08:29:06Z</time></trkpt><trkpt lat="57.2367793322" lon="-5.8666090295"><ele>24.65</ele><time>2012-08-10T08:29:13Z</time></trkpt><trkpt lat="57.2368797474" lon="-5.8658203762"><ele>28.50</ele><time>2012-08-10T08:29:16Z</time></trkpt><trkpt lat="57.2373635508" lon="-5.8621199336"><ele>28.98</ele><time>2012-08-10T08:29:29Z</time></trkpt><trkpt lat="57.2375141736" lon="-5.8609013725"><ele>31.86</ele><time>2012-08-10T08:29:33Z</time></trkpt><trkpt lat="57.2377432510" lon="-5.8593511395"><ele>35.23</ele><time>2012-08-10T08:29:38Z</time></trkpt><trkpt lat="57.2378522996" lon="-5.8584977780"><ele>38.59</ele><time>2012-08-10T08:29:41Z</time></trkpt><trkpt lat="57.2382272221" lon="-5.8550740220"><ele>42.92</ele><time>2012-08-10T08:29:53Z</time></trkpt><trkpt lat="57.2382921819" lon="-5.8544706926"><ele>43.40</ele><time>2012-08-10T08:29:55Z</time></trkpt><trkpt lat="57.2385699581" lon="-5.8519869670"><ele>47.24</ele><time>2012-08-10T08:30:04Z</time></trkpt><trkpt lat="57.2385979537" lon="-5.8517231047"><ele>47.24</ele><time>2012-08-10T08:30:05Z</time></trkpt><trkpt lat="57.2391461302" lon="-5.8488818072"><ele>50.13</ele><time>2012-08-10T08:30:16Z</time></trkpt><trkpt lat="57.2395178676" lon="-5.8464451041"><ele>47.72</ele><time>2012-08-10T08:30:25Z</time></trkpt><trkpt lat="57.2397496272" lon="-5.8447904326"><ele>50.61</ele><time>2012-08-10T08:30:31Z</time></trkpt><trkpt lat="57.2398456000" lon="-5.8442413341"><ele>51.57</ele><time>2012-08-10T08:30:33Z</time></trkpt><trkpt lat="57.2399149183" lon="-5.8439949900"><ele>51.57</ele><time>2012-08-10T08:30:34Z</time></trkpt><trkpt lat="57.2400027607" lon="-5.8437779825"><ele>51.57</ele><time>2012-08-10T08:30:35Z</time></trkpt><trkpt lat="57.2401063610" lon="-5.8435790800"><ele>51.57</ele><time>2012-08-10T08:30:36Z</time></trkpt><trkpt lat="57.2402175888" lon="-5.8433905710"><ele>51.57</ele><time>2012-08-10T08:30:37Z</time></trkpt><trkpt lat="57.2405551281" lon="-5.8428368624"><ele>51.57</ele><time>2012-08-10T08:30:40Z</time></trkpt><trkpt lat="57.2406825330" lon="-5.8426818810"><ele>51.57</ele><time>2012-08-10T08:30:41Z</time></trkpt><trkpt lat="57.2408159729" lon="-5.8425532188"><ele>51.57</ele><time>2012-08-10T08:30:42Z</time></trkpt><trkpt lat="57.2420896869" lon="-5.8413898945"><ele>49.16</ele><time>2012-08-10T08:30:51Z</time></trkpt><trkpt lat="57.2422171757" lon="-5.8412109409"><ele>48.68</ele><time>2012-08-10T08:30:52Z</time></trkpt><trkpt lat="57.2424625978" lon="-5.8408499323"><ele>47.72</ele><time>2012-08-10T08:30:54Z</time></trkpt><trkpt lat="57.2428461537" lon="-5.8404449187"><ele>45.80</ele><time>2012-08-10T08:30:57Z</time></trkpt><trkpt lat="57.2432304639" lon="-5.8400712535"><ele>44.84</ele><time>2012-08-10T08:31:00Z</time></trkpt><trkpt lat="57.2433436196" lon="-5.8398854267"><ele>44.36</ele><time>2012-08-10T08:31:01Z</time></trkpt><trkpt lat="57.2434431128" lon="-5.8396637253"><ele>43.88</ele><time>2012-08-10T08:31:02Z</time></trkpt><trkpt lat="57.2435322125" lon="-5.8394130226"><ele>42.92</ele><time>2012-08-10T08:31:03Z</time></trkpt><trkpt lat="57.2436142713" lon="-5.8391468134"><ele>43.40</ele><time>2012-08-10T08:31:04Z</time></trkpt><trkpt lat="57.2446741629" lon="-5.8354291879"><ele>40.99</ele><time>2012-08-10T08:31:17Z</time></trkpt><trkpt lat="57.2454470582" lon="-5.8329642378"><ele>37.63</ele><time>2012-08-10T08:31:26Z</time></trkpt><trkpt lat="57.2455601301" lon="-5.8327132836"><ele>38.11</ele><time>2012-08-10T08:31:27Z</time></trkpt><trkpt lat="57.2457815800" lon="-5.8322098665"><ele>36.19</ele><time>2012-08-10T08:31:29Z</time></trkpt><trkpt lat="57.2458918858" lon="-5.8319591638"><ele>39.07</ele><time>2012-08-10T08:31:30Z</time></trkpt><trkpt lat="57.2460011858" lon="-5.8317103051"><ele>37.63</ele><time>2012-08-10T08:31:31Z</time></trkpt><trkpt lat="57.2475095093" lon="-5.8285803348"><ele>38.11</ele><time>2012-08-10T08:31:44Z</time></trkpt><trkpt lat="57.2489089519" lon="-5.8259391133"><ele>36.19</ele><time>2012-08-10T08:31:55Z</time></trkpt><trkpt lat="57.2490432300" lon="-5.8256875724"><ele>41.47</ele><time>2012-08-10T08:31:56Z</time></trkpt><trkpt lat="57.2491769213" lon="-5.8254389651"><ele>39.55</ele><time>2012-08-10T08:31:57Z</time></trkpt><trkpt lat="57.2503946442" lon="-5.8230833150"><ele>36.19</ele><time>2012-08-10T08:32:07Z</time></trkpt><trkpt lat="57.2514433879" lon="-5.8204354718"><ele>32.82</ele><time>2012-08-10T08:32:18Z</time></trkpt><trkpt lat="57.2515282128" lon="-5.8202260919"><ele>33.30</ele><time>2012-08-10T08:32:19Z</time></trkpt><trkpt lat="57.2524259984" lon="-5.8179357368"><ele>34.26</ele><time>2012-08-10T08:32:28Z</time></trkpt><trkpt lat="57.2536987904" lon="-5.8141834941"><ele>31.86</ele><time>2012-08-10T08:32:40Z</time></trkpt><trkpt lat="57.2545397468" lon="-5.8113227505"><ele>32.34</ele><time>2012-08-10T08:32:49Z</time></trkpt><trkpt lat="57.2558383550" lon="-5.8075178694"><ele>32.82</ele><time>2012-08-10T08:33:01Z</time></trkpt><trkpt lat="57.2574136499" lon="-5.8039987274"><ele>33.30</ele><time>2012-08-10T08:33:13Z</time></trkpt><trkpt lat="57.2589120828" lon="-5.8009087387"><ele>34.26</ele><time>2012-08-10T08:33:24Z</time></trkpt><trkpt lat="57.2604882158" lon="-5.7970741019"><ele>37.63</ele><time>2012-08-10T08:33:36Z</time></trkpt><trkpt lat="57.2607852705" lon="-5.7962598000"><ele>38.11</ele><time>2012-08-10T08:33:38Z</time></trkpt><trkpt lat="57.2613747697" lon="-5.7946275081"><ele>36.19</ele><time>2012-08-10T08:33:42Z</time></trkpt><trkpt lat="57.2625539359" lon="-5.7912446558"><ele>34.26</ele><time>2012-08-10T08:33:50Z</time></trkpt><trkpt lat="57.2628011182" lon="-5.7905257400"><ele>33.30</ele><time>2012-08-10T08:33:52Z</time></trkpt><trkpt lat="57.2632581834" lon="-5.7891893294"><ele>34.26</ele><time>2012-08-10T08:33:56Z</time></trkpt><trkpt lat="57.2639277298" lon="-5.7871366013"><ele>37.63</ele><time>2012-08-10T08:34:02Z</time></trkpt><trkpt lat="57.2646148782" lon="-5.7848215196"><ele>40.51</ele><time>2012-08-10T08:34:09Z</time></trkpt><trkpt lat="57.2657064535" lon="-5.7805120479"><ele>41.47</ele><time>2012-08-10T08:34:22Z</time></trkpt><trkpt lat="57.2661665361" lon="-5.7784564700"><ele>44.84</ele><time>2012-08-10T08:34:28Z</time></trkpt><trkpt lat="57.2670982685" lon="-5.7736915257"><ele>47.24</ele><time>2012-08-10T08:34:41Z</time></trkpt><trkpt lat="57.2672490589" lon="-5.7721237745"><ele>49.16</ele><time>2012-08-10T08:34:45Z</time></trkpt><trkpt lat="57.2672647331" lon="-5.7682649139"><ele>50.13</ele><time>2012-08-10T08:34:55Z</time></trkpt><trkpt lat="57.2671213187" lon="-5.7669095602"><ele>53.49</ele><time>2012-08-10T08:34:58Z</time></trkpt><trkpt lat="57.2670043074" lon="-5.7659430429"><ele>55.41</ele><time>2012-08-10T08:35:00Z</time></trkpt><trkpt lat="57.2668902297" lon="-5.7650616020"><ele>52.05</ele><time>2012-08-10T08:35:02Z</time></trkpt><trkpt lat="57.2667251900" lon="-5.7634890731"><ele>49.65</ele><time>2012-08-10T08:35:06Z</time></trkpt><trkpt lat="57.2668315563" lon="-5.7607532199"><ele>48.20</ele><time>2012-08-10T08:35:13Z</time></trkpt><trkpt lat="57.2672248352" lon="-5.7588879112"><ele>45.80</ele><time>2012-08-10T08:35:18Z</time></trkpt><trkpt lat="57.2682174202" lon="-5.7566038426"><ele>45.80</ele><time>2012-08-10T08:35:25Z</time></trkpt><trkpt lat="57.2686414607" lon="-5.7559421752"><ele>49.16</ele><time>2012-08-10T08:35:27Z</time></trkpt><trkpt lat="57.2688762378" lon="-5.7556265127"><ele>48.20</ele><time>2012-08-10T08:35:28Z</time></trkpt><trkpt lat="57.2700847406" lon="-5.7534991018"><ele>46.76</ele><time>2012-08-10T08:35:34Z</time></trkpt><trkpt lat="57.2710391041" lon="-5.7509617321"><ele>45.32</ele><time>2012-08-10T08:35:41Z</time></trkpt><trkpt lat="57.2715517413" lon="-5.7490271889"><ele>42.44</ele><time>2012-08-10T08:35:47Z</time></trkpt><trkpt lat="57.2720131651" lon="-5.7467551902"><ele>39.55</ele><time>2012-08-10T08:35:56Z</time></trkpt><trkpt lat="57.2723692283" lon="-5.7452711742"><ele>37.15</ele><time>2012-08-10T08:36:03Z</time></trkpt><trkpt lat="57.2724118922" lon="-5.7451615389"><ele>36.67</ele><time>2012-08-10T08:36:04Z</time></trkpt><trkpt lat="57.2725037578" lon="-5.7450245786"><ele>34.26</ele><time>2012-08-10T08:36:07Z</time></trkpt><trkpt lat="57.2725651134" lon="-5.7449980080"><ele>34.26</ele><time>2012-08-10T08:36:08Z</time></trkpt><trkpt lat="57.2726453282" lon="-5.7449893747"><ele>34.74</ele><time>2012-08-10T08:36:09Z</time></trkpt><trkpt lat="57.2730134614" lon="-5.7449927274"><ele>33.30</ele><time>2012-08-10T08:36:13Z</time></trkpt><trkpt lat="57.2738470417" lon="-5.7447908074"><ele>35.71</ele><time>2012-08-10T08:36:20Z</time></trkpt><trkpt lat="57.2741072159" lon="-5.7446268573"><ele>37.15</ele><time>2012-08-10T08:36:22Z</time></trkpt><trkpt lat="57.2743565775" lon="-5.7444340736"><ele>40.51</ele><time>2012-08-10T08:36:24Z</time></trkpt><trkpt lat="57.2744820546" lon="-5.7443356700"><ele>32.82</ele><time>2012-08-10T08:36:25Z</time></trkpt><trkpt lat="57.2746082861" lon="-5.7442359254"><ele>46.76</ele><time>2012-08-10T08:36:26Z</time></trkpt><trkpt lat="57.2747365292" lon="-5.7441346720"><ele>42.44</ele><time>2012-08-10T08:36:27Z</time></trkpt><trkpt lat="57.2751350887" lon="-5.7438156568"><ele>46.28</ele><time>2012-08-10T08:36:30Z</time></trkpt><trkpt lat="57.2752717137" lon="-5.7437078655"><ele>46.76</ele><time>2012-08-10T08:36:31Z</time></trkpt><trkpt lat="57.2756889649" lon="-5.7433834858"><ele>49.65</ele><time>2012-08-10T08:36:34Z</time></trkpt><trkpt lat="57.2760990914" lon="-5.7430646382"><ele>51.57</ele><time>2012-08-10T08:36:37Z</time></trkpt><trkpt lat="57.2772234399" lon="-5.7421915792"><ele>49.16</ele><time>2012-08-10T08:36:45Z</time></trkpt><trkpt lat="57.2777121887" lon="-5.7418140583"><ele>45.32</ele><time>2012-08-10T08:36:48Z</time></trkpt><trkpt lat="57.2782316152" lon="-5.7414125651"><ele>40.03</ele><time>2012-08-10T08:36:51Z</time></trkpt><trkpt lat="57.2785673942" lon="-5.7411419973"><ele>36.67</ele><time>2012-08-10T08:36:53Z</time></trkpt><trkpt lat="57.2788803745" lon="-5.7408422604"><ele>33.30</ele><time>2012-08-10T08:36:55Z</time></trkpt><trkpt lat="57.2793097794" lon="-5.7402672619"><ele>28.02</ele><time>2012-08-10T08:36:58Z</time></trkpt><trkpt lat="57.2794427164" lon="-5.7400147989"><ele>27.53</ele><time>2012-08-10T08:36:59Z</time></trkpt><trkpt lat="57.2795656789" lon="-5.7397361845"><ele>26.57</ele><time>2012-08-10T08:37:00Z</time></trkpt><trkpt lat="57.2796771582" lon="-5.7394368667"><ele>24.65</ele><time>2012-08-10T08:37:01Z</time></trkpt><trkpt lat="57.2797769867" lon="-5.7391198631"><ele>22.73</ele><time>2012-08-10T08:37:02Z</time></trkpt><trkpt lat="57.2798649129" lon="-5.7387926336"><ele>22.73</ele><time>2012-08-10T08:37:03Z</time></trkpt><trkpt lat="57.2799436189" lon="-5.7384654041"><ele>22.25</ele><time>2012-08-10T08:37:04Z</time></trkpt><trkpt lat="57.2800856084" lon="-5.7378126215"><ele>20.81</ele><time>2012-08-10T08:37:06Z</time></trkpt><trkpt lat="57.2809473518" lon="-5.7337997854"><ele>24.17</ele><time>2012-08-10T08:37:18Z</time></trkpt><trkpt lat="57.2817624919" lon="-5.7299708482"><ele>23.21</ele><time>2012-08-10T08:37:30Z</time></trkpt><trkpt lat="57.2818733007" lon="-5.7286325935"><ele>23.69</ele><time>2012-08-10T08:37:34Z</time></trkpt><trkpt lat="57.2818651702" lon="-5.7283044420"><ele>23.21</ele><time>2012-08-10T08:37:35Z</time></trkpt><trkpt lat="57.2818168905" lon="-5.7276769727"><ele>22.25</ele><time>2012-08-10T08:37:37Z</time></trkpt><trkpt lat="57.2817716282" lon="-5.7273758110"><ele>22.25</ele><time>2012-08-10T08:37:38Z</time></trkpt><trkpt lat="57.2817151342" lon="-5.7270842884"><ele>22.25</ele><time>2012-08-10T08:37:39Z</time></trkpt><trkpt lat="57.2816488333" lon="-5.7267988008"><ele>21.77</ele><time>2012-08-10T08:37:40Z</time></trkpt><trkpt lat="57.2815665230" lon="-5.7265247125"><ele>22.73</ele><time>2012-08-10T08:37:41Z</time></trkpt><trkpt lat="57.2814713884" lon="-5.7262609340"><ele>22.73</ele><time>2012-08-10T08:37:42Z</time></trkpt><trkpt lat="57.2813696321" lon="-5.7260056213"><ele>23.69</ele><time>2012-08-10T08:37:43Z</time></trkpt><trkpt lat="57.2811439075" lon="-5.7255286910"><ele>24.17</ele><time>2012-08-10T08:37:45Z</time></trkpt><trkpt lat="57.2801747080" lon="-5.7232425269"><ele>22.25</ele><time>2012-08-10T08:37:54Z</time></trkpt><trkpt lat="57.2800723650" lon="-5.7226305641"><ele>20.32</ele><time>2012-08-10T08:37:56Z</time></trkpt><trkpt lat="57.2800423577" lon="-5.7223154884"><ele>19.84</ele><time>2012-08-10T08:37:57Z</time></trkpt><trkpt lat="57.2800260969" lon="-5.7219966408"><ele>18.88</ele><time>2012-08-10T08:37:58Z</time></trkpt><trkpt lat="57.2800219897" lon="-5.7216778770"><ele>18.88</ele><time>2012-08-10T08:37:59Z</time></trkpt><trkpt lat="57.2800302040" lon="-5.7213609572"><ele>18.40</ele><time>2012-08-10T08:38:00Z</time></trkpt><trkpt lat="57.2800509073" lon="-5.7210578676"><ele>17.92</ele><time>2012-08-10T08:38:01Z</time></trkpt><trkpt lat="57.2800791543" lon="-5.7207972743"><ele>17.44</ele><time>2012-08-10T08:38:02Z</time></trkpt><trkpt lat="57.2801063955" lon="-5.7205847092"><ele>16.48</ele><time>2012-08-10T08:38:03Z</time></trkpt><trkpt lat="57.2801843472" lon="-5.7201620936"><ele>15.04</ele><time>2012-08-10T08:38:06Z</time></trkpt><trkpt lat="57.2802731954" lon="-5.7197942119"><ele>15.04</ele><time>2012-08-10T08:38:13Z</time></trkpt><trkpt lat="57.2802931443" lon="-5.7197212894"><ele>16.48</ele><time>2012-08-10T08:38:14Z</time></trkpt><trkpt lat="57.2805377282" lon="-5.7188377529"><ele>19.84</ele><time>2012-08-10T08:38:21Z</time></trkpt><trkpt lat="57.2805870138" lon="-5.7186696120"><ele>19.36</ele><time>2012-08-10T08:38:22Z</time></trkpt><trkpt lat="57.2809323482" lon="-5.7174431719"><ele>16.48</ele><time>2012-08-10T08:38:29Z</time></trkpt><trkpt lat="57.2809584998" lon="-5.7172783837"><ele>16.00</ele><time>2012-08-10T08:38:30Z</time></trkpt><trkpt lat="57.2809749283" lon="-5.7171220612"><ele>16.00</ele><time>2012-08-10T08:38:31Z</time></trkpt><trkpt lat="57.2809818853" lon="-5.7169730309"><ele>15.04</ele><time>2012-08-10T08:38:32Z</time></trkpt><trkpt lat="57.2809796222" lon="-5.7168325502"><ele>15.52</ele><time>2012-08-10T08:38:33Z</time></trkpt><trkpt lat="57.2809733357" lon="-5.7166991103"><ele>15.52</ele><time>2012-08-10T08:38:34Z</time></trkpt><trkpt lat="57.2809192725" lon="-5.7154861651"><ele>16.48</ele><time>2012-08-10T08:38:42Z</time></trkpt><trkpt lat="57.2809256427" lon="-5.7149405032"><ele>19.36</ele><time>2012-08-10T08:38:45Z</time></trkpt><trkpt lat="57.2809323482" lon="-5.7147431094"><ele>19.36</ele><time>2012-08-10T08:38:46Z</time></trkpt><trkpt lat="57.2810473479" lon="-5.7123737130"><ele>22.73</ele><time>2012-08-10T08:38:57Z</time></trkpt><trkpt lat="57.2811071947" lon="-5.7118623331"><ele>21.29</ele><time>2012-08-10T08:39:02Z</time></trkpt><trkpt lat="57.2810981423" lon="-5.7118100300"><ele>21.29</ele><time>2012-08-10T08:39:03Z</time></trkpt><trkpt lat="57.2810814623" lon="-5.7117503509"><ele>22.25</ele><time>2012-08-10T08:39:04Z</time></trkpt><trkpt lat="57.2810724098" lon="-5.7116982155"><ele>22.25</ele><time>2012-08-10T08:39:05Z</time></trkpt><trkpt lat="57.2810649499" lon="-5.7116685435"><ele>21.77</ele><time>2012-08-10T08:39:14Z</time></trkpt><trkpt lat="57.2810604237" lon="-5.7116286457"><ele>21.77</ele><time>2012-08-10T08:39:24Z</time></trkpt><trkpt lat="57.2810670454" lon="-5.7115880772"><ele>21.29</ele><time>2012-08-10T08:39:25Z</time></trkpt><trkpt lat="57.2810995672" lon="-5.7112606801"><ele>20.81</ele><time>2012-08-10T08:39:31Z</time></trkpt><trkpt lat="57.2810849827" lon="-5.7112318464"><ele>20.81</ele><time>2012-08-10T08:39:32Z</time></trkpt><trkpt lat="57.2810853180" lon="-5.7111756876"><ele>20.81</ele><time>2012-08-10T08:39:35Z</time></trkpt><trkpt lat="57.2810890898" lon="-5.7111512963"><ele>20.81</ele><time>2012-08-10T08:39:36Z</time></trkpt><trkpt lat="57.2811139002" lon="-5.7110633701"><ele>19.84</ele><time>2012-08-10T08:39:52Z</time></trkpt><trkpt lat="57.2811076138" lon="-5.7110841572"><ele>19.84</ele><time>2012-08-10T08:40:14Z</time></trkpt><trkpt lat="57.2810760979" lon="-5.7110714167"><ele>19.84</ele><time>2012-08-10T08:40:47Z</time></trkpt><trkpt lat="57.2810688894" lon="-5.7110549882"><ele>20.81</ele><time>2012-08-10T08:41:03Z</time></trkpt><trkpt lat="57.2810658719" lon="-5.7110513002"><ele>19.36</ele><time>2012-08-10T08:41:09Z</time></trkpt><trkpt lat="57.2810772713" lon="-5.7110823970"><ele>19.84</ele><time>2012-08-10T08:41:40Z</time></trkpt><trkpt lat="57.2810910176" lon="-5.7110689022"><ele>19.36</ele><time>2012-08-10T08:42:13Z</time></trkpt><trkpt lat="57.2810735833" lon="-5.7110586762"><ele>19.36</ele><time>2012-08-10T08:42:51Z</time></trkpt><trkpt lat="57.2810964659" lon="-5.7110635377"><ele>19.36</ele><time>2012-08-10T08:43:18Z</time></trkpt><trkpt lat="57.2810694762" lon="-5.7110505458"><ele>18.88</ele><time>2012-08-10T08:43:45Z</time></trkpt><trkpt lat="57.2810746729" lon="-5.7110701595"><ele>18.88</ele><time>2012-08-10T08:44:09Z</time></trkpt><trkpt lat="57.2810943704" lon="-5.7107391581"><ele>18.88</ele><time>2012-08-10T08:44:17Z</time></trkpt><trkpt lat="57.2811075300" lon="-5.7106793951"><ele>18.40</ele><time>2012-08-10T08:44:27Z</time></trkpt><trkpt lat="57.2811118048" lon="-5.7106772158"><ele>19.36</ele><time>2012-08-10T08:45:03Z</time></trkpt><trkpt lat="57.2811263055" lon="-5.7106272597"><ele>19.36</ele><time>2012-08-10T08:45:06Z</time></trkpt><trkpt lat="57.2811373696" lon="-5.7106096577"><ele>19.36</ele><time>2012-08-10T08:45:07Z</time></trkpt><trkpt lat="57.2811478470" lon="-5.7105989289"><ele>19.36</ele><time>2012-08-10T08:45:08Z</time></trkpt><trkpt lat="57.2811707295" lon="-5.7106066402"><ele>19.84</ele><time>2012-08-10T08:45:12Z</time></trkpt><trkpt lat="57.2811822966" lon="-5.7106344681"><ele>19.84</ele><time>2012-08-10T08:45:13Z</time></trkpt><trkpt lat="57.2811872419" lon="-5.7106943149"><ele>19.84</ele><time>2012-08-10T08:45:14Z</time></trkpt><trkpt lat="57.2811851464" lon="-5.7107891142"><ele>19.84</ele><time>2012-08-10T08:45:15Z</time></trkpt><trkpt lat="57.2811775189" lon="-5.7109170221"><ele>20.32</ele><time>2012-08-10T08:45:16Z</time></trkpt><trkpt lat="57.2811662871" lon="-5.7110638730"><ele>20.81</ele><time>2012-08-10T08:45:17Z</time></trkpt><trkpt lat="57.2810143232" lon="-5.7125119306"><ele>20.32</ele><time>2012-08-10T08:45:25Z</time></trkpt><trkpt lat="57.2810007446" lon="-5.7127006911"><ele>20.32</ele><time>2012-08-10T08:45:26Z</time></trkpt><trkpt lat="57.2809666302" lon="-5.7133204490"><ele>18.88</ele><time>2012-08-10T08:45:29Z</time></trkpt><trkpt lat="57.2808863316" lon="-5.7150447741"><ele>16.96</ele><time>2012-08-10T08:45:39Z</time></trkpt><trkpt lat="57.2808901034" lon="-5.7153988257"><ele>16.00</ele><time>2012-08-10T08:45:45Z</time></trkpt><trkpt lat="57.2808898520" lon="-5.7156343572"><ele>14.08</ele><time>2012-08-10T08:45:54Z</time></trkpt><trkpt lat="57.2808909416" lon="-5.7159848046"><ele>12.63</ele><time>2012-08-10T08:46:03Z</time></trkpt><trkpt lat="57.2809158359" lon="-5.7160692103"><ele>12.15</ele><time>2012-08-10T08:46:11Z</time></trkpt><trkpt lat="57.2809474356" lon="-5.7160981279"><ele>12.63</ele><time>2012-08-10T08:46:12Z</time></trkpt><trkpt lat="57.2809952125" lon="-5.7161181606"><ele>12.63</ele><time>2012-08-10T08:46:13Z</time></trkpt><trkpt lat="57.2810510360" lon="-5.7161078509"><ele>12.63</ele><time>2012-08-10T08:46:14Z</time></trkpt><trkpt lat="57.2811034229" lon="-5.7160739042"><ele>12.63</ele><time>2012-08-10T08:46:15Z</time></trkpt><trkpt lat="57.2811503615" lon="-5.7160376105"><ele>12.63</ele><time>2012-08-10T08:46:16Z</time></trkpt><trkpt lat="57.2817104403" lon="-5.7156713214"><ele>15.52</ele><time>2012-08-10T08:46:26Z</time></trkpt><trkpt lat="57.2820400167" lon="-5.7154376339"><ele>14.56</ele><time>2012-08-10T08:46:33Z</time></trkpt><trkpt lat="57.2821879573" lon="-5.7152322773"><ele>16.00</ele><time>2012-08-10T08:46:36Z</time></trkpt><trkpt lat="57.2823424358" lon="-5.7149477955"><ele>16.96</ele><time>2012-08-10T08:46:39Z</time></trkpt><trkpt lat="57.2823849320" lon="-5.7148307841"><ele>17.92</ele><time>2012-08-10T08:46:40Z</time></trkpt><trkpt lat="57.2824208066" lon="-5.7147111744"><ele>18.40</ele><time>2012-08-10T08:46:41Z</time></trkpt><trkpt lat="57.2824539989" lon="-5.7146048080"><ele>17.92</ele><time>2012-08-10T08:46:42Z</time></trkpt><trkpt lat="57.2824847605" lon="-5.7145178877"><ele>17.44</ele><time>2012-08-10T08:46:43Z</time></trkpt><trkpt lat="57.2825176176" lon="-5.7144511677"><ele>17.44</ele><time>2012-08-10T08:46:44Z</time></trkpt><trkpt lat="57.2825628798" lon="-5.7144060731"><ele>17.44</ele><time>2012-08-10T08:46:45Z</time></trkpt><trkpt lat="57.2826212179" lon="-5.7143696118"><ele>17.92</ele><time>2012-08-10T08:46:46Z</time></trkpt><trkpt lat="57.2826953977" lon="-5.7143342402"><ele>17.44</ele><time>2012-08-10T08:46:47Z</time></trkpt><trkpt lat="57.2827816475" lon="-5.7142996229"><ele>17.92</ele><time>2012-08-10T08:46:48Z</time></trkpt><trkpt lat="57.2829484474" lon="-5.7141975313"><ele>17.92</ele><time>2012-08-10T08:46:50Z</time></trkpt><trkpt lat="57.2830269020" lon="-5.7141005527"><ele>18.40</ele><time>2012-08-10T08:46:51Z</time></trkpt><trkpt lat="57.2830996569" lon="-5.7139688730"><ele>18.88</ele><time>2012-08-10T08:46:52Z</time></trkpt><trkpt lat="57.2835393716" lon="-5.7131626178"><ele>22.25</ele><time>2012-08-10T08:46:58Z</time></trkpt><trkpt lat="57.2836173233" lon="-5.7130914554"><ele>22.25</ele><time>2012-08-10T08:46:59Z</time></trkpt><trkpt lat="57.2837007232" lon="-5.7130510546"><ele>23.21</ele><time>2012-08-10T08:47:00Z</time></trkpt><trkpt lat="57.2837927565" lon="-5.7130435947"><ele>24.17</ele><time>2012-08-10T08:47:01Z</time></trkpt><trkpt lat="57.2838900704" lon="-5.7130627893"><ele>24.65</ele><time>2012-08-10T08:47:02Z</time></trkpt><trkpt lat="57.2839927487" lon="-5.7131031901"><ele>26.09</ele><time>2012-08-10T08:47:03Z</time></trkpt><trkpt lat="57.2844188008" lon="-5.7133774459"><ele>29.94</ele><time>2012-08-10T08:47:07Z</time></trkpt><trkpt lat="57.2845073976" lon="-5.7134796213"><ele>30.90</ele><time>2012-08-10T08:47:08Z</time></trkpt><trkpt lat="57.2845915519" lon="-5.7136032544"><ele>31.86</ele><time>2012-08-10T08:47:09Z</time></trkpt><trkpt lat="57.2846779693" lon="-5.7137428969"><ele>31.86</ele><time>2012-08-10T08:47:10Z</time></trkpt><trkpt lat="57.2852694802" lon="-5.7146245055"><ele>34.26</ele><time>2012-08-10T08:47:16Z</time></trkpt><trkpt lat="57.2853605077" lon="-5.7147196401"><ele>34.26</ele><time>2012-08-10T08:47:17Z</time></trkpt><trkpt lat="57.2854471765" lon="-5.7147823367"><ele>33.78</ele><time>2012-08-10T08:47:18Z</time></trkpt><trkpt lat="57.2855370305" lon="-5.7148222346"><ele>34.26</ele><time>2012-08-10T08:47:19Z</time></trkpt><trkpt lat="57.2856350988" lon="-5.7148606237"><ele>34.26</ele><time>2012-08-10T08:47:20Z</time></trkpt><trkpt lat="57.2857387830" lon="-5.7149149384"><ele>35.23</ele><time>2012-08-10T08:47:21Z</time></trkpt><trkpt lat="57.2862106003" lon="-5.7151402440"><ele>38.59</ele><time>2012-08-10T08:47:25Z</time></trkpt><trkpt lat="57.2863318864" lon="-5.7151793037"><ele>39.07</ele><time>2012-08-10T08:47:26Z</time></trkpt><trkpt lat="57.2869007662" lon="-5.7154349517"><ele>41.95</ele><time>2012-08-10T08:47:31Z</time></trkpt><trkpt lat="57.2874772735" lon="-5.7158839703"><ele>39.55</ele><time>2012-08-10T08:47:36Z</time></trkpt><trkpt lat="57.2875568178" lon="-5.7159941085"><ele>38.11</ele><time>2012-08-10T08:47:37Z</time></trkpt><trkpt lat="57.2876081988" lon="-5.7161452342"><ele>38.59</ele><time>2012-08-10T08:47:38Z</time></trkpt><trkpt lat="57.2876242083" lon="-5.7163277920"><ele>38.11</ele><time>2012-08-10T08:47:39Z</time></trkpt><trkpt lat="57.2876004037" lon="-5.7165350765"><ele>37.15</ele><time>2012-08-10T08:47:40Z</time></trkpt><trkpt lat="57.2875512857" lon="-5.7167573646"><ele>36.67</ele><time>2012-08-10T08:47:41Z</time></trkpt><trkpt lat="57.2874957137" lon="-5.7169930637"><ele>35.23</ele><time>2012-08-10T08:47:42Z</time></trkpt><trkpt lat="57.2873595078" lon="-5.7176598441"><ele>31.86</ele><time>2012-08-10T08:47:45Z</time></trkpt><trkpt lat="57.2873514611" lon="-5.7178402226"><ele>30.90</ele><time>2012-08-10T08:47:46Z</time></trkpt><trkpt lat="57.2873744275" lon="-5.7180127222"><ele>30.42</ele><time>2012-08-10T08:47:47Z</time></trkpt><trkpt lat="57.2874303348" lon="-5.7181605790"><ele>29.94</ele><time>2012-08-10T08:47:48Z</time></trkpt><trkpt lat="57.2875109687" lon="-5.7182819489"><ele>29.46</ele><time>2012-08-10T08:47:49Z</time></trkpt><trkpt lat="57.2876123898" lon="-5.7183551230"><ele>29.46</ele><time>2012-08-10T08:47:50Z</time></trkpt><trkpt lat="57.2877283953" lon="-5.7183805201"><ele>29.94</ele><time>2012-08-10T08:47:51Z</time></trkpt><trkpt lat="57.2878547106" lon="-5.7183740661"><ele>30.90</ele><time>2012-08-10T08:47:52Z</time></trkpt><trkpt lat="57.2879873123" lon="-5.7183553744"><ele>31.86</ele><time>2012-08-10T08:47:53Z</time></trkpt><trkpt lat="57.2882594727" lon="-5.7183261216"><ele>32.82</ele><time>2012-08-10T08:47:55Z</time></trkpt><trkpt lat="57.2886731196" lon="-5.7183338329"><ele>34.74</ele><time>2012-08-10T08:47:58Z</time></trkpt><trkpt lat="57.2893828992" lon="-5.7185178157"><ele>35.23</ele><time>2012-08-10T08:48:03Z</time></trkpt><trkpt lat="57.2895138245" lon="-5.7186161354"><ele>35.23</ele><time>2012-08-10T08:48:04Z</time></trkpt><trkpt lat="57.2896383796" lon="-5.7187708654"><ele>35.71</ele><time>2012-08-10T08:48:05Z</time></trkpt><trkpt lat="57.2897553910" lon="-5.7189778145"><ele>37.15</ele><time>2012-08-10T08:48:06Z</time></trkpt><trkpt lat="57.2898681276" lon="-5.7192223147"><ele>38.11</ele><time>2012-08-10T08:48:07Z</time></trkpt><trkpt lat="57.2903887276" lon="-5.7204553764"><ele>36.67</ele><time>2012-08-10T08:48:12Z</time></trkpt><trkpt lat="57.2908034641" lon="-5.7214454468"><ele>32.82</ele><time>2012-08-10T08:48:16Z</time></trkpt><trkpt lat="57.2911018599" lon="-5.7221973874"><ele>29.94</ele><time>2012-08-10T08:48:19Z</time></trkpt><trkpt lat="57.2913511377" lon="-5.7226480823"><ele>27.53</ele><time>2012-08-10T08:48:21Z</time></trkpt><trkpt lat="57.2914977372" lon="-5.7228351664"><ele>25.61</ele><time>2012-08-10T08:48:22Z</time></trkpt><trkpt lat="57.2916573286" lon="-5.7229992002"><ele>24.65</ele><time>2012-08-10T08:48:23Z</time></trkpt><trkpt lat="57.2918281518" lon="-5.7231373340"><ele>24.17</ele><time>2012-08-10T08:48:24Z</time></trkpt><trkpt lat="57.2920081951" lon="-5.7232446223"><ele>22.73</ele><time>2012-08-10T08:48:25Z</time></trkpt><trkpt lat="57.2921930999" lon="-5.7233247533"><ele>22.25</ele><time>2012-08-10T08:48:26Z</time></trkpt><trkpt lat="57.2923800163" lon="-5.7233919762"><ele>21.77</ele><time>2012-08-10T08:48:27Z</time></trkpt><trkpt lat="57.2929367423" lon="-5.7236367278"><ele>18.88</ele><time>2012-08-10T08:48:30Z</time></trkpt><trkpt lat="57.2932825796" lon="-5.7239240594"><ele>17.92</ele><time>2012-08-10T08:48:32Z</time></trkpt><trkpt lat="57.2934416682" lon="-5.7241195254"><ele>18.40</ele><time>2012-08-10T08:48:33Z</time></trkpt><trkpt lat="57.2940259706" lon="-5.7249658462"><ele>21.77</ele><time>2012-08-10T08:48:37Z</time></trkpt><trkpt lat="57.2944767494" lon="-5.7255543396"><ele>24.17</ele><time>2012-08-10T08:48:40Z</time></trkpt><trkpt lat="57.2948082536" lon="-5.7258483768"><ele>22.73</ele><time>2012-08-10T08:48:42Z</time></trkpt><trkpt lat="57.2949830163" lon="-5.7259455230"><ele>23.21</ele><time>2012-08-10T08:48:43Z</time></trkpt><trkpt lat="57.2951626405" lon="-5.7260155119"><ele>23.21</ele><time>2012-08-10T08:48:44Z</time></trkpt><trkpt lat="57.2958298400" lon="-5.7261742651"><ele>26.57</ele><time>2012-08-10T08:48:48Z</time></trkpt><trkpt lat="57.2959642857" lon="-5.7261844072"><ele>27.05</ele><time>2012-08-10T08:48:49Z</time></trkpt><trkpt lat="57.2960919421" lon="-5.7261449285"><ele>28.02</ele><time>2012-08-10T08:48:50Z</time></trkpt><trkpt lat="57.2962172516" lon="-5.7260392327"><ele>29.94</ele><time>2012-08-10T08:48:51Z</time></trkpt><trkpt lat="57.2963327542" lon="-5.7258670684"><ele>31.38</ele><time>2012-08-10T08:48:52Z</time></trkpt><trkpt lat="57.2964380309" lon="-5.7256323751"><ele>32.34</ele><time>2012-08-10T08:48:53Z</time></trkpt><trkpt lat="57.2965394519" lon="-5.7253696024"><ele>33.30</ele><time>2012-08-10T08:48:54Z</time></trkpt><trkpt lat="57.2975522373" lon="-5.7231401838"><ele>33.30</ele><time>2012-08-10T08:49:04Z</time></trkpt><trkpt lat="57.2976757027" lon="-5.7229900640"><ele>33.30</ele><time>2012-08-10T08:49:05Z</time></trkpt><trkpt lat="57.2982119769" lon="-5.7224504370"><ele>37.15</ele><time>2012-08-10T08:49:09Z</time></trkpt><trkpt lat="57.2983336821" lon="-5.7222839724"><ele>37.15</ele><time>2012-08-10T08:49:10Z</time></trkpt><trkpt lat="57.2994042188" lon="-5.7205282152"><ele>40.03</ele><time>2012-08-10T08:49:19Z</time></trkpt><trkpt lat="57.2995113395" lon="-5.7203032449"><ele>40.51</ele><time>2012-08-10T08:49:20Z</time></trkpt><trkpt lat="57.2998230625" lon="-5.7196684834"><ele>41.95</ele><time>2012-08-10T08:49:23Z</time></trkpt><trkpt lat="57.2999364696" lon="-5.7195169386"><ele>42.92</ele><time>2012-08-10T08:49:24Z</time></trkpt><trkpt lat="57.3000554089" lon="-5.7193891983"><ele>42.92</ele><time>2012-08-10T08:49:25Z</time></trkpt><trkpt lat="57.3001765274" lon="-5.7192566805"><ele>40.99</ele><time>2012-08-10T08:49:26Z</time></trkpt><trkpt lat="57.3002945445" lon="-5.7190996036"><ele>39.07</ele><time>2012-08-10T08:49:27Z</time></trkpt><trkpt lat="57.3004087899" lon="-5.7189167943"><ele>37.63</ele><time>2012-08-10T08:49:28Z</time></trkpt><trkpt lat="57.3005156592" lon="-5.7187094260"><ele>36.19</ele><time>2012-08-10T08:49:29Z</time></trkpt><trkpt lat="57.3006054293" lon="-5.7184765767"><ele>34.74</ele><time>2012-08-10T08:49:30Z</time></trkpt><trkpt lat="57.3006762564" lon="-5.7182258740"><ele>33.78</ele><time>2012-08-10T08:49:31Z</time></trkpt><trkpt lat="57.3007322475" lon="-5.7179610897"><ele>32.82</ele><time>2012-08-10T08:49:32Z</time></trkpt><trkpt lat="57.3007804435" lon="-5.7176915277"><ele>32.82</ele><time>2012-08-10T08:49:33Z</time></trkpt><trkpt lat="57.3009354249" lon="-5.7169067301"><ele>30.42</ele><time>2012-08-10T08:49:36Z</time></trkpt><trkpt lat="57.3010088503" lon="-5.7166658342"><ele>30.42</ele><time>2012-08-10T08:49:37Z</time></trkpt><trkpt lat="57.3016998544" lon="-5.7143018860"><ele>28.50</ele><time>2012-08-10T08:49:47Z</time></trkpt><trkpt lat="57.3019592743" lon="-5.7132694870"><ele>31.86</ele><time>2012-08-10T08:49:51Z</time></trkpt><trkpt lat="57.3021067958" lon="-5.7123766467"><ele>36.19</ele><time>2012-08-10T08:49:54Z</time></trkpt><trkpt lat="57.3022631183" lon="-5.7115298230"><ele>38.11</ele><time>2012-08-10T08:49:57Z</time></trkpt><trkpt lat="57.3029407952" lon="-5.7079965994"><ele>37.63</ele><time>2012-08-10T08:50:09Z</time></trkpt><trkpt lat="57.3031332437" lon="-5.7061796542"><ele>39.07</ele><time>2012-08-10T08:50:15Z</time></trkpt><trkpt lat="57.3032567929" lon="-5.7052711397"><ele>40.99</ele><time>2012-08-10T08:50:18Z</time></trkpt><trkpt lat="57.3034670111" lon="-5.7043047901"><ele>44.84</ele><time>2012-08-10T08:50:21Z</time></trkpt><trkpt lat="57.3037444521" lon="-5.7029853947"><ele>48.20</ele><time>2012-08-10T08:50:25Z</time></trkpt><trkpt lat="57.3039497249" lon="-5.7020188775"><ele>52.53</ele><time>2012-08-10T08:50:28Z</time></trkpt><trkpt lat="57.3040731065" lon="-5.7014109381"><ele>55.41</ele><time>2012-08-10T08:50:30Z</time></trkpt><trkpt lat="57.3042052891" lon="-5.7008320838"><ele>58.78</ele><time>2012-08-10T08:50:32Z</time></trkpt><trkpt lat="57.3042860068" lon="-5.7005528826"><ele>60.70</ele><time>2012-08-10T08:50:33Z</time></trkpt><trkpt lat="57.3043864220" lon="-5.7002937142"><ele>63.58</ele><time>2012-08-10T08:50:34Z</time></trkpt><trkpt lat="57.3045056965" lon="-5.7000582665"><ele>64.55</ele><time>2012-08-10T08:50:35Z</time></trkpt><trkpt lat="57.3046465125" lon="-5.6998503115"><ele>67.43</ele><time>2012-08-10T08:50:36Z</time></trkpt><trkpt lat="57.3048075289" lon="-5.6996727828"><ele>69.83</ele><time>2012-08-10T08:50:37Z</time></trkpt><trkpt lat="57.3049834650" lon="-5.6995398458"><ele>72.72</ele><time>2012-08-10T08:50:38Z</time></trkpt><trkpt lat="57.3051683698" lon="-5.6994606368"><ele>75.12</ele><time>2012-08-10T08:50:39Z</time></trkpt><trkpt lat="57.3053582199" lon="-5.6994256843"><ele>76.08</ele><time>2012-08-10T08:50:40Z</time></trkpt><trkpt lat="57.3055465613" lon="-5.6994018797"><ele>77.04</ele><time>2012-08-10T08:50:41Z</time></trkpt><trkpt lat="57.3057311308" lon="-5.6993804220"><ele>77.52</ele><time>2012-08-10T08:50:42Z</time></trkpt><trkpt lat="57.3064217996" lon="-5.6991051603"><ele>76.56</ele><time>2012-08-10T08:50:46Z</time></trkpt><trkpt lat="57.3077073321" lon="-5.6981113181"><ele>73.68</ele><time>2012-08-10T08:50:53Z</time></trkpt><trkpt lat="57.3086548224" lon="-5.6974728685"><ele>70.79</ele><time>2012-08-10T08:50:58Z</time></trkpt><trkpt lat="57.3088476900" lon="-5.6974180508"><ele>70.31</ele><time>2012-08-10T08:50:59Z</time></trkpt><trkpt lat="57.3090444133" lon="-5.6974101719"><ele>70.31</ele><time>2012-08-10T08:51:00Z</time></trkpt><trkpt lat="57.3092415556" lon="-5.6974379998"><ele>69.83</ele><time>2012-08-10T08:51:01Z</time></trkpt><trkpt lat="57.3094393685" lon="-5.6974902190"><ele>69.83</ele><time>2012-08-10T08:51:02Z</time></trkpt><trkpt lat="57.3101632297" lon="-5.6976977549"><ele>68.39</ele><time>2012-08-10T08:51:06Z</time></trkpt><trkpt lat="57.3103298619" lon="-5.6976927258"><ele>67.91</ele><time>2012-08-10T08:51:07Z</time></trkpt><trkpt lat="57.3104840890" lon="-5.6976451166"><ele>66.47</ele><time>2012-08-10T08:51:08Z</time></trkpt><trkpt lat="57.3106275871" lon="-5.6975473836"><ele>65.51</ele><time>2012-08-10T08:51:09Z</time></trkpt><trkpt lat="57.3107621167" lon="-5.6974013709"><ele>65.99</ele><time>2012-08-10T08:51:10Z</time></trkpt><trkpt lat="57.3108839057" lon="-5.6972121913"><ele>65.03</ele><time>2012-08-10T08:51:11Z</time></trkpt><trkpt lat="57.3109899368" lon="-5.6969931722"><ele>64.07</ele><time>2012-08-10T08:51:12Z</time></trkpt><trkpt lat="57.3110886756" lon="-5.6967651844"><ele>62.62</ele><time>2012-08-10T08:51:13Z</time></trkpt><trkpt lat="57.3112804536" lon="-5.6963020004"><ele>58.78</ele><time>2012-08-10T08:51:15Z</time></trkpt><trkpt lat="57.3113790248" lon="-5.6960877590"><ele>57.82</ele><time>2012-08-10T08:51:16Z</time></trkpt><trkpt lat="57.3114899173" lon="-5.6959011778"><ele>56.86</ele><time>2012-08-10T08:51:17Z</time></trkpt><trkpt lat="57.3116111197" lon="-5.6957603619"><ele>56.37</ele><time>2012-08-10T08:51:18Z</time></trkpt><trkpt lat="57.3117377702" lon="-5.6956767943"><ele>55.41</ele><time>2012-08-10T08:51:19Z</time></trkpt><trkpt lat="57.3118619062" lon="-5.6956338789"><ele>55.41</ele><time>2012-08-10T08:51:20Z</time></trkpt><trkpt lat="57.3119797558" lon="-5.6956119183"><ele>54.93</ele><time>2012-08-10T08:51:21Z</time></trkpt><trkpt lat="57.3120936658" lon="-5.6955895387"><ele>53.97</ele><time>2012-08-10T08:51:22Z</time></trkpt><trkpt lat="57.3122010380" lon="-5.6955551729"><ele>53.49</ele><time>2012-08-10T08:51:23Z</time></trkpt><trkpt lat="57.3123038840" lon="-5.6955104135"><ele>53.01</ele><time>2012-08-10T08:51:24Z</time></trkpt><trkpt lat="57.3123970907" lon="-5.6954617985"><ele>52.53</ele><time>2012-08-10T08:51:25Z</time></trkpt><trkpt lat="57.3129328620" lon="-5.6951085851"><ele>49.16</ele><time>2012-08-10T08:51:33Z</time></trkpt><trkpt lat="57.3129914515" lon="-5.6950396858"><ele>49.16</ele><time>2012-08-10T08:51:34Z</time></trkpt><trkpt lat="57.3130503763" lon="-5.6949593872"><ele>48.68</ele><time>2012-08-10T08:51:35Z</time></trkpt><trkpt lat="57.3131062835" lon="-5.6948593073"><ele>47.72</ele><time>2012-08-10T08:51:36Z</time></trkpt><trkpt lat="57.3131569102" lon="-5.6947293039"><ele>46.76</ele><time>2012-08-10T08:51:37Z</time></trkpt><trkpt lat="57.3132084589" lon="-5.6945786811"><ele>45.80</ele><time>2012-08-10T08:51:38Z</time></trkpt><trkpt lat="57.3133284878" lon="-5.6942632701"><ele>44.36</ele><time>2012-08-10T08:51:40Z</time></trkpt><trkpt lat="57.3134030867" lon="-5.6941248011"><ele>44.36</ele><time>2012-08-10T08:51:41Z</time></trkpt><trkpt lat="57.3134910129" lon="-5.6940186862"><ele>43.88</ele><time>2012-08-10T08:51:42Z</time></trkpt><trkpt lat="57.3135869019" lon="-5.6939646229"><ele>43.88</ele><time>2012-08-10T08:51:43Z</time></trkpt><trkpt lat="57.3136858921" lon="-5.6939525530"><ele>44.36</ele><time>2012-08-10T08:51:44Z</time></trkpt><trkpt lat="57.3137891572" lon="-5.6939449254"><ele>43.88</ele><time>2012-08-10T08:51:45Z</time></trkpt><trkpt lat="57.3140201624" lon="-5.6939314306"><ele>40.51</ele><time>2012-08-10T08:51:47Z</time></trkpt><trkpt lat="57.3145057261" lon="-5.6938545685"><ele>37.15</ele><time>2012-08-10T08:51:51Z</time></trkpt><trkpt lat="57.3146094102" lon="-5.6937848311"><ele>36.67</ele><time>2012-08-10T08:51:52Z</time></trkpt><trkpt lat="57.3147069756" lon="-5.6936958991"><ele>36.19</ele><time>2012-08-10T08:51:53Z</time></trkpt><trkpt lat="57.3148013558" lon="-5.6935853418"><ele>35.71</ele><time>2012-08-10T08:51:54Z</time></trkpt><trkpt lat="57.3148949817" lon="-5.6934553385"><ele>34.74</ele><time>2012-08-10T08:51:55Z</time></trkpt><trkpt lat="57.3149864282" lon="-5.6933116727"><ele>33.30</ele><time>2012-08-10T08:51:56Z</time></trkpt><trkpt lat="57.3150703311" lon="-5.6931654084"><ele>32.34</ele><time>2012-08-10T08:51:57Z</time></trkpt><trkpt lat="57.3151404876" lon="-5.6930119358"><ele>30.90</ele><time>2012-08-10T08:51:58Z</time></trkpt><trkpt lat="57.3151863366" lon="-5.6928391010"><ele>29.46</ele><time>2012-08-10T08:51:59Z</time></trkpt><trkpt lat="57.3151989933" lon="-5.6926500890"><ele>28.98</ele><time>2012-08-10T08:52:00Z</time></trkpt><trkpt lat="57.3151799664" lon="-5.6924541201"><ele>28.98</ele><time>2012-08-10T08:52:01Z</time></trkpt><trkpt lat="57.3151344527" lon="-5.6922525354"><ele>29.46</ele><time>2012-08-10T08:52:02Z</time></trkpt><trkpt lat="57.3150661401" lon="-5.6920525432"><ele>29.46</ele><time>2012-08-10T08:52:03Z</time></trkpt><trkpt lat="57.3149918765" lon="-5.6918502878"><ele>29.94</ele><time>2012-08-10T08:52:04Z</time></trkpt><trkpt lat="57.3149326164" lon="-5.6916203722"><ele>29.94</ele><time>2012-08-10T08:52:05Z</time></trkpt><trkpt lat="57.3149005137" lon="-5.6913453620"><ele>30.42</ele><time>2012-08-10T08:52:06Z</time></trkpt><trkpt lat="57.3149009328" lon="-5.6910445355"><ele>31.38</ele><time>2012-08-10T08:52:07Z</time></trkpt><trkpt lat="57.3149199598" lon="-5.6907470617"><ele>32.82</ele><time>2012-08-10T08:52:08Z</time></trkpt><trkpt lat="57.3149415851" lon="-5.6904661004"><ele>34.26</ele><time>2012-08-10T08:52:09Z</time></trkpt><trkpt lat="57.3149625398" lon="-5.6899721548"><ele>36.67</ele><time>2012-08-10T08:52:11Z</time></trkpt><trkpt lat="57.3149547447" lon="-5.6897675525"><ele>36.67</ele><time>2012-08-10T08:52:12Z</time></trkpt><trkpt lat="57.3149436805" lon="-5.6895845756"><ele>37.15</ele><time>2012-08-10T08:52:13Z</time></trkpt><trkpt lat="57.3149331193" lon="-5.6892964058"><ele>37.15</ele><time>2012-08-10T08:52:15Z</time></trkpt><trkpt lat="57.3149352148" lon="-5.6892295182"><ele>36.19</ele><time>2012-08-10T08:52:16Z</time></trkpt><trkpt lat="57.3149527330" lon="-5.6890740339"><ele>36.67</ele><time>2012-08-10T08:52:19Z</time></trkpt><trkpt lat="57.3149831593" lon="-5.6889777258"><ele>36.67</ele><time>2012-08-10T08:52:20Z</time></trkpt><trkpt lat="57.3150386475" lon="-5.6888656598"><ele>37.15</ele><time>2012-08-10T08:52:21Z</time></trkpt><trkpt lat="57.3151180241" lon="-5.6887681782"><ele>37.63</ele><time>2012-08-10T08:52:22Z</time></trkpt><trkpt lat="57.3152155057" lon="-5.6886897236"><ele>38.11</ele><time>2012-08-10T08:52:23Z</time></trkpt><trkpt lat="57.3153233808" lon="-5.6886019651"><ele>37.63</ele><time>2012-08-10T08:52:24Z</time></trkpt><trkpt lat="57.3154272325" lon="-5.6885035615"><ele>37.63</ele><time>2012-08-10T08:52:25Z</time></trkpt><trkpt lat="57.3156201001" lon="-5.6882734783"><ele>36.67</ele><time>2012-08-10T08:52:27Z</time></trkpt><trkpt lat="57.3157120496" lon="-5.6881166529"><ele>36.67</ele><time>2012-08-10T08:52:28Z</time></trkpt><trkpt lat="57.3157988861" lon="-5.6879309937"><ele>37.15</ele><time>2012-08-10T08:52:29Z</time></trkpt><trkpt lat="57.3160685319" lon="-5.6874144170"><ele>35.71</ele><time>2012-08-10T08:52:32Z</time></trkpt><trkpt lat="57.3161759041" lon="-5.6873236410"><ele>35.71</ele><time>2012-08-10T08:52:33Z</time></trkpt><trkpt lat="57.3162935860" lon="-5.6872775406"><ele>35.23</ele><time>2012-08-10T08:52:34Z</time></trkpt><trkpt lat="57.3164162133" lon="-5.6872391514"><ele>36.19</ele><time>2012-08-10T08:52:35Z</time></trkpt><trkpt lat="57.3165384214" lon="-5.6871824898"><ele>36.19</ele><time>2012-08-10T08:52:36Z</time></trkpt><trkpt lat="57.3166526668" lon="-5.6871093996"><ele>35.71</ele><time>2012-08-10T08:52:37Z</time></trkpt><trkpt lat="57.3167576920" lon="-5.6870073918"><ele>35.23</ele><time>2012-08-10T08:52:38Z</time></trkpt><trkpt lat="57.3168528266" lon="-5.6868552603"><ele>35.71</ele><time>2012-08-10T08:52:39Z</time></trkpt><trkpt lat="57.3169399984" lon="-5.6866611354"><ele>35.71</ele><time>2012-08-10T08:52:40Z</time></trkpt><trkpt lat="57.3170192912" lon="-5.6864423677"><ele>36.19</ele><time>2012-08-10T08:52:41Z</time></trkpt><trkpt lat="57.3170850053" lon="-5.6862198282"><ele>36.19</ele><time>2012-08-10T08:52:42Z</time></trkpt><trkpt lat="57.3171291780" lon="-5.6860024855"><ele>37.15</ele><time>2012-08-10T08:52:43Z</time></trkpt><trkpt lat="57.3171571735" lon="-5.6857804488"><ele>37.63</ele><time>2012-08-10T08:52:44Z</time></trkpt><trkpt lat="57.3171812296" lon="-5.6855450012"><ele>38.11</ele><time>2012-08-10T08:52:45Z</time></trkpt><trkpt lat="57.3172685690" lon="-5.6845790707"><ele>36.67</ele><time>2012-08-10T08:52:49Z</time></trkpt><trkpt lat="57.3173182737" lon="-5.6843618117"><ele>36.19</ele><time>2012-08-10T08:52:50Z</time></trkpt><trkpt lat="57.3173925374" lon="-5.6841743924"><ele>35.71</ele><time>2012-08-10T08:52:51Z</time></trkpt><trkpt lat="57.3174870852" lon="-5.6840147171"><ele>36.19</ele><time>2012-08-10T08:52:52Z</time></trkpt><trkpt lat="57.3175890930" lon="-5.6838651840"><ele>36.67</ele><time>2012-08-10T08:52:53Z</time></trkpt><trkpt lat="57.3179428093" lon="-5.6832921132"><ele>37.63</ele><time>2012-08-10T08:52:57Z</time></trkpt><trkpt lat="57.3179862276" lon="-5.6831778679"><ele>37.15</ele><time>2012-08-10T08:52:58Z</time></trkpt><trkpt lat="57.3180165701" lon="-5.6830808055"><ele>36.67</ele><time>2012-08-10T08:52:59Z</time></trkpt><trkpt lat="57.3181573860" lon="-5.6826012768"><ele>36.67</ele><time>2012-08-10T08:53:06Z</time></trkpt><trkpt lat="57.3183292989" lon="-5.6818500068"><ele>38.11</ele><time>2012-08-10T08:53:15Z</time></trkpt><trkpt lat="57.3183499184" lon="-5.6817153934"><ele>38.11</ele><time>2012-08-10T08:53:16Z</time></trkpt><trkpt lat="57.3183777463" lon="-5.6814646907"><ele>37.63</ele><time>2012-08-10T08:53:22Z</time></trkpt><trkpt lat="57.3183742259" lon="-5.6812246330"><ele>37.63</ele><time>2012-08-10T08:53:50Z</time></trkpt><trkpt lat="57.3183885589" lon="-5.6803651527"><ele>37.63</ele><time>2012-08-10T08:54:01Z</time></trkpt><trkpt lat="57.3184075020" lon="-5.6802349817"><ele>38.11</ele><time>2012-08-10T08:54:03Z</time></trkpt><trkpt lat="57.3184137885" lon="-5.6801546831"><ele>38.11</ele><time>2012-08-10T08:54:04Z</time></trkpt><trkpt lat="57.3184145428" lon="-5.6797301397"><ele>38.59</ele><time>2012-08-10T08:54:08Z</time></trkpt><trkpt lat="57.3183985334" lon="-5.6796070933"><ele>38.59</ele><time>2012-08-10T08:54:09Z</time></trkpt><trkpt lat="57.3180852178" lon="-5.6780320499"><ele>39.55</ele><time>2012-08-10T08:54:19Z</time></trkpt><trkpt lat="57.3178819567" lon="-5.6771133933"><ele>41.95</ele><time>2012-08-10T08:54:24Z</time></trkpt><trkpt lat="57.3177698907" lon="-5.6766798813"><ele>45.32</ele><time>2012-08-10T08:54:28Z</time></trkpt><trkpt lat="57.3177662026" lon="-5.6766144186"><ele>46.28</ele><time>2012-08-10T08:54:29Z</time></trkpt><trkpt lat="57.3177781887" lon="-5.6765559968"><ele>46.76</ele><time>2012-08-10T08:54:30Z</time></trkpt><trkpt lat="57.3178050946" lon="-5.6765051186"><ele>47.72</ele><time>2012-08-10T08:54:31Z</time></trkpt><trkpt lat="57.3178512789" lon="-5.6764568388"><ele>47.72</ele><time>2012-08-10T08:54:32Z</time></trkpt><trkpt lat="57.3179182503" lon="-5.6764182821"><ele>48.68</ele><time>2012-08-10T08:54:33Z</time></trkpt><trkpt lat="57.3179940227" lon="-5.6763922144"><ele>49.16</ele><time>2012-08-10T08:54:34Z</time></trkpt><trkpt lat="57.3180744890" lon="-5.6763653085"><ele>49.65</ele><time>2012-08-10T08:54:35Z</time></trkpt><trkpt lat="57.3181589786" lon="-5.6763192918"><ele>49.65</ele><time>2012-08-10T08:54:36Z</time></trkpt><trkpt lat="57.3182468209" lon="-5.6762368977"><ele>50.13</ele><time>2012-08-10T08:54:37Z</time></trkpt><trkpt lat="57.3183305562" lon="-5.6761021167"><ele>50.61</ele><time>2012-08-10T08:54:38Z</time></trkpt><trkpt lat="57.3184092622" lon="-5.6759232469"><ele>51.57</ele><time>2012-08-10T08:54:39Z</time></trkpt><trkpt lat="57.3184863757" lon="-5.6757402699"><ele>52.53</ele><time>2012-08-10T08:54:40Z</time></trkpt><trkpt lat="57.3187364079" lon="-5.6752475817"><ele>55.89</ele><time>2012-08-10T08:54:43Z</time></trkpt><trkpt lat="57.3191107437" lon="-5.6745818071"><ele>56.37</ele><time>2012-08-10T08:54:49Z</time></trkpt><trkpt lat="57.3191127554" lon="-5.6745007541"><ele>55.41</ele><time>2012-08-10T08:54:50Z</time></trkpt><trkpt lat="57.3190897051" lon="-5.6744244788"><ele>54.93</ele><time>2012-08-10T08:54:51Z</time></trkpt><trkpt lat="57.3190571833" lon="-5.6743373908"><ele>54.45</ele><time>2012-08-10T08:54:52Z</time></trkpt><trkpt lat="57.3190223146" lon="-5.6742258277"><ele>54.45</ele><time>2012-08-10T08:54:53Z</time></trkpt><trkpt lat="57.3189875297" lon="-5.6740820780"><ele>54.45</ele><time>2012-08-10T08:54:54Z</time></trkpt><trkpt lat="57.3185427859" lon="-5.6723787077"><ele>54.45</ele><time>2012-08-10T08:55:03Z</time></trkpt><trkpt lat="57.3182474077" lon="-5.6711287983"><ele>54.93</ele><time>2012-08-10T08:55:10Z</time></trkpt><trkpt lat="57.3182322364" lon="-5.6709215976"><ele>55.41</ele><time>2012-08-10T08:55:11Z</time></trkpt><trkpt lat="57.3182547837" lon="-5.6683475990"><ele>57.34</ele><time>2012-08-10T08:55:21Z</time></trkpt><trkpt lat="57.3183365911" lon="-5.6669907365"><ele>58.78</ele><time>2012-08-10T08:55:26Z</time></trkpt><trkpt lat="57.3187543452" lon="-5.6640751753"><ele>60.22</ele><time>2012-08-10T08:55:37Z</time></trkpt><trkpt lat="57.3193493765" lon="-5.6626018044"><ele>60.22</ele><time>2012-08-10T08:55:44Z</time></trkpt><trkpt lat="57.3195922840" lon="-5.6619284861"><ele>61.18</ele><time>2012-08-10T08:55:47Z</time></trkpt><trkpt lat="57.3196522985" lon="-5.6616830640"><ele>62.14</ele><time>2012-08-10T08:55:48Z</time></trkpt><trkpt lat="57.3198341858" lon="-5.6605453044"><ele>64.55</ele><time>2012-08-10T08:55:53Z</time></trkpt><trkpt lat="57.3198354430" lon="-5.6602776702"><ele>65.51</ele><time>2012-08-10T08:55:54Z</time></trkpt><trkpt lat="57.3198247142" lon="-5.6599976309"><ele>65.99</ele><time>2012-08-10T08:55:55Z</time></trkpt><trkpt lat="57.3198003229" lon="-5.6597181782"><ele>66.95</ele><time>2012-08-10T08:55:56Z</time></trkpt><trkpt lat="57.3197732493" lon="-5.6594510470"><ele>67.43</ele><time>2012-08-10T08:55:57Z</time></trkpt><trkpt lat="57.3197549768" lon="-5.6592056248"><ele>67.91</ele><time>2012-08-10T08:55:58Z</time></trkpt><trkpt lat="57.3197565693" lon="-5.6589891203"><ele>68.39</ele><time>2012-08-10T08:55:59Z</time></trkpt><trkpt lat="57.3197745066" lon="-5.6588174589"><ele>69.35</ele><time>2012-08-10T08:56:00Z</time></trkpt><trkpt lat="57.3197981436" lon="-5.6586995255"><ele>68.87</ele><time>2012-08-10T08:56:01Z</time></trkpt><trkpt lat="57.3198139016" lon="-5.6586170476"><ele>68.87</ele><time>2012-08-10T08:56:02Z</time></trkpt><trkpt lat="57.3198153265" lon="-5.6585525908"><ele>69.35</ele><time>2012-08-10T08:56:03Z</time></trkpt><trkpt lat="57.3198107164" lon="-5.6584905647"><ele>69.83</ele><time>2012-08-10T08:56:04Z</time></trkpt><trkpt lat="57.3198143207" lon="-5.6584080867"><ele>69.83</ele><time>2012-08-10T08:56:05Z</time></trkpt><trkpt lat="57.3198195174" lon="-5.6582922488"><ele>71.27</ele><time>2012-08-10T08:56:06Z</time></trkpt><trkpt lat="57.3198294081" lon="-5.6577163283"><ele>75.12</ele><time>2012-08-10T08:56:09Z</time></trkpt><trkpt lat="57.3198638577" lon="-5.6570209656"><ele>78.97</ele><time>2012-08-10T08:56:12Z</time></trkpt><trkpt lat="57.3199420609" lon="-5.6562714558"><ele>83.29</ele><time>2012-08-10T08:56:15Z</time></trkpt><trkpt lat="57.3200361896" lon="-5.6555475108"><ele>87.14</ele><time>2012-08-10T08:56:18Z</time></trkpt><trkpt lat="57.3201782629" lon="-5.6547954027"><ele>90.98</ele><time>2012-08-10T08:56:21Z</time></trkpt><trkpt lat="57.3203349207" lon="-5.6540546101"><ele>94.35</ele><time>2012-08-10T08:56:24Z</time></trkpt><trkpt lat="57.3204281274" lon="-5.6532345247"><ele>97.71</ele><time>2012-08-10T08:56:27Z</time></trkpt><trkpt lat="57.3205508385" lon="-5.6520853657"><ele>102.04</ele><time>2012-08-10T08:56:31Z</time></trkpt><trkpt lat="57.3208653275" lon="-5.6507671438"><ele>103.96</ele><time>2012-08-10T08:56:37Z</time></trkpt><trkpt lat="57.3209343106" lon="-5.6506005116"><ele>104.92</ele><time>2012-08-10T08:56:38Z</time></trkpt><trkpt lat="57.3210175429" lon="-5.6504342146"><ele>107.32</ele><time>2012-08-10T08:56:39Z</time></trkpt><trkpt lat="57.3215559125" lon="-5.6496831961"><ele>111.65</ele><time>2012-08-10T08:56:44Z</time></trkpt><trkpt lat="57.3218305036" lon="-5.6494068448"><ele>112.13</ele><time>2012-08-10T08:56:46Z</time></trkpt><trkpt lat="57.3234221432" lon="-5.6476929970"><ele>113.09</ele><time>2012-08-10T08:56:58Z</time></trkpt><trkpt lat="57.3242120538" lon="-5.6458148640"><ele>113.57</ele><time>2012-08-10T08:57:06Z</time></trkpt><trkpt lat="57.3246663529" lon="-5.6447771005"><ele>113.57</ele><time>2012-08-10T08:57:11Z</time></trkpt><trkpt lat="57.3247697856" lon="-5.6446363684"><ele>113.09</ele><time>2012-08-10T08:57:12Z</time></trkpt><trkpt lat="57.3248806782" lon="-5.6445279904"><ele>113.09</ele><time>2012-08-10T08:57:13Z</time></trkpt><trkpt lat="57.3249961808" lon="-5.6444381364"><ele>112.61</ele><time>2012-08-10T08:57:14Z</time></trkpt><trkpt lat="57.3251172155" lon="-5.6443600170"><ele>112.13</ele><time>2012-08-10T08:57:15Z</time></trkpt><trkpt lat="57.3252472188" lon="-5.6442943029"><ele>112.61</ele><time>2012-08-10T08:57:16Z</time></trkpt><trkpt lat="57.3253819998" lon="-5.6442339532"><ele>112.61</ele><time>2012-08-10T08:57:17Z</time></trkpt><trkpt lat="57.3256394081" lon="-5.6440737750"><ele>112.13</ele><time>2012-08-10T08:57:19Z</time></trkpt><trkpt lat="57.3257550783" lon="-5.6439563446"><ele>112.13</ele><time>2012-08-10T08:57:20Z</time></trkpt><trkpt lat="57.3258576728" lon="-5.6438063923"><ele>112.13</ele><time>2012-08-10T08:57:21Z</time></trkpt><trkpt lat="57.3259507958" lon="-5.6436311267"><ele>112.61</ele><time>2012-08-10T08:57:22Z</time></trkpt><trkpt lat="57.3260331061" lon="-5.6434261892"><ele>112.61</ele><time>2012-08-10T08:57:23Z</time></trkpt><trkpt lat="57.3261190206" lon="-5.6431986205"><ele>113.57</ele><time>2012-08-10T08:57:24Z</time></trkpt><trkpt lat="57.3263020813" lon="-5.6427128892"><ele>114.05</ele><time>2012-08-10T08:57:26Z</time></trkpt><trkpt lat="57.3269132897" lon="-5.6412068289"><ele>113.09</ele><time>2012-08-10T08:57:33Z</time></trkpt><trkpt lat="57.3270096816" lon="-5.6410765741"><ele>113.57</ele><time>2012-08-10T08:57:34Z</time></trkpt><trkpt lat="57.3271169700" lon="-5.6409772485"><ele>113.09</ele><time>2012-08-10T08:57:35Z</time></trkpt><trkpt lat="57.3272132780" lon="-5.6409204192"><ele>112.61</ele><time>2012-08-10T08:57:36Z</time></trkpt><trkpt lat="57.3272830155" lon="-5.6409041584"><ele>111.65</ele><time>2012-08-10T08:57:37Z</time></trkpt><trkpt lat="57.3273409344" lon="-5.6409073435"><ele>111.65</ele><time>2012-08-10T08:57:38Z</time></trkpt><trkpt lat="57.3274650704" lon="-5.6409339141"><ele>111.65</ele><time>2012-08-10T08:57:40Z</time></trkpt><trkpt lat="57.3275309522" lon="-5.6409676094"><ele>111.65</ele><time>2012-08-10T08:57:41Z</time></trkpt><trkpt lat="57.3276022822" lon="-5.6410176493"><ele>111.65</ele><time>2012-08-10T08:57:42Z</time></trkpt><trkpt lat="57.3276799824" lon="-5.6410940923"><ele>112.61</ele><time>2012-08-10T08:57:43Z</time></trkpt><trkpt lat="57.3277682438" lon="-5.6412035599"><ele>112.61</ele><time>2012-08-10T08:57:44Z</time></trkpt><trkpt lat="57.3278726824" lon="-5.6413519196"><ele>113.09</ele><time>2012-08-10T08:57:45Z</time></trkpt><trkpt lat="57.3279706668" lon="-5.6415019557"><ele>112.61</ele><time>2012-08-10T08:57:46Z</time></trkpt><trkpt lat="57.3282415699" lon="-5.6418739446"><ele>110.69</ele><time>2012-08-10T08:57:49Z</time></trkpt><trkpt lat="57.3283394706" lon="-5.6419470347"><ele>110.21</ele><time>2012-08-10T08:57:50Z</time></trkpt><trkpt lat="57.3284451663" lon="-5.6419797242"><ele>109.25</ele><time>2012-08-10T08:57:51Z</time></trkpt><trkpt lat="57.3285572324" lon="-5.6419817358"><ele>108.77</ele><time>2012-08-10T08:57:52Z</time></trkpt><trkpt lat="57.3286753334" lon="-5.6419472024"><ele>108.29</ele><time>2012-08-10T08:57:53Z</time></trkpt><trkpt lat="57.3287956137" lon="-5.6418735255"><ele>107.32</ele><time>2012-08-10T08:57:54Z</time></trkpt><trkpt lat="57.3289152235" lon="-5.6417721044"><ele>106.84</ele><time>2012-08-10T08:57:55Z</time></trkpt><trkpt lat="57.3290339112" lon="-5.6416562665"><ele>106.36</ele><time>2012-08-10T08:57:56Z</time></trkpt><trkpt lat="57.3293897230" lon="-5.6412789132"><ele>103.48</ele><time>2012-08-10T08:57:59Z</time></trkpt><trkpt lat="57.3297584429" lon="-5.6408790965"><ele>100.11</ele><time>2012-08-10T08:58:02Z</time></trkpt><trkpt lat="57.3301134165" lon="-5.6405004021"><ele>97.23</ele><time>2012-08-10T08:58:05Z</time></trkpt><trkpt lat="57.3304346111" lon="-5.6401569955"><ele>93.87</ele><time>2012-08-10T08:58:08Z</time></trkpt><trkpt lat="57.3305273987" lon="-5.6400731765"><ele>92.42</ele><time>2012-08-10T08:58:09Z</time></trkpt><trkpt lat="57.3306117207" lon="-5.6400199514"><ele>90.98</ele><time>2012-08-10T08:58:10Z</time></trkpt><trkpt lat="57.3306889180" lon="-5.6400002539"><ele>90.02</ele><time>2012-08-10T08:58:11Z</time></trkpt><trkpt lat="57.3307632655" lon="-5.6400255673"><ele>88.58</ele><time>2012-08-10T08:58:12Z</time></trkpt><trkpt lat="57.3308345955" lon="-5.6401008368"><ele>88.10</ele><time>2012-08-10T08:58:13Z</time></trkpt><trkpt lat="57.3309015669" lon="-5.6402134057"><ele>86.66</ele><time>2012-08-10T08:58:14Z</time></trkpt><trkpt lat="57.3309588153" lon="-5.6403608434"><ele>86.18</ele><time>2012-08-10T08:58:15Z</time></trkpt><trkpt lat="57.3310034908" lon="-5.6405432336"><ele>84.73</ele><time>2012-08-10T08:58:16Z</time></trkpt><trkpt lat="57.3310286365" lon="-5.6407495122"><ele>83.77</ele><time>2012-08-10T08:58:17Z</time></trkpt><trkpt lat="57.3310370184" lon="-5.6409815233"><ele>82.81</ele><time>2012-08-10T08:58:18Z</time></trkpt><trkpt lat="57.3310380243" lon="-5.6412285380"><ele>82.33</ele><time>2012-08-10T08:58:19Z</time></trkpt><trkpt lat="57.3310415447" lon="-5.6417184602"><ele>78.97</ele><time>2012-08-10T08:58:21Z</time></trkpt><trkpt lat="57.3310838733" lon="-5.6421536487"><ele>76.56</ele><time>2012-08-10T08:58:23Z</time></trkpt><trkpt lat="57.3311183229" lon="-5.6423177663"><ele>75.12</ele><time>2012-08-10T08:58:24Z</time></trkpt><trkpt lat="57.3311557062" lon="-5.6424395554"><ele>73.68</ele><time>2012-08-10T08:58:25Z</time></trkpt><trkpt lat="57.3311902396" lon="-5.6425398868"><ele>72.72</ele><time>2012-08-10T08:58:26Z</time></trkpt><trkpt lat="57.3312309757" lon="-5.6426183414"><ele>71.76</ele><time>2012-08-10T08:58:27Z</time></trkpt><trkpt lat="57.3312820215" lon="-5.6426726561"><ele>71.76</ele><time>2012-08-10T08:58:28Z</time></trkpt><trkpt lat="57.3313467298" lon="-5.6427135598"><ele>70.79</ele><time>2012-08-10T08:58:29Z</time></trkpt><trkpt lat="57.3314239271" lon="-5.6427439861"><ele>70.31</ele><time>2012-08-10T08:58:30Z</time></trkpt><trkpt lat="57.3315120209" lon="-5.6427465845"><ele>69.83</ele><time>2012-08-10T08:58:31Z</time></trkpt><trkpt lat="57.3316038027" lon="-5.6427138112"><ele>69.35</ele><time>2012-08-10T08:58:32Z</time></trkpt><trkpt lat="57.3316934891" lon="-5.6426380388"><ele>68.39</ele><time>2012-08-10T08:58:33Z</time></trkpt><trkpt lat="57.3317788169" lon="-5.6425072812"><ele>67.91</ele><time>2012-08-10T08:58:34Z</time></trkpt><trkpt lat="57.3318534996" lon="-5.6423357036"><ele>66.95</ele><time>2012-08-10T08:58:35Z</time></trkpt><trkpt lat="57.3319135979" lon="-5.6421445124"><ele>66.95</ele><time>2012-08-10T08:58:36Z</time></trkpt><trkpt lat="57.3319722712" lon="-5.6419443525"><ele>65.99</ele><time>2012-08-10T08:58:37Z</time></trkpt><trkpt lat="57.3326450028" lon="-5.6401844043"><ele>63.10</ele><time>2012-08-10T08:58:46Z</time></trkpt><trkpt lat="57.3332418781" lon="-5.6393872853"><ele>59.74</ele><time>2012-08-10T08:58:52Z</time></trkpt><trkpt lat="57.3333383538" lon="-5.6392656639"><ele>59.26</ele><time>2012-08-10T08:58:53Z</time></trkpt><trkpt lat="57.3338730354" lon="-5.6384138111"><ele>55.89</ele><time>2012-08-10T08:58:59Z</time></trkpt><trkpt lat="57.3339376599" lon="-5.6382480171"><ele>54.93</ele><time>2012-08-10T08:59:00Z</time></trkpt><trkpt lat="57.3339964170" lon="-5.6380746793"><ele>54.45</ele><time>2012-08-10T08:59:01Z</time></trkpt><trkpt lat="57.3341066390" lon="-5.6376964878"><ele>53.49</ele><time>2012-08-10T08:59:03Z</time></trkpt><trkpt lat="57.3341528233" lon="-5.6374877784"><ele>53.01</ele><time>2012-08-10T08:59:04Z</time></trkpt><trkpt lat="57.3341892008" lon="-5.6372679211"><ele>51.57</ele><time>2012-08-10T08:59:05Z</time></trkpt><trkpt lat="57.3342165258" lon="-5.6370400172"><ele>51.57</ele><time>2012-08-10T08:59:06Z</time></trkpt><trkpt lat="57.3342309427" lon="-5.6368037313"><ele>50.61</ele><time>2012-08-10T08:59:07Z</time></trkpt><trkpt lat="57.3342366423" lon="-5.6365585607"><ele>49.65</ele><time>2012-08-10T08:59:08Z</time></trkpt><trkpt lat="57.3342386540" lon="-5.6363111269"><ele>49.16</ele><time>2012-08-10T08:59:09Z</time></trkpt><trkpt lat="57.3342301883" lon="-5.6353785563"><ele>45.32</ele><time>2012-08-10T08:59:13Z</time></trkpt><trkpt lat="57.3342459463" lon="-5.6347764004"><ele>42.44</ele><time>2012-08-10T08:59:16Z</time></trkpt><trkpt lat="57.3342691641" lon="-5.6346055772"><ele>42.44</ele><time>2012-08-10T08:59:17Z</time></trkpt><trkpt lat="57.3343044519" lon="-5.6344495062"><ele>41.47</ele><time>2012-08-10T08:59:18Z</time></trkpt><trkpt lat="57.3343519773" lon="-5.6343150605"><ele>40.51</ele><time>2012-08-10T08:59:19Z</time></trkpt><trkpt lat="57.3344119079" lon="-5.6342075206"><ele>40.03</ele><time>2012-08-10T08:59:20Z</time></trkpt><trkpt lat="57.3344780412" lon="-5.6341280602"><ele>39.55</ele><time>2012-08-10T08:59:21Z</time></trkpt><trkpt lat="57.3345424142" lon="-5.6340674590"><ele>39.55</ele><time>2012-08-10T08:59:22Z</time></trkpt><trkpt lat="57.3346015904" lon="-5.6340244599"><ele>39.07</ele><time>2012-08-10T08:59:23Z</time></trkpt><trkpt lat="57.3346576653" lon="-5.6340053491"><ele>38.59</ele><time>2012-08-10T08:59:24Z</time></trkpt><trkpt lat="57.3347196076" lon="-5.6340250466"><ele>38.59</ele><time>2012-08-10T08:59:25Z</time></trkpt><trkpt lat="57.3347853217" lon="-5.6340716500"><ele>38.11</ele><time>2012-08-10T08:59:26Z</time></trkpt><trkpt lat="57.3348538019" lon="-5.6341231987"><ele>38.11</ele><time>2012-08-10T08:59:27Z</time></trkpt><trkpt lat="57.3355893139" lon="-5.6345997099"><ele>35.71</ele><time>2012-08-10T08:59:37Z</time></trkpt><trkpt lat="57.3356587160" lon="-5.6346062478"><ele>36.19</ele><time>2012-08-10T08:59:38Z</time></trkpt><trkpt lat="57.3357261904" lon="-5.6345907412"><ele>35.23</ele><time>2012-08-10T08:59:39Z</time></trkpt><trkpt lat="57.3357931618" lon="-5.6345562916"><ele>35.71</ele><time>2012-08-10T08:59:40Z</time></trkpt><trkpt lat="57.3358604684" lon="-5.6345054135"><ele>35.71</ele><time>2012-08-10T08:59:41Z</time></trkpt><trkpt lat="57.3359271046" lon="-5.6344283000"><ele>35.23</ele><time>2012-08-10T08:59:42Z</time></trkpt><trkpt lat="57.3359918129" lon="-5.6343340036"><ele>35.23</ele><time>2012-08-10T08:59:43Z</time></trkpt><trkpt lat="57.3360493127" lon="-5.6342298165"><ele>34.74</ele><time>2012-08-10T08:59:44Z</time></trkpt><trkpt lat="57.3361003585" lon="-5.6341097038"><ele>34.74</ele><time>2012-08-10T08:59:45Z</time></trkpt><trkpt lat="57.3361483030" lon="-5.6339822151"><ele>34.26</ele><time>2012-08-10T08:59:46Z</time></trkpt><trkpt lat="57.3363219760" lon="-5.6335176062"><ele>33.30</ele><time>2012-08-10T08:59:50Z</time></trkpt><trkpt lat="57.3363694176" lon="-5.6334320270"><ele>33.30</ele><time>2012-08-10T08:59:51Z</time></trkpt><trkpt lat="57.3368232138" lon="-5.6328062341"><ele>33.78</ele><time>2012-08-10T09:00:01Z</time></trkpt><trkpt lat="57.3368720803" lon="-5.6327322219"><ele>32.82</ele><time>2012-08-10T09:00:09Z</time></trkpt><trkpt lat="57.3368289135" lon="-5.6327488180"><ele>33.30</ele><time>2012-08-10T09:00:14Z</time></trkpt><trkpt lat="57.3368108086" lon="-5.6327713653"><ele>33.30</ele><time>2012-08-10T09:00:15Z</time></trkpt><trkpt lat="57.3367824778" lon="-5.6328082457"><ele>33.30</ele><time>2012-08-10T09:00:16Z</time></trkpt><trkpt lat="57.3367466033" lon="-5.6328654941"><ele>33.78</ele><time>2012-08-10T09:00:17Z</time></trkpt><trkpt lat="57.3367093038" lon="-5.6329318788"><ele>34.26</ele><time>2012-08-10T09:00:18Z</time></trkpt><trkpt lat="57.3363762069" lon="-5.6333700009"><ele>34.26</ele><time>2012-08-10T09:00:25Z</time></trkpt><trkpt lat="57.3359388392" lon="-5.6342800241"><ele>35.71</ele><time>2012-08-10T09:00:33Z</time></trkpt><trkpt lat="57.3358818423" lon="-5.6343789306"><ele>36.19</ele><time>2012-08-10T09:00:34Z</time></trkpt><trkpt lat="57.3358150385" lon="-5.6344649289"><ele>36.67</ele><time>2012-08-10T09:00:35Z</time></trkpt><trkpt lat="57.3357441276" lon="-5.6345341634"><ele>37.15</ele><time>2012-08-10T09:00:36Z</time></trkpt><trkpt lat="57.3356741387" lon="-5.6345785875"><ele>37.15</ele><time>2012-08-10T09:00:37Z</time></trkpt><trkpt lat="57.3356083408" lon="-5.6345996261"><ele>37.15</ele><time>2012-08-10T09:00:38Z</time></trkpt><trkpt lat="57.3355439678" lon="-5.6345884781"><ele>36.67</ele><time>2012-08-10T09:00:39Z</time></trkpt><trkpt lat="57.3354706261" lon="-5.6345469877"><ele>36.67</ele><time>2012-08-10T09:00:40Z</time></trkpt><trkpt lat="57.3353988770" lon="-5.6345044915"><ele>36.67</ele><time>2012-08-10T09:00:41Z</time></trkpt><trkpt lat="57.3352490924" lon="-5.6344214268"><ele>38.11</ele><time>2012-08-10T09:00:43Z</time></trkpt><trkpt lat="57.3348612618" lon="-5.6341870688"><ele>38.11</ele><time>2012-08-10T09:00:50Z</time></trkpt><trkpt lat="57.3348266445" lon="-5.6341557205"><ele>38.59</ele><time>2012-08-10T09:00:51Z</time></trkpt><trkpt lat="57.3347986490" lon="-5.6341280602"><ele>38.59</ele><time>2012-08-10T09:00:52Z</time></trkpt><trkpt lat="57.3347792029" lon="-5.6341106258"><ele>38.59</ele><time>2012-08-10T09:00:53Z</time></trkpt><trkpt lat="57.3348032590" lon="-5.6341050938"><ele>38.11</ele><time>2012-08-10T09:01:05Z</time></trkpt><trkpt lat="57.3346409854" lon="-5.6340971310"><ele>38.11</ele><time>2012-08-10T09:01:14Z</time></trkpt><trkpt lat="57.3344278336" lon="-5.6342772581"><ele>39.55</ele><time>2012-08-10T09:01:20Z</time></trkpt><trkpt lat="57.3343835771" lon="-5.6343454868"><ele>40.03</ele><time>2012-08-10T09:01:21Z</time></trkpt><trkpt lat="57.3343434278" lon="-5.6344245281"><ele>40.03</ele><time>2012-08-10T09:01:22Z</time></trkpt><trkpt lat="57.3343035299" lon="-5.6345151365"><ele>40.03</ele><time>2012-08-10T09:01:23Z</time></trkpt><trkpt lat="57.3342748638" lon="-5.6346137915"><ele>40.99</ele><time>2012-08-10T09:01:24Z</time></trkpt><trkpt lat="57.3342569266" lon="-5.6347065791"><ele>40.51</ele><time>2012-08-10T09:01:25Z</time></trkpt><trkpt lat="57.3342460301" lon="-5.6347869616"><ele>40.99</ele><time>2012-08-10T09:01:26Z</time></trkpt><trkpt lat="57.3342230637" lon="-5.6349974312"><ele>41.95</ele><time>2012-08-10T09:01:30Z</time></trkpt><trkpt lat="57.3342079762" lon="-5.6350286957"><ele>41.47</ele><time>2012-08-10T09:01:31Z</time></trkpt><trkpt lat="57.3341850936" lon="-5.6350562721"><ele>41.95</ele><time>2012-08-10T09:01:32Z</time></trkpt><trkpt lat="57.3341577686" lon="-5.6350708567"><ele>42.44</ele><time>2012-08-10T09:01:33Z</time></trkpt><trkpt lat="57.3341299407" lon="-5.6350552663"><ele>42.44</ele><time>2012-08-10T09:01:34Z</time></trkpt><trkpt lat="57.3341108300" lon="-5.6350046396"><ele>42.44</ele><time>2012-08-10T09:01:35Z</time></trkpt><trkpt lat="57.3341007717" lon="-5.6349157915"><ele>42.92</ele><time>2012-08-10T09:01:36Z</time></trkpt><trkpt lat="57.3340997659" lon="-5.6348003726"><ele>43.40</ele><time>2012-08-10T09:01:37Z</time></trkpt><trkpt lat="57.3341096565" lon="-5.6346733868"><ele>44.36</ele><time>2012-08-10T09:01:38Z</time></trkpt><trkpt lat="57.3341282643" lon="-5.6345466524"><ele>45.32</ele><time>2012-08-10T09:01:39Z</time></trkpt><trkpt lat="57.3341493867" lon="-5.6344253663"><ele>45.32</ele><time>2012-08-10T09:01:40Z</time></trkpt><trkpt lat="57.3341855127" lon="-5.6341764238"><ele>46.76</ele><time>2012-08-10T09:01:42Z</time></trkpt><trkpt lat="57.3341938108" lon="-5.6340320036"><ele>48.20</ele><time>2012-08-10T09:01:43Z</time></trkpt><trkpt lat="57.3341879435" lon="-5.6338827219"><ele>48.68</ele><time>2012-08-10T09:01:44Z</time></trkpt><trkpt lat="57.3341721017" lon="-5.6337300036"><ele>48.68</ele><time>2012-08-10T09:01:45Z</time></trkpt><trkpt lat="57.3341451958" lon="-5.6332937256"><ele>50.61</ele><time>2012-08-10T09:01:48Z</time></trkpt><trkpt lat="57.3341566790" lon="-5.6331490539"><ele>51.57</ele><time>2012-08-10T09:01:49Z</time></trkpt><trkpt lat="57.3341789749" lon="-5.6330099981"><ele>52.05</ele><time>2012-08-10T09:01:50Z</time></trkpt><trkpt lat="57.3342075571" lon="-5.6328703556"><ele>53.49</ele><time>2012-08-10T09:01:51Z</time></trkpt><trkpt lat="57.3342417553" lon="-5.6327300426"><ele>53.49</ele><time>2012-08-10T09:01:52Z</time></trkpt><trkpt lat="57.3343062121" lon="-5.6324759871"><ele>54.45</ele><time>2012-08-10T09:01:54Z</time></trkpt><trkpt lat="57.3343283404" lon="-5.6323733088"><ele>54.45</ele><time>2012-08-10T09:01:55Z</time></trkpt><trkpt lat="57.3343570065" lon="-5.6322920881"><ele>54.45</ele><time>2012-08-10T09:01:56Z</time></trkpt><trkpt lat="57.3343944736" lon="-5.6322168186"><ele>54.93</ele><time>2012-08-10T09:01:57Z</time></trkpt><trkpt lat="57.3344443459" lon="-5.6321381126"><ele>54.45</ele><time>2012-08-10T09:01:58Z</time></trkpt><trkpt lat="57.3345082998" lon="-5.6320458278"><ele>55.41</ele><time>2012-08-10T09:01:59Z</time></trkpt><trkpt lat="57.3347496986" lon="-5.6316363718"><ele>56.86</ele><time>2012-08-10T09:02:02Z</time></trkpt><trkpt lat="57.3355016392" lon="-5.6297686324"><ele>57.82</ele><time>2012-08-10T09:02:12Z</time></trkpt><trkpt lat="57.3358219117" lon="-5.6286272686"><ele>60.70</ele><time>2012-08-10T09:02:17Z</time></trkpt><trkpt lat="57.3359653261" lon="-5.6279153097"><ele>62.62</ele><time>2012-08-10T09:02:20Z</time></trkpt><trkpt lat="57.3361787293" lon="-5.6262193993"><ele>62.14</ele><time>2012-08-10T09:02:27Z</time></trkpt><trkpt lat="57.3361092433" lon="-5.6242317986"><ele>59.26</ele><time>2012-08-10T09:02:35Z</time></trkpt><trkpt lat="57.3360504024" lon="-5.6234884076"><ele>57.34</ele><time>2012-08-10T09:02:38Z</time></trkpt><trkpt lat="57.3360294476" lon="-5.6230118964"><ele>55.41</ele><time>2012-08-10T09:02:40Z</time></trkpt><trkpt lat="57.3360269330" lon="-5.6225720979"><ele>53.97</ele><time>2012-08-10T09:02:42Z</time></trkpt><trkpt lat="57.3360083252" lon="-5.6223804038"><ele>52.53</ele><time>2012-08-10T09:02:43Z</time></trkpt><trkpt lat="57.3359912261" lon="-5.6222009473"><ele>52.05</ele><time>2012-08-10T09:02:44Z</time></trkpt><trkpt lat="57.3359588720" lon="-5.6220306270"><ele>51.57</ele><time>2012-08-10T09:02:45Z</time></trkpt><trkpt lat="57.3359216563" lon="-5.6218587141"><ele>51.09</ele><time>2012-08-10T09:02:46Z</time></trkpt><trkpt lat="57.3358986061" lon="-5.6216880586"><ele>50.61</ele><time>2012-08-10T09:02:47Z</time></trkpt><trkpt lat="57.3358775675" lon="-5.6213817839"><ele>49.16</ele><time>2012-08-10T09:02:49Z</time></trkpt><trkpt lat="57.3359192256" lon="-5.6207144167"><ele>47.24</ele><time>2012-08-10T09:02:53Z</time></trkpt><trkpt lat="57.3359673377" lon="-5.6205261592"><ele>45.80</ele><time>2012-08-10T09:02:54Z</time></trkpt><trkpt lat="57.3362652306" lon="-5.6198301259"><ele>42.92</ele><time>2012-08-10T09:02:57Z</time></trkpt><trkpt lat="57.3363395780" lon="-5.6196128670"><ele>41.95</ele><time>2012-08-10T09:02:58Z</time></trkpt><trkpt lat="57.3363991734" lon="-5.6194012240"><ele>41.47</ele><time>2012-08-10T09:02:59Z</time></trkpt><trkpt lat="57.3364316951" lon="-5.6192035787"><ele>40.99</ele><time>2012-08-10T09:03:00Z</time></trkpt><trkpt lat="57.3364606965" lon="-5.6190098729"><ele>40.51</ele><time>2012-08-10T09:03:01Z</time></trkpt><trkpt lat="57.3364785500" lon="-5.6188309193"><ele>40.51</ele><time>2012-08-10T09:03:02Z</time></trkpt><trkpt lat="57.3364833277" lon="-5.6186633650"><ele>40.03</ele><time>2012-08-10T09:03:03Z</time></trkpt><trkpt lat="57.3364700004" lon="-5.6185017619"><ele>39.55</ele><time>2012-08-10T09:03:04Z</time></trkpt><trkpt lat="57.3364388198" lon="-5.6183429249"><ele>40.03</ele><time>2012-08-10T09:03:05Z</time></trkpt><trkpt lat="57.3363921326" lon="-5.6181842554"><ele>40.03</ele><time>2012-08-10T09:03:06Z</time></trkpt><trkpt lat="57.3363417573" lon="-5.6180345546"><ele>40.51</ele><time>2012-08-10T09:03:07Z</time></trkpt><trkpt lat="57.3362974171" lon="-5.6179023720"><ele>40.99</ele><time>2012-08-10T09:03:08Z</time></trkpt><trkpt lat="57.3362784740" lon="-5.6177716982"><ele>40.99</ele><time>2012-08-10T09:03:09Z</time></trkpt><trkpt lat="57.3362732772" lon="-5.6176425330"><ele>40.99</ele><time>2012-08-10T09:03:10Z</time></trkpt><trkpt lat="57.3362941481" lon="-5.6175243482"><ele>40.99</ele><time>2012-08-10T09:03:11Z</time></trkpt><trkpt lat="57.3363342136" lon="-5.6174319796"><ele>41.47</ele><time>2012-08-10T09:03:12Z</time></trkpt><trkpt lat="57.3363951501" lon="-5.6173706241"><ele>41.95</ele><time>2012-08-10T09:03:13Z</time></trkpt><trkpt lat="57.3364725988" lon="-5.6173301395"><ele>42.44</ele><time>2012-08-10T09:03:14Z</time></trkpt><trkpt lat="57.3365625367" lon="-5.6172976177"><ele>43.40</ele><time>2012-08-10T09:03:15Z</time></trkpt><trkpt lat="57.3366591800" lon="-5.6172633357"><ele>43.40</ele><time>2012-08-10T09:03:16Z</time></trkpt><trkpt lat="57.3367523868" lon="-5.6172215100"><ele>42.44</ele><time>2012-08-10T09:03:17Z</time></trkpt><trkpt lat="57.3368191067" lon="-5.6171433907"><ele>41.95</ele><time>2012-08-10T09:03:18Z</time></trkpt><trkpt lat="57.3368858267" lon="-5.6170432270"><ele>41.95</ele><time>2012-08-10T09:03:19Z</time></trkpt><trkpt lat="57.3369375430" lon="-5.6169117987"><ele>41.95</ele><time>2012-08-10T09:03:20Z</time></trkpt><trkpt lat="57.3369872477" lon="-5.6167567335"><ele>41.95</ele><time>2012-08-10T09:03:21Z</time></trkpt><trkpt lat="57.3370330967" lon="-5.6165878382"><ele>41.95</ele><time>2012-08-10T09:03:22Z</time></trkpt><trkpt lat="57.3374837916" lon="-5.6152162235"><ele>40.99</ele><time>2012-08-10T09:03:30Z</time></trkpt><trkpt lat="57.3378155474" lon="-5.6147232838"><ele>40.51</ele><time>2012-08-10T09:03:34Z</time></trkpt><trkpt lat="57.3385140114" lon="-5.6131178979"><ele>42.44</ele><time>2012-08-10T09:03:42Z</time></trkpt><trkpt lat="57.3390610144" lon="-5.6114923116"><ele>44.36</ele><time>2012-08-10T09:03:50Z</time></trkpt><trkpt lat="57.3391073663" lon="-5.6112840213"><ele>45.32</ele><time>2012-08-10T09:03:51Z</time></trkpt><trkpt lat="57.3391447496" lon="-5.6110556982"><ele>45.32</ele><time>2012-08-10T09:03:52Z</time></trkpt><trkpt lat="57.3392729927" lon="-5.6100517139"><ele>46.76</ele><time>2012-08-10T09:03:57Z</time></trkpt><trkpt lat="57.3393085320" lon="-5.6099123228"><ele>46.76</ele><time>2012-08-10T09:03:58Z</time></trkpt><trkpt lat="57.3393525369" lon="-5.6097897794"><ele>46.76</ele><time>2012-08-10T09:03:59Z</time></trkpt><trkpt lat="57.3394007329" lon="-5.6096896995"><ele>47.72</ele><time>2012-08-10T09:04:00Z</time></trkpt><trkpt lat="57.3394600768" lon="-5.6096067186"><ele>47.72</ele><time>2012-08-10T09:04:01Z</time></trkpt><trkpt lat="57.3395234440" lon="-5.6095055491"><ele>48.20</ele><time>2012-08-10T09:04:02Z</time></trkpt><trkpt lat="57.3395837098" lon="-5.6093866099"><ele>48.68</ele><time>2012-08-10T09:04:03Z</time></trkpt><trkpt lat="57.3396358453" lon="-5.6092401780"><ele>49.65</ele><time>2012-08-10T09:04:04Z</time></trkpt><trkpt lat="57.3396701273" lon="-5.6090394314"><ele>50.61</ele><time>2012-08-10T09:04:05Z</time></trkpt><trkpt lat="57.3397579696" lon="-5.6080823019"><ele>53.49</ele><time>2012-08-10T09:04:09Z</time></trkpt><trkpt lat="57.3399273679" lon="-5.6061615888"><ele>52.53</ele><time>2012-08-10T09:04:17Z</time></trkpt><trkpt lat="57.3399784975" lon="-5.6059643626"><ele>53.01</ele><time>2012-08-10T09:04:18Z</time></trkpt><trkpt lat="57.3400413617" lon="-5.6057828106"><ele>52.05</ele><time>2012-08-10T09:04:19Z</time></trkpt><trkpt lat="57.3401085846" lon="-5.6056292541"><ele>51.57</ele><time>2012-08-10T09:04:20Z</time></trkpt><trkpt lat="57.3401851114" lon="-5.6054878514"><ele>51.57</ele><time>2012-08-10T09:04:21Z</time></trkpt><trkpt lat="57.3402708583" lon="-5.6053430960"><ele>51.09</ele><time>2012-08-10T09:04:22Z</time></trkpt><trkpt lat="57.3409156781" lon="-5.6039501075"><ele>50.61</ele><time>2012-08-10T09:04:29Z</time></trkpt><trkpt lat="57.3414234538" lon="-5.6020569708"><ele>50.61</ele><time>2012-08-10T09:04:37Z</time></trkpt><trkpt lat="57.3418283835" lon="-5.6010215543"><ele>52.05</ele><time>2012-08-10T09:04:43Z</time></trkpt><trkpt lat="57.3419125378" lon="-5.6008917186"><ele>52.53</ele><time>2012-08-10T09:04:44Z</time></trkpt><trkpt lat="57.3422647454" lon="-5.6005065702"><ele>54.93</ele><time>2012-08-10T09:04:48Z</time></trkpt><trkpt lat="57.3423174676" lon="-5.6004202366"><ele>54.45</ele><time>2012-08-10T09:04:49Z</time></trkpt><trkpt lat="57.3425732832" lon="-5.5997775961"><ele>57.82</ele><time>2012-08-10T09:04:54Z</time></trkpt><trkpt lat="57.3426043801" lon="-5.5995776877"><ele>58.30</ele><time>2012-08-10T09:04:55Z</time></trkpt><trkpt lat="57.3428395763" lon="-5.5976724811"><ele>59.26</ele><time>2012-08-10T09:05:03Z</time></trkpt><trkpt lat="57.3429190367" lon="-5.5966363102"><ele>59.26</ele><time>2012-08-10T09:05:07Z</time></trkpt><trkpt lat="57.3429189529" lon="-5.5963753816"><ele>60.22</ele><time>2012-08-10T09:05:08Z</time></trkpt><trkpt lat="57.3429124989" lon="-5.5961090885"><ele>60.22</ele><time>2012-08-10T09:05:09Z</time></trkpt><trkpt lat="57.3428763729" lon="-5.5951111391"><ele>63.10</ele><time>2012-08-10T09:05:13Z</time></trkpt><trkpt lat="57.3428755347" lon="-5.5938110221"><ele>59.74</ele><time>2012-08-10T09:05:19Z</time></trkpt><trkpt lat="57.3428891972" lon="-5.5936093535"><ele>59.26</ele><time>2012-08-10T09:05:20Z</time></trkpt><trkpt lat="57.3429124150" lon="-5.5934087746"><ele>58.78</ele><time>2012-08-10T09:05:21Z</time></trkpt><trkpt lat="57.3429757822" lon="-5.5930188484"><ele>56.86</ele><time>2012-08-10T09:05:23Z</time></trkpt><trkpt lat="57.3430599365" lon="-5.5926593486"><ele>54.93</ele><time>2012-08-10T09:05:25Z</time></trkpt><trkpt lat="57.3431144189" lon="-5.5925003439"><ele>53.97</ele><time>2012-08-10T09:05:26Z</time></trkpt><trkpt lat="57.3431863356" lon="-5.5923581030"><ele>53.49</ele><time>2012-08-10T09:05:27Z</time></trkpt><trkpt lat="57.3435696401" lon="-5.5915842019"><ele>49.65</ele><time>2012-08-10T09:05:32Z</time></trkpt><trkpt lat="57.3436272237" lon="-5.5914009735"><ele>49.16</ele><time>2012-08-10T09:05:33Z</time></trkpt><trkpt lat="57.3436746653" lon="-5.5912160687"><ele>48.20</ele><time>2012-08-10T09:05:34Z</time></trkpt><trkpt lat="57.3437098693" lon="-5.5910402164"><ele>47.24</ele><time>2012-08-10T09:05:35Z</time></trkpt><trkpt lat="57.3437334225" lon="-5.5908636097"><ele>46.28</ele><time>2012-08-10T09:05:36Z</time></trkpt><trkpt lat="57.3437449057" lon="-5.5906835664"><ele>45.80</ele><time>2012-08-10T09:05:37Z</time></trkpt><trkpt lat="57.3437420558" lon="-5.5905034393"><ele>44.84</ele><time>2012-08-10T09:05:38Z</time></trkpt><trkpt lat="57.3437296506" lon="-5.5903284252"><ele>44.36</ele><time>2012-08-10T09:05:39Z</time></trkpt><trkpt lat="57.3437236156" lon="-5.5901477952"><ele>43.40</ele><time>2012-08-10T09:05:40Z</time></trkpt><trkpt lat="57.3437283095" lon="-5.5899594538"><ele>42.92</ele><time>2012-08-10T09:05:41Z</time></trkpt><trkpt lat="57.3437336739" lon="-5.5897585396"><ele>42.44</ele><time>2012-08-10T09:05:42Z</time></trkpt><trkpt lat="57.3437325004" lon="-5.5895460583"><ele>41.95</ele><time>2012-08-10T09:05:43Z</time></trkpt><trkpt lat="57.3437290639" lon="-5.5893273745"><ele>41.47</ele><time>2012-08-10T09:05:44Z</time></trkpt><trkpt lat="57.3437175807" lon="-5.5886846501"><ele>38.11</ele><time>2012-08-10T09:05:47Z</time></trkpt><trkpt lat="57.3436713126" lon="-5.5882417504"><ele>37.15</ele><time>2012-08-10T09:05:49Z</time></trkpt><trkpt lat="57.3433921952" lon="-5.5866932776"><ele>33.78</ele><time>2012-08-10T09:05:55Z</time></trkpt><trkpt lat="57.3431979027" lon="-5.5857658200"><ele>31.86</ele><time>2012-08-10T09:05:59Z</time></trkpt><trkpt lat="57.3424620554" lon="-5.5833834317"><ele>29.46</ele><time>2012-08-10T09:06:10Z</time></trkpt><trkpt lat="57.3418112006" lon="-5.5816648901"><ele>26.09</ele><time>2012-08-10T09:06:19Z</time></trkpt><trkpt lat="57.3417407926" lon="-5.5814955756"><ele>26.57</ele><time>2012-08-10T09:06:20Z</time></trkpt><trkpt lat="57.3416598234" lon="-5.5813297816"><ele>26.09</ele><time>2012-08-10T09:06:21Z</time></trkpt><trkpt lat="57.3407626245" lon="-5.5792160332"><ele>24.17</ele><time>2012-08-10T09:06:32Z</time></trkpt><trkpt lat="57.3406420927" lon="-5.5787999555"><ele>24.17</ele><time>2012-08-10T09:06:34Z</time></trkpt><trkpt lat="57.3404944874" lon="-5.5781497713"><ele>23.69</ele><time>2012-08-10T09:06:37Z</time></trkpt><trkpt lat="57.3403906357" lon="-5.5777913611"><ele>23.69</ele><time>2012-08-10T09:06:39Z</time></trkpt><trkpt lat="57.3403626401" lon="-5.5776114017"><ele>23.21</ele><time>2012-08-10T09:06:40Z</time></trkpt><trkpt lat="57.3403555155" lon="-5.5774285924"><ele>23.69</ele><time>2012-08-10T09:06:41Z</time></trkpt><trkpt lat="57.3403496481" lon="-5.5772383232"><ele>23.69</ele><time>2012-08-10T09:06:42Z</time></trkpt><trkpt lat="57.3403325491" lon="-5.5770517420"><ele>24.17</ele><time>2012-08-10T09:06:43Z</time></trkpt><trkpt lat="57.3402936570" lon="-5.5768722855"><ele>24.17</ele><time>2012-08-10T09:06:44Z</time></trkpt><trkpt lat="57.3402424436" lon="-5.5767095927"><ele>24.17</ele><time>2012-08-10T09:06:45Z</time></trkpt><trkpt lat="57.3401938286" lon="-5.5765684415"><ele>23.69</ele><time>2012-08-10T09:06:46Z</time></trkpt><trkpt lat="57.3401662521" lon="-5.5764367618"><ele>23.21</ele><time>2012-08-10T09:06:47Z</time></trkpt><trkpt lat="57.3401658330" lon="-5.5763072614"><ele>23.69</ele><time>2012-08-10T09:06:48Z</time></trkpt><trkpt lat="57.3402010370" lon="-5.5761847179"><ele>23.69</ele><time>2012-08-10T09:06:49Z</time></trkpt><trkpt lat="57.3402655777" lon="-5.5760604981"><ele>24.17</ele><time>2012-08-10T09:06:50Z</time></trkpt><trkpt lat="57.3403505702" lon="-5.5759304948"><ele>24.65</ele><time>2012-08-10T09:06:51Z</time></trkpt><trkpt lat="57.3406130075" lon="-5.5754709151"><ele>28.02</ele><time>2012-08-10T09:06:54Z</time></trkpt><trkpt lat="57.3406804819" lon="-5.5753072165"><ele>28.98</ele><time>2012-08-10T09:06:55Z</time></trkpt><trkpt lat="57.3407328688" lon="-5.5751266703"><ele>29.46</ele><time>2012-08-10T09:06:56Z</time></trkpt><trkpt lat="57.3409004230" lon="-5.5743645038"><ele>32.34</ele><time>2012-08-10T09:07:00Z</time></trkpt><trkpt lat="57.3409233056" lon="-5.5741828680"><ele>32.82</ele><time>2012-08-10T09:07:01Z</time></trkpt><trkpt lat="57.3409342859" lon="-5.5739961192"><ele>34.26</ele><time>2012-08-10T09:07:02Z</time></trkpt><trkpt lat="57.3409374710" lon="-5.5738028325"><ele>34.26</ele><time>2012-08-10T09:07:03Z</time></trkpt><trkpt lat="57.3409278318" lon="-5.5730624590"><ele>34.74</ele><time>2012-08-10T09:07:07Z</time></trkpt><trkpt lat="57.3409079667" lon="-5.5728835892"><ele>35.23</ele><time>2012-08-10T09:07:08Z</time></trkpt><trkpt lat="57.3408792168" lon="-5.5727063958"><ele>35.23</ele><time>2012-08-10T09:07:09Z</time></trkpt><trkpt lat="57.3408358824" lon="-5.5725332256"><ele>35.23</ele><time>2012-08-10T09:07:10Z</time></trkpt><trkpt lat="57.3407762870" lon="-5.5723670125"><ele>34.74</ele><time>2012-08-10T09:07:11Z</time></trkpt><trkpt lat="57.3407027777" lon="-5.5722079240"><ele>35.23</ele><time>2012-08-10T09:07:12Z</time></trkpt><trkpt lat="57.3406202160" lon="-5.5720578879"><ele>34.74</ele><time>2012-08-10T09:07:13Z</time></trkpt><trkpt lat="57.3405321222" lon="-5.5719137192"><ele>34.74</ele><time>2012-08-10T09:07:14Z</time></trkpt><trkpt lat="57.3392836377" lon="-5.5700130388"><ele>31.38</ele><time>2012-08-10T09:07:27Z</time></trkpt><trkpt lat="57.3392082006" lon="-5.5699401163"><ele>30.90</ele><time>2012-08-10T09:07:28Z</time></trkpt><trkpt lat="57.3391400557" lon="-5.5698905792"><ele>30.90</ele><time>2012-08-10T09:07:29Z</time></trkpt><trkpt lat="57.3390341084" lon="-5.5698223505"><ele>29.46</ele><time>2012-08-10T09:07:35Z</time></trkpt><trkpt lat="57.3390320130" lon="-5.5698241107"><ele>26.09</ele><time>2012-08-10T09:07:43Z</time></trkpt><trkpt lat="57.3390339408" lon="-5.5698224343"><ele>31.86</ele><time>2012-08-10T09:07:44Z</time></trkpt><trkpt lat="57.3390427418" lon="-5.5698215123"><ele>29.94</ele><time>2012-08-10T09:08:18Z</time></trkpt><trkpt lat="57.3390477709" lon="-5.5698397849"><ele>30.42</ele><time>2012-08-10T09:08:52Z</time></trkpt><trkpt lat="57.3390446696" lon="-5.5698512681"><ele>30.42</ele><time>2012-08-10T09:09:29Z</time></trkpt><trkpt lat="57.3390414845" lon="-5.5698169861"><ele>29.94</ele><time>2012-08-10T09:09:54Z</time></trkpt><trkpt lat="57.3390307557" lon="-5.5697885714"><ele>30.42</ele><time>2012-08-10T09:09:55Z</time></trkpt><trkpt lat="57.3389873374" lon="-5.5696578976"><ele>30.90</ele><time>2012-08-10T09:09:57Z</time></trkpt><trkpt lat="57.3389402311" lon="-5.5695548002"><ele>30.90</ele><time>2012-08-10T09:09:58Z</time></trkpt><trkpt lat="57.3384645581" lon="-5.5683667492"><ele>32.82</ele><time>2012-08-10T09:10:05Z</time></trkpt><trkpt lat="57.3381572776" lon="-5.5669845734"><ele>31.86</ele><time>2012-08-10T09:10:11Z</time></trkpt><trkpt lat="57.3381328862" lon="-5.5667861737"><ele>30.90</ele><time>2012-08-10T09:10:12Z</time></trkpt><trkpt lat="57.3381232470" lon="-5.5665897019"><ele>30.42</ele><time>2012-08-10T09:10:13Z</time></trkpt><trkpt lat="57.3381257616" lon="-5.5663852673"><ele>29.46</ele><time>2012-08-10T09:10:14Z</time></trkpt><trkpt lat="57.3381400947" lon="-5.5661772285"><ele>29.46</ele><time>2012-08-10T09:10:15Z</time></trkpt><trkpt lat="57.3381678388" lon="-5.5659687705"><ele>28.98</ele><time>2012-08-10T09:10:16Z</time></trkpt><trkpt lat="57.3382115085" lon="-5.5657659285"><ele>28.50</ele><time>2012-08-10T09:10:17Z</time></trkpt><trkpt lat="57.3382690921" lon="-5.5655757431"><ele>27.53</ele><time>2012-08-10T09:10:18Z</time></trkpt><trkpt lat="57.3383417632" lon="-5.5654041655"><ele>27.05</ele><time>2012-08-10T09:10:19Z</time></trkpt><trkpt lat="57.3384235706" lon="-5.5652537104"><ele>26.09</ele><time>2012-08-10T09:10:20Z</time></trkpt><trkpt lat="57.3385097366" lon="-5.5651214439"><ele>25.61</ele><time>2012-08-10T09:10:21Z</time></trkpt><trkpt lat="57.3385992553" lon="-5.5650027562"><ele>24.17</ele><time>2012-08-10T09:10:22Z</time></trkpt><trkpt lat="57.3386896960" lon="-5.5648921151"><ele>24.17</ele><time>2012-08-10T09:10:23Z</time></trkpt><trkpt lat="57.3387843277" lon="-5.5647985730"><ele>23.69</ele><time>2012-08-10T09:10:24Z</time></trkpt><trkpt lat="57.3388811387" lon="-5.5647208728"><ele>23.21</ele><time>2012-08-10T09:10:25Z</time></trkpt><trkpt lat="57.3389827274" lon="-5.5646549072"><ele>23.21</ele><time>2012-08-10T09:10:26Z</time></trkpt><trkpt lat="57.3392045125" lon="-5.5645705853"><ele>24.17</ele><time>2012-08-10T09:10:28Z</time></trkpt><trkpt lat="57.3393226974" lon="-5.5645667296"><ele>24.65</ele><time>2012-08-10T09:10:29Z</time></trkpt><trkpt lat="57.3398124520" lon="-5.5646098964"><ele>27.05</ele><time>2012-08-10T09:10:33Z</time></trkpt><trkpt lat="57.3406012729" lon="-5.5647088867"><ele>30.90</ele><time>2012-08-10T09:10:40Z</time></trkpt><trkpt lat="57.3410715815" lon="-5.5647485331"><ele>33.30</ele><time>2012-08-10T09:10:44Z</time></trkpt><trkpt lat="57.3413008265" lon="-5.5647663027"><ele>34.26</ele><time>2012-08-10T09:10:46Z</time></trkpt><trkpt lat="57.3422048148" lon="-5.5646741856"><ele>37.15</ele><time>2012-08-10T09:10:54Z</time></trkpt><trkpt lat="57.3425370734" lon="-5.5645110738"><ele>38.11</ele><time>2012-08-10T09:10:57Z</time></trkpt><trkpt lat="57.3426424339" lon="-5.5644257460"><ele>39.07</ele><time>2012-08-10T09:10:58Z</time></trkpt><trkpt lat="57.3427484650" lon="-5.5643203016"><ele>39.55</ele><time>2012-08-10T09:10:59Z</time></trkpt><trkpt lat="57.3428532388" lon="-5.5641917232"><ele>40.03</ele><time>2012-08-10T09:11:00Z</time></trkpt><trkpt lat="57.3429552466" lon="-5.5640409328"><ele>40.51</ele><time>2012-08-10T09:11:01Z</time></trkpt><trkpt lat="57.3430560809" lon="-5.5638711993"><ele>41.47</ele><time>2012-08-10T09:11:02Z</time></trkpt><trkpt lat="57.3431593459" lon="-5.5636904016"><ele>42.92</ele><time>2012-08-10T09:11:03Z</time></trkpt><trkpt lat="57.3433644511" lon="-5.5633240286"><ele>45.80</ele><time>2012-08-10T09:11:05Z</time></trkpt><trkpt lat="57.3435395490" lon="-5.5630035046"><ele>47.72</ele><time>2012-08-10T09:11:07Z</time></trkpt><trkpt lat="57.3436962068" lon="-5.5627755169"><ele>48.68</ele><time>2012-08-10T09:11:09Z</time></trkpt><trkpt lat="57.3437868152" lon="-5.5627126526"><ele>49.65</ele><time>2012-08-10T09:11:10Z</time></trkpt><trkpt lat="57.3438943550" lon="-5.5626700725"><ele>51.09</ele><time>2012-08-10T09:11:11Z</time></trkpt><trkpt lat="57.3443779070" lon="-5.5625585932"><ele>54.45</ele><time>2012-08-10T09:11:15Z</time></trkpt><trkpt lat="57.3445111793" lon="-5.5625645444"><ele>55.89</ele><time>2012-08-10T09:11:16Z</time></trkpt><trkpt lat="57.3449159414" lon="-5.5626056995"><ele>57.34</ele><time>2012-08-10T09:11:19Z</time></trkpt><trkpt lat="57.3450477049" lon="-5.5625590123"><ele>58.30</ele><time>2012-08-10T09:11:20Z</time></trkpt><trkpt lat="57.3451754451" lon="-5.5624597706"><ele>58.78</ele><time>2012-08-10T09:11:21Z</time></trkpt><trkpt lat="57.3452958092" lon="-5.5623039510"><ele>60.70</ele><time>2012-08-10T09:11:22Z</time></trkpt><trkpt lat="57.3454056121" lon="-5.5621190462"><ele>62.14</ele><time>2012-08-10T09:11:23Z</time></trkpt><trkpt lat="57.3455064464" lon="-5.5619393382"><ele>62.62</ele><time>2012-08-10T09:11:24Z</time></trkpt><trkpt lat="57.3458672035" lon="-5.5612812750"><ele>66.47</ele><time>2012-08-10T09:11:28Z</time></trkpt><trkpt lat="57.3459330853" lon="-5.5611100327"><ele>66.47</ele><time>2012-08-10T09:11:29Z</time></trkpt><trkpt lat="57.3459671997" lon="-5.5609312467"><ele>66.95</ele><time>2012-08-10T09:11:30Z</time></trkpt><trkpt lat="57.3459675349" lon="-5.5607662071"><ele>66.95</ele><time>2012-08-10T09:11:31Z</time></trkpt><trkpt lat="57.3459455743" lon="-5.5606409814"><ele>66.47</ele><time>2012-08-10T09:11:32Z</time></trkpt><trkpt lat="57.3459205125" lon="-5.5605597608"><ele>66.95</ele><time>2012-08-10T09:11:33Z</time></trkpt><trkpt lat="57.3459033296" lon="-5.5605066195"><ele>66.47</ele><time>2012-08-10T09:11:34Z</time></trkpt><trkpt lat="57.3458947800" lon="-5.5604688171"><ele>66.95</ele><time>2012-08-10T09:11:35Z</time></trkpt><trkpt lat="57.3458948638" lon="-5.5604274943"><ele>66.95</ele><time>2012-08-10T09:11:36Z</time></trkpt><trkpt lat="57.3459045868" lon="-5.5603608582"><ele>67.43</ele><time>2012-08-10T09:11:37Z</time></trkpt><trkpt lat="57.3459334206" lon="-5.5602585990"><ele>67.91</ele><time>2012-08-10T09:11:38Z</time></trkpt><trkpt lat="57.3459891602" lon="-5.5601410009"><ele>68.87</ele><time>2012-08-10T09:11:39Z</time></trkpt><trkpt lat="57.3460644297" lon="-5.5600138474"><ele>70.31</ele><time>2012-08-10T09:11:40Z</time></trkpt><trkpt lat="57.3463142943" lon="-5.5594843626"><ele>75.12</ele><time>2012-08-10T09:11:43Z</time></trkpt><trkpt lat="57.3465806711" lon="-5.5586874951"><ele>78.97</ele><time>2012-08-10T09:11:46Z</time></trkpt><trkpt lat="57.3467544280" lon="-5.5580153503"><ele>83.77</ele><time>2012-08-10T09:11:48Z</time></trkpt><trkpt lat="57.3469183780" lon="-5.5573098455"><ele>87.14</ele><time>2012-08-10T09:11:50Z</time></trkpt><trkpt lat="57.3470943980" lon="-5.5565628503"><ele>90.50</ele><time>2012-08-10T09:11:52Z</time></trkpt><trkpt lat="57.3472782969" lon="-5.5558694992"><ele>91.46</ele><time>2012-08-10T09:11:54Z</time></trkpt><trkpt lat="57.3476231284" lon="-5.5548824463"><ele>95.79</ele><time>2012-08-10T09:11:57Z</time></trkpt><trkpt lat="57.3480538744" lon="-5.5539447628"><ele>99.15</ele><time>2012-08-10T09:12:00Z</time></trkpt><trkpt lat="57.3483544495" lon="-5.5533495639"><ele>99.63</ele><time>2012-08-10T09:12:02Z</time></trkpt><trkpt lat="57.3487815913" lon="-5.5524599086"><ele>101.08</ele><time>2012-08-10T09:12:05Z</time></trkpt><trkpt lat="57.3491480481" lon="-5.5515037850"><ele>103.00</ele><time>2012-08-10T09:12:08Z</time></trkpt><trkpt lat="57.3494664766" lon="-5.5504013132"><ele>105.88</ele><time>2012-08-10T09:12:11Z</time></trkpt><trkpt lat="57.3496449273" lon="-5.5495862570"><ele>109.25</ele><time>2012-08-10T09:12:13Z</time></trkpt><trkpt lat="57.3497839831" lon="-5.5487596337"><ele>113.09</ele><time>2012-08-10T09:12:15Z</time></trkpt><trkpt lat="57.3498723283" lon="-5.5479656160"><ele>116.94</ele><time>2012-08-10T09:12:17Z</time></trkpt><trkpt lat="57.3499698099" lon="-5.5470142700"><ele>120.30</ele><time>2012-08-10T09:12:20Z</time></trkpt><trkpt lat="57.3501388729" lon="-5.5459553842"><ele>122.71</ele><time>2012-08-10T09:12:24Z</time></trkpt><trkpt lat="57.3504484165" lon="-5.5436325911"><ele>118.86</ele><time>2012-08-10T09:12:32Z</time></trkpt><trkpt lat="57.3504754063" lon="-5.5433291662"><ele>118.38</ele><time>2012-08-10T09:12:33Z</time></trkpt><trkpt lat="57.3504846264" lon="-5.5430248193"><ele>117.90</ele><time>2012-08-10T09:12:34Z</time></trkpt><trkpt lat="57.3504766636" lon="-5.5427166168"><ele>117.90</ele><time>2012-08-10T09:12:35Z</time></trkpt><trkpt lat="57.3504533619" lon="-5.5424084142"><ele>117.90</ele><time>2012-08-10T09:12:36Z</time></trkpt><trkpt lat="57.3504131287" lon="-5.5421040673"><ele>117.90</ele><time>2012-08-10T09:12:37Z</time></trkpt><trkpt lat="57.3503531143" lon="-5.5418184958"><ele>117.90</ele><time>2012-08-10T09:12:38Z</time></trkpt><trkpt lat="57.3502723128" lon="-5.5415542144"><ele>118.38</ele><time>2012-08-10T09:12:39Z</time></trkpt><trkpt lat="57.3501791898" lon="-5.5413062777"><ele>119.34</ele><time>2012-08-10T09:12:40Z</time></trkpt><trkpt lat="57.3500028346" lon="-5.5408031121"><ele>122.71</ele><time>2012-08-10T09:12:42Z</time></trkpt><trkpt lat="57.3498465959" lon="-5.5402561929"><ele>126.07</ele><time>2012-08-10T09:12:44Z</time></trkpt><trkpt lat="57.3497012537" lon="-5.5396614969"><ele>129.92</ele><time>2012-08-10T09:12:46Z</time></trkpt><trkpt lat="57.3495537322" lon="-5.5390490312"><ele>133.28</ele><time>2012-08-10T09:12:48Z</time></trkpt><trkpt lat="57.3494516406" lon="-5.5387699138"><ele>135.20</ele><time>2012-08-10T09:12:49Z</time></trkpt><trkpt lat="57.3493294325" lon="-5.5385336280"><ele>136.64</ele><time>2012-08-10T09:12:50Z</time></trkpt><trkpt lat="57.3491869401" lon="-5.5383518245"><ele>138.09</ele><time>2012-08-10T09:12:51Z</time></trkpt><trkpt lat="57.3490350600" lon="-5.5382080749"><ele>139.05</ele><time>2012-08-10T09:12:52Z</time></trkpt><trkpt lat="57.3488916457" lon="-5.5380610563"><ele>140.49</ele><time>2012-08-10T09:12:53Z</time></trkpt><trkpt lat="57.3487659171" lon="-5.5378872156"><ele>141.45</ele><time>2012-08-10T09:12:54Z</time></trkpt><trkpt lat="57.3486679327" lon="-5.5376811884"><ele>141.93</ele><time>2012-08-10T09:12:55Z</time></trkpt><trkpt lat="57.3486010451" lon="-5.5374547932"><ele>142.89</ele><time>2012-08-10T09:12:56Z</time></trkpt><trkpt lat="57.3485691100" lon="-5.5372143164"><ele>142.89</ele><time>2012-08-10T09:12:57Z</time></trkpt><trkpt lat="57.3485746421" lon="-5.5369719118"><ele>143.37</ele><time>2012-08-10T09:12:58Z</time></trkpt><trkpt lat="57.3486215807" lon="-5.5367347039"><ele>143.37</ele><time>2012-08-10T09:12:59Z</time></trkpt><trkpt lat="57.3486977722" lon="-5.5364964902"><ele>143.37</ele><time>2012-08-10T09:13:00Z</time></trkpt><trkpt lat="57.3487893865" lon="-5.5362373218"><ele>143.85</ele><time>2012-08-10T09:13:01Z</time></trkpt><trkpt lat="57.3492522351" lon="-5.5351485126"><ele>141.45</ele><time>2012-08-10T09:13:05Z</time></trkpt><trkpt lat="57.3494043667" lon="-5.5349495262"><ele>139.53</ele><time>2012-08-10T09:13:06Z</time></trkpt><trkpt lat="57.3497341946" lon="-5.5345782917"><ele>136.64</ele><time>2012-08-10T09:13:08Z</time></trkpt><trkpt lat="57.3498895112" lon="-5.5343417544"><ele>135.20</ele><time>2012-08-10T09:13:09Z</time></trkpt><trkpt lat="57.3500320874" lon="-5.5340712704"><ele>134.72</ele><time>2012-08-10T09:13:10Z</time></trkpt><trkpt lat="57.3501686286" lon="-5.5337845255"><ele>134.24</ele><time>2012-08-10T09:13:11Z</time></trkpt><trkpt lat="57.3505558725" lon="-5.5328689702"><ele>138.09</ele><time>2012-08-10T09:13:14Z</time></trkpt><trkpt lat="57.3507754784" lon="-5.5321828276"><ele>141.45</ele><time>2012-08-10T09:13:16Z</time></trkpt><trkpt lat="57.3509877920" lon="-5.5315515026"><ele>143.85</ele><time>2012-08-10T09:13:18Z</time></trkpt><trkpt lat="57.3511110898" lon="-5.5312909093"><ele>145.30</ele><time>2012-08-10T09:13:19Z</time></trkpt><trkpt lat="57.3516155966" lon="-5.5302832369"><ele>148.18</ele><time>2012-08-10T09:13:23Z</time></trkpt><trkpt lat="57.3517198674" lon="-5.5299700890"><ele>148.18</ele><time>2012-08-10T09:13:24Z</time></trkpt><trkpt lat="57.3520896770" lon="-5.5287257116"><ele>146.26</ele><time>2012-08-10T09:13:28Z</time></trkpt><trkpt lat="57.3522019945" lon="-5.5284496956"><ele>145.30</ele><time>2012-08-10T09:13:29Z</time></trkpt><trkpt lat="57.3524618335" lon="-5.5279079732"><ele>141.93</ele><time>2012-08-10T09:13:31Z</time></trkpt><trkpt lat="57.3528722953" lon="-5.5270415358"><ele>138.57</ele><time>2012-08-10T09:13:34Z</time></trkpt><trkpt lat="57.3531221598" lon="-5.5264066067"><ele>135.20</ele><time>2012-08-10T09:13:36Z</time></trkpt><trkpt lat="57.3533270136" lon="-5.5257284269"><ele>131.84</ele><time>2012-08-10T09:13:38Z</time></trkpt><trkpt lat="57.3535365611" lon="-5.5251432862"><ele>127.99</ele><time>2012-08-10T09:13:40Z</time></trkpt><trkpt lat="57.3536634631" lon="-5.5249062460"><ele>126.55</ele><time>2012-08-10T09:13:41Z</time></trkpt><trkpt lat="57.3538095597" lon="-5.5247075111"><ele>125.11</ele><time>2012-08-10T09:13:42Z</time></trkpt><trkpt lat="57.3539678100" lon="-5.5245471653"><ele>124.15</ele><time>2012-08-10T09:13:43Z</time></trkpt><trkpt lat="57.3541382980" lon="-5.5244268849"><ele>123.19</ele><time>2012-08-10T09:13:44Z</time></trkpt><trkpt lat="57.3543186765" lon="-5.5243345164"><ele>121.26</ele><time>2012-08-10T09:13:45Z</time></trkpt><trkpt lat="57.3546679504" lon="-5.5241224542"><ele>118.86</ele><time>2012-08-10T09:13:47Z</time></trkpt><trkpt lat="57.3548232671" lon="-5.5239705741"><ele>117.42</ele><time>2012-08-10T09:13:48Z</time></trkpt><trkpt lat="57.3549506720" lon="-5.5237704981"><ele>115.50</ele><time>2012-08-10T09:13:49Z</time></trkpt><trkpt lat="57.3550462257" lon="-5.5235323682"><ele>114.05</ele><time>2012-08-10T09:13:50Z</time></trkpt><trkpt lat="57.3551212437" lon="-5.5232641473"><ele>113.09</ele><time>2012-08-10T09:13:51Z</time></trkpt><trkpt lat="57.3551796656" lon="-5.5229634047"><ele>112.61</ele><time>2012-08-10T09:13:52Z</time></trkpt><trkpt lat="57.3552333936" lon="-5.5226499215"><ele>111.65</ele><time>2012-08-10T09:13:53Z</time></trkpt><trkpt lat="57.3552980181" lon="-5.5223513581"><ele>111.17</ele><time>2012-08-10T09:13:54Z</time></trkpt><trkpt lat="57.3553860281" lon="-5.5220942851"><ele>110.21</ele><time>2012-08-10T09:13:55Z</time></trkpt><trkpt lat="57.3559312709" lon="-5.5210029613"><ele>111.65</ele><time>2012-08-10T09:14:00Z</time></trkpt><trkpt lat="57.3560811393" lon="-5.5208338145"><ele>112.13</ele><time>2012-08-10T09:14:01Z</time></trkpt><trkpt lat="57.3567454889" lon="-5.5201516952"><ele>111.17</ele><time>2012-08-10T09:14:05Z</time></trkpt><trkpt lat="57.3569037393" lon="-5.5199127272"><ele>110.21</ele><time>2012-08-10T09:14:06Z</time></trkpt><trkpt lat="57.3570478242" lon="-5.5196595937"><ele>109.25</ele><time>2012-08-10T09:14:07Z</time></trkpt><trkpt lat="57.3571893945" lon="-5.5194339529"><ele>107.32</ele><time>2012-08-10T09:14:08Z</time></trkpt><trkpt lat="57.3573328089" lon="-5.5192614533"><ele>106.36</ele><time>2012-08-10T09:14:09Z</time></trkpt><trkpt lat="57.3574825097" lon="-5.5191363953"><ele>105.40</ele><time>2012-08-10T09:14:10Z</time></trkpt><trkpt lat="57.3576402571" lon="-5.5190258380"><ele>104.92</ele><time>2012-08-10T09:14:11Z</time></trkpt><trkpt lat="57.3577980883" lon="-5.5188823398"><ele>104.92</ele><time>2012-08-10T09:14:12Z</time></trkpt><trkpt lat="57.3579459451" lon="-5.5186958425"><ele>105.40</ele><time>2012-08-10T09:14:13Z</time></trkpt><trkpt lat="57.3580806423" lon="-5.5184701178"><ele>104.44</ele><time>2012-08-10T09:14:14Z</time></trkpt><trkpt lat="57.3583441693" lon="-5.5180011503"><ele>103.96</ele><time>2012-08-10T09:14:16Z</time></trkpt><trkpt lat="57.3584871646" lon="-5.5178214423"><ele>103.48</ele><time>2012-08-10T09:14:17Z</time></trkpt><trkpt lat="57.3587714788" lon="-5.5175215378"><ele>102.04</ele><time>2012-08-10T09:14:19Z</time></trkpt><trkpt lat="57.3588946927" lon="-5.5173466913"><ele>100.60</ele><time>2012-08-10T09:14:20Z</time></trkpt><trkpt lat="57.3591057491" lon="-5.5169622973"><ele>98.67</ele><time>2012-08-10T09:14:22Z</time></trkpt><trkpt lat="57.3593814299" lon="-5.5162805133"><ele>95.31</ele><time>2012-08-10T09:14:25Z</time></trkpt><trkpt lat="57.3594846111" lon="-5.5160456523"><ele>93.87</ele><time>2012-08-10T09:14:26Z</time></trkpt><trkpt lat="57.3596087471" lon="-5.5158413015"><ele>92.90</ele><time>2012-08-10T09:14:27Z</time></trkpt><trkpt lat="57.3600373976" lon="-5.5152642075"><ele>88.10</ele><time>2012-08-10T09:14:30Z</time></trkpt><trkpt lat="57.3603272438" lon="-5.5148215592"><ele>84.25</ele><time>2012-08-10T09:14:32Z</time></trkpt><trkpt lat="57.3604382202" lon="-5.5145467166"><ele>81.37</ele><time>2012-08-10T09:14:33Z</time></trkpt><trkpt lat="57.3605324328" lon="-5.5142544396"><ele>79.93</ele><time>2012-08-10T09:14:34Z</time></trkpt><trkpt lat="57.3606744222" lon="-5.5135967955"><ele>74.16</ele><time>2012-08-10T09:14:36Z</time></trkpt><trkpt lat="57.3607258033" lon="-5.5132302549"><ele>71.76</ele><time>2012-08-10T09:14:37Z</time></trkpt><trkpt lat="57.3607540503" lon="-5.5127964076"><ele>68.39</ele><time>2012-08-10T09:14:38Z</time></trkpt><trkpt lat="57.3608209379" lon="-5.5124212336"><ele>65.51</ele><time>2012-08-10T09:14:39Z</time></trkpt><trkpt lat="57.3609474208" lon="-5.5121551082"><ele>63.10</ele><time>2012-08-10T09:14:40Z</time></trkpt><trkpt lat="57.3610839620" lon="-5.5118915811"><ele>61.66</ele><time>2012-08-10T09:14:41Z</time></trkpt><trkpt lat="57.3612355907" lon="-5.5116334185"><ele>59.26</ele><time>2012-08-10T09:14:42Z</time></trkpt><trkpt lat="57.3615505826" lon="-5.5111089628"><ele>54.45</ele><time>2012-08-10T09:14:44Z</time></trkpt><trkpt lat="57.3618110083" lon="-5.5105156079"><ele>48.68</ele><time>2012-08-10T09:14:46Z</time></trkpt><trkpt lat="57.3619239964" lon="-5.5102381669"><ele>45.80</ele><time>2012-08-10T09:14:47Z</time></trkpt><trkpt lat="57.3620450310" lon="-5.5100196507"><ele>42.92</ele><time>2012-08-10T09:14:48Z</time></trkpt><trkpt lat="57.3621657304" lon="-5.5098320637"><ele>39.55</ele><time>2012-08-10T09:14:49Z</time></trkpt><trkpt lat="57.3622961529" lon="-5.5096905772"><ele>37.63</ele><time>2012-08-10T09:14:50Z</time></trkpt><trkpt lat="57.3625282478" lon="-5.5094793532"><ele>31.86</ele><time>2012-08-10T09:14:52Z</time></trkpt><trkpt lat="57.3627351969" lon="-5.5093309097"><ele>27.53</ele><time>2012-08-10T09:14:54Z</time></trkpt><trkpt lat="57.3630490154" lon="-5.5090836436"><ele>23.21</ele><time>2012-08-10T09:14:57Z</time></trkpt><trkpt lat="57.3631629255" lon="-5.5089608487"><ele>23.21</ele><time>2012-08-10T09:14:58Z</time></trkpt><trkpt lat="57.3637812585" lon="-5.5080844369"><ele>19.84</ele><time>2012-08-10T09:15:03Z</time></trkpt><trkpt lat="57.3650159966" lon="-5.5054780003"><ele>17.92</ele><time>2012-08-10T09:15:14Z</time></trkpt><trkpt lat="57.3659025505" lon="-5.5045063701"><ele>17.92</ele><time>2012-08-10T09:15:21Z</time></trkpt><trkpt lat="57.3669170123" lon="-5.5037876219"><ele>19.36</ele><time>2012-08-10T09:15:28Z</time></trkpt><trkpt lat="57.3673360236" lon="-5.5033755675"><ele>19.84</ele><time>2012-08-10T09:15:31Z</time></trkpt><trkpt lat="57.3674702179" lon="-5.5031873938"><ele>20.32</ele><time>2012-08-10T09:15:32Z</time></trkpt><trkpt lat="57.3683218192" lon="-5.5018677469"><ele>22.73</ele><time>2012-08-10T09:15:38Z</time></trkpt><trkpt lat="57.3688041139" lon="-5.5012415349"><ele>24.17</ele><time>2012-08-10T09:15:41Z</time></trkpt><trkpt lat="57.3701582104" lon="-5.5000894424"><ele>22.73</ele><time>2012-08-10T09:15:49Z</time></trkpt><trkpt lat="57.3716048431" lon="-5.4988469090"><ele>20.81</ele><time>2012-08-10T09:15:58Z</time></trkpt><trkpt lat="57.3718958627" lon="-5.4983941186"><ele>19.84</ele><time>2012-08-10T09:16:00Z</time></trkpt><trkpt lat="57.3736419808" lon="-5.4956985824"><ele>21.29</ele><time>2012-08-10T09:16:12Z</time></trkpt><trkpt lat="57.3745229188" lon="-5.4944381118"><ele>21.29</ele><time>2012-08-10T09:16:18Z</time></trkpt><trkpt lat="57.3746375833" lon="-5.4941761773"><ele>21.77</ele><time>2012-08-10T09:16:19Z</time></trkpt><trkpt lat="57.3747327179" lon="-5.4939073697"><ele>21.77</ele><time>2012-08-10T09:16:20Z</time></trkpt><trkpt lat="57.3748055566" lon="-5.4936522245"><ele>21.29</ele><time>2012-08-10T09:16:21Z</time></trkpt><trkpt lat="57.3748609610" lon="-5.4934040364"><ele>20.32</ele><time>2012-08-10T09:16:22Z</time></trkpt><trkpt lat="57.3749041278" lon="-5.4931504838"><ele>19.84</ele><time>2012-08-10T09:16:23Z</time></trkpt><trkpt lat="57.3749405053" lon="-5.4928924050"><ele>20.81</ele><time>2012-08-10T09:16:24Z</time></trkpt><trkpt lat="57.3752267472" lon="-5.4907779023"><ele>20.81</ele><time>2012-08-10T09:16:32Z</time></trkpt><trkpt lat="57.3753011785" lon="-5.4905232601"><ele>20.81</ele><time>2012-08-10T09:16:33Z</time></trkpt><trkpt lat="57.3758639395" lon="-5.4884458054"><ele>19.84</ele><time>2012-08-10T09:16:42Z</time></trkpt><trkpt lat="57.3765004613" lon="-5.4860392772"><ele>20.32</ele><time>2012-08-10T09:16:51Z</time></trkpt><trkpt lat="57.3773480393" lon="-5.4841268621"><ele>20.81</ele><time>2012-08-10T09:16:58Z</time></trkpt><trkpt lat="57.3778328486" lon="-5.4830823932"><ele>19.36</ele><time>2012-08-10T09:17:02Z</time></trkpt><trkpt lat="57.3779656179" lon="-5.4828813113"><ele>19.36</ele><time>2012-08-10T09:17:03Z</time></trkpt><trkpt lat="57.3790338915" lon="-5.4816344194"><ele>19.84</ele><time>2012-08-10T09:17:10Z</time></trkpt><trkpt lat="57.3791630566" lon="-5.4813943617"><ele>19.36</ele><time>2012-08-10T09:17:11Z</time></trkpt><trkpt lat="57.3792775534" lon="-5.4811294936"><ele>19.84</ele><time>2012-08-10T09:17:12Z</time></trkpt><trkpt lat="57.3793801479" lon="-5.4808480293"><ele>20.32</ele><time>2012-08-10T09:17:13Z</time></trkpt><trkpt lat="57.3794809822" lon="-5.4805500526"><ele>20.32</ele><time>2012-08-10T09:17:14Z</time></trkpt><trkpt lat="57.3804537021" lon="-5.4783734400"><ele>21.29</ele><time>2012-08-10T09:17:22Z</time></trkpt><trkpt lat="57.3810308799" lon="-5.4769472592"><ele>19.36</ele><time>2012-08-10T09:17:27Z</time></trkpt><trkpt lat="57.3817801382" lon="-5.4742952250"><ele>18.40</ele><time>2012-08-10T09:17:36Z</time></trkpt><trkpt lat="57.3824996408" lon="-5.4722965602"><ele>16.96</ele><time>2012-08-10T09:17:45Z</time></trkpt><trkpt lat="57.3826187477" lon="-5.4721318558"><ele>16.96</ele><time>2012-08-10T09:17:46Z</time></trkpt><trkpt lat="57.3835579399" lon="-5.4708598182"><ele>18.40</ele><time>2012-08-10T09:17:53Z</time></trkpt><trkpt lat="57.3848358449" lon="-5.4695352260"><ele>21.29</ele><time>2012-08-10T09:18:02Z</time></trkpt><trkpt lat="57.3852595501" lon="-5.4688852932"><ele>25.61</ele><time>2012-08-10T09:18:05Z</time></trkpt><trkpt lat="57.3853826802" lon="-5.4686413798"><ele>27.05</ele><time>2012-08-10T09:18:06Z</time></trkpt><trkpt lat="57.3854890466" lon="-5.4683827981"><ele>28.50</ele><time>2012-08-10T09:18:07Z</time></trkpt><trkpt lat="57.3855804931" lon="-5.4681080393"><ele>29.46</ele><time>2012-08-10T09:18:08Z</time></trkpt><trkpt lat="57.3856586125" lon="-5.4678205401"><ele>30.90</ele><time>2012-08-10T09:18:09Z</time></trkpt><trkpt lat="57.3857309483" lon="-5.4675194621"><ele>31.38</ele><time>2012-08-10T09:18:10Z</time></trkpt><trkpt lat="57.3859588522" lon="-5.4665952735"><ele>32.34</ele><time>2012-08-10T09:18:13Z</time></trkpt><trkpt lat="57.3867314961" lon="-5.4645632487"><ele>35.23</ele><time>2012-08-10T09:18:20Z</time></trkpt><trkpt lat="57.3870248627" lon="-5.4638198577"><ele>38.59</ele><time>2012-08-10T09:18:23Z</time></trkpt><trkpt lat="57.3876428604" lon="-5.4615264852"><ele>39.07</ele><time>2012-08-10T09:18:32Z</time></trkpt><trkpt lat="57.3878151923" lon="-5.4607322160"><ele>35.71</ele><time>2012-08-10T09:18:35Z</time></trkpt><trkpt lat="57.3880185373" lon="-5.4599818680"><ele>31.86</ele><time>2012-08-10T09:18:38Z</time></trkpt><trkpt lat="57.3883077130" lon="-5.4592994135"><ele>28.02</ele><time>2012-08-10T09:18:41Z</time></trkpt><trkpt lat="57.3884239700" lon="-5.4591074679"><ele>27.05</ele><time>2012-08-10T09:18:42Z</time></trkpt><trkpt lat="57.3885490280" lon="-5.4589310288"><ele>26.09</ele><time>2012-08-10T09:18:43Z</time></trkpt><trkpt lat="57.3886890896" lon="-5.4587552603"><ele>25.13</ele><time>2012-08-10T09:18:44Z</time></trkpt><trkpt lat="57.3888420593" lon="-5.4585838504"><ele>24.65</ele><time>2012-08-10T09:18:45Z</time></trkpt><trkpt lat="57.3893455602" lon="-5.4580825288"><ele>21.29</ele><time>2012-08-10T09:18:48Z</time></trkpt><trkpt lat="57.3898407631" lon="-5.4575887509"><ele>18.40</ele><time>2012-08-10T09:18:51Z</time></trkpt><trkpt lat="57.3901551683" lon="-5.4572919477"><ele>16.96</ele><time>2012-08-10T09:18:53Z</time></trkpt><trkpt lat="57.3905287497" lon="-5.4569121636"><ele>14.56</ele><time>2012-08-10T09:18:56Z</time></trkpt><trkpt lat="57.3907392193" lon="-5.4567107465"><ele>13.12</ele><time>2012-08-10T09:18:58Z</time></trkpt><trkpt lat="57.3919074889" lon="-5.4556998890"><ele>12.63</ele><time>2012-08-10T09:19:08Z</time></trkpt><trkpt lat="57.3933313228" lon="-5.4551590886"><ele>12.15</ele><time>2012-08-10T09:19:19Z</time></trkpt><trkpt lat="57.3946420010" lon="-5.4551347811"><ele>12.15</ele><time>2012-08-10T09:19:30Z</time></trkpt><trkpt lat="57.3951713182" lon="-5.4553434066"><ele>10.23</ele><time>2012-08-10T09:19:37Z</time></trkpt><trkpt lat="57.3957090173" lon="-5.4555283953"><ele>12.15</ele><time>2012-08-10T09:19:47Z</time></trkpt><trkpt lat="57.3965089023" lon="-5.4559189081"><ele>14.56</ele><time>2012-08-10T09:19:54Z</time></trkpt><trkpt lat="57.3966345470" lon="-5.4559274577"><ele>15.52</ele><time>2012-08-10T09:19:55Z</time></trkpt><trkpt lat="57.3967570905" lon="-5.4559145495"><ele>16.48</ele><time>2012-08-10T09:19:56Z</time></trkpt><trkpt lat="57.3968761135" lon="-5.4558830336"><ele>18.40</ele><time>2012-08-10T09:19:57Z</time></trkpt><trkpt lat="57.3969935440" lon="-5.4558257852"><ele>20.32</ele><time>2012-08-10T09:19:58Z</time></trkpt><trkpt lat="57.3971123993" lon="-5.4557490908"><ele>22.25</ele><time>2012-08-10T09:19:59Z</time></trkpt><trkpt lat="57.3972223699" lon="-5.4556505196"><ele>24.17</ele><time>2012-08-10T09:20:00Z</time></trkpt><trkpt lat="57.3973159119" lon="-5.4555314966"><ele>24.65</ele><time>2012-08-10T09:20:01Z</time></trkpt><trkpt lat="57.3974876571" lon="-5.4552750941"><ele>28.02</ele><time>2012-08-10T09:20:03Z</time></trkpt><trkpt lat="57.3977287207" lon="-5.4549598508"><ele>33.30</ele><time>2012-08-10T09:20:06Z</time></trkpt><trkpt lat="57.3979437165" lon="-5.4547795560"><ele>36.67</ele><time>2012-08-10T09:20:08Z</time></trkpt><trkpt lat="57.3980727140" lon="-5.4547075555"><ele>39.07</ele><time>2012-08-10T09:20:09Z</time></trkpt><trkpt lat="57.3982188944" lon="-5.4546404164"><ele>43.40</ele><time>2012-08-10T09:20:10Z</time></trkpt><trkpt lat="57.3983692657" lon="-5.4545824975"><ele>47.24</ele><time>2012-08-10T09:20:11Z</time></trkpt><trkpt lat="57.3986855149" lon="-5.4544787295"><ele>51.57</ele><time>2012-08-10T09:20:13Z</time></trkpt><trkpt lat="57.3988601938" lon="-5.4544144403"><ele>55.41</ele><time>2012-08-10T09:20:14Z</time></trkpt><trkpt lat="57.3991965596" lon="-5.4542791564"><ele>60.70</ele><time>2012-08-10T09:20:16Z</time></trkpt><trkpt lat="57.3994975537" lon="-5.4541497398"><ele>64.55</ele><time>2012-08-10T09:20:18Z</time></trkpt><trkpt lat="57.3997744080" lon="-5.4539874662"><ele>67.91</ele><time>2012-08-10T09:20:20Z</time></trkpt><trkpt lat="57.3999009747" lon="-5.4538578819"><ele>69.35</ele><time>2012-08-10T09:20:21Z</time></trkpt><trkpt lat="57.4000170641" lon="-5.4536840413"><ele>71.27</ele><time>2012-08-10T09:20:22Z</time></trkpt><trkpt lat="57.4003558606" lon="-5.4530202784"><ele>75.60</ele><time>2012-08-10T09:20:25Z</time></trkpt><trkpt lat="57.4006937351" lon="-5.4521574453"><ele>79.93</ele><time>2012-08-10T09:20:28Z</time></trkpt><trkpt lat="57.4010280054" lon="-5.4512394592"><ele>82.81</ele><time>2012-08-10T09:20:31Z</time></trkpt><trkpt lat="57.4013509601" lon="-5.4503155220"><ele>86.18</ele><time>2012-08-10T09:20:34Z</time></trkpt><trkpt lat="57.4015195202" lon="-5.4497833550"><ele>86.66</ele><time>2012-08-10T09:20:36Z</time></trkpt><trkpt lat="57.4015844800" lon="-5.4495303053"><ele>87.14</ele><time>2012-08-10T09:20:37Z</time></trkpt><trkpt lat="57.4017615058" lon="-5.4488002416"><ele>86.18</ele><time>2012-08-10T09:20:40Z</time></trkpt><trkpt lat="57.4018570594" lon="-5.4485880118"><ele>85.69</ele><time>2012-08-10T09:20:41Z</time></trkpt><trkpt lat="57.4019752443" lon="-5.4484090582"><ele>83.77</ele><time>2012-08-10T09:20:42Z</time></trkpt><trkpt lat="57.4021059182" lon="-5.4482708406"><ele>83.29</ele><time>2012-08-10T09:20:43Z</time></trkpt><trkpt lat="57.4022433814" lon="-5.4481805675"><ele>82.81</ele><time>2012-08-10T09:20:44Z</time></trkpt><trkpt lat="57.4023826048" lon="-5.4481570143"><ele>81.37</ele><time>2012-08-10T09:20:45Z</time></trkpt><trkpt lat="57.4025147874" lon="-5.4481817409"><ele>81.37</ele><time>2012-08-10T09:20:46Z</time></trkpt><trkpt lat="57.4026465509" lon="-5.4481988400"><ele>80.89</ele><time>2012-08-10T09:20:47Z</time></trkpt><trkpt lat="57.4027802423" lon="-5.4481846746"><ele>79.93</ele><time>2012-08-10T09:20:48Z</time></trkpt><trkpt lat="57.4029164482" lon="-5.4481404182"><ele>78.97</ele><time>2012-08-10T09:20:49Z</time></trkpt><trkpt lat="57.4030535761" lon="-5.4480815772"><ele>77.52</ele><time>2012-08-10T09:20:50Z</time></trkpt><trkpt lat="57.4034587573" lon="-5.4478781484"><ele>73.68</ele><time>2012-08-10T09:20:53Z</time></trkpt><trkpt lat="57.4037344381" lon="-5.4477400146"><ele>70.79</ele><time>2012-08-10T09:20:55Z</time></trkpt><trkpt lat="57.4040314090" lon="-5.4476502445"><ele>66.47</ele><time>2012-08-10T09:20:57Z</time></trkpt><trkpt lat="57.4043485802" lon="-5.4476139508"><ele>62.14</ele><time>2012-08-10T09:20:59Z</time></trkpt><trkpt lat="57.4046800006" lon="-5.4476109333"><ele>56.86</ele><time>2012-08-10T09:21:01Z</time></trkpt><trkpt lat="57.4050214794" lon="-5.4476185609"><ele>51.57</ele><time>2012-08-10T09:21:03Z</time></trkpt><trkpt lat="57.4053652212" lon="-5.4476275295"><ele>46.76</ele><time>2012-08-10T09:21:05Z</time></trkpt><trkpt lat="57.4057061970" lon="-5.4476324748"><ele>40.51</ele><time>2012-08-10T09:21:07Z</time></trkpt><trkpt lat="57.4060539622" lon="-5.4476626497"><ele>35.71</ele><time>2012-08-10T09:21:09Z</time></trkpt><trkpt lat="57.4064039905" lon="-5.4477460496"><ele>29.94</ele><time>2012-08-10T09:21:11Z</time></trkpt><trkpt lat="57.4065663479" lon="-5.4477887135"><ele>27.05</ele><time>2012-08-10T09:21:12Z</time></trkpt><trkpt lat="57.4067271128" lon="-5.4478004482"><ele>24.17</ele><time>2012-08-10T09:21:13Z</time></trkpt><trkpt lat="57.4068875425" lon="-5.4477808345"><ele>21.77</ele><time>2012-08-10T09:21:14Z</time></trkpt><trkpt lat="57.4070426077" lon="-5.4477193113"><ele>18.88</ele><time>2012-08-10T09:21:15Z</time></trkpt><trkpt lat="57.4071837589" lon="-5.4476068262"><ele>16.96</ele><time>2012-08-10T09:21:16Z</time></trkpt><trkpt lat="57.4073073082" lon="-5.4474441335"><ele>14.56</ele><time>2012-08-10T09:21:17Z</time></trkpt><trkpt lat="57.4074138422" lon="-5.4472349212"><ele>13.12</ele><time>2012-08-10T09:21:18Z</time></trkpt><trkpt lat="57.4075123295" lon="-5.4469889123"><ele>13.12</ele><time>2012-08-10T09:21:19Z</time></trkpt><trkpt lat="57.4076072965" lon="-5.4467225354"><ele>13.60</ele><time>2012-08-10T09:21:20Z</time></trkpt><trkpt lat="57.4085266236" lon="-5.4449658561"><ele>16.00</ele><time>2012-08-10T09:21:27Z</time></trkpt><trkpt lat="57.4086899031" lon="-5.4447601642"><ele>16.00</ele><time>2012-08-10T09:21:28Z</time></trkpt><trkpt lat="57.4100616015" lon="-5.4436978418"><ele>15.52</ele><time>2012-08-10T09:21:36Z</time></trkpt><trkpt lat="57.4115985911" lon="-5.4425677937"><ele>17.44</ele><time>2012-08-10T09:21:45Z</time></trkpt><trkpt lat="57.4117465317" lon="-5.4423697293"><ele>16.48</ele><time>2012-08-10T09:21:46Z</time></trkpt><trkpt lat="57.4135147780" lon="-5.4395835847"><ele>17.92</ele><time>2012-08-10T09:21:58Z</time></trkpt><trkpt lat="57.4143559858" lon="-5.4375433456"><ele>18.40</ele><time>2012-08-10T09:22:05Z</time></trkpt><trkpt lat="57.4152965192" lon="-5.4342734814"><ele>18.88</ele><time>2012-08-10T09:22:15Z</time></trkpt><trkpt lat="57.4163354561" lon="-5.4324942548"><ele>19.36</ele><time>2012-08-10T09:22:22Z</time></trkpt><trkpt lat="57.4176360760" lon="-5.4314809665"><ele>22.25</ele><time>2012-08-10T09:22:29Z</time></trkpt><trkpt lat="57.4178362358" lon="-5.4313848261"><ele>22.25</ele><time>2012-08-10T09:22:30Z</time></trkpt><trkpt lat="57.4198952504" lon="-5.4304126929"><ele>20.32</ele><time>2012-08-10T09:22:41Z</time></trkpt><trkpt lat="57.4201884493" lon="-5.4302173108"><ele>18.88</ele><time>2012-08-10T09:22:43Z</time></trkpt><trkpt lat="57.4203197099" lon="-5.4300775845"><ele>18.88</ele><time>2012-08-10T09:22:44Z</time></trkpt><trkpt lat="57.4204357993" lon="-5.4298956133"><ele>18.88</ele><time>2012-08-10T09:22:45Z</time></trkpt><trkpt lat="57.4207757693" lon="-5.4293052759"><ele>19.36</ele><time>2012-08-10T09:22:48Z</time></trkpt><trkpt lat="57.4208995700" lon="-5.4291480314"><ele>19.36</ele><time>2012-08-10T09:22:49Z</time></trkpt><trkpt lat="57.4210241251" lon="-5.4290128313"><ele>18.40</ele><time>2012-08-10T09:22:50Z</time></trkpt><trkpt lat="57.4211495183" lon="-5.4289115779"><ele>18.40</ele><time>2012-08-10T09:22:51Z</time></trkpt><trkpt lat="57.4212770909" lon="-5.4288476240"><ele>18.40</ele><time>2012-08-10T09:22:52Z</time></trkpt><trkpt lat="57.4214063399" lon="-5.4288241547"><ele>18.88</ele><time>2012-08-10T09:22:53Z</time></trkpt><trkpt lat="57.4215345830" lon="-5.4288347159"><ele>17.92</ele><time>2012-08-10T09:22:54Z</time></trkpt><trkpt lat="57.4216593895" lon="-5.4288512282"><ele>17.92</ele><time>2012-08-10T09:22:55Z</time></trkpt><trkpt lat="57.4217784125" lon="-5.4288541619"><ele>18.40</ele><time>2012-08-10T09:22:56Z</time></trkpt><trkpt lat="57.4218889698" lon="-5.4288402479"><ele>18.40</ele><time>2012-08-10T09:22:57Z</time></trkpt><trkpt lat="57.4220773950" lon="-5.4288068041"><ele>18.40</ele><time>2012-08-10T09:22:59Z</time></trkpt><trkpt lat="57.4221540894" lon="-5.4288286809"><ele>17.92</ele><time>2012-08-10T09:23:00Z</time></trkpt><trkpt lat="57.4222143553" lon="-5.4288938921"><ele>17.92</ele><time>2012-08-10T09:23:01Z</time></trkpt><trkpt lat="57.4222627189" lon="-5.4289857578"><ele>18.40</ele><time>2012-08-10T09:23:02Z</time></trkpt><trkpt lat="57.4223106634" lon="-5.4290933814"><ele>18.40</ele><time>2012-08-10T09:23:03Z</time></trkpt><trkpt lat="57.4224109948" lon="-5.4293647874"><ele>18.88</ele><time>2012-08-10T09:23:05Z</time></trkpt><trkpt lat="57.4227747694" lon="-5.4311167728"><ele>20.81</ele><time>2012-08-10T09:23:13Z</time></trkpt><trkpt lat="57.4228441715" lon="-5.4314134922"><ele>21.29</ele><time>2012-08-10T09:23:14Z</time></trkpt><trkpt lat="57.4229273200" lon="-5.4316958785"><ele>19.84</ele><time>2012-08-10T09:23:15Z</time></trkpt><trkpt lat="57.4238189869" lon="-5.4337205272"><ele>20.32</ele><time>2012-08-10T09:23:23Z</time></trkpt><trkpt lat="57.4240939971" lon="-5.4341630917"><ele>18.88</ele><time>2012-08-10T09:23:25Z</time></trkpt><trkpt lat="57.4245234020" lon="-5.4347670078"><ele>17.92</ele><time>2012-08-10T09:23:28Z</time></trkpt><trkpt lat="57.4259866308" lon="-5.4363930132"><ele>18.88</ele><time>2012-08-10T09:23:38Z</time></trkpt><trkpt lat="57.4264084082" lon="-5.4368263576"><ele>16.96</ele><time>2012-08-10T09:23:41Z</time></trkpt><trkpt lat="57.4272882566" lon="-5.4381605051"><ele>16.48</ele><time>2012-08-10T09:23:49Z</time></trkpt><trkpt lat="57.4285438657" lon="-5.4407363478"><ele>16.00</ele><time>2012-08-10T09:24:01Z</time></trkpt><trkpt lat="57.4299577251" lon="-5.4437196348"><ele>15.04</ele><time>2012-08-10T09:24:16Z</time></trkpt><trkpt lat="57.4304084200" lon="-5.4446844757"><ele>14.08</ele><time>2012-08-10T09:24:24Z</time></trkpt><trkpt lat="57.4304565322" lon="-5.4447863996"><ele>13.60</ele><time>2012-08-10T09:24:31Z</time></trkpt><trkpt lat="57.4306498189" lon="-5.4451704584"><ele>14.56</ele><time>2012-08-10T09:24:36Z</time></trkpt><trkpt lat="57.4307110067" lon="-5.4452520981"><ele>15.04</ele><time>2012-08-10T09:24:37Z</time></trkpt><trkpt lat="57.4308553431" lon="-5.4454349913"><ele>14.08</ele><time>2012-08-10T09:24:43Z</time></trkpt><trkpt lat="57.4308444466" lon="-5.4454325605"><ele>14.56</ele><time>2012-08-10T09:25:03Z</time></trkpt><trkpt lat="57.4308483861" lon="-5.4454068281"><ele>13.12</ele><time>2012-08-10T09:25:36Z</time></trkpt><trkpt lat="57.4308523256" lon="-5.4454014637"><ele>14.08</ele><time>2012-08-10T09:26:10Z</time></trkpt><trkpt lat="57.4308302812" lon="-5.4454018828"><ele>13.60</ele><time>2012-08-10T09:26:51Z</time></trkpt><trkpt lat="57.4308912177" lon="-5.4455138650"><ele>14.08</ele><time>2012-08-10T09:27:17Z</time></trkpt><trkpt lat="57.4309331272" lon="-5.4457265977"><ele>14.56</ele><time>2012-08-10T09:27:20Z</time></trkpt><trkpt lat="57.4309743661" lon="-5.4458441958"><ele>15.04</ele><time>2012-08-10T09:27:21Z</time></trkpt><trkpt lat="57.4310304411" lon="-5.4459673259"><ele>15.04</ele><time>2012-08-10T09:27:22Z</time></trkpt><trkpt lat="57.4313988257" lon="-5.4467331804"><ele>14.56</ele><time>2012-08-10T09:27:28Z</time></trkpt><trkpt lat="57.4314429145" lon="-5.4468142334"><ele>13.60</ele><time>2012-08-10T09:27:30Z</time></trkpt><trkpt lat="57.4314778671" lon="-5.4468262196"><ele>14.08</ele><time>2012-08-10T09:27:31Z</time></trkpt><trkpt lat="57.4315308407" lon="-5.4467984755"><ele>14.08</ele><time>2012-08-10T09:27:32Z</time></trkpt><trkpt lat="57.4315958843" lon="-5.4467130639"><ele>14.56</ele><time>2012-08-10T09:27:33Z</time></trkpt><trkpt lat="57.4316670466" lon="-5.4465872515"><ele>15.52</ele><time>2012-08-10T09:27:34Z</time></trkpt><trkpt lat="57.4317470100" lon="-5.4464432504"><ele>15.52</ele><time>2012-08-10T09:27:35Z</time></trkpt><trkpt lat="57.4320566375" lon="-5.4458828364"><ele>17.44</ele><time>2012-08-10T09:27:38Z</time></trkpt><trkpt lat="57.4331358075" lon="-5.4440335371"><ele>18.88</ele><time>2012-08-10T09:27:47Z</time></trkpt><trkpt lat="57.4345251080" lon="-5.4418864287"><ele>22.25</ele><time>2012-08-10T09:27:57Z</time></trkpt><trkpt lat="57.4368568696" lon="-5.4380374588"><ele>24.65</ele><time>2012-08-10T09:28:13Z</time></trkpt><trkpt lat="57.4385377765" lon="-5.4347283673"><ele>28.98</ele><time>2012-08-10T09:28:26Z</time></trkpt><trkpt lat="57.4395830836" lon="-5.4318440706"><ele>31.38</ele><time>2012-08-10T09:28:36Z</time></trkpt><trkpt lat="57.4410649203" lon="-5.4284614697"><ele>32.82</ele><time>2012-08-10T09:28:47Z</time></trkpt><trkpt lat="57.4424981419" lon="-5.4260144569"><ele>35.23</ele><time>2012-08-10T09:28:56Z</time></trkpt><trkpt lat="57.4436182994" lon="-5.4241770599"><ele>37.63</ele><time>2012-08-10T09:29:03Z</time></trkpt><trkpt lat="57.4442375544" lon="-5.4230223689"><ele>40.03</ele><time>2012-08-10T09:29:07Z</time></trkpt><trkpt lat="57.4449678697" lon="-5.4215268698"><ele>39.07</ele><time>2012-08-10T09:29:13Z</time></trkpt><trkpt lat="57.4459701777" lon="-5.4191552103"><ele>40.03</ele><time>2012-08-10T09:29:22Z</time></trkpt><trkpt lat="57.4466191046" lon="-5.4170690384"><ele>43.40</ele><time>2012-08-10T09:29:29Z</time></trkpt><trkpt lat="57.4470490124" lon="-5.4141051974"><ele>41.95</ele><time>2012-08-10T09:29:38Z</time></trkpt><trkpt lat="57.4471545406" lon="-5.4134990182"><ele>40.51</ele><time>2012-08-10T09:29:40Z</time></trkpt><trkpt lat="57.4472329952" lon="-5.4132188112"><ele>40.51</ele><time>2012-08-10T09:29:41Z</time></trkpt><trkpt lat="57.4473348353" lon="-5.4129447229"><ele>40.03</ele><time>2012-08-10T09:29:42Z</time></trkpt><trkpt lat="57.4482746981" lon="-5.4104972072"><ele>38.11</ele><time>2012-08-10T09:29:50Z</time></trkpt><trkpt lat="57.4484762829" lon="-5.4099218734"><ele>37.15</ele><time>2012-08-10T09:29:52Z</time></trkpt><trkpt lat="57.4494289700" lon="-5.4078816343"><ele>37.63</ele><time>2012-08-10T09:30:00Z</time></trkpt><trkpt lat="57.4501122627" lon="-5.4067970999"><ele>35.23</ele><time>2012-08-10T09:30:06Z</time></trkpt><trkpt lat="57.4501677509" lon="-5.4066235106"><ele>34.74</ele><time>2012-08-10T09:30:07Z</time></trkpt><trkpt lat="57.4501825031" lon="-5.4064505920"><ele>33.78</ele><time>2012-08-10T09:30:08Z</time></trkpt><trkpt lat="57.4501612131" lon="-5.4062868934"><ele>33.78</ele><time>2012-08-10T09:30:09Z</time></trkpt><trkpt lat="57.4501235783" lon="-5.4061252903"><ele>34.26</ele><time>2012-08-10T09:30:10Z</time></trkpt><trkpt lat="57.4500840157" lon="-5.4059512820"><ele>33.78</ele><time>2012-08-10T09:30:11Z</time></trkpt><trkpt lat="57.4499121029" lon="-5.4049187154"><ele>37.15</ele><time>2012-08-10T09:30:16Z</time></trkpt><trkpt lat="57.4498649966" lon="-5.4042469896"><ele>39.07</ele><time>2012-08-10T09:30:19Z</time></trkpt><trkpt lat="57.4498619791" lon="-5.4031106550"><ele>40.99</ele><time>2012-08-10T09:30:24Z</time></trkpt><trkpt lat="57.4502159469" lon="-5.4011893552"><ele>44.84</ele><time>2012-08-10T09:30:32Z</time></trkpt><trkpt lat="57.4502693396" lon="-5.4009438492"><ele>44.84</ele><time>2012-08-10T09:30:33Z</time></trkpt><trkpt lat="57.4506858364" lon="-5.3989638761"><ele>48.20</ele><time>2012-08-10T09:30:41Z</time></trkpt><trkpt lat="57.4512741622" lon="-5.3955327440"><ele>51.09</ele><time>2012-08-10T09:30:54Z</time></trkpt><trkpt lat="57.4517011363" lon="-5.3932951111"><ele>54.45</ele><time>2012-08-10T09:31:02Z</time></trkpt><trkpt lat="57.4518860411" lon="-5.3926217090"><ele>55.41</ele><time>2012-08-10T09:31:04Z</time></trkpt><trkpt lat="57.4526400771" lon="-5.3900013585"><ele>54.93</ele><time>2012-08-10T09:31:13Z</time></trkpt><trkpt lat="57.4534052610" lon="-5.3872103523"><ele>56.86</ele><time>2012-08-10T09:31:25Z</time></trkpt><trkpt lat="57.4537144694" lon="-5.3862243053"><ele>58.78</ele><time>2012-08-10T09:31:30Z</time></trkpt><trkpt lat="57.4546258338" lon="-5.3837716766"><ele>62.62</ele><time>2012-08-10T09:31:41Z</time></trkpt><trkpt lat="57.4548319448" lon="-5.3831757233"><ele>65.99</ele><time>2012-08-10T09:31:43Z</time></trkpt><trkpt lat="57.4551747646" lon="-5.3822816256"><ele>62.62</ele><time>2012-08-10T09:31:46Z</time></trkpt><trkpt lat="57.4553833902" lon="-5.3817361314"><ele>59.74</ele><time>2012-08-10T09:31:48Z</time></trkpt><trkpt lat="57.4556656927" lon="-5.3809534293"><ele>55.89</ele><time>2012-08-10T09:31:51Z</time></trkpt><trkpt lat="57.4557579774" lon="-5.3806942608"><ele>55.89</ele><time>2012-08-10T09:31:52Z</time></trkpt><trkpt lat="57.4561097659" lon="-5.3796852473"><ele>52.53</ele><time>2012-08-10T09:31:56Z</time></trkpt><trkpt lat="57.4574385490" lon="-5.3759439010"><ele>52.05</ele><time>2012-08-10T09:32:12Z</time></trkpt><trkpt lat="57.4587958306" lon="-5.3725234978"><ele>51.57</ele><time>2012-08-10T09:32:27Z</time></trkpt><trkpt lat="57.4603959359" lon="-5.3692136519"><ele>51.09</ele><time>2012-08-10T09:32:43Z</time></trkpt><trkpt lat="57.4613765348" lon="-5.3675618302"><ele>52.05</ele><time>2012-08-10T09:32:52Z</time></trkpt><trkpt lat="57.4625697825" lon="-5.3651607502"><ele>53.49</ele><time>2012-08-10T09:33:03Z</time></trkpt><trkpt lat="57.4634866789" lon="-5.3631963674"><ele>52.53</ele><time>2012-08-10T09:33:12Z</time></trkpt><trkpt lat="57.4638897646" lon="-5.3616395965"><ele>50.61</ele><time>2012-08-10T09:33:20Z</time></trkpt><trkpt lat="57.4645486660" lon="-5.3598561790"><ele>50.61</ele><time>2012-08-10T09:33:28Z</time></trkpt><trkpt lat="57.4650096707" lon="-5.3587671183"><ele>50.13</ele><time>2012-08-10T09:33:33Z</time></trkpt><trkpt lat="57.4651286937" lon="-5.3585950378"><ele>49.65</ele><time>2012-08-10T09:33:34Z</time></trkpt><trkpt lat="57.4652605411" lon="-5.3584472649"><ele>49.16</ele><time>2012-08-10T09:33:35Z</time></trkpt><trkpt lat="57.4661269784" lon="-5.3576747887"><ele>46.76</ele><time>2012-08-10T09:33:41Z</time></trkpt><trkpt lat="57.4665230233" lon="-5.3571327310"><ele>45.32</ele><time>2012-08-10T09:33:44Z</time></trkpt><trkpt lat="57.4666370172" lon="-5.3569060005"><ele>44.84</ele><time>2012-08-10T09:33:45Z</time></trkpt><trkpt lat="57.4675618764" lon="-5.3546501789"><ele>41.47</ele><time>2012-08-10T09:33:54Z</time></trkpt><trkpt lat="57.4688139651" lon="-5.3520104662"><ele>42.92</ele><time>2012-08-10T09:34:06Z</time></trkpt><trkpt lat="57.4700419977" lon="-5.3506480716"><ele>42.92</ele><time>2012-08-10T09:34:15Z</time></trkpt><trkpt lat="57.4705908448" lon="-5.3500233684"><ele>40.51</ele><time>2012-08-10T09:34:20Z</time></trkpt><trkpt lat="57.4707045034" lon="-5.3498413134"><ele>38.59</ele><time>2012-08-10T09:34:23Z</time></trkpt><trkpt lat="57.4710172322" lon="-5.3493610304"><ele>39.07</ele><time>2012-08-10T09:34:34Z</time></trkpt><trkpt lat="57.4716084078" lon="-5.3484716266"><ele>40.51</ele><time>2012-08-10T09:34:41Z</time></trkpt><trkpt lat="57.4719295185" lon="-5.3480815329"><ele>40.03</ele><time>2012-08-10T09:34:44Z</time></trkpt><trkpt lat="57.4720503017" lon="-5.3479913436"><ele>40.03</ele><time>2012-08-10T09:34:45Z</time></trkpt><trkpt lat="57.4721744377" lon="-5.3479199298"><ele>39.55</ele><time>2012-08-10T09:34:46Z</time></trkpt><trkpt lat="57.4726657849" lon="-5.3476282395"><ele>38.59</ele><time>2012-08-10T09:34:50Z</time></trkpt><trkpt lat="57.4727708101" lon="-5.3475008346"><ele>39.07</ele><time>2012-08-10T09:34:51Z</time></trkpt><trkpt lat="57.4728668667" lon="-5.3473334480"><ele>39.55</ele><time>2012-08-10T09:34:52Z</time></trkpt><trkpt lat="57.4729543738" lon="-5.3471294325"><ele>40.03</ele><time>2012-08-10T09:34:53Z</time></trkpt><trkpt lat="57.4730390310" lon="-5.3468964156"><ele>40.51</ele><time>2012-08-10T09:34:54Z</time></trkpt><trkpt lat="57.4735363293" lon="-5.3457095381"><ele>41.47</ele><time>2012-08-10T09:34:59Z</time></trkpt><trkpt lat="57.4736462999" lon="-5.3455356974"><ele>40.99</ele><time>2012-08-10T09:35:00Z</time></trkpt><trkpt lat="57.4743475299" lon="-5.3445001971"><ele>41.95</ele><time>2012-08-10T09:35:06Z</time></trkpt><trkpt lat="57.4757487327" lon="-5.3422251809"><ele>41.95</ele><time>2012-08-10T09:35:18Z</time></trkpt><trkpt lat="57.4761587754" lon="-5.3412240464"><ele>41.47</ele><time>2012-08-10T09:35:23Z</time></trkpt><trkpt lat="57.4762114137" lon="-5.3410146665"><ele>41.47</ele><time>2012-08-10T09:35:24Z</time></trkpt><trkpt lat="57.4762415886" lon="-5.3407962341"><ele>40.99</ele><time>2012-08-10T09:35:25Z</time></trkpt><trkpt lat="57.4762498029" lon="-5.3405672405"><ele>40.99</ele><time>2012-08-10T09:35:26Z</time></trkpt><trkpt lat="57.4762425106" lon="-5.3403269313"><ele>40.99</ele><time>2012-08-10T09:35:27Z</time></trkpt><trkpt lat="57.4762272555" lon="-5.3400810063"><ele>41.47</ele><time>2012-08-10T09:35:28Z</time></trkpt><trkpt lat="57.4762080610" lon="-5.3393641859"><ele>41.47</ele><time>2012-08-10T09:35:31Z</time></trkpt><trkpt lat="57.4762271717" lon="-5.3391409758"><ele>40.99</ele><time>2012-08-10T09:35:32Z</time></trkpt><trkpt lat="57.4762689136" lon="-5.3389311768"><ele>41.47</ele><time>2012-08-10T09:35:33Z</time></trkpt><trkpt lat="57.4763375614" lon="-5.3387378063"><ele>41.47</ele><time>2012-08-10T09:35:34Z</time></trkpt><trkpt lat="57.4764334504" lon="-5.3385611996"><ele>41.95</ele><time>2012-08-10T09:35:35Z</time></trkpt><trkpt lat="57.4765492044" lon="-5.3383992612"><ele>41.95</ele><time>2012-08-10T09:35:36Z</time></trkpt><trkpt lat="57.4766789563" lon="-5.3382466268"><ele>42.44</ele><time>2012-08-10T09:35:37Z</time></trkpt><trkpt lat="57.4768107198" lon="-5.3380948305"><ele>42.92</ele><time>2012-08-10T09:35:38Z</time></trkpt><trkpt lat="57.4769315869" lon="-5.3379313834"><ele>41.95</ele><time>2012-08-10T09:35:39Z</time></trkpt><trkpt lat="57.4770416413" lon="-5.3377602249"><ele>41.95</ele><time>2012-08-10T09:35:40Z</time></trkpt><trkpt lat="57.4771446548" lon="-5.3375775833"><ele>41.95</ele><time>2012-08-10T09:35:41Z</time></trkpt><trkpt lat="57.4772410467" lon="-5.3373843804"><ele>42.44</ele><time>2012-08-10T09:35:42Z</time></trkpt><trkpt lat="57.4773329124" lon="-5.3371849749"><ele>43.40</ele><time>2012-08-10T09:35:43Z</time></trkpt><trkpt lat="57.4776939210" lon="-5.3364075534"><ele>44.36</ele><time>2012-08-10T09:35:47Z</time></trkpt><trkpt lat="57.4778857827" lon="-5.3361158632"><ele>44.84</ele><time>2012-08-10T09:35:49Z</time></trkpt><trkpt lat="57.4779818393" lon="-5.3360047191"><ele>44.84</ele><time>2012-08-10T09:35:50Z</time></trkpt><trkpt lat="57.4782704283" lon="-5.3357396834"><ele>45.80</ele><time>2012-08-10T09:35:53Z</time></trkpt><trkpt lat="57.4783721007" lon="-5.3356821835"><ele>45.80</ele><time>2012-08-10T09:35:54Z</time></trkpt><trkpt lat="57.4791377876" lon="-5.3352135513"><ele>46.28</ele><time>2012-08-10T09:36:02Z</time></trkpt><trkpt lat="57.4792223610" lon="-5.3351090290"><ele>46.28</ele><time>2012-08-10T09:36:03Z</time></trkpt><trkpt lat="57.4792919308" lon="-5.3349952865"><ele>45.32</ele><time>2012-08-10T09:36:04Z</time></trkpt><trkpt lat="57.4793387856" lon="-5.3348578233"><ele>45.32</ele><time>2012-08-10T09:36:05Z</time></trkpt><trkpt lat="57.4793632608" lon="-5.3346926160"><ele>44.84</ele><time>2012-08-10T09:36:06Z</time></trkpt><trkpt lat="57.4793836288" lon="-5.3345182724"><ele>45.32</ele><time>2012-08-10T09:36:07Z</time></trkpt><trkpt lat="57.4795367662" lon="-5.3336130269"><ele>47.24</ele><time>2012-08-10T09:36:12Z</time></trkpt><trkpt lat="57.4796100240" lon="-5.3332405351"><ele>48.68</ele><time>2012-08-10T09:36:14Z</time></trkpt><trkpt lat="57.4799934961" lon="-5.3320145980"><ele>48.20</ele><time>2012-08-10T09:36:21Z</time></trkpt><trkpt lat="57.4800748844" lon="-5.3318833373"><ele>48.68</ele><time>2012-08-10T09:36:22Z</time></trkpt><trkpt lat="57.4801752158" lon="-5.3317687567"><ele>48.68</ele><time>2012-08-10T09:36:23Z</time></trkpt><trkpt lat="57.4808552396" lon="-5.3309860546"><ele>46.76</ele><time>2012-08-10T09:36:30Z</time></trkpt><trkpt lat="57.4809175171" lon="-5.3308684565"><ele>47.24</ele><time>2012-08-10T09:36:31Z</time></trkpt><trkpt lat="57.4809861649" lon="-5.3307121340"><ele>48.20</ele><time>2012-08-10T09:36:32Z</time></trkpt><trkpt lat="57.4811618496" lon="-5.3302818909"><ele>51.57</ele><time>2012-08-10T09:36:34Z</time></trkpt><trkpt lat="57.4814408831" lon="-5.3296766337"><ele>50.13</ele><time>2012-08-10T09:36:37Z</time></trkpt><trkpt lat="57.4821665883" lon="-5.3276454471"><ele>49.16</ele><time>2012-08-10T09:36:47Z</time></trkpt><trkpt lat="57.4829852488" lon="-5.3255791403"><ele>49.16</ele><time>2012-08-10T09:36:56Z</time></trkpt><trkpt lat="57.4836003128" lon="-5.3230752144"><ele>49.16</ele><time>2012-08-10T09:37:05Z</time></trkpt><trkpt lat="57.4842351582" lon="-5.3209282737"><ele>47.72</ele><time>2012-08-10T09:37:14Z</time></trkpt><trkpt lat="57.4843464699" lon="-5.3202669416"><ele>48.68</ele><time>2012-08-10T09:37:17Z</time></trkpt><trkpt lat="57.4847265892" lon="-5.3181921691"><ele>49.65</ele><time>2012-08-10T09:37:25Z</time></trkpt><trkpt lat="57.4853434134" lon="-5.3158947732"><ele>50.61</ele><time>2012-08-10T09:37:35Z</time></trkpt><trkpt lat="57.4856602494" lon="-5.3150015138"><ele>50.61</ele><time>2012-08-10T09:37:40Z</time></trkpt><trkpt lat="57.4857340939" lon="-5.3148826584"><ele>50.61</ele><time>2012-08-10T09:37:41Z</time></trkpt><trkpt lat="57.4858218525" lon="-5.3147844225"><ele>51.09</ele><time>2012-08-10T09:37:42Z</time></trkpt><trkpt lat="57.4859209266" lon="-5.3147042077"><ele>51.09</ele><time>2012-08-10T09:37:43Z</time></trkpt><trkpt lat="57.4860249460" lon="-5.3146305308"><ele>51.57</ele><time>2012-08-10T09:37:44Z</time></trkpt><trkpt lat="57.4862290453" lon="-5.3144602105"><ele>52.53</ele><time>2012-08-10T09:37:46Z</time></trkpt><trkpt lat="57.4863193184" lon="-5.3143278603"><ele>53.97</ele><time>2012-08-10T09:37:47Z</time></trkpt><trkpt lat="57.4863956776" lon="-5.3141224198"><ele>54.93</ele><time>2012-08-10T09:37:48Z</time></trkpt><trkpt lat="57.4864391796" lon="-5.3138421290"><ele>56.37</ele><time>2012-08-10T09:37:49Z</time></trkpt><trkpt lat="57.4864280317" lon="-5.3135236166"><ele>56.86</ele><time>2012-08-10T09:37:50Z</time></trkpt><trkpt lat="57.4864231702" lon="-5.3132241312"><ele>57.34</ele><time>2012-08-10T09:37:51Z</time></trkpt><trkpt lat="57.4864846934" lon="-5.3115768358"><ele>60.22</ele><time>2012-08-10T09:37:56Z</time></trkpt><trkpt lat="57.4867721088" lon="-5.3069226164"><ele>58.78</ele><time>2012-08-10T09:38:09Z</time></trkpt><trkpt lat="57.4872269947" lon="-5.3011309728"><ele>60.22</ele><time>2012-08-10T09:38:26Z</time></trkpt><trkpt lat="57.4874125700" lon="-5.2973925602"><ele>63.10</ele><time>2012-08-10T09:38:36Z</time></trkpt><trkpt lat="57.4877734948" lon="-5.2933208831"><ele>65.99</ele><time>2012-08-10T09:38:47Z</time></trkpt><trkpt lat="57.4884608109" lon="-5.2889488824"><ele>66.47</ele><time>2012-08-10T09:38:59Z</time></trkpt><trkpt lat="57.4885256868" lon="-5.2882463112"><ele>66.95</ele><time>2012-08-10T09:39:01Z</time></trkpt><trkpt lat="57.4885874614" lon="-5.2869433444"><ele>66.47</ele><time>2012-08-10T09:39:05Z</time></trkpt><trkpt lat="57.4886343163" lon="-5.2866598684"><ele>66.47</ele><time>2012-08-10T09:39:06Z</time></trkpt><trkpt lat="57.4887127709" lon="-5.2863934077"><ele>66.47</ele><time>2012-08-10T09:39:07Z</time></trkpt><trkpt lat="57.4888135213" lon="-5.2861421183"><ele>66.47</ele><time>2012-08-10T09:39:08Z</time></trkpt><trkpt lat="57.4889376573" lon="-5.2858956903"><ele>66.95</ele><time>2012-08-10T09:39:09Z</time></trkpt><trkpt lat="57.4890725221" lon="-5.2856433112"><ele>66.95</ele><time>2012-08-10T09:39:10Z</time></trkpt><trkpt lat="57.4893170223" lon="-5.2850917820"><ele>68.87</ele><time>2012-08-10T09:39:12Z</time></trkpt><trkpt lat="57.4894172698" lon="-5.2847668994"><ele>69.35</ele><time>2012-08-10T09:39:13Z</time></trkpt><trkpt lat="57.4895923678" lon="-5.2840113547"><ele>71.27</ele><time>2012-08-10T09:39:15Z</time></trkpt><trkpt lat="57.4901462439" lon="-5.2799503226"><ele>74.64</ele><time>2012-08-10T09:39:25Z</time></trkpt><trkpt lat="57.4903951865" lon="-5.2786805481"><ele>75.12</ele><time>2012-08-10T09:39:29Z</time></trkpt><trkpt lat="57.4905000441" lon="-5.2784078848"><ele>75.12</ele><time>2012-08-10T09:39:30Z</time></trkpt><trkpt lat="57.4906182289" lon="-5.2781517338"><ele>76.56</ele><time>2012-08-10T09:39:31Z</time></trkpt><trkpt lat="57.4909542594" lon="-5.2773744799"><ele>78.00</ele><time>2012-08-10T09:39:34Z</time></trkpt><trkpt lat="57.4910281878" lon="-5.2770922612"><ele>78.97</ele><time>2012-08-10T09:39:35Z</time></trkpt><trkpt lat="57.4910717737" lon="-5.2767861541"><ele>79.93</ele><time>2012-08-10T09:39:36Z</time></trkpt><trkpt lat="57.4910872802" lon="-5.2764626965"><ele>80.89</ele><time>2012-08-10T09:39:37Z</time></trkpt><trkpt lat="57.4910718575" lon="-5.2761219721"><ele>81.85</ele><time>2012-08-10T09:39:38Z</time></trkpt><trkpt lat="57.4910159502" lon="-5.2757570241"><ele>81.85</ele><time>2012-08-10T09:39:39Z</time></trkpt><trkpt lat="57.4908157904" lon="-5.2718643006"><ele>82.33</ele><time>2012-08-10T09:39:50Z</time></trkpt><trkpt lat="57.4908614717" lon="-5.2711455524"><ele>83.29</ele><time>2012-08-10T09:39:52Z</time></trkpt><trkpt lat="57.4910064787" lon="-5.2701234631"><ele>82.33</ele><time>2012-08-10T09:39:55Z</time></trkpt><trkpt lat="57.4912976660" lon="-5.2687039040"><ele>84.73</ele><time>2012-08-10T09:39:59Z</time></trkpt><trkpt lat="57.4914524797" lon="-5.2670537587"><ele>88.10</ele><time>2012-08-10T09:40:03Z</time></trkpt><trkpt lat="57.4917561561" lon="-5.2651949041"><ele>90.98</ele><time>2012-08-10T09:40:08Z</time></trkpt><trkpt lat="57.4919075333" lon="-5.2644550335"><ele>91.94</ele><time>2012-08-10T09:40:10Z</time></trkpt><trkpt lat="57.4922829587" lon="-5.2630946506"><ele>95.31</ele><time>2012-08-10T09:40:14Z</time></trkpt><trkpt lat="57.4925034866" lon="-5.2624235116"><ele>97.23</ele><time>2012-08-10T09:40:16Z</time></trkpt><trkpt lat="57.4925892334" lon="-5.2620653529"><ele>97.23</ele><time>2012-08-10T09:40:17Z</time></trkpt><trkpt lat="57.4926569592" lon="-5.2617024165"><ele>98.19</ele><time>2012-08-10T09:40:18Z</time></trkpt><trkpt lat="57.4928814266" lon="-5.2606380824"><ele>103.00</ele><time>2012-08-10T09:40:21Z</time></trkpt><trkpt lat="57.4937008414" lon="-5.2583418600"><ele>106.36</ele><time>2012-08-10T09:40:28Z</time></trkpt><trkpt lat="57.4941786937" lon="-5.2575770114"><ele>109.73</ele><time>2012-08-10T09:40:31Z</time></trkpt><trkpt lat="57.4947962724" lon="-5.2566861827"><ele>113.09</ele><time>2012-08-10T09:40:35Z</time></trkpt><trkpt lat="57.4953228235" lon="-5.2561444603"><ele>116.94</ele><time>2012-08-10T09:40:38Z</time></trkpt><trkpt lat="57.4957169406" lon="-5.2557980362"><ele>120.78</ele><time>2012-08-10T09:40:40Z</time></trkpt><trkpt lat="57.4963268917" lon="-5.2552859858"><ele>124.15</ele><time>2012-08-10T09:40:43Z</time></trkpt><trkpt lat="57.4967263732" lon="-5.2549800463"><ele>125.11</ele><time>2012-08-10T09:40:45Z</time></trkpt><trkpt lat="57.4974823371" lon="-5.2543627191"><ele>128.47</ele><time>2012-08-10T09:40:49Z</time></trkpt><trkpt lat="57.4978371430" lon="-5.2539609745"><ele>128.47</ele><time>2012-08-10T09:40:51Z</time></trkpt><trkpt lat="57.4983456731" lon="-5.2532016579"><ele>129.43</ele><time>2012-08-10T09:40:54Z</time></trkpt><trkpt lat="57.4990293011" lon="-5.2520905528"><ele>131.84</ele><time>2012-08-10T09:40:58Z</time></trkpt><trkpt lat="57.5002088025" lon="-5.2500320412"><ele>134.72</ele><time>2012-08-10T09:41:05Z</time></trkpt><trkpt lat="57.5014038105" lon="-5.2480302751"><ele>137.13</ele><time>2012-08-10T09:41:12Z</time></trkpt><trkpt lat="57.5021792203" lon="-5.2459144313"><ele>137.13</ele><time>2012-08-10T09:41:18Z</time></trkpt><trkpt lat="57.5023242272" lon="-5.2455892973"><ele>137.13</ele><time>2012-08-10T09:41:19Z</time></trkpt><trkpt lat="57.5027877465" lon="-5.2446235344"><ele>138.57</ele><time>2012-08-10T09:41:22Z</time></trkpt><trkpt lat="57.5035402738" lon="-5.2429063339"><ele>141.45</ele><time>2012-08-10T09:41:27Z</time></trkpt><trkpt lat="57.5039384142" lon="-5.2418054547"><ele>144.82</ele><time>2012-08-10T09:41:30Z</time></trkpt><trkpt lat="57.5043391529" lon="-5.2406825311"><ele>148.18</ele><time>2012-08-10T09:41:33Z</time></trkpt><trkpt lat="57.5050600804" lon="-5.2390561905"><ele>151.54</ele><time>2012-08-10T09:41:38Z</time></trkpt><trkpt lat="57.5052219350" lon="-5.2388173901"><ele>152.03</ele><time>2012-08-10T09:41:39Z</time></trkpt><trkpt lat="57.5054014754" lon="-5.2386073396"><ele>152.51</ele><time>2012-08-10T09:41:40Z</time></trkpt><trkpt lat="57.5059618056" lon="-5.2379994839"><ele>153.95</ele><time>2012-08-10T09:41:43Z</time></trkpt><trkpt lat="57.5061228219" lon="-5.2377346996"><ele>155.39</ele><time>2012-08-10T09:41:44Z</time></trkpt><trkpt lat="57.5062684994" lon="-5.2374330349"><ele>155.87</ele><time>2012-08-10T09:41:45Z</time></trkpt><trkpt lat="57.5066848285" lon="-5.2364852093"><ele>157.31</ele><time>2012-08-10T09:41:48Z</time></trkpt><trkpt lat="57.5070022512" lon="-5.2359160781"><ele>158.75</ele><time>2012-08-10T09:41:50Z</time></trkpt><trkpt lat="57.5071841385" lon="-5.2356620226"><ele>159.24</ele><time>2012-08-10T09:41:51Z</time></trkpt><trkpt lat="57.5073734019" lon="-5.2354218811"><ele>159.72</ele><time>2012-08-10T09:41:52Z</time></trkpt><trkpt lat="57.5080528390" lon="-5.2344178129"><ele>160.68</ele><time>2012-08-10T09:41:56Z</time></trkpt><trkpt lat="57.5081730355" lon="-5.2340971213"><ele>161.64</ele><time>2012-08-10T09:41:57Z</time></trkpt><trkpt lat="57.5082687568" lon="-5.2337427344"><ele>162.12</ele><time>2012-08-10T09:41:58Z</time></trkpt><trkpt lat="57.5083462056" lon="-5.2333666384"><ele>162.12</ele><time>2012-08-10T09:41:59Z</time></trkpt><trkpt lat="57.5084171165" lon="-5.2329935599"><ele>162.12</ele><time>2012-08-10T09:42:00Z</time></trkpt><trkpt lat="57.5085808989" lon="-5.2323216666"><ele>161.64</ele><time>2012-08-10T09:42:02Z</time></trkpt><trkpt lat="57.5086917914" lon="-5.2320363466"><ele>161.64</ele><time>2012-08-10T09:42:03Z</time></trkpt><trkpt lat="57.5088243093" lon="-5.2317739092"><ele>161.16</ele><time>2012-08-10T09:42:04Z</time></trkpt><trkpt lat="57.5098028965" lon="-5.2302137017"><ele>165.00</ele><time>2012-08-10T09:42:10Z</time></trkpt><trkpt lat="57.5108107366" lon="-5.2283939067"><ele>168.85</ele><time>2012-08-10T09:42:16Z</time></trkpt><trkpt lat="57.5117171556" lon="-5.2266083099"><ele>171.73</ele><time>2012-08-10T09:42:21Z</time></trkpt><trkpt lat="57.5129989162" lon="-5.2242213953"><ele>174.62</ele><time>2012-08-10T09:42:28Z</time></trkpt><trkpt lat="57.5142638292" lon="-5.2218079939"><ele>176.06</ele><time>2012-08-10T09:42:36Z</time></trkpt><trkpt lat="57.5143754762" lon="-5.2214659285"><ele>176.54</ele><time>2012-08-10T09:42:37Z</time></trkpt><trkpt lat="57.5144648273" lon="-5.2210833784"><ele>176.54</ele><time>2012-08-10T09:42:38Z</time></trkpt><trkpt lat="57.5151552446" lon="-5.2175570279"><ele>177.50</ele><time>2012-08-10T09:42:46Z</time></trkpt><trkpt lat="57.5155553129" lon="-5.2158814855"><ele>174.14</ele><time>2012-08-10T09:42:50Z</time></trkpt><trkpt lat="57.5158097036" lon="-5.2148189116"><ele>172.69</ele><time>2012-08-10T09:42:53Z</time></trkpt><trkpt lat="57.5159736536" lon="-5.2140960563"><ele>167.89</ele><time>2012-08-10T09:42:56Z</time></trkpt><trkpt lat="57.5160707999" lon="-5.2137021068"><ele>165.00</ele><time>2012-08-10T09:42:59Z</time></trkpt><trkpt lat="57.5164106023" lon="-5.2122999821"><ele>165.00</ele><time>2012-08-10T09:43:11Z</time></trkpt><trkpt lat="57.5166214071" lon="-5.2114165295"><ele>167.89</ele><time>2012-08-10T09:43:15Z</time></trkpt><trkpt lat="57.5166803319" lon="-5.2111613844"><ele>167.89</ele><time>2012-08-10T09:43:16Z</time></trkpt><trkpt lat="57.5173440110" lon="-5.2084034029"><ele>169.33</ele><time>2012-08-10T09:43:25Z</time></trkpt><trkpt lat="57.5183481630" lon="-5.2054533921"><ele>171.73</ele><time>2012-08-10T09:43:34Z</time></trkpt><trkpt lat="57.5187931582" lon="-5.2045085002"><ele>173.17</ele><time>2012-08-10T09:43:37Z</time></trkpt><trkpt lat="57.5196619425" lon="-5.2030672319"><ele>176.06</ele><time>2012-08-10T09:43:42Z</time></trkpt><trkpt lat="57.5198479369" lon="-5.2028100751"><ele>176.54</ele><time>2012-08-10T09:43:43Z</time></trkpt><trkpt lat="57.5202293973" lon="-5.2023422811"><ele>177.98</ele><time>2012-08-10T09:43:45Z</time></trkpt><trkpt lat="57.5223158207" lon="-5.2003862802"><ele>179.90</ele><time>2012-08-10T09:43:55Z</time></trkpt><trkpt lat="57.5248320680" lon="-5.1977884769"><ele>178.94</ele><time>2012-08-10T09:44:07Z</time></trkpt><trkpt lat="57.5260702427" lon="-5.1953388657"><ele>178.46</ele><time>2012-08-10T09:44:14Z</time></trkpt><trkpt lat="57.5268884003" lon="-5.1923694927"><ele>178.94</ele><time>2012-08-10T09:44:21Z</time></trkpt><trkpt lat="57.5273544341" lon="-5.1885357779"><ele>180.87</ele><time>2012-08-10T09:44:29Z</time></trkpt><trkpt lat="57.5274910592" lon="-5.1871267799"><ele>178.94</ele><time>2012-08-10T09:44:32Z</time></trkpt><trkpt lat="57.5283938739" lon="-5.1780805271"><ele>177.98</ele><time>2012-08-10T09:44:51Z</time></trkpt><trkpt lat="57.5289653521" lon="-5.1726909634"><ele>174.62</ele><time>2012-08-10T09:45:02Z</time></trkpt><trkpt lat="57.5291381869" lon="-5.1712343562"><ele>173.66</ele><time>2012-08-10T09:45:05Z</time></trkpt><trkpt lat="57.5300590228" lon="-5.1649764273"><ele>172.21</ele><time>2012-08-10T09:45:18Z</time></trkpt><trkpt lat="57.5313515961" lon="-5.1600471139"><ele>173.66</ele><time>2012-08-10T09:45:29Z</time></trkpt><trkpt lat="57.5320200529" lon="-5.1575355604"><ele>173.17</ele><time>2012-08-10T09:45:36Z</time></trkpt><trkpt lat="57.5324120745" lon="-5.1560639497"><ele>176.54</ele><time>2012-08-10T09:45:40Z</time></trkpt><trkpt lat="57.5328543875" lon="-5.1544258744"><ele>179.42</ele><time>2012-08-10T09:45:44Z</time></trkpt><trkpt lat="57.5339983497" lon="-5.1502336655"><ele>182.79</ele><time>2012-08-10T09:45:55Z</time></trkpt><trkpt lat="57.5340996869" lon="-5.1498594973"><ele>182.79</ele><time>2012-08-10T09:45:56Z</time></trkpt><trkpt lat="57.5345238950" lon="-5.1483126171"><ele>186.15</ele><time>2012-08-10T09:46:00Z</time></trkpt><trkpt lat="57.5351836346" lon="-5.1459230203"><ele>189.52</ele><time>2012-08-10T09:46:06Z</time></trkpt><trkpt lat="57.5356312282" lon="-5.1442872081"><ele>193.36</ele><time>2012-08-10T09:46:10Z</time></trkpt><trkpt lat="57.5360851921" lon="-5.1426498871"><ele>196.73</ele><time>2012-08-10T09:46:14Z</time></trkpt><trkpt lat="57.5364208035" lon="-5.1414418872"><ele>198.65</ele><time>2012-08-10T09:46:17Z</time></trkpt><trkpt lat="57.5368676428" lon="-5.1398472302"><ele>202.01</ele><time>2012-08-10T09:46:21Z</time></trkpt><trkpt lat="57.5373164937" lon="-5.1382689178"><ele>204.42</ele><time>2012-08-10T09:46:25Z</time></trkpt><trkpt lat="57.5375391170" lon="-5.1374873053"><ele>205.86</ele><time>2012-08-10T09:46:27Z</time></trkpt><trkpt lat="57.5378700346" lon="-5.1363186166"><ele>207.78</ele><time>2012-08-10T09:46:30Z</time></trkpt><trkpt lat="57.5397360977" lon="-5.1302721631"><ele>204.42</ele><time>2012-08-10T09:46:46Z</time></trkpt><trkpt lat="57.5398894027" lon="-5.1299381442"><ele>204.42</ele><time>2012-08-10T09:46:47Z</time></trkpt><trkpt lat="57.5410718378" lon="-5.1282931957"><ele>202.49</ele><time>2012-08-10T09:46:53Z</time></trkpt><trkpt lat="57.5413093809" lon="-5.1280953828"><ele>202.01</ele><time>2012-08-10T09:46:54Z</time></trkpt><trkpt lat="57.5425618049" lon="-5.1273664087"><ele>198.65</ele><time>2012-08-10T09:46:59Z</time></trkpt><trkpt lat="57.5435511209" lon="-5.1269104332"><ele>195.77</ele><time>2012-08-10T09:47:03Z</time></trkpt><trkpt lat="57.5442849565" lon="-5.1266567130"><ele>192.40</ele><time>2012-08-10T09:47:06Z</time></trkpt><trkpt lat="57.5452582631" lon="-5.1263390388"><ele>190.00</ele><time>2012-08-10T09:47:10Z</time></trkpt><trkpt lat="57.5464753155" lon="-5.1258585881"><ele>186.63</ele><time>2012-08-10T09:47:15Z</time></trkpt><trkpt lat="57.5484169833" lon="-5.1247265283"><ele>183.27</ele><time>2012-08-10T09:47:23Z</time></trkpt><trkpt lat="57.5494630449" lon="-5.1236006711"><ele>179.90</ele><time>2012-08-10T09:47:28Z</time></trkpt><trkpt lat="57.5496507157" lon="-5.1233346295"><ele>179.42</ele><time>2012-08-10T09:47:29Z</time></trkpt><trkpt lat="57.5507771596" lon="-5.1210399996"><ele>178.94</ele><time>2012-08-10T09:47:36Z</time></trkpt><trkpt lat="57.5515311956" lon="-5.1180271246"><ele>179.90</ele><time>2012-08-10T09:47:43Z</time></trkpt><trkpt lat="57.5521855708" lon="-5.1145285182"><ele>182.31</ele><time>2012-08-10T09:47:51Z</time></trkpt><trkpt lat="57.5526512694" lon="-5.1129491162"><ele>180.87</ele><time>2012-08-10T09:47:55Z</time></trkpt><trkpt lat="57.5542127341" lon="-5.1079983450"><ele>180.87</ele><time>2012-08-10T09:48:07Z</time></trkpt><trkpt lat="57.5565399695" lon="-5.1011583768"><ele>178.46</ele><time>2012-08-10T09:48:24Z</time></trkpt><trkpt lat="57.5568045024" lon="-5.1004377846"><ele>177.50</ele><time>2012-08-10T09:48:26Z</time></trkpt><trkpt lat="57.5584367104" lon="-5.0962895807"><ele>178.94</ele><time>2012-08-10T09:48:37Z</time></trkpt><trkpt lat="57.5600306131" lon="-5.0936893467"><ele>179.90</ele><time>2012-08-10T09:48:45Z</time></trkpt><trkpt lat="57.5620931480" lon="-5.0907276850"><ele>180.38</ele><time>2012-08-10T09:48:55Z</time></trkpt><trkpt lat="57.5659351610" lon="-5.0856357627"><ele>180.87</ele><time>2012-08-10T09:49:13Z</time></trkpt><trkpt lat="57.5669032708" lon="-5.0843665749"><ele>177.50</ele><time>2012-08-10T09:49:18Z</time></trkpt><trkpt lat="57.5690482836" lon="-5.0820464641"><ele>177.02</ele><time>2012-08-10T09:49:29Z</time></trkpt><trkpt lat="57.5707856007" lon="-5.0810629316"><ele>177.02</ele><time>2012-08-10T09:49:38Z</time></trkpt><trkpt lat="57.5728198886" lon="-5.0806763582"><ele>173.17</ele><time>2012-08-10T09:49:48Z</time></trkpt><trkpt lat="57.5734399818" lon="-5.0805623643"><ele>171.73</ele><time>2012-08-10T09:49:51Z</time></trkpt><trkpt lat="57.5740490109" lon="-5.0803434290"><ele>169.81</ele><time>2012-08-10T09:49:54Z</time></trkpt><trkpt lat="57.5749032106" lon="-5.0799418520"><ele>165.96</ele><time>2012-08-10T09:49:59Z</time></trkpt><trkpt lat="57.5752056297" lon="-5.0798102561"><ele>165.00</ele><time>2012-08-10T09:50:01Z</time></trkpt><trkpt lat="57.5766635779" lon="-5.0794546120"><ele>163.56</ele><time>2012-08-10T09:50:10Z</time></trkpt><trkpt lat="57.5780130643" lon="-5.0792702101"><ele>160.20</ele><time>2012-08-10T09:50:21Z</time></trkpt><trkpt lat="57.5781753380" lon="-5.0792682823"><ele>159.24</ele><time>2012-08-10T09:50:23Z</time></trkpt><trkpt lat="57.5782335084" lon="-5.0792909972"><ele>158.75</ele><time>2012-08-10T09:50:24Z</time></trkpt><trkpt lat="57.5782744121" lon="-5.0793416239"><ele>158.75</ele><time>2012-08-10T09:50:25Z</time></trkpt><trkpt lat="57.5782998931" lon="-5.0794243533"><ele>158.75</ele><time>2012-08-10T09:50:26Z</time></trkpt><trkpt lat="57.5783073530" lon="-5.0795407780"><ele>159.24</ele><time>2012-08-10T09:50:27Z</time></trkpt><trkpt lat="57.5783050898" lon="-5.0796839409"><ele>159.72</ele><time>2012-08-10T09:50:28Z</time></trkpt><trkpt lat="57.5782921817" lon="-5.0800423510"><ele>160.68</ele><time>2012-08-10T09:50:30Z</time></trkpt><trkpt lat="57.5782714784" lon="-5.0802582689"><ele>160.68</ele><time>2012-08-10T09:50:31Z</time></trkpt><trkpt lat="57.5780974701" lon="-5.0814534444"><ele>159.24</ele><time>2012-08-10T09:50:38Z</time></trkpt><trkpt lat="57.5780782755" lon="-5.0814880617"><ele>158.75</ele><time>2012-08-10T09:50:39Z</time></trkpt><trkpt lat="57.5780610926" lon="-5.0814980362"><ele>158.75</ele><time>2012-08-10T09:50:49Z</time></trkpt><trkpt lat="57.5780611765" lon="-5.0815184042"><ele>158.75</ele><time>2012-08-10T09:50:51Z</time></trkpt><trkpt lat="57.5780633558" lon="-5.0815447234"><ele>158.75</ele><time>2012-08-10T09:50:52Z</time></trkpt><trkpt lat="57.5780665409" lon="-5.0815694500"><ele>158.75</ele><time>2012-08-10T09:50:53Z</time></trkpt><trkpt lat="57.5780675467" lon="-5.0815923326"><ele>158.75</ele><time>2012-08-10T09:50:54Z</time></trkpt><trkpt lat="57.5780651998" lon="-5.0816154666"><ele>158.75</ele><time>2012-08-10T09:50:55Z</time></trkpt><trkpt lat="57.5780273974" lon="-5.0823363941"><ele>160.68</ele><time>2012-08-10T09:51:04Z</time></trkpt><trkpt lat="57.5779789500" lon="-5.0832802802"><ele>164.04</ele><time>2012-08-10T09:51:08Z</time></trkpt><trkpt lat="57.5780007429" lon="-5.0850047730"><ele>167.41</ele><time>2012-08-10T09:51:13Z</time></trkpt><trkpt lat="57.5780839752" lon="-5.0862418581"><ele>169.33</ele><time>2012-08-10T09:51:16Z</time></trkpt><trkpt lat="57.5783280563" lon="-5.0892871711"><ele>172.21</ele><time>2012-08-10T09:51:23Z</time></trkpt><trkpt lat="57.5784022361" lon="-5.0901593082"><ele>173.66</ele><time>2012-08-10T09:51:25Z</time></trkpt><trkpt lat="57.5785002206" lon="-5.0914661307"><ele>177.02</ele><time>2012-08-10T09:51:28Z</time></trkpt><trkpt lat="57.5786362588" lon="-5.0936092995"><ele>180.38</ele><time>2012-08-10T09:51:33Z</time></trkpt><trkpt lat="57.5785908289" lon="-5.0976317748"><ele>178.94</ele><time>2012-08-10T09:51:43Z</time></trkpt><trkpt lat="57.5785429683" lon="-5.0999516342"><ele>175.58</ele><time>2012-08-10T09:51:49Z</time></trkpt><trkpt lat="57.5786262006" lon="-5.1019794680"><ele>172.21</ele><time>2012-08-10T09:51:54Z</time></trkpt><trkpt lat="57.5786432158" lon="-5.1023945399"><ele>172.21</ele><time>2012-08-10T09:51:55Z</time></trkpt><trkpt lat="57.5788876321" lon="-5.1072728075"><ele>173.66</ele><time>2012-08-10T09:52:06Z</time></trkpt><trkpt lat="57.5788151287" lon="-5.1119048148"><ele>174.14</ele><time>2012-08-10T09:52:16Z</time></trkpt><trkpt lat="57.5786135439" lon="-5.1204076689"><ele>177.50</ele><time>2012-08-10T09:52:34Z</time></trkpt><trkpt lat="57.5788541883" lon="-5.1241514459"><ele>178.46</ele><time>2012-08-10T09:52:42Z</time></trkpt><trkpt lat="57.5799471885" lon="-5.1348499395"><ele>177.50</ele><time>2012-08-10T09:53:04Z</time></trkpt><trkpt lat="57.5800139923" lon="-5.1377851982"><ele>174.14</ele><time>2012-08-10T09:53:10Z</time></trkpt><trkpt lat="57.5795088150" lon="-5.1415961143"><ele>176.06</ele><time>2012-08-10T09:53:18Z</time></trkpt><trkpt lat="57.5793426856" lon="-5.1435030811"><ele>178.46</ele><time>2012-08-10T09:53:22Z</time></trkpt><trkpt lat="57.5792488083" lon="-5.1478571445"><ele>175.58</ele><time>2012-08-10T09:53:31Z</time></trkpt><trkpt lat="57.5792095810" lon="-5.1517864969"><ele>176.54</ele><time>2012-08-10T09:53:39Z</time></trkpt><trkpt lat="57.5791919790" lon="-5.1537751034"><ele>179.90</ele><time>2012-08-10T09:53:43Z</time></trkpt><trkpt lat="57.5788581278" lon="-5.1591703668"><ele>179.90</ele><time>2012-08-10T09:53:54Z</time></trkpt><trkpt lat="57.5785595644" lon="-5.1621046197"><ele>176.06</ele><time>2012-08-10T09:54:00Z</time></trkpt><trkpt lat="57.5785530265" lon="-5.1626086235"><ele>176.06</ele><time>2012-08-10T09:54:01Z</time></trkpt><trkpt lat="57.5785665214" lon="-5.1650991384"><ele>178.94</ele><time>2012-08-10T09:54:06Z</time></trkpt><trkpt lat="57.5785644259" lon="-5.1655873004"><ele>179.42</ele><time>2012-08-10T09:54:07Z</time></trkpt><trkpt lat="57.5785214268" lon="-5.1675430499"><ele>176.06</ele><time>2012-08-10T09:54:11Z</time></trkpt><trkpt lat="57.5781185087" lon="-5.1698867138"><ele>172.69</ele><time>2012-08-10T09:54:16Z</time></trkpt><trkpt lat="57.5780102145" lon="-5.1703327987"><ele>172.69</ele><time>2012-08-10T09:54:17Z</time></trkpt><trkpt lat="57.5774942245" lon="-5.1736295689"><ele>172.21</ele><time>2012-08-10T09:54:24Z</time></trkpt><trkpt lat="57.5774063822" lon="-5.1751069631"><ele>170.77</ele><time>2012-08-10T09:54:27Z</time></trkpt><trkpt lat="57.5770219881" lon="-5.1784405299"><ele>172.69</ele><time>2012-08-10T09:54:34Z</time></trkpt><trkpt lat="57.5769074913" lon="-5.1799055189"><ele>177.50</ele><time>2012-08-10T09:54:37Z</time></trkpt><trkpt lat="57.5769024622" lon="-5.1808994450"><ele>180.87</ele><time>2012-08-10T09:54:39Z</time></trkpt><trkpt lat="57.5769033004" lon="-5.1813876908"><ele>180.38</ele><time>2012-08-10T09:54:40Z</time></trkpt><trkpt lat="57.5766141247" lon="-5.1842096262"><ele>182.79</ele><time>2012-08-10T09:54:46Z</time></trkpt><trkpt lat="57.5759607553" lon="-5.1863872446"><ele>184.71</ele><time>2012-08-10T09:54:51Z</time></trkpt><trkpt lat="57.5750664063" lon="-5.1895260159"><ele>188.08</ele><time>2012-08-10T09:54:58Z</time></trkpt><trkpt lat="57.5745987799" lon="-5.1913474873"><ele>191.44</ele><time>2012-08-10T09:55:02Z</time></trkpt><trkpt lat="57.5742595643" lon="-5.1927152462"><ele>193.36</ele><time>2012-08-10T09:55:05Z</time></trkpt><trkpt lat="57.5738194305" lon="-5.1945432555"><ele>196.73</ele><time>2012-08-10T09:55:09Z</time></trkpt><trkpt lat="57.5731982477" lon="-5.1972665358"><ele>200.09</ele><time>2012-08-10T09:55:15Z</time></trkpt><trkpt lat="57.5724585447" lon="-5.2015521191"><ele>203.46</ele><time>2012-08-10T09:55:24Z</time></trkpt><trkpt lat="57.5724024698" lon="-5.2025463805"><ele>204.42</ele><time>2012-08-10T09:55:26Z</time></trkpt><trkpt lat="57.5723929983" lon="-5.2040117048"><ele>205.86</ele><time>2012-08-10T09:55:29Z</time></trkpt><trkpt lat="57.5724391825" lon="-5.2049703430"><ele>209.22</ele><time>2012-08-10T09:55:31Z</time></trkpt><trkpt lat="57.5725297909" lon="-5.2059057634"><ele>212.59</ele><time>2012-08-10T09:55:33Z</time></trkpt><trkpt lat="57.5726603810" lon="-5.2068243362"><ele>216.43</ele><time>2012-08-10T09:55:35Z</time></trkpt><trkpt lat="57.5727385003" lon="-5.2072770428"><ele>220.28</ele><time>2012-08-10T09:55:36Z</time></trkpt><trkpt lat="57.5729213934" lon="-5.2081585675"><ele>224.12</ele><time>2012-08-10T09:55:38Z</time></trkpt><trkpt lat="57.5732383132" lon="-5.2094259113"><ele>229.89</ele><time>2012-08-10T09:55:41Z</time></trkpt><trkpt lat="57.5735295843" lon="-5.2107212506"><ele>234.22</ele><time>2012-08-10T09:55:44Z</time></trkpt><trkpt lat="57.5737433229" lon="-5.2121044323"><ele>238.06</ele><time>2012-08-10T09:55:47Z</time></trkpt><trkpt lat="57.5738434028" lon="-5.2130450495"><ele>241.91</ele><time>2012-08-10T09:55:49Z</time></trkpt><trkpt lat="57.5741184130" lon="-5.2149038203"><ele>246.23</ele><time>2012-08-10T09:55:53Z</time></trkpt><trkpt lat="57.5745077524" lon="-5.2161850780"><ele>248.64</ele><time>2012-08-10T09:55:56Z</time></trkpt><trkpt lat="57.5759537984" lon="-5.2196859475"><ele>247.68</ele><time>2012-08-10T09:56:05Z</time></trkpt><trkpt lat="57.5769779831" lon="-5.2230743319"><ele>250.56</ele><time>2012-08-10T09:56:13Z</time></trkpt><trkpt lat="57.5776684843" lon="-5.2250621840"><ele>246.23</ele><time>2012-08-10T09:56:18Z</time></trkpt><trkpt lat="57.5779359508" lon="-5.2258033957"><ele>242.39</ele><time>2012-08-10T09:56:20Z</time></trkpt><trkpt lat="57.5783354323" lon="-5.2269248944"><ele>237.58</ele><time>2012-08-10T09:56:23Z</time></trkpt><trkpt lat="57.5785919186" lon="-5.2276446484"><ele>233.26</ele><time>2012-08-10T09:56:25Z</time></trkpt><trkpt lat="57.5788655039" lon="-5.2283210680"><ele>228.93</ele><time>2012-08-10T09:56:27Z</time></trkpt><trkpt lat="57.5790162943" lon="-5.2286461182"><ele>227.49</ele><time>2012-08-10T09:56:28Z</time></trkpt><trkpt lat="57.5794804841" lon="-5.2296065167"><ele>224.12</ele><time>2012-08-10T09:56:31Z</time></trkpt><trkpt lat="57.5798207894" lon="-5.2302331477"><ele>220.28</ele><time>2012-08-10T09:56:33Z</time></trkpt><trkpt lat="57.5799755193" lon="-5.2305781469"><ele>218.84</ele><time>2012-08-10T09:56:34Z</time></trkpt><trkpt lat="57.5801263098" lon="-5.2309791371"><ele>217.40</ele><time>2012-08-10T09:56:35Z</time></trkpt><trkpt lat="57.5804558862" lon="-5.2321143821"><ele>214.03</ele><time>2012-08-10T09:56:38Z</time></trkpt><trkpt lat="57.5806486700" lon="-5.2328491397"><ele>211.63</ele><time>2012-08-10T09:56:40Z</time></trkpt><trkpt lat="57.5807668548" lon="-5.2331752796"><ele>211.15</ele><time>2012-08-10T09:56:41Z</time></trkpt><trkpt lat="57.5812870357" lon="-5.2344339062"><ele>207.78</ele><time>2012-08-10T09:56:45Z</time></trkpt><trkpt lat="57.5817093160" lon="-5.2353142574"><ele>203.46</ele><time>2012-08-10T09:56:48Z</time></trkpt><trkpt lat="57.5821466837" lon="-5.2360934392"><ele>199.61</ele><time>2012-08-10T09:56:51Z</time></trkpt><trkpt lat="57.5823159982" lon="-5.2363231871"><ele>198.17</ele><time>2012-08-10T09:56:52Z</time></trkpt><trkpt lat="57.5824997295" lon="-5.2365428768"><ele>196.73</ele><time>2012-08-10T09:56:53Z</time></trkpt><trkpt lat="57.5826933514" lon="-5.2367583755"><ele>195.28</ele><time>2012-08-10T09:56:54Z</time></trkpt><trkpt lat="57.5828941818" lon="-5.2369726170"><ele>192.40</ele><time>2012-08-10T09:56:55Z</time></trkpt><trkpt lat="57.5831009634" lon="-5.2371865232"><ele>190.00</ele><time>2012-08-10T09:56:56Z</time></trkpt><trkpt lat="57.5833091699" lon="-5.2374105714"><ele>188.56</ele><time>2012-08-10T09:56:57Z</time></trkpt><trkpt lat="57.5835224055" lon="-5.2376399003"><ele>186.15</ele><time>2012-08-10T09:56:58Z</time></trkpt><trkpt lat="57.5837505609" lon="-5.2378822211"><ele>182.79</ele><time>2012-08-10T09:56:59Z</time></trkpt><trkpt lat="57.5841828994" lon="-5.2383490093"><ele>178.94</ele><time>2012-08-10T09:57:01Z</time></trkpt><trkpt lat="57.5844061933" lon="-5.2385951858"><ele>175.58</ele><time>2012-08-10T09:57:02Z</time></trkpt><trkpt lat="57.5848552119" lon="-5.2390872035"><ele>171.73</ele><time>2012-08-10T09:57:04Z</time></trkpt><trkpt lat="57.5851284619" lon="-5.2393952385"><ele>167.89</ele><time>2012-08-10T09:57:05Z</time></trkpt><trkpt lat="57.5853479002" lon="-5.2396499645"><ele>166.45</ele><time>2012-08-10T09:57:06Z</time></trkpt><trkpt lat="57.5855893828" lon="-5.2399339434"><ele>165.00</ele><time>2012-08-10T09:57:07Z</time></trkpt><trkpt lat="57.5861720089" lon="-5.2406303119"><ele>161.64</ele><time>2012-08-10T09:57:10Z</time></trkpt><trkpt lat="57.5864758529" lon="-5.2410080004"><ele>160.20</ele><time>2012-08-10T09:57:11Z</time></trkpt><trkpt lat="57.5869990513" lon="-5.2417582646"><ele>156.83</ele><time>2012-08-10T09:57:14Z</time></trkpt><trkpt lat="57.5874971040" lon="-5.2425991371"><ele>152.51</ele><time>2012-08-10T09:57:17Z</time></trkpt><trkpt lat="57.5877330545" lon="-5.2430657577"><ele>149.62</ele><time>2012-08-10T09:57:18Z</time></trkpt><trkpt lat="57.5880767964" lon="-5.2437965758"><ele>146.26</ele><time>2012-08-10T09:57:20Z</time></trkpt><trkpt lat="57.5882397406" lon="-5.2441843227"><ele>143.37</ele><time>2012-08-10T09:57:21Z</time></trkpt><trkpt lat="57.5883945543" lon="-5.2445857320"><ele>141.93</ele><time>2012-08-10T09:57:22Z</time></trkpt><trkpt lat="57.5885408185" lon="-5.2449925896"><ele>140.01</ele><time>2012-08-10T09:57:23Z</time></trkpt><trkpt lat="57.5888253003" lon="-5.2458126750"><ele>136.64</ele><time>2012-08-10T09:57:25Z</time></trkpt><trkpt lat="57.5889710616" lon="-5.2462569997"><ele>135.20</ele><time>2012-08-10T09:57:26Z</time></trkpt><trkpt lat="57.5891066808" lon="-5.2466700599"><ele>133.76</ele><time>2012-08-10T09:57:27Z</time></trkpt><trkpt lat="57.5892596506" lon="-5.2471236885"><ele>132.32</ele><time>2012-08-10T09:57:28Z</time></trkpt><trkpt lat="57.5896249339" lon="-5.2481241524"><ele>127.99</ele><time>2012-08-10T09:57:31Z</time></trkpt><trkpt lat="57.5898680929" lon="-5.2486311737"><ele>126.55</ele><time>2012-08-10T09:57:32Z</time></trkpt><trkpt lat="57.5904249866" lon="-5.2495017182"><ele>121.74</ele><time>2012-08-10T09:57:35Z</time></trkpt><trkpt lat="57.5906235538" lon="-5.2497437038"><ele>118.86</ele><time>2012-08-10T09:57:36Z</time></trkpt><trkpt lat="57.5908131525" lon="-5.2500400040"><ele>117.42</ele><time>2012-08-10T09:57:37Z</time></trkpt><trkpt lat="57.5912624225" lon="-5.2508328483"><ele>114.05</ele><time>2012-08-10T09:57:40Z</time></trkpt><trkpt lat="57.5917397719" lon="-5.2515811007"><ele>111.17</ele><time>2012-08-10T09:57:43Z</time></trkpt><trkpt lat="57.5922121760" lon="-5.2523235697"><ele>107.81</ele><time>2012-08-10T09:57:46Z</time></trkpt><trkpt lat="57.5923638046" lon="-5.2525930479"><ele>107.81</ele><time>2012-08-10T09:57:47Z</time></trkpt><trkpt lat="57.5933119655" lon="-5.2548944671"><ele>106.36</ele><time>2012-08-10T09:57:54Z</time></trkpt><trkpt lat="57.5935620815" lon="-5.2556354273"><ele>105.40</ele><time>2012-08-10T09:57:56Z</time></trkpt><trkpt lat="57.5945652276" lon="-5.2578376886"><ele>101.08</ele><time>2012-08-10T09:58:02Z</time></trkpt><trkpt lat="57.5953321718" lon="-5.2592228819"><ele>97.71</ele><time>2012-08-10T09:58:06Z</time></trkpt><trkpt lat="57.5960516743" lon="-5.2607206441"><ele>93.87</ele><time>2012-08-10T09:58:10Z</time></trkpt><trkpt lat="57.5964074023" lon="-5.2614512108"><ele>92.90</ele><time>2012-08-10T09:58:12Z</time></trkpt><trkpt lat="57.5973126478" lon="-5.2632337064"><ele>89.06</ele><time>2012-08-10T09:58:17Z</time></trkpt><trkpt lat="57.5974990614" lon="-5.2635859139"><ele>90.02</ele><time>2012-08-10T09:58:18Z</time></trkpt><trkpt lat="57.5980682764" lon="-5.2646310534"><ele>86.66</ele><time>2012-08-10T09:58:21Z</time></trkpt><trkpt lat="57.5990429241" lon="-5.2663250361"><ele>83.77</ele><time>2012-08-10T09:58:26Z</time></trkpt><trkpt lat="57.5998262130" lon="-5.2676470298"><ele>79.93</ele><time>2012-08-10T09:58:30Z</time></trkpt><trkpt lat="57.6002142951" lon="-5.2683037519"><ele>79.45</ele><time>2012-08-10T09:58:32Z</time></trkpt><trkpt lat="57.6011825725" lon="-5.2699877601"><ele>76.08</ele><time>2012-08-10T09:58:37Z</time></trkpt><trkpt lat="57.6017019991" lon="-5.2711591311"><ele>72.24</ele><time>2012-08-10T09:58:40Z</time></trkpt><trkpt lat="57.6021316554" lon="-5.2724730782"><ele>67.91</ele><time>2012-08-10T09:58:43Z</time></trkpt><trkpt lat="57.6025616471" lon="-5.2743974794"><ele>64.07</ele><time>2012-08-10T09:58:47Z</time></trkpt><trkpt lat="57.6026454661" lon="-5.2748962026"><ele>63.10</ele><time>2012-08-10T09:58:48Z</time></trkpt><trkpt lat="57.6030684169" lon="-5.2779077366"><ele>60.22</ele><time>2012-08-10T09:58:54Z</time></trkpt><trkpt lat="57.6032601111" lon="-5.2793918364"><ele>58.30</ele><time>2012-08-10T09:58:57Z</time></trkpt><trkpt lat="57.6036206167" lon="-5.2829129063"><ele>55.89</ele><time>2012-08-10T09:59:04Z</time></trkpt><trkpt lat="57.6036865823" lon="-5.2869313583"><ele>52.53</ele><time>2012-08-10T09:59:12Z</time></trkpt><trkpt lat="57.6037463453" lon="-5.2885510772"><ele>50.61</ele><time>2012-08-10T09:59:16Z</time></trkpt><trkpt lat="57.6037772745" lon="-5.2907349821"><ele>47.72</ele><time>2012-08-10T09:59:22Z</time></trkpt><trkpt lat="57.6035808865" lon="-5.2930467948"><ele>45.80</ele><time>2012-08-10T09:59:29Z</time></trkpt><trkpt lat="57.6035636198" lon="-5.2959255595"><ele>45.32</ele><time>2012-08-10T09:59:39Z</time></trkpt><trkpt lat="57.6038150769" lon="-5.2978554927"><ele>41.47</ele><time>2012-08-10T09:59:46Z</time></trkpt><trkpt lat="57.6041242853" lon="-5.3004432376"><ele>38.59</ele><time>2012-08-10T09:59:57Z</time></trkpt><trkpt lat="57.6043482497" lon="-5.3023369610"><ele>39.07</ele><time>2012-08-10T10:00:06Z</time></trkpt><trkpt lat="57.6047402713" lon="-5.3042155132"><ele>40.99</ele><time>2012-08-10T10:00:15Z</time></trkpt><trkpt lat="57.6056768652" lon="-5.3061766271"><ele>40.51</ele><time>2012-08-10T10:00:26Z</time></trkpt><trkpt lat="57.6061681286" lon="-5.3068056051"><ele>40.99</ele><time>2012-08-10T10:00:30Z</time></trkpt><trkpt lat="57.6063407958" lon="-5.3069356922"><ele>42.92</ele><time>2012-08-10T10:00:31Z</time></trkpt><trkpt lat="57.6065292209" lon="-5.3070430644"><ele>43.40</ele><time>2012-08-10T10:00:32Z</time></trkpt><trkpt lat="57.6080502011" lon="-5.3079487290"><ele>41.95</ele><time>2012-08-10T10:00:40Z</time></trkpt><trkpt lat="57.6092178002" lon="-5.3095601499"><ele>40.03</ele><time>2012-08-10T10:00:47Z</time></trkpt><trkpt lat="57.6097679883" lon="-5.3105858434"><ele>37.63</ele><time>2012-08-10T10:00:51Z</time></trkpt><trkpt lat="57.6107942685" lon="-5.3123302851"><ele>37.15</ele><time>2012-08-10T10:00:58Z</time></trkpt><trkpt lat="57.6128568035" lon="-5.3155450802"><ele>34.26</ele><time>2012-08-10T10:01:12Z</time></trkpt><trkpt lat="57.6134122722" lon="-5.3164195642"><ele>32.34</ele><time>2012-08-10T10:01:17Z</time></trkpt><trkpt lat="57.6146059390" lon="-5.3182670195"><ele>32.34</ele><time>2012-08-10T10:01:28Z</time></trkpt><trkpt lat="57.6157037169" lon="-5.3200432286"><ele>31.86</ele><time>2012-08-10T10:01:39Z</time></trkpt><trkpt lat="57.6171546243" lon="-5.3226053249"><ele>28.98</ele><time>2012-08-10T10:01:52Z</time></trkpt><trkpt lat="57.6178643201" lon="-5.3241101280"><ele>28.02</ele><time>2012-08-10T10:01:59Z</time></trkpt><trkpt lat="57.6181052160" lon="-5.3249414451"><ele>28.98</ele><time>2012-08-10T10:02:02Z</time></trkpt><trkpt lat="57.6186732575" lon="-5.3274341393"><ele>30.42</ele><time>2012-08-10T10:02:10Z</time></trkpt><trkpt lat="57.6187776122" lon="-5.3276886139"><ele>29.94</ele><time>2012-08-10T10:02:11Z</time></trkpt><trkpt lat="57.6188964676" lon="-5.3279197030"><ele>29.94</ele><time>2012-08-10T10:02:12Z</time></trkpt><trkpt lat="57.6203656476" lon="-5.3300426714"><ele>27.53</ele><time>2012-08-10T10:02:22Z</time></trkpt><trkpt lat="57.6212211046" lon="-5.3313763160"><ele>28.98</ele><time>2012-08-10T10:02:28Z</time></trkpt><trkpt lat="57.6230132394" lon="-5.3340451978"><ele>27.05</ele><time>2012-08-10T10:02:40Z</time></trkpt><trkpt lat="57.6231747586" lon="-5.3342220560"><ele>26.57</ele><time>2012-08-10T10:02:41Z</time></trkpt><trkpt lat="57.6233440731" lon="-5.3343735170"><ele>26.57</ele><time>2012-08-10T10:02:42Z</time></trkpt><trkpt lat="57.6245441101" lon="-5.3353982046"><ele>27.05</ele><time>2012-08-10T10:02:49Z</time></trkpt><trkpt lat="57.6246840879" lon="-5.3356377594"><ele>26.57</ele><time>2012-08-10T10:02:50Z</time></trkpt><trkpt lat="57.6249342877" lon="-5.3361931443"><ele>27.05</ele><time>2012-08-10T10:02:52Z</time></trkpt><trkpt lat="57.6250326075" lon="-5.3365067113"><ele>27.53</ele><time>2012-08-10T10:02:53Z</time></trkpt><trkpt lat="57.6261380129" lon="-5.3398856241"><ele>28.98</ele><time>2012-08-10T10:03:04Z</time></trkpt><trkpt lat="57.6275145728" lon="-5.3430554084"><ele>25.61</ele><time>2012-08-10T10:03:16Z</time></trkpt><trkpt lat="57.6276423968" lon="-5.3432727512"><ele>24.65</ele><time>2012-08-10T10:03:17Z</time></trkpt><trkpt lat="57.6277863141" lon="-5.3434624337"><ele>25.13</ele><time>2012-08-10T10:03:18Z</time></trkpt><trkpt lat="57.6279407926" lon="-5.3436231986"><ele>25.13</ele><time>2012-08-10T10:03:19Z</time></trkpt><trkpt lat="57.6281054970" lon="-5.3437517770"><ele>25.13</ele><time>2012-08-10T10:03:20Z</time></trkpt><trkpt lat="57.6291363034" lon="-5.3444069903"><ele>27.53</ele><time>2012-08-10T10:03:26Z</time></trkpt><trkpt lat="57.6292922907" lon="-5.3445842676"><ele>27.53</ele><time>2012-08-10T10:03:27Z</time></trkpt><trkpt lat="57.6294469368" lon="-5.3447833378"><ele>27.53</ele><time>2012-08-10T10:03:28Z</time></trkpt><trkpt lat="57.6295937877" lon="-5.3450130019"><ele>28.50</ele><time>2012-08-10T10:03:29Z</time></trkpt><trkpt lat="57.6297268923" lon="-5.3452717513"><ele>28.50</ele><time>2012-08-10T10:03:30Z</time></trkpt><trkpt lat="57.6298433170" lon="-5.3455571551"><ele>28.02</ele><time>2012-08-10T10:03:31Z</time></trkpt><trkpt lat="57.6299421396" lon="-5.3458680399"><ele>28.50</ele><time>2012-08-10T10:03:32Z</time></trkpt><trkpt lat="57.6303308085" lon="-5.3482477460"><ele>28.50</ele><time>2012-08-10T10:03:39Z</time></trkpt><trkpt lat="57.6307700202" lon="-5.3509307932"><ele>28.50</ele><time>2012-08-10T10:03:47Z</time></trkpt><trkpt lat="57.6308593713" lon="-5.3512363974"><ele>27.53</ele><time>2012-08-10T10:03:48Z</time></trkpt><trkpt lat="57.6309682522" lon="-5.3515209630"><ele>28.02</ele><time>2012-08-10T10:03:49Z</time></trkpt><trkpt lat="57.6311031170" lon="-5.3517764434"><ele>28.02</ele><time>2012-08-10T10:03:50Z</time></trkpt><trkpt lat="57.6312531531" lon="-5.3520027548"><ele>28.98</ele><time>2012-08-10T10:03:51Z</time></trkpt><trkpt lat="57.6314151753" lon="-5.3521982208"><ele>28.02</ele><time>2012-08-10T10:03:52Z</time></trkpt><trkpt lat="57.6315865852" lon="-5.3523598239"><ele>28.02</ele><time>2012-08-10T10:03:53Z</time></trkpt><trkpt lat="57.6321113762" lon="-5.3528054059"><ele>28.02</ele><time>2012-08-10T10:03:56Z</time></trkpt><trkpt lat="57.6324227639" lon="-5.3532234952"><ele>28.50</ele><time>2012-08-10T10:03:58Z</time></trkpt><trkpt lat="57.6325562876" lon="-5.3534811549"><ele>28.02</ele><time>2012-08-10T10:03:59Z</time></trkpt><trkpt lat="57.6326737180" lon="-5.3537668940"><ele>28.50</ele><time>2012-08-10T10:04:00Z</time></trkpt><trkpt lat="57.6327732950" lon="-5.3540801257"><ele>28.98</ele><time>2012-08-10T10:04:01Z</time></trkpt><trkpt lat="57.6334290113" lon="-5.3567159828"><ele>25.61</ele><time>2012-08-10T10:04:09Z</time></trkpt><trkpt lat="57.6335411612" lon="-5.3570008837"><ele>25.61</ele><time>2012-08-10T10:04:10Z</time></trkpt><trkpt lat="57.6346673537" lon="-5.3590031527"><ele>26.09</ele><time>2012-08-10T10:04:18Z</time></trkpt><trkpt lat="57.6347931661" lon="-5.3592851199"><ele>26.57</ele><time>2012-08-10T10:04:19Z</time></trkpt><trkpt lat="57.6354458649" lon="-5.3617392574"><ele>28.98</ele><time>2012-08-10T10:04:26Z</time></trkpt><trkpt lat="57.6358052809" lon="-5.3636955936"><ele>29.46</ele><time>2012-08-10T10:04:31Z</time></trkpt><trkpt lat="57.6359235495" lon="-5.3640339710"><ele>29.94</ele><time>2012-08-10T10:04:32Z</time></trkpt><trkpt lat="57.6360581629" lon="-5.3643461131"><ele>29.46</ele><time>2012-08-10T10:04:33Z</time></trkpt><trkpt lat="57.6363670360" lon="-5.3648838960"><ele>30.42</ele><time>2012-08-10T10:04:35Z</time></trkpt><trkpt lat="57.6365452353" lon="-5.3651087824"><ele>29.94</ele><time>2012-08-10T10:04:36Z</time></trkpt><trkpt lat="57.6367360074" lon="-5.3653070983"><ele>30.90</ele><time>2012-08-10T10:04:37Z</time></trkpt><trkpt lat="57.6386065129" lon="-5.3666823171"><ele>32.34</ele><time>2012-08-10T10:04:46Z</time></trkpt><trkpt lat="57.6413469762" lon="-5.3687071335"><ele>30.42</ele><time>2012-08-10T10:05:00Z</time></trkpt><trkpt lat="57.6427641045" lon="-5.3707947303"><ele>32.34</ele><time>2012-08-10T10:05:09Z</time></trkpt><trkpt lat="57.6443435065" lon="-5.3739023209"><ele>33.30</ele><time>2012-08-10T10:05:19Z</time></trkpt><trkpt lat="57.6450695470" lon="-5.3757222835"><ele>36.19</ele><time>2012-08-10T10:05:25Z</time></trkpt><trkpt lat="57.6453036536" lon="-5.3763488308"><ele>38.11</ele><time>2012-08-10T10:05:27Z</time></trkpt><trkpt lat="57.6456328109" lon="-5.3773192037"><ele>41.95</ele><time>2012-08-10T10:05:30Z</time></trkpt><trkpt lat="57.6458649058" lon="-5.3779717349"><ele>45.80</ele><time>2012-08-10T10:05:32Z</time></trkpt><trkpt lat="57.6476030611" lon="-5.3824242856"><ele>42.44</ele><time>2012-08-10T10:05:46Z</time></trkpt><trkpt lat="57.6477368362" lon="-5.3827358410"><ele>42.44</ele><time>2012-08-10T10:05:47Z</time></trkpt><trkpt lat="57.6486326102" lon="-5.3848687001"><ele>46.76</ele><time>2012-08-10T10:05:54Z</time></trkpt><trkpt lat="57.6500056498" lon="-5.3876012005"><ele>44.84</ele><time>2012-08-10T10:06:04Z</time></trkpt><trkpt lat="57.6503380761" lon="-5.3880877700"><ele>42.44</ele><time>2012-08-10T10:06:06Z</time></trkpt><trkpt lat="57.6508841570" lon="-5.3887709789"><ele>40.03</ele><time>2012-08-10T10:06:09Z</time></trkpt><trkpt lat="57.6516763307" lon="-5.3896459658"><ele>36.67</ele><time>2012-08-10T10:06:13Z</time></trkpt><trkpt lat="57.6521004550" lon="-5.3900839202"><ele>35.23</ele><time>2012-08-10T10:06:15Z</time></trkpt><trkpt lat="57.6523076557" lon="-5.3903124947"><ele>34.26</ele><time>2012-08-10T10:06:16Z</time></trkpt><trkpt lat="57.6526737772" lon="-5.3907004930"><ele>32.34</ele><time>2012-08-10T10:06:18Z</time></trkpt><trkpt lat="57.6531248074" lon="-5.3912694566"><ele>30.90</ele><time>2012-08-10T10:06:20Z</time></trkpt><trkpt lat="57.6543076616" lon="-5.3932679538"><ele>29.46</ele><time>2012-08-10T10:06:27Z</time></trkpt><trkpt lat="57.6544354856" lon="-5.3935878910"><ele>29.46</ele><time>2012-08-10T10:06:28Z</time></trkpt><trkpt lat="57.6545316260" lon="-5.3939595446"><ele>29.94</ele><time>2012-08-10T10:06:29Z</time></trkpt><trkpt lat="57.6548761223" lon="-5.3955833707"><ele>31.86</ele><time>2012-08-10T10:06:33Z</time></trkpt><trkpt lat="57.6553679723" lon="-5.3989896923"><ele>32.34</ele><time>2012-08-10T10:06:41Z</time></trkpt><trkpt lat="57.6552915294" lon="-5.4007482156"><ele>35.71</ele><time>2012-08-10T10:06:45Z</time></trkpt><trkpt lat="57.6550103165" lon="-5.4028752074"><ele>38.59</ele><time>2012-08-10T10:06:50Z</time></trkpt><trkpt lat="57.6547560096" lon="-5.4050598666"><ele>42.44</ele><time>2012-08-10T10:06:55Z</time></trkpt><trkpt lat="57.6545351464" lon="-5.4074698314"><ele>43.88</ele><time>2012-08-10T10:07:01Z</time></trkpt><trkpt lat="57.6544582006" lon="-5.4078408983"><ele>43.88</ele><time>2012-08-10T10:07:02Z</time></trkpt><trkpt lat="57.6543513313" lon="-5.4081983026"><ele>44.36</ele><time>2012-08-10T10:07:03Z</time></trkpt><trkpt lat="57.6542148739" lon="-5.4085246939"><ele>44.84</ele><time>2012-08-10T10:07:04Z</time></trkpt><trkpt lat="57.6540674362" lon="-5.4088328965"><ele>44.84</ele><time>2012-08-10T10:07:05Z</time></trkpt><trkpt lat="57.6536513586" lon="-5.4096897785"><ele>41.95</ele><time>2012-08-10T10:07:08Z</time></trkpt><trkpt lat="57.6535309944" lon="-5.4099697340"><ele>41.47</ele><time>2012-08-10T10:07:09Z</time></trkpt><trkpt lat="57.6534289867" lon="-5.4102724884"><ele>40.99</ele><time>2012-08-10T10:07:10Z</time></trkpt><trkpt lat="57.6533471793" lon="-5.4106021486"><ele>41.47</ele><time>2012-08-10T10:07:11Z</time></trkpt><trkpt lat="57.6532857399" lon="-5.4109525122"><ele>41.95</ele><time>2012-08-10T10:07:12Z</time></trkpt><trkpt lat="57.6532508712" lon="-5.4113183822"><ele>41.95</ele><time>2012-08-10T10:07:13Z</time></trkpt><trkpt lat="57.6532382146" lon="-5.4117003456"><ele>41.95</ele><time>2012-08-10T10:07:14Z</time></trkpt><trkpt lat="57.6532735862" lon="-5.4120776989"><ele>41.95</ele><time>2012-08-10T10:07:15Z</time></trkpt><trkpt lat="57.6533341035" lon="-5.4124546330"><ele>41.47</ele><time>2012-08-10T10:07:16Z</time></trkpt><trkpt lat="57.6534235384" lon="-5.4128154740"><ele>41.47</ele><time>2012-08-10T10:07:17Z</time></trkpt><trkpt lat="57.6535345986" lon="-5.4131611437"><ele>41.47</ele><time>2012-08-10T10:07:18Z</time></trkpt><trkpt lat="57.6536609977" lon="-5.4134947434"><ele>40.99</ele><time>2012-08-10T10:07:19Z</time></trkpt><trkpt lat="57.6540922467" lon="-5.4144337680"><ele>40.03</ele><time>2012-08-10T10:07:22Z</time></trkpt><trkpt lat="57.6542698592" lon="-5.4147124663"><ele>40.51</ele><time>2012-08-10T10:07:23Z</time></trkpt><trkpt lat="57.6561240200" lon="-5.4172158055"><ele>39.07</ele><time>2012-08-10T10:07:32Z</time></trkpt><trkpt lat="57.6586195640" lon="-5.4205880966"><ele>35.71</ele><time>2012-08-10T10:07:44Z</time></trkpt><trkpt lat="57.6602979563" lon="-5.4233431444"><ele>35.23</ele><time>2012-08-10T10:07:53Z</time></trkpt><trkpt lat="57.6610891242" lon="-5.4258227628"><ele>38.59</ele><time>2012-08-10T10:07:59Z</time></trkpt><trkpt lat="57.6614248194" lon="-5.4271216225"><ele>40.51</ele><time>2012-08-10T10:08:02Z</time></trkpt><trkpt lat="57.6617486961" lon="-5.4283569474"><ele>42.44</ele><time>2012-08-10T10:08:05Z</time></trkpt><trkpt lat="57.6624975353" lon="-5.4312052857"><ele>45.80</ele><time>2012-08-10T10:08:12Z</time></trkpt><trkpt lat="57.6629158761" lon="-5.4328530002"><ele>43.40</ele><time>2012-08-10T10:08:16Z</time></trkpt><trkpt lat="57.6635748614" lon="-5.4353662301"><ele>39.07</ele><time>2012-08-10T10:08:22Z</time></trkpt><trkpt lat="57.6637833193" lon="-5.4361895844"><ele>38.11</ele><time>2012-08-10T10:08:24Z</time></trkpt><trkpt lat="57.6641298272" lon="-5.4378728382"><ele>39.07</ele><time>2012-08-10T10:08:28Z</time></trkpt><trkpt lat="57.6649499126" lon="-5.4412578698"><ele>39.07</ele><time>2012-08-10T10:08:36Z</time></trkpt><trkpt lat="57.6667026524" lon="-5.4468289856"><ele>40.03</ele><time>2012-08-10T10:08:50Z</time></trkpt><trkpt lat="57.6676865201" lon="-5.4504364729"><ele>43.40</ele><time>2012-08-10T10:08:59Z</time></trkpt><trkpt lat="57.6688701287" lon="-5.4521318804"><ele>46.76</ele><time>2012-08-10T10:09:05Z</time></trkpt><trkpt lat="57.6692971867" lon="-5.4526100680"><ele>48.20</ele><time>2012-08-10T10:09:07Z</time></trkpt><trkpt lat="57.6700949762" lon="-5.4536737315"><ele>51.09</ele><time>2012-08-10T10:09:11Z</time></trkpt><trkpt lat="57.6702816412" lon="-5.4539805930"><ele>51.09</ele><time>2012-08-10T10:09:12Z</time></trkpt><trkpt lat="57.6711895689" lon="-5.4562733788"><ele>52.53</ele><time>2012-08-10T10:09:18Z</time></trkpt><trkpt lat="57.6720331237" lon="-5.4597458337"><ele>55.89</ele><time>2012-08-10T10:09:26Z</time></trkpt><trkpt lat="57.6721751969" lon="-5.4606583714"><ele>57.34</ele><time>2012-08-10T10:09:28Z</time></trkpt><trkpt lat="57.6725995727" lon="-5.4628358223"><ele>59.74</ele><time>2012-08-10T10:09:33Z</time></trkpt><trkpt lat="57.6727314200" lon="-5.4631865211"><ele>59.74</ele><time>2012-08-10T10:09:34Z</time></trkpt><trkpt lat="57.6728846412" lon="-5.4635050334"><ele>59.74</ele><time>2012-08-10T10:09:35Z</time></trkpt><trkpt lat="57.6730504353" lon="-5.4638051894"><ele>60.70</ele><time>2012-08-10T10:09:36Z</time></trkpt><trkpt lat="57.6732395310" lon="-5.4640656151"><ele>61.18</ele><time>2012-08-10T10:09:37Z</time></trkpt><trkpt lat="57.6734422054" lon="-5.4642989673"><ele>62.14</ele><time>2012-08-10T10:09:38Z</time></trkpt><trkpt lat="57.6736590452" lon="-5.4645027313"><ele>62.62</ele><time>2012-08-10T10:09:39Z</time></trkpt><trkpt lat="57.6738851890" lon="-5.4646826070"><ele>63.58</ele><time>2012-08-10T10:09:40Z</time></trkpt><trkpt lat="57.6751690451" lon="-5.4659985658"><ele>63.10</ele><time>2012-08-10T10:09:46Z</time></trkpt><trkpt lat="57.6753397845" lon="-5.4663303215"><ele>62.62</ele><time>2012-08-10T10:09:47Z</time></trkpt><trkpt lat="57.6754885633" lon="-5.4666967783"><ele>62.62</ele><time>2012-08-10T10:09:48Z</time></trkpt><trkpt lat="57.6756127831" lon="-5.4670929071"><ele>62.14</ele><time>2012-08-10T10:09:49Z</time></trkpt><trkpt lat="57.6757127792" lon="-5.4675100744"><ele>62.14</ele><time>2012-08-10T10:09:50Z</time></trkpt><trkpt lat="57.6757877134" lon="-5.4679445922"><ele>62.14</ele><time>2012-08-10T10:09:51Z</time></trkpt><trkpt lat="57.6758365799" lon="-5.4683936108"><ele>61.66</ele><time>2012-08-10T10:09:52Z</time></trkpt><trkpt lat="57.6758610550" lon="-5.4688542802"><ele>61.18</ele><time>2012-08-10T10:09:53Z</time></trkpt><trkpt lat="57.6758664194" lon="-5.4693239182"><ele>60.22</ele><time>2012-08-10T10:09:54Z</time></trkpt><trkpt lat="57.6758608874" lon="-5.4697977472"><ele>59.74</ele><time>2012-08-10T10:09:55Z</time></trkpt><trkpt lat="57.6757971849" lon="-5.4722109810"><ele>56.86</ele><time>2012-08-10T10:10:00Z</time></trkpt><trkpt lat="57.6757569518" lon="-5.4736576974"><ele>53.49</ele><time>2012-08-10T10:10:03Z</time></trkpt><trkpt lat="57.6757047325" lon="-5.4760801513"><ele>50.13</ele><time>2012-08-10T10:10:08Z</time></trkpt><trkpt lat="57.6757114381" lon="-5.4780449532"><ele>46.76</ele><time>2012-08-10T10:10:12Z</time></trkpt><trkpt lat="57.6757497434" lon="-5.4795215931"><ele>43.40</ele><time>2012-08-10T10:10:15Z</time></trkpt><trkpt lat="57.6757620648" lon="-5.4800147004"><ele>42.92</ele><time>2012-08-10T10:10:16Z</time></trkpt><trkpt lat="57.6757968497" lon="-5.4814496823"><ele>39.07</ele><time>2012-08-10T10:10:19Z</time></trkpt><trkpt lat="57.6758059859" lon="-5.4823706020"><ele>37.63</ele><time>2012-08-10T10:10:21Z</time></trkpt><trkpt lat="57.6757105999" lon="-5.4837157298"><ele>33.78</ele><time>2012-08-10T10:10:24Z</time></trkpt><trkpt lat="57.6756363362" lon="-5.4841609765"><ele>33.30</ele><time>2012-08-10T10:10:25Z</time></trkpt><trkpt lat="57.6755379327" lon="-5.4845967516"><ele>32.34</ele><time>2012-08-10T10:10:26Z</time></trkpt><trkpt lat="57.6754174009" lon="-5.4850113206"><ele>32.34</ele><time>2012-08-10T10:10:27Z</time></trkpt><trkpt lat="57.6752775069" lon="-5.4854043480"><ele>32.34</ele><time>2012-08-10T10:10:28Z</time></trkpt><trkpt lat="57.6751249563" lon="-5.4857876524"><ele>31.86</ele><time>2012-08-10T10:10:29Z</time></trkpt><trkpt lat="57.6743768714" lon="-5.4876761790"><ele>32.34</ele><time>2012-08-10T10:10:34Z</time></trkpt><trkpt lat="57.6742689125" lon="-5.4880791809"><ele>32.34</ele><time>2012-08-10T10:10:35Z</time></trkpt><trkpt lat="57.6741857640" lon="-5.4884957615"><ele>32.34</ele><time>2012-08-10T10:10:36Z</time></trkpt><trkpt lat="57.6741381548" lon="-5.4889167845"><ele>32.82</ele><time>2012-08-10T10:10:37Z</time></trkpt><trkpt lat="57.6741054654" lon="-5.4893439263"><ele>31.86</ele><time>2012-08-10T10:10:38Z</time></trkpt><trkpt lat="57.6740915515" lon="-5.4897713196"><ele>31.86</ele><time>2012-08-10T10:10:39Z</time></trkpt><trkpt lat="57.6740268432" lon="-5.4953363165"><ele>33.30</ele><time>2012-08-10T10:10:52Z</time></trkpt><trkpt lat="57.6742223930" lon="-5.4969334044"><ele>31.86</ele><time>2012-08-10T10:10:56Z</time></trkpt><trkpt lat="57.6748468447" lon="-5.4988508485"><ele>31.38</ele><time>2012-08-10T10:11:02Z</time></trkpt><trkpt lat="57.6758297905" lon="-5.5002525542"><ele>36.19</ele><time>2012-08-10T10:11:08Z</time></trkpt><trkpt lat="57.6762275957" lon="-5.5007217731"><ele>37.15</ele><time>2012-08-10T10:11:10Z</time></trkpt><trkpt lat="57.6780359074" lon="-5.5031593982"><ele>37.15</ele><time>2012-08-10T10:11:20Z</time></trkpt><trkpt lat="57.6799327321" lon="-5.5067154206"><ele>38.11</ele><time>2012-08-10T10:11:32Z</time></trkpt><trkpt lat="57.6801912300" lon="-5.5073540378"><ele>36.67</ele><time>2012-08-10T10:11:34Z</time></trkpt><trkpt lat="57.6802958362" lon="-5.5077054910"><ele>36.67</ele><time>2012-08-10T10:11:35Z</time></trkpt><trkpt lat="57.6803809963" lon="-5.5080755521"><ele>35.71</ele><time>2012-08-10T10:11:36Z</time></trkpt><trkpt lat="57.6807041187" lon="-5.5110630300"><ele>35.23</ele><time>2012-08-10T10:11:43Z</time></trkpt><trkpt lat="57.6807896979" lon="-5.5114843044"><ele>35.23</ele><time>2012-08-10T10:11:44Z</time></trkpt><trkpt lat="57.6812504511" lon="-5.5138882343"><ele>32.82</ele><time>2012-08-10T10:11:50Z</time></trkpt><trkpt lat="57.6812921930" lon="-5.5160114542"><ele>34.26</ele><time>2012-08-10T10:11:55Z</time></trkpt><trkpt lat="57.6813449990" lon="-5.5164369196"><ele>33.78</ele><time>2012-08-10T10:11:56Z</time></trkpt><trkpt lat="57.6814213581" lon="-5.5168553442"><ele>34.26</ele><time>2012-08-10T10:11:57Z</time></trkpt><trkpt lat="57.6815143134" lon="-5.5172637943"><ele>34.26</ele><time>2012-08-10T10:11:58Z</time></trkpt><trkpt lat="57.6815925166" lon="-5.5176869966"><ele>35.23</ele><time>2012-08-10T10:11:59Z</time></trkpt><trkpt lat="57.6819273736" lon="-5.5193076376"><ele>35.23</ele><time>2012-08-10T10:12:03Z</time></trkpt><trkpt lat="57.6819788385" lon="-5.5197180994"><ele>35.23</ele><time>2012-08-10T10:12:04Z</time></trkpt><trkpt lat="57.6820121147" lon="-5.5201335903"><ele>35.71</ele><time>2012-08-10T10:12:05Z</time></trkpt><trkpt lat="57.6820125338" lon="-5.5205685273"><ele>36.19</ele><time>2012-08-10T10:12:06Z</time></trkpt><trkpt lat="57.6819916628" lon="-5.5210137740"><ele>36.19</ele><time>2012-08-10T10:12:07Z</time></trkpt><trkpt lat="57.6819975302" lon="-5.5223134719"><ele>37.63</ele><time>2012-08-10T10:12:10Z</time></trkpt><trkpt lat="57.6820346620" lon="-5.5227389373"><ele>38.11</ele><time>2012-08-10T10:12:11Z</time></trkpt><trkpt lat="57.6820921618" lon="-5.5231538415"><ele>38.11</ele><time>2012-08-10T10:12:12Z</time></trkpt><trkpt lat="57.6826180425" lon="-5.5266857240"><ele>36.67</ele><time>2012-08-10T10:12:21Z</time></trkpt><trkpt lat="57.6826276816" lon="-5.5270871334"><ele>36.67</ele><time>2012-08-10T10:12:22Z</time></trkpt><trkpt lat="57.6824567746" lon="-5.5290282145"><ele>33.30</ele><time>2012-08-10T10:12:27Z</time></trkpt><trkpt lat="57.6822204050" lon="-5.5301875994"><ele>29.94</ele><time>2012-08-10T10:12:31Z</time></trkpt><trkpt lat="57.6820673514" lon="-5.5308720656"><ele>28.50</ele><time>2012-08-10T10:12:34Z</time></trkpt><trkpt lat="57.6818310656" lon="-5.5329638533"><ele>30.90</ele><time>2012-08-10T10:12:44Z</time></trkpt><trkpt lat="57.6818458177" lon="-5.5339404289"><ele>33.30</ele><time>2012-08-10T10:12:49Z</time></trkpt><trkpt lat="57.6818961930" lon="-5.5344409961"><ele>34.26</ele><time>2012-08-10T10:12:52Z</time></trkpt><trkpt lat="57.6820023078" lon="-5.5350814573"><ele>38.11</ele><time>2012-08-10T10:12:55Z</time></trkpt><trkpt lat="57.6821608096" lon="-5.5359706096"><ele>40.99</ele><time>2012-08-10T10:12:58Z</time></trkpt><trkpt lat="57.6824009512" lon="-5.5373062659"><ele>44.84</ele><time>2012-08-10T10:13:02Z</time></trkpt><trkpt lat="57.6826845948" lon="-5.5386881903"><ele>46.76</ele><time>2012-08-10T10:13:06Z</time></trkpt><trkpt lat="57.6828804798" lon="-5.5396579765"><ele>48.20</ele><time>2012-08-10T10:13:09Z</time></trkpt><trkpt lat="57.6832676399" lon="-5.5415494367"><ele>51.57</ele><time>2012-08-10T10:13:16Z</time></trkpt><trkpt lat="57.6834479347" lon="-5.5424656626"><ele>53.01</ele><time>2012-08-10T10:13:20Z</time></trkpt><trkpt lat="57.6836349349" lon="-5.5433876719"><ele>56.37</ele><time>2012-08-10T10:13:24Z</time></trkpt><trkpt lat="57.6836838014" lon="-5.5436217785"><ele>56.37</ele><time>2012-08-10T10:13:25Z</time></trkpt><trkpt lat="57.6844080817" lon="-5.5457036756"><ele>58.78</ele><time>2012-08-10T10:13:35Z</time></trkpt><trkpt lat="57.6847606245" lon="-5.5461785104"><ele>59.74</ele><time>2012-08-10T10:13:38Z</time></trkpt><trkpt lat="57.6849085651" lon="-5.5463205837"><ele>61.18</ele><time>2012-08-10T10:13:39Z</time></trkpt><trkpt lat="57.6852617785" lon="-5.5466354918"><ele>66.95</ele><time>2012-08-10T10:13:41Z</time></trkpt><trkpt lat="57.6856656186" lon="-5.5470098276"><ele>67.91</ele><time>2012-08-10T10:13:43Z</time></trkpt><trkpt lat="57.6865347382" lon="-5.5478151608"><ele>70.31</ele><time>2012-08-10T10:13:47Z</time></trkpt><trkpt lat="57.6869895402" lon="-5.5482543726"><ele>71.27</ele><time>2012-08-10T10:13:49Z</time></trkpt><trkpt lat="57.6885468140" lon="-5.5499245506"><ele>74.64</ele><time>2012-08-10T10:13:56Z</time></trkpt><trkpt lat="57.6889888756" lon="-5.5504568014"><ele>76.08</ele><time>2012-08-10T10:13:58Z</time></trkpt><trkpt lat="57.6898554806" lon="-5.5515435990"><ele>79.45</ele><time>2012-08-10T10:14:02Z</time></trkpt><trkpt lat="57.6900661178" lon="-5.5518215429"><ele>79.93</ele><time>2012-08-10T10:14:03Z</time></trkpt><trkpt lat="57.6910746284" lon="-5.5533322971"><ele>82.81</ele><time>2012-08-10T10:14:08Z</time></trkpt><trkpt lat="57.6914239023" lon="-5.5540536437"><ele>86.18</ele><time>2012-08-10T10:14:10Z</time></trkpt><trkpt lat="57.6916898601" lon="-5.5547368526"><ele>90.50</ele><time>2012-08-10T10:14:12Z</time></trkpt><trkpt lat="57.6920999866" lon="-5.5561410729"><ele>94.83</ele><time>2012-08-10T10:14:15Z</time></trkpt><trkpt lat="57.6923568081" lon="-5.5575312953"><ele>98.19</ele><time>2012-08-10T10:14:18Z</time></trkpt><trkpt lat="57.6924913377" lon="-5.5594790820"><ele>103.48</ele><time>2012-08-10T10:14:22Z</time></trkpt><trkpt lat="57.6924261265" lon="-5.5614614021"><ele>106.36</ele><time>2012-08-10T10:14:26Z</time></trkpt><trkpt lat="57.6923132222" lon="-5.5634431355"><ele>110.21</ele><time>2012-08-10T10:14:30Z</time></trkpt><trkpt lat="57.6922263019" lon="-5.5649271514"><ele>111.65</ele><time>2012-08-10T10:14:33Z</time></trkpt><trkpt lat="57.6921149064" lon="-5.5669240560"><ele>115.50</ele><time>2012-08-10T10:14:37Z</time></trkpt><trkpt lat="57.6920657046" lon="-5.5679221731"><ele>119.82</ele><time>2012-08-10T10:14:39Z</time></trkpt><trkpt lat="57.6920393016" lon="-5.5684177112"><ele>119.34</ele><time>2012-08-10T10:14:40Z</time></trkpt><trkpt lat="57.6919301692" lon="-5.5704008695"><ele>123.67</ele><time>2012-08-10T10:14:44Z</time></trkpt><trkpt lat="57.6918749325" lon="-5.5714196060"><ele>127.51</ele><time>2012-08-10T10:14:46Z</time></trkpt><trkpt lat="57.6917443424" lon="-5.5739362724"><ele>131.36</ele><time>2012-08-10T10:14:51Z</time></trkpt><trkpt lat="57.6916893572" lon="-5.5749400891"><ele>134.24</ele><time>2012-08-10T10:14:53Z</time></trkpt><trkpt lat="57.6915766206" lon="-5.5769532546"><ele>139.05</ele><time>2012-08-10T10:14:57Z</time></trkpt><trkpt lat="57.6914772950" lon="-5.5789022986"><ele>143.37</ele><time>2012-08-10T10:15:01Z</time></trkpt><trkpt lat="57.6914285962" lon="-5.5798392277"><ele>144.34</ele><time>2012-08-10T10:15:03Z</time></trkpt><trkpt lat="57.6910424419" lon="-5.5832068250"><ele>145.30</ele><time>2012-08-10T10:15:11Z</time></trkpt><trkpt lat="57.6907178108" lon="-5.5849575531"><ele>141.93</ele><time>2012-08-10T10:15:17Z</time></trkpt><trkpt lat="57.6905752346" lon="-5.5853825156"><ele>140.97</ele><time>2012-08-10T10:15:19Z</time></trkpt><trkpt lat="57.6899651159" lon="-5.5868846364"><ele>138.57</ele><time>2012-08-10T10:15:27Z</time></trkpt><trkpt lat="57.6896543987" lon="-5.5874095950"><ele>134.72</ele><time>2012-08-10T10:15:30Z</time></trkpt><trkpt lat="57.6891120896" lon="-5.5884062033"><ele>131.36</ele><time>2012-08-10T10:15:35Z</time></trkpt><trkpt lat="57.6889265142" lon="-5.5888817087"><ele>130.88</ele><time>2012-08-10T10:15:37Z</time></trkpt><trkpt lat="57.6888523344" lon="-5.5891453195"><ele>130.40</ele><time>2012-08-10T10:15:38Z</time></trkpt><trkpt lat="57.6887857821" lon="-5.5894129537"><ele>129.92</ele><time>2012-08-10T10:15:39Z</time></trkpt><trkpt lat="57.6887300424" lon="-5.5896752235"><ele>128.95</ele><time>2012-08-10T10:15:40Z</time></trkpt><trkpt lat="57.6886829361" lon="-5.5899307039"><ele>128.47</ele><time>2012-08-10T10:15:41Z</time></trkpt><trkpt lat="57.6886347402" lon="-5.5901751202"><ele>128.47</ele><time>2012-08-10T10:15:42Z</time></trkpt><trkpt lat="57.6880020741" lon="-5.5930868257"><ele>127.03</ele><time>2012-08-10T10:15:55Z</time></trkpt><trkpt lat="57.6874289196" lon="-5.5954069365"><ele>127.03</ele><time>2012-08-10T10:16:06Z</time></trkpt><trkpt lat="57.6872026082" lon="-5.5970605183"><ele>124.63</ele><time>2012-08-10T10:16:16Z</time></trkpt><trkpt lat="57.6871658117" lon="-5.5972669646"><ele>124.15</ele><time>2012-08-10T10:16:26Z</time></trkpt><trkpt lat="57.6871543285" lon="-5.5974159110"><ele>124.63</ele><time>2012-08-10T10:16:28Z</time></trkpt><trkpt lat="57.6871392410" lon="-5.5975191761"><ele>125.11</ele><time>2012-08-10T10:16:29Z</time></trkpt><trkpt lat="57.6869099960" lon="-5.5988248251"><ele>126.07</ele><time>2012-08-10T10:16:39Z</time></trkpt><trkpt lat="57.6868688408" lon="-5.5989973247"><ele>126.07</ele><time>2012-08-10T10:16:40Z</time></trkpt><trkpt lat="57.6868118439" lon="-5.5991648789"><ele>126.07</ele><time>2012-08-10T10:16:41Z</time></trkpt><trkpt lat="57.6867455430" lon="-5.5993305054"><ele>126.55</ele><time>2012-08-10T10:16:42Z</time></trkpt><trkpt lat="57.6866784878" lon="-5.5995010771"><ele>126.07</ele><time>2012-08-10T10:16:43Z</time></trkpt><trkpt lat="57.6866164617" lon="-5.5996853951"><ele>126.07</ele><time>2012-08-10T10:16:44Z</time></trkpt><trkpt lat="57.6865575369" lon="-5.5998812802"><ele>126.07</ele><time>2012-08-10T10:16:45Z</time></trkpt><trkpt lat="57.6860490907" lon="-5.6020709686"><ele>127.51</ele><time>2012-08-10T10:16:55Z</time></trkpt><trkpt lat="57.6857478451" lon="-5.6031440198"><ele>125.59</ele><time>2012-08-10T10:17:00Z</time></trkpt><trkpt lat="57.6856998168" lon="-5.6033648830"><ele>125.59</ele><time>2012-08-10T10:17:01Z</time></trkpt><trkpt lat="57.6856647804" lon="-5.6035929546"><ele>125.59</ele><time>2012-08-10T10:17:02Z</time></trkpt><trkpt lat="57.6856389642" lon="-5.6038315035"><ele>124.63</ele><time>2012-08-10T10:17:03Z</time></trkpt><trkpt lat="57.6856203564" lon="-5.6040759198"><ele>124.15</ele><time>2012-08-10T10:17:04Z</time></trkpt><trkpt lat="57.6855236292" lon="-5.6061724853"><ele>126.07</ele><time>2012-08-10T10:17:14Z</time></trkpt><trkpt lat="57.6855641138" lon="-5.6067069992"><ele>128.47</ele><time>2012-08-10T10:17:17Z</time></trkpt><trkpt lat="57.6858480088" lon="-5.6082478445"><ele>129.92</ele><time>2012-08-10T10:17:26Z</time></trkpt><trkpt lat="57.6859169081" lon="-5.6084202603"><ele>130.40</ele><time>2012-08-10T10:17:27Z</time></trkpt><trkpt lat="57.6860019844" lon="-5.6085909158"><ele>130.88</ele><time>2012-08-10T10:17:28Z</time></trkpt><trkpt lat="57.6864624862" lon="-5.6095374003"><ele>127.03</ele><time>2012-08-10T10:17:34Z</time></trkpt><trkpt lat="57.6865255181" lon="-5.6097114086"><ele>127.03</ele><time>2012-08-10T10:17:35Z</time></trkpt><trkpt lat="57.6869515702" lon="-5.6109683588"><ele>128.47</ele><time>2012-08-10T10:17:42Z</time></trkpt><trkpt lat="57.6870196313" lon="-5.6111960113"><ele>128.47</ele><time>2012-08-10T10:17:43Z</time></trkpt><trkpt lat="57.6871331222" lon="-5.6116835866"><ele>127.03</ele><time>2012-08-10T10:17:45Z</time></trkpt><trkpt lat="57.6871057972" lon="-5.6119806413"><ele>127.03</ele><time>2012-08-10T10:17:46Z</time></trkpt><trkpt lat="57.6870698389" lon="-5.6122623570"><ele>126.55</ele><time>2012-08-10T10:17:47Z</time></trkpt><trkpt lat="57.6870207209" lon="-5.6125379540"><ele>125.59</ele><time>2012-08-10T10:17:48Z</time></trkpt><trkpt lat="57.6869597845" lon="-5.6128016487"><ele>125.11</ele><time>2012-08-10T10:17:49Z</time></trkpt><trkpt lat="57.6868935674" lon="-5.6130504236"><ele>123.67</ele><time>2012-08-10T10:17:50Z</time></trkpt><trkpt lat="57.6868374087" lon="-5.6132985279"><ele>123.19</ele><time>2012-08-10T10:17:51Z</time></trkpt><trkpt lat="57.6867970079" lon="-5.6135633122"><ele>122.22</ele><time>2012-08-10T10:17:52Z</time></trkpt><trkpt lat="57.6867716946" lon="-5.6138474587"><ele>121.74</ele><time>2012-08-10T10:17:53Z</time></trkpt><trkpt lat="57.6867525838" lon="-5.6144382153"><ele>120.30</ele><time>2012-08-10T10:17:55Z</time></trkpt><trkpt lat="57.6868397556" lon="-5.6172257010"><ele>119.34</ele><time>2012-08-10T10:18:04Z</time></trkpt><trkpt lat="57.6868783962" lon="-5.6175298803"><ele>118.38</ele><time>2012-08-10T10:18:05Z</time></trkpt><trkpt lat="57.6869295258" lon="-5.6178302038"><ele>119.34</ele><time>2012-08-10T10:18:06Z</time></trkpt><trkpt lat="57.6871655602" lon="-5.6203279272"><ele>117.90</ele><time>2012-08-10T10:18:14Z</time></trkpt><trkpt lat="57.6869975030" lon="-5.6235435605"><ele>115.98</ele><time>2012-08-10T10:18:25Z</time></trkpt><trkpt lat="57.6869416796" lon="-5.6237319019"><ele>115.98</ele><time>2012-08-10T10:18:26Z</time></trkpt><trkpt lat="57.6868626382" lon="-5.6238653418"><ele>116.46</ele><time>2012-08-10T10:18:27Z</time></trkpt><trkpt lat="57.6867613848" lon="-5.6239409465"><ele>116.46</ele><time>2012-08-10T10:18:28Z</time></trkpt><trkpt lat="57.6866421103" lon="-5.6239640806"><ele>116.94</ele><time>2012-08-10T10:18:29Z</time></trkpt><trkpt lat="57.6865112688" lon="-5.6239567045"><ele>117.90</ele><time>2012-08-10T10:18:30Z</time></trkpt><trkpt lat="57.6863784995" lon="-5.6239417847"><ele>117.90</ele><time>2012-08-10T10:18:31Z</time></trkpt><trkpt lat="57.6861238573" lon="-5.6239550281"><ele>118.38</ele><time>2012-08-10T10:18:33Z</time></trkpt><trkpt lat="57.6860091090" lon="-5.6240151264"><ele>118.38</ele><time>2012-08-10T10:18:34Z</time></trkpt><trkpt lat="57.6859107893" lon="-5.6241269410"><ele>118.38</ele><time>2012-08-10T10:18:35Z</time></trkpt><trkpt lat="57.6858364418" lon="-5.6242825929"><ele>117.90</ele><time>2012-08-10T10:18:36Z</time></trkpt><trkpt lat="57.6857895870" lon="-5.6244761311"><ele>117.90</ele><time>2012-08-10T10:18:37Z</time></trkpt><trkpt lat="57.6857776847" lon="-5.6246935576"><ele>118.38</ele><time>2012-08-10T10:18:38Z</time></trkpt><trkpt lat="57.6858050935" lon="-5.6249188632"><ele>117.90</ele><time>2012-08-10T10:18:39Z</time></trkpt><trkpt lat="57.6858608332" lon="-5.6251510419"><ele>118.38</ele><time>2012-08-10T10:18:40Z</time></trkpt><trkpt lat="57.6859316602" lon="-5.6253921054"><ele>119.34</ele><time>2012-08-10T10:18:41Z</time></trkpt><trkpt lat="57.6865174714" lon="-5.6271409057"><ele>117.90</ele><time>2012-08-10T10:18:48Z</time></trkpt><trkpt lat="57.6866330579" lon="-5.6275933608"><ele>115.01</ele><time>2012-08-10T10:18:50Z</time></trkpt><trkpt lat="57.6866371650" lon="-5.6278158166"><ele>113.57</ele><time>2012-08-10T10:18:51Z</time></trkpt><trkpt lat="57.6866083313" lon="-5.6280225981"><ele>112.61</ele><time>2012-08-10T10:18:52Z</time></trkpt><trkpt lat="57.6865724567" lon="-5.6282111071"><ele>112.13</ele><time>2012-08-10T10:18:53Z</time></trkpt><trkpt lat="57.6865579560" lon="-5.6284043938"><ele>111.65</ele><time>2012-08-10T10:18:54Z</time></trkpt><trkpt lat="57.6865722053" lon="-5.6286089122"><ele>111.17</ele><time>2012-08-10T10:18:55Z</time></trkpt><trkpt lat="57.6865934953" lon="-5.6288309488"><ele>111.17</ele><time>2012-08-10T10:18:56Z</time></trkpt><trkpt lat="57.6865929924" lon="-5.6290627085"><ele>109.73</ele><time>2012-08-10T10:18:57Z</time></trkpt><trkpt lat="57.6865649968" lon="-5.6292845774"><ele>108.77</ele><time>2012-08-10T10:18:58Z</time></trkpt><trkpt lat="57.6865402702" lon="-5.6295022555"><ele>107.81</ele><time>2012-08-10T10:18:59Z</time></trkpt><trkpt lat="57.6865385938" lon="-5.6297265552"><ele>107.81</ele><time>2012-08-10T10:19:00Z</time></trkpt><trkpt lat="57.6865567826" lon="-5.6299681216"><ele>106.84</ele><time>2012-08-10T10:19:01Z</time></trkpt><trkpt lat="57.6865936629" lon="-5.6302338280"><ele>106.36</ele><time>2012-08-10T10:19:02Z</time></trkpt><trkpt lat="57.6869517379" lon="-5.6325228419"><ele>102.52</ele><time>2012-08-10T10:19:09Z</time></trkpt><trkpt lat="57.6871140953" lon="-5.6335488707"><ele>99.15</ele><time>2012-08-10T10:19:12Z</time></trkpt><trkpt lat="57.6872081403" lon="-5.6341678742"><ele>96.27</ele><time>2012-08-10T10:19:14Z</time></trkpt><trkpt lat="57.6872598566" lon="-5.6346779130"><ele>93.39</ele><time>2012-08-10T10:19:16Z</time></trkpt><trkpt lat="57.6872430928" lon="-5.6349053141"><ele>91.46</ele><time>2012-08-10T10:19:17Z</time></trkpt><trkpt lat="57.6871881913" lon="-5.6351027079"><ele>90.98</ele><time>2012-08-10T10:19:18Z</time></trkpt><trkpt lat="57.6871038694" lon="-5.6352530792"><ele>90.02</ele><time>2012-08-10T10:19:19Z</time></trkpt><trkpt lat="57.6870021131" lon="-5.6353840884"><ele>89.54</ele><time>2012-08-10T10:19:20Z</time></trkpt><trkpt lat="57.6868984289" lon="-5.6355185341"><ele>88.58</ele><time>2012-08-10T10:19:21Z</time></trkpt><trkpt lat="57.6868075691" lon="-5.6356777065"><ele>87.62</ele><time>2012-08-10T10:19:22Z</time></trkpt><trkpt lat="57.6867370773" lon="-5.6358704902"><ele>86.18</ele><time>2012-08-10T10:19:23Z</time></trkpt><trkpt lat="57.6866912283" lon="-5.6361037586"><ele>86.18</ele><time>2012-08-10T10:19:24Z</time></trkpt><trkpt lat="57.6866583712" lon="-5.6363674533"><ele>85.21</ele><time>2012-08-10T10:19:25Z</time></trkpt><trkpt lat="57.6865776535" lon="-5.6369144563"><ele>83.77</ele><time>2012-08-10T10:19:27Z</time></trkpt><trkpt lat="57.6865119394" lon="-5.6371911429"><ele>82.81</ele><time>2012-08-10T10:19:28Z</time></trkpt><trkpt lat="57.6862856280" lon="-5.6380424928"><ele>78.48</ele><time>2012-08-10T10:19:31Z</time></trkpt><trkpt lat="57.6861639228" lon="-5.6386137195"><ele>77.04</ele><time>2012-08-10T10:19:33Z</time></trkpt><trkpt lat="57.6861232705" lon="-5.6389105227"><ele>76.08</ele><time>2012-08-10T10:19:34Z</time></trkpt><trkpt lat="57.6860574726" lon="-5.6395047996"><ele>75.12</ele><time>2012-08-10T10:19:36Z</time></trkpt><trkpt lat="57.6860125456" lon="-5.6397779658"><ele>74.16</ele><time>2012-08-10T10:19:37Z</time></trkpt><trkpt lat="57.6859469153" lon="-5.6400350388"><ele>73.68</ele><time>2012-08-10T10:19:38Z</time></trkpt><trkpt lat="57.6858613361" lon="-5.6402689777"><ele>72.72</ele><time>2012-08-10T10:19:39Z</time></trkpt><trkpt lat="57.6854674704" lon="-5.6411867961"><ele>68.87</ele><time>2012-08-10T10:19:43Z</time></trkpt><trkpt lat="57.6852968987" lon="-5.6416524947"><ele>66.47</ele><time>2012-08-10T10:19:45Z</time></trkpt><trkpt lat="57.6852501277" lon="-5.6418981683"><ele>65.51</ele><time>2012-08-10T10:19:46Z</time></trkpt><trkpt lat="57.6852377225" lon="-5.6421487033"><ele>65.03</ele><time>2012-08-10T10:19:47Z</time></trkpt><trkpt lat="57.6852559950" lon="-5.6424115598"><ele>65.51</ele><time>2012-08-10T10:19:48Z</time></trkpt><trkpt lat="57.6852865051" lon="-5.6426907610"><ele>65.99</ele><time>2012-08-10T10:19:49Z</time></trkpt><trkpt lat="57.6855052728" lon="-5.6444234680"><ele>62.62</ele><time>2012-08-10T10:19:55Z</time></trkpt><trkpt lat="57.6858536247" lon="-5.6465043593"><ele>59.74</ele><time>2012-08-10T10:20:02Z</time></trkpt><trkpt lat="57.6860647649" lon="-5.6482884474"><ele>56.37</ele><time>2012-08-10T10:20:08Z</time></trkpt><trkpt lat="57.6861664373" lon="-5.6495792605"><ele>53.01</ele><time>2012-08-10T10:20:12Z</time></trkpt><trkpt lat="57.6861850452" lon="-5.6499054004"><ele>53.01</ele><time>2012-08-10T10:20:13Z</time></trkpt><trkpt lat="57.6862909086" lon="-5.6514538731"><ele>48.68</ele><time>2012-08-10T10:20:18Z</time></trkpt><trkpt lat="57.6863458101" lon="-5.6517179031"><ele>48.68</ele><time>2012-08-10T10:20:19Z</time></trkpt><trkpt lat="57.6868389174" lon="-5.6537721399"><ele>47.72</ele><time>2012-08-10T10:20:27Z</time></trkpt><trkpt lat="57.6871208008" lon="-5.6549206283"><ele>45.32</ele><time>2012-08-10T10:20:31Z</time></trkpt><trkpt lat="57.6876196917" lon="-5.6576144043"><ele>43.40</ele><time>2012-08-10T10:20:40Z</time></trkpt><trkpt lat="57.6877927780" lon="-5.6581707951"><ele>42.92</ele><time>2012-08-10T10:20:42Z</time></trkpt><trkpt lat="57.6878947858" lon="-5.6584300473"><ele>42.92</ele><time>2012-08-10T10:20:43Z</time></trkpt><trkpt lat="57.6880049240" lon="-5.6586638186"><ele>41.47</ele><time>2012-08-10T10:20:44Z</time></trkpt><trkpt lat="57.6881272998" lon="-5.6588701811"><ele>41.47</ele><time>2012-08-10T10:20:45Z</time></trkpt><trkpt lat="57.6882723067" lon="-5.6590432674"><ele>40.99</ele><time>2012-08-10T10:20:46Z</time></trkpt><trkpt lat="57.6884353347" lon="-5.6591770425"><ele>41.47</ele><time>2012-08-10T10:20:47Z</time></trkpt><trkpt lat="57.6886070799" lon="-5.6592847500"><ele>40.99</ele><time>2012-08-10T10:20:48Z</time></trkpt><trkpt lat="57.6887865365" lon="-5.6593797170"><ele>41.47</ele><time>2012-08-10T10:20:49Z</time></trkpt><trkpt lat="57.6901023276" lon="-5.6602470763"><ele>39.07</ele><time>2012-08-10T10:20:57Z</time></trkpt><trkpt lat="57.6907569543" lon="-5.6607375015"><ele>37.15</ele><time>2012-08-10T10:21:02Z</time></trkpt><trkpt lat="57.6908803359" lon="-5.6607494876"><ele>36.67</ele><time>2012-08-10T10:21:03Z</time></trkpt><trkpt lat="57.6910038013" lon="-5.6607062370"><ele>36.67</ele><time>2012-08-10T10:21:04Z</time></trkpt><trkpt lat="57.6911272667" lon="-5.6606001221"><ele>36.19</ele><time>2012-08-10T10:21:05Z</time></trkpt><trkpt lat="57.6912475470" lon="-5.6604520977"><ele>37.15</ele><time>2012-08-10T10:21:06Z</time></trkpt><trkpt lat="57.6913664863" lon="-5.6602829508"><ele>37.15</ele><time>2012-08-10T10:21:07Z</time></trkpt><trkpt lat="57.6932939049" lon="-5.6575913541"><ele>35.23</ele><time>2012-08-10T10:21:23Z</time></trkpt><trkpt lat="57.6937945560" lon="-5.6570240669"><ele>33.78</ele><time>2012-08-10T10:21:28Z</time></trkpt><trkpt lat="57.6938828174" lon="-5.6569853425"><ele>33.78</ele><time>2012-08-10T10:21:29Z</time></trkpt><trkpt lat="57.6939789578" lon="-5.6569701713"><ele>33.30</ele><time>2012-08-10T10:21:30Z</time></trkpt><trkpt lat="57.6949116122" lon="-5.6568915490"><ele>34.26</ele><time>2012-08-10T10:21:37Z</time></trkpt><trkpt lat="57.6962739229" lon="-5.6566942390"><ele>32.82</ele><time>2012-08-10T10:21:45Z</time></trkpt><trkpt lat="57.6964238752" lon="-5.6567350589"><ele>32.34</ele><time>2012-08-10T10:21:46Z</time></trkpt><trkpt lat="57.6965537947" lon="-5.6568398327"><ele>32.34</ele><time>2012-08-10T10:21:47Z</time></trkpt><trkpt lat="57.6966685429" lon="-5.6570003461"><ele>33.30</ele><time>2012-08-10T10:21:48Z</time></trkpt><trkpt lat="57.6967836265" lon="-5.6571842451"><ele>33.78</ele><time>2012-08-10T10:21:49Z</time></trkpt><trkpt lat="57.6972087566" lon="-5.6579103693"><ele>32.82</ele><time>2012-08-10T10:21:53Z</time></trkpt><trkpt lat="57.6973002031" lon="-5.6581209227"><ele>32.82</ele><time>2012-08-10T10:21:54Z</time></trkpt><trkpt lat="57.6973867882" lon="-5.6583500840"><ele>32.82</ele><time>2012-08-10T10:21:55Z</time></trkpt><trkpt lat="57.6984771900" lon="-5.6613489613"><ele>34.74</ele><time>2012-08-10T10:22:07Z</time></trkpt><trkpt lat="57.6986791939" lon="-5.6618545577"><ele>33.78</ele><time>2012-08-10T10:22:09Z</time></trkpt><trkpt lat="57.6999508124" lon="-5.6640387140"><ele>33.30</ele><time>2012-08-10T10:22:19Z</time></trkpt><trkpt lat="57.7002682351" lon="-5.6643051747"><ele>33.78</ele><time>2012-08-10T10:22:21Z</time></trkpt><trkpt lat="57.7004372980" lon="-5.6644034106"><ele>34.26</ele><time>2012-08-10T10:22:22Z</time></trkpt><trkpt lat="57.7010776754" lon="-5.6647776626"><ele>34.74</ele><time>2012-08-10T10:22:26Z</time></trkpt><trkpt lat="57.7012203354" lon="-5.6649226695"><ele>35.23</ele><time>2012-08-10T10:22:27Z</time></trkpt><trkpt lat="57.7013499197" lon="-5.6651191413"><ele>35.71</ele><time>2012-08-10T10:22:28Z</time></trkpt><trkpt lat="57.7019208949" lon="-5.6659089681"><ele>38.11</ele><time>2012-08-10T10:22:32Z</time></trkpt><trkpt lat="57.7020864375" lon="-5.6660284102"><ele>39.55</ele><time>2012-08-10T10:22:33Z</time></trkpt><trkpt lat="57.7022613678" lon="-5.6661143247"><ele>41.95</ele><time>2012-08-10T10:22:34Z</time></trkpt><trkpt lat="57.7024392318" lon="-5.6661968865"><ele>43.88</ele><time>2012-08-10T10:22:35Z</time></trkpt><trkpt lat="57.7026061155" lon="-5.6663022470"><ele>44.36</ele><time>2012-08-10T10:22:36Z</time></trkpt><trkpt lat="57.7027581632" lon="-5.6664180011"><ele>45.32</ele><time>2012-08-10T10:22:37Z</time></trkpt><trkpt lat="57.7028993983" lon="-5.6665129680"><ele>46.28</ele><time>2012-08-10T10:22:38Z</time></trkpt><trkpt lat="57.7030304912" lon="-5.6665704679"><ele>47.24</ele><time>2012-08-10T10:22:39Z</time></trkpt><trkpt lat="57.7032754943" lon="-5.6666396186"><ele>50.61</ele><time>2012-08-10T10:22:41Z</time></trkpt><trkpt lat="57.7034001332" lon="-5.6666879822"><ele>51.09</ele><time>2012-08-10T10:22:42Z</time></trkpt><trkpt lat="57.7035216708" lon="-5.6667570490"><ele>51.09</ele><time>2012-08-10T10:22:43Z</time></trkpt><trkpt lat="57.7036396042" lon="-5.6668514293"><ele>50.61</ele><time>2012-08-10T10:22:44Z</time></trkpt><trkpt lat="57.7037523407" lon="-5.6669800077"><ele>49.65</ele><time>2012-08-10T10:22:45Z</time></trkpt><trkpt lat="57.7038556896" lon="-5.6671455503"><ele>48.68</ele><time>2012-08-10T10:22:46Z</time></trkpt><trkpt lat="57.7039473876" lon="-5.6673473865"><ele>49.16</ele><time>2012-08-10T10:22:47Z</time></trkpt><trkpt lat="57.7040254232" lon="-5.6675789785"><ele>48.20</ele><time>2012-08-10T10:22:48Z</time></trkpt><trkpt lat="57.7040890418" lon="-5.6678267475"><ele>48.20</ele><time>2012-08-10T10:22:49Z</time></trkpt><trkpt lat="57.7041337173" lon="-5.6680828147"><ele>48.68</ele><time>2012-08-10T10:22:50Z</time></trkpt><trkpt lat="57.7041575219" lon="-5.6683413964"><ele>48.20</ele><time>2012-08-10T10:22:51Z</time></trkpt><trkpt lat="57.7041664068" lon="-5.6686019897"><ele>50.13</ele><time>2012-08-10T10:22:52Z</time></trkpt><trkpt lat="57.7041743696" lon="-5.6688635889"><ele>51.09</ele><time>2012-08-10T10:22:53Z</time></trkpt><trkpt lat="57.7042567637" lon="-5.6698941439"><ele>54.93</ele><time>2012-08-10T10:22:57Z</time></trkpt><trkpt lat="57.7042994276" lon="-5.6701383088"><ele>53.97</ele><time>2012-08-10T10:22:58Z</time></trkpt><trkpt lat="57.7043631300" lon="-5.6703670509"><ele>54.45</ele><time>2012-08-10T10:22:59Z</time></trkpt><trkpt lat="57.7044509724" lon="-5.6705850642"><ele>55.41</ele><time>2012-08-10T10:23:00Z</time></trkpt><trkpt lat="57.7045575064" lon="-5.6707941927"><ele>56.86</ele><time>2012-08-10T10:23:01Z</time></trkpt><trkpt lat="57.7046769485" lon="-5.6709897425"><ele>56.86</ele><time>2012-08-10T10:23:02Z</time></trkpt><trkpt lat="57.7048064489" lon="-5.6711704563"><ele>58.30</ele><time>2012-08-10T10:23:03Z</time></trkpt><trkpt lat="57.7049345244" lon="-5.6713473145"><ele>58.30</ele><time>2012-08-10T10:23:04Z</time></trkpt><trkpt lat="57.7054503467" lon="-5.6720644701"><ele>55.41</ele><time>2012-08-10T10:23:08Z</time></trkpt><trkpt lat="57.7065161057" lon="-5.6733241864"><ele>51.09</ele><time>2012-08-10T10:23:15Z</time></trkpt><trkpt lat="57.7070311736" lon="-5.6737637334"><ele>47.72</ele><time>2012-08-10T10:23:18Z</time></trkpt><trkpt lat="57.7076624986" lon="-5.6743971538"><ele>44.36</ele><time>2012-08-10T10:23:22Z</time></trkpt><trkpt lat="57.7080686018" lon="-5.6749260519"><ele>40.51</ele><time>2012-08-10T10:23:25Z</time></trkpt><trkpt lat="57.7084389143" lon="-5.6754441373"><ele>36.19</ele><time>2012-08-10T10:23:28Z</time></trkpt><trkpt lat="57.7088018507" lon="-5.6758480612"><ele>33.30</ele><time>2012-08-10T10:23:31Z</time></trkpt><trkpt lat="57.7094454132" lon="-5.6762740295"><ele>30.90</ele><time>2012-08-10T10:23:36Z</time></trkpt><trkpt lat="57.7099339105" lon="-5.6765586790"><ele>28.50</ele><time>2012-08-10T10:23:40Z</time></trkpt><trkpt lat="57.7108782995" lon="-5.6768524647"><ele>25.13</ele><time>2012-08-10T10:23:48Z</time></trkpt><trkpt lat="57.7114905976" lon="-5.6769678835"><ele>21.29</ele><time>2012-08-10T10:23:53Z</time></trkpt><trkpt lat="57.7120581362" lon="-5.6771630142"><ele>17.92</ele><time>2012-08-10T10:23:58Z</time></trkpt><trkpt lat="57.7122659236" lon="-5.6773122959"><ele>16.48</ele><time>2012-08-10T10:24:00Z</time></trkpt><trkpt lat="57.7123652492" lon="-5.6774090230"><ele>16.00</ele><time>2012-08-10T10:24:01Z</time></trkpt><trkpt lat="57.7124545164" lon="-5.6775253639"><ele>15.52</ele><time>2012-08-10T10:24:02Z</time></trkpt><trkpt lat="57.7125328872" lon="-5.6776615698"><ele>14.56</ele><time>2012-08-10T10:24:03Z</time></trkpt><trkpt lat="57.7126095816" lon="-5.6778027210"><ele>14.56</ele><time>2012-08-10T10:24:04Z</time></trkpt><trkpt lat="57.7126805764" lon="-5.6779462192"><ele>14.08</ele><time>2012-08-10T10:24:05Z</time></trkpt><trkpt lat="57.7127488051" lon="-5.6780912261"><ele>14.08</ele><time>2012-08-10T10:24:06Z</time></trkpt><trkpt lat="57.7128059696" lon="-5.6782365683"><ele>14.08</ele><time>2012-08-10T10:24:07Z</time></trkpt><trkpt lat="57.7129000146" lon="-5.6785052922"><ele>14.08</ele><time>2012-08-10T10:24:09Z</time></trkpt><trkpt lat="57.7129159402" lon="-5.6786355469"><ele>14.08</ele><time>2012-08-10T10:24:10Z</time></trkpt><trkpt lat="57.7129037865" lon="-5.6787558272"><ele>14.56</ele><time>2012-08-10T10:24:11Z</time></trkpt><trkpt lat="57.7128717676" lon="-5.6788766105"><ele>14.56</ele><time>2012-08-10T10:24:12Z</time></trkpt><trkpt lat="57.7128312830" lon="-5.6790042669"><ele>15.04</ele><time>2012-08-10T10:24:13Z</time></trkpt><trkpt lat="57.7122938354" lon="-5.6803423539"><ele>13.12</ele><time>2012-08-10T10:24:23Z</time></trkpt><trkpt lat="57.7117172442" lon="-5.6815047562"><ele>12.63</ele><time>2012-08-10T10:24:34Z</time></trkpt><trkpt lat="57.7111322712" lon="-5.6828957330"><ele>13.12</ele><time>2012-08-10T10:24:47Z</time></trkpt><trkpt lat="57.7110626176" lon="-5.6831020955"><ele>13.12</ele><time>2012-08-10T10:24:49Z</time></trkpt><trkpt lat="57.7110414952" lon="-5.6832010020"><ele>13.60</ele><time>2012-08-10T10:24:50Z</time></trkpt><trkpt lat="57.7110309340" lon="-5.6832954660"><ele>14.08</ele><time>2012-08-10T10:24:51Z</time></trkpt><trkpt lat="57.7110539842" lon="-5.6841417030"><ele>13.12</ele><time>2012-08-10T10:25:00Z</time></trkpt><trkpt lat="57.7110776212" lon="-5.6842936669"><ele>13.12</ele><time>2012-08-10T10:25:02Z</time></trkpt><trkpt lat="57.7110808901" lon="-5.6843810901"><ele>13.12</ele><time>2012-08-10T10:25:03Z</time></trkpt><trkpt lat="57.7110845782" lon="-5.6844685972"><ele>13.12</ele><time>2012-08-10T10:25:04Z</time></trkpt><trkpt lat="57.7110870928" lon="-5.6845534220"><ele>13.12</ele><time>2012-08-10T10:25:05Z</time></trkpt><trkpt lat="57.7110844105" lon="-5.6846354809"><ele>13.12</ele><time>2012-08-10T10:25:06Z</time></trkpt><trkpt lat="57.7110823989" lon="-5.6847118400"><ele>13.12</ele><time>2012-08-10T10:25:07Z</time></trkpt><trkpt lat="57.7110895235" lon="-5.6847748719"><ele>12.63</ele><time>2012-08-10T10:25:08Z</time></trkpt><trkpt lat="57.7111336961" lon="-5.6848195475"><ele>11.67</ele><time>2012-08-10T10:25:15Z</time></trkpt><trkpt lat="57.7111479454" lon="-5.6848006882"><ele>11.19</ele><time>2012-08-10T10:25:27Z</time></trkpt><trkpt lat="57.7111753542" lon="-5.6848064717"><ele>11.67</ele><time>2012-08-10T10:26:12Z</time></trkpt><trkpt lat="57.7111795451" lon="-5.6848006044"><ele>11.67</ele><time>2012-08-10T10:26:43Z</time></trkpt><trkpt lat="57.7111820597" lon="-5.6848221458"><ele>8.31</ele><time>2012-08-10T10:27:04Z</time></trkpt><trkpt lat="57.7111813053" lon="-5.6848269235"><ele>14.08</ele><time>2012-08-10T10:27:05Z</time></trkpt><trkpt lat="57.7111498732" lon="-5.6848156918"><ele>11.67</ele><time>2012-08-10T10:27:14Z</time></trkpt><trkpt lat="57.7111110650" lon="-5.6848146860"><ele>11.67</ele><time>2012-08-10T10:27:23Z</time></trkpt><trkpt lat="57.7110798843" lon="-5.6847598683"><ele>12.15</ele><time>2012-08-10T10:27:27Z</time></trkpt><trkpt lat="57.7110171877" lon="-5.6847227365"><ele>11.67</ele><time>2012-08-10T10:27:38Z</time></trkpt><trkpt lat="57.7108961530" lon="-5.6847514864"><ele>12.63</ele><time>2012-08-10T10:27:53Z</time></trkpt><trkpt lat="57.7108710073" lon="-5.6847665738"><ele>12.63</ele><time>2012-08-10T10:28:08Z</time></trkpt><trkpt lat="57.7107974142" lon="-5.6847698428"><ele>11.19</ele><time>2012-08-10T10:28:22Z</time></trkpt><trkpt lat="57.7108529024" lon="-5.6847262569"><ele>11.67</ele><time>2012-08-10T10:28:40Z</time></trkpt><trkpt lat="57.7108466998" lon="-5.6847361475"><ele>11.67</ele><time>2012-08-10T10:28:56Z</time></trkpt><trkpt lat="57.7108611166" lon="-5.6847943179"><ele>12.15</ele><time>2012-08-10T10:29:18Z</time></trkpt><trkpt lat="57.7108145971" lon="-5.6848020293"><ele>11.67</ele><time>2012-08-10T10:29:39Z</time></trkpt><trkpt lat="57.7107791416" lon="-5.6848581042"><ele>11.67</ele><time>2012-08-10T10:29:55Z</time></trkpt><trkpt lat="57.7108525671" lon="-5.6847212277"><ele>11.19</ele><time>2012-08-10T10:30:10Z</time></trkpt><trkpt lat="57.7109275851" lon="-5.6848066393"><ele>10.71</ele><time>2012-08-10T10:30:28Z</time></trkpt><trkpt lat="57.7110376395" lon="-5.6848104950"><ele>11.67</ele><time>2012-08-10T10:30:45Z</time></trkpt><trkpt lat="57.7111067902" lon="-5.6848643906"><ele>10.71</ele><time>2012-08-10T10:30:55Z</time></trkpt><trkpt lat="57.7111305110" lon="-5.6848223135"><ele>11.19</ele><time>2012-08-10T10:31:10Z</time></trkpt><trkpt lat="57.7111195307" lon="-5.6848592777"><ele>11.19</ele><time>2012-08-10T10:31:21Z</time></trkpt><trkpt lat="57.7111289185" lon="-5.6848456152"><ele>10.23</ele><time>2012-08-10T10:31:43Z</time></trkpt><trkpt lat="57.7111135796" lon="-5.6848610379"><ele>11.19</ele><time>2012-08-10T10:32:08Z</time></trkpt><trkpt lat="57.7110945527" lon="-5.6848813221"><ele>11.19</ele><time>2012-08-10T10:32:36Z</time></trkpt><trkpt lat="57.7110900264" lon="-5.6848739460"><ele>11.19</ele><time>2012-08-10T10:33:00Z</time></trkpt><trkpt lat="57.7110966481" lon="-5.6848269235"><ele>7.83</ele><time>2012-08-10T10:33:04Z</time></trkpt><trkpt lat="57.7110969834" lon="-5.6848225649"><ele>14.56</ele><time>2012-08-10T10:33:05Z</time></trkpt><trkpt lat="57.7110989951" lon="-5.6848165300"><ele>11.67</ele><time>2012-08-10T10:33:06Z</time></trkpt><trkpt lat="57.7111218777" lon="-5.6847940665"><ele>11.19</ele><time>2012-08-10T10:33:45Z</time></trkpt><trkpt lat="57.7111082152" lon="-5.6848013587"><ele>11.19</ele><time>2012-08-10T10:34:21Z</time></trkpt><trkpt lat="57.7111037727" lon="-5.6847861037"><ele>11.19</ele><time>2012-08-10T10:34:48Z</time></trkpt><trkpt lat="57.7111355402" lon="-5.6847985089"><ele>11.19</ele><time>2012-08-10T10:35:24Z</time></trkpt><trkpt lat="57.7111447603" lon="-5.6847919710"><ele>11.19</ele><time>2012-08-10T10:35:32Z</time></trkpt><trkpt lat="57.7111538965" lon="-5.6846546754"><ele>11.19</ele><time>2012-08-10T10:35:35Z</time></trkpt><trkpt lat="57.7110593487" lon="-5.6835272256"><ele>10.71</ele><time>2012-08-10T10:35:45Z</time></trkpt><trkpt lat="57.7110722568" lon="-5.6832255609"><ele>11.19</ele><time>2012-08-10T10:35:48Z</time></trkpt><trkpt lat="57.7110876795" lon="-5.6831333600"><ele>10.71</ele><time>2012-08-10T10:35:49Z</time></trkpt><trkpt lat="57.7111117356" lon="-5.6830380578"><ele>11.19</ele><time>2012-08-10T10:35:50Z</time></trkpt><trkpt lat="57.7111446764" lon="-5.6829442643"><ele>11.19</ele><time>2012-08-10T10:35:51Z</time></trkpt><trkpt lat="57.7111828141" lon="-5.6828534883"><ele>11.19</ele><time>2012-08-10T10:35:52Z</time></trkpt><trkpt lat="57.7117293980" lon="-5.6816231925"><ele>11.19</ele><time>2012-08-10T10:36:05Z</time></trkpt><trkpt lat="57.7120733913" lon="-5.6807482056"><ele>11.67</ele><time>2012-08-10T10:36:15Z</time></trkpt><trkpt lat="57.7126683388" lon="-5.6795995496"><ele>11.19</ele><time>2012-08-10T10:36:25Z</time></trkpt><trkpt lat="57.7129347157" lon="-5.6788260676"><ele>13.12</ele><time>2012-08-10T10:36:32Z</time></trkpt><trkpt lat="57.7129522339" lon="-5.6788190268"><ele>12.63</ele><time>2012-08-10T10:36:33Z</time></trkpt><trkpt lat="57.7129769605" lon="-5.6788187753"><ele>12.63</ele><time>2012-08-10T10:36:37Z</time></trkpt><trkpt lat="57.7130031120" lon="-5.6788414065"><ele>12.63</ele><time>2012-08-10T10:36:38Z</time></trkpt><trkpt lat="57.7130417526" lon="-5.6789020076"><ele>14.08</ele><time>2012-08-10T10:36:39Z</time></trkpt><trkpt lat="57.7130915411" lon="-5.6790020037"><ele>14.56</ele><time>2012-08-10T10:36:40Z</time></trkpt><trkpt lat="57.7131403238" lon="-5.6791265588"><ele>15.52</ele><time>2012-08-10T10:36:41Z</time></trkpt><trkpt lat="57.7131860889" lon="-5.6792559754"><ele>16.00</ele><time>2012-08-10T10:36:42Z</time></trkpt><trkpt lat="57.7134138253" lon="-5.6798064988"><ele>19.36</ele><time>2012-08-10T10:36:46Z</time></trkpt><trkpt lat="57.7136075310" lon="-5.6801760569"><ele>22.73</ele><time>2012-08-10T10:36:49Z</time></trkpt><trkpt lat="57.7139148116" lon="-5.6805599481"><ele>26.57</ele><time>2012-08-10T10:36:53Z</time></trkpt><trkpt lat="57.7141108643" lon="-5.6807765365"><ele>27.05</ele><time>2012-08-10T10:36:55Z</time></trkpt><trkpt lat="57.7147399262" lon="-5.6814858131"><ele>23.69</ele><time>2012-08-10T10:37:01Z</time></trkpt><trkpt lat="57.7152039483" lon="-5.6819921639"><ele>20.32</ele><time>2012-08-10T10:37:05Z</time></trkpt><trkpt lat="57.7154307626" lon="-5.6822444592"><ele>19.36</ele><time>2012-08-10T10:37:07Z</time></trkpt><trkpt lat="57.7164005488" lon="-5.6832780316"><ele>19.84</ele><time>2012-08-10T10:37:17Z</time></trkpt><trkpt lat="57.7164834458" lon="-5.6833105534"><ele>21.29</ele><time>2012-08-10T10:37:18Z</time></trkpt><trkpt lat="57.7165753115" lon="-5.6833100505"><ele>20.81</ele><time>2012-08-10T10:37:19Z</time></trkpt><trkpt lat="57.7173868474" lon="-5.6831610203"><ele>21.29</ele><time>2012-08-10T10:37:26Z</time></trkpt><trkpt lat="57.7175021823" lon="-5.6832001638"><ele>21.29</ele><time>2012-08-10T10:37:27Z</time></trkpt><trkpt lat="57.7176125720" lon="-5.6832878385"><ele>21.77</ele><time>2012-08-10T10:37:28Z</time></trkpt><trkpt lat="57.7177154180" lon="-5.6834173389"><ele>23.21</ele><time>2012-08-10T10:37:29Z</time></trkpt><trkpt lat="57.7178061102" lon="-5.6835672073"><ele>24.17</ele><time>2012-08-10T10:37:30Z</time></trkpt><trkpt lat="57.7178869117" lon="-5.6837186683"><ele>24.65</ele><time>2012-08-10T10:37:31Z</time></trkpt><trkpt lat="57.7179637738" lon="-5.6838651840"><ele>25.61</ele><time>2012-08-10T10:37:32Z</time></trkpt><trkpt lat="57.7182599902" lon="-5.6843907293"><ele>29.46</ele><time>2012-08-10T10:37:36Z</time></trkpt><trkpt lat="57.7183925081" lon="-5.6846954953"><ele>30.90</ele><time>2012-08-10T10:37:38Z</time></trkpt><trkpt lat="57.7184449788" lon="-5.6848811544"><ele>31.86</ele><time>2012-08-10T10:37:39Z</time></trkpt><trkpt lat="57.7186046541" lon="-5.6857829634"><ele>35.23</ele><time>2012-08-10T10:37:44Z</time></trkpt><trkpt lat="57.7186412830" lon="-5.6859262940"><ele>35.71</ele><time>2012-08-10T10:37:45Z</time></trkpt><trkpt lat="57.7186903171" lon="-5.6860532798"><ele>36.19</ele><time>2012-08-10T10:37:46Z</time></trkpt><trkpt lat="57.7187551092" lon="-5.6861671899"><ele>36.19</ele><time>2012-08-10T10:37:47Z</time></trkpt><trkpt lat="57.7189669199" lon="-5.6864515040"><ele>34.26</ele><time>2012-08-10T10:37:50Z</time></trkpt><trkpt lat="57.7190333046" lon="-5.6865122728"><ele>34.26</ele><time>2012-08-10T10:37:51Z</time></trkpt><trkpt lat="57.7190939896" lon="-5.6865515001"><ele>34.26</ele><time>2012-08-10T10:37:52Z</time></trkpt><trkpt lat="57.7191472985" lon="-5.6865684316"><ele>33.78</ele><time>2012-08-10T10:37:53Z</time></trkpt><trkpt lat="57.7191933990" lon="-5.6865785737"><ele>34.26</ele><time>2012-08-10T10:37:54Z</time></trkpt><trkpt lat="57.7193280123" lon="-5.6865766458"><ele>33.78</ele><time>2012-08-10T10:37:57Z</time></trkpt><trkpt lat="57.7199887577" lon="-5.6864038110"><ele>29.94</ele><time>2012-08-10T10:38:07Z</time></trkpt><trkpt lat="57.7204190847" lon="-5.6863862928"><ele>26.09</ele><time>2012-08-10T10:38:12Z</time></trkpt><trkpt lat="57.7208681870" lon="-5.6865464710"><ele>22.25</ele><time>2012-08-10T10:38:17Z</time></trkpt><trkpt lat="57.7209546044" lon="-5.6865764782"><ele>22.25</ele><time>2012-08-10T10:38:18Z</time></trkpt><trkpt lat="57.7219541464" lon="-5.6869683322"><ele>20.32</ele><time>2012-08-10T10:38:29Z</time></trkpt><trkpt lat="57.7220507897" lon="-5.6870413385"><ele>20.81</ele><time>2012-08-10T10:38:30Z</time></trkpt><trkpt lat="57.7225185838" lon="-5.6874960568"><ele>21.77</ele><time>2012-08-10T10:38:35Z</time></trkpt><trkpt lat="57.7237573452" lon="-5.6886883825"><ele>20.81</ele><time>2012-08-10T10:38:48Z</time></trkpt><trkpt lat="57.7245644387" lon="-5.6891652290"><ele>22.25</ele><time>2012-08-10T10:38:56Z</time></trkpt><trkpt lat="57.7255379967" lon="-5.6899512839"><ele>25.61</ele><time>2012-08-10T10:39:06Z</time></trkpt><trkpt lat="57.7267068531" lon="-5.6907991972"><ele>27.05</ele><time>2012-08-10T10:39:17Z</time></trkpt><trkpt lat="57.7268060111" lon="-5.6908290368"><ele>27.53</ele><time>2012-08-10T10:39:18Z</time></trkpt><trkpt lat="57.7269053366" lon="-5.6908337306"><ele>27.53</ele><time>2012-08-10T10:39:19Z</time></trkpt><trkpt lat="57.7270039916" lon="-5.6908197328"><ele>27.05</ele><time>2012-08-10T10:39:20Z</time></trkpt><trkpt lat="57.7270997129" lon="-5.6907923240"><ele>26.57</ele><time>2012-08-10T10:39:21Z</time></trkpt><trkpt lat="57.7271918301" lon="-5.6907592155"><ele>26.57</ele><time>2012-08-10T10:39:22Z</time></trkpt><trkpt lat="57.7278441098" lon="-5.6904273760"><ele>25.13</ele><time>2012-08-10T10:39:32Z</time></trkpt><trkpt lat="57.7283533942" lon="-5.6901463307"><ele>27.05</ele><time>2012-08-10T10:39:43Z</time></trkpt><trkpt lat="57.7285541408" lon="-5.6900932733"><ele>28.98</ele><time>2012-08-10T10:39:46Z</time></trkpt><trkpt lat="57.7286330983" lon="-5.6900965422"><ele>29.94</ele><time>2012-08-10T10:39:47Z</time></trkpt><trkpt lat="57.7287191804" lon="-5.6901138090"><ele>30.90</ele><time>2012-08-10T10:39:48Z</time></trkpt><trkpt lat="57.7288118005" lon="-5.6901459116"><ele>30.90</ele><time>2012-08-10T10:39:49Z</time></trkpt><trkpt lat="57.7289073542" lon="-5.6901886594"><ele>32.34</ele><time>2012-08-10T10:39:50Z</time></trkpt><trkpt lat="57.7292382717" lon="-5.6903146394"><ele>35.71</ele><time>2012-08-10T10:39:53Z</time></trkpt><trkpt lat="57.7295779064" lon="-5.6903940998"><ele>39.55</ele><time>2012-08-10T10:39:56Z</time></trkpt><trkpt lat="57.7299257554" lon="-5.6904479116"><ele>42.92</ele><time>2012-08-10T10:39:59Z</time></trkpt><trkpt lat="57.7302922960" lon="-5.6904931739"><ele>47.24</ele><time>2012-08-10T10:40:02Z</time></trkpt><trkpt lat="57.7305574156" lon="-5.6904784217"><ele>51.09</ele><time>2012-08-10T10:40:04Z</time></trkpt><trkpt lat="57.7308546379" lon="-5.6904168148"><ele>54.93</ele><time>2012-08-10T10:40:06Z</time></trkpt><trkpt lat="57.7312738169" lon="-5.6902506016"><ele>58.78</ele><time>2012-08-10T10:40:09Z</time></trkpt><trkpt lat="57.7315463126" lon="-5.6901211850"><ele>62.14</ele><time>2012-08-10T10:40:11Z</time></trkpt><trkpt lat="57.7318104263" lon="-5.6899967138"><ele>65.51</ele><time>2012-08-10T10:40:13Z</time></trkpt><trkpt lat="57.7322117519" lon="-5.6897840649"><ele>68.87</ele><time>2012-08-10T10:40:17Z</time></trkpt><trkpt lat="57.7325280849" lon="-5.6895576697"><ele>71.76</ele><time>2012-08-10T10:40:22Z</time></trkpt><trkpt lat="57.7325860038" lon="-5.6894976553"><ele>72.72</ele><time>2012-08-10T10:40:23Z</time></trkpt><trkpt lat="57.7326433361" lon="-5.6894207932"><ele>73.68</ele><time>2012-08-10T10:40:24Z</time></trkpt><trkpt lat="57.7327025123" lon="-5.6893208809"><ele>74.64</ele><time>2012-08-10T10:40:25Z</time></trkpt><trkpt lat="57.7327615209" lon="-5.6891986728"><ele>75.60</ele><time>2012-08-10T10:40:26Z</time></trkpt><trkpt lat="57.7328172605" lon="-5.6890540011"><ele>77.04</ele><time>2012-08-10T10:40:27Z</time></trkpt><trkpt lat="57.7328651212" lon="-5.6888938230"><ele>77.52</ele><time>2012-08-10T10:40:28Z</time></trkpt><trkpt lat="57.7329053544" lon="-5.6887328066"><ele>78.48</ele><time>2012-08-10T10:40:29Z</time></trkpt><trkpt lat="57.7329352777" lon="-5.6885728799"><ele>79.45</ele><time>2012-08-10T10:40:30Z</time></trkpt><trkpt lat="57.7329605073" lon="-5.6884122826"><ele>80.89</ele><time>2012-08-10T10:40:31Z</time></trkpt><trkpt lat="57.7331076935" lon="-5.6873684004"><ele>84.25</ele><time>2012-08-10T10:40:37Z</time></trkpt><trkpt lat="57.7331377845" lon="-5.6871703360"><ele>84.25</ele><time>2012-08-10T10:40:38Z</time></trkpt><trkpt lat="57.7333276346" lon="-5.6863517594"><ele>86.18</ele><time>2012-08-10T10:40:42Z</time></trkpt><trkpt lat="57.7334048320" lon="-5.6861534435"><ele>87.62</ele><time>2012-08-10T10:40:43Z</time></trkpt><trkpt lat="57.7334940154" lon="-5.6859614979"><ele>88.10</ele><time>2012-08-10T10:40:44Z</time></trkpt><trkpt lat="57.7335913293" lon="-5.6857829634"><ele>89.54</ele><time>2012-08-10T10:40:45Z</time></trkpt><trkpt lat="57.7336983662" lon="-5.6856079493"><ele>90.50</ele><time>2012-08-10T10:40:46Z</time></trkpt><trkpt lat="57.7340551000" lon="-5.6850304361"><ele>92.42</ele><time>2012-08-10T10:40:49Z</time></trkpt><trkpt lat="57.7343971655" lon="-5.6844268553"><ele>89.54</ele><time>2012-08-10T10:40:52Z</time></trkpt><trkpt lat="57.7344955690" lon="-5.6841757335"><ele>89.06</ele><time>2012-08-10T10:40:53Z</time></trkpt><trkpt lat="57.7345805615" lon="-5.6838951074"><ele>88.58</ele><time>2012-08-10T10:40:54Z</time></trkpt><trkpt lat="57.7346573398" lon="-5.6835812889"><ele>87.14</ele><time>2012-08-10T10:40:55Z</time></trkpt><trkpt lat="57.7347312681" lon="-5.6832459290"><ele>86.66</ele><time>2012-08-10T10:40:56Z</time></trkpt><trkpt lat="57.7349077072" lon="-5.6825931463"><ele>84.25</ele><time>2012-08-10T10:40:58Z</time></trkpt><trkpt lat="57.7350173425" lon="-5.6823117658"><ele>83.29</ele><time>2012-08-10T10:40:59Z</time></trkpt><trkpt lat="57.7351367846" lon="-5.6820672657"><ele>82.33</ele><time>2012-08-10T10:41:00Z</time></trkpt><trkpt lat="57.7352576517" lon="-5.6818417087"><ele>82.33</ele><time>2012-08-10T10:41:01Z</time></trkpt><trkpt lat="57.7357106935" lon="-5.6809494551"><ele>82.81</ele><time>2012-08-10T10:41:05Z</time></trkpt><trkpt lat="57.7357997093" lon="-5.6806928013"><ele>82.33</ele><time>2012-08-10T10:41:06Z</time></trkpt><trkpt lat="57.7358672675" lon="-5.6804159470"><ele>83.29</ele><time>2012-08-10T10:41:07Z</time></trkpt><trkpt lat="57.7359173074" lon="-5.6801198982"><ele>84.25</ele><time>2012-08-10T10:41:08Z</time></trkpt><trkpt lat="57.7359660901" lon="-5.6798134558"><ele>84.73</ele><time>2012-08-10T10:41:09Z</time></trkpt><trkpt lat="57.7360276133" lon="-5.6795101147"><ele>85.69</ele><time>2012-08-10T10:41:10Z</time></trkpt><trkpt lat="57.7361093368" lon="-5.6792237051"><ele>85.69</ele><time>2012-08-10T10:41:11Z</time></trkpt><trkpt lat="57.7362147812" lon="-5.6789724994"><ele>86.18</ele><time>2012-08-10T10:41:12Z</time></trkpt><trkpt lat="57.7363419347" lon="-5.6787671428"><ele>85.21</ele><time>2012-08-10T10:41:13Z</time></trkpt><trkpt lat="57.7364839241" lon="-5.6785911229"><ele>85.69</ele><time>2012-08-10T10:41:14Z</time></trkpt><trkpt lat="57.7366327029" lon="-5.6784285977"><ele>85.69</ele><time>2012-08-10T10:41:15Z</time></trkpt><trkpt lat="57.7371792868" lon="-5.6777171418"><ele>86.18</ele><time>2012-08-10T10:41:19Z</time></trkpt><trkpt lat="57.7372845635" lon="-5.6774961948"><ele>86.18</ele><time>2012-08-10T10:41:20Z</time></trkpt><trkpt lat="57.7373734117" lon="-5.6772563886"><ele>87.14</ele><time>2012-08-10T10:41:21Z</time></trkpt><trkpt lat="57.7374419756" lon="-5.6770022493"><ele>87.62</ele><time>2012-08-10T10:41:22Z</time></trkpt><trkpt lat="57.7374910098" lon="-5.6767417397"><ele>88.58</ele><time>2012-08-10T10:41:23Z</time></trkpt><trkpt lat="57.7375245374" lon="-5.6764815655"><ele>89.06</ele><time>2012-08-10T10:41:24Z</time></trkpt><trkpt lat="57.7375454083" lon="-5.6762323715"><ele>89.54</ele><time>2012-08-10T10:41:25Z</time></trkpt><trkpt lat="57.7375589032" lon="-5.6759821717"><ele>89.54</ele><time>2012-08-10T10:41:26Z</time></trkpt><trkpt lat="57.7375677042" lon="-5.6757245958"><ele>90.50</ele><time>2012-08-10T10:41:27Z</time></trkpt><trkpt lat="57.7376195043" lon="-5.6731893215"><ele>90.02</ele><time>2012-08-10T10:41:37Z</time></trkpt><trkpt lat="57.7376055904" lon="-5.6731155608"><ele>89.06</ele><time>2012-08-10T10:41:38Z</time></trkpt><trkpt lat="57.7375770919" lon="-5.6730907504"><ele>89.06</ele><time>2012-08-10T10:41:39Z</time></trkpt><trkpt lat="57.7375511918" lon="-5.6730862241"><ele>89.54</ele><time>2012-08-10T10:41:40Z</time></trkpt><trkpt lat="57.7374885790" lon="-5.6730509363"><ele>90.02</ele><time>2012-08-10T10:41:43Z</time></trkpt><trkpt lat="57.7374734078" lon="-5.6730146427"><ele>90.50</ele><time>2012-08-10T10:41:44Z</time></trkpt><trkpt lat="57.7374795265" lon="-5.6730046682"><ele>90.50</ele><time>2012-08-10T10:41:54Z</time></trkpt><trkpt lat="57.7374874055" lon="-5.6730386149"><ele>90.02</ele><time>2012-08-10T10:42:12Z</time></trkpt><trkpt lat="57.7374786884" lon="-5.6730397884"><ele>90.02</ele><time>2012-08-10T10:42:45Z</time></trkpt><trkpt lat="57.7374905907" lon="-5.6730676163"><ele>90.98</ele><time>2012-08-10T10:43:31Z</time></trkpt><trkpt lat="57.7375044208" lon="-5.6730471645"><ele>90.98</ele><time>2012-08-10T10:44:00Z</time></trkpt><trkpt lat="57.7374831308" lon="-5.6730213482"><ele>90.98</ele><time>2012-08-10T10:44:38Z</time></trkpt><trkpt lat="57.7374646906" lon="-5.6730160676"><ele>90.98</ele><time>2012-08-10T10:45:10Z</time></trkpt><trkpt lat="57.7374494355" lon="-5.6730034947"><ele>90.98</ele><time>2012-08-10T10:45:41Z</time></trkpt><trkpt lat="57.7374760062" lon="-5.6730106194"><ele>91.46</ele><time>2012-08-10T10:46:03Z</time></trkpt><trkpt lat="57.7374991402" lon="-5.6730002258"><ele>91.46</ele><time>2012-08-10T10:46:31Z</time></trkpt><trkpt lat="57.7375036664" lon="-5.6730334181"><ele>91.46</ele><time>2012-08-10T10:46:53Z</time></trkpt><trkpt lat="57.7375065163" lon="-5.6730456557"><ele>91.46</ele><time>2012-08-10T10:47:13Z</time></trkpt><trkpt lat="57.7374805324" lon="-5.6730669457"><ele>91.94</ele><time>2012-08-10T10:47:53Z</time></trkpt><trkpt lat="57.7374682948" lon="-5.6730202585"><ele>91.94</ele><time>2012-08-10T10:48:27Z</time></trkpt><trkpt lat="57.7374737430" lon="-5.6730355974"><ele>91.46</ele><time>2012-08-10T10:48:42Z</time></trkpt><trkpt lat="57.7375005651" lon="-5.6731210928"><ele>91.46</ele><time>2012-08-10T10:48:45Z</time></trkpt><trkpt lat="57.7375153173" lon="-5.6731517706"><ele>91.46</ele><time>2012-08-10T10:48:46Z</time></trkpt><trkpt lat="57.7375359368" lon="-5.6731612422"><ele>90.98</ele><time>2012-08-10T10:48:48Z</time></trkpt><trkpt lat="57.7375811990" lon="-5.6731104478"><ele>90.50</ele><time>2012-08-10T10:48:58Z</time></trkpt><trkpt lat="57.7375957835" lon="-5.6730379444"><ele>90.98</ele><time>2012-08-10T10:48:59Z</time></trkpt><trkpt lat="57.7376027405" lon="-5.6729146466"><ele>90.98</ele><time>2012-08-10T10:49:00Z</time></trkpt><trkpt lat="57.7376293112" lon="-5.6718604546"><ele>93.87</ele><time>2012-08-10T10:49:05Z</time></trkpt><trkpt lat="57.7376253717" lon="-5.6705947872"><ele>95.31</ele><time>2012-08-10T10:49:09Z</time></trkpt><trkpt lat="57.7375419717" lon="-5.6689529400"><ele>94.35</ele><time>2012-08-10T10:49:14Z</time></trkpt><trkpt lat="57.7375702187" lon="-5.6686107907"><ele>94.35</ele><time>2012-08-10T10:49:15Z</time></trkpt><trkpt lat="57.7376162354" lon="-5.6682663783"><ele>96.27</ele><time>2012-08-10T10:49:16Z</time></trkpt><trkpt lat="57.7376786806" lon="-5.6679170206"><ele>96.75</ele><time>2012-08-10T10:49:17Z</time></trkpt><trkpt lat="57.7377556264" lon="-5.6675637234"><ele>97.71</ele><time>2012-08-10T10:49:18Z</time></trkpt><trkpt lat="57.7378421277" lon="-5.6672127731"><ele>99.15</ele><time>2012-08-10T10:49:19Z</time></trkpt><trkpt lat="57.7382010408" lon="-5.6653976720"><ele>102.52</ele><time>2012-08-10T10:49:24Z</time></trkpt><trkpt lat="57.7386499755" lon="-5.6624069251"><ele>103.48</ele><time>2012-08-10T10:49:32Z</time></trkpt><trkpt lat="57.7387306932" lon="-5.6620865688"><ele>103.00</ele><time>2012-08-10T10:49:33Z</time></trkpt><trkpt lat="57.7388309408" lon="-5.6617826410"><ele>102.52</ele><time>2012-08-10T10:49:34Z</time></trkpt><trkpt lat="57.7389508020" lon="-5.6614908669"><ele>103.48</ele><time>2012-08-10T10:49:35Z</time></trkpt><trkpt lat="57.7390826494" lon="-5.6612009369"><ele>103.48</ele><time>2012-08-10T10:49:36Z</time></trkpt><trkpt lat="57.7395656984" lon="-5.6599569786"><ele>105.40</ele><time>2012-08-10T10:49:40Z</time></trkpt><trkpt lat="57.7396444045" lon="-5.6596068665"><ele>106.84</ele><time>2012-08-10T10:49:41Z</time></trkpt><trkpt lat="57.7396998089" lon="-5.6592359673"><ele>108.29</ele><time>2012-08-10T10:49:42Z</time></trkpt><trkpt lat="57.7397375274" lon="-5.6588458735"><ele>109.25</ele><time>2012-08-10T10:49:43Z</time></trkpt><trkpt lat="57.7397624217" lon="-5.6584455539"><ele>110.69</ele><time>2012-08-10T10:49:44Z</time></trkpt><trkpt lat="57.7398237772" lon="-5.6571808085"><ele>115.98</ele><time>2012-08-10T10:49:47Z</time></trkpt><trkpt lat="57.7399054170" lon="-5.6558919232"><ele>119.34</ele><time>2012-08-10T10:49:50Z</time></trkpt><trkpt lat="57.7399719693" lon="-5.6550109852"><ele>122.71</ele><time>2012-08-10T10:49:52Z</time></trkpt><trkpt lat="57.7400438022" lon="-5.6541316397"><ele>126.55</ele><time>2012-08-10T10:49:54Z</time></trkpt><trkpt lat="57.7400958538" lon="-5.6533040944"><ele>130.88</ele><time>2012-08-10T10:49:56Z</time></trkpt><trkpt lat="57.7400953509" lon="-5.6529179402"><ele>132.80</ele><time>2012-08-10T10:49:57Z</time></trkpt><trkpt lat="57.7400731388" lon="-5.6525382400"><ele>135.20</ele><time>2012-08-10T10:49:58Z</time></trkpt><trkpt lat="57.7400332410" lon="-5.6521561928"><ele>137.61</ele><time>2012-08-10T10:49:59Z</time></trkpt><trkpt lat="57.7399074286" lon="-5.6510427408"><ele>141.45</ele><time>2012-08-10T10:50:02Z</time></trkpt><trkpt lat="57.7398667764" lon="-5.6503596157"><ele>143.37</ele><time>2012-08-10T10:50:04Z</time></trkpt><trkpt lat="57.7398773376" lon="-5.6500229146"><ele>144.34</ele><time>2012-08-10T10:50:05Z</time></trkpt><trkpt lat="57.7399140503" lon="-5.6496863812"><ele>146.26</ele><time>2012-08-10T10:50:06Z</time></trkpt><trkpt lat="57.7399720531" lon="-5.6493453216"><ele>147.70</ele><time>2012-08-10T10:50:07Z</time></trkpt><trkpt lat="57.7400447242" lon="-5.6490030047"><ele>149.62</ele><time>2012-08-10T10:50:08Z</time></trkpt><trkpt lat="57.7401262801" lon="-5.6486621965"><ele>150.58</ele><time>2012-08-10T10:50:09Z</time></trkpt><trkpt lat="57.7403867897" lon="-5.6476277020"><ele>154.43</ele><time>2012-08-10T10:50:12Z</time></trkpt><trkpt lat="57.7405657433" lon="-5.6469190959"><ele>155.39</ele><time>2012-08-10T10:50:14Z</time></trkpt><trkpt lat="57.7407582756" lon="-5.6462808978"><ele>156.35</ele><time>2012-08-10T10:50:16Z</time></trkpt><trkpt lat="57.7408720180" lon="-5.6460162811"><ele>155.87</ele><time>2012-08-10T10:50:17Z</time></trkpt><trkpt lat="57.7410008479" lon="-5.6457852758"><ele>155.39</ele><time>2012-08-10T10:50:18Z</time></trkpt><trkpt lat="57.7411455195" lon="-5.6455767341"><ele>154.91</ele><time>2012-08-10T10:50:19Z</time></trkpt><trkpt lat="57.7413003333" lon="-5.6453767419"><ele>154.91</ele><time>2012-08-10T10:50:20Z</time></trkpt><trkpt lat="57.7427095827" lon="-5.6435758062"><ele>151.54</ele><time>2012-08-10T10:50:29Z</time></trkpt><trkpt lat="57.7440140583" lon="-5.6421979051"><ele>148.18</ele><time>2012-08-10T10:50:37Z</time></trkpt><trkpt lat="57.7450483013" lon="-5.6404522900"><ele>145.78</ele><time>2012-08-10T10:50:44Z</time></trkpt><trkpt lat="57.7451694198" lon="-5.6401402317"><ele>145.30</ele><time>2012-08-10T10:50:45Z</time></trkpt><trkpt lat="57.7456244733" lon="-5.6388226803"><ele>143.37</ele><time>2012-08-10T10:50:49Z</time></trkpt><trkpt lat="57.7462680358" lon="-5.6369693577"><ele>146.74</ele><time>2012-08-10T10:50:55Z</time></trkpt><trkpt lat="57.7471617982" lon="-5.6347352453"><ele>143.37</ele><time>2012-08-10T10:51:02Z</time></trkpt><trkpt lat="57.7475423366" lon="-5.6337516289"><ele>140.01</ele><time>2012-08-10T10:51:05Z</time></trkpt><trkpt lat="57.7476482000" lon="-5.6334153470"><ele>139.53</ele><time>2012-08-10T10:51:06Z</time></trkpt><trkpt lat="57.7477332763" lon="-5.6330715213"><ele>138.57</ele><time>2012-08-10T10:51:07Z</time></trkpt><trkpt lat="57.7477962244" lon="-5.6327291206"><ele>138.09</ele><time>2012-08-10T10:51:08Z</time></trkpt><trkpt lat="57.7478339430" lon="-5.6323926710"><ele>136.16</ele><time>2012-08-10T10:51:09Z</time></trkpt><trkpt lat="57.7478512097" lon="-5.6320635136"><ele>135.68</ele><time>2012-08-10T10:51:10Z</time></trkpt><trkpt lat="57.7478538081" lon="-5.6317435764"><ele>136.16</ele><time>2012-08-10T10:51:11Z</time></trkpt><trkpt lat="57.7478403971" lon="-5.6314196158"><ele>136.16</ele><time>2012-08-10T10:51:12Z</time></trkpt><trkpt lat="57.7478071209" lon="-5.6310921349"><ele>135.68</ele><time>2012-08-10T10:51:13Z</time></trkpt><trkpt lat="57.7477589250" lon="-5.6307694316"><ele>136.16</ele><time>2012-08-10T10:51:14Z</time></trkpt><trkpt lat="57.7476987429" lon="-5.6304630730"><ele>136.16</ele><time>2012-08-10T10:51:15Z</time></trkpt><trkpt lat="57.7476269100" lon="-5.6301847938"><ele>136.16</ele><time>2012-08-10T10:51:16Z</time></trkpt><trkpt lat="57.7475569211" lon="-5.6299151480"><ele>135.68</ele><time>2012-08-10T10:51:17Z</time></trkpt><trkpt lat="57.7474955656" lon="-5.6296351086"><ele>136.64</ele><time>2012-08-10T10:51:18Z</time></trkpt><trkpt lat="57.7474499680" lon="-5.6293393951"><ele>136.16</ele><time>2012-08-10T10:51:19Z</time></trkpt><trkpt lat="57.7474150993" lon="-5.6290303543"><ele>135.68</ele><time>2012-08-10T10:51:20Z</time></trkpt><trkpt lat="57.7472168673" lon="-5.6255801115"><ele>137.13</ele><time>2012-08-10T10:51:30Z</time></trkpt><trkpt lat="57.7472079825" lon="-5.6217045709"><ele>139.53</ele><time>2012-08-10T10:51:41Z</time></trkpt><trkpt lat="57.7474547457" lon="-5.6169955339"><ele>140.97</ele><time>2012-08-10T10:51:54Z</time></trkpt><trkpt lat="57.7475544903" lon="-5.6152641680"><ele>138.09</ele><time>2012-08-10T10:51:59Z</time></trkpt><trkpt lat="57.7476026025" lon="-5.6149538700"><ele>137.61</ele><time>2012-08-10T10:52:00Z</time></trkpt><trkpt lat="57.7476683166" lon="-5.6146411411"><ele>137.13</ele><time>2012-08-10T10:52:01Z</time></trkpt><trkpt lat="57.7477491181" lon="-5.6143215392"><ele>136.64</ele><time>2012-08-10T10:52:02Z</time></trkpt><trkpt lat="57.7478463482" lon="-5.6140002608"><ele>137.13</ele><time>2012-08-10T10:52:03Z</time></trkpt><trkpt lat="57.7479515411" lon="-5.6136809103"><ele>136.64</ele><time>2012-08-10T10:52:04Z</time></trkpt><trkpt lat="57.7483400423" lon="-5.6123649515"><ele>133.76</ele><time>2012-08-10T10:52:08Z</time></trkpt><trkpt lat="57.7486808505" lon="-5.6110445503"><ele>129.43</ele><time>2012-08-10T10:52:12Z</time></trkpt><trkpt lat="57.7488456387" lon="-5.6104202662"><ele>126.07</ele><time>2012-08-10T10:52:14Z</time></trkpt><trkpt lat="57.7490882948" lon="-5.6094756257"><ele>121.74</ele><time>2012-08-10T10:52:17Z</time></trkpt><trkpt lat="57.7492496464" lon="-5.6088529341"><ele>117.90</ele><time>2012-08-10T10:52:19Z</time></trkpt><trkpt lat="57.7494415082" lon="-5.6079192739"><ele>114.53</ele><time>2012-08-10T10:52:22Z</time></trkpt><trkpt lat="57.7494757064" lon="-5.6076052040"><ele>112.61</ele><time>2012-08-10T10:52:23Z</time></trkpt><trkpt lat="57.7494990081" lon="-5.6072849315"><ele>111.65</ele><time>2012-08-10T10:52:24Z</time></trkpt><trkpt lat="57.7495215554" lon="-5.6066262815"><ele>109.73</ele><time>2012-08-10T10:52:26Z</time></trkpt><trkpt lat="57.7495840844" lon="-5.6042591482"><ele>106.84</ele><time>2012-08-10T10:52:33Z</time></trkpt><trkpt lat="57.7495341282" lon="-5.6026058178"><ele>103.96</ele><time>2012-08-10T10:52:38Z</time></trkpt><trkpt lat="57.7494733594" lon="-5.6017496064"><ele>103.48</ele><time>2012-08-10T10:52:41Z</time></trkpt><trkpt lat="57.7493872773" lon="-5.6011958979"><ele>102.04</ele><time>2012-08-10T10:52:43Z</time></trkpt><trkpt lat="57.7490983531" lon="-5.5998183321"><ele>98.19</ele><time>2012-08-10T10:52:48Z</time></trkpt><trkpt lat="57.7490113489" lon="-5.5992483627"><ele>95.79</ele><time>2012-08-10T10:52:50Z</time></trkpt><trkpt lat="57.7489976026" lon="-5.5989596061"><ele>94.35</ele><time>2012-08-10T10:52:51Z</time></trkpt><trkpt lat="57.7490103431" lon="-5.5986704305"><ele>92.42</ele><time>2012-08-10T10:52:52Z</time></trkpt><trkpt lat="57.7490490675" lon="-5.5983825959"><ele>91.94</ele><time>2012-08-10T10:52:53Z</time></trkpt><trkpt lat="57.7491126861" lon="-5.5981068313"><ele>90.50</ele><time>2012-08-10T10:52:54Z</time></trkpt><trkpt lat="57.7492005285" lon="-5.5978505965"><ele>90.02</ele><time>2012-08-10T10:52:55Z</time></trkpt><trkpt lat="57.7493064757" lon="-5.5976061802"><ele>89.54</ele><time>2012-08-10T10:52:56Z</time></trkpt><trkpt lat="57.7494214755" lon="-5.5973626859"><ele>88.58</ele><time>2012-08-10T10:52:57Z</time></trkpt><trkpt lat="57.7497686539" lon="-5.5966470391"><ele>84.25</ele><time>2012-08-10T10:53:00Z</time></trkpt><trkpt lat="57.7499023452" lon="-5.5964450352"><ele>82.33</ele><time>2012-08-10T10:53:01Z</time></trkpt><trkpt lat="57.7500486933" lon="-5.5962775648"><ele>80.89</ele><time>2012-08-10T10:53:02Z</time></trkpt><trkpt lat="57.7502116375" lon="-5.5961525068"><ele>78.48</ele><time>2012-08-10T10:53:03Z</time></trkpt><trkpt lat="57.7503860649" lon="-5.5960783269"><ele>76.56</ele><time>2012-08-10T10:53:04Z</time></trkpt><trkpt lat="57.7505692933" lon="-5.5960533489"><ele>74.64</ele><time>2012-08-10T10:53:05Z</time></trkpt><trkpt lat="57.7507579699" lon="-5.5960681010"><ele>73.20</ele><time>2012-08-10T10:53:06Z</time></trkpt><trkpt lat="57.7509527653" lon="-5.5961149558"><ele>71.76</ele><time>2012-08-10T10:53:07Z</time></trkpt><trkpt lat="57.7511533443" lon="-5.5961739644"><ele>69.35</ele><time>2012-08-10T10:53:08Z</time></trkpt><trkpt lat="57.7517601941" lon="-5.5963410996"><ele>64.07</ele><time>2012-08-10T10:53:11Z</time></trkpt><trkpt lat="57.7521563228" lon="-5.5964496452"><ele>59.74</ele><time>2012-08-10T10:53:13Z</time></trkpt><trkpt lat="57.7525392920" lon="-5.5965736974"><ele>54.93</ele><time>2012-08-10T10:53:15Z</time></trkpt><trkpt lat="57.7529093530" lon="-5.5967565905"><ele>50.61</ele><time>2012-08-10T10:53:17Z</time></trkpt><trkpt lat="57.7532701101" lon="-5.5969270784"><ele>46.28</ele><time>2012-08-10T10:53:19Z</time></trkpt><trkpt lat="57.7535954118" lon="-5.5969906133"><ele>41.47</ele><time>2012-08-10T10:53:21Z</time></trkpt><trkpt lat="57.7537499741" lon="-5.5969684850"><ele>40.03</ele><time>2012-08-10T10:53:22Z</time></trkpt><trkpt lat="57.7539034467" lon="-5.5969166011"><ele>39.07</ele><time>2012-08-10T10:53:23Z</time></trkpt><trkpt lat="57.7543700673" lon="-5.5967855919"><ele>34.26</ele><time>2012-08-10T10:53:26Z</time></trkpt><trkpt lat="57.7545289043" lon="-5.5967829097"><ele>33.30</ele><time>2012-08-10T10:53:27Z</time></trkpt><trkpt lat="57.7546905912" lon="-5.5968161020"><ele>32.34</ele><time>2012-08-10T10:53:28Z</time></trkpt><trkpt lat="57.7548526973" lon="-5.5968865938"><ele>32.34</ele><time>2012-08-10T10:53:29Z</time></trkpt><trkpt lat="57.7550153062" lon="-5.5969980732"><ele>31.86</ele><time>2012-08-10T10:53:30Z</time></trkpt><trkpt lat="57.7551755682" lon="-5.5971471034"><ele>31.86</ele><time>2012-08-10T10:53:31Z</time></trkpt><trkpt lat="57.7553276997" lon="-5.5973253865"><ele>31.38</ele><time>2012-08-10T10:53:32Z</time></trkpt><trkpt lat="57.7554737125" lon="-5.5975107942"><ele>31.38</ele><time>2012-08-10T10:53:33Z</time></trkpt><trkpt lat="57.7568699699" lon="-5.5987270083"><ele>30.90</ele><time>2012-08-10T10:53:42Z</time></trkpt><trkpt lat="57.7575643267" lon="-5.5990685709"><ele>33.78</ele><time>2012-08-10T10:53:46Z</time></trkpt><trkpt lat="57.7577478066" lon="-5.5991536472"><ele>34.26</ele><time>2012-08-10T10:53:47Z</time></trkpt><trkpt lat="57.7586142439" lon="-5.5994780269"><ele>32.82</ele><time>2012-08-10T10:53:52Z</time></trkpt><trkpt lat="57.7602703404" lon="-5.5994915217"><ele>30.42</ele><time>2012-08-10T10:54:02Z</time></trkpt><trkpt lat="57.7606991585" lon="-5.5995280668"><ele>28.50</ele><time>2012-08-10T10:54:05Z</time></trkpt><trkpt lat="57.7608233783" lon="-5.5996005703"><ele>28.02</ele><time>2012-08-10T10:54:06Z</time></trkpt><trkpt lat="57.7609360311" lon="-5.5997278914"><ele>28.50</ele><time>2012-08-10T10:54:07Z</time></trkpt><trkpt lat="57.7610295732" lon="-5.5999014806"><ele>28.50</ele><time>2012-08-10T10:54:08Z</time></trkpt><trkpt lat="57.7611123025" lon="-5.6001051608"><ele>28.50</ele><time>2012-08-10T10:54:09Z</time></trkpt><trkpt lat="57.7619281132" lon="-5.6020323280"><ele>27.53</ele><time>2012-08-10T10:54:18Z</time></trkpt><trkpt lat="57.7623177879" lon="-5.6028014515"><ele>26.09</ele><time>2012-08-10T10:54:23Z</time></trkpt><trkpt lat="57.7623956557" lon="-5.6028970890"><ele>26.09</ele><time>2012-08-10T10:54:24Z</time></trkpt><trkpt lat="57.7624829952" lon="-5.6029689219"><ele>25.61</ele><time>2012-08-10T10:54:25Z</time></trkpt><trkpt lat="57.7635394502" lon="-5.6035357062"><ele>23.69</ele><time>2012-08-10T10:54:34Z</time></trkpt><trkpt lat="57.7644857671" lon="-5.6040296517"><ele>22.25</ele><time>2012-08-10T10:54:42Z</time></trkpt><trkpt lat="57.7649221290" lon="-5.6041835435"><ele>19.84</ele><time>2012-08-10T10:54:47Z</time></trkpt><trkpt lat="57.7649845742" lon="-5.6041761674"><ele>19.36</ele><time>2012-08-10T10:54:48Z</time></trkpt><trkpt lat="57.7650429122" lon="-5.6041542068"><ele>18.88</ele><time>2012-08-10T10:54:49Z</time></trkpt><trkpt lat="57.7651012503" lon="-5.6041179132"><ele>18.88</ele><time>2012-08-10T10:54:50Z</time></trkpt><trkpt lat="57.7651656233" lon="-5.6040618382"><ele>18.88</ele><time>2012-08-10T10:54:51Z</time></trkpt><trkpt lat="57.7652383782" lon="-5.6039878260"><ele>18.88</ele><time>2012-08-10T10:54:52Z</time></trkpt><trkpt lat="57.7659511752" lon="-5.6029802375"><ele>19.36</ele><time>2012-08-10T10:54:59Z</time></trkpt><trkpt lat="57.7671170980" lon="-5.6012757774"><ele>16.00</ele><time>2012-08-10T10:55:10Z</time></trkpt><trkpt lat="57.7681450546" lon="-5.5992778670"><ele>15.52</ele><time>2012-08-10T10:55:21Z</time></trkpt><trkpt lat="57.7690376434" lon="-5.5981215835"><ele>14.56</ele><time>2012-08-10T10:55:30Z</time></trkpt><trkpt lat="57.7695332654" lon="-5.5976858921"><ele>14.56</ele><time>2012-08-10T10:55:37Z</time></trkpt><trkpt lat="57.7696427330" lon="-5.5976087786"><ele>14.56</ele><time>2012-08-10T10:55:38Z</time></trkpt><trkpt lat="57.7705853619" lon="-5.5967053771"><ele>16.00</ele><time>2012-08-10T10:55:46Z</time></trkpt><trkpt lat="57.7716185991" lon="-5.5960111041"><ele>16.96</ele><time>2012-08-10T10:55:53Z</time></trkpt><trkpt lat="57.7728830930" lon="-5.5958607327"><ele>16.96</ele><time>2012-08-10T10:56:00Z</time></trkpt><trkpt lat="57.7740283962" lon="-5.5956275482"><ele>20.81</ele><time>2012-08-10T10:56:06Z</time></trkpt><trkpt lat="57.7744340803" lon="-5.5954703875"><ele>24.17</ele><time>2012-08-10T10:56:08Z</time></trkpt><trkpt lat="57.7750294469" lon="-5.5951386318"><ele>28.98</ele><time>2012-08-10T10:56:11Z</time></trkpt><trkpt lat="57.7754235640" lon="-5.5948658008"><ele>32.82</ele><time>2012-08-10T10:56:13Z</time></trkpt><trkpt lat="57.7759846486" lon="-5.5943954084"><ele>37.63</ele><time>2012-08-10T10:56:16Z</time></trkpt><trkpt lat="57.7765225153" lon="-5.5938058253"><ele>40.99</ele><time>2012-08-10T10:56:19Z</time></trkpt><trkpt lat="57.7768727113" lon="-5.5933547951"><ele>44.36</ele><time>2012-08-10T10:56:21Z</time></trkpt><trkpt lat="57.7773571853" lon="-5.5925887730"><ele>48.20</ele><time>2012-08-10T10:56:24Z</time></trkpt><trkpt lat="57.7776457742" lon="-5.5920017045"><ele>48.68</ele><time>2012-08-10T10:56:26Z</time></trkpt><trkpt lat="57.7780382987" lon="-5.5910639372"><ele>51.09</ele><time>2012-08-10T10:56:29Z</time></trkpt><trkpt lat="57.7785578091" lon="-5.5899691768"><ele>49.65</ele><time>2012-08-10T10:56:33Z</time></trkpt><trkpt lat="57.7787043247" lon="-5.5897989403"><ele>49.16</ele><time>2012-08-10T10:56:34Z</time></trkpt><trkpt lat="57.7788601443" lon="-5.5896732956"><ele>49.16</ele><time>2012-08-10T10:56:35Z</time></trkpt><trkpt lat="57.7790277824" lon="-5.5895785801"><ele>49.16</ele><time>2012-08-10T10:56:36Z</time></trkpt><trkpt lat="57.7792081609" lon="-5.5894994549"><ele>50.13</ele><time>2012-08-10T10:56:37Z</time></trkpt><trkpt lat="57.7803480998" lon="-5.5890407972"><ele>48.20</ele><time>2012-08-10T10:56:43Z</time></trkpt><trkpt lat="57.7812459692" lon="-5.5884191953"><ele>43.88</ele><time>2012-08-10T10:56:48Z</time></trkpt><trkpt lat="57.7817660663" lon="-5.5879420973"><ele>40.99</ele><time>2012-08-10T10:56:51Z</time></trkpt><trkpt lat="57.7819246519" lon="-5.5877079070"><ele>40.99</ele><time>2012-08-10T10:56:52Z</time></trkpt><trkpt lat="57.7820784599" lon="-5.5874245986"><ele>41.47</ele><time>2012-08-10T10:56:53Z</time></trkpt><trkpt lat="57.7821912803" lon="-5.5870976206"><ele>40.99</ele><time>2012-08-10T10:56:54Z</time></trkpt><trkpt lat="57.7822643705" lon="-5.5867292359"><ele>40.03</ele><time>2012-08-10T10:56:55Z</time></trkpt><trkpt lat="57.7822344471" lon="-5.5862442590"><ele>39.07</ele><time>2012-08-10T10:56:56Z</time></trkpt><trkpt lat="57.7823073696" lon="-5.5854400154"><ele>38.59</ele><time>2012-08-10T10:56:58Z</time></trkpt><trkpt lat="57.7828708012" lon="-5.5831062421"><ele>35.23</ele><time>2012-08-10T10:57:05Z</time></trkpt><trkpt lat="57.7829718869" lon="-5.5828286335"><ele>34.74</ele><time>2012-08-10T10:57:06Z</time></trkpt><trkpt lat="57.7830935083" lon="-5.5825843010"><ele>34.74</ele><time>2012-08-10T10:57:07Z</time></trkpt><trkpt lat="57.7832313068" lon="-5.5823693052"><ele>34.74</ele><time>2012-08-10T10:57:08Z</time></trkpt><trkpt lat="57.7836562693" lon="-5.5817405786"><ele>33.78</ele><time>2012-08-10T10:57:11Z</time></trkpt><trkpt lat="57.7837825846" lon="-5.5814764649"><ele>33.78</ele><time>2012-08-10T10:57:12Z</time></trkpt><trkpt lat="57.7843162604" lon="-5.5803755857"><ele>33.78</ele><time>2012-08-10T10:57:16Z</time></trkpt><trkpt lat="57.7844683081" lon="-5.5801672116"><ele>33.30</ele><time>2012-08-10T10:57:17Z</time></trkpt><trkpt lat="57.7849273011" lon="-5.5795773771"><ele>34.26</ele><time>2012-08-10T10:57:20Z</time></trkpt><trkpt lat="57.7850716375" lon="-5.5793343019"><ele>33.78</ele><time>2012-08-10T10:57:21Z</time></trkpt><trkpt lat="57.7863295097" lon="-5.5769757181"><ele>32.82</ele><time>2012-08-10T10:57:29Z</time></trkpt><trkpt lat="57.7870120481" lon="-5.5759622622"><ele>28.98</ele><time>2012-08-10T10:57:33Z</time></trkpt><trkpt lat="57.7874901518" lon="-5.5752663966"><ele>27.05</ele><time>2012-08-10T10:57:36Z</time></trkpt><trkpt lat="57.7876463067" lon="-5.5750881974"><ele>26.57</ele><time>2012-08-10T10:57:37Z</time></trkpt><trkpt lat="57.7878109273" lon="-5.5749489740"><ele>26.09</ele><time>2012-08-10T10:57:38Z</time></trkpt><trkpt lat="57.7879887074" lon="-5.5748431105"><ele>26.57</ele><time>2012-08-10T10:57:39Z</time></trkpt><trkpt lat="57.7881793119" lon="-5.5747641530"><ele>27.53</ele><time>2012-08-10T10:57:40Z</time></trkpt><trkpt lat="57.7883780468" lon="-5.5747043900"><ele>28.02</ele><time>2012-08-10T10:57:41Z</time></trkpt><trkpt lat="57.7892997209" lon="-5.5745131988"><ele>27.05</ele><time>2012-08-10T10:57:46Z</time></trkpt><trkpt lat="57.7894601505" lon="-5.5745761469"><ele>27.05</ele><time>2012-08-10T10:57:47Z</time></trkpt><trkpt lat="57.7908371296" lon="-5.5750020314"><ele>27.53</ele><time>2012-08-10T10:57:55Z</time></trkpt><trkpt lat="57.7924622968" lon="-5.5750949029"><ele>28.02</ele><time>2012-08-10T10:58:05Z</time></trkpt><trkpt lat="57.7943154518" lon="-5.5759694707"><ele>30.42</ele><time>2012-08-10T10:58:15Z</time></trkpt><trkpt lat="57.7945032902" lon="-5.5760076083"><ele>30.90</ele><time>2012-08-10T10:58:16Z</time></trkpt><trkpt lat="57.7946899552" lon="-5.5760050099"><ele>30.90</ele><time>2012-08-10T10:58:17Z</time></trkpt><trkpt lat="57.7948717587" lon="-5.5759603344"><ele>31.86</ele><time>2012-08-10T10:58:18Z</time></trkpt><trkpt lat="57.7950463537" lon="-5.5758626852"><ele>32.34</ele><time>2012-08-10T10:58:19Z</time></trkpt><trkpt lat="57.7952123154" lon="-5.5757081229"><ele>32.82</ele><time>2012-08-10T10:58:20Z</time></trkpt><trkpt lat="57.7953727450" lon="-5.5754978210"><ele>34.26</ele><time>2012-08-10T10:58:21Z</time></trkpt><trkpt lat="57.7955273073" lon="-5.5752383173"><ele>35.71</ele><time>2012-08-10T10:58:22Z</time></trkpt><trkpt lat="57.7956766728" lon="-5.5749384966"><ele>37.63</ele><time>2012-08-10T10:58:23Z</time></trkpt><trkpt lat="57.7958200034" lon="-5.5746070761"><ele>38.59</ele><time>2012-08-10T10:58:24Z</time></trkpt><trkpt lat="57.7959596459" lon="-5.5742608197"><ele>40.51</ele><time>2012-08-10T10:58:25Z</time></trkpt><trkpt lat="57.7962274477" lon="-5.5735736713"><ele>44.84</ele><time>2012-08-10T10:58:27Z</time></trkpt><trkpt lat="57.7964901365" lon="-5.5729056336"><ele>48.68</ele><time>2012-08-10T10:58:29Z</time></trkpt><trkpt lat="57.7967418451" lon="-5.5722696986"><ele>52.05</ele><time>2012-08-10T10:58:31Z</time></trkpt><trkpt lat="57.7969736885" lon="-5.5717206001"><ele>53.97</ele><time>2012-08-10T10:58:33Z</time></trkpt><trkpt lat="57.7970939688" lon="-5.5715082865"><ele>54.93</ele><time>2012-08-10T10:58:34Z</time></trkpt><trkpt lat="57.7972247265" lon="-5.5713379662"><ele>54.93</ele><time>2012-08-10T10:58:35Z</time></trkpt><trkpt lat="57.7973749302" lon="-5.5712245591"><ele>55.89</ele><time>2012-08-10T10:58:36Z</time></trkpt><trkpt lat="57.7975431550" lon="-5.5711663049"><ele>57.82</ele><time>2012-08-10T10:58:37Z</time></trkpt><trkpt lat="57.7977268863" lon="-5.5711634550"><ele>58.78</ele><time>2012-08-10T10:58:38Z</time></trkpt><trkpt lat="57.7979202569" lon="-5.5711741000"><ele>61.66</ele><time>2012-08-10T10:58:39Z</time></trkpt><trkpt lat="57.7984984405" lon="-5.5712166801"><ele>65.03</ele><time>2012-08-10T10:58:42Z</time></trkpt><trkpt lat="57.7986741252" lon="-5.5712573323"><ele>65.99</ele><time>2012-08-10T10:58:43Z</time></trkpt><trkpt lat="57.7988341358" lon="-5.5713502876"><ele>66.47</ele><time>2012-08-10T10:58:44Z</time></trkpt><trkpt lat="57.7989765443" lon="-5.5714859907"><ele>66.95</ele><time>2012-08-10T10:58:45Z</time></trkpt><trkpt lat="57.7991038654" lon="-5.5716395471"><ele>66.95</ele><time>2012-08-10T10:58:46Z</time></trkpt><trkpt lat="57.7992241457" lon="-5.5717988033"><ele>66.95</ele><time>2012-08-10T10:58:47Z</time></trkpt><trkpt lat="57.8002490010" lon="-5.5732324440"><ele>69.35</ele><time>2012-08-10T10:58:54Z</time></trkpt><trkpt lat="57.8009200562" lon="-5.5741580576"><ele>72.72</ele><time>2012-08-10T10:58:58Z</time></trkpt><trkpt lat="57.8015176021" lon="-5.5752280075"><ele>76.08</ele><time>2012-08-10T10:59:02Z</time></trkpt><trkpt lat="57.8016194422" lon="-5.5755335279"><ele>76.08</ele><time>2012-08-10T10:59:03Z</time></trkpt><trkpt lat="57.8016993217" lon="-5.5758649483"><ele>76.56</ele><time>2012-08-10T10:59:04Z</time></trkpt><trkpt lat="57.8017590009" lon="-5.5762191676"><ele>76.56</ele><time>2012-08-10T10:59:05Z</time></trkpt><trkpt lat="57.8018016648" lon="-5.5765857082"><ele>77.52</ele><time>2012-08-10T10:59:06Z</time></trkpt><trkpt lat="57.8018327616" lon="-5.5769561883"><ele>78.48</ele><time>2012-08-10T10:59:07Z</time></trkpt><trkpt lat="57.8018859029" lon="-5.5777102243"><ele>79.45</ele><time>2012-08-10T10:59:09Z</time></trkpt><trkpt lat="57.8022975381" lon="-5.5809077527"><ele>79.93</ele><time>2012-08-10T10:59:18Z</time></trkpt><trkpt lat="57.8025602270" lon="-5.5822412297"><ele>83.77</ele><time>2012-08-10T10:59:22Z</time></trkpt><trkpt lat="57.8027012106" lon="-5.5828277953"><ele>84.73</ele><time>2012-08-10T10:59:24Z</time></trkpt><trkpt lat="57.8028474748" lon="-5.5832962599"><ele>85.21</ele><time>2012-08-10T10:59:26Z</time></trkpt><trkpt lat="57.8029356524" lon="-5.5834803265"><ele>84.73</ele><time>2012-08-10T10:59:27Z</time></trkpt><trkpt lat="57.8030384146" lon="-5.5836474616"><ele>84.73</ele><time>2012-08-10T10:59:28Z</time></trkpt><trkpt lat="57.8036507964" lon="-5.5845768470"><ele>81.85</ele><time>2012-08-10T10:59:33Z</time></trkpt><trkpt lat="57.8037899360" lon="-5.5847008992"><ele>81.37</ele><time>2012-08-10T10:59:34Z</time></trkpt><trkpt lat="57.8039370384" lon="-5.5847703014"><ele>79.93</ele><time>2012-08-10T10:59:35Z</time></trkpt><trkpt lat="57.8040947858" lon="-5.5847757496"><ele>79.93</ele><time>2012-08-10T10:59:36Z</time></trkpt><trkpt lat="57.8042556345" lon="-5.5847115442"><ele>80.41</ele><time>2012-08-10T10:59:37Z</time></trkpt><trkpt lat="57.8044180758" lon="-5.5845838040"><ele>80.89</ele><time>2012-08-10T10:59:38Z</time></trkpt><trkpt lat="57.8045817744" lon="-5.5844060238"><ele>81.85</ele><time>2012-08-10T10:59:39Z</time></trkpt><trkpt lat="57.8047460597" lon="-5.5842037685"><ele>83.77</ele><time>2012-08-10T10:59:40Z</time></trkpt><trkpt lat="57.8053839225" lon="-5.5831826851"><ele>87.62</ele><time>2012-08-10T10:59:44Z</time></trkpt><trkpt lat="57.8065939341" lon="-5.5810311344"><ele>89.06</ele><time>2012-08-10T10:59:52Z</time></trkpt><trkpt lat="57.8067433834" lon="-5.5808894802"><ele>88.58</ele><time>2012-08-10T10:59:53Z</time></trkpt><trkpt lat="57.8068973590" lon="-5.5808134563"><ele>88.58</ele><time>2012-08-10T10:59:54Z</time></trkpt><trkpt lat="57.8070541006" lon="-5.5808042362"><ele>88.58</ele><time>2012-08-10T10:59:55Z</time></trkpt><trkpt lat="57.8072089981" lon="-5.5808694474"><ele>88.58</ele><time>2012-08-10T10:59:56Z</time></trkpt><trkpt lat="57.8073501494" lon="-5.5810047314"><ele>88.58</ele><time>2012-08-10T10:59:57Z</time></trkpt><trkpt lat="57.8074730281" lon="-5.5812005326"><ele>89.54</ele><time>2012-08-10T10:59:58Z</time></trkpt><trkpt lat="57.8075754549" lon="-5.5814462900"><ele>89.06</ele><time>2012-08-10T10:59:59Z</time></trkpt><trkpt lat="57.8076639678" lon="-5.5817259103"><ele>89.06</ele><time>2012-08-10T11:00:00Z</time></trkpt><trkpt lat="57.8077483736" lon="-5.5820218753"><ele>90.50</ele><time>2012-08-10T11:00:01Z</time></trkpt><trkpt lat="57.8080060333" lon="-5.5828860495"><ele>90.98</ele><time>2012-08-10T11:00:04Z</time></trkpt><trkpt lat="57.8081184346" lon="-5.5831292924"><ele>90.98</ele><time>2012-08-10T11:00:05Z</time></trkpt><trkpt lat="57.8082520422" lon="-5.5833123531"><ele>91.46</ele><time>2012-08-10T11:00:06Z</time></trkpt><trkpt lat="57.8084034193" lon="-5.5834251735"><ele>91.46</ele><time>2012-08-10T11:00:07Z</time></trkpt><trkpt lat="57.8085695487" lon="-5.5834718607"><ele>92.90</ele><time>2012-08-10T11:00:08Z</time></trkpt><trkpt lat="57.8087501787" lon="-5.5834751297"><ele>93.87</ele><time>2012-08-10T11:00:09Z</time></trkpt><trkpt lat="57.8089421242" lon="-5.5834628921"><ele>94.83</ele><time>2012-08-10T11:00:10Z</time></trkpt><trkpt lat="57.8105889168" lon="-5.5833044741"><ele>98.67</ele><time>2012-08-10T11:00:18Z</time></trkpt><trkpt lat="57.8107765876" lon="-5.5832623970"><ele>99.15</ele><time>2012-08-10T11:00:19Z</time></trkpt><trkpt lat="57.8109558765" lon="-5.5831795838"><ele>99.63</ele><time>2012-08-10T11:00:20Z</time></trkpt><trkpt lat="57.8111277055" lon="-5.5830399413"><ele>99.63</ele><time>2012-08-10T11:00:21Z</time></trkpt><trkpt lat="57.8112959303" lon="-5.5828464869"><ele>100.11</ele><time>2012-08-10T11:00:22Z</time></trkpt><trkpt lat="57.8114615567" lon="-5.5826189183"><ele>101.56</ele><time>2012-08-10T11:00:23Z</time></trkpt><trkpt lat="57.8117752075" lon="-5.5821595900"><ele>103.00</ele><time>2012-08-10T11:00:25Z</time></trkpt><trkpt lat="57.8119130060" lon="-5.5819097254"><ele>102.52</ele><time>2012-08-10T11:00:26Z</time></trkpt><trkpt lat="57.8120392375" lon="-5.5816273391"><ele>104.44</ele><time>2012-08-10T11:00:27Z</time></trkpt><trkpt lat="57.8126398008" lon="-5.5799942091"><ele>105.88</ele><time>2012-08-10T11:00:32Z</time></trkpt><trkpt lat="57.8127775155" lon="-5.5797155946"><ele>105.88</ele><time>2012-08-10T11:00:33Z</time></trkpt><trkpt lat="57.8130371030" lon="-5.5791967548"><ele>106.36</ele><time>2012-08-10T11:00:35Z</time></trkpt><trkpt lat="57.8131288849" lon="-5.5789136142"><ele>106.84</ele><time>2012-08-10T11:00:36Z</time></trkpt><trkpt lat="57.8131964430" lon="-5.5786037352"><ele>107.81</ele><time>2012-08-10T11:00:37Z</time></trkpt><trkpt lat="57.8133609798" lon="-5.5777153373"><ele>109.25</ele><time>2012-08-10T11:00:40Z</time></trkpt><trkpt lat="57.8134398535" lon="-5.5774710048"><ele>110.21</ele><time>2012-08-10T11:00:41Z</time></trkpt><trkpt lat="57.8135449626" lon="-5.5772783887"><ele>111.17</ele><time>2012-08-10T11:00:42Z</time></trkpt><trkpt lat="57.8136682604" lon="-5.5771604553"><ele>111.17</ele><time>2012-08-10T11:00:43Z</time></trkpt><trkpt lat="57.8137983475" lon="-5.5771332141"><ele>112.13</ele><time>2012-08-10T11:00:44Z</time></trkpt><trkpt lat="57.8139249980" lon="-5.5771949887"><ele>112.13</ele><time>2012-08-10T11:00:45Z</time></trkpt><trkpt lat="57.8140520677" lon="-5.5773315299"><ele>113.09</ele><time>2012-08-10T11:00:46Z</time></trkpt><trkpt lat="57.8141855076" lon="-5.5775200389"><ele>114.53</ele><time>2012-08-10T11:00:47Z</time></trkpt><trkpt lat="57.8143245634" lon="-5.5777358729"><ele>115.50</ele><time>2012-08-10T11:00:48Z</time></trkpt><trkpt lat="57.8144681454" lon="-5.5779625196"><ele>115.01</ele><time>2012-08-10T11:00:49Z</time></trkpt><trkpt lat="57.8148882464" lon="-5.5785743147"><ele>114.05</ele><time>2012-08-10T11:00:52Z</time></trkpt><trkpt lat="57.8150504362" lon="-5.5787246861"><ele>114.05</ele><time>2012-08-10T11:00:53Z</time></trkpt><trkpt lat="57.8161798138" lon="-5.5796704162"><ele>111.65</ele><time>2012-08-10T11:00:59Z</time></trkpt><trkpt lat="57.8173269611" lon="-5.5811530910"><ele>107.32</ele><time>2012-08-10T11:01:06Z</time></trkpt><trkpt lat="57.8174420446" lon="-5.5814106669"><ele>106.36</ele><time>2012-08-10T11:01:07Z</time></trkpt><trkpt lat="57.8176634945" lon="-5.5818932131"><ele>102.52</ele><time>2012-08-10T11:01:09Z</time></trkpt><trkpt lat="57.8177866247" lon="-5.5820666347"><ele>101.08</ele><time>2012-08-10T11:01:10Z</time></trkpt><trkpt lat="57.8179190587" lon="-5.5821736716"><ele>99.63</ele><time>2012-08-10T11:01:11Z</time></trkpt><trkpt lat="57.8180576954" lon="-5.5822252203"><ele>98.67</ele><time>2012-08-10T11:01:12Z</time></trkpt><trkpt lat="57.8182085697" lon="-5.5822521262"><ele>97.71</ele><time>2012-08-10T11:01:13Z</time></trkpt><trkpt lat="57.8183625452" lon="-5.5822745059"><ele>97.71</ele><time>2012-08-10T11:01:14Z</time></trkpt><trkpt lat="57.8186675627" lon="-5.5822794512"><ele>97.71</ele><time>2012-08-10T11:01:16Z</time></trkpt><trkpt lat="57.8188149165" lon="-5.5822129827"><ele>97.23</ele><time>2012-08-10T11:01:17Z</time></trkpt><trkpt lat="57.8189520445" lon="-5.5820776988"><ele>96.75</ele><time>2012-08-10T11:01:18Z</time></trkpt><trkpt lat="57.8190774377" lon="-5.5818845797"><ele>98.19</ele><time>2012-08-10T11:01:19Z</time></trkpt><trkpt lat="57.8191989753" lon="-5.5816596933"><ele>99.15</ele><time>2012-08-10T11:01:20Z</time></trkpt><trkpt lat="57.8194579761" lon="-5.5812580325"><ele>100.60</ele><time>2012-08-10T11:01:22Z</time></trkpt><trkpt lat="57.8196090180" lon="-5.5811157916"><ele>101.08</ele><time>2012-08-10T11:01:23Z</time></trkpt><trkpt lat="57.8199343197" lon="-5.5808825232"><ele>102.04</ele><time>2012-08-10T11:01:25Z</time></trkpt><trkpt lat="57.8200918157" lon="-5.5807368457"><ele>102.04</ele><time>2012-08-10T11:01:26Z</time></trkpt><trkpt lat="57.8202392533" lon="-5.5805517733"><ele>101.08</ele><time>2012-08-10T11:01:27Z</time></trkpt><trkpt lat="57.8203759622" lon="-5.5803438183"><ele>100.60</ele><time>2012-08-10T11:01:28Z</time></trkpt><trkpt lat="57.8205063846" lon="-5.5801382940"><ele>100.11</ele><time>2012-08-10T11:01:29Z</time></trkpt><trkpt lat="57.8206415847" lon="-5.5799673870"><ele>99.63</ele><time>2012-08-10T11:01:30Z</time></trkpt><trkpt lat="57.8207875136" lon="-5.5798624456"><ele>97.71</ele><time>2012-08-10T11:01:31Z</time></trkpt><trkpt lat="57.8209433332" lon="-5.5798318516"><ele>97.71</ele><time>2012-08-10T11:01:32Z</time></trkpt><trkpt lat="57.8211054392" lon="-5.5798698217"><ele>97.71</ele><time>2012-08-10T11:01:33Z</time></trkpt><trkpt lat="57.8212754242" lon="-5.5799421575"><ele>97.23</ele><time>2012-08-10T11:01:34Z</time></trkpt><trkpt lat="57.8218058310" lon="-5.5801144056"><ele>94.83</ele><time>2012-08-10T11:01:37Z</time></trkpt><trkpt lat="57.8219800908" lon="-5.5801118910"><ele>93.87</ele><time>2012-08-10T11:01:38Z</time></trkpt><trkpt lat="57.8221501596" lon="-5.5800638627"><ele>93.39</ele><time>2012-08-10T11:01:39Z</time></trkpt><trkpt lat="57.8223201446" lon="-5.5799706560"><ele>93.87</ele><time>2012-08-10T11:01:40Z</time></trkpt><trkpt lat="57.8224906325" lon="-5.5798378866"><ele>93.87</ele><time>2012-08-10T11:01:41Z</time></trkpt><trkpt lat="57.8226622101" lon="-5.5796777084"><ele>94.35</ele><time>2012-08-10T11:01:42Z</time></trkpt><trkpt lat="57.8228311893" lon="-5.5794994254"><ele>94.83</ele><time>2012-08-10T11:01:43Z</time></trkpt><trkpt lat="57.8239154723" lon="-5.5777880922"><ele>93.87</ele><time>2012-08-10T11:01:50Z</time></trkpt><trkpt lat="57.8243440390" lon="-5.5770805757"><ele>91.46</ele><time>2012-08-10T11:01:53Z</time></trkpt><trkpt lat="57.8244908899" lon="-5.5769124348"><ele>91.46</ele><time>2012-08-10T11:01:54Z</time></trkpt><trkpt lat="57.8246420994" lon="-5.5767917354"><ele>90.50</ele><time>2012-08-10T11:01:55Z</time></trkpt><trkpt lat="57.8247949854" lon="-5.5767275300"><ele>90.50</ele><time>2012-08-10T11:01:56Z</time></trkpt><trkpt lat="57.8249446023" lon="-5.5767204054"><ele>89.54</ele><time>2012-08-10T11:01:57Z</time></trkpt><trkpt lat="57.8250868432" lon="-5.5767624825"><ele>89.06</ele><time>2012-08-10T11:01:58Z</time></trkpt><trkpt lat="57.8252227139" lon="-5.5768438708"><ele>88.10</ele><time>2012-08-10T11:01:59Z</time></trkpt><trkpt lat="57.8253548965" lon="-5.5769438669"><ele>87.14</ele><time>2012-08-10T11:02:00Z</time></trkpt><trkpt lat="57.8254861571" lon="-5.5770627223"><ele>86.18</ele><time>2012-08-10T11:02:01Z</time></trkpt><trkpt lat="57.8256202675" lon="-5.5771966651"><ele>85.69</ele><time>2012-08-10T11:02:02Z</time></trkpt><trkpt lat="57.8260500915" lon="-5.5775454361"><ele>81.37</ele><time>2012-08-10T11:02:05Z</time></trkpt><trkpt lat="57.8262144607" lon="-5.5776227172"><ele>80.89</ele><time>2012-08-10T11:02:06Z</time></trkpt><trkpt lat="57.8263887204" lon="-5.5776757747"><ele>79.45</ele><time>2012-08-10T11:02:07Z</time></trkpt><trkpt lat="57.8275534697" lon="-5.5778123997"><ele>75.60</ele><time>2012-08-10T11:02:13Z</time></trkpt><trkpt lat="57.8281516023" lon="-5.5778636970"><ele>72.24</ele><time>2012-08-10T11:02:16Z</time></trkpt><trkpt lat="57.8287109267" lon="-5.5779211968"><ele>68.87</ele><time>2012-08-10T11:02:19Z</time></trkpt><trkpt lat="57.8288851026" lon="-5.5779619329"><ele>66.95</ele><time>2012-08-10T11:02:20Z</time></trkpt><trkpt lat="57.8290499747" lon="-5.5780355260"><ele>65.99</ele><time>2012-08-10T11:02:21Z</time></trkpt><trkpt lat="57.8292029444" lon="-5.5781397969"><ele>64.55</ele><time>2012-08-10T11:02:22Z</time></trkpt><trkpt lat="57.8296256438" lon="-5.5784333311"><ele>61.66</ele><time>2012-08-10T11:02:25Z</time></trkpt><trkpt lat="57.8297749255" lon="-5.5784618296"><ele>61.18</ele><time>2012-08-10T11:02:26Z</time></trkpt><trkpt lat="57.8299352713" lon="-5.5784562975"><ele>61.18</ele><time>2012-08-10T11:02:27Z</time></trkpt><trkpt lat="57.8301027417" lon="-5.5784243625"><ele>61.18</ele><time>2012-08-10T11:02:28Z</time></trkpt><trkpt lat="57.8302716371" lon="-5.5783641804"><ele>60.22</ele><time>2012-08-10T11:02:29Z</time></trkpt><trkpt lat="57.8304313123" lon="-5.5782775953"><ele>59.74</ele><time>2012-08-10T11:02:30Z</time></trkpt><trkpt lat="57.8305779956" lon="-5.5781509448"><ele>58.78</ele><time>2012-08-10T11:02:31Z</time></trkpt><trkpt lat="57.8307076637" lon="-5.5779760983"><ele>57.34</ele><time>2012-08-10T11:02:32Z</time></trkpt><trkpt lat="57.8308189753" lon="-5.5777519662"><ele>57.34</ele><time>2012-08-10T11:02:33Z</time></trkpt><trkpt lat="57.8309242520" lon="-5.5775073823"><ele>57.34</ele><time>2012-08-10T11:02:34Z</time></trkpt><trkpt lat="57.8311321232" lon="-5.5770023726"><ele>53.49</ele><time>2012-08-10T11:02:36Z</time></trkpt><trkpt lat="57.8312334605" lon="-5.5767567828"><ele>54.45</ele><time>2012-08-10T11:02:37Z</time></trkpt><trkpt lat="57.8314301837" lon="-5.5762891565"><ele>51.09</ele><time>2012-08-10T11:02:39Z</time></trkpt><trkpt lat="57.8316968959" lon="-5.5757269822"><ele>47.24</ele><time>2012-08-10T11:02:42Z</time></trkpt><trkpt lat="57.8317972273" lon="-5.5756302550"><ele>46.76</ele><time>2012-08-10T11:02:43Z</time></trkpt><trkpt lat="57.8319066111" lon="-5.5756043550"><ele>45.80</ele><time>2012-08-10T11:02:44Z</time></trkpt><trkpt lat="57.8320111334" lon="-5.5756439175"><ele>44.84</ele><time>2012-08-10T11:02:45Z</time></trkpt><trkpt lat="57.8320973832" lon="-5.5757501163"><ele>44.36</ele><time>2012-08-10T11:02:46Z</time></trkpt><trkpt lat="57.8321589902" lon="-5.5759083666"><ele>43.88</ele><time>2012-08-10T11:02:47Z</time></trkpt><trkpt lat="57.8321886621" lon="-5.5761033297"><ele>42.44</ele><time>2012-08-10T11:02:48Z</time></trkpt><trkpt lat="57.8321839683" lon="-5.5763260368"><ele>42.44</ele><time>2012-08-10T11:02:49Z</time></trkpt><trkpt lat="57.8321470879" lon="-5.5765677709"><ele>42.92</ele><time>2012-08-10T11:02:50Z</time></trkpt><trkpt lat="57.8320897557" lon="-5.5768221617"><ele>42.44</ele><time>2012-08-10T11:02:51Z</time></trkpt><trkpt lat="57.8320140671" lon="-5.5770844314"><ele>43.40</ele><time>2012-08-10T11:02:52Z</time></trkpt><trkpt lat="57.8316967282" lon="-5.5781646911"><ele>40.03</ele><time>2012-08-10T11:02:56Z</time></trkpt><trkpt lat="57.8315625340" lon="-5.5786879733"><ele>37.15</ele><time>2012-08-10T11:02:58Z</time></trkpt><trkpt lat="57.8315198701" lon="-5.5789522547"><ele>36.67</ele><time>2012-08-10T11:02:59Z</time></trkpt><trkpt lat="57.8315033577" lon="-5.5792162847"><ele>34.74</ele><time>2012-08-10T11:03:00Z</time></trkpt><trkpt lat="57.8315162659" lon="-5.5794612877"><ele>33.30</ele><time>2012-08-10T11:03:01Z</time></trkpt><trkpt lat="57.8315617796" lon="-5.5796703324"><ele>31.86</ele><time>2012-08-10T11:03:02Z</time></trkpt><trkpt lat="57.8316402342" lon="-5.5798429158"><ele>31.86</ele><time>2012-08-10T11:03:03Z</time></trkpt><trkpt lat="57.8317470197" lon="-5.5799816363"><ele>30.42</ele><time>2012-08-10T11:03:04Z</time></trkpt><trkpt lat="57.8318778612" lon="-5.5800887570"><ele>30.42</ele><time>2012-08-10T11:03:05Z</time></trkpt><trkpt lat="57.8320273943" lon="-5.5801502801"><ele>29.46</ele><time>2012-08-10T11:03:06Z</time></trkpt><trkpt lat="57.8321854770" lon="-5.5801688042"><ele>28.50</ele><time>2012-08-10T11:03:07Z</time></trkpt><trkpt lat="57.8323473316" lon="-5.5801638588"><ele>28.50</ele><time>2012-08-10T11:03:08Z</time></trkpt><trkpt lat="57.8328292910" lon="-5.5801268108"><ele>26.57</ele><time>2012-08-10T11:03:11Z</time></trkpt><trkpt lat="57.8331427742" lon="-5.5801063590"><ele>25.13</ele><time>2012-08-10T11:03:13Z</time></trkpt><trkpt lat="57.8351893835" lon="-5.5797484517"><ele>26.57</ele><time>2012-08-10T11:03:27Z</time></trkpt><trkpt lat="57.8370498307" lon="-5.5789106805"><ele>24.17</ele><time>2012-08-10T11:03:39Z</time></trkpt><trkpt lat="57.8372092545" lon="-5.5788257718"><ele>25.13</ele><time>2012-08-10T11:03:40Z</time></trkpt><trkpt lat="57.8373609670" lon="-5.5787101015"><ele>26.57</ele><time>2012-08-10T11:03:41Z</time></trkpt><trkpt lat="57.8374988493" lon="-5.5785469897"><ele>26.57</ele><time>2012-08-10T11:03:42Z</time></trkpt><trkpt lat="57.8376153577" lon="-5.5783348437"><ele>28.02</ele><time>2012-08-10T11:03:43Z</time></trkpt><trkpt lat="57.8377109114" lon="-5.5780729931"><ele>29.94</ele><time>2012-08-10T11:03:44Z</time></trkpt><trkpt lat="57.8377868515" lon="-5.5777696520"><ele>30.90</ele><time>2012-08-10T11:03:45Z</time></trkpt><trkpt lat="57.8378496319" lon="-5.5774365552"><ele>31.86</ele><time>2012-08-10T11:03:46Z</time></trkpt><trkpt lat="57.8379104007" lon="-5.5770925619"><ele>32.34</ele><time>2012-08-10T11:03:47Z</time></trkpt><trkpt lat="57.8380456846" lon="-5.5764650088"><ele>33.30</ele><time>2012-08-10T11:03:49Z</time></trkpt><trkpt lat="57.8381326050" lon="-5.5761926807"><ele>33.30</ele><time>2012-08-10T11:03:50Z</time></trkpt><trkpt lat="57.8382388037" lon="-5.5759460013"><ele>33.78</ele><time>2012-08-10T11:03:51Z</time></trkpt><trkpt lat="57.8383624367" lon="-5.5757205281"><ele>34.74</ele><time>2012-08-10T11:03:52Z</time></trkpt><trkpt lat="57.8384989779" lon="-5.5755011737"><ele>34.74</ele><time>2012-08-10T11:03:53Z</time></trkpt><trkpt lat="57.8391707037" lon="-5.5743685272"><ele>34.74</ele><time>2012-08-10T11:03:58Z</time></trkpt><trkpt lat="57.8392805904" lon="-5.5741094425"><ele>34.26</ele><time>2012-08-10T11:03:59Z</time></trkpt><trkpt lat="57.8393718693" lon="-5.5738272239"><ele>33.78</ele><time>2012-08-10T11:04:00Z</time></trkpt><trkpt lat="57.8394433670" lon="-5.5735201947"><ele>33.78</ele><time>2012-08-10T11:04:01Z</time></trkpt><trkpt lat="57.8394917306" lon="-5.5731916241"><ele>35.23</ele><time>2012-08-10T11:04:02Z</time></trkpt><trkpt lat="57.8395194747" lon="-5.5728411768"><ele>35.71</ele><time>2012-08-10T11:04:03Z</time></trkpt><trkpt lat="57.8395348974" lon="-5.5724694394"><ele>37.15</ele><time>2012-08-10T11:04:04Z</time></trkpt><trkpt lat="57.8395666648" lon="-5.5716829654"><ele>41.47</ele><time>2012-08-10T11:04:06Z</time></trkpt><trkpt lat="57.8396115918" lon="-5.5708610360"><ele>44.84</ele><time>2012-08-10T11:04:08Z</time></trkpt><trkpt lat="57.8396892082" lon="-5.5700229295"><ele>49.65</ele><time>2012-08-10T11:04:10Z</time></trkpt><trkpt lat="57.8399134241" lon="-5.5688622035"><ele>53.01</ele><time>2012-08-10T11:04:13Z</time></trkpt><trkpt lat="57.8400167730" lon="-5.5685167853"><ele>54.45</ele><time>2012-08-10T11:04:14Z</time></trkpt><trkpt lat="57.8401343711" lon="-5.5681942496"><ele>55.89</ele><time>2012-08-10T11:04:15Z</time></trkpt><trkpt lat="57.8402672242" lon="-5.5678962730"><ele>56.86</ele><time>2012-08-10T11:04:16Z</time></trkpt><trkpt lat="57.8404122312" lon="-5.5676280521"><ele>57.34</ele><time>2012-08-10T11:04:17Z</time></trkpt><trkpt lat="57.8405693080" lon="-5.5673875753"><ele>57.82</ele><time>2012-08-10T11:04:18Z</time></trkpt><trkpt lat="57.8407345992" lon="-5.5671700649"><ele>57.82</ele><time>2012-08-10T11:04:19Z</time></trkpt><trkpt lat="57.8418138530" lon="-5.5661066528"><ele>60.70</ele><time>2012-08-10T11:04:25Z</time></trkpt><trkpt lat="57.8421887755" lon="-5.5657686107"><ele>61.66</ele><time>2012-08-10T11:04:27Z</time></trkpt><trkpt lat="57.8430681210" lon="-5.5648631137"><ele>62.62</ele><time>2012-08-10T11:04:32Z</time></trkpt><trkpt lat="57.8432018962" lon="-5.5646274146"><ele>62.62</ele><time>2012-08-10T11:04:33Z</time></trkpt><trkpt lat="57.8433210868" lon="-5.5643745326"><ele>62.14</ele><time>2012-08-10T11:04:34Z</time></trkpt><trkpt lat="57.8437908087" lon="-5.5633607414"><ele>65.99</ele><time>2012-08-10T11:04:38Z</time></trkpt><trkpt lat="57.8442183696" lon="-5.5627775285"><ele>68.87</ele><time>2012-08-10T11:04:41Z</time></trkpt><trkpt lat="57.8447133210" lon="-5.5623069685"><ele>71.27</ele><time>2012-08-10T11:04:44Z</time></trkpt><trkpt lat="57.8458983544" lon="-5.5612194166"><ele>75.12</ele><time>2012-08-10T11:04:51Z</time></trkpt><trkpt lat="57.8471610881" lon="-5.5595725402"><ele>75.12</ele><time>2012-08-10T11:04:59Z</time></trkpt><trkpt lat="57.8478652518" lon="-5.5590356793"><ele>77.52</ele><time>2012-08-10T11:05:03Z</time></trkpt><trkpt lat="57.8498084284" lon="-5.5582834873"><ele>78.97</ele><time>2012-08-10T11:05:14Z</time></trkpt><trkpt lat="57.8501152061" lon="-5.5580813158"><ele>78.97</ele><time>2012-08-10T11:05:16Z</time></trkpt><trkpt lat="57.8502614703" lon="-5.5579369795"><ele>78.48</ele><time>2012-08-10T11:05:17Z</time></trkpt><trkpt lat="57.8504107520" lon="-5.5577518232"><ele>78.48</ele><time>2012-08-10T11:05:18Z</time></trkpt><trkpt lat="57.8516610805" lon="-5.5561411567"><ele>76.08</ele><time>2012-08-10T11:05:25Z</time></trkpt><trkpt lat="57.8521930799" lon="-5.5554470513"><ele>72.24</ele><time>2012-08-10T11:05:28Z</time></trkpt><trkpt lat="57.8526876960" lon="-5.5548107810"><ele>69.35</ele><time>2012-08-10T11:05:31Z</time></trkpt><trkpt lat="57.8531241417" lon="-5.5542781949"><ele>66.47</ele><time>2012-08-10T11:05:34Z</time></trkpt><trkpt lat="57.8532711603" lon="-5.5541495327"><ele>65.51</ele><time>2012-08-10T11:05:35Z</time></trkpt><trkpt lat="57.8534310032" lon="-5.5540439207"><ele>65.51</ele><time>2012-08-10T11:05:36Z</time></trkpt><trkpt lat="57.8536054306" lon="-5.5539712496"><ele>65.99</ele><time>2012-08-10T11:05:37Z</time></trkpt><trkpt lat="57.8543116897" lon="-5.5537948944"><ele>63.10</ele><time>2012-08-10T11:05:41Z</time></trkpt><trkpt lat="57.8555916063" lon="-5.5529038142"><ele>62.14</ele><time>2012-08-10T11:05:49Z</time></trkpt><trkpt lat="57.8571151011" lon="-5.5513931438"><ele>61.66</ele><time>2012-08-10T11:05:58Z</time></trkpt><trkpt lat="57.8584758192" lon="-5.5505775847"><ele>58.78</ele><time>2012-08-10T11:06:04Z</time></trkpt><trkpt lat="57.8589048889" lon="-5.5503081065"><ele>55.89</ele><time>2012-08-10T11:06:06Z</time></trkpt><trkpt lat="57.8595098108" lon="-5.5499030929"><ele>52.05</ele><time>2012-08-10T11:06:09Z</time></trkpt><trkpt lat="57.8596923687" lon="-5.5497274082"><ele>51.57</ele><time>2012-08-10T11:06:10Z</time></trkpt><trkpt lat="57.8598613478" lon="-5.5495110713"><ele>51.09</ele><time>2012-08-10T11:06:11Z</time></trkpt><trkpt lat="57.8600166645" lon="-5.5492594466"><ele>50.61</ele><time>2012-08-10T11:06:12Z</time></trkpt><trkpt lat="57.8601578996" lon="-5.5489907227"><ele>50.61</ele><time>2012-08-10T11:06:13Z</time></trkpt><trkpt lat="57.8602889925" lon="-5.5487250164"><ele>49.65</ele><time>2012-08-10T11:06:14Z</time></trkpt><trkpt lat="57.8604112007" lon="-5.5484686978"><ele>49.65</ele><time>2012-08-10T11:06:15Z</time></trkpt><trkpt lat="57.8606396914" lon="-5.5479977187"><ele>48.20</ele><time>2012-08-10T11:06:17Z</time></trkpt><trkpt lat="57.8619764373" lon="-5.5456718244"><ele>46.76</ele><time>2012-08-10T11:06:29Z</time></trkpt><trkpt lat="57.8627344128" lon="-5.5446825922"><ele>43.40</ele><time>2012-08-10T11:06:35Z</time></trkpt><trkpt lat="57.8634451143" lon="-5.5437466688"><ele>39.55</ele><time>2012-08-10T11:06:41Z</time></trkpt><trkpt lat="57.8640205320" lon="-5.5429975782"><ele>35.71</ele><time>2012-08-10T11:06:46Z</time></trkpt><trkpt lat="57.8644577321" lon="-5.5424038041"><ele>31.38</ele><time>2012-08-10T11:06:50Z</time></trkpt><trkpt lat="57.8645630088" lon="-5.5422518402"><ele>31.86</ele><time>2012-08-10T11:06:51Z</time></trkpt><trkpt lat="57.8648646735" lon="-5.5417848844"><ele>28.50</ele><time>2012-08-10T11:06:54Z</time></trkpt><trkpt lat="57.8652910609" lon="-5.5409725942"><ele>23.69</ele><time>2012-08-10T11:06:59Z</time></trkpt><trkpt lat="57.8656556737" lon="-5.5401199032"><ele>20.32</ele><time>2012-08-10T11:07:04Z</time></trkpt><trkpt lat="57.8660792951" lon="-5.5391662102"><ele>17.92</ele><time>2012-08-10T11:07:09Z</time></trkpt><trkpt lat="57.8662919439" lon="-5.5384194665"><ele>16.48</ele><time>2012-08-10T11:07:12Z</time></trkpt><trkpt lat="57.8663452528" lon="-5.5381512456"><ele>16.48</ele><time>2012-08-10T11:07:13Z</time></trkpt><trkpt lat="57.8663893417" lon="-5.5378787499"><ele>16.00</ele><time>2012-08-10T11:07:14Z</time></trkpt><trkpt lat="57.8666941077" lon="-5.5350501090"><ele>18.40</ele><time>2012-08-10T11:07:24Z</time></trkpt><trkpt lat="57.8667005617" lon="-5.5347376317"><ele>19.36</ele><time>2012-08-10T11:07:25Z</time></trkpt><trkpt lat="57.8666863125" lon="-5.5344249029"><ele>20.32</ele><time>2012-08-10T11:07:26Z</time></trkpt><trkpt lat="57.8666488454" lon="-5.5341018643"><ele>20.32</ele><time>2012-08-10T11:07:27Z</time></trkpt><trkpt lat="57.8665898368" lon="-5.5337712821"><ele>21.29</ele><time>2012-08-10T11:07:28Z</time></trkpt><trkpt lat="57.8665174171" lon="-5.5334500875"><ele>22.25</ele><time>2012-08-10T11:07:29Z</time></trkpt><trkpt lat="57.8661903553" lon="-5.5321791396"><ele>23.21</ele><time>2012-08-10T11:07:33Z</time></trkpt><trkpt lat="57.8656384069" lon="-5.5291770771"><ele>22.73</ele><time>2012-08-10T11:07:42Z</time></trkpt><trkpt lat="57.8654072341" lon="-5.5277411733"><ele>25.61</ele><time>2012-08-10T11:07:46Z</time></trkpt><trkpt lat="57.8652970959" lon="-5.5270339083"><ele>28.98</ele><time>2012-08-10T11:07:48Z</time></trkpt><trkpt lat="57.8651332296" lon="-5.5260393117"><ele>31.86</ele><time>2012-08-10T11:07:51Z</time></trkpt><trkpt lat="57.8648194950" lon="-5.5245080218"><ele>34.74</ele><time>2012-08-10T11:07:56Z</time></trkpt><trkpt lat="57.8647166491" lon="-5.5242283177"><ele>35.23</ele><time>2012-08-10T11:07:57Z</time></trkpt><trkpt lat="57.8645973746" lon="-5.5239591748"><ele>35.23</ele><time>2012-08-10T11:07:58Z</time></trkpt><trkpt lat="57.8640222922" lon="-5.5227225088"><ele>31.38</ele><time>2012-08-10T11:08:03Z</time></trkpt><trkpt lat="57.8639597632" lon="-5.5224648491"><ele>30.42</ele><time>2012-08-10T11:08:04Z</time></trkpt><trkpt lat="57.8639310971" lon="-5.5221925210"><ele>29.94</ele><time>2012-08-10T11:08:05Z</time></trkpt><trkpt lat="57.8639344499" lon="-5.5219005793"><ele>31.38</ele><time>2012-08-10T11:08:06Z</time></trkpt><trkpt lat="57.8639660496" lon="-5.5215879343"><ele>32.82</ele><time>2012-08-10T11:08:07Z</time></trkpt><trkpt lat="57.8640101384" lon="-5.5212566815"><ele>34.26</ele><time>2012-08-10T11:08:08Z</time></trkpt><trkpt lat="57.8640593402" lon="-5.5209121853"><ele>34.74</ele><time>2012-08-10T11:08:09Z</time></trkpt><trkpt lat="57.8641859069" lon="-5.5198644474"><ele>39.07</ele><time>2012-08-10T11:08:12Z</time></trkpt><trkpt lat="57.8641982283" lon="-5.5195079651"><ele>40.99</ele><time>2012-08-10T11:08:13Z</time></trkpt><trkpt lat="57.8641871642" lon="-5.5191553384"><ele>40.51</ele><time>2012-08-10T11:08:14Z</time></trkpt><trkpt lat="57.8641566541" lon="-5.5188151170"><ele>41.95</ele><time>2012-08-10T11:08:15Z</time></trkpt><trkpt lat="57.8641174268" lon="-5.5184853729"><ele>43.40</ele><time>2012-08-10T11:08:16Z</time></trkpt><trkpt lat="57.8640352003" lon="-5.5178328417"><ele>44.84</ele><time>2012-08-10T11:08:18Z</time></trkpt><trkpt lat="57.8634861019" lon="-5.5152887665"><ele>42.44</ele><time>2012-08-10T11:08:26Z</time></trkpt><trkpt lat="57.8623678721" lon="-5.5124182161"><ele>40.51</ele><time>2012-08-10T11:08:36Z</time></trkpt><trkpt lat="57.8613066394" lon="-5.5102661625"><ele>42.92</ele><time>2012-08-10T11:08:44Z</time></trkpt><trkpt lat="57.8607673477" lon="-5.5079421960"><ele>39.07</ele><time>2012-08-10T11:08:51Z</time></trkpt><trkpt lat="57.8606784996" lon="-5.5072982144"><ele>36.67</ele><time>2012-08-10T11:08:53Z</time></trkpt><trkpt lat="57.8606561199" lon="-5.5069605075"><ele>36.19</ele><time>2012-08-10T11:08:54Z</time></trkpt><trkpt lat="57.8606444690" lon="-5.5066145863"><ele>35.23</ele><time>2012-08-10T11:08:55Z</time></trkpt><trkpt lat="57.8606403619" lon="-5.5062607024"><ele>35.23</ele><time>2012-08-10T11:08:56Z</time></trkpt><trkpt lat="57.8606064990" lon="-5.5032296386"><ele>31.86</ele><time>2012-08-10T11:09:04Z</time></trkpt><trkpt lat="57.8601372801" lon="-5.4995706026"><ele>31.86</ele><time>2012-08-10T11:09:14Z</time></trkpt><trkpt lat="57.8599030059" lon="-5.4985219426"><ele>35.71</ele><time>2012-08-10T11:09:17Z</time></trkpt><trkpt lat="57.8597527184" lon="-5.4978395719"><ele>39.55</ele><time>2012-08-10T11:09:19Z</time></trkpt><trkpt lat="57.8595975693" lon="-5.4971446283"><ele>44.36</ele><time>2012-08-10T11:09:21Z</time></trkpt><trkpt lat="57.8594425041" lon="-5.4964507744"><ele>48.20</ele><time>2012-08-10T11:09:23Z</time></trkpt><trkpt lat="57.8592957370" lon="-5.4957796354"><ele>51.09</ele><time>2012-08-10T11:09:25Z</time></trkpt><trkpt lat="57.8590840101" lon="-5.4948788323"><ele>54.45</ele><time>2012-08-10T11:09:28Z</time></trkpt><trkpt lat="57.8587888833" lon="-5.4939316772"><ele>58.78</ele><time>2012-08-10T11:09:32Z</time></trkpt><trkpt lat="57.8583816066" lon="-5.4930715263"><ele>61.66</ele><time>2012-08-10T11:09:37Z</time></trkpt><trkpt lat="57.8573990799" lon="-5.4919176735"><ele>61.18</ele><time>2012-08-10T11:09:45Z</time></trkpt><trkpt lat="57.8563450556" lon="-5.4910120089"><ele>58.30</ele><time>2012-08-10T11:09:52Z</time></trkpt><trkpt lat="57.8556413110" lon="-5.4904128704"><ele>54.93</ele><time>2012-08-10T11:09:57Z</time></trkpt><trkpt lat="57.8549174499" lon="-5.4899919312"><ele>51.09</ele><time>2012-08-10T11:10:02Z</time></trkpt><trkpt lat="57.8543629032" lon="-5.4897517059"><ele>48.20</ele><time>2012-08-10T11:10:06Z</time></trkpt><trkpt lat="57.8542475682" lon="-5.4896548111"><ele>48.20</ele><time>2012-08-10T11:10:07Z</time></trkpt><trkpt lat="57.8541359212" lon="-5.4895300046"><ele>48.20</ele><time>2012-08-10T11:10:08Z</time></trkpt><trkpt lat="57.8540292196" lon="-5.4893810581"><ele>48.68</ele><time>2012-08-10T11:10:09Z</time></trkpt><trkpt lat="57.8539313190" lon="-5.4892001767"><ele>49.65</ele><time>2012-08-10T11:10:10Z</time></trkpt><trkpt lat="57.8538434766" lon="-5.4890006874"><ele>49.65</ele><time>2012-08-10T11:10:11Z</time></trkpt><trkpt lat="57.8537654411" lon="-5.4887978453"><ele>50.13</ele><time>2012-08-10T11:10:12Z</time></trkpt><trkpt lat="57.8534455039" lon="-5.4876677133"><ele>51.09</ele><time>2012-08-10T11:10:18Z</time></trkpt><trkpt lat="57.8534179274" lon="-5.4874640331"><ele>52.05</ele><time>2012-08-10T11:10:19Z</time></trkpt><trkpt lat="57.8534048516" lon="-5.4872519709"><ele>53.49</ele><time>2012-08-10T11:10:20Z</time></trkpt><trkpt lat="57.8534063604" lon="-5.4870420042"><ele>54.45</ele><time>2012-08-10T11:10:21Z</time></trkpt><trkpt lat="57.8534210287" lon="-5.4868311156"><ele>55.41</ele><time>2012-08-10T11:10:22Z</time></trkpt><trkpt lat="57.8534518741" lon="-5.4866093304"><ele>56.37</ele><time>2012-08-10T11:10:23Z</time></trkpt><trkpt lat="57.8534980584" lon="-5.4863827676"><ele>57.82</ele><time>2012-08-10T11:10:24Z</time></trkpt><trkpt lat="57.8535543848" lon="-5.4861562047"><ele>58.78</ele><time>2012-08-10T11:10:25Z</time></trkpt><trkpt lat="57.8536193445" lon="-5.4859355092"><ele>59.74</ele><time>2012-08-10T11:10:26Z</time></trkpt><trkpt lat="57.8539421316" lon="-5.4848235659"><ele>62.62</ele><time>2012-08-10T11:10:31Z</time></trkpt><trkpt lat="57.8539856337" lon="-5.4845695943"><ele>63.10</ele><time>2012-08-10T11:10:32Z</time></trkpt><trkpt lat="57.8540103603" lon="-5.4842992779"><ele>64.07</ele><time>2012-08-10T11:10:33Z</time></trkpt><trkpt lat="57.8540105280" lon="-5.4840013850"><ele>65.03</ele><time>2012-08-10T11:10:34Z</time></trkpt><trkpt lat="57.8539827839" lon="-5.4836656060"><ele>66.95</ele><time>2012-08-10T11:10:35Z</time></trkpt><trkpt lat="57.8539343365" lon="-5.4832861573"><ele>68.39</ele><time>2012-08-10T11:10:36Z</time></trkpt><trkpt lat="57.8538778424" lon="-5.4828789644"><ele>73.20</ele><time>2012-08-10T11:10:37Z</time></trkpt><trkpt lat="57.8537013195" lon="-5.4817095213"><ele>76.56</ele><time>2012-08-10T11:10:40Z</time></trkpt><trkpt lat="57.8536151536" lon="-5.4813939426"><ele>78.00</ele><time>2012-08-10T11:10:41Z</time></trkpt><trkpt lat="57.8535076976" lon="-5.4811407253"><ele>78.48</ele><time>2012-08-10T11:10:42Z</time></trkpt><trkpt lat="57.8533781134" lon="-5.4809434991"><ele>78.48</ele><time>2012-08-10T11:10:43Z</time></trkpt><trkpt lat="57.8532270715" lon="-5.4807936307"><ele>79.45</ele><time>2012-08-10T11:10:44Z</time></trkpt><trkpt lat="57.8530590143" lon="-5.4806907009"><ele>81.37</ele><time>2012-08-10T11:10:45Z</time></trkpt><trkpt lat="57.8528802283" lon="-5.4806294292"><ele>82.81</ele><time>2012-08-10T11:10:46Z</time></trkpt><trkpt lat="57.8526948206" lon="-5.4805963207"><ele>84.25</ele><time>2012-08-10T11:10:47Z</time></trkpt><trkpt lat="57.8525081556" lon="-5.4805780482"><ele>85.69</ele><time>2012-08-10T11:10:48Z</time></trkpt><trkpt lat="57.8519603144" lon="-5.4804561753"><ele>88.10</ele><time>2012-08-10T11:10:51Z</time></trkpt><trkpt lat="57.8517880663" lon="-5.4803506471"><ele>88.58</ele><time>2012-08-10T11:10:52Z</time></trkpt><trkpt lat="57.8516326658" lon="-5.4801939055"><ele>89.06</ele><time>2012-08-10T11:10:53Z</time></trkpt><trkpt lat="57.8515044227" lon="-5.4799848609"><ele>90.02</ele><time>2012-08-10T11:10:54Z</time></trkpt><trkpt lat="57.8514097910" lon="-5.4797293805"><ele>90.02</ele><time>2012-08-10T11:10:55Z</time></trkpt><trkpt lat="57.8513542190" lon="-5.4794391990"><ele>90.98</ele><time>2012-08-10T11:10:56Z</time></trkpt><trkpt lat="57.8513390478" lon="-5.4791237880"><ele>92.42</ele><time>2012-08-10T11:10:57Z</time></trkpt><trkpt lat="57.8513651993" lon="-5.4787953012"><ele>94.35</ele><time>2012-08-10T11:10:58Z</time></trkpt><trkpt lat="57.8514320031" lon="-5.4784695804"><ele>96.27</ele><time>2012-08-10T11:10:59Z</time></trkpt><trkpt lat="57.8515350167" lon="-5.4781603720"><ele>98.19</ele><time>2012-08-10T11:11:00Z</time></trkpt><trkpt lat="57.8516641818" lon="-5.4778679274"><ele>100.11</ele><time>2012-08-10T11:11:01Z</time></trkpt><trkpt lat="57.8518075123" lon="-5.4775858764"><ele>102.52</ele><time>2012-08-10T11:11:02Z</time></trkpt><trkpt lat="57.8521020524" lon="-5.4770572297"><ele>105.88</ele><time>2012-08-10T11:11:04Z</time></trkpt><trkpt lat="57.8525069822" lon="-5.4762985837"><ele>109.25</ele><time>2012-08-10T11:11:07Z</time></trkpt><trkpt lat="57.8526247479" lon="-5.4760096595"><ele>111.17</ele><time>2012-08-10T11:11:08Z</time></trkpt><trkpt lat="57.8527246602" lon="-5.4757054802"><ele>112.13</ele><time>2012-08-10T11:11:09Z</time></trkpt><trkpt lat="57.8528039530" lon="-5.4753988702"><ele>112.61</ele><time>2012-08-10T11:11:10Z</time></trkpt><trkpt lat="57.8529733513" lon="-5.4745129030"><ele>113.57</ele><time>2012-08-10T11:11:13Z</time></trkpt><trkpt lat="57.8530940507" lon="-5.4736958351"><ele>111.17</ele><time>2012-08-10T11:11:16Z</time></trkpt><trkpt lat="57.8531032708" lon="-5.4734434560"><ele>109.73</ele><time>2012-08-10T11:11:17Z</time></trkpt><trkpt lat="57.8530901950" lon="-5.4732044041"><ele>107.81</ele><time>2012-08-10T11:11:18Z</time></trkpt><trkpt lat="57.8530542366" lon="-5.4729748238"><ele>106.36</ele><time>2012-08-10T11:11:19Z</time></trkpt><trkpt lat="57.8529928811" lon="-5.4727609176"><ele>103.96</ele><time>2012-08-10T11:11:20Z</time></trkpt><trkpt lat="57.8529057093" lon="-5.4725678824"><ele>102.52</ele><time>2012-08-10T11:11:21Z</time></trkpt><trkpt lat="57.8527952358" lon="-5.4723994900"><ele>101.08</ele><time>2012-08-10T11:11:22Z</time></trkpt><trkpt lat="57.8526685853" lon="-5.4722490348"><ele>99.15</ele><time>2012-08-10T11:11:23Z</time></trkpt><trkpt lat="57.8525358159" lon="-5.4721043631"><ele>97.23</ele><time>2012-08-10T11:11:24Z</time></trkpt><trkpt lat="57.8522553574" lon="-5.4718175344"><ele>93.87</ele><time>2012-08-10T11:11:26Z</time></trkpt><trkpt lat="57.8519625776" lon="-5.4715071525"><ele>88.58</ele><time>2012-08-10T11:11:28Z</time></trkpt><trkpt lat="57.8516694624" lon="-5.4711855389"><ele>85.21</ele><time>2012-08-10T11:11:30Z</time></trkpt><trkpt lat="57.8514002357" lon="-5.4708432220"><ele>79.93</ele><time>2012-08-10T11:11:32Z</time></trkpt><trkpt lat="57.8512858227" lon="-5.4706220236"><ele>78.00</ele><time>2012-08-10T11:11:33Z</time></trkpt><trkpt lat="57.8511853237" lon="-5.4703734163"><ele>75.60</ele><time>2012-08-10T11:11:34Z</time></trkpt><trkpt lat="57.8510852437" lon="-5.4701234680"><ele>72.72</ele><time>2012-08-10T11:11:35Z</time></trkpt><trkpt lat="57.8509706631" lon="-5.4698966537"><ele>69.83</ele><time>2012-08-10T11:11:36Z</time></trkpt><trkpt lat="57.8508420009" lon="-5.4696933087"><ele>67.91</ele><time>2012-08-10T11:11:37Z</time></trkpt><trkpt lat="57.8507055435" lon="-5.4695042130"><ele>66.47</ele><time>2012-08-10T11:11:38Z</time></trkpt><trkpt lat="57.8504256718" lon="-5.4691447970"><ele>61.66</ele><time>2012-08-10T11:11:40Z</time></trkpt><trkpt lat="57.8501424473" lon="-5.4687780049"><ele>57.34</ele><time>2012-08-10T11:11:42Z</time></trkpt><trkpt lat="57.8498559538" lon="-5.4684035853"><ele>52.05</ele><time>2012-08-10T11:11:44Z</time></trkpt><trkpt lat="57.8496000543" lon="-5.4680241365"><ele>47.24</ele><time>2012-08-10T11:11:46Z</time></trkpt><trkpt lat="57.8494953644" lon="-5.4678163491"><ele>44.36</ele><time>2012-08-10T11:11:47Z</time></trkpt><trkpt lat="57.8494142275" lon="-5.4675986711"><ele>41.95</ele><time>2012-08-10T11:11:48Z</time></trkpt><trkpt lat="57.8493640199" lon="-5.4673640616"><ele>39.07</ele><time>2012-08-10T11:11:49Z</time></trkpt><trkpt lat="57.8493483458" lon="-5.4671088327"><ele>37.63</ele><time>2012-08-10T11:11:50Z</time></trkpt><trkpt lat="57.8493634332" lon="-5.4668394383"><ele>36.19</ele><time>2012-08-10T11:11:51Z</time></trkpt><trkpt lat="57.8494040854" lon="-5.4665575549"><ele>35.71</ele><time>2012-08-10T11:11:52Z</time></trkpt><trkpt lat="57.8494674526" lon="-5.4662621766"><ele>33.30</ele><time>2012-08-10T11:11:53Z</time></trkpt><trkpt lat="57.8495552950" lon="-5.4659538902"><ele>33.30</ele><time>2012-08-10T11:11:54Z</time></trkpt><trkpt lat="57.8496555425" lon="-5.4656331986"><ele>33.30</ele><time>2012-08-10T11:11:55Z</time></trkpt><trkpt lat="57.8499307204" lon="-5.4646957666"><ele>31.86</ele><time>2012-08-10T11:11:58Z</time></trkpt><trkpt lat="57.8500743024" lon="-5.4640563950"><ele>30.90</ele><time>2012-08-10T11:12:00Z</time></trkpt><trkpt lat="57.8501188941" lon="-5.4637071211"><ele>29.94</ele><time>2012-08-10T11:12:01Z</time></trkpt><trkpt lat="57.8501449618" lon="-5.4633329529"><ele>30.42</ele><time>2012-08-10T11:12:02Z</time></trkpt><trkpt lat="57.8503722791" lon="-5.4607269354"><ele>28.98</ele><time>2012-08-10T11:12:09Z</time></trkpt><trkpt lat="57.8508404922" lon="-5.4578711372"><ele>26.09</ele><time>2012-08-10T11:12:17Z</time></trkpt><trkpt lat="57.8509301785" lon="-5.4572010878"><ele>24.17</ele><time>2012-08-10T11:12:19Z</time></trkpt><trkpt lat="57.8509494569" lon="-5.4568689968"><ele>22.25</ele><time>2012-08-10T11:12:20Z</time></trkpt><trkpt lat="57.8509459365" lon="-5.4565364029"><ele>20.81</ele><time>2012-08-10T11:12:21Z</time></trkpt><trkpt lat="57.8509247303" lon="-5.4561964329"><ele>20.32</ele><time>2012-08-10T11:12:22Z</time></trkpt><trkpt lat="57.8508543223" lon="-5.4551941250"><ele>16.96</ele><time>2012-08-10T11:12:25Z</time></trkpt><trkpt lat="57.8508593515" lon="-5.4548720922"><ele>16.00</ele><time>2012-08-10T11:12:26Z</time></trkpt><trkpt lat="57.8508886881" lon="-5.4545701761"><ele>16.00</ele><time>2012-08-10T11:12:27Z</time></trkpt><trkpt lat="57.8509483673" lon="-5.4542892985"><ele>14.56</ele><time>2012-08-10T11:12:28Z</time></trkpt><trkpt lat="57.8510364611" lon="-5.4540261906"><ele>15.52</ele><time>2012-08-10T11:12:29Z</time></trkpt><trkpt lat="57.8511485271" lon="-5.4537733924"><ele>16.00</ele><time>2012-08-10T11:12:30Z</time></trkpt><trkpt lat="57.8512736689" lon="-5.4535241146"><ele>16.48</ele><time>2012-08-10T11:12:31Z</time></trkpt><trkpt lat="57.8518919181" lon="-5.4524192121"><ele>18.88</ele><time>2012-08-10T11:12:36Z</time></trkpt><trkpt lat="57.8520142939" lon="-5.4522713553"><ele>18.88</ele><time>2012-08-10T11:12:37Z</time></trkpt><trkpt lat="57.8521406092" lon="-5.4521601275"><ele>18.88</ele><time>2012-08-10T11:12:38Z</time></trkpt><trkpt lat="57.8522703610" lon="-5.4520723689"><ele>18.88</ele><time>2012-08-10T11:12:39Z</time></trkpt><trkpt lat="57.8524061479" lon="-5.4520035535"><ele>18.40</ele><time>2012-08-10T11:12:40Z</time></trkpt><trkpt lat="57.8525527474" lon="-5.4519609734"><ele>18.88</ele><time>2012-08-10T11:12:41Z</time></trkpt><trkpt lat="57.8527108300" lon="-5.4519383423"><ele>19.36</ele><time>2012-08-10T11:12:42Z</time></trkpt><trkpt lat="57.8535561450" lon="-5.4518343229"><ele>18.40</ele><time>2012-08-10T11:12:47Z</time></trkpt><trkpt lat="57.8537167422" lon="-5.4517661780"><ele>18.40</ele><time>2012-08-10T11:12:48Z</time></trkpt><trkpt lat="57.8538714722" lon="-5.4516576324"><ele>19.36</ele><time>2012-08-10T11:12:49Z</time></trkpt><trkpt lat="57.8540173173" lon="-5.4515105300"><ele>18.40</ele><time>2012-08-10T11:12:50Z</time></trkpt><trkpt lat="57.8541526850" lon="-5.4513273016"><ele>18.88</ele><time>2012-08-10T11:12:51Z</time></trkpt><trkpt lat="57.8542743064" lon="-5.4511045106"><ele>19.84</ele><time>2012-08-10T11:12:52Z</time></trkpt><trkpt lat="57.8543819301" lon="-5.4508478567"><ele>21.29</ele><time>2012-08-10T11:12:53Z</time></trkpt><trkpt lat="57.8544808365" lon="-5.4505697452"><ele>23.69</ele><time>2012-08-10T11:12:54Z</time></trkpt><trkpt lat="57.8545707744" lon="-5.4502737802"><ele>25.13</ele><time>2012-08-10T11:12:55Z</time></trkpt><trkpt lat="57.8546564374" lon="-5.4499735404"><ele>27.05</ele><time>2012-08-10T11:12:56Z</time></trkpt><trkpt lat="57.8548445273" lon="-5.4493915848"><ele>29.94</ele><time>2012-08-10T11:12:58Z</time></trkpt><trkpt lat="57.8549653105" lon="-5.4491271358"><ele>32.82</ele><time>2012-08-10T11:12:59Z</time></trkpt><trkpt lat="57.8551067971" lon="-5.4489073623"><ele>33.78</ele><time>2012-08-10T11:13:00Z</time></trkpt><trkpt lat="57.8552684840" lon="-5.4487438314"><ele>35.71</ele><time>2012-08-10T11:13:01Z</time></trkpt><trkpt lat="57.8554483596" lon="-5.4486312624"><ele>37.63</ele><time>2012-08-10T11:13:02Z</time></trkpt><trkpt lat="57.8556424007" lon="-5.4485536460"><ele>40.03</ele><time>2012-08-10T11:13:03Z</time></trkpt><trkpt lat="57.8558466677" lon="-5.4484980740"><ele>42.92</ele><time>2012-08-10T11:13:04Z</time></trkpt><trkpt lat="57.8562758211" lon="-5.4484191164"><ele>47.72</ele><time>2012-08-10T11:13:06Z</time></trkpt><trkpt lat="57.8567130212" lon="-5.4483311065"><ele>50.13</ele><time>2012-08-10T11:13:08Z</time></trkpt><trkpt lat="57.8573471121" lon="-5.4481459502"><ele>53.49</ele><time>2012-08-10T11:13:11Z</time></trkpt><trkpt lat="57.8581304848" lon="-5.4476835206"><ele>56.86</ele><time>2012-08-10T11:13:15Z</time></trkpt><trkpt lat="57.8590291087" lon="-5.4466375429"><ele>54.45</ele><time>2012-08-10T11:13:20Z</time></trkpt><trkpt lat="57.8593682405" lon="-5.4461229779"><ele>51.57</ele><time>2012-08-10T11:13:22Z</time></trkpt><trkpt lat="57.8604940139" lon="-5.4443163425"><ele>53.01</ele><time>2012-08-10T11:13:29Z</time></trkpt><trkpt lat="57.8615197074" lon="-5.4420694057"><ele>51.57</ele><time>2012-08-10T11:13:36Z</time></trkpt><trkpt lat="57.8619724978" lon="-5.4410303850"><ele>48.20</ele><time>2012-08-10T11:13:39Z</time></trkpt><trkpt lat="57.8624056745" lon="-5.4401121475"><ele>44.84</ele><time>2012-08-10T11:13:42Z</time></trkpt><trkpt lat="57.8634090722" lon="-5.4382827133"><ele>41.47</ele><time>2012-08-10T11:13:49Z</time></trkpt><trkpt lat="57.8642676305" lon="-5.4367945064"><ele>38.11</ele><time>2012-08-10T11:13:56Z</time></trkpt><trkpt lat="57.8643744998" lon="-5.4366987851"><ele>37.15</ele><time>2012-08-10T11:13:57Z</time></trkpt><trkpt lat="57.8644884937" lon="-5.4366698675"><ele>36.19</ele><time>2012-08-10T11:13:58Z</time></trkpt><trkpt lat="57.8646155633" lon="-5.4366906546"><ele>36.19</ele><time>2012-08-10T11:13:59Z</time></trkpt><trkpt lat="57.8647550382" lon="-5.4367328994"><ele>36.19</ele><time>2012-08-10T11:14:00Z</time></trkpt><trkpt lat="57.8655728605" lon="-5.4369916487"><ele>32.82</ele><time>2012-08-10T11:14:05Z</time></trkpt><trkpt lat="57.8660908621" lon="-5.4372486379"><ele>35.23</ele><time>2012-08-10T11:14:08Z</time></trkpt><trkpt lat="57.8662476875" lon="-5.4373820778"><ele>36.19</ele><time>2012-08-10T11:14:09Z</time></trkpt><trkpt lat="57.8663952090" lon="-5.4375511408"><ele>36.67</ele><time>2012-08-10T11:14:10Z</time></trkpt><trkpt lat="57.8665441554" lon="-5.4377627838"><ele>37.63</ele><time>2012-08-10T11:14:11Z</time></trkpt><trkpt lat="57.8666952811" lon="-5.4380020872"><ele>38.59</ele><time>2012-08-10T11:14:12Z</time></trkpt><trkpt lat="57.8676309530" lon="-5.4396437667"><ele>35.23</ele><time>2012-08-10T11:14:18Z</time></trkpt><trkpt lat="57.8680672310" lon="-5.4403896723"><ele>30.42</ele><time>2012-08-10T11:14:21Z</time></trkpt><trkpt lat="57.8682097234" lon="-5.4405563883"><ele>29.94</ele><time>2012-08-10T11:14:22Z</time></trkpt><trkpt lat="57.8683598433" lon="-5.4406630900"><ele>29.46</ele><time>2012-08-10T11:14:23Z</time></trkpt><trkpt lat="57.8685193509" lon="-5.4407089390"><ele>29.46</ele><time>2012-08-10T11:14:24Z</time></trkpt><trkpt lat="57.8686855640" lon="-5.4407205060"><ele>28.98</ele><time>2012-08-10T11:14:25Z</time></trkpt><trkpt lat="57.8688593209" lon="-5.4407156445"><ele>28.02</ele><time>2012-08-10T11:14:26Z</time></trkpt><trkpt lat="57.8692274541" lon="-5.4406755790"><ele>27.05</ele><time>2012-08-10T11:14:28Z</time></trkpt><trkpt lat="57.8697863594" lon="-5.4404687136"><ele>26.09</ele><time>2012-08-10T11:14:31Z</time></trkpt><trkpt lat="57.8699630499" lon="-5.4403328430"><ele>26.57</ele><time>2012-08-10T11:14:32Z</time></trkpt><trkpt lat="57.8701288439" lon="-5.4401502013"><ele>26.57</ele><time>2012-08-10T11:14:33Z</time></trkpt><trkpt lat="57.8706090432" lon="-5.4396292660"><ele>26.09</ele><time>2012-08-10T11:14:36Z</time></trkpt><trkpt lat="57.8707780223" lon="-5.4395416752"><ele>25.13</ele><time>2012-08-10T11:14:37Z</time></trkpt><trkpt lat="57.8709589876" lon="-5.4395094048"><ele>25.61</ele><time>2012-08-10T11:14:38Z</time></trkpt><trkpt lat="57.8711523581" lon="-5.4395260848"><ele>26.57</ele><time>2012-08-10T11:14:39Z</time></trkpt><trkpt lat="57.8713500872" lon="-5.4395674914"><ele>26.57</ele><time>2012-08-10T11:14:40Z</time></trkpt><trkpt lat="57.8725901898" lon="-5.4395809025"><ele>23.69</ele><time>2012-08-10T11:14:47Z</time></trkpt><trkpt lat="57.8732616641" lon="-5.4394230712"><ele>19.36</ele><time>2012-08-10T11:14:51Z</time></trkpt><trkpt lat="57.8734443896" lon="-5.4394445289"><ele>18.40</ele><time>2012-08-10T11:14:52Z</time></trkpt><trkpt lat="57.8736304678" lon="-5.4394959938"><ele>17.44</ele><time>2012-08-10T11:14:53Z</time></trkpt><trkpt lat="57.8756111953" lon="-5.4403423984"><ele>17.44</ele><time>2012-08-10T11:15:03Z</time></trkpt><trkpt lat="57.8761578631" lon="-5.4407538660"><ele>20.81</ele><time>2012-08-10T11:15:06Z</time></trkpt><trkpt lat="57.8766882699" lon="-5.4412571155"><ele>22.25</ele><time>2012-08-10T11:15:09Z</time></trkpt><trkpt lat="57.8773997258" lon="-5.4417334590"><ele>21.77</ele><time>2012-08-10T11:15:13Z</time></trkpt><trkpt lat="57.8775833733" lon="-5.4417706747"><ele>22.25</ele><time>2012-08-10T11:15:14Z</time></trkpt><trkpt lat="57.8777720500" lon="-5.4417695012"><ele>22.25</ele><time>2012-08-10T11:15:15Z</time></trkpt><trkpt lat="57.8779636603" lon="-5.4417151865"><ele>23.69</ele><time>2012-08-10T11:15:16Z</time></trkpt><trkpt lat="57.8781483136" lon="-5.4416097421"><ele>23.21</ele><time>2012-08-10T11:15:17Z</time></trkpt><trkpt lat="57.8783202264" lon="-5.4414590355"><ele>23.21</ele><time>2012-08-10T11:15:18Z</time></trkpt><trkpt lat="57.8784803208" lon="-5.4412724543"><ele>23.69</ele><time>2012-08-10T11:15:19Z</time></trkpt><trkpt lat="57.8786298539" lon="-5.4410622362"><ele>23.21</ele><time>2012-08-10T11:15:20Z</time></trkpt><trkpt lat="57.8787721787" lon="-5.4408396967"><ele>23.21</ele><time>2012-08-10T11:15:21Z</time></trkpt><trkpt lat="57.8798211738" lon="-5.4390054848"><ele>20.81</ele><time>2012-08-10T11:15:29Z</time></trkpt><trkpt lat="57.8799224272" lon="-5.4387403652"><ele>20.81</ele><time>2012-08-10T11:15:30Z</time></trkpt><trkpt lat="57.8800030611" lon="-5.4384435620"><ele>20.32</ele><time>2012-08-10T11:15:31Z</time></trkpt><trkpt lat="57.8800574597" lon="-5.4380991496"><ele>20.81</ele><time>2012-08-10T11:15:32Z</time></trkpt><trkpt lat="57.8800927475" lon="-5.4377041943"><ele>21.29</ele><time>2012-08-10T11:15:33Z</time></trkpt><trkpt lat="57.8801246826" lon="-5.4372669943"><ele>23.21</ele><time>2012-08-10T11:15:34Z</time></trkpt><trkpt lat="57.8801626526" lon="-5.4368292913"><ele>26.57</ele><time>2012-08-10T11:15:35Z</time></trkpt><trkpt lat="57.8802135307" lon="-5.4364209250"><ele>22.73</ele><time>2012-08-10T11:15:36Z</time></trkpt><trkpt lat="57.8802866209" lon="-5.4360304959"><ele>22.73</ele><time>2012-08-10T11:15:37Z</time></trkpt><trkpt lat="57.8809368890" lon="-5.4333845805"><ele>20.81</ele><time>2012-08-10T11:15:44Z</time></trkpt><trkpt lat="57.8810068779" lon="-5.4330051318"><ele>20.32</ele><time>2012-08-10T11:15:45Z</time></trkpt><trkpt lat="57.8810546547" lon="-5.4326162953"><ele>19.36</ele><time>2012-08-10T11:15:46Z</time></trkpt><trkpt lat="57.8810757771" lon="-5.4322255310"><ele>18.88</ele><time>2012-08-10T11:15:47Z</time></trkpt><trkpt lat="57.8810735140" lon="-5.4318290669"><ele>18.88</ele><time>2012-08-10T11:15:48Z</time></trkpt><trkpt lat="57.8810582589" lon="-5.4314301722"><ele>19.36</ele><time>2012-08-10T11:15:49Z</time></trkpt><trkpt lat="57.8808273375" lon="-5.4250650387"><ele>22.25</ele><time>2012-08-10T11:16:05Z</time></trkpt><trkpt lat="57.8808503039" lon="-5.4246859252"><ele>23.21</ele><time>2012-08-10T11:16:06Z</time></trkpt><trkpt lat="57.8808961529" lon="-5.4243169539"><ele>23.21</ele><time>2012-08-10T11:16:07Z</time></trkpt><trkpt lat="57.8809666447" lon="-5.4239612259"><ele>23.21</ele><time>2012-08-10T11:16:08Z</time></trkpt><trkpt lat="57.8810638748" lon="-5.4236214235"><ele>23.69</ele><time>2012-08-10T11:16:09Z</time></trkpt><trkpt lat="57.8811819758" lon="-5.4232924338"><ele>24.17</ele><time>2012-08-10T11:16:10Z</time></trkpt><trkpt lat="57.8813140746" lon="-5.4229685571"><ele>25.13</ele><time>2012-08-10T11:16:11Z</time></trkpt><trkpt lat="57.8817268834" lon="-5.4219864495"><ele>29.46</ele><time>2012-08-10T11:16:14Z</time></trkpt><trkpt lat="57.8821055777" lon="-5.4209699761"><ele>32.34</ele><time>2012-08-10T11:16:17Z</time></trkpt><trkpt lat="57.8821923304" lon="-5.4205859173"><ele>34.26</ele><time>2012-08-10T11:16:18Z</time></trkpt><trkpt lat="57.8822525125" lon="-5.4201743659"><ele>35.71</ele><time>2012-08-10T11:16:19Z</time></trkpt><trkpt lat="57.8823734634" lon="-5.4193495866"><ele>39.55</ele><time>2012-08-10T11:16:21Z</time></trkpt><trkpt lat="57.8824640717" lon="-5.4189681262"><ele>41.47</ele><time>2012-08-10T11:16:22Z</time></trkpt><trkpt lat="57.8825716954" lon="-5.4185989033"><ele>44.36</ele><time>2012-08-10T11:16:23Z</time></trkpt><trkpt lat="57.8828006890" lon="-5.4178617988"><ele>49.16</ele><time>2012-08-10T11:16:25Z</time></trkpt><trkpt lat="57.8830292635" lon="-5.4171251971"><ele>52.05</ele><time>2012-08-10T11:16:27Z</time></trkpt><trkpt lat="57.8832133301" lon="-5.4163460154"><ele>56.37</ele><time>2012-08-10T11:16:29Z</time></trkpt><trkpt lat="57.8833673894" lon="-5.4155184701"><ele>62.62</ele><time>2012-08-10T11:16:31Z</time></trkpt><trkpt lat="57.8835949581" lon="-5.4142681416"><ele>66.95</ele><time>2012-08-10T11:16:34Z</time></trkpt><trkpt lat="57.8837468382" lon="-5.4134252574"><ele>71.76</ele><time>2012-08-10T11:16:36Z</time></trkpt><trkpt lat="57.8838966228" lon="-5.4125697166"><ele>75.12</ele><time>2012-08-10T11:16:38Z</time></trkpt><trkpt lat="57.8839709703" lon="-5.4121426586"><ele>78.00</ele><time>2012-08-10T11:16:39Z</time></trkpt><trkpt lat="57.8841150552" lon="-5.4112876207"><ele>82.81</ele><time>2012-08-10T11:16:41Z</time></trkpt><trkpt lat="57.8842361737" lon="-5.4104287270"><ele>87.62</ele><time>2012-08-10T11:16:43Z</time></trkpt><trkpt lat="57.8843386006" lon="-5.4095723480"><ele>93.39</ele><time>2012-08-10T11:16:45Z</time></trkpt><trkpt lat="57.8844227549" lon="-5.4087217525"><ele>98.67</ele><time>2012-08-10T11:16:47Z</time></trkpt><trkpt lat="57.8844682686" lon="-5.4078533873"><ele>102.52</ele><time>2012-08-10T11:16:49Z</time></trkpt><trkpt lat="57.8844758961" lon="-5.4069816694"><ele>106.36</ele><time>2012-08-10T11:16:51Z</time></trkpt><trkpt lat="57.8844867926" lon="-5.4061017372"><ele>110.21</ele><time>2012-08-10T11:16:53Z</time></trkpt><trkpt lat="57.8844981920" lon="-5.4052077234"><ele>113.57</ele><time>2012-08-10T11:16:55Z</time></trkpt><trkpt lat="57.8845077474" lon="-5.4043032322"><ele>117.90</ele><time>2012-08-10T11:16:57Z</time></trkpt><trkpt lat="57.8845355753" lon="-5.4033786245"><ele>121.74</ele><time>2012-08-10T11:16:59Z</time></trkpt><trkpt lat="57.8845914826" lon="-5.4024276137"><ele>125.11</ele><time>2012-08-10T11:17:01Z</time></trkpt><trkpt lat="57.8846432827" lon="-5.4014802910"><ele>129.43</ele><time>2012-08-10T11:17:03Z</time></trkpt><trkpt lat="57.8846742120" lon="-5.4000463150"><ele>133.28</ele><time>2012-08-10T11:17:06Z</time></trkpt><trkpt lat="57.8846221603" lon="-5.3985926416"><ele>137.13</ele><time>2012-08-10T11:17:09Z</time></trkpt><trkpt lat="57.8845289536" lon="-5.3976204246"><ele>140.97</ele><time>2012-08-10T11:17:11Z</time></trkpt><trkpt lat="57.8843989503" lon="-5.3966581821"><ele>145.30</ele><time>2012-08-10T11:17:13Z</time></trkpt><trkpt lat="57.8842062503" lon="-5.3952335939"><ele>150.10</ele><time>2012-08-10T11:17:16Z</time></trkpt><trkpt lat="57.8840788454" lon="-5.3942872770"><ele>153.47</ele><time>2012-08-10T11:17:18Z</time></trkpt><trkpt lat="57.8838988021" lon="-5.3928476013"><ele>157.79</ele><time>2012-08-10T11:17:21Z</time></trkpt><trkpt lat="57.8837912623" lon="-5.3918794915"><ele>160.68</ele><time>2012-08-10T11:17:23Z</time></trkpt><trkpt lat="57.8836776875" lon="-5.3909163270"><ele>164.52</ele><time>2012-08-10T11:17:25Z</time></trkpt><trkpt lat="57.8834714927" lon="-5.3895020485"><ele>167.89</ele><time>2012-08-10T11:17:28Z</time></trkpt><trkpt lat="57.8832411580" lon="-5.3881402407"><ele>171.73</ele><time>2012-08-10T11:17:31Z</time></trkpt><trkpt lat="57.8829149343" lon="-5.3868335020"><ele>173.66</ele><time>2012-08-10T11:17:34Z</time></trkpt><trkpt lat="57.8817371931" lon="-5.3835905436"><ele>175.58</ele><time>2012-08-10T11:17:42Z</time></trkpt><trkpt lat="57.8810044471" lon="-5.3816311061"><ele>178.46</ele><time>2012-08-10T11:17:47Z</time></trkpt><trkpt lat="57.8808612842" lon="-5.3812191356"><ele>178.46</ele><time>2012-08-10T11:17:48Z</time></trkpt><trkpt lat="57.8795383684" lon="-5.3764448036"><ele>180.87</ele><time>2012-08-10T11:17:59Z</time></trkpt><trkpt lat="57.8793499433" lon="-5.3751116619"><ele>185.19</ele><time>2012-08-10T11:18:02Z</time></trkpt><trkpt lat="57.8792589996" lon="-5.3734015860"><ele>186.15</ele><time>2012-08-10T11:18:06Z</time></trkpt><trkpt lat="57.8792804573" lon="-5.3730101511"><ele>185.19</ele><time>2012-08-10T11:18:07Z</time></trkpt><trkpt lat="57.8793252166" lon="-5.3726270981"><ele>185.67</ele><time>2012-08-10T11:18:08Z</time></trkpt><trkpt lat="57.8795279749" lon="-5.3708733525"><ele>182.79</ele><time>2012-08-10T11:18:13Z</time></trkpt><trkpt lat="57.8795269690" lon="-5.3705479670"><ele>181.35</ele><time>2012-08-10T11:18:14Z</time></trkpt><trkpt lat="57.8795031644" lon="-5.3702237550"><ele>180.38</ele><time>2012-08-10T11:18:15Z</time></trkpt><trkpt lat="57.8794553876" lon="-5.3698950168"><ele>179.90</ele><time>2012-08-10T11:18:16Z</time></trkpt><trkpt lat="57.8793890029" lon="-5.3695610818"><ele>179.42</ele><time>2012-08-10T11:18:17Z</time></trkpt><trkpt lat="57.8793106321" lon="-5.3692164179"><ele>178.46</ele><time>2012-08-10T11:18:18Z</time></trkpt><trkpt lat="57.8788150940" lon="-5.3673114628"><ele>175.58</ele><time>2012-08-10T11:18:23Z</time></trkpt><trkpt lat="57.8784853499" lon="-5.3660285287"><ele>173.17</ele><time>2012-08-10T11:18:26Z</time></trkpt><trkpt lat="57.8781521693" lon="-5.3647196107"><ele>169.33</ele><time>2012-08-10T11:18:29Z</time></trkpt><trkpt lat="57.8780402709" lon="-5.3642874397"><ele>169.81</ele><time>2012-08-10T11:18:30Z</time></trkpt><trkpt lat="57.8777118679" lon="-5.3629907593"><ele>166.45</ele><time>2012-08-10T11:18:33Z</time></trkpt><trkpt lat="57.8771553934" lon="-5.3608203493"><ele>163.56</ele><time>2012-08-10T11:18:38Z</time></trkpt><trkpt lat="57.8768125735" lon="-5.3596194740"><ele>159.24</ele><time>2012-08-10T11:18:41Z</time></trkpt><trkpt lat="57.8764155228" lon="-5.3585645277"><ele>155.87</ele><time>2012-08-10T11:18:44Z</time></trkpt><trkpt lat="57.8758740518" lon="-5.3572129458"><ele>152.99</ele><time>2012-08-10T11:18:48Z</time></trkpt><trkpt lat="57.8753253724" lon="-5.3558476176"><ele>149.62</ele><time>2012-08-10T11:18:52Z</time></trkpt><trkpt lat="57.8750512842" lon="-5.3551498242"><ele>146.26</ele><time>2012-08-10T11:18:54Z</time></trkpt><trkpt lat="57.8746264055" lon="-5.3540875856"><ele>142.41</ele><time>2012-08-10T11:18:57Z</time></trkpt><trkpt lat="57.8743461147" lon="-5.3533480503"><ele>139.53</ele><time>2012-08-10T11:18:59Z</time></trkpt><trkpt lat="57.8739314619" lon="-5.3522007354"><ele>134.24</ele><time>2012-08-10T11:19:02Z</time></trkpt><trkpt lat="57.8735127021" lon="-5.3510248382"><ele>129.92</ele><time>2012-08-10T11:19:05Z</time></trkpt><trkpt lat="57.8732449003" lon="-5.3502354305"><ele>126.07</ele><time>2012-08-10T11:19:07Z</time></trkpt><trkpt lat="57.8728422336" lon="-5.3490521573"><ele>122.22</ele><time>2012-08-10T11:19:10Z</time></trkpt><trkpt lat="57.8723077197" lon="-5.3474615235"><ele>119.34</ele><time>2012-08-10T11:19:14Z</time></trkpt><trkpt lat="57.8719192185" lon="-5.3463004623"><ele>115.50</ele><time>2012-08-10T11:19:17Z</time></trkpt><trkpt lat="57.8716675937" lon="-5.3455854859"><ele>114.05</ele><time>2012-08-10T11:19:19Z</time></trkpt><trkpt lat="57.8712709621" lon="-5.3445638157"><ele>110.69</ele><time>2012-08-10T11:19:22Z</time></trkpt><trkpt lat="57.8708730731" lon="-5.3435221966"><ele>107.32</ele><time>2012-08-10T11:19:25Z</time></trkpt><trkpt lat="57.8706046008" lon="-5.3428419214"><ele>103.96</ele><time>2012-08-10T11:19:27Z</time></trkpt><trkpt lat="57.8703458514" lon="-5.3421722073"><ele>100.11</ele><time>2012-08-10T11:19:29Z</time></trkpt><trkpt lat="57.8700989205" lon="-5.3415273037"><ele>94.83</ele><time>2012-08-10T11:19:31Z</time></trkpt><trkpt lat="57.8698586114" lon="-5.3409003373"><ele>90.02</ele><time>2012-08-10T11:19:33Z</time></trkpt><trkpt lat="57.8695135284" lon="-5.3399712872"><ele>84.73</ele><time>2012-08-10T11:19:36Z</time></trkpt><trkpt lat="57.8693080042" lon="-5.3393126372"><ele>81.37</ele><time>2012-08-10T11:19:38Z</time></trkpt><trkpt lat="57.8692199104" lon="-5.3389549814"><ele>79.93</ele><time>2012-08-10T11:19:39Z</time></trkpt><trkpt lat="57.8691482451" lon="-5.3385811485"><ele>78.97</ele><time>2012-08-10T11:19:40Z</time></trkpt><trkpt lat="57.8689646814" lon="-5.3374877293"><ele>74.16</ele><time>2012-08-10T11:19:43Z</time></trkpt><trkpt lat="57.8688378632" lon="-5.3368126508"><ele>70.31</ele><time>2012-08-10T11:19:45Z</time></trkpt><trkpt lat="57.8686706442" lon="-5.3362001013"><ele>67.91</ele><time>2012-08-10T11:19:47Z</time></trkpt><trkpt lat="57.8685649484" lon="-5.3359175473"><ele>65.99</ele><time>2012-08-10T11:19:48Z</time></trkpt><trkpt lat="57.8684430756" lon="-5.3356587980"><ele>65.03</ele><time>2012-08-10T11:19:49Z</time></trkpt><trkpt lat="57.8683028463" lon="-5.3354305588"><ele>63.58</ele><time>2012-08-10T11:19:50Z</time></trkpt><trkpt lat="57.8681497090" lon="-5.3352291416"><ele>62.62</ele><time>2012-08-10T11:19:51Z</time></trkpt><trkpt lat="57.8679907043" lon="-5.3350418899"><ele>61.18</ele><time>2012-08-10T11:19:52Z</time></trkpt><trkpt lat="57.8673774842" lon="-5.3343166877"><ele>57.82</ele><time>2012-08-10T11:19:56Z</time></trkpt><trkpt lat="57.8672310524" lon="-5.3341136780"><ele>57.82</ele><time>2012-08-10T11:19:57Z</time></trkpt><trkpt lat="57.8661683947" lon="-5.3319342155"><ele>59.26</ele><time>2012-08-10T11:20:05Z</time></trkpt><trkpt lat="57.8652741294" lon="-5.3295412660"><ele>62.14</ele><time>2012-08-10T11:20:13Z</time></trkpt><trkpt lat="57.8648148850" lon="-5.3283029236"><ele>61.18</ele><time>2012-08-10T11:20:17Z</time></trkpt><trkpt lat="57.8646684531" lon="-5.3280544002"><ele>60.70</ele><time>2012-08-10T11:20:18Z</time></trkpt><trkpt lat="57.8645093646" lon="-5.3278373089"><ele>59.74</ele><time>2012-08-10T11:20:19Z</time></trkpt><trkpt lat="57.8640041035" lon="-5.3272609692"><ele>58.30</ele><time>2012-08-10T11:20:22Z</time></trkpt><trkpt lat="57.8633503988" lon="-5.3263911791"><ele>56.37</ele><time>2012-08-10T11:20:26Z</time></trkpt><trkpt lat="57.8632167075" lon="-5.3261081222"><ele>55.89</ele><time>2012-08-10T11:20:27Z</time></trkpt><trkpt lat="57.8631119337" lon="-5.3257860057"><ele>54.93</ele><time>2012-08-10T11:20:28Z</time></trkpt><trkpt lat="57.8630273603" lon="-5.3254301101"><ele>54.93</ele><time>2012-08-10T11:20:29Z</time></trkpt><trkpt lat="57.8629502468" lon="-5.3250397649"><ele>54.93</ele><time>2012-08-10T11:20:30Z</time></trkpt><trkpt lat="57.8625644278" lon="-5.3228638228"><ele>53.97</ele><time>2012-08-10T11:20:35Z</time></trkpt><trkpt lat="57.8616935480" lon="-5.3179462440"><ele>50.61</ele><time>2012-08-10T11:20:47Z</time></trkpt><trkpt lat="57.8614472039" lon="-5.3158119600"><ele>45.80</ele><time>2012-08-10T11:20:52Z</time></trkpt><trkpt lat="57.8613705095" lon="-5.3145397548"><ele>42.92</ele><time>2012-08-10T11:20:55Z</time></trkpt><trkpt lat="57.8613239899" lon="-5.3141245153"><ele>42.92</ele><time>2012-08-10T11:20:56Z</time></trkpt><trkpt lat="57.8612550907" lon="-5.3137170710"><ele>42.92</ele><time>2012-08-10T11:20:57Z</time></trkpt><trkpt lat="57.8608640749" lon="-5.3121277783"><ele>38.11</ele><time>2012-08-10T11:21:01Z</time></trkpt><trkpt lat="57.8606769908" lon="-5.3113510273"><ele>34.74</ele><time>2012-08-10T11:21:03Z</time></trkpt><trkpt lat="57.8606147971" lon="-5.3109574970"><ele>34.26</ele><time>2012-08-10T11:21:04Z</time></trkpt><trkpt lat="57.8605797607" lon="-5.3105572611"><ele>33.30</ele><time>2012-08-10T11:21:05Z</time></trkpt><trkpt lat="57.8605658468" lon="-5.3101533372"><ele>31.86</ele><time>2012-08-10T11:21:06Z</time></trkpt><trkpt lat="57.8605524357" lon="-5.3093751613"><ele>28.02</ele><time>2012-08-10T11:21:08Z</time></trkpt><trkpt lat="57.8603175748" lon="-5.3072581440"><ele>24.17</ele><time>2012-08-10T11:21:14Z</time></trkpt><trkpt lat="57.8602165729" lon="-5.3068211954"><ele>20.81</ele><time>2012-08-10T11:21:16Z</time></trkpt><trkpt lat="57.8601729032" lon="-5.3066470195"><ele>20.81</ele><time>2012-08-10T11:21:17Z</time></trkpt><trkpt lat="57.8600009065" lon="-5.3060158622"><ele>19.84</ele><time>2012-08-10T11:21:23Z</time></trkpt><trkpt lat="57.8596528899" lon="-5.3046178445"><ele>20.32</ele><time>2012-08-10T11:21:34Z</time></trkpt><trkpt lat="57.8592481278" lon="-5.3031256981"><ele>22.25</ele><time>2012-08-10T11:21:39Z</time></trkpt><trkpt lat="57.8583284654" lon="-5.3008616623"><ele>24.65</ele><time>2012-08-10T11:21:46Z</time></trkpt><trkpt lat="57.8574865870" lon="-5.2989637479"><ele>28.02</ele><time>2012-08-10T11:21:52Z</time></trkpt><trkpt lat="57.8571503051" lon="-5.2979159262"><ele>29.46</ele><time>2012-08-10T11:21:55Z</time></trkpt><trkpt lat="57.8564629052" lon="-5.2952721063"><ele>25.61</ele><time>2012-08-10T11:22:02Z</time></trkpt><trkpt lat="57.8562261164" lon="-5.2945426293"><ele>24.17</ele><time>2012-08-10T11:22:04Z</time></trkpt><trkpt lat="57.8555798717" lon="-5.2927151229"><ele>26.57</ele><time>2012-08-10T11:22:09Z</time></trkpt><trkpt lat="57.8554800432" lon="-5.2923136298"><ele>27.05</ele><time>2012-08-10T11:22:10Z</time></trkpt><trkpt lat="57.8553887643" lon="-5.2919046767"><ele>27.05</ele><time>2012-08-10T11:22:11Z</time></trkpt><trkpt lat="57.8550237324" lon="-5.2902837843"><ele>28.98</ele><time>2012-08-10T11:22:15Z</time></trkpt><trkpt lat="57.8547237441" lon="-5.2891062945"><ele>31.86</ele><time>2012-08-10T11:22:18Z</time></trkpt><trkpt lat="57.8538773395" lon="-5.2865212318"><ele>32.34</ele><time>2012-08-10T11:22:25Z</time></trkpt><trkpt lat="57.8536751680" lon="-5.2857017331"><ele>33.30</ele><time>2012-08-10T11:22:27Z</time></trkpt><trkpt lat="57.8531878442" lon="-5.2833439037"><ele>29.46</ele><time>2012-08-10T11:22:33Z</time></trkpt><trkpt lat="57.8531161789" lon="-5.2825759538"><ele>29.94</ele><time>2012-08-10T11:22:35Z</time></trkpt><trkpt lat="57.8531127423" lon="-5.2821827587"><ele>29.46</ele><time>2012-08-10T11:22:36Z</time></trkpt><trkpt lat="57.8532241378" lon="-5.2798728738"><ele>30.90</ele><time>2012-08-10T11:22:42Z</time></trkpt><trkpt lat="57.8532022610" lon="-5.2771680336"><ele>32.82</ele><time>2012-08-10T11:22:49Z</time></trkpt><trkpt lat="57.8530394007" lon="-5.2747586556"><ele>31.38</ele><time>2012-08-10T11:22:55Z</time></trkpt><trkpt lat="57.8525483049" lon="-5.2709593065"><ele>30.90</ele><time>2012-08-10T11:23:05Z</time></trkpt><trkpt lat="57.8522644937" lon="-5.2690575365"><ele>28.50</ele><time>2012-08-10T11:23:10Z</time></trkpt><trkpt lat="57.8517643455" lon="-5.2653683256"><ele>25.61</ele><time>2012-08-10T11:23:20Z</time></trkpt><trkpt lat="57.8515221085" lon="-5.2637823019"><ele>23.69</ele><time>2012-08-10T11:23:25Z</time></trkpt><trkpt lat="57.8514389601" lon="-5.2635294199"><ele>23.21</ele><time>2012-08-10T11:23:26Z</time></trkpt><trkpt lat="57.8513353597" lon="-5.2632975765"><ele>22.73</ele><time>2012-08-10T11:23:27Z</time></trkpt><trkpt lat="57.8512109723" lon="-5.2630829997"><ele>23.21</ele><time>2012-08-10T11:23:28Z</time></trkpt><trkpt lat="57.8510698210" lon="-5.2628849354"><ele>23.21</ele><time>2012-08-10T11:23:29Z</time></trkpt><trkpt lat="57.8509175219" lon="-5.2627043892"><ele>23.21</ele><time>2012-08-10T11:23:30Z</time></trkpt><trkpt lat="57.8507591039" lon="-5.2625339013"><ele>23.21</ele><time>2012-08-10T11:23:31Z</time></trkpt><trkpt lat="57.8499578778" lon="-5.2616237942"><ele>21.29</ele><time>2012-08-10T11:23:36Z</time></trkpt><trkpt lat="57.8498163912" lon="-5.2613870893"><ele>21.29</ele><time>2012-08-10T11:23:37Z</time></trkpt><trkpt lat="57.8496902436" lon="-5.2611095645"><ele>20.81</ele><time>2012-08-10T11:23:38Z</time></trkpt><trkpt lat="57.8495788481" lon="-5.2607978415"><ele>21.29</ele><time>2012-08-10T11:23:39Z</time></trkpt><trkpt lat="57.8494763374" lon="-5.2604559436"><ele>20.81</ele><time>2012-08-10T11:23:40Z</time></trkpt><trkpt lat="57.8493818734" lon="-5.2600904088"><ele>21.29</ele><time>2012-08-10T11:23:41Z</time></trkpt><trkpt lat="57.8488383070" lon="-5.2577350941"><ele>23.21</ele><time>2012-08-10T11:23:47Z</time></trkpt><trkpt lat="57.8483999334" lon="-5.2553045098"><ele>26.09</ele><time>2012-08-10T11:23:53Z</time></trkpt><trkpt lat="57.8481355682" lon="-5.2537141275"><ele>28.50</ele><time>2012-08-10T11:23:57Z</time></trkpt><trkpt lat="57.8473640978" lon="-5.2500018664"><ele>28.50</ele><time>2012-08-10T11:24:07Z</time></trkpt><trkpt lat="57.8470805380" lon="-5.2487268951"><ele>29.94</ele><time>2012-08-10T11:24:10Z</time></trkpt><trkpt lat="57.8457779903" lon="-5.2426897455"><ele>26.57</ele><time>2012-08-10T11:24:24Z</time></trkpt><trkpt lat="57.8457163833" lon="-5.2422685549"><ele>26.57</ele><time>2012-08-10T11:24:25Z</time></trkpt><trkpt lat="57.8452807758" lon="-5.2399109770"><ele>23.21</ele><time>2012-08-10T11:24:31Z</time></trkpt><trkpt lat="57.8450567275" lon="-5.2383052558"><ele>20.32</ele><time>2012-08-10T11:24:35Z</time></trkpt><trkpt lat="57.8449636884" lon="-5.2379330155"><ele>19.36</ele><time>2012-08-10T11:24:36Z</time></trkpt><trkpt lat="57.8448502813" lon="-5.2375779580"><ele>19.36</ele><time>2012-08-10T11:24:37Z</time></trkpt><trkpt lat="57.8444022685" lon="-5.2361811139"><ele>16.96</ele><time>2012-08-10T11:24:41Z</time></trkpt><trkpt lat="57.8443258256" lon="-5.2358077839"><ele>16.96</ele><time>2012-08-10T11:24:42Z</time></trkpt><trkpt lat="57.8442718461" lon="-5.2354168519"><ele>16.96</ele><time>2012-08-10T11:24:43Z</time></trkpt><trkpt lat="57.8442358039" lon="-5.2350123413"><ele>16.96</ele><time>2012-08-10T11:24:44Z</time></trkpt><trkpt lat="57.8437508270" lon="-5.2306809090"><ele>15.52</ele><time>2012-08-10T11:24:55Z</time></trkpt><trkpt lat="57.8427370358" lon="-5.2260912303"><ele>15.04</ele><time>2012-08-10T11:25:07Z</time></trkpt><trkpt lat="57.8422487061" lon="-5.2233461570"><ele>13.12</ele><time>2012-08-10T11:25:15Z</time></trkpt><trkpt lat="57.8418493923" lon="-5.2211876493"><ele>11.67</ele><time>2012-08-10T11:25:23Z</time></trkpt><trkpt lat="57.8408826236" lon="-5.2177806571"><ele>15.04</ele><time>2012-08-10T11:25:35Z</time></trkpt><trkpt lat="57.8398002684" lon="-5.2148019802"><ele>18.40</ele><time>2012-08-10T11:25:45Z</time></trkpt><trkpt lat="57.8393878788" lon="-5.2139454335"><ele>22.73</ele><time>2012-08-10T11:25:48Z</time></trkpt><trkpt lat="57.8392606415" lon="-5.2136446908"><ele>22.73</ele><time>2012-08-10T11:25:49Z</time></trkpt><trkpt lat="57.8391436301" lon="-5.2133242507"><ele>24.17</ele><time>2012-08-10T11:25:50Z</time></trkpt><trkpt lat="57.8390454780" lon="-5.2129832748"><ele>25.13</ele><time>2012-08-10T11:25:51Z</time></trkpt><trkpt lat="57.8389655985" lon="-5.2126286365"><ele>26.09</ele><time>2012-08-10T11:25:52Z</time></trkpt><trkpt lat="57.8386680409" lon="-5.2107220050"><ele>28.50</ele><time>2012-08-10T11:25:57Z</time></trkpt><trkpt lat="57.8384194337" lon="-5.2090539224"><ele>32.34</ele><time>2012-08-10T11:26:01Z</time></trkpt><trkpt lat="57.8383527137" lon="-5.2086128667"><ele>31.86</ele><time>2012-08-10T11:26:02Z</time></trkpt><trkpt lat="57.8374483902" lon="-5.2032073773"><ele>35.23</ele><time>2012-08-10T11:26:15Z</time></trkpt><trkpt lat="57.8373431135" lon="-5.2027969155"><ele>35.71</ele><time>2012-08-10T11:26:16Z</time></trkpt><trkpt lat="57.8361648694" lon="-5.1987805590"><ele>36.19</ele><time>2012-08-10T11:26:26Z</time></trkpt><trkpt lat="57.8359921183" lon="-5.1984449476"><ele>36.67</ele><time>2012-08-10T11:26:27Z</time></trkpt><trkpt lat="57.8339935374" lon="-5.1953971200"><ele>37.63</ele><time>2012-08-10T11:26:37Z</time></trkpt><trkpt lat="57.8324049991" lon="-5.1924471930"><ele>38.11</ele><time>2012-08-10T11:26:46Z</time></trkpt><trkpt lat="57.8314129170" lon="-5.1896291971"><ele>38.59</ele><time>2012-08-10T11:26:54Z</time></trkpt><trkpt lat="57.8308416903" lon="-5.1869068388"><ele>39.07</ele><time>2012-08-10T11:27:03Z</time></trkpt><trkpt lat="57.8305840306" lon="-5.1862753462"><ele>38.59</ele><time>2012-08-10T11:27:06Z</time></trkpt><trkpt lat="57.8304855432" lon="-5.1861258131"><ele>38.11</ele><time>2012-08-10T11:27:07Z</time></trkpt><trkpt lat="57.8303745668" lon="-5.1860084664"><ele>37.63</ele><time>2012-08-10T11:27:08Z</time></trkpt><trkpt lat="57.8302524425" lon="-5.1859124936"><ele>38.11</ele><time>2012-08-10T11:27:09Z</time></trkpt><trkpt lat="57.8301230259" lon="-5.1858325303"><ele>38.11</ele><time>2012-08-10T11:27:10Z</time></trkpt><trkpt lat="57.8299832158" lon="-5.1857757848"><ele>38.11</ele><time>2012-08-10T11:27:11Z</time></trkpt><trkpt lat="57.8298248816" lon="-5.1857487112"><ele>39.55</ele><time>2012-08-10T11:27:12Z</time></trkpt><trkpt lat="57.8296450060" lon="-5.1857330371"><ele>41.47</ele><time>2012-08-10T11:27:13Z</time></trkpt><trkpt lat="57.8279573936" lon="-5.1855153590"><ele>40.99</ele><time>2012-08-10T11:27:21Z</time></trkpt><trkpt lat="57.8275331855" lon="-5.1854750421"><ele>40.51</ele><time>2012-08-10T11:27:23Z</time></trkpt><trkpt lat="57.8254501987" lon="-5.1849007141"><ele>40.51</ele><time>2012-08-10T11:27:33Z</time></trkpt><trkpt lat="57.8240425419" lon="-5.1841227058"><ele>40.51</ele><time>2012-08-10T11:27:40Z</time></trkpt><trkpt lat="57.8227351326" lon="-5.1825510152"><ele>41.95</ele><time>2012-08-10T11:27:47Z</time></trkpt><trkpt lat="57.8219200764" lon="-5.1812936459"><ele>42.92</ele><time>2012-08-10T11:27:52Z</time></trkpt><trkpt lat="57.8217971977" lon="-5.1810092479"><ele>44.36</ele><time>2012-08-10T11:27:53Z</time></trkpt><trkpt lat="57.8213348519" lon="-5.1797010843"><ele>47.72</ele><time>2012-08-10T11:27:57Z</time></trkpt><trkpt lat="57.8212064411" lon="-5.1794024371"><ele>48.68</ele><time>2012-08-10T11:27:58Z</time></trkpt><trkpt lat="57.8210673016" lon="-5.1791416761"><ele>49.65</ele><time>2012-08-10T11:27:59Z</time></trkpt><trkpt lat="57.8209109791" lon="-5.1789187174"><ele>50.13</ele><time>2012-08-10T11:28:00Z</time></trkpt><trkpt lat="57.8207298461" lon="-5.1787279453"><ele>51.57</ele><time>2012-08-10T11:28:01Z</time></trkpt><trkpt lat="57.8205295186" lon="-5.1785617322"><ele>52.53</ele><time>2012-08-10T11:28:02Z</time></trkpt><trkpt lat="57.8203101642" lon="-5.1784058288"><ele>53.49</ele><time>2012-08-10T11:28:03Z</time></trkpt><trkpt lat="57.8186647128" lon="-5.1774665527"><ele>55.41</ele><time>2012-08-10T11:28:11Z</time></trkpt><trkpt lat="57.8171767574" lon="-5.1768971700"><ele>54.93</ele><time>2012-08-10T11:28:20Z</time></trkpt><trkpt lat="57.8159755468" lon="-5.1764286216"><ele>58.30</ele><time>2012-08-10T11:28:29Z</time></trkpt><trkpt lat="57.8158523329" lon="-5.1763788331"><ele>58.30</ele><time>2012-08-10T11:28:30Z</time></trkpt><trkpt lat="57.8146257252" lon="-5.1758936048"><ele>61.66</ele><time>2012-08-10T11:28:40Z</time></trkpt><trkpt lat="57.8138244990" lon="-5.1753974799"><ele>65.03</ele><time>2012-08-10T11:28:46Z</time></trkpt><trkpt lat="57.8136873711" lon="-5.1752568316"><ele>65.51</ele><time>2012-08-10T11:28:47Z</time></trkpt><trkpt lat="57.8131316509" lon="-5.1745561883"><ele>68.87</ele><time>2012-08-10T11:28:51Z</time></trkpt><trkpt lat="57.8126940317" lon="-5.1739476621"><ele>72.72</ele><time>2012-08-10T11:28:54Z</time></trkpt><trkpt lat="57.8122823965" lon="-5.1732320990"><ele>78.00</ele><time>2012-08-10T11:28:57Z</time></trkpt><trkpt lat="57.8121772874" lon="-5.1729420014"><ele>79.45</ele><time>2012-08-10T11:28:58Z</time></trkpt><trkpt lat="57.8120974917" lon="-5.1726075634"><ele>81.85</ele><time>2012-08-10T11:28:59Z</time></trkpt><trkpt lat="57.8120387346" lon="-5.1722396817"><ele>83.77</ele><time>2012-08-10T11:29:00Z</time></trkpt><trkpt lat="57.8119936399" lon="-5.1718494203"><ele>86.18</ele><time>2012-08-10T11:29:01Z</time></trkpt><trkpt lat="57.8119541612" lon="-5.1714373659"><ele>89.06</ele><time>2012-08-10T11:29:02Z</time></trkpt><trkpt lat="57.8118767962" lon="-5.1705924701"><ele>93.39</ele><time>2012-08-10T11:29:04Z</time></trkpt><trkpt lat="57.8118492197" lon="-5.1697117835"><ele>98.19</ele><time>2012-08-10T11:29:06Z</time></trkpt><trkpt lat="57.8118636366" lon="-5.1692793611"><ele>99.63</ele><time>2012-08-10T11:29:07Z</time></trkpt><trkpt lat="57.8119078930" lon="-5.1683923882"><ele>104.44</ele><time>2012-08-10T11:29:09Z</time></trkpt><trkpt lat="57.8119532391" lon="-5.1674852986"><ele>109.73</ele><time>2012-08-10T11:29:11Z</time></trkpt><trkpt lat="57.8119911253" lon="-5.1666041091"><ele>114.05</ele><time>2012-08-10T11:29:13Z</time></trkpt><trkpt lat="57.8119859286" lon="-5.1657474786"><ele>118.38</ele><time>2012-08-10T11:29:15Z</time></trkpt><trkpt lat="57.8119525686" lon="-5.1653186604"><ele>121.26</ele><time>2012-08-10T11:29:16Z</time></trkpt><trkpt lat="57.8118511476" lon="-5.1644349564"><ele>126.07</ele><time>2012-08-10T11:29:18Z</time></trkpt><trkpt lat="57.8117425181" lon="-5.1635492407"><ele>131.36</ele><time>2012-08-10T11:29:20Z</time></trkpt><trkpt lat="57.8116563521" lon="-5.1627320889"><ele>134.24</ele><time>2012-08-10T11:29:22Z</time></trkpt><trkpt lat="57.8116345592" lon="-5.1623430010"><ele>136.64</ele><time>2012-08-10T11:29:23Z</time></trkpt><trkpt lat="57.8116307873" lon="-5.1619602833"><ele>138.09</ele><time>2012-08-10T11:29:24Z</time></trkpt><trkpt lat="57.8116334695" lon="-5.1612158027"><ele>141.45</ele><time>2012-08-10T11:29:26Z</time></trkpt><trkpt lat="57.8116088267" lon="-5.1605227031"><ele>144.82</ele><time>2012-08-10T11:29:28Z</time></trkpt><trkpt lat="57.8115276061" lon="-5.1598600298"><ele>146.74</ele><time>2012-08-10T11:29:30Z</time></trkpt><trkpt lat="57.8114548512" lon="-5.1595401764"><ele>147.22</ele><time>2012-08-10T11:29:31Z</time></trkpt><trkpt lat="57.8113545198" lon="-5.1592325605"><ele>147.22</ele><time>2012-08-10T11:29:32Z</time></trkpt><trkpt lat="57.8112277854" lon="-5.1589380205"><ele>147.70</ele><time>2012-08-10T11:29:33Z</time></trkpt><trkpt lat="57.8110785875" lon="-5.1586552989"><ele>148.66</ele><time>2012-08-10T11:29:34Z</time></trkpt><trkpt lat="57.8108772542" lon="-5.1583916880"><ele>148.18</ele><time>2012-08-10T11:29:35Z</time></trkpt><trkpt lat="57.8090858739" lon="-5.1556649711"><ele>146.26</ele><time>2012-08-10T11:29:45Z</time></trkpt><trkpt lat="57.8089572117" lon="-5.1553543378"><ele>146.26</ele><time>2012-08-10T11:29:46Z</time></trkpt><trkpt lat="57.8088424634" lon="-5.1550125238"><ele>145.78</ele><time>2012-08-10T11:29:47Z</time></trkpt><trkpt lat="57.8080239706" lon="-5.1523780916"><ele>150.10</ele><time>2012-08-10T11:29:55Z</time></trkpt><trkpt lat="57.8078969847" lon="-5.1521436498"><ele>151.06</ele><time>2012-08-10T11:29:56Z</time></trkpt><trkpt lat="57.8077566717" lon="-5.1519361138"><ele>152.03</ele><time>2012-08-10T11:29:57Z</time></trkpt><trkpt lat="57.8076027799" lon="-5.1517491974"><ele>153.47</ele><time>2012-08-10T11:29:58Z</time></trkpt><trkpt lat="57.8074325435" lon="-5.1515762787"><ele>154.91</ele><time>2012-08-10T11:29:59Z</time></trkpt><trkpt lat="57.8068534378" lon="-5.1510963310"><ele>157.31</ele><time>2012-08-10T11:30:02Z</time></trkpt><trkpt lat="57.8066532779" lon="-5.1509790681"><ele>157.79</ele><time>2012-08-10T11:30:03Z</time></trkpt><trkpt lat="57.8064309061" lon="-5.1509039663"><ele>159.24</ele><time>2012-08-10T11:30:04Z</time></trkpt><trkpt lat="57.8061836399" lon="-5.1508616377"><ele>160.68</ele><time>2012-08-10T11:30:05Z</time></trkpt><trkpt lat="57.8054600302" lon="-5.1507762261"><ele>164.52</ele><time>2012-08-10T11:30:08Z</time></trkpt><trkpt lat="57.8052228224" lon="-5.1507527567"><ele>164.52</ele><time>2012-08-10T11:30:09Z</time></trkpt><trkpt lat="57.8042751644" lon="-5.1507756393"><ele>167.41</ele><time>2012-08-10T11:30:13Z</time></trkpt><trkpt lat="57.8038017545" lon="-5.1508789044"><ele>170.77</ele><time>2012-08-10T11:30:15Z</time></trkpt><trkpt lat="57.8033488803" lon="-5.1510425191"><ele>174.14</ele><time>2012-08-10T11:30:17Z</time></trkpt><trkpt lat="57.8031363990" lon="-5.1511771325"><ele>175.58</ele><time>2012-08-10T11:30:18Z</time></trkpt><trkpt lat="57.8029270191" lon="-5.1513492968"><ele>177.50</ele><time>2012-08-10T11:30:19Z</time></trkpt><trkpt lat="57.8023019806" lon="-5.1519729942"><ele>180.87</ele><time>2012-08-10T11:30:22Z</time></trkpt><trkpt lat="57.8016749304" lon="-5.1526102703"><ele>186.15</ele><time>2012-08-10T11:30:25Z</time></trkpt><trkpt lat="57.8012561705" lon="-5.1530582830"><ele>189.52</ele><time>2012-08-10T11:30:27Z</time></trkpt><trkpt lat="57.8008528333" lon="-5.1536155958"><ele>193.84</ele><time>2012-08-10T11:30:29Z</time></trkpt><trkpt lat="57.8002879769" lon="-5.1545034070"><ele>198.17</ele><time>2012-08-10T11:30:32Z</time></trkpt><trkpt lat="57.7999357693" lon="-5.1550546847"><ele>202.01</ele><time>2012-08-10T11:30:34Z</time></trkpt><trkpt lat="57.7995902672" lon="-5.1555892825"><ele>203.46</ele><time>2012-08-10T11:30:36Z</time></trkpt><trkpt lat="57.7988833375" lon="-5.1566810254"><ele>207.30</ele><time>2012-08-10T11:30:40Z</time></trkpt><trkpt lat="57.7983268630" lon="-5.1575355604"><ele>210.67</ele><time>2012-08-10T11:30:43Z</time></trkpt><trkpt lat="57.7975037601" lon="-5.1587107033"><ele>214.03</ele><time>2012-08-10T11:30:47Z</time></trkpt><trkpt lat="57.7968778834" lon="-5.1595522463"><ele>214.99</ele><time>2012-08-10T11:30:50Z</time></trkpt><trkpt lat="57.7956950292" lon="-5.1611225121"><ele>218.36</ele><time>2012-08-10T11:30:56Z</time></trkpt><trkpt lat="57.7948963176" lon="-5.1618840080"><ele>221.24</ele><time>2012-08-10T11:31:00Z</time></trkpt><trkpt lat="57.7940981928" lon="-5.1626301650"><ele>223.16</ele><time>2012-08-10T11:31:04Z</time></trkpt><trkpt lat="57.7935148124" lon="-5.1631103642"><ele>223.16</ele><time>2012-08-10T11:31:07Z</time></trkpt><trkpt lat="57.7933056001" lon="-5.1631987933"><ele>224.12</ele><time>2012-08-10T11:31:08Z</time></trkpt><trkpt lat="57.7922097500" lon="-5.1634923276"><ele>227.49</ele><time>2012-08-10T11:31:13Z</time></trkpt><trkpt lat="57.7915769164" lon="-5.1638720278"><ele>230.85</ele><time>2012-08-10T11:31:16Z</time></trkpt><trkpt lat="57.7907414921" lon="-5.1643759478"><ele>235.66</ele><time>2012-08-10T11:31:20Z</time></trkpt><trkpt lat="57.7905295976" lon="-5.1644175220"><ele>237.10</ele><time>2012-08-10T11:31:21Z</time></trkpt><trkpt lat="57.7903163619" lon="-5.1644219644"><ele>239.51</ele><time>2012-08-10T11:31:22Z</time></trkpt><trkpt lat="57.7900993545" lon="-5.1644073799"><ele>242.39</ele><time>2012-08-10T11:31:23Z</time></trkpt><trkpt lat="57.7894389443" lon="-5.1643637940"><ele>246.23</ele><time>2012-08-10T11:31:26Z</time></trkpt><trkpt lat="57.7889927756" lon="-5.1643448509"><ele>249.60</ele><time>2012-08-10T11:31:28Z</time></trkpt><trkpt lat="57.7883351315" lon="-5.1643056236"><ele>252.96</ele><time>2012-08-10T11:31:31Z</time></trkpt><trkpt lat="57.7877081651" lon="-5.1643720921"><ele>256.81</ele><time>2012-08-10T11:31:34Z</time></trkpt><trkpt lat="57.7875095978" lon="-5.1644734293"><ele>256.81</ele><time>2012-08-10T11:31:35Z</time></trkpt><trkpt lat="57.7873135451" lon="-5.1646205317"><ele>260.17</ele><time>2012-08-10T11:31:36Z</time></trkpt><trkpt lat="57.7869392093" lon="-5.1649614237"><ele>262.10</ele><time>2012-08-10T11:31:38Z</time></trkpt><trkpt lat="57.7865735907" lon="-5.1652248669"><ele>263.06</ele><time>2012-08-10T11:31:40Z</time></trkpt><trkpt lat="57.7863908652" lon="-5.1652927604"><ele>264.98</ele><time>2012-08-10T11:31:41Z</time></trkpt><trkpt lat="57.7862096485" lon="-5.1653040759"><ele>265.46</ele><time>2012-08-10T11:31:42Z</time></trkpt><trkpt lat="57.7860289346" lon="-5.1652690396"><ele>266.42</ele><time>2012-08-10T11:31:43Z</time></trkpt><trkpt lat="57.7858447004" lon="-5.1652023196"><ele>266.42</ele><time>2012-08-10T11:31:44Z</time></trkpt><trkpt lat="57.7856543474" lon="-5.1651223563"><ele>268.35</ele><time>2012-08-10T11:31:45Z</time></trkpt><trkpt lat="57.7852666005" lon="-5.1649372000"><ele>271.71</ele><time>2012-08-10T11:31:47Z</time></trkpt><trkpt lat="57.7848877385" lon="-5.1646822225"><ele>274.59</ele><time>2012-08-10T11:31:49Z</time></trkpt><trkpt lat="57.7847114671" lon="-5.1644907799"><ele>276.04</ele><time>2012-08-10T11:31:50Z</time></trkpt><trkpt lat="57.7845424879" lon="-5.1642567571"><ele>277.96</ele><time>2012-08-10T11:31:51Z</time></trkpt><trkpt lat="57.7842229698" lon="-5.1637419406"><ele>281.32</ele><time>2012-08-10T11:31:53Z</time></trkpt><trkpt lat="57.7836321294" lon="-5.1627638564"><ele>284.69</ele><time>2012-08-10T11:31:57Z</time></trkpt><trkpt lat="57.7822134085" lon="-5.1605651993"><ele>284.21</ele><time>2012-08-10T11:32:06Z</time></trkpt><trkpt lat="57.7820230555" lon="-5.1603843179"><ele>283.73</ele><time>2012-08-10T11:32:07Z</time></trkpt><trkpt lat="57.7816369012" lon="-5.1600587647"><ele>282.77</ele><time>2012-08-10T11:32:09Z</time></trkpt><trkpt lat="57.7812511660" lon="-5.1597194653"><ele>284.21</ele><time>2012-08-10T11:32:11Z</time></trkpt><trkpt lat="57.7795581892" lon="-5.1576931402"><ele>284.21</ele><time>2012-08-10T11:32:20Z</time></trkpt><trkpt lat="57.7789837774" lon="-5.1569917426"><ele>285.65</ele><time>2012-08-10T11:32:23Z</time></trkpt><trkpt lat="57.7755380608" lon="-5.1527572889"><ele>288.53</ele><time>2012-08-10T11:32:40Z</time></trkpt><trkpt lat="57.7743042447" lon="-5.1512456965"><ele>291.90</ele><time>2012-08-10T11:32:46Z</time></trkpt><trkpt lat="57.7712210454" lon="-5.1474139094"><ele>295.26</ele><time>2012-08-10T11:33:01Z</time></trkpt><trkpt lat="57.7703845315" lon="-5.1463914011"><ele>297.18</ele><time>2012-08-10T11:33:05Z</time></trkpt><trkpt lat="57.7696189284" lon="-5.1453134883"><ele>300.07</ele><time>2012-08-10T11:33:09Z</time></trkpt><trkpt lat="57.7694528829" lon="-5.1449765358"><ele>301.03</ele><time>2012-08-10T11:33:10Z</time></trkpt><trkpt lat="57.7691247314" lon="-5.1442483161"><ele>304.88</ele><time>2012-08-10T11:33:12Z</time></trkpt><trkpt lat="57.7682870440" lon="-5.1424062252"><ele>307.76</ele><time>2012-08-10T11:33:17Z</time></trkpt><trkpt lat="57.7679593116" lon="-5.1416883152"><ele>308.72</ele><time>2012-08-10T11:33:19Z</time></trkpt><trkpt lat="57.7675257996" lon="-5.1405977458"><ele>312.09</ele><time>2012-08-10T11:33:22Z</time></trkpt><trkpt lat="57.7670817263" lon="-5.1389844809"><ele>314.97</ele><time>2012-08-10T11:33:26Z</time></trkpt><trkpt lat="57.7665497269" lon="-5.1370234508"><ele>319.30</ele><time>2012-08-10T11:33:31Z</time></trkpt><trkpt lat="57.7662275266" lon="-5.1359167043"><ele>323.62</ele><time>2012-08-10T11:33:34Z</time></trkpt><trkpt lat="57.7658231836" lon="-5.1347951218"><ele>327.47</ele><time>2012-08-10T11:33:37Z</time></trkpt><trkpt lat="57.7649560757" lon="-5.1325067785"><ele>329.87</ele><time>2012-08-10T11:33:43Z</time></trkpt><trkpt lat="57.7644260041" lon="-5.1315130200"><ele>333.23</ele><time>2012-08-10T11:33:46Z</time></trkpt><trkpt lat="57.7642368246" lon="-5.1311978605"><ele>333.23</ele><time>2012-08-10T11:33:47Z</time></trkpt><trkpt lat="57.7636724710" lon="-5.1302555669"><ele>336.12</ele><time>2012-08-10T11:33:50Z</time></trkpt><trkpt lat="57.7627692372" lon="-5.1287200861"><ele>338.52</ele><time>2012-08-10T11:33:55Z</time></trkpt><trkpt lat="57.7615075093" lon="-5.1261320896"><ele>336.60</ele><time>2012-08-10T11:34:03Z</time></trkpt><trkpt lat="57.7613832057" lon="-5.1257436723"><ele>335.16</ele><time>2012-08-10T11:34:04Z</time></trkpt><trkpt lat="57.7606386412" lon="-5.1234658062"><ele>335.16</ele><time>2012-08-10T11:34:10Z</time></trkpt><trkpt lat="57.7604694944" lon="-5.1231665723"><ele>335.16</ele><time>2012-08-10T11:34:11Z</time></trkpt><trkpt lat="57.7602840867" lon="-5.1228909753"><ele>336.60</ele><time>2012-08-10T11:34:12Z</time></trkpt><trkpt lat="57.7596848644" lon="-5.1221252885"><ele>338.52</ele><time>2012-08-10T11:34:15Z</time></trkpt><trkpt lat="57.7580434363" lon="-5.1200217661"><ele>337.56</ele><time>2012-08-10T11:34:23Z</time></trkpt><trkpt lat="57.7576996107" lon="-5.1194992382"><ele>338.04</ele><time>2012-08-10T11:34:25Z</time></trkpt><trkpt lat="57.7575504966" lon="-5.1191902813"><ele>337.56</ele><time>2012-08-10T11:34:26Z</time></trkpt><trkpt lat="57.7574138716" lon="-5.1188488025"><ele>337.56</ele><time>2012-08-10T11:34:27Z</time></trkpt><trkpt lat="57.7560810652" lon="-5.1151176821"><ele>342.37</ele><time>2012-08-10T11:34:37Z</time></trkpt><trkpt lat="57.7557755448" lon="-5.1144814119"><ele>344.77</ele><time>2012-08-10T11:34:39Z</time></trkpt><trkpt lat="57.7556089126" lon="-5.1142162085"><ele>345.73</ele><time>2012-08-10T11:34:40Z</time></trkpt><trkpt lat="57.7552760672" lon="-5.1137500908"><ele>346.21</ele><time>2012-08-10T11:34:42Z</time></trkpt><trkpt lat="57.7534441184" lon="-5.1112369448"><ele>344.29</ele><time>2012-08-10T11:34:52Z</time></trkpt><trkpt lat="57.7526594885" lon="-5.1101704314"><ele>341.41</ele><time>2012-08-10T11:34:56Z</time></trkpt><trkpt lat="57.7502213605" lon="-5.1073365100"><ele>337.56</ele><time>2012-08-10T11:35:08Z</time></trkpt><trkpt lat="57.7490830142" lon="-5.1062622853"><ele>334.68</ele><time>2012-08-10T11:35:13Z</time></trkpt><trkpt lat="57.7482105419" lon="-5.1054257713"><ele>330.83</ele><time>2012-08-10T11:35:17Z</time></trkpt><trkpt lat="57.7478447556" lon="-5.1049908344"><ele>328.91</ele><time>2012-08-10T11:35:19Z</time></trkpt><trkpt lat="57.7476805542" lon="-5.1047274750"><ele>327.95</ele><time>2012-08-10T11:35:20Z</time></trkpt><trkpt lat="57.7467168868" lon="-5.1029152237"><ele>324.58</ele><time>2012-08-10T11:35:26Z</time></trkpt><trkpt lat="57.7463753242" lon="-5.1022739243"><ele>321.22</ele><time>2012-08-10T11:35:28Z</time></trkpt><trkpt lat="57.7458477672" lon="-5.1012804173"><ele>317.85</ele><time>2012-08-10T11:35:31Z</time></trkpt><trkpt lat="57.7454884350" lon="-5.1006050035"><ele>314.49</ele><time>2012-08-10T11:35:33Z</time></trkpt><trkpt lat="57.7449534182" lon="-5.0996181183"><ele>311.60</ele><time>2012-08-10T11:35:36Z</time></trkpt><trkpt lat="57.7447821759" lon="-5.0992970914"><ele>312.09</ele><time>2012-08-10T11:35:37Z</time></trkpt><trkpt lat="57.7428285219" lon="-5.0956276618"><ele>309.68</ele><time>2012-08-10T11:35:49Z</time></trkpt><trkpt lat="57.7422513440" lon="-5.0947555248"><ele>308.72</ele><time>2012-08-10T11:35:52Z</time></trkpt><trkpt lat="57.7420399524" lon="-5.0945308059"><ele>308.24</ele><time>2012-08-10T11:35:53Z</time></trkpt><trkpt lat="57.7405119315" lon="-5.0931550004"><ele>304.88</ele><time>2012-08-10T11:36:00Z</time></trkpt><trkpt lat="57.7398451511" lon="-5.0925287884"><ele>300.55</ele><time>2012-08-10T11:36:03Z</time></trkpt><trkpt lat="57.7392320149" lon="-5.0919363555"><ele>295.74</ele><time>2012-08-10T11:36:06Z</time></trkpt><trkpt lat="57.7384897135" lon="-5.0912036933"><ele>292.86</ele><time>2012-08-10T11:36:10Z</time></trkpt><trkpt lat="57.7374708932" lon="-5.0901655108"><ele>289.49</ele><time>2012-08-10T11:36:16Z</time></trkpt><trkpt lat="57.7373263892" lon="-5.0899653509"><ele>289.01</ele><time>2012-08-10T11:36:17Z</time></trkpt><trkpt lat="57.7371967211" lon="-5.0897366088"><ele>288.05</ele><time>2012-08-10T11:36:18Z</time></trkpt><trkpt lat="57.7370786201" lon="-5.0894769374"><ele>287.09</ele><time>2012-08-10T11:36:19Z</time></trkpt><trkpt lat="57.7369750198" lon="-5.0891833194"><ele>286.61</ele><time>2012-08-10T11:36:20Z</time></trkpt><trkpt lat="57.7368834056" lon="-5.0888506416"><ele>287.09</ele><time>2012-08-10T11:36:21Z</time></trkpt><trkpt lat="57.7367936354" lon="-5.0884938240"><ele>287.09</ele><time>2012-08-10T11:36:22Z</time></trkpt><trkpt lat="57.7361222450" lon="-5.0852087885"><ele>284.21</ele><time>2012-08-10T11:36:30Z</time></trkpt><trkpt lat="57.7359658387" lon="-5.0834175758"><ele>281.32</ele><time>2012-08-10T11:36:34Z</time></trkpt><trkpt lat="57.7359758131" lon="-5.0821161177"><ele>277.96</ele><time>2012-08-10T11:36:37Z</time></trkpt><trkpt lat="57.7360126097" lon="-5.0816948432"><ele>277.00</ele><time>2012-08-10T11:36:38Z</time></trkpt><trkpt lat="57.7360675111" lon="-5.0812734012"><ele>275.56</ele><time>2012-08-10T11:36:39Z</time></trkpt><trkpt lat="57.7362193074" lon="-5.0804351270"><ele>272.67</ele><time>2012-08-10T11:36:41Z</time></trkpt><trkpt lat="57.7369505446" lon="-5.0780244917"><ele>268.83</ele><time>2012-08-10T11:36:47Z</time></trkpt><trkpt lat="57.7371215355" lon="-5.0776867848"><ele>267.86</ele><time>2012-08-10T11:36:48Z</time></trkpt><trkpt lat="57.7376991324" lon="-5.0767651945"><ele>264.98</ele><time>2012-08-10T11:36:51Z</time></trkpt><trkpt lat="57.7381173056" lon="-5.0761810597"><ele>263.54</ele><time>2012-08-10T11:36:53Z</time></trkpt><trkpt lat="57.7391606010" lon="-5.0747068506"><ele>259.69</ele><time>2012-08-10T11:36:58Z</time></trkpt><trkpt lat="57.7397541236" lon="-5.0737483799"><ele>255.85</ele><time>2012-08-10T11:37:01Z</time></trkpt><trkpt lat="57.7401031461" lon="-5.0730069168"><ele>252.96</ele><time>2012-08-10T11:37:03Z</time></trkpt><trkpt lat="57.7405456267" lon="-5.0717620365"><ele>249.60</ele><time>2012-08-10T11:37:06Z</time></trkpt><trkpt lat="57.7408211399" lon="-5.0709042326"><ele>246.72</ele><time>2012-08-10T11:37:08Z</time></trkpt><trkpt lat="57.7410887741" lon="-5.0700671319"><ele>243.35</ele><time>2012-08-10T11:37:10Z</time></trkpt><trkpt lat="57.7413507085" lon="-5.0692379102"><ele>239.99</ele><time>2012-08-10T11:37:12Z</time></trkpt><trkpt lat="57.7417451609" lon="-5.0679915212"><ele>236.14</ele><time>2012-08-10T11:37:15Z</time></trkpt><trkpt lat="57.7421507612" lon="-5.0667478144"><ele>231.33</ele><time>2012-08-10T11:37:18Z</time></trkpt><trkpt lat="57.7424158808" lon="-5.0659268908"><ele>229.89</ele><time>2012-08-10T11:37:20Z</time></trkpt><trkpt lat="57.7428147756" lon="-5.0647193100"><ele>226.05</ele><time>2012-08-10T11:37:23Z</time></trkpt><trkpt lat="57.7434461005" lon="-5.0632113218"><ele>221.24</ele><time>2012-08-10T11:37:27Z</time></trkpt><trkpt lat="57.7439164929" lon="-5.0620293058"><ele>217.88</ele><time>2012-08-10T11:37:30Z</time></trkpt><trkpt lat="57.7444038168" lon="-5.0603148714"><ele>214.51</ele><time>2012-08-10T11:37:34Z</time></trkpt><trkpt lat="57.7448357362" lon="-5.0586819928"><ele>210.67</ele><time>2012-08-10T11:37:38Z</time></trkpt><trkpt lat="57.7449527476" lon="-5.0583281927"><ele>210.67</ele><time>2012-08-10T11:37:39Z</time></trkpt><trkpt lat="57.7450846788" lon="-5.0580156315"><ele>209.22</ele><time>2012-08-10T11:37:40Z</time></trkpt><trkpt lat="57.7452309430" lon="-5.0577498414"><ele>209.22</ele><time>2012-08-10T11:37:41Z</time></trkpt><trkpt lat="57.7453932166" lon="-5.0575298164"><ele>208.74</ele><time>2012-08-10T11:37:42Z</time></trkpt><trkpt lat="57.7455690689" lon="-5.0573490188"><ele>208.26</ele><time>2012-08-10T11:37:43Z</time></trkpt><trkpt lat="57.7457613498" lon="-5.0572062749"><ele>207.78</ele><time>2012-08-10T11:37:44Z</time></trkpt><trkpt lat="57.7459720708" lon="-5.0570901018"><ele>209.22</ele><time>2012-08-10T11:37:45Z</time></trkpt><trkpt lat="57.7461959515" lon="-5.0569768623"><ele>209.22</ele><time>2012-08-10T11:37:46Z</time></trkpt><trkpt lat="57.7473429311" lon="-5.0561975967"><ele>207.78</ele><time>2012-08-10T11:37:51Z</time></trkpt><trkpt lat="57.7475550771" lon="-5.0559575390"><ele>207.30</ele><time>2012-08-10T11:37:52Z</time></trkpt><trkpt lat="57.7477554884" lon="-5.0556832831"><ele>207.30</ele><time>2012-08-10T11:37:53Z</time></trkpt><trkpt lat="57.7479424886" lon="-5.0553739071"><ele>207.78</ele><time>2012-08-10T11:37:54Z</time></trkpt><trkpt lat="57.7481246274" lon="-5.0550416484"><ele>206.82</ele><time>2012-08-10T11:37:55Z</time></trkpt><trkpt lat="57.7484879829" lon="-5.0543436874"><ele>205.86</ele><time>2012-08-10T11:37:57Z</time></trkpt><trkpt lat="57.7502185106" lon="-5.0513468217"><ele>202.49</ele><time>2012-08-10T11:38:06Z</time></trkpt><trkpt lat="57.7512434497" lon="-5.0496238377"><ele>203.94</ele><time>2012-08-10T11:38:12Z</time></trkpt><trkpt lat="57.7525514457" lon="-5.0478071440"><ele>201.05</ele><time>2012-08-10T11:38:19Z</time></trkpt><trkpt lat="57.7532153763" lon="-5.0471041538"><ele>197.21</ele><time>2012-08-10T11:38:22Z</time></trkpt><trkpt lat="57.7551432978" lon="-5.0451923255"><ele>198.65</ele><time>2012-08-10T11:38:31Z</time></trkpt><trkpt lat="57.7566256374" lon="-5.0438191183"><ele>195.28</ele><time>2012-08-10T11:38:38Z</time></trkpt><trkpt lat="57.7569931839" lon="-5.0433378294"><ele>193.36</ele><time>2012-08-10T11:38:40Z</time></trkpt><trkpt lat="57.7571602352" lon="-5.0430504140"><ele>192.88</ele><time>2012-08-10T11:38:41Z</time></trkpt><trkpt lat="57.7573165577" lon="-5.0427300576"><ele>191.92</ele><time>2012-08-10T11:38:42Z</time></trkpt><trkpt lat="57.7584075462" lon="-5.0397369638"><ele>188.56</ele><time>2012-08-10T11:38:50Z</time></trkpt><trkpt lat="57.7587670460" lon="-5.0371658150"><ele>188.56</ele><time>2012-08-10T11:38:56Z</time></trkpt><trkpt lat="57.7589963749" lon="-5.0347499829"><ele>186.15</ele><time>2012-08-10T11:39:02Z</time></trkpt><trkpt lat="57.7589985542" lon="-5.0343683548"><ele>185.67</ele><time>2012-08-10T11:39:03Z</time></trkpt><trkpt lat="57.7589745820" lon="-5.0339929294"><ele>185.19</ele><time>2012-08-10T11:39:04Z</time></trkpt><trkpt lat="57.7589201834" lon="-5.0336221140"><ele>185.19</ele><time>2012-08-10T11:39:05Z</time></trkpt><trkpt lat="57.7588408068" lon="-5.0332436711"><ele>186.15</ele><time>2012-08-10T11:39:06Z</time></trkpt><trkpt lat="57.7587424871" lon="-5.0328554213"><ele>186.15</ele><time>2012-08-10T11:39:07Z</time></trkpt><trkpt lat="57.7579011954" lon="-5.0296840444"><ele>183.27</ele><time>2012-08-10T11:39:15Z</time></trkpt><trkpt lat="57.7576300409" lon="-5.0286498852"><ele>181.83</ele><time>2012-08-10T11:39:18Z</time></trkpt><trkpt lat="57.7569800243" lon="-5.0268171821"><ele>180.38</ele><time>2012-08-10T11:39:24Z</time></trkpt><trkpt lat="57.7558694221" lon="-5.0242052972"><ele>178.94</ele><time>2012-08-10T11:39:34Z</time></trkpt><trkpt lat="57.7554051485" lon="-5.0235117786"><ele>177.98</ele><time>2012-08-10T11:39:40Z</time></trkpt><trkpt lat="57.7553684358" lon="-5.0234513450"><ele>177.98</ele><time>2012-08-10T11:39:41Z</time></trkpt><trkpt lat="57.7553539351" lon="-5.0233887322"><ele>177.50</ele><time>2012-08-10T11:39:42Z</time></trkpt><trkpt lat="57.7553769853" lon="-5.0232965313"><ele>177.98</ele><time>2012-08-10T11:39:44Z</time></trkpt><trkpt lat="57.7554005384" lon="-5.0232785102"><ele>177.98</ele><time>2012-08-10T11:39:45Z</time></trkpt><trkpt lat="57.7554224152" lon="-5.0232749898"><ele>177.98</ele><time>2012-08-10T11:39:46Z</time></trkpt><trkpt lat="57.7554389276" lon="-5.0232766662"><ele>177.98</ele><time>2012-08-10T11:39:47Z</time></trkpt><trkpt lat="57.7554566972" lon="-5.0233026501"><ele>178.94</ele><time>2012-08-10T11:40:01Z</time></trkpt><trkpt lat="57.7554603014" lon="-5.0233432185"><ele>178.46</ele><time>2012-08-10T11:40:02Z</time></trkpt><trkpt lat="57.7554017957" lon="-5.0234654266"><ele>178.46</ele><time>2012-08-10T11:40:05Z</time></trkpt><trkpt lat="57.7553489059" lon="-5.0234513450"><ele>178.46</ele><time>2012-08-10T11:40:06Z</time></trkpt><trkpt lat="57.7552793361" lon="-5.0234010536"><ele>178.94</ele><time>2012-08-10T11:40:07Z</time></trkpt><trkpt lat="57.7552035637" lon="-5.0233290531"><ele>178.94</ele><time>2012-08-10T11:40:08Z</time></trkpt><trkpt lat="57.7551252767" lon="-5.0232467428"><ele>178.94</ele><time>2012-08-10T11:40:09Z</time></trkpt><trkpt lat="57.7549285535" lon="-5.0230502710"><ele>180.38</ele><time>2012-08-10T11:40:11Z</time></trkpt><trkpt lat="57.7544429898" lon="-5.0223502982"><ele>181.83</ele><time>2012-08-10T11:40:16Z</time></trkpt><trkpt lat="57.7543538902" lon="-5.0221496355"><ele>182.31</ele><time>2012-08-10T11:40:17Z</time></trkpt><trkpt lat="57.7542653773" lon="-5.0219178759"><ele>183.27</ele><time>2012-08-10T11:40:18Z</time></trkpt><trkpt lat="57.7535521612" lon="-5.0198376551"><ele>187.11</ele><time>2012-08-10T11:40:25Z</time></trkpt><trkpt lat="57.7534115966" lon="-5.0195206515"><ele>186.63</ele><time>2012-08-10T11:40:26Z</time></trkpt><trkpt lat="57.7523718216" lon="-5.0170359202"><ele>185.19</ele><time>2012-08-10T11:40:34Z</time></trkpt><trkpt lat="57.7522797044" lon="-5.0166990515"><ele>185.67</ele><time>2012-08-10T11:40:35Z</time></trkpt><trkpt lat="57.7522059437" lon="-5.0163387973"><ele>185.67</ele><time>2012-08-10T11:40:36Z</time></trkpt><trkpt lat="57.7521485277" lon="-5.0159665570"><ele>186.15</ele><time>2012-08-10T11:40:37Z</time></trkpt><trkpt lat="57.7521098033" lon="-5.0155827496"><ele>186.63</ele><time>2012-08-10T11:40:38Z</time></trkpt><trkpt lat="57.7520868368" lon="-5.0151894707"><ele>186.15</ele><time>2012-08-10T11:40:39Z</time></trkpt><trkpt lat="57.7520782035" lon="-5.0147979520"><ele>186.63</ele><time>2012-08-10T11:40:40Z</time></trkpt><trkpt lat="57.7520807181" lon="-5.0144252926"><ele>186.15</ele><time>2012-08-10T11:40:41Z</time></trkpt><trkpt lat="57.7521662973" lon="-5.0119849853"><ele>185.19</ele><time>2012-08-10T11:40:49Z</time></trkpt><trkpt lat="57.7522140741" lon="-5.0115031935"><ele>185.67</ele><time>2012-08-10T11:40:51Z</time></trkpt><trkpt lat="57.7522511221" lon="-5.0112875272"><ele>185.67</ele><time>2012-08-10T11:40:52Z</time></trkpt><trkpt lat="57.7523019165" lon="-5.0111011136"><ele>186.15</ele><time>2012-08-10T11:40:53Z</time></trkpt><trkpt lat="57.7523642778" lon="-5.0109475572"><ele>186.15</ele><time>2012-08-10T11:40:54Z</time></trkpt><trkpt lat="57.7524377871" lon="-5.0108352397"><ele>186.63</ele><time>2012-08-10T11:40:55Z</time></trkpt><trkpt lat="57.7525115479" lon="-5.0107508339"><ele>186.63</ele><time>2012-08-10T11:40:56Z</time></trkpt><trkpt lat="57.7525777649" lon="-5.0106826890"><ele>186.63</ele><time>2012-08-10T11:40:57Z</time></trkpt><trkpt lat="57.7526289783" lon="-5.0106388517"><ele>186.63</ele><time>2012-08-10T11:40:58Z</time></trkpt><trkpt lat="57.7526681218" lon="-5.0106230099"><ele>186.63</ele><time>2012-08-10T11:40:59Z</time></trkpt><trkpt lat="57.7526968718" lon="-5.0106277037"><ele>186.63</ele><time>2012-08-10T11:41:00Z</time></trkpt><trkpt lat="57.7527174912" lon="-5.0106432103"><ele>186.63</ele><time>2012-08-10T11:41:01Z</time></trkpt><trkpt lat="57.7527381945" lon="-5.0106700324"><ele>187.11</ele><time>2012-08-10T11:41:02Z</time></trkpt><trkpt lat="57.7527723089" lon="-5.0107046496"><ele>187.11</ele><time>2012-08-10T11:41:03Z</time></trkpt><trkpt lat="57.7528146375" lon="-5.0107074156"><ele>187.11</ele><time>2012-08-10T11:41:04Z</time></trkpt><trkpt lat="57.7528508473" lon="-5.0106752291"><ele>187.59</ele><time>2012-08-10T11:41:05Z</time></trkpt><trkpt lat="57.7528738137" lon="-5.0106287934"><ele>187.59</ele><time>2012-08-10T11:41:06Z</time></trkpt><trkpt lat="57.7528842911" lon="-5.0105745625"><ele>187.59</ele><time>2012-08-10T11:41:07Z</time></trkpt><trkpt lat="57.7528841235" lon="-5.0105214212"><ele>187.11</ele><time>2012-08-10T11:41:08Z</time></trkpt><trkpt lat="57.7528760768" lon="-5.0104681961"><ele>187.11</ele><time>2012-08-10T11:41:09Z</time></trkpt><trkpt lat="57.7528613247" lon="-5.0104291365"><ele>187.11</ele><time>2012-08-10T11:41:10Z</time></trkpt><trkpt lat="57.7528400347" lon="-5.0104170665"><ele>187.11</ele><time>2012-08-10T11:41:11Z</time></trkpt><trkpt lat="57.7528194990" lon="-5.0104239397"><ele>187.59</ele><time>2012-08-10T11:41:12Z</time></trkpt><trkpt lat="57.7528080996" lon="-5.0104350038"><ele>187.59</ele><time>2012-08-10T11:41:25Z</time></trkpt><trkpt lat="57.7528202534" lon="-5.0104427151"><ele>187.59</ele><time>2012-08-10T11:41:59Z</time></trkpt><trkpt lat="57.7528301440" lon="-5.0104389433"><ele>187.11</ele><time>2012-08-10T11:42:46Z</time></trkpt><trkpt lat="57.7528259531" lon="-5.0104086846"><ele>187.59</ele><time>2012-08-10T11:43:19Z</time></trkpt><trkpt lat="57.7528183255" lon="-5.0104131270"><ele>187.59</ele><time>2012-08-10T11:43:57Z</time></trkpt><trkpt lat="57.7528319042" lon="-5.0104719680"><ele>187.59</ele><time>2012-08-10T11:44:34Z</time></trkpt><trkpt lat="57.7528300602" lon="-5.0104619935"><ele>188.56</ele><time>2012-08-10T11:45:10Z</time></trkpt><trkpt lat="57.7528264560" lon="-5.0104512647"><ele>188.08</ele><time>2012-08-10T11:45:38Z</time></trkpt><trkpt lat="57.7528238576" lon="-5.0104110315"><ele>188.56</ele><time>2012-08-10T11:46:00Z</time></trkpt><trkpt lat="57.7528252825" lon="-5.0104457326"><ele>188.56</ele><time>2012-08-10T11:46:27Z</time></trkpt><trkpt lat="57.7528200019" lon="-5.0104201678"><ele>188.56</ele><time>2012-08-10T11:46:55Z</time></trkpt><trkpt lat="57.7528108656" lon="-5.0104433857"><ele>189.04</ele><time>2012-08-10T11:47:26Z</time></trkpt><trkpt lat="57.7528201696" lon="-5.0104563776"><ele>189.04</ele><time>2012-08-10T11:47:52Z</time></trkpt><trkpt lat="57.7528037410" lon="-5.0104613230"><ele>188.56</ele><time>2012-08-10T11:48:07Z</time></trkpt><trkpt lat="57.7528282162" lon="-5.0104328245"><ele>189.52</ele><time>2012-08-10T11:48:33Z</time></trkpt><trkpt lat="57.7528147213" lon="-5.0104570482"><ele>189.04</ele><time>2012-08-10T11:49:06Z</time></trkpt><trkpt lat="57.7528109495" lon="-5.0104451459"><ele>188.56</ele><time>2012-08-10T11:49:45Z</time></trkpt><trkpt lat="57.7528110333" lon="-5.0104044098"><ele>188.56</ele><time>2012-08-10T11:50:13Z</time></trkpt><trkpt lat="57.7527806908" lon="-5.0104101934"><ele>188.56</ele><time>2012-08-10T11:50:47Z</time></trkpt><trkpt lat="57.7528181579" lon="-5.0104169827"><ele>188.56</ele><time>2012-08-10T11:51:25Z</time></trkpt><trkpt lat="57.7528055012" lon="-5.0103745703"><ele>188.08</ele><time>2012-08-10T11:51:51Z</time></trkpt><trkpt lat="57.7528031543" lon="-5.0104018115"><ele>188.56</ele><time>2012-08-10T11:52:24Z</time></trkpt><trkpt lat="57.7528070100" lon="-5.0104080141"><ele>188.56</ele><time>2012-08-10T11:52:59Z</time></trkpt><trkpt lat="57.7528142184" lon="-5.0103675295"><ele>189.04</ele><time>2012-08-10T11:53:43Z</time></trkpt><trkpt lat="57.7528220974" lon="-5.0103951059"><ele>189.52</ele><time>2012-08-10T11:54:27Z</time></trkpt><trkpt lat="57.7528084349" lon="-5.0104213413"><ele>189.04</ele><time>2012-08-10T11:54:58Z</time></trkpt><trkpt lat="57.7528270427" lon="-5.0104093552"><ele>189.04</ele><time>2012-08-10T11:55:36Z</time></trkpt><trkpt lat="57.7528291382" lon="-5.0103778392"><ele>189.52</ele><time>2012-08-10T11:56:14Z</time></trkpt><trkpt lat="57.7528293896" lon="-5.0104120374"><ele>189.52</ele><time>2012-08-10T11:56:40Z</time></trkpt><trkpt lat="57.7528143860" lon="-5.0104589760"><ele>190.00</ele><time>2012-08-10T11:56:55Z</time></trkpt><trkpt lat="57.7528165653" lon="-5.0105008017"><ele>190.00</ele><time>2012-08-10T11:56:56Z</time></trkpt><trkpt lat="57.7528227679" lon="-5.0105591398"><ele>190.00</ele><time>2012-08-10T11:56:57Z</time></trkpt><trkpt lat="57.7528267913" lon="-5.0108101778"><ele>190.00</ele><time>2012-08-10T11:57:01Z</time></trkpt><trkpt lat="57.7528204210" lon="-5.0109259319"><ele>190.48</ele><time>2012-08-10T11:57:02Z</time></trkpt><trkpt lat="57.7528230194" lon="-5.0110801589"><ele>190.96</ele><time>2012-08-10T11:57:03Z</time></trkpt><trkpt lat="57.7528421301" lon="-5.0112581905"><ele>190.96</ele><time>2012-08-10T11:57:04Z</time></trkpt><trkpt lat="57.7528724726" lon="-5.0114647206"><ele>190.48</ele><time>2012-08-10T11:57:05Z</time></trkpt><trkpt lat="57.7530515939" lon="-5.0124802720"><ele>191.92</ele><time>2012-08-10T11:57:09Z</time></trkpt><trkpt lat="57.7531308867" lon="-5.0127681065"><ele>192.40</ele><time>2012-08-10T11:57:10Z</time></trkpt><trkpt lat="57.7537767962" lon="-5.0146117900"><ele>188.56</ele><time>2012-08-10T11:57:16Z</time></trkpt><trkpt lat="57.7538954001" lon="-5.0149396900"><ele>188.56</ele><time>2012-08-10T11:57:17Z</time></trkpt><trkpt lat="57.7542677242" lon="-5.0159245636"><ele>185.67</ele><time>2012-08-10T11:57:20Z</time></trkpt><trkpt lat="57.7546769287" lon="-5.0169615727"><ele>181.83</ele><time>2012-08-10T11:57:23Z</time></trkpt><trkpt lat="57.7557173744" lon="-5.0195157062"><ele>178.94</ele><time>2012-08-10T11:57:30Z</time></trkpt><trkpt lat="57.7563300915" lon="-5.0208154880"><ele>175.10</ele><time>2012-08-10T11:57:34Z</time></trkpt><trkpt lat="57.7565815486" lon="-5.0213427935"><ele>171.73</ele><time>2012-08-10T11:57:36Z</time></trkpt><trkpt lat="57.7568035014" lon="-5.0218257587"><ele>167.89</ele><time>2012-08-10T11:57:38Z</time></trkpt><trkpt lat="57.7570842113" lon="-5.0224514678"><ele>164.52</ele><time>2012-08-10T11:57:41Z</time></trkpt><trkpt lat="57.7573971916" lon="-5.0229983870"><ele>161.16</ele><time>2012-08-10T11:57:45Z</time></trkpt><trkpt lat="57.7575528435" lon="-5.0232500117"><ele>158.27</ele><time>2012-08-10T11:57:49Z</time></trkpt><trkpt lat="57.7576257661" lon="-5.0233484991"><ele>156.83</ele><time>2012-08-10T11:57:59Z</time></trkpt><trkpt lat="57.7576034702" lon="-5.0233592279"><ele>157.31</ele><time>2012-08-10T11:58:34Z</time></trkpt><trkpt lat="57.7576320525" lon="-5.0233563781"><ele>157.79</ele><time>2012-08-10T11:59:10Z</time></trkpt><trkpt lat="57.7576677594" lon="-5.0234060828"><ele>157.79</ele><time>2012-08-10T11:59:33Z</time></trkpt><trkpt lat="57.7580479626" lon="-5.0240067299"><ele>157.31</ele><time>2012-08-10T11:59:39Z</time></trkpt><trkpt lat="57.7585251443" lon="-5.0245373044"><ele>157.31</ele><time>2012-08-10T11:59:43Z</time></trkpt><trkpt lat="57.7589785215" lon="-5.0249253027"><ele>155.39</ele><time>2012-08-10T11:59:46Z</time></trkpt><trkpt lat="57.7591301501" lon="-5.0251169130"><ele>155.39</ele><time>2012-08-10T11:59:47Z</time></trkpt><trkpt lat="57.7592713013" lon="-5.0253352616"><ele>154.43</ele><time>2012-08-10T11:59:48Z</time></trkpt><trkpt lat="57.7594032325" lon="-5.0255745649"><ele>154.91</ele><time>2012-08-10T11:59:49Z</time></trkpt><trkpt lat="57.7595323138" lon="-5.0258342363"><ele>153.95</ele><time>2012-08-10T11:59:50Z</time></trkpt><trkpt lat="57.7596581262" lon="-5.0261049718"><ele>152.99</ele><time>2012-08-10T11:59:51Z</time></trkpt><trkpt lat="57.7598879579" lon="-5.0266429223"><ele>149.14</ele><time>2012-08-10T11:59:53Z</time></trkpt><trkpt lat="57.7601100784" lon="-5.0271819625"><ele>144.82</ele><time>2012-08-10T11:59:55Z</time></trkpt><trkpt lat="57.7604549937" lon="-5.0280210748"><ele>140.49</ele><time>2012-08-10T11:59:58Z</time></trkpt><trkpt lat="57.7607077081" lon="-5.0285888650"><ele>136.16</ele><time>2012-08-10T12:00:00Z</time></trkpt><trkpt lat="57.7609984763" lon="-5.0291138235"><ele>130.88</ele><time>2012-08-10T12:00:02Z</time></trkpt><trkpt lat="57.7613325790" lon="-5.0295814499"><ele>127.03</ele><time>2012-08-10T12:00:04Z</time></trkpt><trkpt lat="57.7616741415" lon="-5.0300260261"><ele>121.74</ele><time>2012-08-10T12:00:06Z</time></trkpt><trkpt lat="57.7620255109" lon="-5.0304762181"><ele>116.94</ele><time>2012-08-10T12:00:08Z</time></trkpt><trkpt lat="57.7625373937" lon="-5.0311925355"><ele>113.57</ele><time>2012-08-10T12:00:11Z</time></trkpt><trkpt lat="57.7632651944" lon="-5.0324069895"><ele>111.65</ele><time>2012-08-10T12:00:16Z</time></trkpt><trkpt lat="57.7636068407" lon="-5.0328091532"><ele>108.29</ele><time>2012-08-10T12:00:18Z</time></trkpt><trkpt lat="57.7641369123" lon="-5.0334598403"><ele>104.44</ele><time>2012-08-10T12:00:21Z</time></trkpt><trkpt lat="57.7644940652" lon="-5.0339111220"><ele>101.08</ele><time>2012-08-10T12:00:23Z</time></trkpt><trkpt lat="57.7648607735" lon="-5.0343551114"><ele>95.79</ele><time>2012-08-10T12:00:25Z</time></trkpt><trkpt lat="57.7652521245" lon="-5.0347530004"><ele>91.94</ele><time>2012-08-10T12:00:27Z</time></trkpt><trkpt lat="57.7656665258" lon="-5.0351039506"><ele>89.06</ele><time>2012-08-10T12:00:29Z</time></trkpt><trkpt lat="57.7660918236" lon="-5.0353829004"><ele>85.21</ele><time>2012-08-10T12:00:31Z</time></trkpt><trkpt lat="57.7667315304" lon="-5.0356546417"><ele>80.41</ele><time>2012-08-10T12:00:34Z</time></trkpt><trkpt lat="57.7671495359" lon="-5.0357700605"><ele>77.04</ele><time>2012-08-10T12:00:36Z</time></trkpt><trkpt lat="57.7677212656" lon="-5.0359772611"><ele>72.24</ele><time>2012-08-10T12:00:39Z</time></trkpt><trkpt lat="57.7680786699" lon="-5.0361367688"><ele>68.39</ele><time>2012-08-10T12:00:41Z</time></trkpt><trkpt lat="57.7691490389" lon="-5.0365685206"><ele>66.47</ele><time>2012-08-10T12:00:47Z</time></trkpt><trkpt lat="57.7693674713" lon="-5.0365697779"><ele>65.03</ele><time>2012-08-10T12:00:48Z</time></trkpt><trkpt lat="57.7715720795" lon="-5.0363982841"><ele>65.51</ele><time>2012-08-10T12:00:57Z</time></trkpt><trkpt lat="57.7730319556" lon="-5.0363188237"><ele>62.62</ele><time>2012-08-10T12:01:03Z</time></trkpt><trkpt lat="57.7739917673" lon="-5.0362417940"><ele>58.78</ele><time>2012-08-10T12:01:07Z</time></trkpt><trkpt lat="57.7752011083" lon="-5.0360372756"><ele>55.89</ele><time>2012-08-10T12:01:12Z</time></trkpt><trkpt lat="57.7754461952" lon="-5.0359944440"><ele>55.89</ele><time>2012-08-10T12:01:13Z</time></trkpt><trkpt lat="57.7761817910" lon="-5.0358771812"><ele>54.45</ele><time>2012-08-10T12:01:16Z</time></trkpt><trkpt lat="57.7776513062" lon="-5.0358454138"><ele>51.09</ele><time>2012-08-10T12:01:22Z</time></trkpt><trkpt lat="57.7792853583" lon="-5.0363032334"><ele>48.20</ele><time>2012-08-10T12:01:29Z</time></trkpt><trkpt lat="57.7824066114" lon="-5.0373785477"><ele>45.80</ele><time>2012-08-10T12:01:42Z</time></trkpt><trkpt lat="57.7838808205" lon="-5.0383908302"><ele>45.80</ele><time>2012-08-10T12:01:49Z</time></trkpt><trkpt lat="57.7856910601" lon="-5.0398715772"><ele>49.16</ele><time>2012-08-10T12:01:58Z</time></trkpt><trkpt lat="57.7873821091" lon="-5.0411352329"><ele>46.28</ele><time>2012-08-10T12:02:06Z</time></trkpt><trkpt lat="57.7876045648" lon="-5.0413160305"><ele>45.80</ele><time>2012-08-10T12:02:07Z</time></trkpt><trkpt lat="57.7884912863" lon="-5.0420540571"><ele>42.92</ele><time>2012-08-10T12:02:11Z</time></trkpt><trkpt lat="57.7887115628" lon="-5.0422421470"><ele>42.44</ele><time>2012-08-10T12:02:12Z</time></trkpt><trkpt lat="57.7900789026" lon="-5.0432312116"><ele>39.07</ele><time>2012-08-10T12:02:18Z</time></trkpt><trkpt lat="57.7911641914" lon="-5.0440767780"><ele>35.71</ele><time>2012-08-10T12:02:23Z</time></trkpt><trkpt lat="57.7926187031" lon="-5.0459641311"><ele>32.34</ele><time>2012-08-10T12:02:31Z</time></trkpt><trkpt lat="57.7934721485" lon="-5.0481798872"><ele>32.34</ele><time>2012-08-10T12:02:38Z</time></trkpt><trkpt lat="57.7936167363" lon="-5.0484631956"><ele>32.34</ele><time>2012-08-10T12:02:39Z</time></trkpt><trkpt lat="57.7937874757" lon="-5.0487243757"><ele>32.34</ele><time>2012-08-10T12:02:40Z</time></trkpt><trkpt lat="57.7939784992" lon="-5.0489697978"><ele>32.82</ele><time>2012-08-10T12:02:41Z</time></trkpt><trkpt lat="57.7941879630" lon="-5.0492036529"><ele>32.82</ele><time>2012-08-10T12:02:42Z</time></trkpt><trkpt lat="57.7972051967" lon="-5.0523577631"><ele>29.94</ele><time>2012-08-10T12:02:56Z</time></trkpt><trkpt lat="57.8000710532" lon="-5.0549129862"><ele>26.57</ele><time>2012-08-10T12:03:09Z</time></trkpt><trkpt lat="57.8019292373" lon="-5.0560063217"><ele>27.05</ele><time>2012-08-10T12:03:17Z</time></trkpt><trkpt lat="57.8033464495" lon="-5.0563819148"><ele>24.65</ele><time>2012-08-10T12:03:23Z</time></trkpt><trkpt lat="57.8038098011" lon="-5.0563321263"><ele>25.13</ele><time>2012-08-10T12:03:25Z</time></trkpt><trkpt lat="57.8040430695" lon="-5.0562571082"><ele>25.13</ele><time>2012-08-10T12:03:26Z</time></trkpt><trkpt lat="57.8049815912" lon="-5.0559743028"><ele>26.09</ele><time>2012-08-10T12:03:30Z</time></trkpt><trkpt lat="57.8054655623" lon="-5.0560146198"><ele>27.05</ele><time>2012-08-10T12:03:32Z</time></trkpt><trkpt lat="57.8059578314" lon="-5.0561650749"><ele>28.02</ele><time>2012-08-10T12:03:34Z</time></trkpt><trkpt lat="57.8068515938" lon="-5.0564907119"><ele>25.61</ele><time>2012-08-10T12:03:38Z</time></trkpt><trkpt lat="57.8096954897" lon="-5.0574619230"><ele>22.73</ele><time>2012-08-10T12:03:50Z</time></trkpt><trkpt lat="57.8109337483" lon="-5.0578843709"><ele>23.21</ele><time>2012-08-10T12:03:57Z</time></trkpt><trkpt lat="57.8116245847" lon="-5.0580899790"><ele>25.61</ele><time>2012-08-10T12:04:00Z</time></trkpt><trkpt lat="57.8120923787" lon="-5.0582281966"><ele>24.17</ele><time>2012-08-10T12:04:02Z</time></trkpt><trkpt lat="57.8140067216" lon="-5.0592795387"><ele>23.21</ele><time>2012-08-10T12:04:10Z</time></trkpt><trkpt lat="57.8142548259" lon="-5.0593334343"><ele>22.73</ele><time>2012-08-10T12:04:11Z</time></trkpt><trkpt lat="57.8145066183" lon="-5.0593165867"><ele>21.77</ele><time>2012-08-10T12:04:12Z</time></trkpt><trkpt lat="57.8159619682" lon="-5.0590726733"><ele>18.40</ele><time>2012-08-10T12:04:18Z</time></trkpt><trkpt lat="57.8161863517" lon="-5.0591010880"><ele>17.92</ele><time>2012-08-10T12:04:19Z</time></trkpt><trkpt lat="57.8164054547" lon="-5.0591803808"><ele>17.92</ele><time>2012-08-10T12:04:20Z</time></trkpt><trkpt lat="57.8166208696" lon="-5.0593146589"><ele>18.88</ele><time>2012-08-10T12:04:21Z</time></trkpt><trkpt lat="57.8168330155" lon="-5.0594998151"><ele>19.36</ele><time>2012-08-10T12:04:22Z</time></trkpt><trkpt lat="57.8170274757" lon="-5.0597375259"><ele>19.84</ele><time>2012-08-10T12:04:23Z</time></trkpt><trkpt lat="57.8172174934" lon="-5.0600013882"><ele>20.81</ele><time>2012-08-10T12:04:24Z</time></trkpt><trkpt lat="57.8177862894" lon="-5.0608467031"><ele>23.69</ele><time>2012-08-10T12:04:27Z</time></trkpt><trkpt lat="57.8179760557" lon="-5.0611333642"><ele>23.21</ele><time>2012-08-10T12:04:28Z</time></trkpt><trkpt lat="57.8185413312" lon="-5.0619360991"><ele>24.65</ele><time>2012-08-10T12:04:31Z</time></trkpt><trkpt lat="57.8187373001" lon="-5.0621530227"><ele>24.17</ele><time>2012-08-10T12:04:32Z</time></trkpt><trkpt lat="57.8189425729" lon="-5.0623198226"><ele>24.65</ele><time>2012-08-10T12:04:33Z</time></trkpt><trkpt lat="57.8191605862" lon="-5.0624492392"><ele>24.65</ele><time>2012-08-10T12:04:34Z</time></trkpt><trkpt lat="57.8193858080" lon="-5.0625566952"><ele>25.61</ele><time>2012-08-10T12:04:35Z</time></trkpt><trkpt lat="57.8196171485" lon="-5.0626449566"><ele>26.09</ele><time>2012-08-10T12:04:36Z</time></trkpt><trkpt lat="57.8207682353" lon="-5.0629640557"><ele>25.13</ele><time>2012-08-10T12:04:41Z</time></trkpt><trkpt lat="57.8225628007" lon="-5.0634007528"><ele>23.21</ele><time>2012-08-10T12:04:50Z</time></trkpt><trkpt lat="57.8245657403" lon="-5.0641008094"><ele>21.29</ele><time>2012-08-10T12:05:00Z</time></trkpt><trkpt lat="57.8253891785" lon="-5.0644482393"><ele>19.84</ele><time>2012-08-10T12:05:04Z</time></trkpt><trkpt lat="57.8279186692" lon="-5.0655156747"><ele>23.21</ele><time>2012-08-10T12:05:15Z</time></trkpt><trkpt lat="57.8284220863" lon="-5.0657709036"><ele>26.57</ele><time>2012-08-10T12:05:17Z</time></trkpt><trkpt lat="57.8291571792" lon="-5.0662872288"><ele>30.90</ele><time>2012-08-10T12:05:20Z</time></trkpt><trkpt lat="57.8300975449" lon="-5.0670937356"><ele>34.74</ele><time>2012-08-10T12:05:24Z</time></trkpt><trkpt lat="57.8326022252" lon="-5.0697456859"><ele>33.78</ele><time>2012-08-10T12:05:35Z</time></trkpt><trkpt lat="57.8349409439" lon="-5.0716724340"><ele>30.90</ele><time>2012-08-10T12:05:45Z</time></trkpt><trkpt lat="57.8360103071" lon="-5.0723421481"><ele>29.94</ele><time>2012-08-10T12:05:50Z</time></trkpt><trkpt lat="57.8377600294" lon="-5.0734555162"><ele>33.30</ele><time>2012-08-10T12:05:58Z</time></trkpt><trkpt lat="57.8392127808" lon="-5.0743787829"><ele>36.67</ele><time>2012-08-10T12:06:04Z</time></trkpt><trkpt lat="57.8423256520" lon="-5.0765128154"><ele>40.03</ele><time>2012-08-10T12:06:17Z</time></trkpt><trkpt lat="57.8432937618" lon="-5.0768200960"><ele>41.95</ele><time>2012-08-10T12:06:21Z</time></trkpt><trkpt lat="57.8458208218" lon="-5.0772143807"><ele>38.59</ele><time>2012-08-10T12:06:31Z</time></trkpt><trkpt lat="57.8485625423" lon="-5.0778328814"><ele>38.59</ele><time>2012-08-10T12:06:42Z</time></trkpt><trkpt lat="57.8499117773" lon="-5.0785553176"><ele>41.47</ele><time>2012-08-10T12:06:48Z</time></trkpt><trkpt lat="57.8508216329" lon="-5.0790615845"><ele>43.40</ele><time>2012-08-10T12:06:52Z</time></trkpt><trkpt lat="57.8514648601" lon="-5.0796526764"><ele>45.32</ele><time>2012-08-10T12:06:55Z</time></trkpt><trkpt lat="57.8520821035" lon="-5.0803649705"><ele>48.68</ele><time>2012-08-10T12:06:58Z</time></trkpt><trkpt lat="57.8528967407" lon="-5.0812873989"><ele>52.53</ele><time>2012-08-10T12:07:02Z</time></trkpt><trkpt lat="57.8537024092" lon="-5.0822828338"><ele>56.37</ele><time>2012-08-10T12:07:06Z</time></trkpt><trkpt lat="57.8544421121" lon="-5.0833868142"><ele>59.74</ele><time>2012-08-10T12:07:10Z</time></trkpt><trkpt lat="57.8553438373" lon="-5.0847239792"><ele>63.10</ele><time>2012-08-10T12:07:15Z</time></trkpt><trkpt lat="57.8556688875" lon="-5.0852905121"><ele>63.58</ele><time>2012-08-10T12:07:17Z</time></trkpt><trkpt lat="57.8558035847" lon="-5.0856100302"><ele>64.55</ele><time>2012-08-10T12:07:18Z</time></trkpt><trkpt lat="57.8561692033" lon="-5.0864998531"><ele>65.99</ele><time>2012-08-10T12:07:21Z</time></trkpt><trkpt lat="57.8563085105" lon="-5.0867332891"><ele>66.95</ele><time>2012-08-10T12:07:22Z</time></trkpt><trkpt lat="57.8564648330" lon="-5.0869382266"><ele>66.95</ele><time>2012-08-10T12:07:23Z</time></trkpt><trkpt lat="57.8566411044" lon="-5.0871085469"><ele>66.95</ele><time>2012-08-10T12:07:24Z</time></trkpt><trkpt lat="57.8568328824" lon="-5.0872380473"><ele>66.47</ele><time>2012-08-10T12:07:25Z</time></trkpt><trkpt lat="57.8570401669" lon="-5.0873171724"><ele>66.47</ele><time>2012-08-10T12:07:26Z</time></trkpt><trkpt lat="57.8572542407" lon="-5.0873558968"><ele>65.51</ele><time>2012-08-10T12:07:27Z</time></trkpt><trkpt lat="57.8574746847" lon="-5.0873693917"><ele>64.55</ele><time>2012-08-10T12:07:28Z</time></trkpt><trkpt lat="57.8581613302" lon="-5.0873962138"><ele>62.14</ele><time>2012-08-10T12:07:31Z</time></trkpt><trkpt lat="57.8588434495" lon="-5.0873637758"><ele>57.82</ele><time>2012-08-10T12:07:34Z</time></trkpt><trkpt lat="57.8592766263" lon="-5.0872201100"><ele>53.97</ele><time>2012-08-10T12:07:36Z</time></trkpt><trkpt lat="57.8599095438" lon="-5.0870275777"><ele>49.65</ele><time>2012-08-10T12:07:39Z</time></trkpt><trkpt lat="57.8607493266" lon="-5.0869876798"><ele>45.80</ele><time>2012-08-10T12:07:43Z</time></trkpt><trkpt lat="57.8609563597" lon="-5.0870575849"><ele>44.36</ele><time>2012-08-10T12:07:44Z</time></trkpt><trkpt lat="57.8611549269" lon="-5.0871600956"><ele>43.88</ele><time>2012-08-10T12:07:45Z</time></trkpt><trkpt lat="57.8613426816" lon="-5.0872869976"><ele>43.88</ele><time>2012-08-10T12:07:46Z</time></trkpt><trkpt lat="57.8615227249" lon="-5.0874322560"><ele>42.44</ele><time>2012-08-10T12:07:47Z</time></trkpt><trkpt lat="57.8620305844" lon="-5.0879179034"><ele>39.07</ele><time>2012-08-10T12:07:50Z</time></trkpt><trkpt lat="57.8625838738" lon="-5.0884732883"><ele>34.74</ele><time>2012-08-10T12:07:54Z</time></trkpt><trkpt lat="57.8637246508" lon="-5.0895803701"><ele>34.26</ele><time>2012-08-10T12:08:03Z</time></trkpt><trkpt lat="57.8638946358" lon="-5.0897783507"><ele>37.15</ele><time>2012-08-10T12:08:04Z</time></trkpt><trkpt lat="57.8640616871" lon="-5.0900012255"><ele>36.19</ele><time>2012-08-10T12:08:05Z</time></trkpt><trkpt lat="57.8653343953" lon="-5.0916665420"><ele>34.74</ele><time>2012-08-10T12:08:12Z</time></trkpt><trkpt lat="57.8673298750" lon="-5.0947625656"><ele>31.86</ele><time>2012-08-10T12:08:24Z</time></trkpt><trkpt lat="57.8676701803" lon="-5.0952089019"><ele>29.94</ele><time>2012-08-10T12:08:26Z</time></trkpt><trkpt lat="57.8678544145" lon="-5.0953602791"><ele>29.94</ele><time>2012-08-10T12:08:27Z</time></trkpt><trkpt lat="57.8680554964" lon="-5.0954567548"><ele>31.86</ele><time>2012-08-10T12:08:28Z</time></trkpt><trkpt lat="57.8682688158" lon="-5.0955185294"><ele>32.34</ele><time>2012-08-10T12:08:29Z</time></trkpt><trkpt lat="57.8684935346" lon="-5.0955539849"><ele>33.78</ele><time>2012-08-10T12:08:30Z</time></trkpt><trkpt lat="57.8691723850" lon="-5.0956274103"><ele>37.15</ele><time>2012-08-10T12:08:33Z</time></trkpt><trkpt lat="57.8698015306" lon="-5.0957591739"><ele>40.03</ele><time>2012-08-10T12:08:36Z</time></trkpt><trkpt lat="57.8700004332" lon="-5.0958520453"><ele>41.95</ele><time>2012-08-10T12:08:37Z</time></trkpt><trkpt lat="57.8701935522" lon="-5.0959723257"><ele>42.92</ele><time>2012-08-10T12:08:38Z</time></trkpt><trkpt lat="57.8703790437" lon="-5.0961175002"><ele>43.88</ele><time>2012-08-10T12:08:39Z</time></trkpt><trkpt lat="57.8705590032" lon="-5.0962925144"><ele>44.84</ele><time>2012-08-10T12:08:40Z</time></trkpt><trkpt lat="57.8707360290" lon="-5.0964966975"><ele>45.80</ele><time>2012-08-10T12:08:41Z</time></trkpt><trkpt lat="57.8715067450" lon="-5.0978443399"><ele>48.68</ele><time>2012-08-10T12:08:46Z</time></trkpt><trkpt lat="57.8724801354" lon="-5.1000999939"><ele>47.72</ele><time>2012-08-10T12:08:53Z</time></trkpt><trkpt lat="57.8730786871" lon="-5.1015124284"><ele>44.36</ele><time>2012-08-10T12:08:58Z</time></trkpt><trkpt lat="57.8735130373" lon="-5.1026979648"><ele>47.72</ele><time>2012-08-10T12:09:02Z</time></trkpt><trkpt lat="57.8739937395" lon="-5.1041405741"><ele>45.32</ele><time>2012-08-10T12:09:06Z</time></trkpt><trkpt lat="57.8757845331" lon="-5.1094880607"><ele>41.95</ele><time>2012-08-10T12:09:21Z</time></trkpt><trkpt lat="57.8776797652" lon="-5.1150725037"><ele>40.99</ele><time>2012-08-10T12:09:37Z</time></trkpt><trkpt lat="57.8779396880" lon="-5.1157807745"><ele>40.51</ele><time>2012-08-10T12:09:39Z</time></trkpt><trkpt lat="57.8795155697" lon="-5.1201391965"><ele>40.03</ele><time>2012-08-10T12:09:51Z</time></trkpt><trkpt lat="57.8799050767" lon="-5.1212031953"><ele>41.47</ele><time>2012-08-10T12:09:54Z</time></trkpt><trkpt lat="57.8806370683" lon="-5.1232745312"><ele>45.32</ele><time>2012-08-10T12:10:00Z</time></trkpt><trkpt lat="57.8809652198" lon="-5.1238698140"><ele>49.16</ele><time>2012-08-10T12:10:02Z</time></trkpt><trkpt lat="57.8814781923" lon="-5.1246617362"><ele>52.53</ele><time>2012-08-10T12:10:05Z</time></trkpt><trkpt lat="57.8829262499" lon="-5.1272434462"><ele>53.49</ele><time>2012-08-10T12:10:14Z</time></trkpt><trkpt lat="57.8839262947" lon="-5.1288013067"><ele>49.16</ele><time>2012-08-10T12:10:20Z</time></trkpt><trkpt lat="57.8844958451" lon="-5.1295264252"><ele>47.24</ele><time>2012-08-10T12:10:23Z</time></trkpt><trkpt lat="57.8854306787" lon="-5.1309318189"><ele>48.20</ele><time>2012-08-10T12:10:29Z</time></trkpt><trkpt lat="57.8855540603" lon="-5.1312184799"><ele>48.20</ele><time>2012-08-10T12:10:30Z</time></trkpt><trkpt lat="57.8856688924" lon="-5.1315229945"><ele>47.72</ele><time>2012-08-10T12:10:31Z</time></trkpt><trkpt lat="57.8859749995" lon="-5.1324517094"><ele>44.36</ele><time>2012-08-10T12:10:34Z</time></trkpt><trkpt lat="57.8861459065" lon="-5.1330527756"><ele>40.99</ele><time>2012-08-10T12:10:36Z</time></trkpt><trkpt lat="57.8863265365" lon="-5.1336097531"><ele>37.15</ele><time>2012-08-10T12:10:38Z</time></trkpt><trkpt lat="57.8864409495" lon="-5.1338584442"><ele>37.15</ele><time>2012-08-10T12:10:39Z</time></trkpt><trkpt lat="57.8865786642" lon="-5.1340897009"><ele>35.71</ele><time>2012-08-10T12:10:40Z</time></trkpt><trkpt lat="57.8867277782" lon="-5.1343143359"><ele>35.71</ele><time>2012-08-10T12:10:41Z</time></trkpt><trkpt lat="57.8868917283" lon="-5.1345287450"><ele>34.26</ele><time>2012-08-10T12:10:42Z</time></trkpt><trkpt lat="57.8870419320" lon="-5.1347071957"><ele>34.26</ele><time>2012-08-10T12:10:43Z</time></trkpt><trkpt lat="57.8881213535" lon="-5.1355929114"><ele>33.30</ele><time>2012-08-10T12:10:49Z</time></trkpt><trkpt lat="57.8882797714" lon="-5.1357591245"><ele>33.78</ele><time>2012-08-10T12:10:50Z</time></trkpt><trkpt lat="57.8884242754" lon="-5.1359515730"><ele>34.74</ele><time>2012-08-10T12:10:51Z</time></trkpt><trkpt lat="57.8885542788" lon="-5.1361723524"><ele>35.71</ele><time>2012-08-10T12:10:52Z</time></trkpt><trkpt lat="57.8886696137" lon="-5.1364207081"><ele>37.63</ele><time>2012-08-10T12:10:53Z</time></trkpt><trkpt lat="57.8887763154" lon="-5.1366838161"><ele>39.07</ele><time>2012-08-10T12:10:54Z</time></trkpt><trkpt lat="57.8888705280" lon="-5.1369400509"><ele>40.51</ele><time>2012-08-10T12:10:55Z</time></trkpt><trkpt lat="57.8893421777" lon="-5.1380127668"><ele>42.92</ele><time>2012-08-10T12:11:00Z</time></trkpt><trkpt lat="57.8894622903" lon="-5.1381725259"><ele>43.40</ele><time>2012-08-10T12:11:01Z</time></trkpt><trkpt lat="57.8895915393" lon="-5.1383021101"><ele>43.40</ele><time>2012-08-10T12:11:02Z</time></trkpt><trkpt lat="57.8902346827" lon="-5.1389191858"><ele>39.55</ele><time>2012-08-10T12:11:07Z</time></trkpt><trkpt lat="57.8912423551" lon="-5.1405109931"><ele>41.95</ele><time>2012-08-10T12:11:16Z</time></trkpt><trkpt lat="57.8915752005" lon="-5.1412059367"><ele>46.28</ele><time>2012-08-10T12:11:19Z</time></trkpt><trkpt lat="57.8916944750" lon="-5.1414207648"><ele>47.72</ele><time>2012-08-10T12:11:20Z</time></trkpt><trkpt lat="57.8918238916" lon="-5.1416113693"><ele>48.68</ele><time>2012-08-10T12:11:21Z</time></trkpt><trkpt lat="57.8919662163" lon="-5.1417605672"><ele>49.65</ele><time>2012-08-10T12:11:22Z</time></trkpt><trkpt lat="57.8921161685" lon="-5.1418776624"><ele>49.65</ele><time>2012-08-10T12:11:23Z</time></trkpt><trkpt lat="57.8922713175" lon="-5.1419652533"><ele>49.65</ele><time>2012-08-10T12:11:24Z</time></trkpt><trkpt lat="57.8937116638" lon="-5.1427176129"><ele>46.76</ele><time>2012-08-10T12:11:33Z</time></trkpt><trkpt lat="57.8938635439" lon="-5.1428653859"><ele>46.28</ele><time>2012-08-10T12:11:34Z</time></trkpt><trkpt lat="57.8942940384" lon="-5.1433807053"><ele>42.44</ele><time>2012-08-10T12:11:37Z</time></trkpt><trkpt lat="57.8948578890" lon="-5.1443892159"><ele>37.63</ele><time>2012-08-10T12:11:42Z</time></trkpt><trkpt lat="57.8949467372" lon="-5.1445912197"><ele>35.71</ele><time>2012-08-10T12:11:43Z</time></trkpt><trkpt lat="57.8950901516" lon="-5.1450068783"><ele>32.82</ele><time>2012-08-10T12:11:45Z</time></trkpt><trkpt lat="57.8952955920" lon="-5.1459325757"><ele>28.50</ele><time>2012-08-10T12:11:49Z</time></trkpt><trkpt lat="57.8955114260" lon="-5.1469271723"><ele>25.13</ele><time>2012-08-10T12:11:53Z</time></trkpt><trkpt lat="57.8960944712" lon="-5.1495603472"><ele>21.29</ele><time>2012-08-10T12:12:04Z</time></trkpt><trkpt lat="57.8961704113" lon="-5.1497687213"><ele>21.29</ele><time>2012-08-10T12:12:05Z</time></trkpt><trkpt lat="57.8962564934" lon="-5.1499652769"><ele>21.29</ele><time>2012-08-10T12:12:06Z</time></trkpt><trkpt lat="57.8966906760" lon="-5.1509031281"><ele>16.96</ele><time>2012-08-10T12:12:11Z</time></trkpt><trkpt lat="57.8967512771" lon="-5.1511179563"><ele>15.52</ele><time>2012-08-10T12:12:12Z</time></trkpt><trkpt lat="57.8967979643" lon="-5.1513442677"><ele>15.04</ele><time>2012-08-10T12:12:13Z</time></trkpt><trkpt lat="57.8968288098" lon="-5.1515715849"><ele>13.60</ele><time>2012-08-10T12:12:14Z</time></trkpt><trkpt lat="57.8968504351" lon="-5.1517916098"><ele>13.60</ele><time>2012-08-10T12:12:15Z</time></trkpt><trkpt lat="57.8968602419" lon="-5.1520036720"><ele>12.15</ele><time>2012-08-10T12:12:16Z</time></trkpt><trkpt lat="57.8968590684" lon="-5.1522054244"><ele>12.15</ele><time>2012-08-10T12:12:17Z</time></trkpt><trkpt lat="57.8967301548" lon="-5.1536310185"><ele>10.23</ele><time>2012-08-10T12:12:26Z</time></trkpt><trkpt lat="57.8965967987" lon="-5.1547727175"><ele>8.79</ele><time>2012-08-10T12:12:36Z</time></trkpt><trkpt lat="57.8965321742" lon="-5.1552623045"><ele>9.75</ele><time>2012-08-10T12:12:42Z</time></trkpt><trkpt lat="57.8965106327" lon="-5.1553721074"><ele>9.27</ele><time>2012-08-10T12:12:43Z</time></trkpt><trkpt lat="57.8961298428" lon="-5.1571173873"><ele>9.27</ele><time>2012-08-10T12:12:57Z</time></trkpt><trkpt lat="57.8957393300" lon="-5.1589951850"><ele>9.27</ele><time>2012-08-10T12:13:12Z</time></trkpt><trkpt lat="57.8957032040" lon="-5.1592069957"><ele>9.27</ele><time>2012-08-10T12:13:14Z</time></trkpt><trkpt lat="57.8956852667" lon="-5.1593050640"><ele>9.75</ele><time>2012-08-10T12:13:15Z</time></trkpt><trkpt lat="57.8952996992" lon="-5.1604487747"><ele>8.79</ele><time>2012-08-10T12:13:28Z</time></trkpt><trkpt lat="57.8952404391" lon="-5.1605932787"><ele>8.31</ele><time>2012-08-10T12:13:30Z</time></trkpt><trkpt lat="57.8952070791" lon="-5.1606708113"><ele>8.31</ele><time>2012-08-10T12:13:31Z</time></trkpt><trkpt lat="57.8947546240" lon="-5.1618219819"><ele>7.35</ele><time>2012-08-10T12:13:42Z</time></trkpt><trkpt lat="57.8946596570" lon="-5.1620981656"><ele>8.79</ele><time>2012-08-10T12:13:47Z</time></trkpt><trkpt lat="57.8946718946" lon="-5.1621261612"><ele>8.31</ele><time>2012-08-10T12:13:48Z</time></trkpt><trkpt lat="57.8946919274" lon="-5.1621313579"><ele>8.31</ele><time>2012-08-10T12:13:49Z</time></trkpt><trkpt lat="57.8947109543" lon="-5.1621032786"><ele>8.79</ele><time>2012-08-10T12:13:50Z</time></trkpt><trkpt lat="57.8947231919" lon="-5.1620499697"><ele>8.79</ele><time>2012-08-10T12:13:51Z</time></trkpt><trkpt lat="57.8947337531" lon="-5.1619828306"><ele>7.83</ele><time>2012-08-10T12:13:52Z</time></trkpt><trkpt lat="57.8947486728" lon="-5.1619043760"><ele>7.83</ele><time>2012-08-10T12:13:53Z</time></trkpt><trkpt lat="57.8951142076" lon="-5.1609541196"><ele>8.79</ele><time>2012-08-10T12:14:03Z</time></trkpt><trkpt lat="57.8952153772" lon="-5.1607079431"><ele>8.31</ele><time>2012-08-10T12:14:06Z</time></trkpt><trkpt lat="57.8952414449" lon="-5.1606622618"><ele>8.31</ele><time>2012-08-10T12:14:07Z</time></trkpt><trkpt lat="57.8955318779" lon="-5.1600132510"><ele>8.31</ele><time>2012-08-10T12:14:18Z</time></trkpt><trkpt lat="57.8957133461" lon="-5.1593882963"><ele>8.79</ele><time>2012-08-10T12:14:28Z</time></trkpt><trkpt lat="57.8957143519" lon="-5.1593776513"><ele>8.79</ele><time>2012-08-10T12:14:40Z</time></trkpt><trkpt lat="57.8957187105" lon="-5.1593843568"><ele>7.83</ele><time>2012-08-10T12:15:08Z</time></trkpt><trkpt lat="57.8957156092" lon="-5.1593968458"><ele>7.83</ele><time>2012-08-10T12:15:36Z</time></trkpt><trkpt lat="57.8957173694" lon="-5.1594022941"><ele>7.83</ele><time>2012-08-10T12:15:59Z</time></trkpt><trkpt lat="57.8957146872" lon="-5.1593986060"><ele>-3.71</ele><time>2012-08-10T12:16:12Z</time></trkpt><trkpt lat="57.8957158606" lon="-5.1594016235"><ele>14.08</ele><time>2012-08-10T12:16:13Z</time></trkpt><trkpt lat="57.8957177885" lon="-5.1594042219"><ele>12.63</ele><time>2012-08-10T12:16:14Z</time></trkpt><trkpt lat="57.8957178723" lon="-5.1594039705"><ele>8.79</ele><time>2012-08-10T12:16:15Z</time></trkpt><trkpt lat="57.8957074787" lon="-5.1594224945"><ele>8.31</ele><time>2012-08-10T12:16:28Z</time></trkpt><trkpt lat="57.8957125917" lon="-5.1594681758"><ele>8.31</ele><time>2012-08-10T12:16:44Z</time></trkpt><trkpt lat="57.8956897091" lon="-5.1595340576"><ele>8.31</ele><time>2012-08-10T12:16:50Z</time></trkpt><trkpt lat="57.8956846800" lon="-5.1595540904"><ele>8.31</ele><time>2012-08-10T12:16:51Z</time></trkpt><trkpt lat="57.8956300300" lon="-5.1597246621"><ele>8.79</ele><time>2012-08-10T12:17:03Z</time></trkpt><trkpt lat="57.8956612106" lon="-5.1598530728"><ele>8.31</ele><time>2012-08-10T12:17:15Z</time></trkpt><trkpt lat="57.8956476320" lon="-5.1598838344"><ele>8.31</ele><time>2012-08-10T12:17:28Z</time></trkpt><trkpt lat="57.8956600372" lon="-5.1599128358"><ele>8.31</ele><time>2012-08-10T12:17:32Z</time></trkpt><trkpt lat="57.8956643119" lon="-5.1599948946"><ele>8.79</ele><time>2012-08-10T12:17:45Z</time></trkpt><trkpt lat="57.8956329636" lon="-5.1600952260"><ele>8.79</ele><time>2012-08-10T12:18:03Z</time></trkpt><trkpt lat="57.8956446145" lon="-5.1601834875"><ele>8.31</ele><time>2012-08-10T12:18:25Z</time></trkpt><trkpt lat="57.8957156930" lon="-5.1601444278"><ele>8.79</ele><time>2012-08-10T12:18:37Z</time></trkpt><trkpt lat="57.8957328759" lon="-5.1601380575"><ele>10.23</ele><time>2012-08-10T12:18:46Z</time></trkpt><trkpt lat="57.8957657330" lon="-5.1601228025"><ele>10.23</ele><time>2012-08-10T12:19:11Z</time></trkpt><trkpt lat="57.8957623802" lon="-5.1600932982"><ele>10.23</ele><time>2012-08-10T12:19:39Z</time></trkpt><trkpt lat="57.8957404196" lon="-5.1601269096"><ele>10.23</ele><time>2012-08-10T12:20:04Z</time></trkpt><trkpt lat="57.8957383242" lon="-5.1601291727"><ele>10.23</ele><time>2012-08-10T12:20:27Z</time></trkpt><trkpt lat="57.8957339656" lon="-5.1601254009"><ele>10.23</ele><time>2012-08-10T12:20:56Z</time></trkpt><trkpt lat="57.8957047965" lon="-5.1601336151"><ele>9.75</ele><time>2012-08-10T12:21:15Z</time></trkpt><trkpt lat="57.8957058862" lon="-5.1601471100"><ele>10.71</ele><time>2012-08-10T12:21:36Z</time></trkpt><trkpt lat="57.8957078140" lon="-5.1601455174"><ele>10.23</ele><time>2012-08-10T12:22:03Z</time></trkpt><trkpt lat="57.8957185429" lon="-5.1601482835"><ele>10.23</ele><time>2012-08-10T12:22:30Z</time></trkpt><trkpt lat="57.8957203031" lon="-5.1601429190"><ele>11.19</ele><time>2012-08-10T12:22:49Z</time></trkpt><trkpt lat="57.8957627993" lon="-5.1601151749"><ele>11.19</ele><time>2012-08-10T12:23:07Z</time></trkpt><trkpt lat="57.8957796469" lon="-5.1601077989"><ele>12.15</ele><time>2012-08-10T12:23:27Z</time></trkpt><trkpt lat="57.8957762104" lon="-5.1601116545"><ele>11.67</ele><time>2012-08-10T12:23:48Z</time></trkpt><trkpt lat="57.8957887832" lon="-5.1601085532"><ele>11.67</ele><time>2012-08-10T12:24:15Z</time></trkpt><trkpt lat="57.8957851790" lon="-5.1601044461"><ele>11.67</ele><time>2012-08-10T12:24:38Z</time></trkpt><trkpt lat="57.8957908787" lon="-5.1601089723"><ele>11.19</ele><time>2012-08-10T12:25:11Z</time></trkpt><trkpt lat="57.8958137613" lon="-5.1600440126"><ele>12.15</ele><time>2012-08-10T12:25:43Z</time></trkpt><trkpt lat="57.8957539145" lon="-5.1599282585"><ele>12.15</ele><time>2012-08-10T12:26:15Z</time></trkpt><trkpt lat="57.8957963269" lon="-5.1601021830"><ele>12.15</ele><time>2012-08-10T12:26:37Z</time></trkpt><trkpt lat="57.8957982548" lon="-5.1600594353"><ele>12.15</ele><time>2012-08-10T12:26:47Z</time></trkpt><trkpt lat="57.8958861809" lon="-5.1601730939"><ele>13.60</ele><time>2012-08-10T12:27:00Z</time></trkpt><trkpt lat="57.8959902003" lon="-5.1603148319"><ele>15.52</ele><time>2012-08-10T12:27:15Z</time></trkpt><trkpt lat="57.8960120771" lon="-5.1603678055"><ele>15.52</ele><time>2012-08-10T12:27:20Z</time></trkpt><trkpt lat="57.8960268293" lon="-5.1605091244"><ele>16.00</ele><time>2012-08-10T12:27:29Z</time></trkpt><trkpt lat="57.8960088082" lon="-5.1607322507"><ele>16.00</ele><time>2012-08-10T12:27:42Z</time></trkpt><trkpt lat="57.8959899489" lon="-5.1608977932"><ele>16.48</ele><time>2012-08-10T12:27:53Z</time></trkpt><trkpt lat="57.8959591873" lon="-5.1609305665"><ele>16.48</ele><time>2012-08-10T12:27:57Z</time></trkpt><trkpt lat="57.8959475365" lon="-5.1610673591"><ele>16.00</ele><time>2012-08-10T12:28:11Z</time></trkpt><trkpt lat="57.8959738556" lon="-5.1609946042"><ele>16.00</ele><time>2012-08-10T12:28:20Z</time></trkpt><trkpt lat="57.8960007615" lon="-5.1609114558"><ele>15.52</ele><time>2012-08-10T12:28:34Z</time></trkpt><trkpt lat="57.8960581776" lon="-5.1607122179"><ele>16.48</ele><time>2012-08-10T12:28:45Z</time></trkpt><trkpt lat="57.8960046172" lon="-5.1604817156"><ele>16.00</ele><time>2012-08-10T12:28:57Z</time></trkpt><trkpt lat="57.8960075509" lon="-5.1604053564"><ele>16.00</ele><time>2012-08-10T12:29:02Z</time></trkpt><trkpt lat="57.8959793877" lon="-5.1603105571"><ele>15.04</ele><time>2012-08-10T12:29:09Z</time></trkpt><trkpt lat="57.8958691657" lon="-5.1601855829"><ele>12.63</ele><time>2012-08-10T12:29:23Z</time></trkpt><trkpt lat="57.8958152700" lon="-5.1600827370"><ele>12.15</ele><time>2012-08-10T12:29:31Z</time></trkpt><trkpt lat="57.8957229014" lon="-5.1599157695"><ele>10.71</ele><time>2012-08-10T12:29:44Z</time></trkpt><trkpt lat="57.8956653178" lon="-5.1597388275"><ele>10.71</ele><time>2012-08-10T12:29:53Z</time></trkpt><trkpt lat="57.8956992645" lon="-5.1594520826"><ele>10.23</ele><time>2012-08-10T12:30:06Z</time></trkpt><trkpt lat="57.8957036231" lon="-5.1594483107"><ele>10.71</ele><time>2012-08-10T12:30:07Z</time></trkpt><trkpt lat="57.8957147710" lon="-5.1593998633"><ele>6.39</ele><time>2012-08-10T12:30:13Z</time></trkpt><trkpt lat="57.8957125917" lon="-5.1593983546"><ele>6.87</ele><time>2012-08-10T12:30:14Z</time></trkpt><trkpt lat="57.8957102448" lon="-5.1593925711"><ele>16.48</ele><time>2012-08-10T12:30:15Z</time></trkpt><trkpt lat="57.8957089875" lon="-5.1593838539"><ele>10.71</ele><time>2012-08-10T12:30:16Z</time></trkpt><trkpt lat="57.8957275953" lon="-5.1594157051"><ele>11.19</ele><time>2012-08-10T12:30:50Z</time></trkpt><trkpt lat="57.8957200516" lon="-5.1594058145"><ele>11.19</ele><time>2012-08-10T12:31:20Z</time></trkpt><trkpt lat="57.8957259189" lon="-5.1593964268"><ele>11.67</ele><time>2012-08-10T12:31:51Z</time></trkpt><trkpt lat="57.8957345523" lon="-5.1593903918"><ele>10.71</ele><time>2012-08-10T12:32:23Z</time></trkpt><trkpt lat="57.8957484663" lon="-5.1594155375"><ele>11.19</ele><time>2012-08-10T12:32:49Z</time></trkpt><trkpt lat="57.8957503941" lon="-5.1594301220"><ele>10.71</ele><time>2012-08-10T12:33:18Z</time></trkpt><trkpt lat="57.8957565129" lon="-5.1594126038"><ele>10.71</ele><time>2012-08-10T12:33:43Z</time></trkpt><trkpt lat="57.8957404196" lon="-5.1593862008"><ele>11.19</ele><time>2012-08-10T12:34:15Z</time></trkpt><trkpt lat="57.8957362287" lon="-5.1593773998"><ele>11.19</ele><time>2012-08-10T12:34:44Z</time></trkpt><trkpt lat="57.8957222309" lon="-5.1593814231"><ele>11.67</ele><time>2012-08-10T12:35:10Z</time></trkpt><trkpt lat="57.8957122564" lon="-5.1593955047"><ele>10.71</ele><time>2012-08-10T12:35:39Z</time></trkpt><trkpt lat="57.8957070597" lon="-5.1593848597"><ele>11.19</ele><time>2012-08-10T12:36:01Z</time></trkpt><trkpt lat="57.8957250807" lon="-5.1593755558"><ele>11.19</ele><time>2012-08-10T12:36:18Z</time></trkpt><trkpt lat="57.8957344685" lon="-5.1594017912"><ele>11.19</ele><time>2012-08-10T12:36:40Z</time></trkpt><trkpt lat="57.8957400005" lon="-5.1594121009"><ele>10.71</ele><time>2012-08-10T12:36:59Z</time></trkpt><trkpt lat="57.8957379051" lon="-5.1594072394"><ele>11.67</ele><time>2012-08-10T12:37:17Z</time></trkpt><trkpt lat="57.8957269248" lon="-5.1593818422"><ele>11.67</ele><time>2012-08-10T12:37:35Z</time></trkpt><trkpt lat="57.8957601171" lon="-5.1594038028"><ele>10.71</ele><time>2012-08-10T12:37:58Z</time></trkpt><trkpt lat="57.8957524896" lon="-5.1593844406"><ele>11.19</ele><time>2012-08-10T12:38:09Z</time></trkpt><trkpt lat="57.8958282620" lon="-5.1588392816"><ele>10.23</ele><time>2012-08-10T12:38:17Z</time></trkpt><trkpt lat="57.8959460277" lon="-5.1582149975"><ele>11.67</ele><time>2012-08-10T12:38:24Z</time></trkpt><trkpt lat="57.8962647077" lon="-5.1566653512"><ele>11.19</ele><time>2012-08-10T12:38:36Z</time></trkpt><trkpt lat="57.8966104612" lon="-5.1549455523"><ele>12.63</ele><time>2012-08-10T12:38:47Z</time></trkpt><trkpt lat="57.8966506943" lon="-5.1546661835"><ele>12.63</ele><time>2012-08-10T12:38:51Z</time></trkpt><trkpt lat="57.8966595791" lon="-5.1545474119"><ele>13.12</ele><time>2012-08-10T12:38:52Z</time></trkpt><trkpt lat="57.8967330884" lon="-5.1538398117"><ele>11.67</ele><time>2012-08-10T12:38:59Z</time></trkpt><trkpt lat="57.8967513610" lon="-5.1538118999"><ele>12.15</ele><time>2012-08-10T12:39:00Z</time></trkpt><trkpt lat="57.8968899976" lon="-5.1536391489"><ele>12.63</ele><time>2012-08-10T12:39:09Z</time></trkpt><trkpt lat="57.8968772572" lon="-5.1536146738"><ele>12.15</ele><time>2012-08-10T12:39:43Z</time></trkpt><trkpt lat="57.8968360182" lon="-5.1536057051"><ele>11.67</ele><time>2012-08-10T12:40:18Z</time></trkpt><trkpt lat="57.8969107009" lon="-5.1536782924"><ele>11.67</ele><time>2012-08-10T12:40:54Z</time></trkpt><trkpt lat="57.8968762513" lon="-5.1536529791"><ele>11.67</ele><time>2012-08-10T12:41:34Z</time></trkpt><trkpt lat="57.8968682047" lon="-5.1536447648"><ele>11.67</ele><time>2012-08-10T12:42:08Z</time></trkpt><trkpt lat="57.8968749102" lon="-5.1536694076"><ele>10.71</ele><time>2012-08-10T12:42:38Z</time></trkpt><trkpt lat="57.8968519438" lon="-5.1536765322"><ele>10.71</ele><time>2012-08-10T12:42:53Z</time></trkpt><trkpt lat="57.8968129680" lon="-5.1536778733"><ele>10.71</ele><time>2012-08-10T12:42:55Z</time></trkpt><trkpt lat="57.8967929352" lon="-5.1536946371"><ele>11.19</ele><time>2012-08-10T12:42:56Z</time></trkpt><trkpt lat="57.8967123851" lon="-5.1538083795"><ele>10.71</ele><time>2012-08-10T12:43:01Z</time></trkpt><trkpt lat="57.8966966271" lon="-5.1539188530"><ele>10.71</ele><time>2012-08-10T12:43:02Z</time></trkpt><trkpt lat="57.8966855630" lon="-5.1540507842"><ele>11.19</ele><time>2012-08-10T12:43:03Z</time></trkpt><trkpt lat="57.8966328409" lon="-5.1546256989"><ele>11.19</ele><time>2012-08-10T12:43:07Z</time></trkpt><trkpt lat="57.8966340981" lon="-5.1547557022"><ele>12.15</ele><time>2012-08-10T12:43:08Z</time></trkpt><trkpt lat="57.8966558073" lon="-5.1548716240"><ele>12.15</ele><time>2012-08-10T12:43:09Z</time></trkpt><trkpt lat="57.8967005666" lon="-5.1549688540"><ele>12.63</ele><time>2012-08-10T12:43:10Z</time></trkpt><trkpt lat="57.8967651073" lon="-5.1550409384"><ele>14.56</ele><time>2012-08-10T12:43:11Z</time></trkpt><trkpt lat="57.8968424723" lon="-5.1551002823"><ele>14.56</ele><time>2012-08-10T12:43:12Z</time></trkpt><trkpt lat="57.8971839510" lon="-5.1553316228"><ele>16.96</ele><time>2012-08-10T12:43:16Z</time></trkpt><trkpt lat="57.8981715068" lon="-5.1561545581"><ele>18.88</ele><time>2012-08-10T12:43:28Z</time></trkpt><trkpt lat="57.8991214279" lon="-5.1569596399"><ele>22.25</ele><time>2012-08-10T12:43:39Z</time></trkpt><trkpt lat="57.9001500551" lon="-5.1572306268"><ele>24.65</ele><time>2012-08-10T12:43:48Z</time></trkpt><trkpt lat="57.9014803469" lon="-5.1574406773"><ele>26.09</ele><time>2012-08-10T12:43:59Z</time></trkpt><trkpt lat="57.9022628814" lon="-5.1580038574"><ele>29.46</ele><time>2012-08-10T12:44:05Z</time></trkpt><trkpt lat="57.9029082879" lon="-5.1584221981"><ele>29.94</ele><time>2012-08-10T12:44:10Z</time></trkpt><trkpt lat="57.9030442424" lon="-5.1584594976"><ele>30.42</ele><time>2012-08-10T12:44:11Z</time></trkpt><trkpt lat="57.9031815380" lon="-5.1584763452"><ele>30.42</ele><time>2012-08-10T12:44:12Z</time></trkpt><trkpt lat="57.9037406109" lon="-5.1585803647"><ele>31.86</ele><time>2012-08-10T12:44:16Z</time></trkpt><trkpt lat="57.9040050600" lon="-5.1587438118"><ele>31.38</ele><time>2012-08-10T12:44:18Z</time></trkpt><trkpt lat="57.9041311238" lon="-5.1588672772"><ele>31.86</ele><time>2012-08-10T12:44:19Z</time></trkpt><trkpt lat="57.9042532481" lon="-5.1590162236"><ele>32.82</ele><time>2012-08-10T12:44:20Z</time></trkpt><trkpt lat="57.9043710139" lon="-5.1591826044"><ele>32.82</ele><time>2012-08-10T12:44:21Z</time></trkpt><trkpt lat="57.9044793919" lon="-5.1593674254"><ele>32.34</ele><time>2012-08-10T12:44:22Z</time></trkpt><trkpt lat="57.9045653064" lon="-5.1595246699"><ele>32.82</ele><time>2012-08-10T12:44:23Z</time></trkpt><trkpt lat="57.9046689905" lon="-5.1597991772"><ele>32.34</ele><time>2012-08-10T12:44:24Z</time></trkpt><trkpt lat="57.9047490377" lon="-5.1600397378"><ele>31.86</ele><time>2012-08-10T12:44:25Z</time></trkpt><trkpt lat="57.9056193307" lon="-5.1632118691"><ele>30.42</ele><time>2012-08-10T12:44:38Z</time></trkpt><trkpt lat="57.9065663181" lon="-5.1667180192"><ele>34.26</ele><time>2012-08-10T12:44:51Z</time></trkpt><trkpt lat="57.9067519773" lon="-5.1673775073"><ele>35.23</ele><time>2012-08-10T12:44:53Z</time></trkpt><trkpt lat="57.9071420711" lon="-5.1687075477"><ele>39.07</ele><time>2012-08-10T12:44:57Z</time></trkpt><trkpt lat="57.9075273033" lon="-5.1700409409"><ele>42.92</ele><time>2012-08-10T12:45:01Z</time></trkpt><trkpt lat="57.9075817857" lon="-5.1703915559"><ele>42.92</ele><time>2012-08-10T12:45:02Z</time></trkpt><trkpt lat="57.9076012317" lon="-5.1707496308"><ele>42.92</ele><time>2012-08-10T12:45:03Z</time></trkpt><trkpt lat="57.9076004773" lon="-5.1714716479"><ele>46.28</ele><time>2012-08-10T12:45:05Z</time></trkpt><trkpt lat="57.9076267965" lon="-5.1726098265"><ele>50.13</ele><time>2012-08-10T12:45:08Z</time></trkpt><trkpt lat="57.9078750685" lon="-5.1744214073"><ele>53.97</ele><time>2012-08-10T12:45:13Z</time></trkpt><trkpt lat="57.9079568759" lon="-5.1747559290"><ele>53.97</ele><time>2012-08-10T12:45:14Z</time></trkpt><trkpt lat="57.9081461392" lon="-5.1753770281"><ele>53.01</ele><time>2012-08-10T12:45:16Z</time></trkpt><trkpt lat="57.9082652461" lon="-5.1756512839"><ele>53.01</ele><time>2012-08-10T12:45:17Z</time></trkpt><trkpt lat="57.9091347847" lon="-5.1772508025"><ele>56.37</ele><time>2012-08-10T12:45:23Z</time></trkpt><trkpt lat="57.9096038360" lon="-5.1781912521"><ele>59.26</ele><time>2012-08-10T12:45:26Z</time></trkpt><trkpt lat="57.9100718815" lon="-5.1791233197"><ele>62.62</ele><time>2012-08-10T12:45:29Z</time></trkpt><trkpt lat="57.9103789944" lon="-5.1797223743"><ele>66.47</ele><time>2012-08-10T12:45:31Z</time></trkpt><trkpt lat="57.9106892087" lon="-5.1802986301"><ele>69.83</ele><time>2012-08-10T12:45:33Z</time></trkpt><trkpt lat="57.9111799691" lon="-5.1811169554"><ele>74.16</ele><time>2012-08-10T12:45:36Z</time></trkpt><trkpt lat="57.9115145747" lon="-5.1816369686"><ele>78.97</ele><time>2012-08-10T12:45:38Z</time></trkpt><trkpt lat="57.9118420556" lon="-5.1821521204"><ele>82.33</ele><time>2012-08-10T12:45:40Z</time></trkpt><trkpt lat="57.9121692013" lon="-5.1826627459"><ele>85.69</ele><time>2012-08-10T12:45:42Z</time></trkpt><trkpt lat="57.9124981910" lon="-5.1831730362"><ele>89.54</ele><time>2012-08-10T12:45:44Z</time></trkpt><trkpt lat="57.9129874427" lon="-5.1839374658"><ele>94.35</ele><time>2012-08-10T12:45:47Z</time></trkpt><trkpt lat="57.9133155942" lon="-5.1843782701"><ele>97.23</ele><time>2012-08-10T12:45:49Z</time></trkpt><trkpt lat="57.9134844895" lon="-5.1845288929"><ele>98.67</ele><time>2012-08-10T12:45:50Z</time></trkpt><trkpt lat="57.9136518762" lon="-5.1846221834"><ele>99.15</ele><time>2012-08-10T12:45:51Z</time></trkpt><trkpt lat="57.9138167482" lon="-5.1846640091"><ele>99.63</ele><time>2012-08-10T12:45:52Z</time></trkpt><trkpt lat="57.9139822908" lon="-5.1846549567"><ele>99.63</ele><time>2012-08-10T12:45:53Z</time></trkpt><trkpt lat="57.9141508508" lon="-5.1846090239"><ele>100.60</ele><time>2012-08-10T12:45:54Z</time></trkpt><trkpt lat="57.9143227637" lon="-5.1845472492"><ele>100.11</ele><time>2012-08-10T12:45:55Z</time></trkpt><trkpt lat="57.9150094092" lon="-5.1843881607"><ele>98.67</ele><time>2012-08-10T12:45:59Z</time></trkpt><trkpt lat="57.9151650611" lon="-5.1844376139"><ele>97.23</ele><time>2012-08-10T12:46:00Z</time></trkpt><trkpt lat="57.9153143428" lon="-5.1845422201"><ele>98.19</ele><time>2012-08-10T12:46:01Z</time></trkpt><trkpt lat="57.9154566675" lon="-5.1847016439"><ele>96.27</ele><time>2012-08-10T12:46:02Z</time></trkpt><trkpt lat="57.9155839887" lon="-5.1849141251"><ele>94.35</ele><time>2012-08-10T12:46:03Z</time></trkpt><trkpt lat="57.9157032631" lon="-5.1851613913"><ele>93.39</ele><time>2012-08-10T12:46:04Z</time></trkpt><trkpt lat="57.9158172570" lon="-5.1854321267"><ele>92.42</ele><time>2012-08-10T12:46:05Z</time></trkpt><trkpt lat="57.9159284011" lon="-5.1857285108"><ele>90.98</ele><time>2012-08-10T12:46:06Z</time></trkpt><trkpt lat="57.9161473364" lon="-5.1863410603"><ele>87.14</ele><time>2012-08-10T12:46:08Z</time></trkpt><trkpt lat="57.9163667746" lon="-5.1869698707"><ele>83.77</ele><time>2012-08-10T12:46:10Z</time></trkpt><trkpt lat="57.9166744743" lon="-5.1879751123"><ele>78.97</ele><time>2012-08-10T12:46:13Z</time></trkpt><trkpt lat="57.9168758914" lon="-5.1886628475"><ele>73.68</ele><time>2012-08-10T12:46:15Z</time></trkpt><trkpt lat="57.9170786496" lon="-5.1893441286"><ele>68.39</ele><time>2012-08-10T12:46:17Z</time></trkpt><trkpt lat="57.9172777198" lon="-5.1900134236"><ele>64.55</ele><time>2012-08-10T12:46:19Z</time></trkpt><trkpt lat="57.9174727667" lon="-5.1906688046"><ele>60.70</ele><time>2012-08-10T12:46:21Z</time></trkpt><trkpt lat="57.9176670592" lon="-5.1913119480"><ele>55.41</ele><time>2012-08-10T12:46:23Z</time></trkpt><trkpt lat="57.9178678058" lon="-5.1919322088"><ele>51.57</ele><time>2012-08-10T12:46:25Z</time></trkpt><trkpt lat="57.9179808777" lon="-5.1922124159"><ele>49.65</ele><time>2012-08-10T12:46:26Z</time></trkpt><trkpt lat="57.9181072768" lon="-5.1924533118"><ele>46.76</ele><time>2012-08-10T12:46:27Z</time></trkpt><trkpt lat="57.9182485957" lon="-5.1926501188"><ele>44.84</ele><time>2012-08-10T12:46:28Z</time></trkpt><trkpt lat="57.9184024874" lon="-5.1928035915"><ele>42.92</ele><time>2012-08-10T12:46:29Z</time></trkpt><trkpt lat="57.9185607377" lon="-5.1928879973"><ele>40.99</ele><time>2012-08-10T12:46:30Z</time></trkpt><trkpt lat="57.9187189881" lon="-5.1929097902"><ele>39.55</ele><time>2012-08-10T12:46:31Z</time></trkpt><trkpt lat="57.9188716225" lon="-5.1928801183"><ele>38.11</ele><time>2012-08-10T12:46:32Z</time></trkpt><trkpt lat="57.9190180544" lon="-5.1928107999"><ele>37.15</ele><time>2012-08-10T12:46:33Z</time></trkpt><trkpt lat="57.9191589542" lon="-5.1927020866"><ele>37.15</ele><time>2012-08-10T12:46:34Z</time></trkpt><trkpt lat="57.9192936514" lon="-5.1925568283"><ele>36.67</ele><time>2012-08-10T12:46:35Z</time></trkpt><trkpt lat="57.9194246605" lon="-5.1923960634"><ele>37.15</ele><time>2012-08-10T12:46:36Z</time></trkpt><trkpt lat="57.9195498023" lon="-5.1922271680"><ele>36.67</ele><time>2012-08-10T12:46:37Z</time></trkpt><trkpt lat="57.9197921231" lon="-5.1918682549"><ele>35.71</ele><time>2012-08-10T12:46:39Z</time></trkpt><trkpt lat="57.9203023296" lon="-5.1911503449"><ele>38.59</ele><time>2012-08-10T12:46:43Z</time></trkpt><trkpt lat="57.9204404633" lon="-5.1909965370"><ele>40.03</ele><time>2012-08-10T12:46:44Z</time></trkpt><trkpt lat="57.9205899127" lon="-5.1908667851"><ele>40.99</ele><time>2012-08-10T12:46:45Z</time></trkpt><trkpt lat="57.9207551200" lon="-5.1907649450"><ele>41.95</ele><time>2012-08-10T12:46:46Z</time></trkpt><trkpt lat="57.9209343251" lon="-5.1906923577"><ele>44.36</ele><time>2012-08-10T12:46:47Z</time></trkpt><trkpt lat="57.9211256001" lon="-5.1906573214"><ele>45.80</ele><time>2012-08-10T12:46:48Z</time></trkpt><trkpt lat="57.9213265143" lon="-5.1906480175"><ele>46.76</ele><time>2012-08-10T12:46:49Z</time></trkpt><trkpt lat="57.9215319548" lon="-5.1906541362"><ele>47.72</ele><time>2012-08-10T12:46:50Z</time></trkpt><trkpt lat="57.9219342861" lon="-5.1906824671"><ele>51.09</ele><time>2012-08-10T12:46:52Z</time></trkpt><trkpt lat="57.9223308340" lon="-5.1907550544"><ele>53.97</ele><time>2012-08-10T12:46:54Z</time></trkpt><trkpt lat="57.9225218575" lon="-5.1908413041"><ele>55.41</ele><time>2012-08-10T12:46:55Z</time></trkpt><trkpt lat="57.9226998053" lon="-5.1909702178"><ele>57.34</ele><time>2012-08-10T12:46:56Z</time></trkpt><trkpt lat="57.9228672758" lon="-5.1911363471"><ele>58.30</ele><time>2012-08-10T12:46:57Z</time></trkpt><trkpt lat="57.9230293818" lon="-5.1913396921"><ele>59.74</ele><time>2012-08-10T12:46:58Z</time></trkpt><trkpt lat="57.9231927451" lon="-5.1915603038"><ele>61.66</ele><time>2012-08-10T12:46:59Z</time></trkpt><trkpt lat="57.9245593306" lon="-5.1933627483"><ele>64.07</ele><time>2012-08-10T12:47:08Z</time></trkpt><trkpt lat="57.9248758312" lon="-5.1936386805"><ele>65.51</ele><time>2012-08-10T12:47:10Z</time></trkpt><trkpt lat="57.9250407871" lon="-5.1937305462"><ele>65.51</ele><time>2012-08-10T12:47:11Z</time></trkpt><trkpt lat="57.9260967392" lon="-5.1940988470"><ele>60.70</ele><time>2012-08-10T12:47:17Z</time></trkpt><trkpt lat="57.9264158383" lon="-5.1942129247"><ele>56.37</ele><time>2012-08-10T12:47:19Z</time></trkpt><trkpt lat="57.9268644378" lon="-5.1943725999"><ele>52.53</ele><time>2012-08-10T12:47:22Z</time></trkpt><trkpt lat="57.9271270428" lon="-5.1944946405"><ele>48.20</ele><time>2012-08-10T12:47:24Z</time></trkpt><trkpt lat="57.9272458982" lon="-5.1945888530"><ele>46.28</ele><time>2012-08-10T12:47:25Z</time></trkpt><trkpt lat="57.9273551144" lon="-5.1947092172"><ele>44.84</ele><time>2012-08-10T12:47:26Z</time></trkpt><trkpt lat="57.9274546076" lon="-5.1948621869"><ele>43.88</ele><time>2012-08-10T12:47:27Z</time></trkpt><trkpt lat="57.9275468085" lon="-5.1950433198"><ele>42.92</ele><time>2012-08-10T12:47:28Z</time></trkpt><trkpt lat="57.9276334774" lon="-5.1952465810"><ele>41.47</ele><time>2012-08-10T12:47:29Z</time></trkpt><trkpt lat="57.9278864432" lon="-5.1958882157"><ele>38.59</ele><time>2012-08-10T12:47:32Z</time></trkpt><trkpt lat="57.9281459469" lon="-5.1965453569"><ele>34.26</ele><time>2012-08-10T12:47:35Z</time></trkpt><trkpt lat="57.9284164310" lon="-5.1971627679"><ele>29.94</ele><time>2012-08-10T12:47:38Z</time></trkpt><trkpt lat="57.9285179358" lon="-5.1973314118"><ele>28.98</ele><time>2012-08-10T12:47:39Z</time></trkpt><trkpt lat="57.9286277387" lon="-5.1974782627"><ele>27.53</ele><time>2012-08-10T12:47:40Z</time></trkpt><trkpt lat="57.9287454206" lon="-5.1975982077"><ele>26.09</ele><time>2012-08-10T12:47:41Z</time></trkpt><trkpt lat="57.9288693052" lon="-5.1976753213"><ele>25.13</ele><time>2012-08-10T12:47:42Z</time></trkpt><trkpt lat="57.9290017392" lon="-5.1977136265"><ele>24.17</ele><time>2012-08-10T12:47:43Z</time></trkpt><trkpt lat="57.9291408788" lon="-5.1977076754"><ele>23.21</ele><time>2012-08-10T12:47:44Z</time></trkpt><trkpt lat="57.9292878974" lon="-5.1976580545"><ele>22.73</ele><time>2012-08-10T12:47:45Z</time></trkpt><trkpt lat="57.9294425435" lon="-5.1975542866"><ele>21.29</ele><time>2012-08-10T12:47:46Z</time></trkpt><trkpt lat="57.9296069965" lon="-5.1974039152"><ele>21.29</ele><time>2012-08-10T12:47:47Z</time></trkpt><trkpt lat="57.9297784064" lon="-5.1972406358"><ele>21.29</ele><time>2012-08-10T12:47:48Z</time></trkpt><trkpt lat="57.9301230703" lon="-5.1969402283"><ele>17.44</ele><time>2012-08-10T12:47:50Z</time></trkpt><trkpt lat="57.9304771218" lon="-5.1966963150"><ele>15.52</ele><time>2012-08-10T12:47:52Z</time></trkpt><trkpt lat="57.9323237389" lon="-5.1962058060"><ele>15.52</ele><time>2012-08-10T12:48:02Z</time></trkpt><trkpt lat="57.9336147197" lon="-5.1963912975"><ele>14.56</ele><time>2012-08-10T12:48:10Z</time></trkpt><trkpt lat="57.9337660130" lon="-5.1963293552"><ele>14.08</ele><time>2012-08-10T12:48:11Z</time></trkpt><trkpt lat="57.9339110199" lon="-5.1962125953"><ele>13.60</ele><time>2012-08-10T12:48:12Z</time></trkpt><trkpt lat="57.9340411071" lon="-5.1960324682"><ele>13.12</ele><time>2012-08-10T12:48:13Z</time></trkpt><trkpt lat="57.9341552686" lon="-5.1957858726"><ele>12.63</ele><time>2012-08-10T12:48:14Z</time></trkpt><trkpt lat="57.9342490621" lon="-5.1955023967"><ele>13.12</ele><time>2012-08-10T12:48:15Z</time></trkpt><trkpt lat="57.9343308695" lon="-5.1951978821"><ele>13.60</ele><time>2012-08-10T12:48:16Z</time></trkpt><trkpt lat="57.9354757536" lon="-5.1906738337"><ele>15.04</ele><time>2012-08-10T12:48:30Z</time></trkpt><trkpt lat="57.9360507522" lon="-5.1886059344"><ele>17.92</ele><time>2012-08-10T12:48:36Z</time></trkpt><trkpt lat="57.9361388460" lon="-5.1882561576"><ele>19.84</ele><time>2012-08-10T12:48:37Z</time></trkpt><trkpt lat="57.9362034705" lon="-5.1878940593"><ele>20.32</ele><time>2012-08-10T12:48:38Z</time></trkpt><trkpt lat="57.9362498224" lon="-5.1875207294"><ele>21.77</ele><time>2012-08-10T12:48:39Z</time></trkpt><trkpt lat="57.9362975154" lon="-5.1871498302"><ele>23.69</ele><time>2012-08-10T12:48:40Z</time></trkpt><trkpt lat="57.9363640677" lon="-5.1867944375"><ele>25.61</ele><time>2012-08-10T12:48:41Z</time></trkpt><trkpt lat="57.9364529159" lon="-5.1864538807"><ele>27.05</ele><time>2012-08-10T12:48:42Z</time></trkpt><trkpt lat="57.9365609586" lon="-5.1861227117"><ele>28.02</ele><time>2012-08-10T12:48:43Z</time></trkpt><trkpt lat="57.9366790596" lon="-5.1857940573"><ele>28.98</ele><time>2012-08-10T12:48:44Z</time></trkpt><trkpt lat="57.9370626155" lon="-5.1848727185"><ele>28.02</ele><time>2012-08-10T12:48:47Z</time></trkpt><trkpt lat="57.9372064490" lon="-5.1846319903"><ele>28.02</ele><time>2012-08-10T12:48:48Z</time></trkpt><trkpt lat="57.9373641126" lon="-5.1844481751"><ele>27.53</ele><time>2012-08-10T12:48:49Z</time></trkpt><trkpt lat="57.9375367798" lon="-5.1843228657"><ele>27.53</ele><time>2012-08-10T12:48:50Z</time></trkpt><trkpt lat="57.9377200082" lon="-5.1842368674"><ele>28.02</ele><time>2012-08-10T12:48:51Z</time></trkpt><trkpt lat="57.9379045777" lon="-5.1841712371"><ele>28.98</ele><time>2012-08-10T12:48:52Z</time></trkpt><trkpt lat="57.9382524267" lon="-5.1839833148"><ele>31.86</ele><time>2012-08-10T12:48:54Z</time></trkpt><trkpt lat="57.9384071566" lon="-5.1838192809"><ele>33.78</ele><time>2012-08-10T12:48:55Z</time></trkpt><trkpt lat="57.9385399260" lon="-5.1835993398"><ele>34.74</ele><time>2012-08-10T12:48:56Z</time></trkpt><trkpt lat="57.9386567697" lon="-5.1833327115"><ele>37.15</ele><time>2012-08-10T12:48:57Z</time></trkpt><trkpt lat="57.9387695063" lon="-5.1830385905"><ele>39.55</ele><time>2012-08-10T12:48:58Z</time></trkpt><trkpt lat="57.9389906209" lon="-5.1824126299"><ele>44.36</ele><time>2012-08-10T12:49:00Z</time></trkpt><trkpt lat="57.9392134957" lon="-5.1817916986"><ele>48.68</ele><time>2012-08-10T12:49:02Z</time></trkpt><trkpt lat="57.9394288268" lon="-5.1811943203"><ele>52.53</ele><time>2012-08-10T12:49:04Z</time></trkpt><trkpt lat="57.9397435673" lon="-5.1803174056"><ele>54.45</ele><time>2012-08-10T12:49:07Z</time></trkpt><trkpt lat="57.9398329183" lon="-5.1800190937"><ele>53.49</ele><time>2012-08-10T12:49:08Z</time></trkpt><trkpt lat="57.9399052542" lon="-5.1796997432"><ele>53.01</ele><time>2012-08-10T12:49:09Z</time></trkpt><trkpt lat="57.9399621673" lon="-5.1793599408"><ele>51.57</ele><time>2012-08-10T12:49:10Z</time></trkpt><trkpt lat="57.9400581401" lon="-5.1786632370"><ele>48.68</ele><time>2012-08-10T12:49:12Z</time></trkpt><trkpt lat="57.9402545281" lon="-5.1775932033"><ele>43.88</ele><time>2012-08-10T12:49:15Z</time></trkpt><trkpt lat="57.9404310510" lon="-5.1768954098"><ele>40.51</ele><time>2012-08-10T12:49:17Z</time></trkpt><trkpt lat="57.9406743776" lon="-5.1758568082"><ele>37.15</ele><time>2012-08-10T12:49:20Z</time></trkpt><trkpt lat="57.9408572707" lon="-5.1748089027"><ele>33.78</ele><time>2012-08-10T12:49:23Z</time></trkpt><trkpt lat="57.9410396609" lon="-5.1734025870"><ele>30.42</ele><time>2012-08-10T12:49:27Z</time></trkpt><trkpt lat="57.9413522221" lon="-5.1720427908"><ele>27.05</ele><time>2012-08-10T12:49:31Z</time></trkpt><trkpt lat="57.9416516237" lon="-5.1710443385"><ele>23.69</ele><time>2012-08-10T12:49:34Z</time></trkpt><trkpt lat="57.9427176341" lon="-5.1686503831"><ele>23.69</ele><time>2012-08-10T12:49:42Z</time></trkpt><trkpt lat="57.9428879544" lon="-5.1684119180"><ele>24.17</ele><time>2012-08-10T12:49:43Z</time></trkpt><trkpt lat="57.9445458949" lon="-5.1661157794"><ele>27.53</ele><time>2012-08-10T12:49:52Z</time></trkpt><trkpt lat="57.9454549123" lon="-5.1636545174"><ele>29.46</ele><time>2012-08-10T12:49:58Z</time></trkpt><trkpt lat="57.9475269187" lon="-5.1574447844"><ele>30.90</ele><time>2012-08-10T12:50:13Z</time></trkpt><trkpt lat="57.9478866700" lon="-5.1561703999"><ele>32.82</ele><time>2012-08-10T12:50:16Z</time></trkpt><trkpt lat="57.9483832140" lon="-5.1543851383"><ele>33.78</ele><time>2012-08-10T12:50:20Z</time></trkpt><trkpt lat="57.9489869624" lon="-5.1521941088"><ele>38.11</ele><time>2012-08-10T12:50:25Z</time></trkpt><trkpt lat="57.9492856096" lon="-5.1509039663"><ele>41.95</ele><time>2012-08-10T12:50:28Z</time></trkpt><trkpt lat="57.9495092388" lon="-5.1501024049"><ele>46.76</ele><time>2012-08-10T12:50:30Z</time></trkpt><trkpt lat="57.9498033598" lon="-5.1493111532"><ele>50.61</ele><time>2012-08-10T12:50:32Z</time></trkpt><trkpt lat="57.9502912704" lon="-5.1481108647"><ele>52.53</ele><time>2012-08-10T12:50:35Z</time></trkpt><trkpt lat="57.9507538676" lon="-5.1468989253"><ele>56.86</ele><time>2012-08-10T12:50:38Z</time></trkpt><trkpt lat="57.9511872120" lon="-5.1457326673"><ele>61.18</ele><time>2012-08-10T12:50:41Z</time></trkpt><trkpt lat="57.9514724482" lon="-5.1449784636"><ele>65.03</ele><time>2012-08-10T12:50:43Z</time></trkpt><trkpt lat="57.9517764598" lon="-5.1442348212"><ele>68.39</ele><time>2012-08-10T12:50:45Z</time></trkpt><trkpt lat="57.9519329499" lon="-5.1438759919"><ele>68.39</ele><time>2012-08-10T12:50:46Z</time></trkpt><trkpt lat="57.9526618402" lon="-5.1425521541"><ele>65.03</ele><time>2012-08-10T12:50:50Z</time></trkpt><trkpt lat="57.9530511796" lon="-5.1418929175"><ele>61.66</ele><time>2012-08-10T12:50:52Z</time></trkpt><trkpt lat="57.9536353145" lon="-5.1409340277"><ele>59.26</ele><time>2012-08-10T12:50:55Z</time></trkpt><trkpt lat="57.9556136113" lon="-5.1374594774"><ele>62.62</ele><time>2012-08-10T12:51:06Z</time></trkpt><trkpt lat="57.9557946604" lon="-5.1371264644"><ele>62.62</ele><time>2012-08-10T12:51:07Z</time></trkpt><trkpt lat="57.9570164066" lon="-5.1349479239"><ele>58.78</ele><time>2012-08-10T12:51:14Z</time></trkpt><trkpt lat="57.9571956955" lon="-5.1347051002"><ele>57.34</ele><time>2012-08-10T12:51:15Z</time></trkpt><trkpt lat="57.9573853780" lon="-5.1345020905"><ele>55.89</ele><time>2012-08-10T12:51:16Z</time></trkpt><trkpt lat="57.9575830232" lon="-5.1343447622"><ele>53.49</ele><time>2012-08-10T12:51:17Z</time></trkpt><trkpt lat="57.9577877093" lon="-5.1342318580"><ele>52.53</ele><time>2012-08-10T12:51:18Z</time></trkpt><trkpt lat="57.9579989333" lon="-5.1341689937"><ele>50.61</ele><time>2012-08-10T12:51:19Z</time></trkpt><trkpt lat="57.9582151864" lon="-5.1341487095"><ele>49.65</ele><time>2012-08-10T12:51:20Z</time></trkpt><trkpt lat="57.9584329482" lon="-5.1341549121"><ele>47.24</ele><time>2012-08-10T12:51:21Z</time></trkpt><trkpt lat="57.9588558152" lon="-5.1342171058"><ele>43.88</ele><time>2012-08-10T12:51:23Z</time></trkpt><trkpt lat="57.9590634350" lon="-5.1342926268"><ele>42.44</ele><time>2012-08-10T12:51:24Z</time></trkpt><trkpt lat="57.9592703003" lon="-5.1344015077"><ele>41.47</ele><time>2012-08-10T12:51:25Z</time></trkpt><trkpt lat="57.9596950114" lon="-5.1346482709"><ele>40.51</ele><time>2012-08-10T12:51:27Z</time></trkpt><trkpt lat="57.9601215664" lon="-5.1348983031"><ele>37.15</ele><time>2012-08-10T12:51:29Z</time></trkpt><trkpt lat="57.9605304357" lon="-5.1351572201"><ele>33.78</ele><time>2012-08-10T12:51:31Z</time></trkpt><trkpt lat="57.9611544684" lon="-5.1355375908"><ele>29.46</ele><time>2012-08-10T12:51:34Z</time></trkpt><trkpt lat="57.9615732282" lon="-5.1357867010"><ele>26.57</ele><time>2012-08-10T12:51:36Z</time></trkpt><trkpt lat="57.9617856257" lon="-5.1358789857"><ele>24.65</ele><time>2012-08-10T12:51:37Z</time></trkpt><trkpt lat="57.9620019626" lon="-5.1359301992"><ele>23.69</ele><time>2012-08-10T12:51:38Z</time></trkpt><trkpt lat="57.9622239154" lon="-5.1359403413"><ele>23.21</ele><time>2012-08-10T12:51:39Z</time></trkpt><trkpt lat="57.9624496400" lon="-5.1359090768"><ele>23.69</ele><time>2012-08-10T12:51:40Z</time></trkpt><trkpt lat="57.9626812320" lon="-5.1358291134"><ele>23.21</ele><time>2012-08-10T12:51:41Z</time></trkpt><trkpt lat="57.9629145842" lon="-5.1356945839"><ele>24.65</ele><time>2012-08-10T12:51:42Z</time></trkpt><trkpt lat="57.9631419852" lon="-5.1355147082"><ele>25.61</ele><time>2012-08-10T12:51:43Z</time></trkpt><trkpt lat="57.9633570649" lon="-5.1353026461"><ele>25.61</ele><time>2012-08-10T12:51:44Z</time></trkpt><trkpt lat="57.9635633435" lon="-5.1350628398"><ele>26.57</ele><time>2012-08-10T12:51:45Z</time></trkpt><trkpt lat="57.9637647606" lon="-5.1348092873"><ele>28.02</ele><time>2012-08-10T12:51:46Z</time></trkpt><trkpt lat="57.9643747117" lon="-5.1340575144"><ele>33.30</ele><time>2012-08-10T12:51:49Z</time></trkpt><trkpt lat="57.9648045357" lon="-5.1335019618"><ele>40.51</ele><time>2012-08-10T12:51:51Z</time></trkpt><trkpt lat="57.9652714916" lon="-5.1329144742"><ele>45.80</ele><time>2012-08-10T12:51:53Z</time></trkpt><trkpt lat="57.9657513555" lon="-5.1323482767"><ele>49.16</ele><time>2012-08-10T12:51:55Z</time></trkpt><trkpt lat="57.9662254360" lon="-5.1317821629"><ele>53.97</ele><time>2012-08-10T12:51:57Z</time></trkpt><trkpt lat="57.9666712694" lon="-5.1311930828"><ele>58.30</ele><time>2012-08-10T12:51:59Z</time></trkpt><trkpt lat="57.9670929629" lon="-5.1305817068"><ele>64.07</ele><time>2012-08-10T12:52:01Z</time></trkpt><trkpt lat="57.9674889240" lon="-5.1299967337"><ele>69.35</ele><time>2012-08-10T12:52:03Z</time></trkpt><trkpt lat="57.9678610805" lon="-5.1294400077"><ele>72.72</ele><time>2012-08-10T12:52:05Z</time></trkpt><trkpt lat="57.9682428762" lon="-5.1289002970"><ele>77.52</ele><time>2012-08-10T12:52:07Z</time></trkpt><trkpt lat="57.9688393325" lon="-5.1281476859"><ele>81.37</ele><time>2012-08-10T12:52:10Z</time></trkpt><trkpt lat="57.9694323521" lon="-5.1274401695"><ele>84.73</ele><time>2012-08-10T12:52:13Z</time></trkpt><trkpt lat="57.9699963704" lon="-5.1267750654"><ele>90.02</ele><time>2012-08-10T12:52:16Z</time></trkpt><trkpt lat="57.9703790043" lon="-5.1263309084"><ele>93.39</ele><time>2012-08-10T12:52:18Z</time></trkpt><trkpt lat="57.9709942359" lon="-5.1256016828"><ele>97.23</ele><time>2012-08-10T12:52:21Z</time></trkpt><trkpt lat="57.9711990897" lon="-5.1253615413"><ele>97.23</ele><time>2012-08-10T12:52:22Z</time></trkpt><trkpt lat="57.9720343463" lon="-5.1245398633"><ele>101.08</ele><time>2012-08-10T12:52:26Z</time></trkpt><trkpt lat="57.9725362547" lon="-5.1241565589"><ele>104.44</ele><time>2012-08-10T12:52:28Z</time></trkpt><trkpt lat="57.9730912205" lon="-5.1237807143"><ele>110.69</ele><time>2012-08-10T12:52:30Z</time></trkpt><trkpt lat="57.9733755346" lon="-5.1236055326"><ele>109.73</ele><time>2012-08-10T12:52:31Z</time></trkpt><trkpt lat="57.9744447302" lon="-5.1228845213"><ele>112.61</ele><time>2012-08-10T12:52:35Z</time></trkpt><trkpt lat="57.9756519757" lon="-5.1218454167"><ele>115.98</ele><time>2012-08-10T12:52:40Z</time></trkpt><trkpt lat="57.9781434126" lon="-5.1196857356"><ele>115.50</ele><time>2012-08-10T12:52:50Z</time></trkpt><trkpt lat="57.9794193059" lon="-5.1189486310"><ele>114.53</ele><time>2012-08-10T12:52:55Z</time></trkpt><trkpt lat="57.9796772171" lon="-5.1189215574"><ele>115.01</ele><time>2012-08-10T12:52:56Z</time></trkpt><trkpt lat="57.9799385648" lon="-5.1189459488"><ele>116.94</ele><time>2012-08-10T12:52:57Z</time></trkpt><trkpt lat="57.9801999126" lon="-5.1189927198"><ele>119.82</ele><time>2012-08-10T12:52:58Z</time></trkpt><trkpt lat="57.9809776694" lon="-5.1191335358"><ele>124.63</ele><time>2012-08-10T12:53:01Z</time></trkpt><trkpt lat="57.9815028794" lon="-5.1191451866"><ele>128.47</ele><time>2012-08-10T12:53:03Z</time></trkpt><trkpt lat="57.9817654006" lon="-5.1190922130"><ele>129.43</ele><time>2012-08-10T12:53:04Z</time></trkpt><trkpt lat="57.9820253234" lon="-5.1189866848"><ele>130.40</ele><time>2012-08-10T12:53:05Z</time></trkpt><trkpt lat="57.9822854139" lon="-5.1188338827"><ele>132.32</ele><time>2012-08-10T12:53:06Z</time></trkpt><trkpt lat="57.9825440794" lon="-5.1186546776"><ele>132.80</ele><time>2012-08-10T12:53:07Z</time></trkpt><trkpt lat="57.9832842853" lon="-5.1180780027"><ele>136.16</ele><time>2012-08-10T12:53:10Z</time></trkpt><trkpt lat="57.9844547343" lon="-5.1171422470"><ele>139.53</ele><time>2012-08-10T12:53:15Z</time></trkpt><trkpt lat="57.9873640928" lon="-5.1147656422"><ele>135.68</ele><time>2012-08-10T12:53:27Z</time></trkpt><trkpt lat="57.9883520678" lon="-5.1140042301"><ele>132.32</ele><time>2012-08-10T12:53:31Z</time></trkpt><trkpt lat="57.9888494499" lon="-5.1137210894"><ele>130.40</ele><time>2012-08-10T12:53:33Z</time></trkpt><trkpt lat="57.9907140043" lon="-5.1122767199"><ele>134.24</ele><time>2012-08-10T12:53:41Z</time></trkpt><trkpt lat="57.9929106496" lon="-5.1104275044"><ele>132.80</ele><time>2012-08-10T12:53:50Z</time></trkpt><trkpt lat="57.9948964063" lon="-5.1091628429"><ele>131.36</ele><time>2012-08-10T12:53:58Z</time></trkpt><trkpt lat="57.9956272244" lon="-5.1085580047"><ele>128.47</ele><time>2012-08-10T12:54:01Z</time></trkpt><trkpt lat="57.9975320119" lon="-5.1065260638"><ele>128.47</ele><time>2012-08-10T12:54:10Z</time></trkpt><trkpt lat="57.9978942778" lon="-5.1060727704"><ele>129.43</ele><time>2012-08-10T12:54:12Z</time></trkpt><trkpt lat="57.9988632258" lon="-5.1045971364"><ele>127.51</ele><time>2012-08-10T12:54:19Z</time></trkpt><trkpt lat="58.0000884924" lon="-5.1028189156"><ele>131.36</ele><time>2012-08-10T12:54:29Z</time></trkpt><trkpt lat="58.0004404485" lon="-5.1024237927"><ele>134.72</ele><time>2012-08-10T12:54:31Z</time></trkpt><trkpt lat="58.0006354116" lon="-5.1022082102"><ele>134.72</ele><time>2012-08-10T12:54:32Z</time></trkpt><trkpt lat="58.0012395792" lon="-5.1015471295"><ele>138.09</ele><time>2012-08-10T12:54:35Z</time></trkpt><trkpt lat="58.0016051978" lon="-5.1011122763"><ele>138.57</ele><time>2012-08-10T12:54:37Z</time></trkpt><trkpt lat="58.0017753504" lon="-5.1008525211"><ele>140.01</ele><time>2012-08-10T12:54:38Z</time></trkpt><trkpt lat="58.0019195192" lon="-5.1005474199"><ele>141.45</ele><time>2012-08-10T12:54:39Z</time></trkpt><trkpt lat="58.0020358600" lon="-5.1001900993"><ele>141.93</ele><time>2012-08-10T12:54:40Z</time></trkpt><trkpt lat="58.0021214392" lon="-5.0997886062"><ele>142.89</ele><time>2012-08-10T12:54:41Z</time></trkpt><trkpt lat="58.0021824595" lon="-5.0993580278"><ele>145.30</ele><time>2012-08-10T12:54:42Z</time></trkpt><trkpt lat="58.0022286437" lon="-5.0989294611"><ele>146.26</ele><time>2012-08-10T12:54:43Z</time></trkpt><trkpt lat="58.0023413803" lon="-5.0981424004"><ele>146.26</ele><time>2012-08-10T12:54:45Z</time></trkpt><trkpt lat="58.0025246087" lon="-5.0974184554"><ele>148.66</ele><time>2012-08-10T12:54:47Z</time></trkpt><trkpt lat="58.0029426143" lon="-5.0963386148"><ele>152.51</ele><time>2012-08-10T12:54:50Z</time></trkpt><trkpt lat="58.0032670777" lon="-5.0956346188"><ele>155.39</ele><time>2012-08-10T12:54:52Z</time></trkpt><trkpt lat="58.0036401562" lon="-5.0949243363"><ele>159.72</ele><time>2012-08-10T12:54:54Z</time></trkpt><trkpt lat="58.0042195134" lon="-5.0938546378"><ele>163.56</ele><time>2012-08-10T12:54:57Z</time></trkpt><trkpt lat="58.0047317315" lon="-5.0928770564"><ele>167.41</ele><time>2012-08-10T12:55:00Z</time></trkpt><trkpt lat="58.0050417781" lon="-5.0922342483"><ele>168.37</ele><time>2012-08-10T12:55:02Z</time></trkpt><trkpt lat="58.0051742960" lon="-5.0918905064"><ele>169.81</ele><time>2012-08-10T12:55:03Z</time></trkpt><trkpt lat="58.0055400822" lon="-5.0909195468"><ele>172.69</ele><time>2012-08-10T12:55:06Z</time></trkpt><trkpt lat="58.0056947283" lon="-5.0906571932"><ele>173.66</ele><time>2012-08-10T12:55:07Z</time></trkpt><trkpt lat="58.0058704969" lon="-5.0904375035"><ele>174.62</ele><time>2012-08-10T12:55:08Z</time></trkpt><trkpt lat="58.0060664658" lon="-5.0902407803"><ele>177.02</ele><time>2012-08-10T12:55:09Z</time></trkpt><trkpt lat="58.0062701460" lon="-5.0900533609"><ele>178.94</ele><time>2012-08-10T12:55:10Z</time></trkpt><trkpt lat="58.0066983774" lon="-5.0896614231"><ele>182.79</ele><time>2012-08-10T12:55:12Z</time></trkpt><trkpt lat="58.0073309597" lon="-5.0890642125"><ele>187.11</ele><time>2012-08-10T12:55:15Z</time></trkpt><trkpt lat="58.0077501386" lon="-5.0885833427"><ele>190.48</ele><time>2012-08-10T12:55:17Z</time></trkpt><trkpt lat="58.0081693176" lon="-5.0880220905"><ele>194.32</ele><time>2012-08-10T12:55:19Z</time></trkpt><trkpt lat="58.0085905083" lon="-5.0874466728"><ele>198.65</ele><time>2012-08-10T12:55:21Z</time></trkpt><trkpt lat="58.0090063345" lon="-5.0868772063"><ele>202.49</ele><time>2012-08-10T12:55:23Z</time></trkpt><trkpt lat="58.0096483883" lon="-5.0861413591"><ele>206.34</ele><time>2012-08-10T12:55:26Z</time></trkpt><trkpt lat="58.0103585031" lon="-5.0855278037"><ele>211.15</ele><time>2012-08-10T12:55:29Z</time></trkpt><trkpt lat="58.0110702943" lon="-5.0849285815"><ele>214.99</ele><time>2012-08-10T12:55:32Z</time></trkpt><trkpt lat="58.0115409382" lon="-5.0845079776"><ele>218.36</ele><time>2012-08-10T12:55:34Z</time></trkpt><trkpt lat="58.0119992606" lon="-5.0840353221"><ele>222.20</ele><time>2012-08-10T12:55:36Z</time></trkpt><trkpt lat="58.0124543980" lon="-5.0835207570"><ele>226.05</ele><time>2012-08-10T12:55:38Z</time></trkpt><trkpt lat="58.0126824696" lon="-5.0832705572"><ele>226.05</ele><time>2012-08-10T12:55:39Z</time></trkpt><trkpt lat="58.0133723002" lon="-5.0825135037"><ele>229.89</ele><time>2012-08-10T12:55:42Z</time></trkpt><trkpt lat="58.0140391644" lon="-5.0816681050"><ele>234.22</ele><time>2012-08-10T12:55:45Z</time></trkpt><trkpt lat="58.0148867425" lon="-5.0804321934"><ele>238.06</ele><time>2012-08-10T12:55:49Z</time></trkpt><trkpt lat="58.0155249406" lon="-5.0795604754"><ele>240.47</ele><time>2012-08-10T12:55:52Z</time></trkpt><trkpt lat="58.0157483183" lon="-5.0793230999"><ele>240.47</ele><time>2012-08-10T12:55:53Z</time></trkpt><trkpt lat="58.0159823410" lon="-5.0791323278"><ele>240.47</ele><time>2012-08-10T12:55:54Z</time></trkpt><trkpt lat="58.0162261706" lon="-5.0789875723"><ele>239.99</ele><time>2012-08-10T12:55:55Z</time></trkpt><trkpt lat="58.0164799746" lon="-5.0788829662"><ele>241.43</ele><time>2012-08-10T12:55:56Z</time></trkpt><trkpt lat="58.0167412385" lon="-5.0788031705"><ele>241.91</ele><time>2012-08-10T12:55:57Z</time></trkpt><trkpt lat="58.0172601622" lon="-5.0786513742"><ele>245.27</ele><time>2012-08-10T12:55:59Z</time></trkpt><trkpt lat="58.0177765712" lon="-5.0784599315"><ele>246.72</ele><time>2012-08-10T12:56:01Z</time></trkpt><trkpt lat="58.0203842651" lon="-5.0771355908"><ele>247.68</ele><time>2012-08-10T12:56:11Z</time></trkpt><trkpt lat="58.0219474901" lon="-5.0763390586"><ele>252.00</ele><time>2012-08-10T12:56:17Z</time></trkpt><trkpt lat="58.0227226485" lon="-5.0759398285"><ele>255.37</ele><time>2012-08-10T12:56:20Z</time></trkpt><trkpt lat="58.0232305918" lon="-5.0756787322"><ele>258.73</ele><time>2012-08-10T12:56:22Z</time></trkpt><trkpt lat="58.0239811912" lon="-5.0752887223"><ele>262.58</ele><time>2012-08-10T12:56:25Z</time></trkpt><trkpt lat="58.0247379933" lon="-5.0748972874"><ele>266.42</ele><time>2012-08-10T12:56:28Z</time></trkpt><trkpt lat="58.0257195979" lon="-5.0743779447"><ele>263.54</ele><time>2012-08-10T12:56:32Z</time></trkpt><trkpt lat="58.0262057483" lon="-5.0741176028"><ele>258.73</ele><time>2012-08-10T12:56:34Z</time></trkpt><trkpt lat="58.0269433558" lon="-5.0737140141"><ele>255.37</ele><time>2012-08-10T12:56:37Z</time></trkpt><trkpt lat="58.0274427496" lon="-5.0734501518"><ele>252.48</ele><time>2012-08-10T12:56:39Z</time></trkpt><trkpt lat="58.0279519502" lon="-5.0732130278"><ele>247.68</ele><time>2012-08-10T12:56:41Z</time></trkpt><trkpt lat="58.0284569599" lon="-5.0730918255"><ele>243.83</ele><time>2012-08-10T12:56:43Z</time></trkpt><trkpt lat="58.0287073273" lon="-5.0730960164"><ele>242.39</ele><time>2012-08-10T12:56:44Z</time></trkpt><trkpt lat="58.0289588682" lon="-5.0731316395"><ele>242.39</ele><time>2012-08-10T12:56:45Z</time></trkpt><trkpt lat="58.0307559483" lon="-5.0736317039"><ele>239.51</ele><time>2012-08-10T12:56:52Z</time></trkpt><trkpt lat="58.0312622990" lon="-5.0736315362"><ele>238.54</ele><time>2012-08-10T12:56:54Z</time></trkpt><trkpt lat="58.0315162707" lon="-5.0735652354"><ele>238.54</ele><time>2012-08-10T12:56:55Z</time></trkpt><trkpt lat="58.0317700747" lon="-5.0734473020"><ele>237.58</ele><time>2012-08-10T12:56:56Z</time></trkpt><trkpt lat="58.0320274830" lon="-5.0732841901"><ele>238.06</ele><time>2012-08-10T12:56:57Z</time></trkpt><trkpt lat="58.0322876573" lon="-5.0731020514"><ele>239.02</ele><time>2012-08-10T12:56:58Z</time></trkpt><trkpt lat="58.0340959691" lon="-5.0717810635"><ele>236.62</ele><time>2012-08-10T12:57:05Z</time></trkpt><trkpt lat="58.0356380716" lon="-5.0706165656"><ele>233.26</ele><time>2012-08-10T12:57:12Z</time></trkpt><trkpt lat="58.0364522897" lon="-5.0695270021"><ele>236.14</ele><time>2012-08-10T12:57:17Z</time></trkpt><trkpt lat="58.0368417129" lon="-5.0687241834"><ele>238.06</ele><time>2012-08-10T12:57:20Z</time></trkpt><trkpt lat="58.0372160487" lon="-5.0678364560"><ele>241.43</ele><time>2012-08-10T12:57:23Z</time></trkpt><trkpt lat="58.0376112554" lon="-5.0668682624"><ele>245.27</ele><time>2012-08-10T12:57:26Z</time></trkpt><trkpt lat="58.0380374752" lon="-5.0658257212"><ele>247.68</ele><time>2012-08-10T12:57:29Z</time></trkpt><trkpt lat="58.0387625098" lon="-5.0643560383"><ele>251.04</ele><time>2012-08-10T12:57:34Z</time></trkpt><trkpt lat="58.0390459858" lon="-5.0638438202"><ele>252.00</ele><time>2012-08-10T12:57:36Z</time></trkpt><trkpt lat="58.0394342355" lon="-5.0630111620"><ele>253.44</ele><time>2012-08-10T12:57:39Z</time></trkpt><trkpt lat="58.0404113140" lon="-5.0606282707"><ele>251.52</ele><time>2012-08-10T12:57:46Z</time></trkpt><trkpt lat="58.0412964430" lon="-5.0589730963"><ele>248.64</ele><time>2012-08-10T12:57:51Z</time></trkpt><trkpt lat="58.0416457169" lon="-5.0583047234"><ele>248.16</ele><time>2012-08-10T12:57:53Z</time></trkpt><trkpt lat="58.0423221365" lon="-5.0568965636"><ele>244.79</ele><time>2012-08-10T12:57:57Z</time></trkpt><trkpt lat="58.0427788664" lon="-5.0557562895"><ele>242.39</ele><time>2012-08-10T12:58:00Z</time></trkpt><trkpt lat="58.0430733226" lon="-5.0549809635"><ele>240.95</ele><time>2012-08-10T12:58:02Z</time></trkpt><trkpt lat="58.0433651805" lon="-5.0542336330"><ele>238.06</ele><time>2012-08-10T12:58:04Z</time></trkpt><trkpt lat="58.0436501652" lon="-5.0535168964"><ele>234.22</ele><time>2012-08-10T12:58:06Z</time></trkpt><trkpt lat="58.0440692604" lon="-5.0524261594"><ele>229.41</ele><time>2012-08-10T12:58:09Z</time></trkpt><trkpt lat="58.0443390738" lon="-5.0516751409"><ele>226.05</ele><time>2012-08-10T12:58:11Z</time></trkpt><trkpt lat="58.0445989128" lon="-5.0509334262"><ele>221.72</ele><time>2012-08-10T12:58:13Z</time></trkpt><trkpt lat="58.0448504537" lon="-5.0502200425"><ele>217.88</ele><time>2012-08-10T12:58:15Z</time></trkpt><trkpt lat="58.0450952053" lon="-5.0495031383"><ele>214.03</ele><time>2012-08-10T12:58:17Z</time></trkpt><trkpt lat="58.0452943593" lon="-5.0487361103"><ele>210.67</ele><time>2012-08-10T12:58:19Z</time></trkpt><trkpt lat="58.0454461556" lon="-5.0479054637"><ele>205.38</ele><time>2012-08-10T12:58:21Z</time></trkpt><trkpt lat="58.0455834512" lon="-5.0470370986"><ele>200.57</ele><time>2012-08-10T12:58:23Z</time></trkpt><trkpt lat="58.0456976965" lon="-5.0461487006"><ele>196.25</ele><time>2012-08-10T12:58:25Z</time></trkpt><trkpt lat="58.0458392669" lon="-5.0448011421"><ele>190.48</ele><time>2012-08-10T12:58:28Z</time></trkpt><trkpt lat="58.0459370837" lon="-5.0439238921"><ele>186.63</ele><time>2012-08-10T12:58:30Z</time></trkpt><trkpt lat="58.0461144447" lon="-5.0426401198"><ele>182.79</ele><time>2012-08-10T12:58:33Z</time></trkpt><trkpt lat="58.0462493096" lon="-5.0418352056"><ele>179.42</ele><time>2012-08-10T12:58:35Z</time></trkpt><trkpt lat="58.0463638064" lon="-5.0410570297"><ele>175.58</ele><time>2012-08-10T12:58:37Z</time></trkpt><trkpt lat="58.0464284308" lon="-5.0402629282"><ele>173.66</ele><time>2012-08-10T12:58:39Z</time></trkpt><trkpt lat="58.0464341305" lon="-5.0398826413"><ele>173.17</ele><time>2012-08-10T12:58:40Z</time></trkpt><trkpt lat="58.0464223959" lon="-5.0395238958"><ele>172.69</ele><time>2012-08-10T12:58:41Z</time></trkpt><trkpt lat="58.0463841744" lon="-5.0391974207"><ele>171.25</ele><time>2012-08-10T12:58:42Z</time></trkpt><trkpt lat="58.0463175382" lon="-5.0389064848"><ele>170.29</ele><time>2012-08-10T12:58:43Z</time></trkpt><trkpt lat="58.0462312885" lon="-5.0386484060"><ele>168.85</ele><time>2012-08-10T12:58:44Z</time></trkpt><trkpt lat="58.0461397581" lon="-5.0384080969"><ele>168.37</ele><time>2012-08-10T12:58:45Z</time></trkpt><trkpt lat="58.0458883848" lon="-5.0377134047"><ele>167.89</ele><time>2012-08-10T12:58:48Z</time></trkpt><trkpt lat="58.0458315555" lon="-5.0374702457"><ele>167.41</ele><time>2012-08-10T12:58:49Z</time></trkpt><trkpt lat="58.0457948428" lon="-5.0372220576"><ele>167.41</ele><time>2012-08-10T12:58:50Z</time></trkpt><trkpt lat="58.0457837787" lon="-5.0369769707"><ele>167.41</ele><time>2012-08-10T12:58:51Z</time></trkpt><trkpt lat="58.0458061583" lon="-5.0367436185"><ele>166.93</ele><time>2012-08-10T12:58:52Z</time></trkpt><trkpt lat="58.0458613951" lon="-5.0365270302"><ele>166.93</ele><time>2012-08-10T12:58:53Z</time></trkpt><trkpt lat="58.0459427834" lon="-5.0363326538"><ele>167.41</ele><time>2012-08-10T12:58:54Z</time></trkpt><trkpt lat="58.0460422765" lon="-5.0361457374"><ele>167.89</ele><time>2012-08-10T12:58:55Z</time></trkpt><trkpt lat="58.0461550131" lon="-5.0359532889"><ele>167.89</ele><time>2012-08-10T12:58:56Z</time></trkpt><trkpt lat="58.0471698102" lon="-5.0342809316"><ele>165.96</ele><time>2012-08-10T12:59:05Z</time></trkpt><trkpt lat="58.0472453311" lon="-5.0340946019"><ele>165.48</ele><time>2012-08-10T12:59:06Z</time></trkpt><trkpt lat="58.0475478340" lon="-5.0331673957"><ele>162.60</ele><time>2012-08-10T12:59:13Z</time></trkpt><trkpt lat="58.0475636758" lon="-5.0331098121"><ele>161.64</ele><time>2012-08-10T12:59:22Z</time></trkpt><trkpt lat="58.0475568864" lon="-5.0330541562"><ele>162.60</ele><time>2012-08-10T12:59:54Z</time></trkpt><trkpt lat="58.0477769114" lon="-5.0323321391"><ele>164.04</ele><time>2012-08-10T12:59:59Z</time></trkpt><trkpt lat="58.0482876208" lon="-5.0307564251"><ele>164.04</ele><time>2012-08-10T13:00:06Z</time></trkpt><trkpt lat="58.0483839288" lon="-5.0305679999"><ele>164.04</ele><time>2012-08-10T13:00:07Z</time></trkpt><trkpt lat="58.0484957434" lon="-5.0304078218"><ele>164.04</ele><time>2012-08-10T13:00:08Z</time></trkpt><trkpt lat="58.0486222263" lon="-5.0302743819"><ele>164.04</ele><time>2012-08-10T13:00:09Z</time></trkpt><trkpt lat="58.0487579294" lon="-5.0301733799"><ele>164.04</ele><time>2012-08-10T13:00:10Z</time></trkpt><trkpt lat="58.0489015114" lon="-5.0301055703"><ele>163.56</ele><time>2012-08-10T13:00:11Z</time></trkpt><trkpt lat="58.0490493681" lon="-5.0300732162"><ele>164.04</ele><time>2012-08-10T13:00:12Z</time></trkpt><trkpt lat="58.0491972249" lon="-5.0300884712"><ele>163.56</ele><time>2012-08-10T13:00:13Z</time></trkpt><trkpt lat="58.0493420642" lon="-5.0301540177"><ele>164.04</ele><time>2012-08-10T13:00:14Z</time></trkpt><trkpt lat="58.0494853947" lon="-5.0302648265"><ele>164.04</ele><time>2012-08-10T13:00:15Z</time></trkpt><trkpt lat="58.0496241990" lon="-5.0304197241"><ele>164.52</ele><time>2012-08-10T13:00:16Z</time></trkpt><trkpt lat="58.0497545376" lon="-5.0306109991"><ele>165.00</ele><time>2012-08-10T13:00:17Z</time></trkpt><trkpt lat="58.0498716328" lon="-5.0308441836"><ele>164.52</ele><time>2012-08-10T13:00:18Z</time></trkpt><trkpt lat="58.0499734730" lon="-5.0311005861"><ele>165.48</ele><time>2012-08-10T13:00:19Z</time></trkpt><trkpt lat="58.0500648357" lon="-5.0313552283"><ele>165.48</ele><time>2012-08-10T13:00:20Z</time></trkpt><trkpt lat="58.0503212381" lon="-5.0320459809"><ele>163.56</ele><time>2012-08-10T13:00:23Z</time></trkpt><trkpt lat="58.0504266825" lon="-5.0322463922"><ele>164.04</ele><time>2012-08-10T13:00:24Z</time></trkpt><trkpt lat="58.0505560990" lon="-5.0324164610"><ele>162.60</ele><time>2012-08-10T13:00:25Z</time></trkpt><trkpt lat="58.0507056322" lon="-5.0325530861"><ele>160.20</ele><time>2012-08-10T13:00:26Z</time></trkpt><trkpt lat="58.0508684926" lon="-5.0326607935"><ele>159.24</ele><time>2012-08-10T13:00:27Z</time></trkpt><trkpt lat="58.0510383938" lon="-5.0327370688"><ele>158.27</ele><time>2012-08-10T13:00:28Z</time></trkpt><trkpt lat="58.0512099713" lon="-5.0327640586"><ele>156.83</ele><time>2012-08-10T13:00:29Z</time></trkpt><trkpt lat="58.0513869971" lon="-5.0327401701"><ele>154.91</ele><time>2012-08-10T13:00:30Z</time></trkpt><trkpt lat="58.0515541323" lon="-5.0326523278"><ele>153.95</ele><time>2012-08-10T13:00:31Z</time></trkpt><trkpt lat="58.0517122149" lon="-5.0325122662"><ele>152.03</ele><time>2012-08-10T13:00:32Z</time></trkpt><trkpt lat="58.0518579762" lon="-5.0323293731"><ele>150.10</ele><time>2012-08-10T13:00:33Z</time></trkpt><trkpt lat="58.0519897398" lon="-5.0321163051"><ele>148.18</ele><time>2012-08-10T13:00:34Z</time></trkpt><trkpt lat="58.0521075893" lon="-5.0318766665"><ele>148.18</ele><time>2012-08-10T13:00:35Z</time></trkpt><trkpt lat="58.0522195715" lon="-5.0316281430"><ele>147.70</ele><time>2012-08-10T13:00:36Z</time></trkpt><trkpt lat="58.0526811630" lon="-5.0307679921"><ele>146.74</ele><time>2012-08-10T13:00:40Z</time></trkpt><trkpt lat="58.0528079811" lon="-5.0306572672"><ele>146.74</ele><time>2012-08-10T13:00:41Z</time></trkpt><trkpt lat="58.0529394094" lon="-5.0306024496"><ele>148.18</ele><time>2012-08-10T13:00:42Z</time></trkpt><trkpt lat="58.0530801415" lon="-5.0305799022"><ele>147.70</ele><time>2012-08-10T13:00:43Z</time></trkpt><trkpt lat="58.0532279145" lon="-5.0305662397"><ele>148.18</ele><time>2012-08-10T13:00:44Z</time></trkpt><trkpt lat="58.0547467992" lon="-5.0300442148"><ele>146.74</ele><time>2012-08-10T13:00:53Z</time></trkpt><trkpt lat="58.0567206535" lon="-5.0294414721"><ele>144.82</ele><time>2012-08-10T13:01:03Z</time></trkpt><trkpt lat="58.0588949192" lon="-5.0291600078"><ele>144.34</ele><time>2012-08-10T13:01:13Z</time></trkpt><trkpt lat="58.0590973422" lon="-5.0290591735"><ele>144.34</ele><time>2012-08-10T13:01:14Z</time></trkpt><trkpt lat="58.0592840910" lon="-5.0289208721"><ele>143.85</ele><time>2012-08-10T13:01:15Z</time></trkpt><trkpt lat="58.0594596919" lon="-5.0287632085"><ele>142.89</ele><time>2012-08-10T13:01:16Z</time></trkpt><trkpt lat="58.0596309341" lon="-5.0285930559"><ele>142.41</ele><time>2012-08-10T13:01:17Z</time></trkpt><trkpt lat="58.0599619355" lon="-5.0281887129"><ele>142.89</ele><time>2012-08-10T13:01:19Z</time></trkpt><trkpt lat="58.0601029191" lon="-5.0279327296"><ele>142.89</ele><time>2012-08-10T13:01:20Z</time></trkpt><trkpt lat="58.0602183379" lon="-5.0276398659"><ele>142.89</ele><time>2012-08-10T13:01:21Z</time></trkpt><trkpt lat="58.0606977828" lon="-5.0260495674"><ele>144.34</ele><time>2012-08-10T13:01:26Z</time></trkpt><trkpt lat="58.0614374857" lon="-5.0235774927"><ele>147.70</ele><time>2012-08-10T13:01:34Z</time></trkpt><trkpt lat="58.0617306009" lon="-5.0222236477"><ele>147.70</ele><time>2012-08-10T13:01:38Z</time></trkpt><trkpt lat="58.0617671460" lon="-5.0218367390"><ele>148.66</ele><time>2012-08-10T13:01:39Z</time></trkpt><trkpt lat="58.0620415695" lon="-5.0189023186"><ele>148.66</ele><time>2012-08-10T13:01:46Z</time></trkpt><trkpt lat="58.0626803543" lon="-5.0159435906"><ele>144.82</ele><time>2012-08-10T13:01:53Z</time></trkpt><trkpt lat="58.0628705397" lon="-5.0142651144"><ele>141.93</ele><time>2012-08-10T13:01:57Z</time></trkpt><trkpt lat="58.0628913268" lon="-5.0133789796"><ele>139.53</ele><time>2012-08-10T13:01:59Z</time></trkpt><trkpt lat="58.0628603138" lon="-5.0129443780"><ele>138.09</ele><time>2012-08-10T13:02:00Z</time></trkpt><trkpt lat="58.0628075078" lon="-5.0125190802"><ele>138.09</ele><time>2012-08-10T13:02:01Z</time></trkpt><trkpt lat="58.0622036755" lon="-5.0082525238"><ele>136.16</ele><time>2012-08-10T13:02:11Z</time></trkpt><trkpt lat="58.0621276516" lon="-5.0078583229"><ele>135.68</ele><time>2012-08-10T13:02:12Z</time></trkpt><trkpt lat="58.0620379653" lon="-5.0074802991"><ele>135.68</ele><time>2012-08-10T13:02:13Z</time></trkpt><trkpt lat="58.0617679004" lon="-5.0055380445"><ele>135.68</ele><time>2012-08-10T13:02:18Z</time></trkpt><trkpt lat="58.0617736839" lon="-5.0051378086"><ele>135.20</ele><time>2012-08-10T13:02:19Z</time></trkpt><trkpt lat="58.0618020147" lon="-5.0047340523"><ele>135.20</ele><time>2012-08-10T13:02:20Z</time></trkpt><trkpt lat="58.0618611071" lon="-5.0043408573"><ele>134.72</ele><time>2012-08-10T13:02:21Z</time></trkpt><trkpt lat="58.0619526375" lon="-5.0039630849"><ele>135.20</ele><time>2012-08-10T13:02:22Z</time></trkpt><trkpt lat="58.0620695651" lon="-5.0035957899"><ele>135.68</ele><time>2012-08-10T13:02:23Z</time></trkpt><trkpt lat="58.0621973891" lon="-5.0032338593"><ele>135.68</ele><time>2012-08-10T13:02:24Z</time></trkpt><trkpt lat="58.0625411309" lon="-5.0021211617"><ele>136.64</ele><time>2012-08-10T13:02:27Z</time></trkpt><trkpt lat="58.0626206752" lon="-5.0017218478"><ele>136.16</ele><time>2012-08-10T13:02:28Z</time></trkpt><trkpt lat="58.0626791809" lon="-5.0013075303"><ele>136.16</ele><time>2012-08-10T13:02:29Z</time></trkpt><trkpt lat="58.0628566258" lon="-4.9995160662"><ele>139.05</ele><time>2012-08-10T13:02:33Z</time></trkpt><trkpt lat="58.0629456416" lon="-4.9985612836"><ele>141.93</ele><time>2012-08-10T13:02:35Z</time></trkpt><trkpt lat="58.0629900657" lon="-4.9980713613"><ele>141.93</ele><time>2012-08-10T13:02:36Z</time></trkpt><trkpt lat="58.0633796565" lon="-4.9948244635"><ele>140.97</ele><time>2012-08-10T13:02:43Z</time></trkpt><trkpt lat="58.0634835083" lon="-4.9944133312"><ele>140.01</ele><time>2012-08-10T13:02:44Z</time></trkpt><trkpt lat="58.0637815688" lon="-4.9931878969"><ele>138.09</ele><time>2012-08-10T13:02:47Z</time></trkpt><trkpt lat="58.0638449360" lon="-4.9927634373"><ele>137.61</ele><time>2012-08-10T13:02:48Z</time></trkpt><trkpt lat="58.0638855044" lon="-4.9923248962"><ele>137.61</ele><time>2012-08-10T13:02:49Z</time></trkpt><trkpt lat="58.0639049504" lon="-4.9918757100"><ele>137.61</ele><time>2012-08-10T13:02:50Z</time></trkpt><trkpt lat="58.0639040284" lon="-4.9914220814"><ele>138.09</ele><time>2012-08-10T13:02:51Z</time></trkpt><trkpt lat="58.0638904497" lon="-4.9909687880"><ele>138.57</ele><time>2012-08-10T13:02:52Z</time></trkpt><trkpt lat="58.0638235621" lon="-4.9891484063"><ele>142.41</ele><time>2012-08-10T13:02:56Z</time></trkpt><trkpt lat="58.0637759529" lon="-4.9877611175"><ele>143.85</ele><time>2012-08-10T13:02:59Z</time></trkpt><trkpt lat="58.0638071336" lon="-4.9856155179"><ele>143.37</ele><time>2012-08-10T13:03:04Z</time></trkpt><trkpt lat="58.0638739374" lon="-4.9852313753"><ele>143.37</ele><time>2012-08-10T13:03:05Z</time></trkpt><trkpt lat="58.0639691558" lon="-4.9848609790"><ele>143.37</ele><time>2012-08-10T13:03:06Z</time></trkpt><trkpt lat="58.0640900228" lon="-4.9845065083"><ele>142.89</ele><time>2012-08-10T13:03:07Z</time></trkpt><trkpt lat="58.0642259773" lon="-4.9841707293"><ele>143.85</ele><time>2012-08-10T13:03:08Z</time></trkpt><trkpt lat="58.0643771868" lon="-4.9838406499"><ele>143.85</ele><time>2012-08-10T13:03:09Z</time></trkpt><trkpt lat="58.0655810796" lon="-4.9816315994"><ele>139.53</ele><time>2012-08-10T13:03:16Z</time></trkpt><trkpt lat="58.0657444429" lon="-4.9813334551"><ele>139.53</ele><time>2012-08-10T13:03:17Z</time></trkpt><trkpt lat="58.0660219677" lon="-4.9807231687"><ele>137.13</ele><time>2012-08-10T13:03:19Z</time></trkpt><trkpt lat="58.0661108997" lon="-4.9803894013"><ele>136.64</ele><time>2012-08-10T13:03:20Z</time></trkpt><trkpt lat="58.0661606882" lon="-4.9800288957"><ele>136.64</ele><time>2012-08-10T13:03:21Z</time></trkpt><trkpt lat="58.0661776196" lon="-4.9796409812"><ele>135.68</ele><time>2012-08-10T13:03:22Z</time></trkpt><trkpt lat="58.0661698245" lon="-4.9792243168"><ele>137.61</ele><time>2012-08-10T13:03:23Z</time></trkpt><trkpt lat="58.0661566649" lon="-4.9787934031"><ele>138.57</ele><time>2012-08-10T13:03:24Z</time></trkpt><trkpt lat="58.0661419965" lon="-4.9778781831"><ele>141.93</ele><time>2012-08-10T13:03:26Z</time></trkpt><trkpt lat="58.0661584251" lon="-4.9769054633"><ele>144.82</ele><time>2012-08-10T13:03:28Z</time></trkpt><trkpt lat="58.0661785416" lon="-4.9764122721"><ele>144.34</ele><time>2012-08-10T13:03:29Z</time></trkpt><trkpt lat="58.0662496202" lon="-4.9750171043"><ele>147.22</ele><time>2012-08-10T13:03:32Z</time></trkpt><trkpt lat="58.0663645361" lon="-4.9733644444"><ele>147.22</ele><time>2012-08-10T13:03:37Z</time></trkpt><trkpt lat="58.0664025899" lon="-4.9731336907"><ele>146.74</ele><time>2012-08-10T13:03:38Z</time></trkpt><trkpt lat="58.0666241236" lon="-4.9721176364"><ele>145.78</ele><time>2012-08-10T13:03:45Z</time></trkpt><trkpt lat="58.0666309129" lon="-4.9720142875"><ele>146.74</ele><time>2012-08-10T13:03:47Z</time></trkpt><trkpt lat="58.0666064378" lon="-4.9719375093"><ele>147.22</ele><time>2012-08-10T13:03:48Z</time></trkpt><trkpt lat="58.0665538833" lon="-4.9718595576"><ele>146.74</ele><time>2012-08-10T13:03:49Z</time></trkpt><trkpt lat="58.0664756801" lon="-4.9717776664"><ele>147.70</ele><time>2012-08-10T13:03:50Z</time></trkpt><trkpt lat="58.0663803779" lon="-4.9716990441"><ele>147.22</ele><time>2012-08-10T13:03:51Z</time></trkpt><trkpt lat="58.0662776995" lon="-4.9716186617"><ele>147.70</ele><time>2012-08-10T13:03:52Z</time></trkpt><trkpt lat="58.0652371701" lon="-4.9706214666"><ele>149.62</ele><time>2012-08-10T13:04:00Z</time></trkpt><trkpt lat="58.0641670525" lon="-4.9690708984"><ele>148.66</ele><time>2012-08-10T13:04:07Z</time></trkpt><trkpt lat="58.0617396533" lon="-4.9653630797"><ele>147.70</ele><time>2012-08-10T13:04:23Z</time></trkpt><trkpt lat="58.0613013636" lon="-4.9646338541"><ele>149.14</ele><time>2012-08-10T13:04:26Z</time></trkpt><trkpt lat="58.0606774148" lon="-4.9631822761"><ele>151.06</ele><time>2012-08-10T13:04:31Z</time></trkpt><trkpt lat="58.0595244840" lon="-4.9602466822"><ele>151.06</ele><time>2012-08-10T13:04:42Z</time></trkpt><trkpt lat="58.0586253572" lon="-4.9574526586"><ele>151.06</ele><time>2012-08-10T13:04:52Z</time></trkpt><trkpt lat="58.0573037826" lon="-4.9532250781"><ele>150.10</ele><time>2012-08-10T13:05:06Z</time></trkpt><trkpt lat="58.0568525847" lon="-4.9517126475"><ele>148.66</ele><time>2012-08-10T13:05:12Z</time></trkpt><trkpt lat="58.0566626508" lon="-4.9512040336"><ele>146.74</ele><time>2012-08-10T13:05:15Z</time></trkpt><trkpt lat="58.0566028878" lon="-4.9511030316"><ele>146.74</ele><time>2012-08-10T13:05:16Z</time></trkpt><trkpt lat="58.0565414485" lon="-4.9510149378"><ele>145.78</ele><time>2012-08-10T13:05:17Z</time></trkpt><trkpt lat="58.0556670483" lon="-4.9498497695"><ele>145.78</ele><time>2012-08-10T13:05:29Z</time></trkpt><trkpt lat="58.0553354602" lon="-4.9492908642"><ele>145.30</ele><time>2012-08-10T13:05:36Z</time></trkpt><trkpt lat="58.0547505710" lon="-4.9480666034"><ele>145.78</ele><time>2012-08-10T13:05:45Z</time></trkpt><trkpt lat="58.0545226671" lon="-4.9475771841"><ele>144.82</ele><time>2012-08-10T13:05:51Z</time></trkpt><trkpt lat="58.0545235891" lon="-4.9475720711"><ele>144.82</ele><time>2012-08-10T13:06:07Z</time></trkpt><trkpt lat="58.0545188114" lon="-4.9475586601"><ele>144.34</ele><time>2012-08-10T13:06:27Z</time></trkpt><trkpt lat="58.0545206554" lon="-4.9475117214"><ele>144.82</ele><time>2012-08-10T13:06:28Z</time></trkpt><trkpt lat="58.0545175541" lon="-4.9474329315"><ele>144.82</ele><time>2012-08-10T13:06:29Z</time></trkpt><trkpt lat="58.0544978566" lon="-4.9473231286"><ele>145.30</ele><time>2012-08-10T13:06:30Z</time></trkpt><trkpt lat="58.0544628203" lon="-4.9471940473"><ele>145.78</ele><time>2012-08-10T13:06:31Z</time></trkpt><trkpt lat="58.0544238444" lon="-4.9470547400"><ele>146.26</ele><time>2012-08-10T13:06:32Z</time></trkpt><trkpt lat="58.0540435575" lon="-4.9458941817"><ele>148.18</ele><time>2012-08-10T13:06:38Z</time></trkpt><trkpt lat="58.0538448226" lon="-4.9454549700"><ele>149.14</ele><time>2012-08-10T13:06:40Z</time></trkpt><trkpt lat="58.0531942192" lon="-4.9435113743"><ele>148.18</ele><time>2012-08-10T13:06:48Z</time></trkpt><trkpt lat="58.0530314427" lon="-4.9427076336"><ele>147.22</ele><time>2012-08-10T13:06:51Z</time></trkpt><trkpt lat="58.0526510719" lon="-4.9403316155"><ele>145.78</ele><time>2012-08-10T13:07:01Z</time></trkpt><trkpt lat="58.0520247761" lon="-4.9380632211"><ele>148.18</ele><time>2012-08-10T13:07:11Z</time></trkpt><trkpt lat="58.0509787146" lon="-4.9348677043"><ele>148.66</ele><time>2012-08-10T13:07:23Z</time></trkpt><trkpt lat="58.0508573446" lon="-4.9346175883"><ele>148.18</ele><time>2012-08-10T13:07:24Z</time></trkpt><trkpt lat="58.0507244077" lon="-4.9343876727"><ele>148.18</ele><time>2012-08-10T13:07:25Z</time></trkpt><trkpt lat="58.0505851842" lon="-4.9341843277"><ele>148.66</ele><time>2012-08-10T13:07:26Z</time></trkpt><trkpt lat="58.0504488945" lon="-4.9340156000"><ele>147.70</ele><time>2012-08-10T13:07:27Z</time></trkpt><trkpt lat="58.0503232498" lon="-4.9338762090"><ele>147.22</ele><time>2012-08-10T13:07:28Z</time></trkpt><trkpt lat="58.0500076711" lon="-4.9335474707"><ele>146.74</ele><time>2012-08-10T13:07:31Z</time></trkpt><trkpt lat="58.0494803656" lon="-4.9330348335"><ele>149.14</ele><time>2012-08-10T13:07:35Z</time></trkpt><trkpt lat="58.0488545727" lon="-4.9323012494"><ele>152.03</ele><time>2012-08-10T13:07:39Z</time></trkpt><trkpt lat="58.0486962385" lon="-4.9320877623"><ele>152.03</ele><time>2012-08-10T13:07:40Z</time></trkpt><trkpt lat="58.0474747438" lon="-4.9300874211"><ele>152.03</ele><time>2012-08-10T13:07:49Z</time></trkpt><trkpt lat="58.0473862309" lon="-4.9298520572"><ele>152.51</ele><time>2012-08-10T13:07:50Z</time></trkpt><trkpt lat="58.0473014899" lon="-4.9295879435"><ele>152.99</ele><time>2012-08-10T13:07:51Z</time></trkpt><trkpt lat="58.0472213589" lon="-4.9292904697"><ele>153.95</ele><time>2012-08-10T13:07:52Z</time></trkpt><trkpt lat="58.0471485201" lon="-4.9289553612"><ele>154.91</ele><time>2012-08-10T13:07:53Z</time></trkpt><trkpt lat="58.0470806267" lon="-4.9285916705"><ele>155.39</ele><time>2012-08-10T13:07:54Z</time></trkpt><trkpt lat="58.0467151757" lon="-4.9265688658"><ele>155.87</ele><time>2012-08-10T13:08:00Z</time></trkpt><trkpt lat="58.0466241483" lon="-4.9262707215"><ele>155.87</ele><time>2012-08-10T13:08:01Z</time></trkpt><trkpt lat="58.0465193745" lon="-4.9259854015"><ele>156.35</ele><time>2012-08-10T13:08:02Z</time></trkpt><trkpt lat="58.0457255244" lon="-4.9235900212"><ele>159.24</ele><time>2012-08-10T13:08:10Z</time></trkpt><trkpt lat="58.0445106514" lon="-4.9188648909"><ele>158.75</ele><time>2012-08-10T13:08:23Z</time></trkpt><trkpt lat="58.0441159476" lon="-4.9176073540"><ele>160.20</ele><time>2012-08-10T13:08:28Z</time></trkpt><trkpt lat="58.0438846909" lon="-4.9168449361"><ele>163.08</ele><time>2012-08-10T13:08:31Z</time></trkpt><trkpt lat="58.0438006204" lon="-4.9165754579"><ele>163.56</ele><time>2012-08-10T13:08:32Z</time></trkpt><trkpt lat="58.0434986204" lon="-4.9153599981"><ele>165.00</ele><time>2012-08-10T13:08:36Z</time></trkpt><trkpt lat="58.0430381186" lon="-4.9118122738"><ele>165.96</ele><time>2012-08-10T13:08:46Z</time></trkpt><trkpt lat="58.0429525394" lon="-4.9089303240"><ele>164.04</ele><time>2012-08-10T13:08:54Z</time></trkpt><trkpt lat="58.0428801198" lon="-4.9081778806"><ele>162.60</ele><time>2012-08-10T13:08:56Z</time></trkpt><trkpt lat="58.0428089574" lon="-4.9078170396"><ele>161.64</ele><time>2012-08-10T13:08:57Z</time></trkpt><trkpt lat="58.0427153315" lon="-4.9074728787"><ele>161.64</ele><time>2012-08-10T13:08:58Z</time></trkpt><trkpt lat="58.0419172067" lon="-4.9046658631"><ele>160.20</ele><time>2012-08-10T13:09:06Z</time></trkpt><trkpt lat="58.0411008932" lon="-4.9023900926"><ele>160.68</ele><time>2012-08-10T13:09:13Z</time></trkpt><trkpt lat="58.0395726208" lon="-4.8999169283"><ele>163.08</ele><time>2012-08-10T13:09:23Z</time></trkpt><trkpt lat="58.0378867686" lon="-4.8972462025"><ele>160.20</ele><time>2012-08-10T13:09:34Z</time></trkpt><trkpt lat="58.0375804100" lon="-4.8967508320"><ele>159.24</ele><time>2012-08-10T13:09:36Z</time></trkpt><trkpt lat="58.0367603246" lon="-4.8954638746"><ele>158.75</ele><time>2012-08-10T13:09:42Z</time></trkpt><trkpt lat="58.0357185379" lon="-4.8935240507"><ele>158.27</ele><time>2012-08-10T13:09:50Z</time></trkpt><trkpt lat="58.0350409448" lon="-4.8922119476"><ele>160.68</ele><time>2012-08-10T13:09:54Z</time></trkpt><trkpt lat="58.0339053646" lon="-4.8900554515"><ele>158.27</ele><time>2012-08-10T13:10:02Z</time></trkpt><trkpt lat="58.0328237638" lon="-4.8885889538"><ele>159.72</ele><time>2012-08-10T13:10:10Z</time></trkpt><trkpt lat="58.0319607630" lon="-4.8879822716"><ele>163.08</ele><time>2012-08-10T13:10:16Z</time></trkpt><trkpt lat="58.0315273348" lon="-4.8877145536"><ele>165.00</ele><time>2012-08-10T13:10:19Z</time></trkpt><trkpt lat="58.0313904583" lon="-4.8875907529"><ele>165.48</ele><time>2012-08-10T13:10:20Z</time></trkpt><trkpt lat="58.0312655680" lon="-4.8874314968"><ele>165.48</ele><time>2012-08-10T13:10:21Z</time></trkpt><trkpt lat="58.0311566871" lon="-4.8872323427"><ele>165.00</ele><time>2012-08-10T13:10:22Z</time></trkpt><trkpt lat="58.0310613010" lon="-4.8870067857"><ele>165.96</ele><time>2012-08-10T13:10:23Z</time></trkpt><trkpt lat="58.0309773143" lon="-4.8867682368"><ele>166.93</ele><time>2012-08-10T13:10:24Z</time></trkpt><trkpt lat="58.0302846339" lon="-4.8841777258"><ele>167.41</ele><time>2012-08-10T13:10:34Z</time></trkpt><trkpt lat="58.0298337713" lon="-4.8822824098"><ele>170.29</ele><time>2012-08-10T13:10:40Z</time></trkpt><trkpt lat="58.0289732013" lon="-4.8797371611"><ele>171.73</ele><time>2012-08-10T13:10:48Z</time></trkpt><trkpt lat="58.0278346874" lon="-4.8767113779"><ele>169.33</ele><time>2012-08-10T13:10:58Z</time></trkpt><trkpt lat="58.0270752031" lon="-4.8748236056"><ele>168.37</ele><time>2012-08-10T13:11:05Z</time></trkpt><trkpt lat="58.0269376561" lon="-4.8746098671"><ele>168.37</ele><time>2012-08-10T13:11:06Z</time></trkpt><trkpt lat="58.0254510418" lon="-4.8724769242"><ele>168.85</ele><time>2012-08-10T13:11:16Z</time></trkpt><trkpt lat="58.0253367126" lon="-4.8722382076"><ele>167.89</ele><time>2012-08-10T13:11:17Z</time></trkpt><trkpt lat="58.0252342019" lon="-4.8719803803"><ele>167.41</ele><time>2012-08-10T13:11:18Z</time></trkpt><trkpt lat="58.0251429230" lon="-4.8717122432"><ele>166.93</ele><time>2012-08-10T13:11:19Z</time></trkpt><trkpt lat="58.0250617024" lon="-4.8714303598"><ele>166.93</ele><time>2012-08-10T13:11:20Z</time></trkpt><trkpt lat="58.0249921326" lon="-4.8711292818"><ele>166.45</ele><time>2012-08-10T13:11:21Z</time></trkpt><trkpt lat="58.0249327887" lon="-4.8708093446"><ele>166.93</ele><time>2012-08-10T13:11:22Z</time></trkpt><trkpt lat="58.0248797312" lon="-4.8704730626"><ele>166.93</ele><time>2012-08-10T13:11:23Z</time></trkpt><trkpt lat="58.0246676691" lon="-4.8687003739"><ele>164.52</ele><time>2012-08-10T13:11:28Z</time></trkpt><trkpt lat="58.0244859494" lon="-4.8674678989"><ele>162.12</ele><time>2012-08-10T13:11:32Z</time></trkpt><trkpt lat="58.0244098417" lon="-4.8672264162"><ele>161.64</ele><time>2012-08-10T13:11:33Z</time></trkpt><trkpt lat="58.0243246816" lon="-4.8670232389"><ele>161.16</ele><time>2012-08-10T13:11:34Z</time></trkpt><trkpt lat="58.0242332350" lon="-4.8668618035"><ele>160.20</ele><time>2012-08-10T13:11:35Z</time></trkpt><trkpt lat="58.0241312273" lon="-4.8667378351"><ele>159.72</ele><time>2012-08-10T13:11:36Z</time></trkpt><trkpt lat="58.0240142159" lon="-4.8666324746"><ele>159.72</ele><time>2012-08-10T13:11:37Z</time></trkpt><trkpt lat="58.0238812789" lon="-4.8665328976"><ele>160.20</ele><time>2012-08-10T13:11:38Z</time></trkpt><trkpt lat="58.0226395838" lon="-4.8656969704"><ele>159.72</ele><time>2012-08-10T13:11:47Z</time></trkpt><trkpt lat="58.0223282799" lon="-4.8654794600"><ele>160.68</ele><time>2012-08-10T13:11:49Z</time></trkpt><trkpt lat="58.0216679536" lon="-4.8649379890"><ele>159.72</ele><time>2012-08-10T13:11:53Z</time></trkpt><trkpt lat="58.0210492853" lon="-4.8643509205"><ele>157.79</ele><time>2012-08-10T13:11:57Z</time></trkpt><trkpt lat="58.0202353187" lon="-4.8636217788"><ele>160.20</ele><time>2012-08-10T13:12:02Z</time></trkpt><trkpt lat="58.0199152138" lon="-4.8633222096"><ele>163.08</ele><time>2012-08-10T13:12:04Z</time></trkpt><trkpt lat="58.0194477551" lon="-4.8627813254"><ele>166.45</ele><time>2012-08-10T13:12:07Z</time></trkpt><trkpt lat="58.0188632850" lon="-4.8618788458"><ele>170.29</ele><time>2012-08-10T13:12:11Z</time></trkpt><trkpt lat="58.0181591213" lon="-4.8608375620"><ele>173.66</ele><time>2012-08-10T13:12:16Z</time></trkpt><trkpt lat="58.0175080150" lon="-4.8602528404"><ele>175.58</ele><time>2012-08-10T13:12:20Z</time></trkpt><trkpt lat="58.0159582850" lon="-4.8589623626"><ele>177.98</ele><time>2012-08-10T13:12:30Z</time></trkpt><trkpt lat="58.0151431449" lon="-4.8578465637"><ele>180.38</ele><time>2012-08-10T13:12:36Z</time></trkpt><trkpt lat="58.0146992393" lon="-4.8568733409"><ele>182.79</ele><time>2012-08-10T13:12:40Z</time></trkpt><trkpt lat="58.0140222330" lon="-4.8552738223"><ele>180.38</ele><time>2012-08-10T13:12:47Z</time></trkpt><trkpt lat="58.0134820193" lon="-4.8537006229"><ele>179.90</ele><time>2012-08-10T13:12:55Z</time></trkpt><trkpt lat="58.0132863019" lon="-4.8531218525"><ele>180.87</ele><time>2012-08-10T13:12:57Z</time></trkpt><trkpt lat="58.0127501115" lon="-4.8512795102"><ele>180.38</ele><time>2012-08-10T13:13:03Z</time></trkpt><trkpt lat="58.0127014127" lon="-4.8509376962"><ele>179.90</ele><time>2012-08-10T13:13:04Z</time></trkpt><trkpt lat="58.0126700643" lon="-4.8505732510"><ele>179.90</ele><time>2012-08-10T13:13:05Z</time></trkpt><trkpt lat="58.0123240594" lon="-4.8474581167"><ele>177.02</ele><time>2012-08-10T13:13:13Z</time></trkpt><trkpt lat="58.0116002820" lon="-4.8450512532"><ele>177.02</ele><time>2012-08-10T13:13:20Z</time></trkpt><trkpt lat="58.0110365152" lon="-4.8438503779"><ele>175.58</ele><time>2012-08-10T13:13:24Z</time></trkpt><trkpt lat="58.0102404859" lon="-4.8426464014"><ele>172.21</ele><time>2012-08-10T13:13:29Z</time></trkpt><trkpt lat="58.0100891925" lon="-4.8424388655"><ele>172.21</ele><time>2012-08-10T13:13:30Z</time></trkpt><trkpt lat="58.0096805748" lon="-4.8417917825"><ele>171.25</ele><time>2012-08-10T13:13:33Z</time></trkpt><trkpt lat="58.0095675867" lon="-4.8415399063"><ele>170.29</ele><time>2012-08-10T13:13:34Z</time></trkpt><trkpt lat="58.0085034203" lon="-4.8383658472"><ele>169.33</ele><time>2012-08-10T13:13:45Z</time></trkpt><trkpt lat="58.0081217084" lon="-4.8373046983"><ele>167.41</ele><time>2012-08-10T13:13:49Z</time></trkpt><trkpt lat="58.0069777463" lon="-4.8349203821"><ele>165.48</ele><time>2012-08-10T13:14:00Z</time></trkpt><trkpt lat="58.0067632534" lon="-4.8345184699"><ele>164.52</ele><time>2012-08-10T13:14:02Z</time></trkpt><trkpt lat="58.0066710524" lon="-4.8342940863"><ele>165.00</ele><time>2012-08-10T13:14:03Z</time></trkpt><trkpt lat="58.0065894127" lon="-4.8340559565"><ele>165.48</ele><time>2012-08-10T13:14:04Z</time></trkpt><trkpt lat="58.0057791341" lon="-4.8316174932"><ele>165.96</ele><time>2012-08-10T13:14:14Z</time></trkpt><trkpt lat="58.0054277647" lon="-4.8307292629"><ele>163.56</ele><time>2012-08-10T13:14:18Z</time></trkpt><trkpt lat="58.0053250026" lon="-4.8305508122"><ele>162.60</ele><time>2012-08-10T13:14:19Z</time></trkpt><trkpt lat="58.0052161217" lon="-4.8304009438"><ele>162.12</ele><time>2012-08-10T13:14:20Z</time></trkpt><trkpt lat="58.0051028822" lon="-4.8302752990"><ele>161.64</ele><time>2012-08-10T13:14:21Z</time></trkpt><trkpt lat="58.0049847811" lon="-4.8301625624"><ele>161.16</ele><time>2012-08-10T13:14:22Z</time></trkpt><trkpt lat="58.0044414662" lon="-4.8296538647"><ele>159.24</ele><time>2012-08-10T13:14:27Z</time></trkpt><trkpt lat="58.0043776799" lon="-4.8296158109"><ele>158.75</ele><time>2012-08-10T13:14:28Z</time></trkpt><trkpt lat="58.0043325853" lon="-4.8296080995"><ele>158.27</ele><time>2012-08-10T13:14:29Z</time></trkpt><trkpt lat="58.0043003149" lon="-4.8296054173"><ele>158.27</ele><time>2012-08-10T13:14:30Z</time></trkpt><trkpt lat="58.0042791925" lon="-4.8295968678"><ele>158.27</ele><time>2012-08-10T13:14:31Z</time></trkpt><trkpt lat="58.0042707268" lon="-4.8295744043"><ele>158.27</ele><time>2012-08-10T13:14:32Z</time></trkpt><trkpt lat="58.0042698048" lon="-4.8295764998"><ele>158.27</ele><time>2012-08-10T13:14:42Z</time></trkpt><trkpt lat="58.0042755045" lon="-4.8295702133"><ele>158.27</ele><time>2012-08-10T13:15:20Z</time></trkpt><trkpt lat="58.0042671226" lon="-4.8295832053"><ele>158.27</ele><time>2012-08-10T13:15:59Z</time></trkpt><trkpt lat="58.0041929428" lon="-4.8294025753"><ele>158.75</ele><time>2012-08-10T13:16:31Z</time></trkpt><trkpt lat="58.0037530605" lon="-4.8286220524"><ele>160.20</ele><time>2012-08-10T13:16:37Z</time></trkpt><trkpt lat="58.0032510683" lon="-4.8276741430"><ele>162.60</ele><time>2012-08-10T13:16:42Z</time></trkpt><trkpt lat="58.0021625105" lon="-4.8260326311"><ele>164.04</ele><time>2012-08-10T13:16:51Z</time></trkpt><trkpt lat="58.0005649198" lon="-4.8239137698"><ele>162.60</ele><time>2012-08-10T13:17:03Z</time></trkpt><trkpt lat="57.9999509454" lon="-4.8232768290"><ele>160.20</ele><time>2012-08-10T13:17:07Z</time></trkpt><trkpt lat="57.9981985409" lon="-4.8220496345"><ele>159.24</ele><time>2012-08-10T13:17:17Z</time></trkpt><trkpt lat="57.9965154547" lon="-4.8203843180"><ele>157.79</ele><time>2012-08-10T13:17:27Z</time></trkpt><trkpt lat="57.9949425068" lon="-4.8192851152"><ele>158.27</ele><time>2012-08-10T13:17:36Z</time></trkpt><trkpt lat="57.9938211758" lon="-4.8178806435"><ele>155.39</ele><time>2012-08-10T13:17:43Z</time></trkpt><trkpt lat="57.9928117432" lon="-4.8168300558"><ele>152.03</ele><time>2012-08-10T13:17:49Z</time></trkpt><trkpt lat="57.9917368479" lon="-4.8160714097"><ele>149.62</ele><time>2012-08-10T13:17:55Z</time></trkpt><trkpt lat="57.9910438322" lon="-4.8157093115"><ele>147.22</ele><time>2012-08-10T13:17:59Z</time></trkpt><trkpt lat="57.9908909462" lon="-4.8156016879"><ele>147.22</ele><time>2012-08-10T13:18:00Z</time></trkpt><trkpt lat="57.9907480348" lon="-4.8154598661"><ele>146.26</ele><time>2012-08-10T13:18:01Z</time></trkpt><trkpt lat="57.9906081408" lon="-4.8152821697"><ele>146.26</ele><time>2012-08-10T13:18:02Z</time></trkpt><trkpt lat="57.9904709291" lon="-4.8150658328"><ele>146.74</ele><time>2012-08-10T13:18:03Z</time></trkpt><trkpt lat="57.9903372377" lon="-4.8148172256"><ele>146.74</ele><time>2012-08-10T13:18:04Z</time></trkpt><trkpt lat="57.9902071506" lon="-4.8145438079"><ele>146.74</ele><time>2012-08-10T13:18:05Z</time></trkpt><trkpt lat="57.9888501205" lon="-4.8118203599"><ele>143.85</ele><time>2012-08-10T13:18:15Z</time></trkpt><trkpt lat="57.9879406840" lon="-4.8106258549"><ele>140.97</ele><time>2012-08-10T13:18:21Z</time></trkpt><trkpt lat="57.9874177370" lon="-4.8101295624"><ele>138.09</ele><time>2012-08-10T13:18:25Z</time></trkpt><trkpt lat="57.9866811354" lon="-4.8094962258"><ele>136.64</ele><time>2012-08-10T13:18:30Z</time></trkpt><trkpt lat="57.9865354579" lon="-4.8092991672"><ele>136.16</ele><time>2012-08-10T13:18:31Z</time></trkpt><trkpt lat="57.9858101718" lon="-4.8081615753"><ele>132.80</ele><time>2012-08-10T13:18:36Z</time></trkpt><trkpt lat="57.9853615724" lon="-4.8074607644"><ele>129.43</ele><time>2012-08-10T13:18:39Z</time></trkpt><trkpt lat="57.9848034214" lon="-4.8065105081"><ele>127.03</ele><time>2012-08-10T13:18:43Z</time></trkpt><trkpt lat="57.9842690751" lon="-4.8049653880"><ele>124.63</ele><time>2012-08-10T13:18:48Z</time></trkpt><trkpt lat="57.9840075597" lon="-4.8039104417"><ele>121.74</ele><time>2012-08-10T13:18:51Z</time></trkpt><trkpt lat="57.9836916458" lon="-4.8025040422"><ele>117.90</ele><time>2012-08-10T13:18:55Z</time></trkpt><trkpt lat="57.9834159650" lon="-4.8011245485"><ele>114.53</ele><time>2012-08-10T13:18:59Z</time></trkpt><trkpt lat="57.9832026456" lon="-4.8000903055"><ele>112.13</ele><time>2012-08-10T13:19:02Z</time></trkpt><trkpt lat="57.9829642642" lon="-4.7990862373"><ele>109.25</ele><time>2012-08-10T13:19:05Z</time></trkpt><trkpt lat="57.9826945346" lon="-4.7981358971"><ele>105.88</ele><time>2012-08-10T13:19:08Z</time></trkpt><trkpt lat="57.9822255671" lon="-4.7969160788"><ele>101.08</ele><time>2012-08-10T13:19:12Z</time></trkpt><trkpt lat="57.9820985813" lon="-4.7966132406"><ele>101.08</ele><time>2012-08-10T13:19:13Z</time></trkpt><trkpt lat="57.9817249160" lon="-4.7956791613"><ele>99.15</ele><time>2012-08-10T13:19:16Z</time></trkpt><trkpt lat="57.9812581278" lon="-4.7943600174"><ele>96.27</ele><time>2012-08-10T13:19:20Z</time></trkpt><trkpt lat="57.9808006436" lon="-4.7930322401"><ele>92.90</ele><time>2012-08-10T13:19:24Z</time></trkpt><trkpt lat="57.9803421535" lon="-4.7917244956"><ele>90.02</ele><time>2012-08-10T13:19:28Z</time></trkpt><trkpt lat="57.9797144327" lon="-4.7903018352"><ele>86.66</ele><time>2012-08-10T13:19:33Z</time></trkpt><trkpt lat="57.9788597301" lon="-4.7889105231"><ele>82.81</ele><time>2012-08-10T13:19:39Z</time></trkpt><trkpt lat="57.9784628469" lon="-4.7882548906"><ele>78.97</ele><time>2012-08-10T13:19:42Z</time></trkpt><trkpt lat="57.9780101404" lon="-4.7875252459"><ele>75.60</ele><time>2012-08-10T13:19:46Z</time></trkpt><trkpt lat="57.9777850024" lon="-4.7871500719"><ele>74.64</ele><time>2012-08-10T13:19:48Z</time></trkpt><trkpt lat="57.9774928931" lon="-4.7866668552"><ele>71.76</ele><time>2012-08-10T13:19:51Z</time></trkpt><trkpt lat="57.9768530186" lon="-4.7856515553"><ele>69.83</ele><time>2012-08-10T13:19:57Z</time></trkpt><trkpt lat="57.9767303914" lon="-4.7855431773"><ele>69.83</ele><time>2012-08-10T13:19:58Z</time></trkpt><trkpt lat="57.9765925929" lon="-4.7854747809"><ele>69.83</ele><time>2012-08-10T13:19:59Z</time></trkpt><trkpt lat="57.9764371086" lon="-4.7854361404"><ele>70.79</ele><time>2012-08-10T13:20:00Z</time></trkpt><trkpt lat="57.9762657825" lon="-4.7854135931"><ele>71.76</ele><time>2012-08-10T13:20:01Z</time></trkpt><trkpt lat="57.9748700280" lon="-4.7848417796"><ele>69.35</ele><time>2012-08-10T13:20:09Z</time></trkpt><trkpt lat="57.9744956922" lon="-4.7844823636"><ele>69.35</ele><time>2012-08-10T13:20:12Z</time></trkpt><trkpt lat="57.9744247813" lon="-4.7843161505"><ele>69.83</ele><time>2012-08-10T13:20:13Z</time></trkpt><trkpt lat="57.9743937682" lon="-4.7841199301"><ele>70.31</ele><time>2012-08-10T13:20:14Z</time></trkpt><trkpt lat="57.9743880685" lon="-4.7838990670"><ele>71.27</ele><time>2012-08-10T13:20:15Z</time></trkpt><trkpt lat="57.9743840452" lon="-4.7836597636"><ele>72.24</ele><time>2012-08-10T13:20:16Z</time></trkpt><trkpt lat="57.9743682034" lon="-4.7834023554"><ele>72.72</ele><time>2012-08-10T13:20:17Z</time></trkpt><trkpt lat="57.9743314907" lon="-4.7831303626"><ele>72.72</ele><time>2012-08-10T13:20:18Z</time></trkpt><trkpt lat="57.9742665309" lon="-4.7828477249"><ele>73.20</ele><time>2012-08-10T13:20:19Z</time></trkpt><trkpt lat="57.9741809517" lon="-4.7825691104"><ele>73.20</ele><time>2012-08-10T13:20:20Z</time></trkpt><trkpt lat="57.9740878288" lon="-4.7823012248"><ele>72.24</ele><time>2012-08-10T13:20:21Z</time></trkpt><trkpt lat="57.9739921913" lon="-4.7820326686"><ele>72.24</ele><time>2012-08-10T13:20:22Z</time></trkpt><trkpt lat="57.9736314341" lon="-4.7809796501"><ele>72.24</ele><time>2012-08-10T13:20:26Z</time></trkpt><trkpt lat="57.9735979065" lon="-4.7807286959"><ele>71.76</ele><time>2012-08-10T13:20:27Z</time></trkpt><trkpt lat="57.9736101441" lon="-4.7804960981"><ele>72.24</ele><time>2012-08-10T13:20:28Z</time></trkpt><trkpt lat="57.9736501258" lon="-4.7802870534"><ele>71.76</ele><time>2012-08-10T13:20:29Z</time></trkpt><trkpt lat="57.9736909457" lon="-4.7800785955"><ele>73.68</ele><time>2012-08-10T13:20:30Z</time></trkpt><trkpt lat="57.9737137444" lon="-4.7798478417"><ele>74.16</ele><time>2012-08-10T13:20:31Z</time></trkpt><trkpt lat="57.9737120681" lon="-4.7795953788"><ele>74.16</ele><time>2012-08-10T13:20:32Z</time></trkpt><trkpt lat="57.9736904427" lon="-4.7793199494"><ele>74.64</ele><time>2012-08-10T13:20:33Z</time></trkpt><trkpt lat="57.9736663029" lon="-4.7790216375"><ele>75.12</ele><time>2012-08-10T13:20:34Z</time></trkpt><trkpt lat="57.9736528918" lon="-4.7787109204"><ele>75.12</ele><time>2012-08-10T13:20:35Z</time></trkpt><trkpt lat="57.9736523889" lon="-4.7783946712"><ele>75.60</ele><time>2012-08-10T13:20:36Z</time></trkpt><trkpt lat="57.9736612737" lon="-4.7780792601"><ele>75.12</ele><time>2012-08-10T13:20:37Z</time></trkpt><trkpt lat="57.9735431727" lon="-4.7762193996"><ele>73.20</ele><time>2012-08-10T13:20:43Z</time></trkpt><trkpt lat="57.9734808952" lon="-4.7759356722"><ele>72.72</ele><time>2012-08-10T13:20:44Z</time></trkpt><trkpt lat="57.9734021053" lon="-4.7756626736"><ele>72.24</ele><time>2012-08-10T13:20:45Z</time></trkpt><trkpt lat="57.9733121675" lon="-4.7753977217"><ele>71.76</ele><time>2012-08-10T13:20:46Z</time></trkpt><trkpt lat="57.9732146021" lon="-4.7751359548"><ele>70.79</ele><time>2012-08-10T13:20:47Z</time></trkpt><trkpt lat="57.9729963373" lon="-4.7746422607"><ele>69.83</ele><time>2012-08-10T13:20:49Z</time></trkpt><trkpt lat="57.9728735425" lon="-4.7744277678"><ele>69.83</ele><time>2012-08-10T13:20:50Z</time></trkpt><trkpt lat="57.9727482330" lon="-4.7742328048"><ele>69.35</ele><time>2012-08-10T13:20:51Z</time></trkpt><trkpt lat="57.9725199938" lon="-4.7738608997"><ele>69.35</ele><time>2012-08-10T13:20:53Z</time></trkpt><trkpt lat="57.9724292178" lon="-4.7736360133"><ele>68.87</ele><time>2012-08-10T13:20:54Z</time></trkpt><trkpt lat="57.9723609891" lon="-4.7733691335"><ele>68.87</ele><time>2012-08-10T13:20:55Z</time></trkpt><trkpt lat="57.9723184090" lon="-4.7730762698"><ele>69.83</ele><time>2012-08-10T13:20:56Z</time></trkpt><trkpt lat="57.9722990468" lon="-4.7727751918"><ele>70.31</ele><time>2012-08-10T13:20:57Z</time></trkpt><trkpt lat="57.9722951073" lon="-4.7724756226"><ele>71.27</ele><time>2012-08-10T13:20:58Z</time></trkpt><trkpt lat="57.9723024834" lon="-4.7721751314"><ele>71.76</ele><time>2012-08-10T13:20:59Z</time></trkpt><trkpt lat="57.9723163974" lon="-4.7718752269"><ele>71.76</ele><time>2012-08-10T13:21:00Z</time></trkpt><trkpt lat="57.9723446444" lon="-4.7709591687"><ele>73.68</ele><time>2012-08-10T13:21:03Z</time></trkpt><trkpt lat="57.9722541198" lon="-4.7697558627"><ele>74.16</ele><time>2012-08-10T13:21:07Z</time></trkpt><trkpt lat="57.9721950274" lon="-4.7694826964"><ele>73.20</ele><time>2012-08-10T13:21:08Z</time></trkpt><trkpt lat="57.9721148964" lon="-4.7692297306"><ele>73.20</ele><time>2012-08-10T13:21:09Z</time></trkpt><trkpt lat="57.9719444923" lon="-4.7687285766"><ele>73.68</ele><time>2012-08-10T13:21:11Z</time></trkpt><trkpt lat="57.9718821310" lon="-4.7684468608"><ele>73.68</ele><time>2012-08-10T13:21:12Z</time></trkpt><trkpt lat="57.9718361143" lon="-4.7681370657"><ele>74.64</ele><time>2012-08-10T13:21:13Z</time></trkpt><trkpt lat="57.9716804624" lon="-4.7671720572"><ele>75.12</ele><time>2012-08-10T13:21:16Z</time></trkpt><trkpt lat="57.9715999123" lon="-4.7668553051"><ele>76.08</ele><time>2012-08-10T13:21:17Z</time></trkpt><trkpt lat="57.9709777236" lon="-4.7641733475"><ele>77.04</ele><time>2012-08-10T13:21:25Z</time></trkpt><trkpt lat="57.9706329759" lon="-4.7614412662"><ele>75.12</ele><time>2012-08-10T13:21:33Z</time></trkpt><trkpt lat="57.9706105962" lon="-4.7607921716"><ele>73.68</ele><time>2012-08-10T13:21:35Z</time></trkpt><trkpt lat="57.9706312995" lon="-4.7604887467"><ele>73.20</ele><time>2012-08-10T13:21:36Z</time></trkpt><trkpt lat="57.9706768971" lon="-4.7601989005"><ele>72.72</ele><time>2012-08-10T13:21:37Z</time></trkpt><trkpt lat="57.9707784858" lon="-4.7596202139"><ele>71.76</ele><time>2012-08-10T13:21:39Z</time></trkpt><trkpt lat="57.9708045535" lon="-4.7593131009"><ele>71.76</ele><time>2012-08-10T13:21:40Z</time></trkpt><trkpt lat="57.9708085768" lon="-4.7589870449"><ele>72.24</ele><time>2012-08-10T13:21:41Z</time></trkpt><trkpt lat="57.9709008615" lon="-4.7564005572"><ele>68.87</ele><time>2012-08-10T13:21:49Z</time></trkpt><trkpt lat="57.9708942398" lon="-4.7560684662"><ele>68.87</ele><time>2012-08-10T13:21:50Z</time></trkpt><trkpt lat="57.9708711058" lon="-4.7557335254"><ele>68.39</ele><time>2012-08-10T13:21:51Z</time></trkpt><trkpt lat="57.9708296992" lon="-4.7554023564"><ele>66.95</ele><time>2012-08-10T13:21:52Z</time></trkpt><trkpt lat="57.9707795754" lon="-4.7550755460"><ele>66.47</ele><time>2012-08-10T13:21:53Z</time></trkpt><trkpt lat="57.9706954211" lon="-4.7540791892"><ele>62.62</ele><time>2012-08-10T13:21:56Z</time></trkpt><trkpt lat="57.9706235882" lon="-4.7530880291"><ele>61.18</ele><time>2012-08-10T13:21:59Z</time></trkpt><trkpt lat="57.9705619812" lon="-4.7527642362"><ele>61.18</ele><time>2012-08-10T13:22:00Z</time></trkpt><trkpt lat="57.9704821017" lon="-4.7524497472"><ele>60.70</ele><time>2012-08-10T13:22:01Z</time></trkpt><trkpt lat="57.9701174889" lon="-4.7512838244"><ele>59.74</ele><time>2012-08-10T13:22:05Z</time></trkpt><trkpt lat="57.9700616654" lon="-4.7509847581"><ele>59.74</ele><time>2012-08-10T13:22:06Z</time></trkpt><trkpt lat="57.9700258747" lon="-4.7506644018"><ele>59.74</ele><time>2012-08-10T13:22:07Z</time></trkpt><trkpt lat="57.9700032435" lon="-4.7503225040"><ele>60.22</ele><time>2012-08-10T13:22:08Z</time></trkpt><trkpt lat="57.9699892458" lon="-4.7499689553"><ele>60.22</ele><time>2012-08-10T13:22:09Z</time></trkpt><trkpt lat="57.9699372780" lon="-4.7464905493"><ele>58.78</ele><time>2012-08-10T13:22:18Z</time></trkpt><trkpt lat="57.9695077054" lon="-4.7441597097"><ele>60.70</ele><time>2012-08-10T13:22:25Z</time></trkpt><trkpt lat="57.9693318531" lon="-4.7434835415"><ele>58.30</ele><time>2012-08-10T13:22:28Z</time></trkpt><trkpt lat="57.9690901190" lon="-4.7417157143"><ele>59.74</ele><time>2012-08-10T13:22:34Z</time></trkpt><trkpt lat="57.9690400790" lon="-4.7407667153"><ele>58.30</ele><time>2012-08-10T13:22:37Z</time></trkpt><trkpt lat="57.9689690843" lon="-4.7395331506"><ele>54.93</ele><time>2012-08-10T13:22:41Z</time></trkpt><trkpt lat="57.9688215628" lon="-4.7383898590"><ele>53.01</ele><time>2012-08-10T13:22:45Z</time></trkpt><trkpt lat="57.9685722012" lon="-4.7368634306"><ele>51.09</ele><time>2012-08-10T13:22:50Z</time></trkpt><trkpt lat="57.9683068302" lon="-4.7353083361"><ele>47.72</ele><time>2012-08-10T13:22:55Z</time></trkpt><trkpt lat="57.9680151399" lon="-4.7335360665"><ele>44.84</ele><time>2012-08-10T13:23:01Z</time></trkpt><trkpt lat="57.9678600747" lon="-4.7322419845"><ele>42.92</ele><time>2012-08-10T13:23:06Z</time></trkpt><trkpt lat="57.9677827936" lon="-4.7314363997"><ele>41.47</ele><time>2012-08-10T13:23:09Z</time></trkpt><trkpt lat="57.9677782673" lon="-4.7311618924"><ele>40.99</ele><time>2012-08-10T13:23:10Z</time></trkpt><trkpt lat="57.9677939415" lon="-4.7308858763"><ele>41.47</ele><time>2012-08-10T13:23:11Z</time></trkpt><trkpt lat="57.9678288940" lon="-4.7306037415"><ele>42.44</ele><time>2012-08-10T13:23:12Z</time></trkpt><trkpt lat="57.9678791016" lon="-4.7303055972"><ele>41.95</ele><time>2012-08-10T13:23:13Z</time></trkpt><trkpt lat="57.9679386131" lon="-4.7299943771"><ele>43.40</ele><time>2012-08-10T13:23:14Z</time></trkpt><trkpt lat="57.9680505954" lon="-4.7293498088"><ele>46.76</ele><time>2012-08-10T13:23:16Z</time></trkpt><trkpt lat="57.9681206681" lon="-4.7286744788"><ele>50.61</ele><time>2012-08-10T13:23:18Z</time></trkpt><trkpt lat="57.9681295529" lon="-4.7283152305"><ele>52.53</ele><time>2012-08-10T13:23:19Z</time></trkpt><trkpt lat="57.9681332409" lon="-4.7275857534"><ele>56.86</ele><time>2012-08-10T13:23:21Z</time></trkpt><trkpt lat="57.9681363422" lon="-4.7268355731"><ele>61.66</ele><time>2012-08-10T13:23:23Z</time></trkpt><trkpt lat="57.9681438860" lon="-4.7260780167"><ele>65.51</ele><time>2012-08-10T13:23:25Z</time></trkpt><trkpt lat="57.9681685288" lon="-4.7253487911"><ele>68.39</ele><time>2012-08-10T13:23:27Z</time></trkpt><trkpt lat="57.9681144655" lon="-4.7233857494"><ele>71.27</ele><time>2012-08-10T13:23:33Z</time></trkpt><trkpt lat="57.9680055007" lon="-4.7221082635"><ele>72.24</ele><time>2012-08-10T13:23:37Z</time></trkpt><trkpt lat="57.9680118710" lon="-4.7217807826"><ele>73.20</ele><time>2012-08-10T13:23:38Z</time></trkpt><trkpt lat="57.9680386093" lon="-4.7214419860"><ele>73.20</ele><time>2012-08-10T13:23:39Z</time></trkpt><trkpt lat="57.9681930039" lon="-4.7195300739"><ele>77.04</ele><time>2012-08-10T13:23:44Z</time></trkpt><trkpt lat="57.9682497494" lon="-4.7187370621"><ele>78.00</ele><time>2012-08-10T13:23:46Z</time></trkpt><trkpt lat="57.9684435390" lon="-4.7152140643"><ele>80.41</ele><time>2012-08-10T13:23:56Z</time></trkpt><trkpt lat="57.9684717022" lon="-4.7142214794"><ele>81.85</ele><time>2012-08-10T13:23:59Z</time></trkpt><trkpt lat="57.9683067463" lon="-4.7119776439"><ele>79.93</ele><time>2012-08-10T13:24:06Z</time></trkpt><trkpt lat="57.9684210755" lon="-4.7093080077"><ele>78.97</ele><time>2012-08-10T13:24:14Z</time></trkpt><trkpt lat="57.9685829300" lon="-4.7076792363"><ele>77.52</ele><time>2012-08-10T13:24:19Z</time></trkpt><trkpt lat="57.9687044676" lon="-4.7052346542"><ele>73.68</ele><time>2012-08-10T13:24:26Z</time></trkpt><trkpt lat="57.9692958109" lon="-4.7011950798"><ele>73.20</ele><time>2012-08-10T13:24:37Z</time></trkpt><trkpt lat="57.9697279818" lon="-4.6977909375"><ele>71.76</ele><time>2012-08-10T13:24:47Z</time></trkpt><trkpt lat="57.9698349349" lon="-4.6964518446"><ele>68.39</ele><time>2012-08-10T13:24:51Z</time></trkpt><trkpt lat="57.9698878247" lon="-4.6961428039"><ele>67.91</ele><time>2012-08-10T13:24:52Z</time></trkpt><trkpt lat="57.9699603282" lon="-4.6958402172"><ele>66.47</ele><time>2012-08-10T13:24:53Z</time></trkpt><trkpt lat="57.9700491764" lon="-4.6955457609"><ele>65.51</ele><time>2012-08-10T13:24:54Z</time></trkpt><trkpt lat="57.9701506812" lon="-4.6952631231"><ele>65.03</ele><time>2012-08-10T13:24:55Z</time></trkpt><trkpt lat="57.9702587239" lon="-4.6949887834"><ele>64.55</ele><time>2012-08-10T13:24:56Z</time></trkpt><trkpt lat="57.9705983587" lon="-4.6942405310"><ele>60.70</ele><time>2012-08-10T13:24:59Z</time></trkpt><trkpt lat="57.9707212374" lon="-4.6940243617"><ele>60.70</ele><time>2012-08-10T13:25:00Z</time></trkpt><trkpt lat="57.9711400811" lon="-4.6933915280"><ele>56.86</ele><time>2012-08-10T13:25:03Z</time></trkpt><trkpt lat="57.9716011696" lon="-4.6927319560"><ele>53.49</ele><time>2012-08-10T13:25:06Z</time></trkpt><trkpt lat="57.9723728914" lon="-4.6916330885"><ele>49.65</ele><time>2012-08-10T13:25:11Z</time></trkpt><trkpt lat="57.9726670124" lon="-4.6911442559"><ele>47.72</ele><time>2012-08-10T13:25:13Z</time></trkpt><trkpt lat="57.9727931600" lon="-4.6908615343"><ele>46.28</ele><time>2012-08-10T13:25:14Z</time></trkpt><trkpt lat="57.9729046393" lon="-4.6905555949"><ele>45.32</ele><time>2012-08-10T13:25:15Z</time></trkpt><trkpt lat="57.9729976784" lon="-4.6902212407"><ele>44.84</ele><time>2012-08-10T13:25:16Z</time></trkpt><trkpt lat="57.9730768874" lon="-4.6898582205"><ele>45.32</ele><time>2012-08-10T13:25:17Z</time></trkpt><trkpt lat="57.9731359798" lon="-4.6894641034"><ele>45.32</ele><time>2012-08-10T13:25:18Z</time></trkpt><trkpt lat="57.9731716029" lon="-4.6890431643"><ele>45.80</ele><time>2012-08-10T13:25:19Z</time></trkpt><trkpt lat="57.9731855169" lon="-4.6886041202"><ele>46.76</ele><time>2012-08-10T13:25:20Z</time></trkpt><trkpt lat="57.9731826670" lon="-4.6881779004"><ele>47.24</ele><time>2012-08-10T13:25:21Z</time></trkpt><trkpt lat="57.9731681664" lon="-4.6877716295"><ele>47.72</ele><time>2012-08-10T13:25:22Z</time></trkpt><trkpt lat="57.9731454514" lon="-4.6873778477"><ele>47.72</ele><time>2012-08-10T13:25:23Z</time></trkpt><trkpt lat="57.9730553459" lon="-4.6858401876"><ele>49.65</ele><time>2012-08-10T13:25:27Z</time></trkpt><trkpt lat="57.9728779849" lon="-4.6817561053"><ele>47.72</ele><time>2012-08-10T13:25:37Z</time></trkpt><trkpt lat="57.9726416152" lon="-4.6781142522"><ele>48.68</ele><time>2012-08-10T13:25:47Z</time></trkpt><trkpt lat="57.9721890762" lon="-4.6743636020"><ele>45.80</ele><time>2012-08-10T13:25:57Z</time></trkpt><trkpt lat="57.9718062747" lon="-4.6718088817"><ele>46.28</ele><time>2012-08-10T13:26:04Z</time></trkpt><trkpt lat="57.9711855110" lon="-4.6681722254"><ele>44.36</ele><time>2012-08-10T13:26:14Z</time></trkpt><trkpt lat="57.9708612151" lon="-4.6658060979"><ele>45.32</ele><time>2012-08-10T13:26:21Z</time></trkpt><trkpt lat="57.9707059823" lon="-4.6637507714"><ele>43.40</ele><time>2012-08-10T13:26:27Z</time></trkpt><trkpt lat="57.9707064852" lon="-4.6634247154"><ele>44.36</ele><time>2012-08-10T13:26:28Z</time></trkpt><trkpt lat="57.9707332235" lon="-4.6627219766"><ele>45.80</ele><time>2012-08-10T13:26:30Z</time></trkpt><trkpt lat="57.9708665796" lon="-4.6588280797"><ele>44.36</ele><time>2012-08-10T13:26:40Z</time></trkpt><trkpt lat="57.9709185474" lon="-4.6573827881"><ele>42.44</ele><time>2012-08-10T13:26:44Z</time></trkpt><trkpt lat="57.9710209742" lon="-4.6564079728"><ele>43.40</ele><time>2012-08-10T13:26:47Z</time></trkpt><trkpt lat="57.9710861016" lon="-4.6561040450"><ele>43.40</ele><time>2012-08-10T13:26:48Z</time></trkpt><trkpt lat="57.9711649753" lon="-4.6558132768"><ele>43.40</ele><time>2012-08-10T13:26:49Z</time></trkpt><trkpt lat="57.9712616187" lon="-4.6555278730"><ele>42.92</ele><time>2012-08-10T13:26:50Z</time></trkpt><trkpt lat="57.9713715054" lon="-4.6552405413"><ele>43.40</ele><time>2012-08-10T13:26:51Z</time></trkpt><trkpt lat="57.9717471823" lon="-4.6543946397"><ele>41.47</ele><time>2012-08-10T13:26:54Z</time></trkpt><trkpt lat="57.9718859866" lon="-4.6541529894"><ele>40.51</ele><time>2012-08-10T13:26:55Z</time></trkpt><trkpt lat="57.9720319156" lon="-4.6539420169"><ele>39.55</ele><time>2012-08-10T13:26:56Z</time></trkpt><trkpt lat="57.9721825384" lon="-4.6537662484"><ele>39.55</ele><time>2012-08-10T13:26:57Z</time></trkpt><trkpt lat="57.9723393638" lon="-4.6536243428"><ele>38.59</ele><time>2012-08-10T13:26:58Z</time></trkpt><trkpt lat="57.9725003801" lon="-4.6535096783"><ele>38.59</ele><time>2012-08-10T13:26:59Z</time></trkpt><trkpt lat="57.9726646654" lon="-4.6534024738"><ele>38.59</ele><time>2012-08-10T13:27:00Z</time></trkpt><trkpt lat="57.9728229996" lon="-4.6532697044"><ele>37.63</ele><time>2012-08-10T13:27:01Z</time></trkpt><trkpt lat="57.9729694314" lon="-4.6530878171"><ele>36.67</ele><time>2012-08-10T13:27:02Z</time></trkpt><trkpt lat="57.9731031228" lon="-4.6528521180"><ele>36.67</ele><time>2012-08-10T13:27:03Z</time></trkpt><trkpt lat="57.9732202180" lon="-4.6525687259"><ele>36.19</ele><time>2012-08-10T13:27:04Z</time></trkpt><trkpt lat="57.9733270034" lon="-4.6522689890"><ele>35.71</ele><time>2012-08-10T13:27:05Z</time></trkpt><trkpt lat="57.9736611061" lon="-4.6514767315"><ele>33.78</ele><time>2012-08-10T13:27:08Z</time></trkpt><trkpt lat="57.9737890977" lon="-4.6512611490"><ele>33.30</ele><time>2012-08-10T13:27:09Z</time></trkpt><trkpt lat="57.9741643555" lon="-4.6506355237"><ele>31.38</ele><time>2012-08-10T13:27:12Z</time></trkpt><trkpt lat="57.9742637649" lon="-4.6503908560"><ele>30.90</ele><time>2012-08-10T13:27:13Z</time></trkpt><trkpt lat="57.9746155534" lon="-4.6493259352"><ele>28.02</ele><time>2012-08-10T13:27:17Z</time></trkpt><trkpt lat="57.9746750649" lon="-4.6490490809"><ele>27.05</ele><time>2012-08-10T13:27:18Z</time></trkpt><trkpt lat="57.9747137055" lon="-4.6487579774"><ele>25.61</ele><time>2012-08-10T13:27:19Z</time></trkpt><trkpt lat="57.9747301340" lon="-4.6484576538"><ele>24.65</ele><time>2012-08-10T13:27:20Z</time></trkpt><trkpt lat="57.9747245181" lon="-4.6481622756"><ele>24.17</ele><time>2012-08-10T13:27:21Z</time></trkpt><trkpt lat="57.9747100174" lon="-4.6478895284"><ele>23.69</ele><time>2012-08-10T13:27:22Z</time></trkpt><trkpt lat="57.9747196566" lon="-4.6476412565"><ele>23.21</ele><time>2012-08-10T13:27:23Z</time></trkpt><trkpt lat="57.9747517593" lon="-4.6474058926"><ele>22.73</ele><time>2012-08-10T13:27:24Z</time></trkpt><trkpt lat="57.9747960996" lon="-4.6471681818"><ele>22.73</ele><time>2012-08-10T13:27:25Z</time></trkpt><trkpt lat="57.9750898015" lon="-4.6456404123"><ele>20.81</ele><time>2012-08-10T13:27:31Z</time></trkpt><trkpt lat="57.9752018675" lon="-4.6451337263"><ele>19.36</ele><time>2012-08-10T13:27:33Z</time></trkpt><trkpt lat="57.9753384087" lon="-4.6446213406"><ele>19.36</ele><time>2012-08-10T13:27:35Z</time></trkpt><trkpt lat="57.9753854312" lon="-4.6443465818"><ele>18.88</ele><time>2012-08-10T13:27:36Z</time></trkpt><trkpt lat="57.9754063860" lon="-4.6440548077"><ele>18.88</ele><time>2012-08-10T13:27:37Z</time></trkpt><trkpt lat="57.9753967468" lon="-4.6437592618"><ele>18.40</ele><time>2012-08-10T13:27:38Z</time></trkpt><trkpt lat="57.9753613751" lon="-4.6434635483"><ele>18.88</ele><time>2012-08-10T13:27:39Z</time></trkpt><trkpt lat="57.9753079824" lon="-4.6431671642"><ele>18.88</ele><time>2012-08-10T13:27:40Z</time></trkpt><trkpt lat="57.9752405919" lon="-4.6428719535"><ele>19.36</ele><time>2012-08-10T13:27:41Z</time></trkpt><trkpt lat="57.9751602933" lon="-4.6425795928"><ele>18.88</ele><time>2012-08-10T13:27:42Z</time></trkpt><trkpt lat="57.9750728700" lon="-4.6422951948"><ele>18.88</ele><time>2012-08-10T13:27:43Z</time></trkpt><trkpt lat="57.9748249333" lon="-4.6415134985"><ele>18.88</ele><time>2012-08-10T13:27:46Z</time></trkpt><trkpt lat="57.9747701157" lon="-4.6412440203"><ele>18.88</ele><time>2012-08-10T13:27:47Z</time></trkpt><trkpt lat="57.9747401923" lon="-4.6409499831"><ele>19.84</ele><time>2012-08-10T13:27:48Z</time></trkpt><trkpt lat="57.9747395217" lon="-4.6406317223"><ele>19.36</ele><time>2012-08-10T13:27:49Z</time></trkpt><trkpt lat="57.9747637454" lon="-4.6402988769"><ele>20.32</ele><time>2012-08-10T13:27:50Z</time></trkpt><trkpt lat="57.9748054035" lon="-4.6399589069"><ele>21.29</ele><time>2012-08-10T13:27:51Z</time></trkpt><trkpt lat="57.9748473968" lon="-4.6396180987"><ele>21.29</ele><time>2012-08-10T13:27:52Z</time></trkpt><trkpt lat="57.9748757277" lon="-4.6392694954"><ele>22.25</ele><time>2012-08-10T13:27:53Z</time></trkpt><trkpt lat="57.9748846963" lon="-4.6389098279"><ele>22.73</ele><time>2012-08-10T13:27:54Z</time></trkpt><trkpt lat="57.9748132825" lon="-4.6349143423"><ele>19.36</ele><time>2012-08-10T13:28:05Z</time></trkpt><trkpt lat="57.9747683555" lon="-4.6319134533"><ele>17.44</ele><time>2012-08-10T13:28:14Z</time></trkpt><trkpt lat="57.9748026375" lon="-4.6316112857"><ele>18.40</ele><time>2012-08-10T13:28:15Z</time></trkpt><trkpt lat="57.9751501512" lon="-4.6285491250"><ele>19.84</ele><time>2012-08-10T13:28:24Z</time></trkpt><trkpt lat="57.9752638936" lon="-4.6246428229"><ele>19.84</ele><time>2012-08-10T13:28:35Z</time></trkpt><trkpt lat="57.9750341456" lon="-4.6201364603"><ele>21.29</ele><time>2012-08-10T13:28:48Z</time></trkpt><trkpt lat="57.9750219081" lon="-4.6183254663"><ele>17.92</ele><time>2012-08-10T13:28:53Z</time></trkpt><trkpt lat="57.9750365764" lon="-4.6149514988"><ele>16.00</ele><time>2012-08-10T13:29:02Z</time></trkpt><trkpt lat="57.9750116821" lon="-4.6131403372"><ele>15.52</ele><time>2012-08-10T13:29:07Z</time></trkpt><trkpt lat="57.9750576988" lon="-4.6112074703"><ele>16.00</ele><time>2012-08-10T13:29:13Z</time></trkpt><trkpt lat="57.9748771526" lon="-4.6080401167"><ele>16.00</ele><time>2012-08-10T13:29:22Z</time></trkpt><trkpt lat="57.9746716283" lon="-4.6053304151"><ele>13.60</ele><time>2012-08-10T13:29:31Z</time></trkpt><trkpt lat="57.9746531043" lon="-4.6047968231"><ele>13.12</ele><time>2012-08-10T13:29:33Z</time></trkpt><trkpt lat="57.9746631626" lon="-4.6045106649"><ele>13.12</ele><time>2012-08-10T13:29:34Z</time></trkpt><trkpt lat="57.9748602211" lon="-4.6015994623"><ele>15.04</ele><time>2012-08-10T13:29:43Z</time></trkpt><trkpt lat="57.9749977682" lon="-4.6003938932"><ele>16.00</ele><time>2012-08-10T13:29:47Z</time></trkpt><trkpt lat="57.9753189627" lon="-4.5990817063"><ele>19.36</ele><time>2012-08-10T13:29:51Z</time></trkpt><trkpt lat="57.9754982516" lon="-4.5984131657"><ele>20.32</ele><time>2012-08-10T13:29:53Z</time></trkpt><trkpt lat="57.9764228594" lon="-4.5946473442"><ele>21.29</ele><time>2012-08-10T13:30:05Z</time></trkpt><trkpt lat="57.9771643225" lon="-4.5916403364"><ele>19.84</ele><time>2012-08-10T13:30:15Z</time></trkpt><trkpt lat="57.9774742015" lon="-4.5909609832"><ele>19.36</ele><time>2012-08-10T13:30:18Z</time></trkpt><trkpt lat="57.9775988404" lon="-4.5907719713"><ele>19.84</ele><time>2012-08-10T13:30:19Z</time></trkpt><trkpt lat="57.9777317774" lon="-4.5906118769"><ele>20.81</ele><time>2012-08-10T13:30:20Z</time></trkpt><trkpt lat="57.9778684024" lon="-4.5904780179"><ele>21.77</ele><time>2012-08-10T13:30:21Z</time></trkpt><trkpt lat="57.9780016746" lon="-4.5903602522"><ele>22.25</ele><time>2012-08-10T13:30:22Z</time></trkpt><trkpt lat="57.9792723712" lon="-4.5895807352"><ele>22.73</ele><time>2012-08-10T13:30:31Z</time></trkpt><trkpt lat="57.9813541844" lon="-4.5884071011"><ele>21.77</ele><time>2012-08-10T13:30:46Z</time></trkpt><trkpt lat="57.9826827999" lon="-4.5876429230"><ele>20.32</ele><time>2012-08-10T13:30:57Z</time></trkpt><trkpt lat="57.9827856459" lon="-4.5875372272"><ele>19.84</ele><time>2012-08-10T13:30:58Z</time></trkpt><trkpt lat="57.9828843847" lon="-4.5874125045"><ele>19.36</ele><time>2012-08-10T13:30:59Z</time></trkpt><trkpt lat="57.9829777591" lon="-4.5872615464"><ele>18.88</ele><time>2012-08-10T13:31:00Z</time></trkpt><trkpt lat="57.9830644280" lon="-4.5870880410"><ele>18.40</ele><time>2012-08-10T13:31:01Z</time></trkpt><trkpt lat="57.9831426311" lon="-4.5869057346"><ele>18.40</ele><time>2012-08-10T13:31:02Z</time></trkpt><trkpt lat="57.9832112789" lon="-4.5867251884"><ele>18.40</ele><time>2012-08-10T13:31:03Z</time></trkpt><trkpt lat="57.9833214171" lon="-4.5863468293"><ele>18.40</ele><time>2012-08-10T13:31:05Z</time></trkpt><trkpt lat="57.9836395103" lon="-4.5843169838"><ele>18.88</ele><time>2012-08-10T13:31:14Z</time></trkpt><trkpt lat="57.9836487304" lon="-4.5838854834"><ele>20.81</ele><time>2012-08-10T13:31:16Z</time></trkpt><trkpt lat="57.9836219922" lon="-4.5836932864"><ele>21.29</ele><time>2012-08-10T13:31:17Z</time></trkpt><trkpt lat="57.9835660011" lon="-4.5835070405"><ele>22.25</ele><time>2012-08-10T13:31:18Z</time></trkpt><trkpt lat="57.9834844451" lon="-4.5833195373"><ele>23.69</ele><time>2012-08-10T13:31:19Z</time></trkpt><trkpt lat="57.9833902325" lon="-4.5831211377"><ele>25.61</ele><time>2012-08-10T13:31:20Z</time></trkpt><trkpt lat="57.9830489215" lon="-4.5824514236"><ele>28.98</ele><time>2012-08-10T13:31:23Z</time></trkpt><trkpt lat="57.9826838057" lon="-4.5817426499"><ele>33.78</ele><time>2012-08-10T13:31:26Z</time></trkpt><trkpt lat="57.9824750125" lon="-4.5811858401"><ele>38.11</ele><time>2012-08-10T13:31:28Z</time></trkpt><trkpt lat="57.9821963143" lon="-4.5803576242"><ele>41.47</ele><time>2012-08-10T13:31:31Z</time></trkpt><trkpt lat="57.9817471281" lon="-4.5794191025"><ele>43.88</ele><time>2012-08-10T13:31:35Z</time></trkpt><trkpt lat="57.9815907218" lon="-4.5792573318"><ele>44.36</ele><time>2012-08-10T13:31:36Z</time></trkpt><trkpt lat="57.9814226646" lon="-4.5791438408"><ele>44.36</ele><time>2012-08-10T13:31:37Z</time></trkpt><trkpt lat="57.9812619835" lon="-4.5790324453"><ele>45.32</ele><time>2012-08-10T13:31:38Z</time></trkpt><trkpt lat="57.9811249394" lon="-4.5788786374"><ele>45.32</ele><time>2012-08-10T13:31:39Z</time></trkpt><trkpt lat="57.9810121190" lon="-4.5786638092"><ele>45.32</ele><time>2012-08-10T13:31:40Z</time></trkpt><trkpt lat="57.9809116200" lon="-4.5783964265"><ele>46.76</ele><time>2012-08-10T13:31:41Z</time></trkpt><trkpt lat="57.9808087740" lon="-4.5781106036"><ele>49.16</ele><time>2012-08-10T13:31:42Z</time></trkpt><trkpt lat="57.9805035051" lon="-4.5772370417"><ele>52.05</ele><time>2012-08-10T13:31:45Z</time></trkpt><trkpt lat="57.9801589251" lon="-4.5760856196"><ele>55.41</ele><time>2012-08-10T13:31:49Z</time></trkpt><trkpt lat="57.9800777882" lon="-4.5757835358"><ele>55.89</ele><time>2012-08-10T13:31:50Z</time></trkpt><trkpt lat="57.9797656462" lon="-4.5741876215"><ele>58.78</ele><time>2012-08-10T13:31:55Z</time></trkpt><trkpt lat="57.9796434380" lon="-4.5728752669"><ele>61.66</ele><time>2012-08-10T13:31:59Z</time></trkpt><trkpt lat="57.9796039592" lon="-4.5721894596"><ele>62.62</ele><time>2012-08-10T13:32:01Z</time></trkpt><trkpt lat="57.9793229979" lon="-4.5697838534"><ele>64.55</ele><time>2012-08-10T13:32:09Z</time></trkpt><trkpt lat="57.9791970178" lon="-4.5692980383"><ele>65.99</ele><time>2012-08-10T13:32:11Z</time></trkpt><trkpt lat="57.9789185710" lon="-4.5684475265"><ele>67.43</ele><time>2012-08-10T13:32:15Z</time></trkpt><trkpt lat="57.9784154054" lon="-4.5674269460"><ele>67.91</ele><time>2012-08-10T13:32:23Z</time></trkpt><trkpt lat="57.9776075576" lon="-4.5661717560"><ele>66.95</ele><time>2012-08-10T13:32:33Z</time></trkpt><trkpt lat="57.9764385335" lon="-4.5645646099"><ele>66.47</ele><time>2012-08-10T13:32:44Z</time></trkpt><trkpt lat="57.9754878581" lon="-4.5634969231"><ele>63.10</ele><time>2012-08-10T13:32:51Z</time></trkpt><trkpt lat="57.9751975928" lon="-4.5631750580"><ele>62.14</ele><time>2012-08-10T13:32:53Z</time></trkpt><trkpt lat="57.9746181518" lon="-4.5624905080"><ele>58.78</ele><time>2012-08-10T13:32:57Z</time></trkpt><trkpt lat="57.9736304283" lon="-4.5607003011"><ele>57.34</ele><time>2012-08-10T13:33:05Z</time></trkpt><trkpt lat="57.9729208164" lon="-4.5592982601"><ele>54.93</ele><time>2012-08-10T13:33:11Z</time></trkpt><trkpt lat="57.9727856163" lon="-4.5591389202"><ele>53.97</ele><time>2012-08-10T13:33:12Z</time></trkpt><trkpt lat="57.9726340715" lon="-4.5590129402"><ele>53.49</ele><time>2012-08-10T13:33:13Z</time></trkpt><trkpt lat="57.9721603263" lon="-4.5586759876"><ele>52.53</ele><time>2012-08-10T13:33:16Z</time></trkpt><trkpt lat="57.9720174987" lon="-4.5585165638"><ele>53.01</ele><time>2012-08-10T13:33:17Z</time></trkpt><trkpt lat="57.9718793649" lon="-4.5583200920"><ele>53.01</ele><time>2012-08-10T13:33:18Z</time></trkpt><trkpt lat="57.9710351396" lon="-4.5570449531"><ele>49.65</ele><time>2012-08-10T13:33:24Z</time></trkpt><trkpt lat="57.9704841133" lon="-4.5562447328"><ele>46.28</ele><time>2012-08-10T13:33:28Z</time></trkpt><trkpt lat="57.9700957797" lon="-4.5556757692"><ele>43.40</ele><time>2012-08-10T13:33:31Z</time></trkpt><trkpt lat="57.9698358569" lon="-4.5552964043"><ele>42.44</ele><time>2012-08-10T13:33:33Z</time></trkpt><trkpt lat="57.9693051986" lon="-4.5545098465"><ele>37.63</ele><time>2012-08-10T13:33:37Z</time></trkpt><trkpt lat="57.9689321201" lon="-4.5538408030"><ele>34.26</ele><time>2012-08-10T13:33:40Z</time></trkpt><trkpt lat="57.9685716145" lon="-4.5531633776"><ele>30.90</ele><time>2012-08-10T13:33:43Z</time></trkpt><trkpt lat="57.9682336561" lon="-4.5524887182"><ele>27.53</ele><time>2012-08-10T13:33:46Z</time></trkpt><trkpt lat="57.9680565465" lon="-4.5520494226"><ele>24.17</ele><time>2012-08-10T13:33:48Z</time></trkpt><trkpt lat="57.9679617472" lon="-4.5518652722"><ele>23.69</ele><time>2012-08-10T13:33:49Z</time></trkpt><trkpt lat="57.9678557161" lon="-4.5517164934"><ele>22.73</ele><time>2012-08-10T13:33:50Z</time></trkpt><trkpt lat="57.9676281475" lon="-4.5514354482"><ele>21.77</ele><time>2012-08-10T13:33:52Z</time></trkpt><trkpt lat="57.9675336834" lon="-4.5512688160"><ele>21.29</ele><time>2012-08-10T13:33:53Z</time></trkpt><trkpt lat="57.9674560670" lon="-4.5510916226"><ele>20.81</ele><time>2012-08-10T13:33:54Z</time></trkpt><trkpt lat="57.9673908558" lon="-4.5509098191"><ele>20.32</ele><time>2012-08-10T13:33:55Z</time></trkpt><trkpt lat="57.9673429951" lon="-4.5507140178"><ele>20.32</ele><time>2012-08-10T13:33:56Z</time></trkpt><trkpt lat="57.9673075397" lon="-4.5505019557"><ele>20.81</ele><time>2012-08-10T13:33:57Z</time></trkpt><trkpt lat="57.9672804661" lon="-4.5502669271"><ele>20.81</ele><time>2012-08-10T13:33:58Z</time></trkpt><trkpt lat="57.9672569130" lon="-4.5500129554"><ele>21.29</ele><time>2012-08-10T13:33:59Z</time></trkpt><trkpt lat="57.9672248103" lon="-4.5497624204"><ele>20.81</ele><time>2012-08-10T13:34:00Z</time></trkpt><trkpt lat="57.9671788774" lon="-4.5495232847"><ele>20.81</ele><time>2012-08-10T13:34:01Z</time></trkpt><trkpt lat="57.9671132471" lon="-4.5493018348"><ele>20.32</ele><time>2012-08-10T13:34:02Z</time></trkpt><trkpt lat="57.9670219682" lon="-4.5491046924"><ele>19.84</ele><time>2012-08-10T13:34:03Z</time></trkpt><trkpt lat="57.9669087287" lon="-4.5489186142"><ele>19.84</ele><time>2012-08-10T13:34:04Z</time></trkpt><trkpt lat="57.9667830002" lon="-4.5487337094"><ele>18.88</ele><time>2012-08-10T13:34:05Z</time></trkpt><trkpt lat="57.9662441276" lon="-4.5479558688"><ele>16.96</ele><time>2012-08-10T13:34:09Z</time></trkpt><trkpt lat="57.9658534471" lon="-4.5474307425"><ele>15.04</ele><time>2012-08-10T13:34:12Z</time></trkpt><trkpt lat="57.9654226173" lon="-4.5470253937"><ele>15.04</ele><time>2012-08-10T13:34:15Z</time></trkpt><trkpt lat="57.9653063603" lon="-4.5468565822"><ele>14.56</ele><time>2012-08-10T13:34:16Z</time></trkpt><trkpt lat="57.9651900195" lon="-4.5466586854"><ele>14.56</ele><time>2012-08-10T13:34:17Z</time></trkpt><trkpt lat="57.9645756260" lon="-4.5457246900"><ele>14.08</ele><time>2012-08-10T13:34:22Z</time></trkpt><trkpt lat="57.9644812457" lon="-4.5455368515"><ele>13.60</ele><time>2012-08-10T13:34:23Z</time></trkpt><trkpt lat="57.9643915594" lon="-4.5453509409"><ele>13.12</ele><time>2012-08-10T13:34:24Z</time></trkpt><trkpt lat="57.9634487629" lon="-4.5427081268"><ele>13.60</ele><time>2012-08-10T13:34:36Z</time></trkpt><trkpt lat="57.9623773042" lon="-4.5404005889"><ele>13.60</ele><time>2012-08-10T13:34:47Z</time></trkpt><trkpt lat="57.9615739826" lon="-4.5391611569"><ele>13.12</ele><time>2012-08-10T13:34:54Z</time></trkpt><trkpt lat="57.9614703823" lon="-4.5389485918"><ele>13.12</ele><time>2012-08-10T13:34:55Z</time></trkpt><trkpt lat="57.9605576769" lon="-4.5365149062"><ele>15.52</ele><time>2012-08-10T13:35:05Z</time></trkpt><trkpt lat="57.9595505912" lon="-4.5340094715"><ele>14.08</ele><time>2012-08-10T13:35:15Z</time></trkpt><trkpt lat="57.9589838907" lon="-4.5317996666"><ele>15.04</ele><time>2012-08-10T13:35:23Z</time></trkpt><trkpt lat="57.9587388039" lon="-4.5304851327"><ele>12.15</ele><time>2012-08-10T13:35:29Z</time></trkpt><trkpt lat="57.9586720001" lon="-4.5301744156"><ele>11.67</ele><time>2012-08-10T13:35:35Z</time></trkpt><trkpt lat="57.9585140850" lon="-4.5292312838"><ele>13.60</ele><time>2012-08-10T13:35:40Z</time></trkpt><trkpt lat="57.9581564292" lon="-4.5273560006"><ele>13.12</ele><time>2012-08-10T13:35:47Z</time></trkpt><trkpt lat="57.9579452053" lon="-4.5252378099"><ele>12.15</ele><time>2012-08-10T13:35:55Z</time></trkpt><trkpt lat="57.9577795789" lon="-4.5224845223"><ele>13.12</ele><time>2012-08-10T13:36:04Z</time></trkpt><trkpt lat="57.9575960990" lon="-4.5189600158"><ele>13.60</ele><time>2012-08-10T13:36:15Z</time></trkpt><trkpt lat="57.9575815983" lon="-4.5177407004"><ele>13.12</ele><time>2012-08-10T13:36:19Z</time></trkpt><trkpt lat="57.9576137010" lon="-4.5174536202"><ele>12.63</ele><time>2012-08-10T13:36:20Z</time></trkpt><trkpt lat="57.9576587956" lon="-4.5171913505"><ele>12.15</ele><time>2012-08-10T13:36:21Z</time></trkpt><trkpt lat="57.9578850232" lon="-4.5160873700"><ele>9.75</ele><time>2012-08-10T13:36:27Z</time></trkpt><trkpt lat="57.9580563493" lon="-4.5146063715"><ele>12.63</ele><time>2012-08-10T13:36:34Z</time></trkpt><trkpt lat="57.9582978319" lon="-4.5132453181"><ele>12.63</ele><time>2012-08-10T13:36:39Z</time></trkpt><trkpt lat="57.9583201278" lon="-4.5129481796"><ele>13.12</ele><time>2012-08-10T13:36:40Z</time></trkpt><trkpt lat="57.9584265780" lon="-4.5109156519"><ele>13.60</ele><time>2012-08-10T13:36:46Z</time></trkpt><trkpt lat="57.9584655538" lon="-4.5084340218"><ele>13.60</ele><time>2012-08-10T13:36:54Z</time></trkpt><trkpt lat="57.9584672302" lon="-4.5060124062"><ele>14.08</ele><time>2012-08-10T13:37:02Z</time></trkpt><trkpt lat="57.9586444236" lon="-4.5045726467"><ele>14.56</ele><time>2012-08-10T13:37:07Z</time></trkpt><trkpt lat="57.9589320906" lon="-4.5032470487"><ele>15.04</ele><time>2012-08-10T13:37:12Z</time></trkpt><trkpt lat="57.9589425679" lon="-4.5029949211"><ele>16.48</ele><time>2012-08-10T13:37:13Z</time></trkpt><trkpt lat="57.9589352757" lon="-4.5027308073"><ele>16.48</ele><time>2012-08-10T13:37:14Z</time></trkpt><trkpt lat="57.9588599224" lon="-4.5016134996"><ele>19.36</ele><time>2012-08-10T13:37:18Z</time></trkpt><trkpt lat="57.9587996565" lon="-4.5011383295"><ele>19.84</ele><time>2012-08-10T13:37:20Z</time></trkpt><trkpt lat="57.9587397259" lon="-4.5009204838"><ele>19.36</ele><time>2012-08-10T13:37:21Z</time></trkpt><trkpt lat="57.9586657137" lon="-4.5007017162"><ele>20.32</ele><time>2012-08-10T13:37:22Z</time></trkpt><trkpt lat="57.9582428467" lon="-4.4995188620"><ele>16.96</ele><time>2012-08-10T13:37:27Z</time></trkpt><trkpt lat="57.9581434373" lon="-4.4990408421"><ele>15.04</ele><time>2012-08-10T13:37:29Z</time></trkpt><trkpt lat="57.9581076466" lon="-4.4987908099"><ele>14.56</ele><time>2012-08-10T13:37:30Z</time></trkpt><trkpt lat="57.9580850992" lon="-4.4985230919"><ele>14.08</ele><time>2012-08-10T13:37:31Z</time></trkpt><trkpt lat="57.9579438642" lon="-4.4961229339"><ele>12.63</ele><time>2012-08-10T13:37:39Z</time></trkpt><trkpt lat="57.9579061456" lon="-4.4939328264"><ele>12.15</ele><time>2012-08-10T13:37:46Z</time></trkpt><trkpt lat="57.9579188861" lon="-4.4936640188"><ele>12.15</ele><time>2012-08-10T13:37:47Z</time></trkpt><trkpt lat="57.9579503182" lon="-4.4933971390"><ele>12.63</ele><time>2012-08-10T13:37:48Z</time></trkpt><trkpt lat="57.9579960834" lon="-4.4931237213"><ele>12.63</ele><time>2012-08-10T13:37:49Z</time></trkpt><trkpt lat="57.9581969976" lon="-4.4919663481"><ele>12.63</ele><time>2012-08-10T13:37:53Z</time></trkpt><trkpt lat="57.9582204670" lon="-4.4916538708"><ele>13.12</ele><time>2012-08-10T13:37:54Z</time></trkpt><trkpt lat="57.9582385719" lon="-4.4897785876"><ele>12.63</ele><time>2012-08-10T13:38:00Z</time></trkpt><trkpt lat="57.9582104087" lon="-4.4894943573"><ele>12.15</ele><time>2012-08-10T13:38:01Z</time></trkpt><trkpt lat="57.9581668228" lon="-4.4892048463"><ele>12.15</ele><time>2012-08-10T13:38:02Z</time></trkpt><trkpt lat="57.9579593707" lon="-4.4868495315"><ele>14.08</ele><time>2012-08-10T13:38:10Z</time></trkpt><trkpt lat="57.9581470415" lon="-4.4842456933"><ele>15.04</ele><time>2012-08-10T13:38:18Z</time></trkpt><trkpt lat="57.9581606202" lon="-4.4839090761"><ele>14.56</ele><time>2012-08-10T13:38:19Z</time></trkpt><trkpt lat="57.9581604525" lon="-4.4835582096"><ele>14.56</ele><time>2012-08-10T13:38:20Z</time></trkpt><trkpt lat="57.9581509810" lon="-4.4831998833"><ele>14.56</ele><time>2012-08-10T13:38:21Z</time></trkpt><trkpt lat="57.9581314512" lon="-4.4828431495"><ele>15.52</ele><time>2012-08-10T13:38:22Z</time></trkpt><trkpt lat="57.9581027851" lon="-4.4824865833"><ele>15.52</ele><time>2012-08-10T13:38:23Z</time></trkpt><trkpt lat="57.9575733840" lon="-4.4793637376"><ele>14.56</ele><time>2012-08-10T13:38:32Z</time></trkpt><trkpt lat="57.9567427374" lon="-4.4762754254"><ele>13.60</ele><time>2012-08-10T13:38:42Z</time></trkpt><trkpt lat="57.9563868418" lon="-4.4747023098"><ele>13.12</ele><time>2012-08-10T13:38:48Z</time></trkpt><trkpt lat="57.9563726764" lon="-4.4744644314"><ele>12.63</ele><time>2012-08-10T13:38:49Z</time></trkpt><trkpt lat="57.9563831538" lon="-4.4742294028"><ele>11.67</ele><time>2012-08-10T13:38:50Z</time></trkpt><trkpt lat="57.9564206209" lon="-4.4739890937"><ele>11.67</ele><time>2012-08-10T13:38:51Z</time></trkpt><trkpt lat="57.9564754386" lon="-4.4737430010"><ele>11.67</ele><time>2012-08-10T13:38:52Z</time></trkpt><trkpt lat="57.9565427452" lon="-4.4734906219"><ele>12.15</ele><time>2012-08-10T13:38:53Z</time></trkpt><trkpt lat="57.9571599048" lon="-4.4716411550"><ele>11.19</ele><time>2012-08-10T13:39:01Z</time></trkpt><trkpt lat="57.9572081845" lon="-4.4714684039"><ele>10.23</ele><time>2012-08-10T13:39:02Z</time></trkpt><trkpt lat="57.9572477471" lon="-4.4712819904"><ele>11.19</ele><time>2012-08-10T13:39:03Z</time></trkpt><trkpt lat="57.9572756588" lon="-4.4710617978"><ele>11.67</ele><time>2012-08-10T13:39:04Z</time></trkpt><trkpt lat="57.9573318176" lon="-4.4705499150"><ele>12.63</ele><time>2012-08-10T13:39:06Z</time></trkpt><trkpt lat="57.9574969411" lon="-4.4689913839"><ele>12.63</ele><time>2012-08-10T13:39:12Z</time></trkpt><trkpt lat="57.9574962705" lon="-4.4687344786"><ele>13.12</ele><time>2012-08-10T13:39:13Z</time></trkpt><trkpt lat="57.9574717116" lon="-4.4684695266"><ele>13.12</ele><time>2012-08-10T13:39:14Z</time></trkpt><trkpt lat="57.9574261978" lon="-4.4682025630"><ele>13.12</ele><time>2012-08-10T13:39:15Z</time></trkpt><trkpt lat="57.9573706258" lon="-4.4679337554"><ele>13.12</ele><time>2012-08-10T13:39:16Z</time></trkpt><trkpt lat="57.9568419792" lon="-4.4653352816"><ele>12.63</ele><time>2012-08-10T13:39:25Z</time></trkpt><trkpt lat="57.9567703139" lon="-4.4650885183"><ele>12.15</ele><time>2012-08-10T13:39:26Z</time></trkpt><trkpt lat="57.9566713236" lon="-4.4648707565"><ele>13.12</ele><time>2012-08-10T13:39:27Z</time></trkpt><trkpt lat="57.9562395718" lon="-4.4641029742"><ele>15.04</ele><time>2012-08-10T13:39:31Z</time></trkpt><trkpt lat="57.9560557567" lon="-4.4637576398"><ele>15.52</ele><time>2012-08-10T13:39:33Z</time></trkpt><trkpt lat="57.9559847619" lon="-4.4635671191"><ele>15.04</ele><time>2012-08-10T13:39:34Z</time></trkpt><trkpt lat="57.9559376556" lon="-4.4633553084"><ele>15.04</ele><time>2012-08-10T13:39:35Z</time></trkpt><trkpt lat="57.9559155274" lon="-4.4631234650"><ele>15.52</ele><time>2012-08-10T13:39:36Z</time></trkpt><trkpt lat="57.9559158627" lon="-4.4628751930"><ele>16.00</ele><time>2012-08-10T13:39:37Z</time></trkpt><trkpt lat="57.9559297767" lon="-4.4626166113"><ele>16.48</ele><time>2012-08-10T13:39:38Z</time></trkpt><trkpt lat="57.9559544194" lon="-4.4623607956"><ele>16.96</ele><time>2012-08-10T13:39:39Z</time></trkpt><trkpt lat="57.9559845105" lon="-4.4621224143"><ele>16.48</ele><time>2012-08-10T13:39:40Z</time></trkpt><trkpt lat="57.9560822435" lon="-4.4615097810"><ele>15.52</ele><time>2012-08-10T13:39:43Z</time></trkpt><trkpt lat="57.9560978338" lon="-4.4613479264"><ele>14.56</ele><time>2012-08-10T13:39:44Z</time></trkpt><trkpt lat="57.9561872687" lon="-4.4604395796"><ele>15.52</ele><time>2012-08-10T13:39:49Z</time></trkpt><trkpt lat="57.9564733431" lon="-4.4581044652"><ele>14.56</ele><time>2012-08-10T13:39:58Z</time></trkpt><trkpt lat="57.9566403106" lon="-4.4570860639"><ele>14.56</ele><time>2012-08-10T13:40:02Z</time></trkpt><trkpt lat="57.9566533025" lon="-4.4568287395"><ele>13.60</ele><time>2012-08-10T13:40:03Z</time></trkpt><trkpt lat="57.9566354491" lon="-4.4565730076"><ele>13.12</ele><time>2012-08-10T13:40:04Z</time></trkpt><trkpt lat="57.9565939587" lon="-4.4563148450"><ele>13.60</ele><time>2012-08-10T13:40:05Z</time></trkpt><trkpt lat="57.9565368779" lon="-4.4560514856"><ele>14.08</ele><time>2012-08-10T13:40:06Z</time></trkpt><trkpt lat="57.9558074009" lon="-4.4527166616"><ele>15.04</ele><time>2012-08-10T13:40:19Z</time></trkpt><trkpt lat="57.9557170440" lon="-4.4524867460"><ele>15.04</ele><time>2012-08-10T13:40:20Z</time></trkpt><trkpt lat="57.9556058999" lon="-4.4522715826"><ele>14.56</ele><time>2012-08-10T13:40:21Z</time></trkpt><trkpt lat="57.9547281470" lon="-4.4509616587"><ele>13.60</ele><time>2012-08-10T13:40:28Z</time></trkpt><trkpt lat="57.9540982470" lon="-4.4492798299"><ele>15.52</ele><time>2012-08-10T13:40:35Z</time></trkpt><trkpt lat="57.9539930541" lon="-4.4490246847"><ele>15.04</ele><time>2012-08-10T13:40:36Z</time></trkpt><trkpt lat="57.9538606200" lon="-4.4487895723"><ele>16.48</ele><time>2012-08-10T13:40:37Z</time></trkpt><trkpt lat="57.9527950287" lon="-4.4470572844"><ele>19.84</ele><time>2012-08-10T13:40:45Z</time></trkpt><trkpt lat="57.9526784364" lon="-4.4468080066"><ele>19.84</ele><time>2012-08-10T13:40:46Z</time></trkpt><trkpt lat="57.9524585791" lon="-4.4462936092"><ele>21.29</ele><time>2012-08-10T13:40:48Z</time></trkpt><trkpt lat="57.9515606258" lon="-4.4440606702"><ele>24.17</ele><time>2012-08-10T13:40:57Z</time></trkpt><trkpt lat="57.9510549456" lon="-4.4428068213"><ele>28.02</ele><time>2012-08-10T13:41:02Z</time></trkpt><trkpt lat="57.9504209384" lon="-4.4412585162"><ele>30.90</ele><time>2012-08-10T13:41:08Z</time></trkpt><trkpt lat="57.9497642163" lon="-4.4391995016"><ele>30.90</ele><time>2012-08-10T13:41:16Z</time></trkpt><trkpt lat="57.9496746976" lon="-4.4390044548"><ele>31.38</ele><time>2012-08-10T13:41:17Z</time></trkpt><trkpt lat="57.9495686665" lon="-4.4388415106"><ele>31.86</ele><time>2012-08-10T13:41:18Z</time></trkpt><trkpt lat="57.9494466260" lon="-4.4386936538"><ele>31.38</ele><time>2012-08-10T13:41:19Z</time></trkpt><trkpt lat="57.9493167903" lon="-4.4385409355"><ele>31.38</ele><time>2012-08-10T13:41:20Z</time></trkpt><trkpt lat="57.9483641870" lon="-4.4367946498"><ele>29.46</ele><time>2012-08-10T13:41:28Z</time></trkpt><trkpt lat="57.9477704130" lon="-4.4349076319"><ele>31.38</ele><time>2012-08-10T13:41:35Z</time></trkpt><trkpt lat="57.9470504075" lon="-4.4313751627"><ele>30.42</ele><time>2012-08-10T13:41:46Z</time></trkpt><trkpt lat="57.9466790892" lon="-4.4296940044"><ele>28.02</ele><time>2012-08-10T13:41:52Z</time></trkpt><trkpt lat="57.9465776682" lon="-4.4294317346"><ele>28.02</ele><time>2012-08-10T13:41:53Z</time></trkpt><trkpt lat="57.9464586452" lon="-4.4291900005"><ele>28.98</ele><time>2012-08-10T13:41:54Z</time></trkpt><trkpt lat="57.9457882605" lon="-4.4280494750"><ele>27.53</ele><time>2012-08-10T13:41:59Z</time></trkpt><trkpt lat="57.9454427585" lon="-4.4273831975"><ele>26.57</ele><time>2012-08-10T13:42:02Z</time></trkpt><trkpt lat="57.9453581851" lon="-4.4271454029"><ele>25.61</ele><time>2012-08-10T13:42:03Z</time></trkpt><trkpt lat="57.9452968296" lon="-4.4268976338"><ele>25.13</ele><time>2012-08-10T13:42:04Z</time></trkpt><trkpt lat="57.9452582728" lon="-4.4266294967"><ele>25.61</ele><time>2012-08-10T13:42:05Z</time></trkpt><trkpt lat="57.9452360608" lon="-4.4263332803"><ele>27.05</ele><time>2012-08-10T13:42:06Z</time></trkpt><trkpt lat="57.9452145193" lon="-4.4260171149"><ele>27.53</ele><time>2012-08-10T13:42:07Z</time></trkpt><trkpt lat="57.9449259304" lon="-4.4235980976"><ele>28.98</ele><time>2012-08-10T13:42:14Z</time></trkpt><trkpt lat="57.9446406942" lon="-4.4216027018"><ele>30.90</ele><time>2012-08-10T13:42:20Z</time></trkpt><trkpt lat="57.9442923423" lon="-4.4179921132"><ele>28.50</ele><time>2012-08-10T13:42:31Z</time></trkpt><trkpt lat="57.9442133009" lon="-4.4157079607"><ele>26.09</ele><time>2012-08-10T13:42:39Z</time></trkpt><trkpt lat="57.9439648613" lon="-4.4134593476"><ele>26.09</ele><time>2012-08-10T13:42:48Z</time></trkpt><trkpt lat="57.9440426454" lon="-4.4114530552"><ele>24.65</ele><time>2012-08-10T13:42:56Z</time></trkpt><trkpt lat="57.9441191722" lon="-4.4106431957"><ele>24.17</ele><time>2012-08-10T13:43:00Z</time></trkpt><trkpt lat="57.9441687930" lon="-4.4104697742"><ele>23.69</ele><time>2012-08-10T13:43:01Z</time></trkpt><trkpt lat="57.9443639237" lon="-4.4098802749"><ele>21.77</ele><time>2012-08-10T13:43:05Z</time></trkpt><trkpt lat="57.9443852976" lon="-4.4097382855"><ele>21.29</ele><time>2012-08-10T13:43:06Z</time></trkpt><trkpt lat="57.9443904106" lon="-4.4095974695"><ele>20.81</ele><time>2012-08-10T13:43:07Z</time></trkpt><trkpt lat="57.9443734791" lon="-4.4094577432"><ele>20.32</ele><time>2012-08-10T13:43:08Z</time></trkpt><trkpt lat="57.9443348385" lon="-4.4093211181"><ele>20.32</ele><time>2012-08-10T13:43:09Z</time></trkpt><trkpt lat="57.9442830384" lon="-4.4091780391"><ele>20.32</ele><time>2012-08-10T13:43:10Z</time></trkpt><trkpt lat="57.9438027553" lon="-4.4079030678"><ele>22.25</ele><time>2012-08-10T13:43:17Z</time></trkpt><trkpt lat="57.9437025916" lon="-4.4077381957"><ele>23.21</ele><time>2012-08-10T13:43:18Z</time></trkpt><trkpt lat="57.9435907770" lon="-4.4075960387"><ele>23.21</ele><time>2012-08-10T13:43:19Z</time></trkpt><trkpt lat="57.9434678983" lon="-4.4074812904"><ele>24.65</ele><time>2012-08-10T13:43:20Z</time></trkpt><trkpt lat="57.9433388170" lon="-4.4073942862"><ele>25.13</ele><time>2012-08-10T13:43:21Z</time></trkpt><trkpt lat="57.9432015214" lon="-4.4073270634"><ele>26.09</ele><time>2012-08-10T13:43:22Z</time></trkpt><trkpt lat="57.9430561792" lon="-4.4072678871"><ele>26.09</ele><time>2012-08-10T13:43:23Z</time></trkpt><trkpt lat="57.9417228699" lon="-4.4069910329"><ele>28.98</ele><time>2012-08-10T13:43:31Z</time></trkpt><trkpt lat="57.9400304798" lon="-4.4064346422"><ele>32.34</ele><time>2012-08-10T13:43:40Z</time></trkpt><trkpt lat="57.9389779642" lon="-4.4058071729"><ele>35.71</ele><time>2012-08-10T13:43:45Z</time></trkpt><trkpt lat="57.9385395907" lon="-4.4055483397"><ele>36.67</ele><time>2012-08-10T13:43:47Z</time></trkpt><trkpt lat="57.9375349358" lon="-4.4049908593"><ele>36.19</ele><time>2012-08-10T13:43:52Z</time></trkpt><trkpt lat="57.9373539705" lon="-4.4049199484"><ele>35.71</ele><time>2012-08-10T13:43:53Z</time></trkpt><trkpt lat="57.9371761903" lon="-4.4048834033"><ele>34.74</ele><time>2012-08-10T13:43:54Z</time></trkpt><trkpt lat="57.9370003380" lon="-4.4048725069"><ele>33.78</ele><time>2012-08-10T13:43:55Z</time></trkpt><trkpt lat="57.9368230607" lon="-4.4048825651"><ele>33.78</ele><time>2012-08-10T13:43:56Z</time></trkpt><trkpt lat="57.9366442747" lon="-4.4049104769"><ele>33.30</ele><time>2012-08-10T13:43:57Z</time></trkpt><trkpt lat="57.9359380994" lon="-4.4050289970"><ele>31.86</ele><time>2012-08-10T13:44:01Z</time></trkpt><trkpt lat="57.9356127977" lon="-4.4050224591"><ele>29.94</ele><time>2012-08-10T13:44:03Z</time></trkpt><trkpt lat="57.9354651086" lon="-4.4049684796"><ele>29.46</ele><time>2012-08-10T13:44:04Z</time></trkpt><trkpt lat="57.9353303276" lon="-4.4048722554"><ele>29.46</ele><time>2012-08-10T13:44:05Z</time></trkpt><trkpt lat="57.9352186807" lon="-4.4047430065"><ele>28.50</ele><time>2012-08-10T13:44:06Z</time></trkpt><trkpt lat="57.9351451714" lon="-4.4046013523"><ele>27.05</ele><time>2012-08-10T13:44:07Z</time></trkpt><trkpt lat="57.9351089615" lon="-4.4044683315"><ele>26.57</ele><time>2012-08-10T13:44:08Z</time></trkpt><trkpt lat="57.9350968078" lon="-4.4043625519"><ele>25.61</ele><time>2012-08-10T13:44:09Z</time></trkpt><trkpt lat="57.9350924492" lon="-4.4042799901"><ele>24.65</ele><time>2012-08-10T13:44:10Z</time></trkpt><trkpt lat="57.9350869171" lon="-4.4042146951"><ele>24.65</ele><time>2012-08-10T13:44:11Z</time></trkpt><trkpt lat="57.9350177664" lon="-4.4040660840"><ele>24.65</ele><time>2012-08-10T13:44:15Z</time></trkpt><trkpt lat="57.9349556565" lon="-4.4040443748"><ele>25.13</ele><time>2012-08-10T13:44:16Z</time></trkpt><trkpt lat="57.9348756932" lon="-4.4040416926"><ele>25.13</ele><time>2012-08-10T13:44:17Z</time></trkpt><trkpt lat="57.9341167957" lon="-4.4040434528"><ele>26.09</ele><time>2012-08-10T13:44:23Z</time></trkpt><trkpt lat="57.9325254913" lon="-4.4037301373"><ele>26.57</ele><time>2012-08-10T13:44:32Z</time></trkpt><trkpt lat="57.9312919267" lon="-4.4024622068"><ele>26.09</ele><time>2012-08-10T13:44:39Z</time></trkpt><trkpt lat="57.9299359024" lon="-4.4014533609"><ele>26.09</ele><time>2012-08-10T13:44:46Z</time></trkpt><trkpt lat="57.9293231852" lon="-4.4011292327"><ele>24.17</ele><time>2012-08-10T13:44:49Z</time></trkpt><trkpt lat="57.9274812620" lon="-4.4004025217"><ele>24.65</ele><time>2012-08-10T13:44:57Z</time></trkpt><trkpt lat="57.9262367170" lon="-4.4007730857"><ele>26.09</ele><time>2012-08-10T13:45:02Z</time></trkpt><trkpt lat="57.9255304579" lon="-4.4009057712"><ele>25.61</ele><time>2012-08-10T13:45:05Z</time></trkpt><trkpt lat="57.9253154621" lon="-4.4008704834"><ele>25.61</ele><time>2012-08-10T13:45:06Z</time></trkpt><trkpt lat="57.9251132905" lon="-4.4007954653"><ele>24.17</ele><time>2012-08-10T13:45:07Z</time></trkpt><trkpt lat="57.9249189980" lon="-4.4006906915"><ele>23.69</ele><time>2012-08-10T13:45:08Z</time></trkpt><trkpt lat="57.9247341771" lon="-4.4005599339"><ele>22.73</ele><time>2012-08-10T13:45:09Z</time></trkpt><trkpt lat="57.9245571513" lon="-4.4004081376"><ele>21.77</ele><time>2012-08-10T13:45:10Z</time></trkpt><trkpt lat="57.9236804042" lon="-4.3995194882"><ele>18.40</ele><time>2012-08-10T13:45:15Z</time></trkpt><trkpt lat="57.9232881311" lon="-4.3992543686"><ele>17.44</ele><time>2012-08-10T13:45:17Z</time></trkpt><trkpt lat="57.9217266664" lon="-4.3987503648"><ele>19.84</ele><time>2012-08-10T13:45:24Z</time></trkpt><trkpt lat="57.9195783008" lon="-4.3974427041"><ele>20.81</ele><time>2012-08-10T13:45:33Z</time></trkpt><trkpt lat="57.9184332490" lon="-4.3959780503"><ele>22.73</ele><time>2012-08-10T13:45:39Z</time></trkpt><trkpt lat="57.9177672230" lon="-4.3942388892"><ele>26.09</ele><time>2012-08-10T13:45:44Z</time></trkpt><trkpt lat="57.9176347051" lon="-4.3938166089"><ele>26.09</ele><time>2012-08-10T13:45:45Z</time></trkpt><trkpt lat="57.9173440207" lon="-4.3929148000"><ele>29.46</ele><time>2012-08-10T13:45:47Z</time></trkpt><trkpt lat="57.9171964154" lon="-4.3924507778"><ele>28.98</ele><time>2012-08-10T13:45:48Z</time></trkpt><trkpt lat="57.9157860763" lon="-4.3879257236"><ele>28.02</ele><time>2012-08-10T13:45:58Z</time></trkpt><trkpt lat="57.9146318045" lon="-4.3842294719"><ele>24.65</ele><time>2012-08-10T13:46:06Z</time></trkpt><trkpt lat="57.9127744585" lon="-4.3784084078"><ele>21.29</ele><time>2012-08-10T13:46:20Z</time></trkpt><trkpt lat="57.9114835616" lon="-4.3744751159"><ele>21.29</ele><time>2012-08-10T13:46:30Z</time></trkpt><trkpt lat="57.9102914035" lon="-4.3717554398"><ele>20.32</ele><time>2012-08-10T13:46:37Z</time></trkpt><trkpt lat="57.9096925166" lon="-4.3696488999"><ele>23.69</ele><time>2012-08-10T13:46:42Z</time></trkpt><trkpt lat="57.9095983878" lon="-4.3692094367"><ele>24.17</ele><time>2012-08-10T13:46:43Z</time></trkpt><trkpt lat="57.9088970739" lon="-4.3661890179"><ele>27.05</ele><time>2012-08-10T13:46:50Z</time></trkpt><trkpt lat="57.9087876063" lon="-4.3657564279"><ele>27.53</ele><time>2012-08-10T13:46:51Z</time></trkpt><trkpt lat="57.9085514043" lon="-4.3649103586"><ele>28.50</ele><time>2012-08-10T13:46:53Z</time></trkpt><trkpt lat="57.9078227654" lon="-4.3628928345"><ele>31.38</ele><time>2012-08-10T13:46:58Z</time></trkpt><trkpt lat="57.9066681582" lon="-4.3609919026"><ele>32.82</ele><time>2012-08-10T13:47:04Z</time></trkpt><trkpt lat="57.9048231337" lon="-4.3592767976"><ele>31.38</ele><time>2012-08-10T13:47:12Z</time></trkpt><trkpt lat="57.9046052881" lon="-4.3590354826"><ele>30.90</ele><time>2012-08-10T13:47:13Z</time></trkpt><trkpt lat="57.9034311511" lon="-4.3574576732"><ele>27.53</ele><time>2012-08-10T13:47:19Z</time></trkpt><trkpt lat="57.9022655636" lon="-4.3558359426"><ele>24.17</ele><time>2012-08-10T13:47:26Z</time></trkpt><trkpt lat="57.9002873506" lon="-4.3530176114"><ele>24.17</ele><time>2012-08-10T13:47:39Z</time></trkpt><trkpt lat="57.8990349267" lon="-4.3517194223"><ele>20.81</ele><time>2012-08-10T13:47:48Z</time></trkpt><trkpt lat="57.8987587430" lon="-4.3514491897"><ele>19.84</ele><time>2012-08-10T13:47:50Z</time></trkpt><trkpt lat="57.8971748985" lon="-4.3498358410"><ele>17.92</ele><time>2012-08-10T13:48:03Z</time></trkpt><trkpt lat="57.8953508288" lon="-4.3483451195"><ele>19.84</ele><time>2012-08-10T13:48:19Z</time></trkpt><trkpt lat="57.8937548306" lon="-4.3472672068"><ele>18.88</ele><time>2012-08-10T13:48:33Z</time></trkpt><trkpt lat="57.8926604055" lon="-4.3466777075"><ele>16.96</ele><time>2012-08-10T13:48:44Z</time></trkpt><trkpt lat="57.8922952060" lon="-4.3465292640"><ele>16.48</ele><time>2012-08-10T13:48:49Z</time></trkpt><trkpt lat="57.8918999154" lon="-4.3463318702"><ele>15.04</ele><time>2012-08-10T13:48:54Z</time></trkpt><trkpt lat="57.8918283340" lon="-4.3463311158"><ele>15.04</ele><time>2012-08-10T13:48:55Z</time></trkpt><trkpt lat="57.8917719238" lon="-4.3463482987"><ele>14.08</ele><time>2012-08-10T13:48:56Z</time></trkpt><trkpt lat="57.8917365521" lon="-4.3463694211"><ele>13.60</ele><time>2012-08-10T13:48:57Z</time></trkpt><trkpt lat="57.8917177767" lon="-4.3463933095"><ele>13.60</ele><time>2012-08-10T13:48:58Z</time></trkpt><trkpt lat="57.8917048685" lon="-4.3464383204"><ele>13.60</ele><time>2012-08-10T13:48:59Z</time></trkpt><trkpt lat="57.8916978277" lon="-4.3465170264"><ele>13.60</ele><time>2012-08-10T13:49:00Z</time></trkpt><trkpt lat="57.8917021025" lon="-4.3466321100"><ele>13.60</ele><time>2012-08-10T13:49:01Z</time></trkpt><trkpt lat="57.8917068802" lon="-4.3467669748"><ele>14.56</ele><time>2012-08-10T13:49:02Z</time></trkpt><trkpt lat="57.8916991688" lon="-4.3469026778"><ele>14.56</ele><time>2012-08-10T13:49:03Z</time></trkpt><trkpt lat="57.8916777112" lon="-4.3470438290"><ele>15.04</ele><time>2012-08-10T13:49:04Z</time></trkpt><trkpt lat="57.8916457761" lon="-4.3472095393"><ele>14.56</ele><time>2012-08-10T13:49:05Z</time></trkpt><trkpt lat="57.8913251683" lon="-4.3488988280"><ele>13.60</ele><time>2012-08-10T13:49:13Z</time></trkpt><trkpt lat="57.8908844478" lon="-4.3502990250"><ele>11.67</ele><time>2012-08-10T13:49:19Z</time></trkpt><trkpt lat="57.8906072583" lon="-4.3510404043"><ele>7.83</ele><time>2012-08-10T13:49:24Z</time></trkpt><trkpt lat="57.8906054981" lon="-4.3511155061"><ele>7.35</ele><time>2012-08-10T13:49:25Z</time></trkpt><trkpt lat="57.8906925023" lon="-4.3511823937"><ele>7.83</ele><time>2012-08-10T13:49:28Z</time></trkpt><trkpt lat="57.8907364234" lon="-4.3511411548"><ele>7.83</ele><time>2012-08-10T13:49:29Z</time></trkpt><trkpt lat="57.8907818533" lon="-4.3510746863"><ele>8.31</ele><time>2012-08-10T13:49:30Z</time></trkpt><trkpt lat="57.8908261098" lon="-4.3509790488"><ele>8.31</ele><time>2012-08-10T13:49:31Z</time></trkpt><trkpt lat="57.8908624034" lon="-4.3508655578"><ele>7.83</ele><time>2012-08-10T13:49:32Z</time></trkpt><trkpt lat="57.8908947576" lon="-4.3507461157"><ele>7.83</ele><time>2012-08-10T13:49:33Z</time></trkpt><trkpt lat="57.8909423668" lon="-4.3505040463"><ele>8.31</ele><time>2012-08-10T13:49:35Z</time></trkpt><trkpt lat="57.8909530956" lon="-4.3503980990"><ele>7.83</ele><time>2012-08-10T13:49:36Z</time></trkpt><trkpt lat="57.8909556102" lon="-4.3503181357"><ele>7.83</ele><time>2012-08-10T13:49:37Z</time></trkpt><trkpt lat="57.8909583762" lon="-4.3502639048"><ele>7.35</ele><time>2012-08-10T13:49:38Z</time></trkpt><trkpt lat="57.8909645788" lon="-4.3502145354"><ele>7.83</ele><time>2012-08-10T13:49:39Z</time></trkpt><trkpt lat="57.8909796663" lon="-4.3501367513"><ele>7.83</ele><time>2012-08-10T13:49:40Z</time></trkpt><trkpt lat="57.8910070751" lon="-4.3500220869"><ele>8.31</ele><time>2012-08-10T13:49:41Z</time></trkpt><trkpt lat="57.8910435364" lon="-4.3498958554"><ele>8.79</ele><time>2012-08-10T13:49:42Z</time></trkpt><trkpt lat="57.8910779022" lon="-4.3497780897"><ele>9.27</ele><time>2012-08-10T13:49:43Z</time></trkpt><trkpt lat="57.8910916485" lon="-4.3496656884"><ele>9.27</ele><time>2012-08-10T13:49:44Z</time></trkpt><trkpt lat="57.8909494914" lon="-4.3493340164"><ele>8.79</ele><time>2012-08-10T13:49:49Z</time></trkpt><trkpt lat="57.8908805083" lon="-4.3492652010"><ele>8.31</ele><time>2012-08-10T13:49:52Z</time></trkpt><trkpt lat="57.8908443823" lon="-4.3492668774"><ele>8.31</ele><time>2012-08-10T13:50:09Z</time></trkpt><trkpt lat="57.8908277024" lon="-4.3492804561"><ele>8.31</ele><time>2012-08-10T13:50:36Z</time></trkpt><trkpt lat="57.8908213321" lon="-4.3492563162"><ele>7.83</ele><time>2012-08-10T13:50:56Z</time></trkpt><trkpt lat="57.8908508364" lon="-4.3492547236"><ele>8.79</ele><time>2012-08-10T13:51:30Z</time></trkpt><trkpt lat="57.8908303846" lon="-4.3492288236"><ele>8.31</ele><time>2012-08-10T13:51:59Z</time></trkpt><trkpt lat="57.8908175603" lon="-4.3492226209"><ele>8.31</ele><time>2012-08-10T13:52:34Z</time></trkpt><trkpt lat="57.8908253554" lon="-4.3492157478"><ele>8.79</ele><time>2012-08-10T13:52:59Z</time></trkpt><trkpt lat="57.8908266127" lon="-4.3492283206"><ele>8.31</ele><time>2012-08-10T13:53:26Z</time></trkpt><trkpt lat="57.8908271994" lon="-4.3492320925"><ele>8.31</ele><time>2012-08-10T13:53:53Z</time></trkpt><trkpt lat="57.8908204101" lon="-4.3492438272"><ele>7.35</ele><time>2012-08-10T13:54:25Z</time></trkpt><trkpt lat="57.8908119444" lon="-4.3492768519"><ele>7.83</ele><time>2012-08-10T13:55:05Z</time></trkpt><trkpt lat="57.8908086754" lon="-4.3492837250"><ele>8.31</ele><time>2012-08-10T13:55:39Z</time></trkpt><trkpt lat="57.8908164706" lon="-4.3492666259"><ele>8.31</ele><time>2012-08-10T13:56:16Z</time></trkpt><trkpt lat="57.8908113576" lon="-4.3492624350"><ele>8.31</ele><time>2012-08-10T13:56:59Z</time></trkpt><trkpt lat="57.8907987010" lon="-4.3492628541"><ele>9.27</ele><time>2012-08-10T13:57:27Z</time></trkpt><trkpt lat="57.8908012994" lon="-4.3492693081"><ele>9.75</ele><time>2012-08-10T13:57:59Z</time></trkpt><trkpt lat="57.8907940071" lon="-4.3492597528"><ele>8.79</ele><time>2012-08-10T13:58:31Z</time></trkpt><trkpt lat="57.8908342402" lon="-4.3488790467"><ele>9.27</ele><time>2012-08-10T13:58:38Z</time></trkpt><trkpt lat="57.8909423668" lon="-4.3492662907"><ele>9.75</ele><time>2012-08-10T13:58:44Z</time></trkpt><trkpt lat="57.8910405189" lon="-4.3497109506"><ele>9.27</ele><time>2012-08-10T13:58:52Z</time></trkpt><trkpt lat="57.8910336457" lon="-4.3497837894"><ele>9.27</ele><time>2012-08-10T13:58:53Z</time></trkpt><trkpt lat="57.8910047282" lon="-4.3498763256"><ele>10.23</ele><time>2012-08-10T13:58:54Z</time></trkpt><trkpt lat="57.8909676801" lon="-4.3499783333"><ele>9.75</ele><time>2012-08-10T13:58:55Z</time></trkpt><trkpt lat="57.8905832861" lon="-4.3509639613"><ele>10.71</ele><time>2012-08-10T13:59:02Z</time></trkpt><trkpt lat="57.8899122309" lon="-4.3525000289"><ele>13.12</ele><time>2012-08-10T13:59:09Z</time></trkpt><trkpt lat="57.8895773739" lon="-4.3532424141"><ele>14.56</ele><time>2012-08-10T13:59:12Z</time></trkpt><trkpt lat="57.8881141450" lon="-4.3562096078"><ele>15.04</ele><time>2012-08-10T13:59:24Z</time></trkpt><trkpt lat="57.8863852099" lon="-4.3590309564"><ele>15.52</ele><time>2012-08-10T13:59:36Z</time></trkpt><trkpt lat="57.8842629120" lon="-4.3610167131"><ele>15.52</ele><time>2012-08-10T13:59:48Z</time></trkpt><trkpt lat="57.8834294993" lon="-4.3616325315"><ele>13.60</ele><time>2012-08-10T13:59:53Z</time></trkpt><trkpt lat="57.8831466101" lon="-4.3618454318"><ele>12.15</ele><time>2012-08-10T13:59:55Z</time></trkpt><trkpt lat="57.8824853618" lon="-4.3623807002"><ele>16.00</ele><time>2012-08-10T14:00:00Z</time></trkpt><trkpt lat="57.8822549433" lon="-4.3626018986"><ele>17.44</ele><time>2012-08-10T14:00:02Z</time></trkpt><trkpt lat="57.8818719741" lon="-4.3630213290"><ele>18.40</ele><time>2012-08-10T14:00:06Z</time></trkpt><trkpt lat="57.8817708883" lon="-4.3630851153"><ele>17.92</ele><time>2012-08-10T14:00:07Z</time></trkpt><trkpt lat="57.8816652764" lon="-4.3631161284"><ele>16.96</ele><time>2012-08-10T14:00:08Z</time></trkpt><trkpt lat="57.8815558087" lon="-4.3631100096"><ele>17.92</ele><time>2012-08-10T14:00:09Z</time></trkpt><trkpt lat="57.8814436588" lon="-4.3630644120"><ele>17.44</ele><time>2012-08-10T14:00:10Z</time></trkpt><trkpt lat="57.8813286591" lon="-4.3629921600"><ele>17.92</ele><time>2012-08-10T14:00:11Z</time></trkpt><trkpt lat="57.8812150005" lon="-4.3629104365"><ele>17.44</ele><time>2012-08-10T14:00:12Z</time></trkpt><trkpt lat="57.8805715218" lon="-4.3623444904"><ele>18.88</ele><time>2012-08-10T14:00:18Z</time></trkpt><trkpt lat="57.8793479316" lon="-4.3609171361"><ele>20.81</ele><time>2012-08-10T14:00:29Z</time></trkpt><trkpt lat="57.8788544051" lon="-4.3602805305"><ele>22.25</ele><time>2012-08-10T14:00:33Z</time></trkpt><trkpt lat="57.8782528359" lon="-4.3595761992"><ele>24.65</ele><time>2012-08-10T14:00:37Z</time></trkpt><trkpt lat="57.8761386685" lon="-4.3574595172"><ele>24.17</ele><time>2012-08-10T14:00:50Z</time></trkpt><trkpt lat="57.8748947103" lon="-4.3554529734"><ele>21.77</ele><time>2012-08-10T14:00:58Z</time></trkpt><trkpt lat="57.8735053260" lon="-4.3534815498"><ele>24.17</ele><time>2012-08-10T14:01:06Z</time></trkpt><trkpt lat="57.8725110646" lon="-4.3524652440"><ele>26.57</ele><time>2012-08-10T14:01:12Z</time></trkpt><trkpt lat="57.8722173627" lon="-4.3520412035"><ele>27.05</ele><time>2012-08-10T14:01:14Z</time></trkpt><trkpt lat="57.8720910475" lon="-4.3517949432"><ele>26.09</ele><time>2012-08-10T14:01:15Z</time></trkpt><trkpt lat="57.8719866928" lon="-4.3515087850"><ele>26.57</ele><time>2012-08-10T14:01:16Z</time></trkpt><trkpt lat="57.8718968388" lon="-4.3511928711"><ele>26.57</ele><time>2012-08-10T14:01:17Z</time></trkpt><trkpt lat="57.8718085773" lon="-4.3508579303"><ele>28.02</ele><time>2012-08-10T14:01:18Z</time></trkpt><trkpt lat="57.8716229182" lon="-4.3501823489"><ele>28.98</ele><time>2012-08-10T14:01:20Z</time></trkpt><trkpt lat="57.8704797942" lon="-4.3452774268"><ele>29.94</ele><time>2012-08-10T14:01:34Z</time></trkpt><trkpt lat="57.8690759931" lon="-4.3396805786"><ele>28.50</ele><time>2012-08-10T14:01:49Z</time></trkpt><trkpt lat="57.8681519721" lon="-4.3368334975"><ele>25.61</ele><time>2012-08-10T14:01:57Z</time></trkpt><trkpt lat="57.8676398378" lon="-4.3355003558"><ele>22.25</ele><time>2012-08-10T14:02:01Z</time></trkpt><trkpt lat="57.8672712855" lon="-4.3345561344"><ele>20.81</ele><time>2012-08-10T14:02:04Z</time></trkpt><trkpt lat="57.8657201305" lon="-4.3305588886"><ele>22.73</ele><time>2012-08-10T14:02:17Z</time></trkpt><trkpt lat="57.8652406018" lon="-4.3293872662"><ele>25.13</ele><time>2012-08-10T14:02:21Z</time></trkpt><trkpt lat="57.8645298164" lon="-4.3276996538"><ele>24.17</ele><time>2012-08-10T14:02:27Z</time></trkpt><trkpt lat="57.8642634396" lon="-4.3268711027"><ele>22.73</ele><time>2012-08-10T14:02:30Z</time></trkpt><trkpt lat="57.8637195379" lon="-4.3246168736"><ele>19.84</ele><time>2012-08-10T14:02:39Z</time></trkpt><trkpt lat="57.8634842578" lon="-4.3236613367"><ele>17.92</ele><time>2012-08-10T14:02:46Z</time></trkpt><trkpt lat="57.8634681646" lon="-4.3236045912"><ele>17.92</ele><time>2012-08-10T14:02:47Z</time></trkpt><trkpt lat="57.8634432703" lon="-4.3235472590"><ele>17.92</ele><time>2012-08-10T14:02:56Z</time></trkpt><trkpt lat="57.8633200563" lon="-4.3232326861"><ele>18.88</ele><time>2012-08-10T14:03:16Z</time></trkpt><trkpt lat="57.8629402723" lon="-4.3218039069"><ele>20.32</ele><time>2012-08-10T14:03:23Z</time></trkpt><trkpt lat="57.8625003900" lon="-4.3195707165"><ele>20.81</ele><time>2012-08-10T14:03:31Z</time></trkpt><trkpt lat="57.8624127991" lon="-4.3193170801"><ele>19.84</ele><time>2012-08-10T14:03:32Z</time></trkpt><trkpt lat="57.8622200992" lon="-4.3187880982"><ele>18.88</ele><time>2012-08-10T14:03:34Z</time></trkpt><trkpt lat="57.8618714120" lon="-4.3177137058"><ele>15.52</ele><time>2012-08-10T14:03:38Z</time></trkpt><trkpt lat="57.8617478628" lon="-4.3174806051"><ele>15.52</ele><time>2012-08-10T14:03:39Z</time></trkpt><trkpt lat="57.8615996707" lon="-4.3172702193"><ele>15.04</ele><time>2012-08-10T14:03:40Z</time></trkpt><trkpt lat="57.8614325356" lon="-4.3170815427"><ele>15.04</ele><time>2012-08-10T14:03:41Z</time></trkpt><trkpt lat="57.8612617124" lon="-4.3169066962"><ele>14.56</ele><time>2012-08-10T14:03:42Z</time></trkpt><trkpt lat="57.8609461337" lon="-4.3165260740"><ele>14.08</ele><time>2012-08-10T14:03:44Z</time></trkpt><trkpt lat="57.8608064074" lon="-4.3162987567"><ele>15.04</ele><time>2012-08-10T14:03:45Z</time></trkpt><trkpt lat="57.8606792539" lon="-4.3160470482"><ele>15.04</ele><time>2012-08-10T14:03:46Z</time></trkpt><trkpt lat="57.8605708759" lon="-4.3157649972"><ele>15.04</ele><time>2012-08-10T14:03:47Z</time></trkpt><trkpt lat="57.8604707122" lon="-4.3154680263"><ele>15.52</ele><time>2012-08-10T14:03:48Z</time></trkpt><trkpt lat="57.8602587339" lon="-4.3149032537"><ele>16.00</ele><time>2012-08-10T14:03:50Z</time></trkpt><trkpt lat="57.8601330891" lon="-4.3146544788"><ele>16.48</ele><time>2012-08-10T14:03:51Z</time></trkpt><trkpt lat="57.8595433384" lon="-4.3137050606"><ele>18.88</ele><time>2012-08-10T14:03:55Z</time></trkpt><trkpt lat="57.8592387401" lon="-4.3132256996"><ele>20.32</ele><time>2012-08-10T14:03:57Z</time></trkpt><trkpt lat="57.8588102572" lon="-4.3125485256"><ele>19.84</ele><time>2012-08-10T14:04:00Z</time></trkpt><trkpt lat="57.8586460557" lon="-4.3123894371"><ele>20.81</ele><time>2012-08-10T14:04:01Z</time></trkpt><trkpt lat="57.8584707063" lon="-4.3122683186"><ele>21.29</ele><time>2012-08-10T14:04:02Z</time></trkpt><trkpt lat="57.8582822811" lon="-4.3121891934"><ele>21.77</ele><time>2012-08-10T14:04:03Z</time></trkpt><trkpt lat="57.8580824565" lon="-4.3121396564"><ele>22.73</ele><time>2012-08-10T14:04:04Z</time></trkpt><trkpt lat="57.8566786554" lon="-4.3115670886"><ele>24.17</ele><time>2012-08-10T14:04:12Z</time></trkpt><trkpt lat="57.8565521725" lon="-4.3114233389"><ele>23.69</ele><time>2012-08-10T14:04:13Z</time></trkpt><trkpt lat="57.8564411122" lon="-4.3112324830"><ele>23.21</ele><time>2012-08-10T14:04:14Z</time></trkpt><trkpt lat="57.8563393559" lon="-4.3110044114"><ele>23.69</ele><time>2012-08-10T14:04:15Z</time></trkpt><trkpt lat="57.8562401980" lon="-4.3107470032"><ele>24.17</ele><time>2012-08-10T14:04:16Z</time></trkpt><trkpt lat="57.8557377867" lon="-4.3092277832"><ele>27.53</ele><time>2012-08-10T14:04:21Z</time></trkpt><trkpt lat="57.8550322820" lon="-4.3067461532"><ele>28.02</ele><time>2012-08-10T14:04:29Z</time></trkpt><trkpt lat="57.8550000954" lon="-4.3064351007"><ele>28.02</ele><time>2012-08-10T14:04:30Z</time></trkpt><trkpt lat="57.8549389075" lon="-4.3058619462"><ele>27.05</ele><time>2012-08-10T14:04:32Z</time></trkpt><trkpt lat="57.8548705112" lon="-4.3056068011"><ele>27.53</ele><time>2012-08-10T14:04:33Z</time></trkpt><trkpt lat="57.8547692578" lon="-4.3053762987"><ele>27.53</ele><time>2012-08-10T14:04:34Z</time></trkpt><trkpt lat="57.8546449542" lon="-4.3051761389"><ele>28.02</ele><time>2012-08-10T14:04:35Z</time></trkpt><trkpt lat="57.8545031324" lon="-4.3050193973"><ele>28.50</ele><time>2012-08-10T14:04:36Z</time></trkpt><trkpt lat="57.8543492407" lon="-4.3049058225"><ele>28.02</ele><time>2012-08-10T14:04:37Z</time></trkpt><trkpt lat="57.8541907389" lon="-4.3048218358"><ele>28.02</ele><time>2012-08-10T14:04:38Z</time></trkpt><trkpt lat="57.8540358413" lon="-4.3047467340"><ele>28.02</ele><time>2012-08-10T14:04:39Z</time></trkpt><trkpt lat="57.8537627589" lon="-4.3045557942"><ele>27.05</ele><time>2012-08-10T14:04:41Z</time></trkpt><trkpt lat="57.8536545485" lon="-4.3044059258"><ele>27.53</ele><time>2012-08-10T14:04:42Z</time></trkpt><trkpt lat="57.8535688017" lon="-4.3042118847"><ele>27.53</ele><time>2012-08-10T14:04:43Z</time></trkpt><trkpt lat="57.8534900956" lon="-4.3039864954"><ele>28.02</ele><time>2012-08-10T14:04:44Z</time></trkpt><trkpt lat="57.8534123953" lon="-4.3037358765"><ele>28.50</ele><time>2012-08-10T14:04:45Z</time></trkpt><trkpt lat="57.8532336093" lon="-4.3031509873"><ele>29.46</ele><time>2012-08-10T14:04:47Z</time></trkpt><trkpt lat="57.8529317770" lon="-4.3021339271"><ele>30.90</ele><time>2012-08-10T14:04:50Z</time></trkpt><trkpt lat="57.8525654878" lon="-4.3008093350"><ele>29.46</ele><time>2012-08-10T14:04:54Z</time></trkpt><trkpt lat="57.8524865303" lon="-4.3004679400"><ele>28.98</ele><time>2012-08-10T14:04:55Z</time></trkpt><trkpt lat="57.8524194751" lon="-4.3001113739"><ele>28.50</ele><time>2012-08-10T14:04:56Z</time></trkpt><trkpt lat="57.8521883022" lon="-4.2987343948"><ele>28.02</ele><time>2012-08-10T14:05:00Z</time></trkpt><trkpt lat="57.8521010466" lon="-4.2984097637"><ele>28.50</ele><time>2012-08-10T14:05:01Z</time></trkpt><trkpt lat="57.8517808579" lon="-4.2974217050"><ele>29.94</ele><time>2012-08-10T14:05:04Z</time></trkpt><trkpt lat="57.8514446598" lon="-4.2961190734"><ele>27.53</ele><time>2012-08-10T14:05:08Z</time></trkpt><trkpt lat="57.8514045104" lon="-4.2957782652"><ele>27.53</ele><time>2012-08-10T14:05:09Z</time></trkpt><trkpt lat="57.8512941208" lon="-4.2946999334"><ele>28.02</ele><time>2012-08-10T14:05:12Z</time></trkpt><trkpt lat="57.8510668036" lon="-4.2932833917"><ele>28.02</ele><time>2012-08-10T14:05:16Z</time></trkpt><trkpt lat="57.8510516323" lon="-4.2929305974"><ele>27.53</ele><time>2012-08-10T14:05:17Z</time></trkpt><trkpt lat="57.8510583378" lon="-4.2925746180"><ele>27.05</ele><time>2012-08-10T14:05:18Z</time></trkpt><trkpt lat="57.8510834835" lon="-4.2922157049"><ele>28.02</ele><time>2012-08-10T14:05:19Z</time></trkpt><trkpt lat="57.8511181846" lon="-4.2918479070"><ele>28.50</ele><time>2012-08-10T14:05:20Z</time></trkpt><trkpt lat="57.8511611000" lon="-4.2910598405"><ele>29.46</ele><time>2012-08-10T14:05:22Z</time></trkpt><trkpt lat="57.8509583417" lon="-4.2886156775"><ele>31.38</ele><time>2012-08-10T14:05:28Z</time></trkpt><trkpt lat="57.8505042102" lon="-4.2863780446"><ele>28.02</ele><time>2012-08-10T14:05:34Z</time></trkpt><trkpt lat="57.8504384123" lon="-4.2860095762"><ele>28.02</ele><time>2012-08-10T14:05:35Z</time></trkpt><trkpt lat="57.8500114381" lon="-4.2823190242"><ele>25.61</ele><time>2012-08-10T14:05:45Z</time></trkpt><trkpt lat="57.8499064129" lon="-4.2791101802"><ele>25.61</ele><time>2012-08-10T14:05:53Z</time></trkpt><trkpt lat="57.8498734720" lon="-4.2773151118"><ele>22.25</ele><time>2012-08-10T14:05:57Z</time></trkpt><trkpt lat="57.8497967776" lon="-4.2757927068"><ele>19.36</ele><time>2012-08-10T14:06:01Z</time></trkpt><trkpt lat="57.8497430496" lon="-4.2750903871"><ele>17.92</ele><time>2012-08-10T14:06:03Z</time></trkpt><trkpt lat="57.8497461509" lon="-4.2747285403"><ele>17.44</ele><time>2012-08-10T14:06:04Z</time></trkpt><trkpt lat="57.8500407748" lon="-4.2716874182"><ele>16.00</ele><time>2012-08-10T14:06:12Z</time></trkpt><trkpt lat="57.8501839377" lon="-4.2686025426"><ele>16.96</ele><time>2012-08-10T14:06:20Z</time></trkpt><trkpt lat="57.8502776474" lon="-4.2675007414"><ele>16.00</ele><time>2012-08-10T14:06:23Z</time></trkpt><trkpt lat="57.8503483906" lon="-4.2671523895"><ele>15.52</ele><time>2012-08-10T14:06:24Z</time></trkpt><trkpt lat="57.8507192060" lon="-4.2657656036"><ele>17.44</ele><time>2012-08-10T14:06:28Z</time></trkpt><trkpt lat="57.8516917583" lon="-4.2627195362"><ele>19.84</ele><time>2012-08-10T14:06:37Z</time></trkpt><trkpt lat="57.8518384416" lon="-4.2624465376"><ele>19.36</ele><time>2012-08-10T14:06:38Z</time></trkpt><trkpt lat="57.8533654567" lon="-4.2595503386"><ele>23.69</ele><time>2012-08-10T14:06:48Z</time></trkpt><trkpt lat="57.8535199352" lon="-4.2591961194"><ele>23.69</ele><time>2012-08-10T14:06:49Z</time></trkpt><trkpt lat="57.8554579150" lon="-4.2543495353"><ele>26.09</ele><time>2012-08-10T14:07:02Z</time></trkpt><trkpt lat="57.8561169840" lon="-4.2516943160"><ele>23.69</ele><time>2012-08-10T14:07:09Z</time></trkpt><trkpt lat="57.8561654314" lon="-4.2513030488"><ele>23.69</ele><time>2012-08-10T14:07:10Z</time></trkpt><trkpt lat="57.8562538605" lon="-4.2505045049"><ele>23.69</ele><time>2012-08-10T14:07:12Z</time></trkpt><trkpt lat="57.8563225083" lon="-4.2501156684"><ele>22.73</ele><time>2012-08-10T14:07:13Z</time></trkpt><trkpt lat="57.8564000409" lon="-4.2497421708"><ele>22.73</ele><time>2012-08-10T14:07:14Z</time></trkpt><trkpt lat="57.8569615446" lon="-4.2466878053"><ele>21.29</ele><time>2012-08-10T14:07:22Z</time></trkpt><trkpt lat="57.8575557377" lon="-4.2429949902"><ele>21.29</ele><time>2012-08-10T14:07:31Z</time></trkpt><trkpt lat="57.8582252841" lon="-4.2389044538"><ele>23.21</ele><time>2012-08-10T14:07:41Z</time></trkpt><trkpt lat="57.8582599014" lon="-4.2385570239"><ele>23.21</ele><time>2012-08-10T14:07:42Z</time></trkpt><trkpt lat="57.8582692891" lon="-4.2382189818"><ele>24.17</ele><time>2012-08-10T14:07:43Z</time></trkpt><trkpt lat="57.8582431376" lon="-4.2378844600"><ele>24.17</ele><time>2012-08-10T14:07:44Z</time></trkpt><trkpt lat="57.8581853863" lon="-4.2375532072"><ele>24.65</ele><time>2012-08-10T14:07:45Z</time></trkpt><trkpt lat="57.8581262939" lon="-4.2372130696"><ele>25.61</ele><time>2012-08-10T14:07:46Z</time></trkpt><trkpt lat="57.8580878209" lon="-4.2368570063"><ele>25.61</ele><time>2012-08-10T14:07:47Z</time></trkpt><trkpt lat="57.8580737393" lon="-4.2364813294"><ele>26.57</ele><time>2012-08-10T14:07:48Z</time></trkpt><trkpt lat="57.8580748290" lon="-4.2360831890"><ele>27.53</ele><time>2012-08-10T14:07:49Z</time></trkpt><trkpt lat="57.8580527846" lon="-4.2329776101"><ele>28.50</ele><time>2012-08-10T14:07:57Z</time></trkpt><trkpt lat="57.8580213524" lon="-4.2326569185"><ele>29.46</ele><time>2012-08-10T14:07:58Z</time></trkpt><trkpt lat="57.8579717316" lon="-4.2323420942"><ele>30.42</ele><time>2012-08-10T14:07:59Z</time></trkpt><trkpt lat="57.8579004016" lon="-4.2320298683"><ele>31.86</ele><time>2012-08-10T14:08:00Z</time></trkpt><trkpt lat="57.8578019980" lon="-4.2317225877"><ele>33.30</ele><time>2012-08-10T14:08:01Z</time></trkpt><trkpt lat="57.8576779459" lon="-4.2314159777"><ele>34.26</ele><time>2012-08-10T14:08:02Z</time></trkpt><trkpt lat="57.8568450361" lon="-4.2290891614"><ele>36.19</ele><time>2012-08-10T14:08:09Z</time></trkpt><trkpt lat="57.8563259449" lon="-4.2259952333"><ele>37.15</ele><time>2012-08-10T14:08:17Z</time></trkpt><trkpt lat="57.8559845500" lon="-4.2216306925"><ele>38.11</ele><time>2012-08-10T14:08:27Z</time></trkpt><trkpt lat="57.8555061948" lon="-4.2178877536"><ele>40.51</ele><time>2012-08-10T14:08:36Z</time></trkpt><trkpt lat="57.8546820022" lon="-4.2144033965"><ele>38.59</ele><time>2012-08-10T14:08:45Z</time></trkpt><trkpt lat="57.8543852828" lon="-4.2133373022"><ele>38.59</ele><time>2012-08-10T14:08:48Z</time></trkpt><trkpt lat="57.8543205746" lon="-4.2129498906"><ele>38.59</ele><time>2012-08-10T14:08:49Z</time></trkpt><trkpt lat="57.8538665269" lon="-4.2096878216"><ele>40.03</ele><time>2012-08-10T14:08:57Z</time></trkpt><trkpt lat="57.8536338452" lon="-4.2077287193"><ele>40.51</ele><time>2012-08-10T14:09:02Z</time></trkpt><trkpt lat="57.8535395488" lon="-4.2073926050"><ele>40.99</ele><time>2012-08-10T14:09:03Z</time></trkpt><trkpt lat="57.8534199391" lon="-4.2070889287"><ele>40.99</ele><time>2012-08-10T14:09:04Z</time></trkpt><trkpt lat="57.8532750160" lon="-4.2068135832"><ele>40.99</ele><time>2012-08-10T14:09:05Z</time></trkpt><trkpt lat="57.8531105630" lon="-4.2065547500"><ele>40.99</ele><time>2012-08-10T14:09:06Z</time></trkpt><trkpt lat="57.8529321961" lon="-4.2062947433"><ele>41.47</ele><time>2012-08-10T14:09:07Z</time></trkpt><trkpt lat="57.8518137988" lon="-4.2046395689"><ele>38.11</ele><time>2012-08-10T14:09:13Z</time></trkpt><trkpt lat="57.8514729068" lon="-4.2041634768"><ele>36.19</ele><time>2012-08-10T14:09:15Z</time></trkpt><trkpt lat="57.8512947913" lon="-4.2039816733"><ele>35.71</ele><time>2012-08-10T14:09:16Z</time></trkpt><trkpt lat="57.8511025943" lon="-4.2038364988"><ele>36.19</ele><time>2012-08-10T14:09:17Z</time></trkpt><trkpt lat="57.8508933820" lon="-4.2037247680"><ele>35.23</ele><time>2012-08-10T14:09:18Z</time></trkpt><trkpt lat="57.8506723512" lon="-4.2036302201"><ele>34.74</ele><time>2012-08-10T14:09:19Z</time></trkpt><trkpt lat="57.8498194087" lon="-4.2032734863"><ele>31.38</ele><time>2012-08-10T14:09:23Z</time></trkpt><trkpt lat="57.8492384590" lon="-4.2029816285"><ele>27.05</ele><time>2012-08-10T14:09:26Z</time></trkpt><trkpt lat="57.8490501177" lon="-4.2028219532"><ele>26.57</ele><time>2012-08-10T14:09:27Z</time></trkpt><trkpt lat="57.8488616087" lon="-4.2026209552"><ele>26.57</ele><time>2012-08-10T14:09:28Z</time></trkpt><trkpt lat="57.8482801560" lon="-4.2019752972"><ele>23.21</ele><time>2012-08-10T14:09:31Z</time></trkpt><trkpt lat="57.8471351881" lon="-4.2007274833"><ele>20.32</ele><time>2012-08-10T14:09:37Z</time></trkpt><trkpt lat="57.8463971615" lon="-4.1999189649"><ele>17.92</ele><time>2012-08-10T14:09:41Z</time></trkpt><trkpt lat="57.8438659944" lon="-4.1971381847"><ele>14.56</ele><time>2012-08-10T14:09:55Z</time></trkpt><trkpt lat="57.8411651775" lon="-4.1941750981"><ele>16.48</ele><time>2012-08-10T14:10:10Z</time></trkpt><trkpt lat="57.8408377804" lon="-4.1937210504"><ele>16.96</ele><time>2012-08-10T14:10:12Z</time></trkpt><trkpt lat="57.8406900913" lon="-4.1934490576"><ele>17.44</ele><time>2012-08-10T14:10:13Z</time></trkpt><trkpt lat="57.8405543044" lon="-4.1931449622"><ele>18.40</ele><time>2012-08-10T14:10:14Z</time></trkpt><trkpt lat="57.8404315095" lon="-4.1928080935"><ele>19.36</ele><time>2012-08-10T14:10:15Z</time></trkpt><trkpt lat="57.8403186891" lon="-4.1924426425"><ele>20.32</ele><time>2012-08-10T14:10:16Z</time></trkpt><trkpt lat="57.8402111493" lon="-4.1920545604"><ele>21.29</ele><time>2012-08-10T14:10:17Z</time></trkpt><trkpt lat="57.8399048746" lon="-4.1908391844"><ele>24.65</ele><time>2012-08-10T14:10:20Z</time></trkpt><trkpt lat="57.8398063872" lon="-4.1904361825"><ele>24.65</ele><time>2012-08-10T14:10:21Z</time></trkpt><trkpt lat="57.8387785144" lon="-4.1873979941"><ele>28.02</ele><time>2012-08-10T14:10:29Z</time></trkpt><trkpt lat="57.8370888904" lon="-4.1841459833"><ele>31.38</ele><time>2012-08-10T14:10:39Z</time></trkpt><trkpt lat="57.8358663060" lon="-4.1827332135"><ele>28.50</ele><time>2012-08-10T14:10:45Z</time></trkpt><trkpt lat="57.8347465675" lon="-4.1812585015"><ele>28.98</ele><time>2012-08-10T14:10:52Z</time></trkpt><trkpt lat="57.8346345015" lon="-4.1810144205"><ele>29.46</ele><time>2012-08-10T14:10:53Z</time></trkpt><trkpt lat="57.8345345892" lon="-4.1807361413"><ele>30.42</ele><time>2012-08-10T14:10:54Z</time></trkpt><trkpt lat="57.8340343572" lon="-4.1790330224"><ele>29.46</ele><time>2012-08-10T14:11:00Z</time></trkpt><trkpt lat="57.8332913015" lon="-4.1764785536"><ele>27.05</ele><time>2012-08-10T14:11:11Z</time></trkpt><trkpt lat="57.8321094532" lon="-4.1724739317"><ele>26.09</ele><time>2012-08-10T14:11:29Z</time></trkpt><trkpt lat="57.8314741887" lon="-4.1703480296"><ele>28.98</ele><time>2012-08-10T14:11:36Z</time></trkpt><trkpt lat="57.8308061510" lon="-4.1678868514"><ele>25.13</ele><time>2012-08-10T14:11:43Z</time></trkpt><trkpt lat="57.8307689354" lon="-4.1675506532"><ele>23.69</ele><time>2012-08-10T14:11:44Z</time></trkpt><trkpt lat="57.8307603858" lon="-4.1672158800"><ele>23.69</ele><time>2012-08-10T14:11:45Z</time></trkpt><trkpt lat="57.8307779040" lon="-4.1668826155"><ele>22.25</ele><time>2012-08-10T14:11:46Z</time></trkpt><trkpt lat="57.8308103420" lon="-4.1665517818"><ele>21.77</ele><time>2012-08-10T14:11:47Z</time></trkpt><trkpt lat="57.8308450431" lon="-4.1662251391"><ele>21.29</ele><time>2012-08-10T14:11:48Z</time></trkpt><trkpt lat="57.8308768105" lon="-4.1659017652"><ele>20.81</ele><time>2012-08-10T14:11:49Z</time></trkpt><trkpt lat="57.8309110925" lon="-4.1652649082"><ele>20.81</ele><time>2012-08-10T14:11:51Z</time></trkpt><trkpt lat="57.8308966756" lon="-4.1649482399"><ele>20.32</ele><time>2012-08-10T14:11:52Z</time></trkpt><trkpt lat="57.8308544308" lon="-4.1646330804"><ele>20.81</ele><time>2012-08-10T14:11:53Z</time></trkpt><trkpt lat="57.8307909798" lon="-4.1643156577"><ele>21.29</ele><time>2012-08-10T14:11:54Z</time></trkpt><trkpt lat="57.8307055682" lon="-4.1640069522"><ele>22.73</ele><time>2012-08-10T14:11:55Z</time></trkpt><trkpt lat="57.8306049015" lon="-4.1637031920"><ele>23.21</ele><time>2012-08-10T14:11:56Z</time></trkpt><trkpt lat="57.8292694129" lon="-4.1601273883"><ele>21.29</ele><time>2012-08-10T14:12:08Z</time></trkpt><trkpt lat="57.8288486414" lon="-4.1589759663"><ele>18.40</ele><time>2012-08-10T14:12:13Z</time></trkpt><trkpt lat="57.8282558732" lon="-4.1573663894"><ele>19.84</ele><time>2012-08-10T14:12:21Z</time></trkpt><trkpt lat="57.8281167336" lon="-4.1569167003"><ele>19.36</ele><time>2012-08-10T14:12:23Z</time></trkpt><trkpt lat="57.8280601557" lon="-4.1566680092"><ele>18.88</ele><time>2012-08-10T14:12:24Z</time></trkpt><trkpt lat="57.8276391327" lon="-4.1542787477"><ele>15.52</ele><time>2012-08-10T14:12:33Z</time></trkpt><trkpt lat="57.8272688203" lon="-4.1514548007"><ele>14.08</ele><time>2012-08-10T14:12:43Z</time></trkpt><trkpt lat="57.8270360548" lon="-4.1495254543"><ele>12.63</ele><time>2012-08-10T14:12:50Z</time></trkpt><trkpt lat="57.8270325344" lon="-4.1492486838"><ele>12.63</ele><time>2012-08-10T14:12:51Z</time></trkpt><trkpt lat="57.8270600270" lon="-4.1484507266"><ele>11.67</ele><time>2012-08-10T14:12:54Z</time></trkpt><trkpt lat="57.8270487115" lon="-4.1482052207"><ele>11.19</ele><time>2012-08-10T14:12:55Z</time></trkpt><trkpt lat="57.8270199616" lon="-4.1479703598"><ele>11.19</ele><time>2012-08-10T14:12:56Z</time></trkpt><trkpt lat="57.8269764595" lon="-4.1477374267"><ele>12.15</ele><time>2012-08-10T14:12:57Z</time></trkpt><trkpt lat="57.8269247431" lon="-4.1475029849"><ele>12.15</ele><time>2012-08-10T14:12:58Z</time></trkpt><trkpt lat="57.8268084023" lon="-4.1467522178"><ele>12.63</ele><time>2012-08-10T14:13:01Z</time></trkpt><trkpt lat="57.8267979249" lon="-4.1464692447"><ele>13.12</ele><time>2012-08-10T14:13:02Z</time></trkpt><trkpt lat="57.8268786427" lon="-4.1440793965"><ele>15.52</ele><time>2012-08-10T14:13:11Z</time></trkpt><trkpt lat="57.8268081509" lon="-4.1422847472"><ele>12.15</ele><time>2012-08-10T14:13:19Z</time></trkpt><trkpt lat="57.8267996851" lon="-4.1420357209"><ele>12.15</ele><time>2012-08-10T14:13:20Z</time></trkpt><trkpt lat="57.8269235697" lon="-4.1394909751"><ele>11.67</ele><time>2012-08-10T14:13:29Z</time></trkpt><trkpt lat="57.8271368891" lon="-4.1359027661"><ele>10.23</ele><time>2012-08-10T14:13:42Z</time></trkpt><trkpt lat="57.8274663817" lon="-4.1331214830"><ele>12.15</ele><time>2012-08-10T14:13:52Z</time></trkpt><trkpt lat="57.8277311660" lon="-4.1315196175"><ele>12.15</ele><time>2012-08-10T14:13:58Z</time></trkpt><trkpt lat="57.8280414641" lon="-4.1283220891"><ele>11.67</ele><time>2012-08-10T14:14:09Z</time></trkpt><trkpt lat="57.8283396084" lon="-4.1258292273"><ele>12.15</ele><time>2012-08-10T14:14:17Z</time></trkpt><trkpt lat="57.8283645026" lon="-4.1255149897"><ele>12.15</ele><time>2012-08-10T14:14:18Z</time></trkpt><trkpt lat="57.8284397721" lon="-4.1217945982"><ele>12.63</ele><time>2012-08-10T14:14:29Z</time></trkpt><trkpt lat="57.8284918237" lon="-4.1204946488"><ele>11.67</ele><time>2012-08-10T14:14:33Z</time></trkpt><trkpt lat="57.8285534307" lon="-4.1201628931"><ele>11.67</ele><time>2012-08-10T14:14:34Z</time></trkpt><trkpt lat="57.8290451132" lon="-4.1174743976"><ele>11.67</ele><time>2012-08-10T14:14:42Z</time></trkpt><trkpt lat="57.8299933579" lon="-4.1136213206"><ele>11.67</ele><time>2012-08-10T14:14:54Z</time></trkpt><trkpt lat="57.8305372596" lon="-4.1108188313"><ele>10.71</ele><time>2012-08-10T14:15:04Z</time></trkpt><trkpt lat="57.8305320628" lon="-4.1085837130"><ele>13.60</ele><time>2012-08-10T14:15:12Z</time></trkpt><trkpt lat="57.8305514250" lon="-4.1080471035"><ele>15.04</ele><time>2012-08-10T14:15:14Z</time></trkpt><trkpt lat="57.8305737209" lon="-4.1078103986"><ele>15.04</ele><time>2012-08-10T14:15:15Z</time></trkpt><trkpt lat="57.8307182249" lon="-4.1069530975"><ele>14.08</ele><time>2012-08-10T14:15:20Z</time></trkpt><trkpt lat="57.8307562787" lon="-4.1068537720"><ele>14.56</ele><time>2012-08-10T14:15:21Z</time></trkpt><trkpt lat="57.8307986073" lon="-4.1067844536"><ele>14.08</ele><time>2012-08-10T14:15:22Z</time></trkpt><trkpt lat="57.8308502398" lon="-4.1067376826"><ele>14.56</ele><time>2012-08-10T14:15:23Z</time></trkpt><trkpt lat="57.8309120145" lon="-4.1067010537"><ele>14.08</ele><time>2012-08-10T14:15:24Z</time></trkpt><trkpt lat="57.8310491424" lon="-4.1065920889"><ele>14.08</ele><time>2012-08-10T14:15:26Z</time></trkpt><trkpt lat="57.8311141022" lon="-4.1064874828"><ele>14.56</ele><time>2012-08-10T14:15:27Z</time></trkpt><trkpt lat="57.8311622143" lon="-4.1063444875"><ele>14.08</ele><time>2012-08-10T14:15:28Z</time></trkpt><trkpt lat="57.8311809897" lon="-4.1061765142"><ele>14.08</ele><time>2012-08-10T14:15:29Z</time></trkpt><trkpt lat="57.8311699256" lon="-4.1060026735"><ele>15.52</ele><time>2012-08-10T14:15:30Z</time></trkpt><trkpt lat="57.8311336320" lon="-4.1058354545"><ele>15.04</ele><time>2012-08-10T14:15:31Z</time></trkpt><trkpt lat="57.8310773056" lon="-4.1056729294"><ele>15.52</ele><time>2012-08-10T14:15:32Z</time></trkpt><trkpt lat="57.8310153633" lon="-4.1055114102"><ele>15.52</ele><time>2012-08-10T14:15:33Z</time></trkpt><trkpt lat="57.8309638985" lon="-4.1053479631"><ele>15.52</ele><time>2012-08-10T14:15:34Z</time></trkpt><trkpt lat="57.8309302870" lon="-4.1051836777"><ele>15.04</ele><time>2012-08-10T14:15:35Z</time></trkpt><trkpt lat="57.8309160378" lon="-4.1050345637"><ele>14.56</ele><time>2012-08-10T14:15:36Z</time></trkpt><trkpt lat="57.8309156187" lon="-4.1049002856"><ele>14.08</ele><time>2012-08-10T14:15:37Z</time></trkpt><trkpt lat="57.8309244197" lon="-4.1047639120"><ele>14.56</ele><time>2012-08-10T14:15:38Z</time></trkpt><trkpt lat="57.8309370764" lon="-4.1046084277"><ele>14.56</ele><time>2012-08-10T14:15:39Z</time></trkpt><trkpt lat="57.8310059756" lon="-4.1033334564"><ele>18.40</ele><time>2012-08-10T14:15:44Z</time></trkpt><trkpt lat="57.8310075682" lon="-4.1030172911"><ele>17.92</ele><time>2012-08-10T14:15:45Z</time></trkpt><trkpt lat="57.8309449553" lon="-4.0999243688"><ele>15.52</ele><time>2012-08-10T14:15:54Z</time></trkpt><trkpt lat="57.8308316320" lon="-4.0953014977"><ele>16.96</ele><time>2012-08-10T14:16:06Z</time></trkpt><trkpt lat="57.8307692707" lon="-4.0938025620"><ele>13.60</ele><time>2012-08-10T14:16:10Z</time></trkpt><trkpt lat="57.8306633234" lon="-4.0927414130"><ele>15.04</ele><time>2012-08-10T14:16:13Z</time></trkpt><trkpt lat="57.8301238641" lon="-4.0897678491"><ele>19.84</ele><time>2012-08-10T14:16:21Z</time></trkpt><trkpt lat="57.8297188506" lon="-4.0874520130"><ele>16.96</ele><time>2012-08-10T14:16:27Z</time></trkpt><trkpt lat="57.8291564249" lon="-4.0846859850"><ele>19.84</ele><time>2012-08-10T14:16:35Z</time></trkpt><trkpt lat="57.8282601479" lon="-4.0823123977"><ele>22.73</ele><time>2012-08-10T14:16:43Z</time></trkpt><trkpt lat="57.8281158954" lon="-4.0820549056"><ele>23.21</ele><time>2012-08-10T14:16:44Z</time></trkpt><trkpt lat="57.8269398306" lon="-4.0805534553"><ele>26.09</ele><time>2012-08-10T14:16:51Z</time></trkpt><trkpt lat="57.8253465146" lon="-4.0792402625"><ele>29.46</ele><time>2012-08-10T14:17:00Z</time></trkpt><trkpt lat="57.8249866795" lon="-4.0789542720"><ele>30.42</ele><time>2012-08-10T14:17:02Z</time></trkpt><trkpt lat="57.8240393568" lon="-4.0781685524"><ele>28.02</ele><time>2012-08-10T14:17:08Z</time></trkpt><trkpt lat="57.8239680268" lon="-4.0780637786"><ele>27.53</ele><time>2012-08-10T14:17:09Z</time></trkpt><trkpt lat="57.8239371814" lon="-4.0779646207"><ele>26.09</ele><time>2012-08-10T14:17:10Z</time></trkpt><trkpt lat="57.8240943421" lon="-4.0776972380"><ele>25.61</ele><time>2012-08-10T14:17:16Z</time></trkpt><trkpt lat="57.8241370060" lon="-4.0777278319"><ele>25.61</ele><time>2012-08-10T14:17:17Z</time></trkpt><trkpt lat="57.8246790636" lon="-4.0782507788"><ele>26.09</ele><time>2012-08-10T14:17:25Z</time></trkpt><trkpt lat="57.8250833228" lon="-4.0784988832"><ele>23.21</ele><time>2012-08-10T14:17:31Z</time></trkpt><trkpt lat="57.8252961393" lon="-4.0785634238"><ele>19.84</ele><time>2012-08-10T14:17:36Z</time></trkpt><trkpt lat="57.8254429903" lon="-4.0785165690"><ele>19.36</ele><time>2012-08-10T14:17:46Z</time></trkpt><trkpt lat="57.8258710541" lon="-4.0784069337"><ele>16.48</ele><time>2012-08-10T14:17:53Z</time></trkpt><trkpt lat="57.8259606566" lon="-4.0783780161"><ele>16.00</ele><time>2012-08-10T14:17:55Z</time></trkpt><trkpt lat="57.8261095192" lon="-4.0782511979"><ele>14.08</ele><time>2012-08-10T14:17:59Z</time></trkpt><trkpt lat="57.8261697013" lon="-4.0782002360"><ele>13.60</ele><time>2012-08-10T14:18:01Z</time></trkpt><trkpt lat="57.8261905722" lon="-4.0782922693"><ele>13.60</ele><time>2012-08-10T14:18:08Z</time></trkpt><trkpt lat="57.8261849564" lon="-4.0782327577"><ele>13.12</ele><time>2012-08-10T14:18:32Z</time></trkpt><trkpt lat="57.8261896502" lon="-4.0782221965"><ele>13.12</ele><time>2012-08-10T14:18:59Z</time></trkpt><trkpt lat="57.8261966072" lon="-4.0782573167"><ele>13.12</ele><time>2012-08-10T14:19:48Z</time></trkpt><trkpt lat="57.8262096830" lon="-4.0782962926"><ele>13.12</ele><time>2012-08-10T14:20:25Z</time></trkpt><trkpt lat="57.8261973616" lon="-4.0782858152"><ele>13.12</ele><time>2012-08-10T14:21:12Z</time></trkpt><trkpt lat="57.8261971101" lon="-4.0782903414"><ele>12.63</ele><time>2012-08-10T14:21:45Z</time></trkpt><trkpt lat="57.8261852916" lon="-4.0782371163"><ele>13.12</ele><time>2012-08-10T14:22:24Z</time></trkpt><trkpt lat="57.8261733055" lon="-4.0781747550"><ele>13.60</ele><time>2012-08-10T14:23:05Z</time></trkpt><trkpt lat="57.8261742275" lon="-4.0781986434"><ele>13.12</ele><time>2012-08-10T14:23:43Z</time></trkpt><trkpt lat="57.8261881415" lon="-4.0782177541"><ele>13.12</ele><time>2012-08-10T14:24:17Z</time></trkpt><trkpt lat="57.8261914942" lon="-4.0782409720"><ele>13.12</ele><time>2012-08-10T14:24:56Z</time></trkpt><trkpt lat="57.8261983674" lon="-4.0782457497"><ele>13.60</ele><time>2012-08-10T14:25:32Z</time></trkpt><trkpt lat="57.8261803463" lon="-4.0782321710"><ele>13.60</ele><time>2012-08-10T14:26:14Z</time></trkpt><trkpt lat="57.8261883091" lon="-4.0782294050"><ele>13.60</ele><time>2012-08-10T14:26:38Z</time></trkpt><trkpt lat="57.8261889797" lon="-4.0782204363"><ele>14.08</ele><time>2012-08-10T14:27:03Z</time></trkpt><trkpt lat="57.8261904884" lon="-4.0782175865"><ele>14.08</ele><time>2012-08-10T14:27:37Z</time></trkpt><trkpt lat="57.8261791728" lon="-4.0782417264"><ele>14.56</ele><time>2012-08-10T14:28:06Z</time></trkpt><trkpt lat="57.8261738084" lon="-4.0782274771"><ele>14.08</ele><time>2012-08-10T14:28:41Z</time></trkpt><trkpt lat="57.8261697851" lon="-4.0781926923"><ele>14.56</ele><time>2012-08-10T14:29:13Z</time></trkpt><trkpt lat="57.8261639178" lon="-4.0781982243"><ele>14.08</ele><time>2012-08-10T14:29:30Z</time></trkpt><trkpt lat="57.8260247782" lon="-4.0782474261"><ele>15.52</ele><time>2012-08-10T14:29:34Z</time></trkpt><trkpt lat="57.8258005623" lon="-4.0783591568"><ele>17.92</ele><time>2012-08-10T14:29:37Z</time></trkpt><trkpt lat="57.8255734965" lon="-4.0784099512"><ele>19.36</ele><time>2012-08-10T14:29:40Z</time></trkpt><trkpt lat="57.8254031762" lon="-4.0784569737"><ele>20.81</ele><time>2012-08-10T14:29:42Z</time></trkpt><trkpt lat="57.8250478674" lon="-4.0784010664"><ele>24.65</ele><time>2012-08-10T14:29:46Z</time></trkpt><trkpt lat="57.8245791513" lon="-4.0780859906"><ele>27.53</ele><time>2012-08-10T14:29:52Z</time></trkpt><trkpt lat="57.8239049111" lon="-4.0774735250"><ele>27.53</ele><time>2012-08-10T14:29:59Z</time></trkpt><trkpt lat="57.8238635045" lon="-4.0774328727"><ele>27.05</ele><time>2012-08-10T14:30:00Z</time></trkpt><trkpt lat="57.8238358442" lon="-4.0774120856"><ele>26.57</ele><time>2012-08-10T14:30:01Z</time></trkpt><trkpt lat="57.8239422943" lon="-4.0776315238"><ele>26.57</ele><time>2012-08-10T14:30:08Z</time></trkpt><trkpt lat="57.8239322361" lon="-4.0778620262"><ele>26.57</ele><time>2012-08-10T14:30:11Z</time></trkpt><trkpt lat="57.8239085991" lon="-4.0778935421"><ele>26.09</ele><time>2012-08-10T14:30:12Z</time></trkpt><trkpt lat="57.8239038214" lon="-4.0778860822"><ele>25.61</ele><time>2012-08-10T14:30:22Z</time></trkpt><trkpt lat="57.8238405380" lon="-4.0779453423"><ele>26.57</ele><time>2012-08-10T14:30:30Z</time></trkpt><trkpt lat="57.8237889055" lon="-4.0779400617"><ele>27.05</ele><time>2012-08-10T14:30:31Z</time></trkpt><trkpt lat="57.8237161506" lon="-4.0778953861"><ele>27.53</ele><time>2012-08-10T14:30:32Z</time></trkpt><trkpt lat="57.8235369455" lon="-4.0777474456"><ele>28.98</ele><time>2012-08-10T14:30:34Z</time></trkpt><trkpt lat="57.8233086225" lon="-4.0775311925"><ele>30.90</ele><time>2012-08-10T14:30:36Z</time></trkpt><trkpt lat="57.8227613680" lon="-4.0769434534"><ele>32.82</ele><time>2012-08-10T14:30:40Z</time></trkpt><trkpt lat="57.8221632354" lon="-4.0761754196"><ele>34.74</ele><time>2012-08-10T14:30:44Z</time></trkpt><trkpt lat="57.8207782097" lon="-4.0742775053"><ele>34.26</ele><time>2012-08-10T14:30:53Z</time></trkpt><trkpt lat="57.8184545785" lon="-4.0712907817"><ele>34.74</ele><time>2012-08-10T14:31:08Z</time></trkpt><trkpt lat="57.8179387562" lon="-4.0708679985"><ele>36.19</ele><time>2012-08-10T14:31:11Z</time></trkpt><trkpt lat="57.8168011643" lon="-4.0703349933"><ele>40.51</ele><time>2012-08-10T14:31:17Z</time></trkpt><trkpt lat="57.8165899403" lon="-4.0702853724"><ele>40.51</ele><time>2012-08-10T14:31:18Z</time></trkpt><trkpt lat="57.8157473914" lon="-4.0702511743"><ele>44.36</ele><time>2012-08-10T14:31:22Z</time></trkpt><trkpt lat="57.8151060082" lon="-4.0703559481"><ele>49.16</ele><time>2012-08-10T14:31:25Z</time></trkpt><trkpt lat="57.8140259162" lon="-4.0705228318"><ele>53.49</ele><time>2012-08-10T14:31:30Z</time></trkpt><trkpt lat="57.8131699562" lon="-4.0706303716"><ele>56.37</ele><time>2012-08-10T14:31:34Z</time></trkpt><trkpt lat="57.8125334345" lon="-4.0706255939"><ele>60.22</ele><time>2012-08-10T14:31:37Z</time></trkpt><trkpt lat="57.8116680868" lon="-4.0704877954"><ele>63.58</ele><time>2012-08-10T14:31:41Z</time></trkpt><trkpt lat="57.8108125459" lon="-4.0701939259"><ele>66.47</ele><time>2012-08-10T14:31:45Z</time></trkpt><trkpt lat="57.8090870474" lon="-4.0689877700"><ele>69.83</ele><time>2012-08-10T14:31:54Z</time></trkpt><trkpt lat="57.8073519934" lon="-4.0668506362"><ele>70.79</ele><time>2012-08-10T14:32:04Z</time></trkpt><trkpt lat="57.8059971426" lon="-4.0643405076"><ele>69.83</ele><time>2012-08-10T14:32:12Z</time></trkpt><trkpt lat="57.8051493969" lon="-4.0621067304"><ele>67.43</ele><time>2012-08-10T14:32:18Z</time></trkpt><trkpt lat="57.8043822013" lon="-4.0592154767"><ele>64.07</ele><time>2012-08-10T14:32:25Z</time></trkpt><trkpt lat="57.8038885072" lon="-4.0560630430"><ele>60.70</ele><time>2012-08-10T14:32:32Z</time></trkpt><trkpt lat="57.8037735075" lon="-4.0546305757"><ele>58.30</ele><time>2012-08-10T14:32:35Z</time></trkpt><trkpt lat="57.8036414087" lon="-4.0526722278"><ele>56.37</ele><time>2012-08-10T14:32:39Z</time></trkpt><trkpt lat="57.8033600282" lon="-4.0502552222"><ele>52.53</ele><time>2012-08-10T14:32:44Z</time></trkpt><trkpt lat="57.8031981736" lon="-4.0493217297"><ele>51.57</ele><time>2012-08-10T14:32:46Z</time></trkpt><trkpt lat="57.8027999494" lon="-4.0475244820"><ele>46.76</ele><time>2012-08-10T14:32:50Z</time></trkpt><trkpt lat="57.8026869614" lon="-4.0470923949"><ele>46.28</ele><time>2012-08-10T14:32:51Z</time></trkpt><trkpt lat="57.8020309098" lon="-4.0450346377"><ele>43.88</ele><time>2012-08-10T14:32:56Z</time></trkpt><trkpt lat="57.8012256604" lon="-4.0431674011"><ele>40.99</ele><time>2012-08-10T14:33:01Z</time></trkpt><trkpt lat="57.7994715795" lon="-4.0403001197"><ele>38.59</ele><time>2012-08-10T14:33:10Z</time></trkpt><trkpt lat="57.7966172900" lon="-4.0361623093"><ele>35.23</ele><time>2012-08-10T14:33:24Z</time></trkpt><trkpt lat="57.7936673630" lon="-4.0322015248"><ele>34.74</ele><time>2012-08-10T14:33:38Z</time></trkpt><trkpt lat="57.7914358489" lon="-4.0296344832"><ele>38.11</ele><time>2012-08-10T14:33:48Z</time></trkpt><trkpt lat="57.7891356871" lon="-4.0271881409"><ele>41.47</ele><time>2012-08-10T14:33:58Z</time></trkpt><trkpt lat="57.7868497744" lon="-4.0249505918"><ele>44.36</ele><time>2012-08-10T14:34:08Z</time></trkpt><trkpt lat="57.7847523708" lon="-4.0234603733"><ele>42.92</ele><time>2012-08-10T14:34:17Z</time></trkpt><trkpt lat="57.7830354217" lon="-4.0232052281"><ele>40.03</ele><time>2012-08-10T14:34:24Z</time></trkpt><trkpt lat="57.7810937539" lon="-4.0238756966"><ele>41.47</ele><time>2012-08-10T14:34:32Z</time></trkpt><trkpt lat="57.7808561269" lon="-4.0240517166"><ele>41.95</ele><time>2012-08-10T14:34:33Z</time></trkpt><trkpt lat="57.7791588753" lon="-4.0258502215"><ele>43.88</ele><time>2012-08-10T14:34:41Z</time></trkpt><trkpt lat="57.7764215134" lon="-4.0298050549"><ele>45.32</ele><time>2012-08-10T14:34:55Z</time></trkpt><trkpt lat="57.7753938083" lon="-4.0311981272"><ele>43.40</ele><time>2012-08-10T14:35:00Z</time></trkpt><trkpt lat="57.7747337334" lon="-4.0318987705"><ele>39.55</ele><time>2012-08-10T14:35:03Z</time></trkpt><trkpt lat="57.7740213554" lon="-4.0324010141"><ele>36.19</ele><time>2012-08-10T14:35:06Z</time></trkpt><trkpt lat="57.7737802919" lon="-4.0325293411"><ele>36.67</ele><time>2012-08-10T14:35:07Z</time></trkpt><trkpt lat="57.7730866056" lon="-4.0327761881"><ele>32.82</ele><time>2012-08-10T14:35:10Z</time></trkpt><trkpt lat="57.7718178369" lon="-4.0327302553"><ele>28.98</ele><time>2012-08-10T14:35:16Z</time></trkpt><trkpt lat="57.7714364603" lon="-4.0325760283"><ele>28.02</ele><time>2012-08-10T14:35:18Z</time></trkpt><trkpt lat="57.7705168817" lon="-4.0320112556"><ele>25.61</ele><time>2012-08-10T14:35:23Z</time></trkpt><trkpt lat="57.7700478304" lon="-4.0316065773"><ele>24.17</ele><time>2012-08-10T14:35:26Z</time></trkpt><trkpt lat="57.7691876795" lon="-4.0306047723"><ele>20.32</ele><time>2012-08-10T14:35:33Z</time></trkpt><trkpt lat="57.7690019365" lon="-4.0303528123"><ele>19.84</ele><time>2012-08-10T14:35:35Z</time></trkpt><trkpt lat="57.7687389962" lon="-4.0299716871"><ele>17.44</ele><time>2012-08-10T14:35:39Z</time></trkpt><trkpt lat="57.7686323784" lon="-4.0297893807"><ele>17.44</ele><time>2012-08-10T14:35:41Z</time></trkpt><trkpt lat="57.7685882896" lon="-4.0296655800"><ele>17.44</ele><time>2012-08-10T14:35:42Z</time></trkpt><trkpt lat="57.7685579471" lon="-4.0295147896"><ele>17.44</ele><time>2012-08-10T14:35:43Z</time></trkpt><trkpt lat="57.7685380820" lon="-4.0293469001"><ele>17.92</ele><time>2012-08-10T14:35:44Z</time></trkpt><trkpt lat="57.7685103379" lon="-4.0291753225"><ele>17.92</ele><time>2012-08-10T14:35:45Z</time></trkpt><trkpt lat="57.7684628963" lon="-4.0290199220"><ele>17.44</ele><time>2012-08-10T14:35:46Z</time></trkpt><trkpt lat="57.7683976013" lon="-4.0289019048"><ele>17.44</ele><time>2012-08-10T14:35:47Z</time></trkpt><trkpt lat="57.7683139499" lon="-4.0288332570"><ele>16.96</ele><time>2012-08-10T14:35:48Z</time></trkpt><trkpt lat="57.7682159655" lon="-4.0288218576"><ele>16.96</ele><time>2012-08-10T14:35:49Z</time></trkpt><trkpt lat="57.7681186516" lon="-4.0288718138"><ele>17.44</ele><time>2012-08-10T14:35:50Z</time></trkpt><trkpt lat="57.7680335753" lon="-4.0289779287"><ele>16.96</ele><time>2012-08-10T14:35:51Z</time></trkpt><trkpt lat="57.7679712977" lon="-4.0291289706"><ele>16.96</ele><time>2012-08-10T14:35:52Z</time></trkpt><trkpt lat="57.7679350041" lon="-4.0292919986"><ele>16.48</ele><time>2012-08-10T14:35:53Z</time></trkpt><trkpt lat="57.7679157257" lon="-4.0294469800"><ele>16.48</ele><time>2012-08-10T14:35:54Z</time></trkpt><trkpt lat="57.7678949386" lon="-4.0295953397"><ele>16.48</ele><time>2012-08-10T14:35:55Z</time></trkpt><trkpt lat="57.7678686194" lon="-4.0297421068"><ele>16.96</ele><time>2012-08-10T14:35:56Z</time></trkpt><trkpt lat="57.7678371873" lon="-4.0298892930"><ele>17.44</ele><time>2012-08-10T14:35:57Z</time></trkpt><trkpt lat="57.7677961998" lon="-4.0300376527"><ele>17.44</ele><time>2012-08-10T14:35:58Z</time></trkpt><trkpt lat="57.7677428070" lon="-4.0301895328"><ele>17.92</ele><time>2012-08-10T14:35:59Z</time></trkpt><trkpt lat="57.7676759195" lon="-4.0303503815"><ele>17.44</ele><time>2012-08-10T14:36:00Z</time></trkpt><trkpt lat="57.7675960399" lon="-4.0305191092"><ele>17.44</ele><time>2012-08-10T14:36:01Z</time></trkpt><trkpt lat="57.7669159323" lon="-4.0320541710"><ele>18.40</ele><time>2012-08-10T14:36:08Z</time></trkpt><trkpt lat="57.7665744536" lon="-4.0328668803"><ele>20.32</ele><time>2012-08-10T14:36:11Z</time></trkpt><trkpt lat="57.7649891842" lon="-4.0366635472"><ele>21.77</ele><time>2012-08-10T14:36:25Z</time></trkpt><trkpt lat="57.7637764066" lon="-4.0395753365"><ele>21.29</ele><time>2012-08-10T14:36:36Z</time></trkpt><trkpt lat="57.7621318772" lon="-4.0433464386"><ele>21.29</ele><time>2012-08-10T14:36:50Z</time></trkpt><trkpt lat="57.7608783636" lon="-4.0460575651"><ele>24.65</ele><time>2012-08-10T14:36:59Z</time></trkpt><trkpt lat="57.7598915622" lon="-4.0481130593"><ele>27.53</ele><time>2012-08-10T14:37:05Z</time></trkpt><trkpt lat="57.7581851743" lon="-4.0514799859"><ele>29.94</ele><time>2012-08-10T14:37:15Z</time></trkpt><trkpt lat="57.7567688003" lon="-4.0541389771"><ele>33.30</ele><time>2012-08-10T14:37:23Z</time></trkpt><trkpt lat="57.7547595743" lon="-4.0576470550"><ele>32.34</ele><time>2012-08-10T14:37:35Z</time></trkpt><trkpt lat="57.7544941194" lon="-4.0581003483"><ele>30.42</ele><time>2012-08-10T14:37:37Z</time></trkpt><trkpt lat="57.7532123588" lon="-4.0603938047"><ele>29.94</ele><time>2012-08-10T14:37:47Z</time></trkpt><trkpt lat="57.7517483756" lon="-4.0631532110"><ele>30.90</ele><time>2012-08-10T14:37:57Z</time></trkpt><trkpt lat="57.7503402159" lon="-4.0657916665"><ele>31.38</ele><time>2012-08-10T14:38:06Z</time></trkpt><trkpt lat="57.7479343582" lon="-4.0700099431"><ele>31.86</ele><time>2012-08-10T14:38:21Z</time></trkpt><trkpt lat="57.7458351105" lon="-4.0736382175"><ele>34.74</ele><time>2012-08-10T14:38:34Z</time></trkpt><trkpt lat="57.7432380617" lon="-4.0780842304"><ele>35.23</ele><time>2012-08-10T14:38:49Z</time></trkpt><trkpt lat="57.7405439503" lon="-4.0826979652"><ele>35.23</ele><time>2012-08-10T14:39:05Z</time></trkpt><trkpt lat="57.7378932573" lon="-4.0872420464"><ele>34.26</ele><time>2012-08-10T14:39:22Z</time></trkpt><trkpt lat="57.7356982045" lon="-4.0909966361"><ele>35.71</ele><time>2012-08-10T14:39:36Z</time></trkpt><trkpt lat="57.7345727663" lon="-4.0930442512"><ele>35.23</ele><time>2012-08-10T14:39:43Z</time></trkpt><trkpt lat="57.7327273227" lon="-4.0970094781"><ele>31.86</ele><time>2012-08-10T14:39:56Z</time></trkpt><trkpt lat="57.7319329698" lon="-4.0990308579"><ele>31.38</ele><time>2012-08-10T14:40:02Z</time></trkpt><trkpt lat="57.7305841539" lon="-4.1030260921"><ele>28.02</ele><time>2012-08-10T14:40:13Z</time></trkpt><trkpt lat="57.7295838576" lon="-4.1067043226"><ele>24.65</ele><time>2012-08-10T14:40:23Z</time></trkpt><trkpt lat="57.7294964343" lon="-4.1070761438"><ele>24.65</ele><time>2012-08-10T14:40:24Z</time></trkpt><trkpt lat="57.7290858887" lon="-4.1088129580"><ele>26.57</ele><time>2012-08-10T14:40:28Z</time></trkpt><trkpt lat="57.7285268158" lon="-4.1110532731"><ele>24.65</ele><time>2012-08-10T14:40:33Z</time></trkpt><trkpt lat="57.7283352893" lon="-4.1118337959"><ele>21.77</ele><time>2012-08-10T14:40:35Z</time></trkpt><trkpt lat="57.7282499615" lon="-4.1121982411"><ele>21.77</ele><time>2012-08-10T14:40:36Z</time></trkpt><trkpt lat="57.7271339111" lon="-4.1166966408"><ele>22.73</ele><time>2012-08-10T14:40:48Z</time></trkpt><trkpt lat="57.7262150031" lon="-4.1202431079"><ele>26.09</ele><time>2012-08-10T14:40:57Z</time></trkpt><trkpt lat="57.7252729610" lon="-4.1236683726"><ele>29.46</ele><time>2012-08-10T14:41:06Z</time></trkpt><trkpt lat="57.7235425171" lon="-4.1295185219"><ele>29.94</ele><time>2012-08-10T14:41:21Z</time></trkpt><trkpt lat="57.7220057789" lon="-4.1342993919"><ele>28.98</ele><time>2012-08-10T14:41:34Z</time></trkpt><trkpt lat="57.7215672377" lon="-4.1355534084"><ele>32.34</ele><time>2012-08-10T14:41:37Z</time></trkpt><trkpt lat="57.7214050479" lon="-4.1359842382"><ele>32.34</ele><time>2012-08-10T14:41:38Z</time></trkpt><trkpt lat="57.7199216187" lon="-4.1397954896"><ele>28.98</ele><time>2012-08-10T14:41:47Z</time></trkpt><trkpt lat="57.7195223887" lon="-4.1409385297"><ele>25.61</ele><time>2012-08-10T14:41:50Z</time></trkpt><trkpt lat="57.7193958219" lon="-4.1413080879"><ele>25.61</ele><time>2012-08-10T14:41:51Z</time></trkpt><trkpt lat="57.7181835473" lon="-4.1451368574"><ele>25.13</ele><time>2012-08-10T14:42:02Z</time></trkpt><trkpt lat="57.7176371310" lon="-4.1470788606"><ele>26.09</ele><time>2012-08-10T14:42:08Z</time></trkpt><trkpt lat="57.7173521463" lon="-4.1480913106"><ele>28.02</ele><time>2012-08-10T14:42:11Z</time></trkpt><trkpt lat="57.7163449768" lon="-4.1516488418"><ele>27.53</ele><time>2012-08-10T14:42:21Z</time></trkpt><trkpt lat="57.7151819877" lon="-4.1550212167"><ele>26.57</ele><time>2012-08-10T14:42:31Z</time></trkpt><trkpt lat="57.7144655865" lon="-4.1567400936"><ele>24.65</ele><time>2012-08-10T14:42:36Z</time></trkpt><trkpt lat="57.7140971180" lon="-4.1576239653"><ele>20.81</ele><time>2012-08-10T14:42:39Z</time></trkpt><trkpt lat="57.7139805257" lon="-4.1579120513"><ele>20.81</ele><time>2012-08-10T14:42:40Z</time></trkpt><trkpt lat="57.7131440956" lon="-4.1605225950"><ele>18.40</ele><time>2012-08-10T14:42:48Z</time></trkpt><trkpt lat="57.7123628184" lon="-4.1644949466"><ele>16.00</ele><time>2012-08-10T14:42:58Z</time></trkpt><trkpt lat="57.7119749039" lon="-4.1665172484"><ele>14.08</ele><time>2012-08-10T14:43:03Z</time></trkpt><trkpt lat="57.7117298171" lon="-4.1678780504"><ele>17.92</ele><time>2012-08-10T14:43:06Z</time></trkpt><trkpt lat="57.7115452476" lon="-4.1688288935"><ele>18.88</ele><time>2012-08-10T14:43:08Z</time></trkpt><trkpt lat="57.7109898627" lon="-4.1717750486"><ele>15.04</ele><time>2012-08-10T14:43:15Z</time></trkpt><trkpt lat="57.7109368891" lon="-4.1721372306"><ele>15.04</ele><time>2012-08-10T14:43:16Z</time></trkpt><trkpt lat="57.7104274370" lon="-4.1760716960"><ele>15.04</ele><time>2012-08-10T14:43:27Z</time></trkpt><trkpt lat="57.7101662569" lon="-4.1775741521"><ele>16.48</ele><time>2012-08-10T14:43:31Z</time></trkpt><trkpt lat="57.7096338384" lon="-4.1800637450"><ele>18.88</ele><time>2012-08-10T14:43:38Z</time></trkpt><trkpt lat="57.7091733366" lon="-4.1821582988"><ele>21.77</ele><time>2012-08-10T14:43:44Z</time></trkpt><trkpt lat="57.7080989443" lon="-4.1863340791"><ele>21.77</ele><time>2012-08-10T14:43:56Z</time></trkpt><trkpt lat="57.7072483487" lon="-4.1897057835"><ele>18.40</ele><time>2012-08-10T14:44:05Z</time></trkpt><trkpt lat="57.7066163532" lon="-4.1938710026"><ele>20.32</ele><time>2012-08-10T14:44:16Z</time></trkpt><trkpt lat="57.7064043749" lon="-4.1954887100"><ele>22.25</ele><time>2012-08-10T14:44:20Z</time></trkpt><trkpt lat="57.7060238365" lon="-4.1983595118"><ele>25.61</ele><time>2012-08-10T14:44:27Z</time></trkpt><trkpt lat="57.7059655823" lon="-4.1987620108"><ele>26.09</ele><time>2012-08-10T14:44:28Z</time></trkpt><trkpt lat="57.7050859015" lon="-4.2033474986"><ele>25.13</ele><time>2012-08-10T14:44:40Z</time></trkpt><trkpt lat="57.7037636563" lon="-4.2078992072"><ele>26.57</ele><time>2012-08-10T14:44:53Z</time></trkpt><trkpt lat="57.7027201932" lon="-4.2111329455"><ele>27.53</ele><time>2012-08-10T14:45:03Z</time></trkpt><trkpt lat="57.7016560268" lon="-4.2156144138"><ele>25.13</ele><time>2012-08-10T14:45:16Z</time></trkpt><trkpt lat="57.7010270488" lon="-4.2186501715"><ele>27.05</ele><time>2012-08-10T14:45:24Z</time></trkpt><trkpt lat="57.7005391382" lon="-4.2209050711"><ele>31.86</ele><time>2012-08-10T14:45:30Z</time></trkpt><trkpt lat="57.7004508767" lon="-4.2212573625"><ele>30.42</ele><time>2012-08-10T14:45:31Z</time></trkpt><trkpt lat="57.6993163023" lon="-4.2251588032"><ele>30.90</ele><time>2012-08-10T14:45:43Z</time></trkpt><trkpt lat="57.6980577596" lon="-4.2283859197"><ele>32.82</ele><time>2012-08-10T14:45:53Z</time></trkpt><trkpt lat="57.6962704863" lon="-4.2319368292"><ele>33.30</ele><time>2012-08-10T14:46:04Z</time></trkpt><trkpt lat="57.6945494302" lon="-4.2346011847"><ele>32.34</ele><time>2012-08-10T14:46:14Z</time></trkpt><trkpt lat="57.6932161208" lon="-4.2366219778"><ele>29.46</ele><time>2012-08-10T14:46:22Z</time></trkpt><trkpt lat="57.6923207659" lon="-4.2380659282"><ele>28.02</ele><time>2012-08-10T14:46:28Z</time></trkpt><trkpt lat="57.6918209530" lon="-4.2390199564"><ele>23.69</ele><time>2012-08-10T14:46:32Z</time></trkpt><trkpt lat="57.6915275026" lon="-4.2395933624"><ele>19.84</ele><time>2012-08-10T14:46:35Z</time></trkpt><trkpt lat="57.6914037857" lon="-4.2398402933"><ele>18.40</ele><time>2012-08-10T14:46:37Z</time></trkpt><trkpt lat="57.6913179550" lon="-4.2400448956"><ele>17.92</ele><time>2012-08-10T14:46:39Z</time></trkpt><trkpt lat="57.6913087349" lon="-4.2401542794"><ele>16.96</ele><time>2012-08-10T14:46:40Z</time></trkpt><trkpt lat="57.6913323719" lon="-4.2402562033"><ele>16.96</ele><time>2012-08-10T14:46:41Z</time></trkpt><trkpt lat="57.6913809869" lon="-4.2403363343"><ele>17.92</ele><time>2012-08-10T14:46:42Z</time></trkpt><trkpt lat="57.6914402470" lon="-4.2404178064"><ele>17.44</ele><time>2012-08-10T14:46:43Z</time></trkpt><trkpt lat="57.6915067993" lon="-4.2405171320"><ele>17.92</ele><time>2012-08-10T14:46:44Z</time></trkpt><trkpt lat="57.6916455198" lon="-4.2407829221"><ele>18.40</ele><time>2012-08-10T14:46:46Z</time></trkpt><trkpt lat="57.6916955598" lon="-4.2409596127"><ele>18.40</ele><time>2012-08-10T14:46:47Z</time></trkpt><trkpt lat="57.6917257346" lon="-4.2411575094"><ele>18.40</ele><time>2012-08-10T14:46:48Z</time></trkpt><trkpt lat="57.6917399000" lon="-4.2413599323"><ele>19.84</ele><time>2012-08-10T14:46:49Z</time></trkpt><trkpt lat="57.6917373855" lon="-4.2415529676"><ele>20.32</ele><time>2012-08-10T14:46:50Z</time></trkpt><trkpt lat="57.6917155087" lon="-4.2417212762"><ele>20.81</ele><time>2012-08-10T14:46:51Z</time></trkpt><trkpt lat="57.6916745212" lon="-4.2418572307"><ele>20.32</ele><time>2012-08-10T14:46:52Z</time></trkpt><trkpt lat="57.6916269120" lon="-4.2419597413"><ele>20.32</ele><time>2012-08-10T14:46:53Z</time></trkpt><trkpt lat="57.6915880200" lon="-4.2420297302"><ele>20.81</ele><time>2012-08-10T14:46:54Z</time></trkpt><trkpt lat="57.6915100683" lon="-4.2422014754"><ele>20.81</ele><time>2012-08-10T14:46:57Z</time></trkpt><trkpt lat="57.6914984174" lon="-4.2423013039"><ele>20.32</ele><time>2012-08-10T14:46:58Z</time></trkpt><trkpt lat="57.6915164385" lon="-4.2423961032"><ele>20.81</ele><time>2012-08-10T14:46:59Z</time></trkpt><trkpt lat="57.6915584318" lon="-4.2424460594"><ele>20.81</ele><time>2012-08-10T14:47:00Z</time></trkpt><trkpt lat="57.6916109025" lon="-4.2424306367"><ele>21.29</ele><time>2012-08-10T14:47:01Z</time></trkpt><trkpt lat="57.6916696597" lon="-4.2423748132"><ele>21.77</ele><time>2012-08-10T14:47:02Z</time></trkpt><trkpt lat="57.6917357091" lon="-4.2423260305"><ele>22.25</ele><time>2012-08-10T14:47:03Z</time></trkpt><trkpt lat="57.6918654609" lon="-4.2422486655"><ele>22.25</ele><time>2012-08-10T14:47:05Z</time></trkpt><trkpt lat="57.6919191889" lon="-4.2422180716"><ele>22.73</ele><time>2012-08-10T14:47:06Z</time></trkpt><trkpt lat="57.6919621881" lon="-4.2422269564"><ele>22.73</ele><time>2012-08-10T14:47:07Z</time></trkpt><trkpt lat="57.6919880044" lon="-4.2422686983"><ele>22.25</ele><time>2012-08-10T14:47:08Z</time></trkpt><trkpt lat="57.6920022536" lon="-4.2423059139"><ele>22.73</ele><time>2012-08-10T14:47:09Z</time></trkpt><trkpt lat="57.6920157485" lon="-4.2423251085"><ele>22.25</ele><time>2012-08-10T14:47:10Z</time></trkpt><trkpt lat="57.6920283213" lon="-4.2423304729"><ele>22.25</ele><time>2012-08-10T14:47:11Z</time></trkpt><trkpt lat="57.6920175925" lon="-4.2422607355"><ele>22.73</ele><time>2012-08-10T14:47:23Z</time></trkpt><trkpt lat="57.6919936202" lon="-4.2422171496"><ele>22.73</ele><time>2012-08-10T14:47:48Z</time></trkpt><trkpt lat="57.6919979788" lon="-4.2422973644"><ele>23.21</ele><time>2012-08-10T14:48:19Z</time></trkpt><trkpt lat="57.6920291595" lon="-4.2422735598"><ele>23.21</ele><time>2012-08-10T14:48:45Z</time></trkpt><trkpt lat="57.6920395531" lon="-4.2422311474"><ele>23.69</ele><time>2012-08-10T14:49:10Z</time></trkpt><trkpt lat="57.6920449175" lon="-4.2422302254"><ele>23.69</ele><time>2012-08-10T14:49:34Z</time></trkpt><trkpt lat="57.6920604240" lon="-4.2422097735"><ele>24.65</ele><time>2012-08-10T14:50:25Z</time></trkpt><trkpt lat="57.6920872461" lon="-4.2422145512"><ele>25.13</ele><time>2012-08-10T14:51:09Z</time></trkpt><trkpt lat="57.6920832228" lon="-4.2422146350"><ele>25.61</ele><time>2012-08-10T14:51:47Z</time></trkpt><trkpt lat="57.6920911856" lon="-4.2422292195"><ele>26.57</ele><time>2012-08-10T14:52:27Z</time></trkpt><trkpt lat="57.6920864079" lon="-4.2422702070"><ele>26.57</ele><time>2012-08-10T14:53:25Z</time></trkpt><trkpt lat="57.6920579933" lon="-4.2422171496"><ele>27.53</ele><time>2012-08-10T14:54:20Z</time></trkpt><trkpt lat="57.6920624357" lon="-4.2422251962"><ele>27.05</ele><time>2012-08-10T14:54:58Z</time></trkpt><trkpt lat="57.6920584124" lon="-4.2422200833"><ele>28.50</ele><time>2012-08-10T14:55:45Z</time></trkpt><trkpt lat="57.6920227893" lon="-4.2422506772"><ele>28.50</ele><time>2012-08-10T14:56:35Z</time></trkpt><trkpt lat="57.6920315903" lon="-4.2422428820"><ele>28.50</ele><time>2012-08-10T14:57:30Z</time></trkpt><trkpt lat="57.6920196880" lon="-4.2421990447"><ele>28.02</ele><time>2012-08-10T14:58:01Z</time></trkpt><trkpt lat="57.6920284051" lon="-4.2422216758"><ele>28.50</ele><time>2012-08-10T14:58:46Z</time></trkpt><trkpt lat="57.6920613460" lon="-4.2422327399"><ele>28.02</ele><time>2012-08-10T14:59:29Z</time></trkpt><trkpt lat="57.6920439955" lon="-4.2422587238"><ele>28.50</ele><time>2012-08-10T15:00:21Z</time></trkpt><trkpt lat="57.6920274831" lon="-4.2422670219"><ele>28.50</ele><time>2012-08-10T15:01:08Z</time></trkpt><trkpt lat="57.6920268126" lon="-4.2422966100"><ele>29.46</ele><time>2012-08-10T15:01:53Z</time></trkpt><trkpt lat="57.6920442469" lon="-4.2423024774"><ele>28.98</ele><time>2012-08-10T15:02:42Z</time></trkpt><trkpt lat="57.6920263097" lon="-4.2423185706"><ele>28.98</ele><time>2012-08-10T15:03:24Z</time></trkpt><trkpt lat="57.6920345239" lon="-4.2423282936"><ele>28.98</ele><time>2012-08-10T15:04:07Z</time></trkpt><trkpt lat="57.6920240466" lon="-4.2423096020"><ele>28.02</ele><time>2012-08-10T15:04:47Z</time></trkpt><trkpt lat="57.6920207776" lon="-4.2423140444"><ele>28.02</ele><time>2012-08-10T15:05:23Z</time></trkpt><trkpt lat="57.6920296624" lon="-4.2423077580"><ele>28.98</ele><time>2012-08-10T15:06:02Z</time></trkpt><trkpt lat="57.6920456719" lon="-4.2423239350"><ele>28.98</ele><time>2012-08-10T15:06:39Z</time></trkpt><trkpt lat="57.6920192689" lon="-4.2423013877"><ele>29.46</ele><time>2012-08-10T15:07:25Z</time></trkpt><trkpt lat="57.6920507010" lon="-4.2422792595"><ele>29.94</ele><time>2012-08-10T15:08:03Z</time></trkpt><trkpt lat="57.6920652017" lon="-4.2422862165"><ele>30.42</ele><time>2012-08-10T15:08:50Z</time></trkpt><trkpt lat="57.6920463424" lon="-4.2423346639"><ele>29.94</ele><time>2012-08-10T15:09:22Z</time></trkpt><trkpt lat="57.6920395531" lon="-4.2423194088"><ele>29.46</ele><time>2012-08-10T15:09:59Z</time></trkpt><trkpt lat="57.6920440793" lon="-4.2422845401"><ele>29.94</ele><time>2012-08-10T15:10:18Z</time></trkpt><trkpt lat="57.6918964740" lon="-4.2421404552"><ele>30.90</ele><time>2012-08-10T15:10:22Z</time></trkpt><trkpt lat="57.6917689014" lon="-4.2422015592"><ele>30.42</ele><time>2012-08-10T15:10:24Z</time></trkpt><trkpt lat="57.6917190291" lon="-4.2422070913"><ele>29.46</ele><time>2012-08-10T15:10:25Z</time></trkpt><trkpt lat="57.6916803885" lon="-4.2422073428"><ele>28.50</ele><time>2012-08-10T15:10:27Z</time></trkpt><trkpt lat="57.6916727610" lon="-4.2421914171"><ele>28.50</ele><time>2012-08-10T15:10:32Z</time></trkpt><trkpt lat="57.6916606911" lon="-4.2421339173"><ele>28.50</ele><time>2012-08-10T15:10:33Z</time></trkpt><trkpt lat="57.6916653011" lon="-4.2420393694"><ele>28.98</ele><time>2012-08-10T15:10:34Z</time></trkpt><trkpt lat="57.6916932967" lon="-4.2419212684"><ele>28.98</ele><time>2012-08-10T15:10:35Z</time></trkpt><trkpt lat="57.6917286683" lon="-4.2417983059"><ele>29.94</ele><time>2012-08-10T15:10:36Z</time></trkpt><trkpt lat="57.6917565800" lon="-4.2416748405"><ele>29.46</ele><time>2012-08-10T15:10:37Z</time></trkpt><trkpt lat="57.6917757746" lon="-4.2415372096"><ele>29.46</ele><time>2012-08-10T15:10:38Z</time></trkpt><trkpt lat="57.6917837374" lon="-4.2413787078"><ele>29.46</ele><time>2012-08-10T15:10:39Z</time></trkpt><trkpt lat="57.6917796303" lon="-4.2411957309"><ele>29.46</ele><time>2012-08-10T15:10:40Z</time></trkpt><trkpt lat="57.6917575020" lon="-4.2410058808"><ele>29.46</ele><time>2012-08-10T15:10:41Z</time></trkpt><trkpt lat="57.6917188615" lon="-4.2408380751"><ele>28.50</ele><time>2012-08-10T15:10:42Z</time></trkpt><trkpt lat="57.6916708332" lon="-4.2406887934"><ele>28.02</ele><time>2012-08-10T15:10:43Z</time></trkpt><trkpt lat="57.6916170213" lon="-4.2405494861"><ele>27.53</ele><time>2012-08-10T15:10:44Z</time></trkpt><trkpt lat="57.6915592700" lon="-4.2404235899"><ele>27.05</ele><time>2012-08-10T15:10:45Z</time></trkpt><trkpt lat="57.6915036980" lon="-4.2403093446"><ele>27.05</ele><time>2012-08-10T15:10:46Z</time></trkpt><trkpt lat="57.6914169453" lon="-4.2401445564"><ele>25.61</ele><time>2012-08-10T15:10:48Z</time></trkpt><trkpt lat="57.6913895365" lon="-4.2401071731"><ele>25.61</ele><time>2012-08-10T15:10:49Z</time></trkpt><trkpt lat="57.6913736947" lon="-4.2400904093"><ele>24.65</ele><time>2012-08-10T15:10:50Z</time></trkpt><trkpt lat="57.6913212240" lon="-4.2400791775"><ele>25.13</ele><time>2012-08-10T15:11:02Z</time></trkpt><trkpt lat="57.6912690885" lon="-4.2401102744"><ele>25.13</ele><time>2012-08-10T15:11:03Z</time></trkpt><trkpt lat="57.6912025362" lon="-4.2401984520"><ele>25.13</ele><time>2012-08-10T15:11:04Z</time></trkpt><trkpt lat="57.6911261771" lon="-4.2403447162"><ele>25.61</ele><time>2012-08-10T15:11:05Z</time></trkpt><trkpt lat="57.6910384186" lon="-4.2405400146"><ele>26.09</ele><time>2012-08-10T15:11:06Z</time></trkpt><trkpt lat="57.6902787667" lon="-4.2422308121"><ele>28.50</ele><time>2012-08-10T15:11:12Z</time></trkpt><trkpt lat="57.6891004387" lon="-4.2451125942"><ele>26.09</ele><time>2012-08-10T15:11:20Z</time></trkpt><trkpt lat="57.6888466347" lon="-4.2458984815"><ele>26.57</ele><time>2012-08-10T15:11:22Z</time></trkpt><trkpt lat="57.6878822129" lon="-4.2498560809"><ele>25.13</ele><time>2012-08-10T15:11:31Z</time></trkpt><trkpt lat="57.6859962847" lon="-4.2566607613"><ele>24.17</ele><time>2012-08-10T15:11:47Z</time></trkpt><trkpt lat="57.6846474689" lon="-4.2606952228"><ele>20.81</ele><time>2012-08-10T15:11:57Z</time></trkpt><trkpt lat="57.6836284809" lon="-4.2644811608"><ele>18.88</ele><time>2012-08-10T15:12:06Z</time></trkpt><trkpt lat="57.6832450926" lon="-4.2672276590"><ele>16.00</ele><time>2012-08-10T15:12:13Z</time></trkpt><trkpt lat="57.6831118204" lon="-4.2706043925"><ele>14.08</ele><time>2012-08-10T15:12:22Z</time></trkpt><trkpt lat="57.6832779497" lon="-4.2740342673"><ele>15.04</ele><time>2012-08-10T15:12:32Z</time></trkpt><trkpt lat="57.6835739985" lon="-4.2776986677"><ele>14.56</ele><time>2012-08-10T15:12:42Z</time></trkpt><trkpt lat="57.6834397204" lon="-4.2816928960"><ele>15.52</ele><time>2012-08-10T15:12:52Z</time></trkpt><trkpt lat="57.6827977505" lon="-4.2854453065"><ele>14.56</ele><time>2012-08-10T15:13:02Z</time></trkpt><trkpt lat="57.6817613281" lon="-4.2887066212"><ele>15.52</ele><time>2012-08-10T15:13:12Z</time></trkpt><trkpt lat="57.6806946471" lon="-4.2911936156"><ele>16.96</ele><time>2012-08-10T15:13:20Z</time></trkpt><trkpt lat="57.6790223736" lon="-4.2950166855"><ele>18.40</ele><time>2012-08-10T15:13:32Z</time></trkpt><trkpt lat="57.6774313208" lon="-4.2986691836"><ele>19.36</ele><time>2012-08-10T15:13:44Z</time></trkpt><trkpt lat="57.6763085648" lon="-4.3014078867"><ele>21.29</ele><time>2012-08-10T15:13:53Z</time></trkpt><trkpt lat="57.6753560454" lon="-4.3037028518"><ele>23.69</ele><time>2012-08-10T15:14:00Z</time></trkpt><trkpt lat="57.6736019645" lon="-4.3079003412"><ele>23.21</ele><time>2012-08-10T15:14:14Z</time></trkpt><trkpt lat="57.6717236638" lon="-4.3120354693"><ele>23.21</ele><time>2012-08-10T15:14:29Z</time></trkpt><trkpt lat="57.6700442657" lon="-4.3152834568"><ele>22.25</ele><time>2012-08-10T15:14:41Z</time></trkpt><trkpt lat="57.6686235331" lon="-4.3177846167"><ele>25.61</ele><time>2012-08-10T15:14:50Z</time></trkpt><trkpt lat="57.6673602127" lon="-4.3200480659"><ele>28.98</ele><time>2012-08-10T15:14:58Z</time></trkpt><trkpt lat="57.6655639708" lon="-4.3234999850"><ele>27.05</ele><time>2012-08-10T15:15:10Z</time></trkpt><trkpt lat="57.6637631189" lon="-4.3270881940"><ele>27.05</ele><time>2012-08-10T15:15:23Z</time></trkpt><trkpt lat="57.6620759256" lon="-4.3302381970"><ele>28.98</ele><time>2012-08-10T15:15:34Z</time></trkpt><trkpt lat="57.6599589083" lon="-4.3333082367"><ele>31.86</ele><time>2012-08-10T15:15:46Z</time></trkpt><trkpt lat="57.6578773465" lon="-4.3355206400"><ele>31.86</ele><time>2012-08-10T15:15:57Z</time></trkpt><trkpt lat="57.6553942077" lon="-4.3374634814"><ele>32.82</ele><time>2012-08-10T15:16:10Z</time></trkpt><trkpt lat="57.6544676721" lon="-4.3380564172"><ele>30.90</ele><time>2012-08-10T15:16:15Z</time></trkpt><trkpt lat="57.6535132248" lon="-4.3385877460"><ele>29.46</ele><time>2012-08-10T15:16:20Z</time></trkpt><trkpt lat="57.6529228874" lon="-4.3388716411"><ele>26.09</ele><time>2012-08-10T15:16:24Z</time></trkpt><trkpt lat="57.6521639060" lon="-4.3392085098"><ele>23.21</ele><time>2012-08-10T15:16:32Z</time></trkpt><trkpt lat="57.6513992250" lon="-4.3394964281"><ele>22.25</ele><time>2012-08-10T15:16:41Z</time></trkpt><trkpt lat="57.6509958878" lon="-4.3396343105"><ele>23.69</ele><time>2012-08-10T15:16:44Z</time></trkpt><trkpt lat="57.6496655960" lon="-4.3399989232"><ele>25.13</ele><time>2012-08-10T15:16:51Z</time></trkpt><trkpt lat="57.6478552725" lon="-4.3406233750"><ele>24.65</ele><time>2012-08-10T15:16:58Z</time></trkpt><trkpt lat="57.6470060181" lon="-4.3411583919"><ele>28.02</ele><time>2012-08-10T15:17:01Z</time></trkpt><trkpt lat="57.6467355341" lon="-4.3413613178"><ele>24.65</ele><time>2012-08-10T15:17:02Z</time></trkpt><trkpt lat="57.6462222263" lon="-4.3418136891"><ele>23.69</ele><time>2012-08-10T15:17:04Z</time></trkpt><trkpt lat="57.6441910397" lon="-4.3440456223"><ele>23.69</ele><time>2012-08-10T15:17:13Z</time></trkpt><trkpt lat="57.6431614067" lon="-4.3454048317"><ele>22.25</ele><time>2012-08-10T15:17:18Z</time></trkpt><trkpt lat="57.6424061973" lon="-4.3465033639"><ele>21.29</ele><time>2012-08-10T15:17:22Z</time></trkpt><trkpt lat="57.6418495551" lon="-4.3473404646"><ele>19.36</ele><time>2012-08-10T15:17:25Z</time></trkpt><trkpt lat="57.6395141054" lon="-4.3507472053"><ele>18.88</ele><time>2012-08-10T15:17:38Z</time></trkpt><trkpt lat="57.6374752913" lon="-4.3546027970"><ele>18.40</ele><time>2012-08-10T15:17:51Z</time></trkpt><trkpt lat="57.6360952947" lon="-4.3579085357"><ele>18.88</ele><time>2012-08-10T15:18:01Z</time></trkpt><trkpt lat="57.6351770572" lon="-4.3597917818"><ele>15.04</ele><time>2012-08-10T15:18:07Z</time></trkpt><trkpt lat="57.6350489818" lon="-4.3600271456"><ele>15.04</ele><time>2012-08-10T15:18:08Z</time></trkpt><trkpt lat="57.6338424068" lon="-4.3619659636"><ele>14.08</ele><time>2012-08-10T15:18:18Z</time></trkpt><trkpt lat="57.6325014699" lon="-4.3639080506"><ele>18.88</ele><time>2012-08-10T15:18:28Z</time></trkpt><trkpt lat="57.6308386680" lon="-4.3657668214"><ele>17.92</ele><time>2012-08-10T15:18:37Z</time></trkpt><trkpt lat="57.6292571705" lon="-4.3669531122"><ele>14.08</ele><time>2012-08-10T15:18:46Z</time></trkpt><trkpt lat="57.6288519893" lon="-4.3671010528"><ele>13.12</ele><time>2012-08-10T15:18:49Z</time></trkpt><trkpt lat="57.6284603868" lon="-4.3671721313"><ele>11.19</ele><time>2012-08-10T15:18:53Z</time></trkpt><trkpt lat="57.6283998694" lon="-4.3671292160"><ele>11.19</ele><time>2012-08-10T15:18:54Z</time></trkpt><trkpt lat="57.6283474825" lon="-4.3670507614"><ele>11.19</ele><time>2012-08-10T15:18:55Z</time></trkpt><trkpt lat="57.6282962691" lon="-4.3669417128"><ele>11.67</ele><time>2012-08-10T15:18:56Z</time></trkpt><trkpt lat="57.6282356679" lon="-4.3668148946"><ele>12.15</ele><time>2012-08-10T15:18:57Z</time></trkpt><trkpt lat="57.6281566266" lon="-4.3667004816"><ele>12.63</ele><time>2012-08-10T15:18:58Z</time></trkpt><trkpt lat="57.6280604862" lon="-4.3666237034"><ele>12.63</ele><time>2012-08-10T15:18:59Z</time></trkpt><trkpt lat="57.6279552095" lon="-4.3666008208"><ele>12.63</ele><time>2012-08-10T15:19:00Z</time></trkpt><trkpt lat="57.6278543752" lon="-4.3666399643"><ele>12.63</ele><time>2012-08-10T15:19:01Z</time></trkpt><trkpt lat="57.6277613360" lon="-4.3667156529"><ele>12.63</ele><time>2012-08-10T15:19:02Z</time></trkpt><trkpt lat="57.6276660338" lon="-4.3667895813"><ele>12.63</ele><time>2012-08-10T15:19:03Z</time></trkpt><trkpt lat="57.6275627688" lon="-4.3668412976"><ele>13.60</ele><time>2012-08-10T15:19:04Z</time></trkpt><trkpt lat="57.6274520438" lon="-4.3668582290"><ele>13.12</ele><time>2012-08-10T15:19:05Z</time></trkpt><trkpt lat="57.6273362897" lon="-4.3668390345"><ele>13.60</ele><time>2012-08-10T15:19:06Z</time></trkpt><trkpt lat="57.6272097230" lon="-4.3667965382"><ele>14.08</ele><time>2012-08-10T15:19:07Z</time></trkpt><trkpt lat="57.6261026412" lon="-4.3664191850"><ele>16.00</ele><time>2012-08-10T15:19:14Z</time></trkpt><trkpt lat="57.6257625036" lon="-4.3663123157"><ele>16.96</ele><time>2012-08-10T15:19:16Z</time></trkpt><trkpt lat="57.6233105455" lon="-4.3654434476"><ele>18.40</ele><time>2012-08-10T15:19:29Z</time></trkpt><trkpt lat="57.6203240734" lon="-4.3639551569"><ele>18.40</ele><time>2012-08-10T15:19:44Z</time></trkpt><trkpt lat="57.6177606359" lon="-4.3622059375"><ele>19.36</ele><time>2012-08-10T15:19:57Z</time></trkpt><trkpt lat="57.6156813372" lon="-4.3604892399"><ele>18.88</ele><time>2012-08-10T15:20:07Z</time></trkpt><trkpt lat="57.6128018182" lon="-4.3575225491"><ele>19.84</ele><time>2012-08-10T15:20:22Z</time></trkpt><trkpt lat="57.6108073443" lon="-4.3551717605"><ele>18.40</ele><time>2012-08-10T15:20:32Z</time></trkpt><trkpt lat="57.6090331469" lon="-4.3536708970"><ele>21.77</ele><time>2012-08-10T15:20:41Z</time></trkpt><trkpt lat="57.6083387900" lon="-4.3532502931"><ele>25.61</ele><time>2012-08-10T15:20:44Z</time></trkpt><trkpt lat="57.6078440901" lon="-4.3530051224"><ele>29.94</ele><time>2012-08-10T15:20:46Z</time></trkpt><trkpt lat="57.6068220846" lon="-4.3526498973"><ele>33.30</ele><time>2012-08-10T15:20:50Z</time></trkpt><trkpt lat="57.6057984028" lon="-4.3524827622"><ele>36.19</ele><time>2012-08-10T15:20:54Z</time></trkpt><trkpt lat="57.6050409302" lon="-4.3524620589"><ele>39.55</ele><time>2012-08-10T15:20:57Z</time></trkpt><trkpt lat="57.6038475148" lon="-4.3526534177"><ele>42.92</ele><time>2012-08-10T15:21:02Z</time></trkpt><trkpt lat="57.6029825862" lon="-4.3529484607"><ele>46.76</ele><time>2012-08-10T15:21:06Z</time></trkpt><trkpt lat="57.6021594834" lon="-4.3533472717"><ele>50.13</ele><time>2012-08-10T15:21:10Z</time></trkpt><trkpt lat="57.6013256516" lon="-4.3538473360"><ele>53.49</ele><time>2012-08-10T15:21:14Z</time></trkpt><trkpt lat="57.6001880597" lon="-4.3545437884"><ele>56.86</ele><time>2012-08-10T15:21:20Z</time></trkpt><trkpt lat="57.5999990478" lon="-4.3546597101"><ele>56.86</ele><time>2012-08-10T15:21:21Z</time></trkpt><trkpt lat="57.5996173359" lon="-4.3548961636"><ele>58.78</ele><time>2012-08-10T15:21:23Z</time></trkpt><trkpt lat="57.5980833638" lon="-4.3557789456"><ele>61.66</ele><time>2012-08-10T15:21:31Z</time></trkpt><trkpt lat="57.5971418247" lon="-4.3562831171"><ele>65.03</ele><time>2012-08-10T15:21:36Z</time></trkpt><trkpt lat="57.5963988528" lon="-4.3566494901"><ele>66.95</ele><time>2012-08-10T15:21:40Z</time></trkpt><trkpt lat="57.5960287079" lon="-4.3568307068"><ele>68.39</ele><time>2012-08-10T15:21:42Z</time></trkpt><trkpt lat="57.5949352887" lon="-4.3573610298"><ele>71.27</ele><time>2012-08-10T15:21:48Z</time></trkpt><trkpt lat="57.5942174625" lon="-4.3577016704"><ele>73.20</ele><time>2012-08-10T15:21:52Z</time></trkpt><trkpt lat="57.5936507620" lon="-4.3579804525"><ele>76.08</ele><time>2012-08-10T15:21:55Z</time></trkpt><trkpt lat="57.5932747498" lon="-4.3581596576"><ele>77.04</ele><time>2012-08-10T15:21:57Z</time></trkpt><trkpt lat="57.5923519023" lon="-4.3586068321"><ele>80.41</ele><time>2012-08-10T15:22:02Z</time></trkpt><trkpt lat="57.5921616331" lon="-4.3586976081"><ele>80.41</ele><time>2012-08-10T15:22:03Z</time></trkpt><trkpt lat="57.5914191641" lon="-4.3590496480"><ele>82.33</ele><time>2012-08-10T15:22:07Z</time></trkpt><trkpt lat="57.5904841628" lon="-4.3594975770"><ele>85.69</ele><time>2012-08-10T15:22:12Z</time></trkpt><trkpt lat="57.5897141173" lon="-4.3598331045"><ele>89.06</ele><time>2012-08-10T15:22:16Z</time></trkpt><trkpt lat="57.5885251444" lon="-4.3602243718"><ele>92.42</ele><time>2012-08-10T15:22:22Z</time></trkpt><trkpt lat="57.5879355613" lon="-4.3603775091"><ele>94.35</ele><time>2012-08-10T15:22:25Z</time></trkpt><trkpt lat="57.5865660422" lon="-4.3606042396"><ele>98.19</ele><time>2012-08-10T15:22:33Z</time></trkpt><trkpt lat="57.5857959129" lon="-4.3606518488"><ele>101.08</ele><time>2012-08-10T15:22:38Z</time></trkpt><trkpt lat="57.5849853829" lon="-4.3606479093"><ele>104.44</ele><time>2012-08-10T15:22:43Z</time></trkpt><trkpt lat="57.5848221872" lon="-4.3606357556"><ele>104.92</ele><time>2012-08-10T15:22:44Z</time></trkpt><trkpt lat="57.5840099808" lon="-4.3605548702"><ele>107.81</ele><time>2012-08-10T15:22:49Z</time></trkpt><trkpt lat="57.5835263450" lon="-4.3604833726"><ele>109.73</ele><time>2012-08-10T15:22:52Z</time></trkpt><trkpt lat="57.5828207564" lon="-4.3603359349"><ele>112.61</ele><time>2012-08-10T15:22:56Z</time></trkpt><trkpt lat="57.5822547264" lon="-4.3601943646"><ele>115.98</ele><time>2012-08-10T15:22:59Z</time></trkpt><trkpt lat="57.5808065850" lon="-4.3596364651"><ele>117.42</ele><time>2012-08-10T15:23:08Z</time></trkpt><trkpt lat="57.5796778779" lon="-4.3590653222"><ele>120.78</ele><time>2012-08-10T15:23:17Z</time></trkpt><trkpt lat="57.5793761294" lon="-4.3588922359"><ele>122.22</ele><time>2012-08-10T15:23:19Z</time></trkpt><trkpt lat="57.5783547945" lon="-4.3582789320"><ele>125.59</ele><time>2012-08-10T15:23:25Z</time></trkpt><trkpt lat="57.5769576989" lon="-4.3572152685"><ele>128.47</ele><time>2012-08-10T15:23:34Z</time></trkpt><trkpt lat="57.5766555313" lon="-4.3569557648"><ele>129.92</ele><time>2012-08-10T15:23:36Z</time></trkpt><trkpt lat="57.5757331029" lon="-4.3560994696"><ele>131.36</ele><time>2012-08-10T15:23:43Z</time></trkpt><trkpt lat="57.5753284246" lon="-4.3556797039"><ele>133.28</ele><time>2012-08-10T15:23:46Z</time></trkpt><trkpt lat="57.5750402547" lon="-4.3553661369"><ele>134.24</ele><time>2012-08-10T15:23:48Z</time></trkpt><trkpt lat="57.5746187288" lon="-4.3549060542"><ele>135.68</ele><time>2012-08-10T15:23:51Z</time></trkpt><trkpt lat="57.5737168361" lon="-4.3538185023"><ele>137.61</ele><time>2012-08-10T15:23:58Z</time></trkpt><trkpt lat="57.5731072202" lon="-4.3530212995"><ele>139.53</ele><time>2012-08-10T15:24:03Z</time></trkpt><trkpt lat="57.5725865364" lon="-4.3523436226"><ele>141.93</ele><time>2012-08-10T15:24:07Z</time></trkpt><trkpt lat="57.5720479991" lon="-4.3516480923"><ele>145.30</ele><time>2012-08-10T15:24:11Z</time></trkpt><trkpt lat="57.5714996550" lon="-4.3509464432"><ele>148.18</ele><time>2012-08-10T15:24:15Z</time></trkpt><trkpt lat="57.5712279975" lon="-4.3505949900"><ele>149.14</ele><time>2012-08-10T15:24:17Z</time></trkpt><trkpt lat="57.5706132688" lon="-4.3497946858"><ele>152.03</ele><time>2012-08-10T15:24:22Z</time></trkpt><trkpt lat="57.5699733105" lon="-4.3489713315"><ele>155.87</ele><time>2012-08-10T15:24:27Z</time></trkpt><trkpt lat="57.5698398706" lon="-4.3487987481"><ele>156.35</ele><time>2012-08-10T15:24:28Z</time></trkpt><trkpt lat="57.5694306660" lon="-4.3482718617"><ele>159.24</ele><time>2012-08-10T15:24:31Z</time></trkpt><trkpt lat="57.5686912984" lon="-4.3473174982"><ele>162.12</ele><time>2012-08-10T15:24:36Z</time></trkpt><trkpt lat="57.5685363170" lon="-4.3471196853"><ele>162.60</ele><time>2012-08-10T15:24:37Z</time></trkpt><trkpt lat="57.5677424669" lon="-4.3461109232"><ele>165.00</ele><time>2012-08-10T15:24:42Z</time></trkpt><trkpt lat="57.5662204809" lon="-4.3441694230"><ele>166.45</ele><time>2012-08-10T15:24:52Z</time></trkpt><trkpt lat="57.5652040076" lon="-4.3428936135"><ele>168.37</ele><time>2012-08-10T15:25:01Z</time></trkpt><trkpt lat="57.5637795031" lon="-4.3410977907"><ele>170.29</ele><time>2012-08-10T15:25:12Z</time></trkpt><trkpt lat="57.5627905224" lon="-4.3398087379"><ele>169.33</ele><time>2012-08-10T15:25:19Z</time></trkpt><trkpt lat="57.5616634917" lon="-4.3383372109"><ele>168.37</ele><time>2012-08-10T15:25:29Z</time></trkpt><trkpt lat="57.5600710139" lon="-4.3364123069"><ele>169.81</ele><time>2012-08-10T15:25:40Z</time></trkpt><trkpt lat="57.5595582929" lon="-4.3359421659"><ele>168.37</ele><time>2012-08-10T15:25:43Z</time></trkpt><trkpt lat="57.5585025921" lon="-4.3351248465"><ele>165.48</ele><time>2012-08-10T15:25:49Z</time></trkpt><trkpt lat="57.5572614837" lon="-4.3345168233"><ele>161.64</ele><time>2012-08-10T15:25:56Z</time></trkpt><trkpt lat="57.5563604292" lon="-4.3343001511"><ele>158.75</ele><time>2012-08-10T15:26:01Z</time></trkpt><trkpt lat="57.5550306402" lon="-4.3342585769"><ele>154.91</ele><time>2012-08-10T15:26:08Z</time></trkpt><trkpt lat="57.5542808790" lon="-4.3343858980"><ele>150.58</ele><time>2012-08-10T15:26:12Z</time></trkpt><trkpt lat="57.5533851888" lon="-4.3346874788"><ele>147.22</ele><time>2012-08-10T15:26:17Z</time></trkpt><trkpt lat="57.5532108452" lon="-4.3347640894"><ele>146.74</ele><time>2012-08-10T15:26:18Z</time></trkpt><trkpt lat="57.5526975375" lon="-4.3350339867"><ele>143.85</ele><time>2012-08-10T15:26:21Z</time></trkpt><trkpt lat="57.5523726549" lon="-4.3352375831"><ele>142.89</ele><time>2012-08-10T15:26:23Z</time></trkpt><trkpt lat="57.5516964030" lon="-4.3357232306"><ele>140.01</ele><time>2012-08-10T15:26:27Z</time></trkpt><trkpt lat="57.5510312989" lon="-4.3362883385"><ele>136.64</ele><time>2012-08-10T15:26:31Z</time></trkpt><trkpt lat="57.5505315699" lon="-4.3367300648"><ele>133.76</ele><time>2012-08-10T15:26:34Z</time></trkpt><trkpt lat="57.5503672846" lon="-4.3368776701"><ele>133.28</ele><time>2012-08-10T15:26:35Z</time></trkpt><trkpt lat="57.5497242250" lon="-4.3374529202"><ele>129.92</ele><time>2012-08-10T15:26:39Z</time></trkpt><trkpt lat="57.5490415189" lon="-4.3380497955"><ele>126.55</ele><time>2012-08-10T15:26:43Z</time></trkpt><trkpt lat="57.5483749062" lon="-4.3385856505"><ele>123.67</ele><time>2012-08-10T15:26:47Z</time></trkpt><trkpt lat="57.5478506181" lon="-4.3388893269"><ele>122.22</ele><time>2012-08-10T15:26:50Z</time></trkpt><trkpt lat="57.5471218955" lon="-4.3391577154"><ele>118.86</ele><time>2012-08-10T15:26:54Z</time></trkpt><trkpt lat="57.5469381642" lon="-4.3391986191"><ele>118.38</ele><time>2012-08-10T15:26:55Z</time></trkpt><trkpt lat="57.5464155525" lon="-4.3392510898"><ele>115.01</ele><time>2012-08-10T15:26:58Z</time></trkpt><trkpt lat="57.5457809586" lon="-4.3391997926"><ele>111.17</ele><time>2012-08-10T15:27:02Z</time></trkpt><trkpt lat="57.5454773661" lon="-4.3391317315"><ele>109.25</ele><time>2012-08-10T15:27:04Z</time></trkpt><trkpt lat="57.5449098274" lon="-4.3389133830"><ele>105.88</ele><time>2012-08-10T15:27:08Z</time></trkpt><trkpt lat="57.5447762199" lon="-4.3388444837"><ele>105.88</ele><time>2012-08-10T15:27:09Z</time></trkpt><trkpt lat="57.5443757325" lon="-4.3386159092"><ele>104.44</ele><time>2012-08-10T15:27:12Z</time></trkpt><trkpt lat="57.5441142172" lon="-4.3384510372"><ele>103.00</ele><time>2012-08-10T15:27:14Z</time></trkpt><trkpt lat="57.5438484270" lon="-4.3382785376"><ele>102.04</ele><time>2012-08-10T15:27:16Z</time></trkpt><trkpt lat="57.5428864360" lon="-4.3376520742"><ele>98.19</ele><time>2012-08-10T15:27:22Z</time></trkpt><trkpt lat="57.5424006209" lon="-4.3373421114"><ele>94.83</ele><time>2012-08-10T15:27:25Z</time></trkpt><trkpt lat="57.5417266320" lon="-4.3369096052"><ele>90.98</ele><time>2012-08-10T15:27:30Z</time></trkpt><trkpt lat="57.5414881669" lon="-4.3367628381"><ele>88.10</ele><time>2012-08-10T15:27:33Z</time></trkpt><trkpt lat="57.5411975663" lon="-4.3365319166"><ele>87.14</ele><time>2012-08-10T15:27:38Z</time></trkpt><trkpt lat="57.5411564950" lon="-4.3364690524"><ele>87.14</ele><time>2012-08-10T15:27:39Z</time></trkpt><trkpt lat="57.5411300920" lon="-4.3364091218"><ele>87.14</ele><time>2012-08-10T15:27:40Z</time></trkpt><trkpt lat="57.5411142502" lon="-4.3363683019"><ele>87.14</ele><time>2012-08-10T15:27:41Z</time></trkpt><trkpt lat="57.5411072932" lon="-4.3363439105"><ele>86.66</ele><time>2012-08-10T15:27:42Z</time></trkpt><trkpt lat="57.5411005877" lon="-4.3363187648"><ele>87.14</ele><time>2012-08-10T15:27:43Z</time></trkpt><trkpt lat="57.5410893559" lon="-4.3362666294"><ele>87.14</ele><time>2012-08-10T15:27:44Z</time></trkpt><trkpt lat="57.5410711672" lon="-4.3361687288"><ele>87.62</ele><time>2012-08-10T15:27:45Z</time></trkpt><trkpt lat="57.5409590174" lon="-4.3357063830"><ele>88.10</ele><time>2012-08-10T15:27:48Z</time></trkpt><trkpt lat="57.5408875197" lon="-4.3355608732"><ele>88.10</ele><time>2012-08-10T15:27:49Z</time></trkpt><trkpt lat="57.5407917984" lon="-4.3354525790"><ele>88.10</ele><time>2012-08-10T15:27:50Z</time></trkpt><trkpt lat="57.5406812411" lon="-4.3354012817"><ele>88.10</ele><time>2012-08-10T15:27:51Z</time></trkpt><trkpt lat="57.5405610446" lon="-4.3353820872"><ele>88.10</ele><time>2012-08-10T15:27:52Z</time></trkpt><trkpt lat="57.5404347293" lon="-4.3353550136"><ele>88.10</ele><time>2012-08-10T15:27:53Z</time></trkpt><trkpt lat="57.5403022952" lon="-4.3352893833"><ele>89.06</ele><time>2012-08-10T15:27:54Z</time></trkpt><trkpt lat="57.5401638262" lon="-4.3351767305"><ele>89.06</ele><time>2012-08-10T15:27:55Z</time></trkpt><trkpt lat="57.5400250219" lon="-4.3350030575"><ele>90.02</ele><time>2012-08-10T15:27:56Z</time></trkpt><trkpt lat="57.5398783386" lon="-4.3347759917"><ele>90.98</ele><time>2012-08-10T15:27:57Z</time></trkpt><trkpt lat="57.5384002738" lon="-4.3326629139"><ele>90.98</ele><time>2012-08-10T15:28:05Z</time></trkpt><trkpt lat="57.5361670833" lon="-4.3302122131"><ele>89.54</ele><time>2012-08-10T15:28:15Z</time></trkpt><trkpt lat="57.5339594577" lon="-4.3286549393"><ele>90.02</ele><time>2012-08-10T15:28:24Z</time></trkpt><trkpt lat="57.5310612470" lon="-4.3269306142"><ele>90.98</ele><time>2012-08-10T15:28:36Z</time></trkpt><trkpt lat="57.5283855759" lon="-4.3249368947"><ele>89.06</ele><time>2012-08-10T15:28:47Z</time></trkpt><trkpt lat="57.5261765253" lon="-4.3222372513"><ele>87.14</ele><time>2012-08-10T15:28:57Z</time></trkpt><trkpt lat="57.5255795661" lon="-4.3213090394"><ele>84.25</ele><time>2012-08-10T15:29:00Z</time></trkpt><trkpt lat="57.5246314052" lon="-4.3195995502"><ele>79.45</ele><time>2012-08-10T15:29:05Z</time></trkpt><trkpt lat="57.5237511378" lon="-4.3177129515"><ele>76.56</ele><time>2012-08-10T15:29:10Z</time></trkpt><trkpt lat="57.5231215730" lon="-4.3161033746"><ele>73.20</ele><time>2012-08-10T15:29:14Z</time></trkpt><trkpt lat="57.5225425512" lon="-4.3144190311"><ele>68.39</ele><time>2012-08-10T15:29:18Z</time></trkpt><trkpt lat="57.5219849031" lon="-4.3127615936"><ele>64.07</ele><time>2012-08-10T15:29:22Z</time></trkpt><trkpt lat="57.5218450092" lon="-4.3123451807"><ele>64.07</ele><time>2012-08-10T15:29:23Z</time></trkpt><trkpt lat="57.5211473834" lon="-4.3102584220"><ele>61.18</ele><time>2012-08-10T15:29:28Z</time></trkpt><trkpt lat="57.5197599269" lon="-4.3061417341"><ele>64.55</ele><time>2012-08-10T15:29:38Z</time></trkpt><trkpt lat="57.5193417538" lon="-4.3049043976"><ele>68.87</ele><time>2012-08-10T15:29:41Z</time></trkpt><trkpt lat="57.5192041229" lon="-4.3044946063"><ele>68.87</ele><time>2012-08-10T15:29:42Z</time></trkpt><trkpt lat="57.5182551239" lon="-4.3017088808"><ele>73.68</ele><time>2012-08-10T15:29:49Z</time></trkpt><trkpt lat="57.5168990158" lon="-4.2977371998"><ele>75.12</ele><time>2012-08-10T15:29:59Z</time></trkpt><trkpt lat="57.5163215864" lon="-4.2960651778"><ele>78.48</ele><time>2012-08-10T15:30:03Z</time></trkpt><trkpt lat="57.5154031813" lon="-4.2935813684"><ele>75.12</ele><time>2012-08-10T15:30:09Z</time></trkpt><trkpt lat="57.5136143155" lon="-4.2899428681"><ele>72.72</ele><time>2012-08-10T15:30:19Z</time></trkpt><trkpt lat="57.5123890489" lon="-4.2880212329"><ele>68.87</ele><time>2012-08-10T15:30:25Z</time></trkpt><trkpt lat="57.5121902302" lon="-4.2876966018"><ele>68.87</ele><time>2012-08-10T15:30:26Z</time></trkpt><trkpt lat="57.5116410479" lon="-4.2866526358"><ele>66.95</ele><time>2012-08-10T15:30:29Z</time></trkpt><trkpt lat="57.5113219488" lon="-4.2858758010"><ele>71.27</ele><time>2012-08-10T15:30:31Z</time></trkpt><trkpt lat="57.5111789536" lon="-4.2854630761"><ele>67.43</ele><time>2012-08-10T15:30:32Z</time></trkpt><trkpt lat="57.5110512134" lon="-4.2850350123"><ele>64.07</ele><time>2012-08-10T15:30:33Z</time></trkpt><trkpt lat="57.5109385606" lon="-4.2845844850"><ele>64.07</ele><time>2012-08-10T15:30:34Z</time></trkpt><trkpt lat="57.5105497241" lon="-4.2821907811"><ele>61.18</ele><time>2012-08-10T15:30:39Z</time></trkpt><trkpt lat="57.5104611274" lon="-4.2806963716"><ele>56.86</ele><time>2012-08-10T15:30:42Z</time></trkpt><trkpt lat="57.5103558507" lon="-4.2777146772"><ele>53.01</ele><time>2012-08-10T15:30:48Z</time></trkpt><trkpt lat="57.5101447105" lon="-4.2758008372"><ele>49.65</ele><time>2012-08-10T15:30:52Z</time></trkpt><trkpt lat="57.5093626790" lon="-4.2726933304"><ele>49.16</ele><time>2012-08-10T15:30:59Z</time></trkpt><trkpt lat="57.5092446618" lon="-4.2722613271"><ele>49.16</ele><time>2012-08-10T15:31:00Z</time></trkpt><trkpt lat="57.5085875206" lon="-4.2685882095"><ele>49.16</ele><time>2012-08-10T15:31:08Z</time></trkpt><trkpt lat="57.5085230637" lon="-4.2676027492"><ele>48.68</ele><time>2012-08-10T15:31:10Z</time></trkpt><trkpt lat="57.5083011948" lon="-4.2626993358"><ele>46.76</ele><time>2012-08-10T15:31:20Z</time></trkpt><trkpt lat="57.5076403655" lon="-4.2595141288"><ele>45.80</ele><time>2012-08-10T15:31:27Z</time></trkpt><trkpt lat="57.5070781074" lon="-4.2579011153"><ele>43.88</ele><time>2012-08-10T15:31:31Z</time></trkpt><trkpt lat="57.5051940233" lon="-4.2537033744"><ele>45.32</ele><time>2012-08-10T15:31:42Z</time></trkpt><trkpt lat="57.5032058358" lon="-4.2490919866"><ele>42.92</ele><time>2012-08-10T15:31:54Z</time></trkpt><trkpt lat="57.5023383927" lon="-4.2455994152"><ele>42.44</ele><time>2012-08-10T15:32:02Z</time></trkpt><trkpt lat="57.5020271726" lon="-4.2422121204"><ele>42.92</ele><time>2012-08-10T15:32:09Z</time></trkpt><trkpt lat="57.5020220596" lon="-4.2392801307"><ele>45.32</ele><time>2012-08-10T15:32:15Z</time></trkpt><trkpt lat="57.5016960874" lon="-4.2356458213"><ele>47.72</ele><time>2012-08-10T15:32:23Z</time></trkpt><trkpt lat="57.5009492598" lon="-4.2332167458"><ele>50.13</ele><time>2012-08-10T15:32:29Z</time></trkpt><trkpt lat="57.4989909958" lon="-4.2288158275"><ele>47.24</ele><time>2012-08-10T15:32:41Z</time></trkpt><trkpt lat="57.4981693178" lon="-4.2269857228"><ele>43.88</ele><time>2012-08-10T15:32:46Z</time></trkpt><trkpt lat="57.4976814911" lon="-4.2259042896"><ele>40.03</ele><time>2012-08-10T15:32:49Z</time></trkpt><trkpt lat="57.4971983582" lon="-4.2248173244"><ele>36.19</ele><time>2012-08-10T15:32:52Z</time></trkpt><trkpt lat="57.4970375095" lon="-4.2244527955"><ele>35.71</ele><time>2012-08-10T15:32:53Z</time></trkpt><trkpt lat="57.4967120402" lon="-4.2237208877"><ele>32.82</ele><time>2012-08-10T15:32:55Z</time></trkpt><trkpt lat="57.4962197710" lon="-4.2226231936"><ele>29.46</ele><time>2012-08-10T15:32:58Z</time></trkpt><trkpt lat="57.4955842551" lon="-4.2212395929"><ele>25.13</ele><time>2012-08-10T15:33:02Z</time></trkpt><trkpt lat="57.4953057244" lon="-4.2206428852"><ele>20.81</ele><time>2012-08-10T15:33:04Z</time></trkpt><trkpt lat="57.4950511660" lon="-4.2201151606"><ele>17.44</ele><time>2012-08-10T15:33:06Z</time></trkpt><trkpt lat="57.4947019760" lon="-4.2194173671"><ele>14.08</ele><time>2012-08-10T15:33:09Z</time></trkpt><trkpt lat="57.4940595031" lon="-4.2182610836"><ele>10.23</ele><time>2012-08-10T15:33:15Z</time></trkpt><trkpt lat="57.4935130868" lon="-4.2174158525"><ele>8.31</ele><time>2012-08-10T15:33:23Z</time></trkpt><trkpt lat="57.4932778906" lon="-4.2170341406"><ele>7.35</ele><time>2012-08-10T15:33:33Z</time></trkpt><trkpt lat="57.4932568520" lon="-4.2170222383"><ele>7.35</ele><time>2012-08-10T15:33:43Z</time></trkpt><trkpt lat="57.4932098296" lon="-4.2169396766"><ele>7.83</ele><time>2012-08-10T15:33:49Z</time></trkpt><trkpt lat="57.4929326400" lon="-4.2165163904"><ele>7.83</ele><time>2012-08-10T15:33:56Z</time></trkpt><trkpt lat="57.4927627388" lon="-4.2162541207"><ele>7.35</ele><time>2012-08-10T15:34:01Z</time></trkpt><trkpt lat="57.4925642554" lon="-4.2159878276"><ele>7.35</ele><time>2012-08-10T15:34:12Z</time></trkpt><trkpt lat="57.4924077652" lon="-4.2157559842"><ele>7.35</ele><time>2012-08-10T15:34:20Z</time></trkpt><trkpt lat="57.4921498541" lon="-4.2153772060"><ele>6.87</ele><time>2012-08-10T15:34:28Z</time></trkpt><trkpt lat="57.4921014067" lon="-4.2152568419"><ele>6.87</ele><time>2012-08-10T15:34:42Z</time></trkpt><trkpt lat="57.4920842238" lon="-4.2151992582"><ele>6.87</ele><time>2012-08-10T15:34:43Z</time></trkpt><trkpt lat="57.4920211080" lon="-4.2149762157"><ele>7.35</ele><time>2012-08-10T15:34:45Z</time></trkpt><trkpt lat="57.4919452518" lon="-4.2146962602"><ele>6.87</ele><time>2012-08-10T15:34:47Z</time></trkpt><trkpt lat="57.4918862432" lon="-4.2145873792"><ele>7.35</ele><time>2012-08-10T15:34:48Z</time></trkpt><trkpt lat="57.4918061122" lon="-4.2145141214"><ele>7.83</ele><time>2012-08-10T15:34:49Z</time></trkpt><trkpt lat="57.4917149171" lon="-4.2144837789"><ele>8.31</ele><time>2012-08-10T15:34:50Z</time></trkpt><trkpt lat="57.4916181061" lon="-4.2145010456"><ele>7.83</ele><time>2012-08-10T15:34:51Z</time></trkpt><trkpt lat="57.4915295094" lon="-4.2145737167"><ele>7.83</ele><time>2012-08-10T15:34:52Z</time></trkpt><trkpt lat="57.4914590176" lon="-4.2146993615"><ele>7.83</ele><time>2012-08-10T15:34:53Z</time></trkpt><trkpt lat="57.4914111570" lon="-4.2148614675"><ele>7.35</ele><time>2012-08-10T15:34:54Z</time></trkpt><trkpt lat="57.4913831614" lon="-4.2150493897"><ele>6.87</ele><time>2012-08-10T15:34:55Z</time></trkpt><trkpt lat="57.4913674872" lon="-4.2152471188"><ele>6.87</ele><time>2012-08-10T15:34:56Z</time></trkpt><trkpt lat="57.4913522322" lon="-4.2154394835"><ele>6.87</ele><time>2012-08-10T15:34:57Z</time></trkpt><trkpt lat="57.4913206324" lon="-4.2156328540"><ele>6.87</ele><time>2012-08-10T15:34:58Z</time></trkpt><trkpt lat="57.4912628811" lon="-4.2158263084"><ele>7.35</ele><time>2012-08-10T15:34:59Z</time></trkpt><trkpt lat="57.4911822472" lon="-4.2160171643"><ele>7.83</ele><time>2012-08-10T15:35:00Z</time></trkpt><trkpt lat="57.4910957459" lon="-4.2162043322"><ele>7.35</ele><time>2012-08-10T15:35:01Z</time></trkpt><trkpt lat="57.4899572320" lon="-4.2180437408"><ele>6.39</ele><time>2012-08-10T15:35:12Z</time></trkpt><trkpt lat="57.4887860287" lon="-4.2189491540"><ele>5.91</ele><time>2012-08-10T15:35:22Z</time></trkpt><trkpt lat="57.4876651168" lon="-4.2195758689"><ele>4.94</ele><time>2012-08-10T15:35:34Z</time></trkpt><trkpt lat="57.4864334799" lon="-4.2202877440"><ele>6.39</ele><time>2012-08-10T15:35:49Z</time></trkpt><trkpt lat="57.4861480761" lon="-4.2204267159"><ele>6.39</ele><time>2012-08-10T15:35:56Z</time></trkpt><trkpt lat="57.4859864730" lon="-4.2204465810"><ele>6.87</ele><time>2012-08-10T15:36:10Z</time></trkpt><trkpt lat="57.4857724831" lon="-4.2203815375"><ele>7.83</ele><time>2012-08-10T15:36:13Z</time></trkpt><trkpt lat="57.4856930226" lon="-4.2204086948"><ele>7.83</ele><time>2012-08-10T15:36:14Z</time></trkpt><trkpt lat="57.4856221117" lon="-4.2204888258"><ele>7.83</ele><time>2012-08-10T15:36:15Z</time></trkpt><trkpt lat="57.4855651148" lon="-4.2206094414"><ele>7.35</ele><time>2012-08-10T15:36:16Z</time></trkpt><trkpt lat="57.4855116382" lon="-4.2207316495"><ele>7.35</ele><time>2012-08-10T15:36:17Z</time></trkpt><trkpt lat="57.4854487740" lon="-4.2208209168"><ele>7.35</ele><time>2012-08-10T15:36:18Z</time></trkpt><trkpt lat="57.4853825569" lon="-4.2208817694"><ele>7.83</ele><time>2012-08-10T15:36:19Z</time></trkpt><trkpt lat="57.4853176810" lon="-4.2209313065"><ele>7.83</ele><time>2012-08-10T15:36:20Z</time></trkpt><trkpt lat="57.4847218953" lon="-4.2213606276"><ele>7.35</ele><time>2012-08-10T15:36:32Z</time></trkpt><trkpt lat="57.4845724460" lon="-4.2214722745"><ele>8.31</ele><time>2012-08-10T15:36:41Z</time></trkpt><trkpt lat="57.4840194918" lon="-4.2218973208"><ele>10.23</ele><time>2012-08-10T15:36:51Z</time></trkpt><trkpt lat="57.4838316534" lon="-4.2220751848"><ele>10.71</ele><time>2012-08-10T15:36:53Z</time></trkpt><trkpt lat="57.4835157394" lon="-4.2224565614"><ele>10.71</ele><time>2012-08-10T15:36:58Z</time></trkpt><trkpt lat="57.4834366143" lon="-4.2225842178"><ele>11.19</ele><time>2012-08-10T15:36:59Z</time></trkpt><trkpt lat="57.4833404738" lon="-4.2227164842"><ele>12.15</ele><time>2012-08-10T15:37:00Z</time></trkpt><trkpt lat="57.4828949757" lon="-4.2232897226"><ele>15.52</ele><time>2012-08-10T15:37:04Z</time></trkpt><trkpt lat="57.4828020204" lon="-4.2234419379"><ele>15.52</ele><time>2012-08-10T15:37:05Z</time></trkpt><trkpt lat="57.4826448597" lon="-4.2237583548"><ele>16.48</ele><time>2012-08-10T15:37:07Z</time></trkpt><trkpt lat="57.4825208914" lon="-4.2241107300"><ele>18.40</ele><time>2012-08-10T15:37:09Z</time></trkpt><trkpt lat="57.4824690074" lon="-4.2243044358"><ele>18.88</ele><time>2012-08-10T15:37:10Z</time></trkpt><trkpt lat="57.4821849447" lon="-4.2255668342"><ele>15.52</ele><time>2012-08-10T15:37:17Z</time></trkpt><trkpt lat="57.4820850324" lon="-4.2260508891"><ele>12.63</ele><time>2012-08-10T15:37:21Z</time></trkpt><trkpt lat="57.4819919094" lon="-4.2263538111"><ele>12.63</ele><time>2012-08-10T15:37:25Z</time></trkpt><trkpt lat="57.4819726311" lon="-4.2264903523"><ele>12.63</ele><time>2012-08-10T15:37:26Z</time></trkpt><trkpt lat="57.4819737207" lon="-4.2266450822"><ele>13.12</ele><time>2012-08-10T15:37:27Z</time></trkpt><trkpt lat="57.4819753971" lon="-4.2268198449"><ele>13.60</ele><time>2012-08-10T15:37:28Z</time></trkpt><trkpt lat="57.4819778278" lon="-4.2270002235"><ele>13.60</ele><time>2012-08-10T15:37:29Z</time></trkpt><trkpt lat="57.4819912389" lon="-4.2271853797"><ele>13.60</ele><time>2012-08-10T15:37:30Z</time></trkpt><trkpt lat="57.4820154626" lon="-4.2273777444"><ele>13.60</ele><time>2012-08-10T15:37:31Z</time></trkpt><trkpt lat="57.4820471462" lon="-4.2275726236"><ele>13.60</ele><time>2012-08-10T15:37:32Z</time></trkpt><trkpt lat="57.4820852000" lon="-4.2277669162"><ele>13.12</ele><time>2012-08-10T15:37:33Z</time></trkpt><trkpt lat="57.4821323901" lon="-4.2279605381"><ele>12.63</ele><time>2012-08-10T15:37:34Z</time></trkpt><trkpt lat="57.4821840227" lon="-4.2281528190"><ele>12.63</ele><time>2012-08-10T15:37:35Z</time></trkpt><trkpt lat="57.4824809097" lon="-4.2292764969"><ele>9.75</ele><time>2012-08-10T15:37:41Z</time></trkpt><trkpt lat="57.4825733621" lon="-4.2297106795"><ele>6.87</ele><time>2012-08-10T15:37:45Z</time></trkpt><trkpt lat="57.4825829174" lon="-4.2301875260"><ele>6.39</ele><time>2012-08-10T15:37:55Z</time></trkpt><trkpt lat="57.4825633038" lon="-4.2302500550"><ele>5.91</ele><time>2012-08-10T15:37:56Z</time></trkpt><trkpt lat="57.4825326260" lon="-4.2303170264"><ele>6.39</ele><time>2012-08-10T15:37:57Z</time></trkpt><trkpt lat="57.4824651517" lon="-4.2304815631"><ele>6.87</ele><time>2012-08-10T15:37:59Z</time></trkpt><trkpt lat="57.4824452028" lon="-4.2305683997"><ele>6.39</ele><time>2012-08-10T15:38:00Z</time></trkpt><trkpt lat="57.4824351445" lon="-4.2306348681"><ele>5.91</ele><time>2012-08-10T15:38:01Z</time></trkpt><trkpt lat="57.4824306183" lon="-4.2306807172"><ele>5.91</ele><time>2012-08-10T15:38:02Z</time></trkpt><trkpt lat="57.4824263435" lon="-4.2307735886"><ele>6.39</ele><time>2012-08-10T15:38:14Z</time></trkpt><trkpt lat="57.4824074004" lon="-4.2308294959"><ele>6.39</ele><time>2012-08-10T15:38:15Z</time></trkpt><trkpt lat="57.4823777284" lon="-4.2308854870"><ele>6.39</ele><time>2012-08-10T15:38:16Z</time></trkpt><trkpt lat="57.4823467154" lon="-4.2309356946"><ele>6.39</ele><time>2012-08-10T15:38:17Z</time></trkpt><trkpt lat="57.4823129363" lon="-4.2309892550"><ele>6.87</ele><time>2012-08-10T15:38:18Z</time></trkpt><trkpt lat="57.4822722841" lon="-4.2310608365"><ele>6.87</ele><time>2012-08-10T15:38:19Z</time></trkpt><trkpt lat="57.4819054082" lon="-4.2320489790"><ele>9.27</ele><time>2012-08-10T15:38:26Z</time></trkpt><trkpt lat="57.4815338384" lon="-4.2333047558"><ele>12.15</ele><time>2012-08-10T15:38:33Z</time></trkpt><trkpt lat="57.4814750813" lon="-4.2335003056"><ele>12.63</ele><time>2012-08-10T15:38:34Z</time></trkpt><trkpt lat="57.4809250608" lon="-4.2353884969"><ele>9.75</ele><time>2012-08-10T15:38:44Z</time></trkpt><trkpt lat="57.4806191213" lon="-4.2369214632"><ele>7.35</ele><time>2012-08-10T15:38:53Z</time></trkpt><trkpt lat="57.4805777986" lon="-4.2370398156"><ele>7.35</ele><time>2012-08-10T15:38:54Z</time></trkpt><trkpt lat="57.4805322848" lon="-4.2371319328"><ele>6.87</ele><time>2012-08-10T15:38:55Z</time></trkpt><trkpt lat="57.4804827478" lon="-4.2371874209"><ele>7.83</ele><time>2012-08-10T15:38:56Z</time></trkpt><trkpt lat="57.4804368988" lon="-4.2372195236"><ele>7.35</ele><time>2012-08-10T15:38:57Z</time></trkpt><trkpt lat="57.4803921394" lon="-4.2372275703"><ele>7.35</ele><time>2012-08-10T15:38:58Z</time></trkpt><trkpt lat="57.4803469609" lon="-4.2372073699"><ele>7.83</ele><time>2012-08-10T15:38:59Z</time></trkpt><trkpt lat="57.4803063087" lon="-4.2371790390"><ele>7.83</ele><time>2012-08-10T15:39:00Z</time></trkpt><trkpt lat="57.4802653212" lon="-4.2371465173"><ele>7.35</ele><time>2012-08-10T15:39:01Z</time></trkpt><trkpt lat="57.4802142754" lon="-4.2371215392"><ele>7.35</ele><time>2012-08-10T15:39:02Z</time></trkpt><trkpt lat="57.4801579490" lon="-4.2371215392"><ele>8.31</ele><time>2012-08-10T15:39:03Z</time></trkpt><trkpt lat="57.4801015388" lon="-4.2371442541"><ele>7.83</ele><time>2012-08-10T15:39:04Z</time></trkpt><trkpt lat="57.4800473079" lon="-4.2371655442"><ele>7.83</ele><time>2012-08-10T15:39:05Z</time></trkpt><trkpt lat="57.4799957592" lon="-4.2371635325"><ele>7.83</ele><time>2012-08-10T15:39:06Z</time></trkpt><trkpt lat="57.4799473956" lon="-4.2371340282"><ele>7.35</ele><time>2012-08-10T15:39:07Z</time></trkpt><trkpt lat="57.4799051508" lon="-4.2370829824"><ele>7.35</ele><time>2012-08-10T15:39:08Z</time></trkpt><trkpt lat="57.4798653368" lon="-4.2370200343"><ele>7.35</ele><time>2012-08-10T15:39:09Z</time></trkpt><trkpt lat="57.4798246846" lon="-4.2369497102"><ele>7.83</ele><time>2012-08-10T15:39:10Z</time></trkpt><trkpt lat="57.4792698864" lon="-4.2360138707"><ele>8.31</ele><time>2012-08-10T15:39:22Z</time></trkpt><trkpt lat="57.4786809739" lon="-4.2350465152"><ele>8.79</ele><time>2012-08-10T15:39:32Z</time></trkpt><trkpt lat="57.4777023867" lon="-4.2334264610"><ele>8.79</ele><time>2012-08-10T15:39:46Z</time></trkpt><trkpt lat="57.4766643718" lon="-4.2316732183"><ele>9.27</ele><time>2012-08-10T15:40:01Z</time></trkpt><trkpt lat="57.4763782974" lon="-4.2312221043"><ele>7.83</ele><time>2012-08-10T15:40:09Z</time></trkpt><trkpt lat="57.4763699155" lon="-4.2312631756"><ele>8.79</ele><time>2012-08-10T15:40:28Z</time></trkpt><trkpt lat="57.4762254115" lon="-4.2310182564"><ele>8.79</ele><time>2012-08-10T15:40:41Z</time></trkpt><trkpt lat="57.4760494754" lon="-4.2307543941"><ele>8.79</ele><time>2012-08-10T15:40:45Z</time></trkpt><trkpt lat="57.4760024529" lon="-4.2307318468"><ele>8.31</ele><time>2012-08-10T15:40:46Z</time></trkpt><trkpt lat="57.4759593699" lon="-4.2307539750"><ele>8.79</ele><time>2012-08-10T15:40:47Z</time></trkpt><trkpt lat="57.4759216513" lon="-4.2308140732"><ele>8.79</ele><time>2012-08-10T15:40:48Z</time></trkpt><trkpt lat="57.4758863635" lon="-4.2308879178"><ele>8.79</ele><time>2012-08-10T15:40:49Z</time></trkpt><trkpt lat="57.4758062325" lon="-4.2310544662"><ele>7.83</ele><time>2012-08-10T15:40:56Z</time></trkpt><trkpt lat="57.4757977668" lon="-4.2310825456"><ele>8.31</ele><time>2012-08-10T15:41:22Z</time></trkpt><trkpt lat="57.4757894687" lon="-4.2310770135"><ele>8.79</ele><time>2012-08-10T15:41:45Z</time></trkpt><trkpt lat="57.4757861998" lon="-4.2310801148"><ele>9.27</ele><time>2012-08-10T15:42:11Z</time></trkpt><trkpt lat="57.4757892173" lon="-4.2310869042"><ele>8.31</ele><time>2012-08-10T15:42:43Z</time></trkpt><trkpt lat="57.4757896364" lon="-4.2310852278"><ele>8.79</ele><time>2012-08-10T15:43:06Z</time></trkpt><trkpt lat="57.4758031312" lon="-4.2310915142"><ele>9.27</ele><time>2012-08-10T15:43:33Z</time></trkpt><trkpt lat="57.4758253433" lon="-4.2311191745"><ele>9.27</ele><time>2012-08-10T15:43:36Z</time></trkpt><trkpt lat="57.4758435320" lon="-4.2311174981"><ele>9.27</ele><time>2012-08-10T15:43:37Z</time></trkpt><trkpt lat="57.4758741260" lon="-4.2310895026"><ele>9.27</ele><time>2012-08-10T15:43:38Z</time></trkpt><trkpt lat="57.4759125989" lon="-4.2310262192"><ele>9.27</ele><time>2012-08-10T15:43:39Z</time></trkpt><trkpt lat="57.4759586155" lon="-4.2309315037"><ele>9.75</ele><time>2012-08-10T15:43:40Z</time></trkpt><trkpt lat="57.4765125755" lon="-4.2297433689"><ele>8.79</ele><time>2012-08-10T15:43:50Z</time></trkpt><trkpt lat="57.4766669702" lon="-4.2291195877"><ele>8.31</ele><time>2012-08-10T15:43:57Z</time></trkpt><trkpt lat="57.4766781181" lon="-4.2290157359"><ele>8.79</ele><time>2012-08-10T15:44:09Z</time></trkpt><trkpt lat="57.4766910262" lon="-4.2289469205"><ele>8.79</ele><time>2012-08-10T15:44:10Z</time></trkpt><trkpt lat="57.4769366160" lon="-4.2277521640"><ele>11.67</ele><time>2012-08-10T15:44:21Z</time></trkpt><trkpt lat="57.4770252127" lon="-4.2273390200"><ele>11.19</ele><time>2012-08-10T15:44:28Z</time></trkpt><trkpt lat="57.4770242069" lon="-4.2273366731"><ele>10.71</ele><time>2012-08-10T15:44:55Z</time></trkpt><trkpt lat="57.4770275597" lon="-4.2272168119"><ele>10.71</ele><time>2012-08-10T15:45:27Z</time></trkpt><trkpt lat="57.4770301580" lon="-4.2271816917"><ele>10.71</ele><time>2012-08-10T15:45:36Z</time></trkpt><trkpt lat="57.4771622568" lon="-4.2265605927"><ele>11.67</ele><time>2012-08-10T15:45:42Z</time></trkpt><trkpt lat="57.4774535280" lon="-4.2254399322"><ele>14.56</ele><time>2012-08-10T15:45:52Z</time></trkpt><trkpt lat="57.4775831122" lon="-4.2249699589"><ele>15.04</ele><time>2012-08-10T15:45:58Z</time></trkpt><trkpt lat="57.4775899015" lon="-4.2248933483"><ele>15.04</ele><time>2012-08-10T15:45:59Z</time></trkpt><trkpt lat="57.4775801785" lon="-4.2248164024"><ele>15.52</ele><time>2012-08-10T15:46:00Z</time></trkpt><trkpt lat="57.4775553681" lon="-4.2247568071"><ele>15.52</ele><time>2012-08-10T15:46:01Z</time></trkpt><trkpt lat="57.4775210861" lon="-4.2247186694"><ele>15.52</ele><time>2012-08-10T15:46:02Z</time></trkpt><trkpt lat="57.4774821941" lon="-4.2246843874"><ele>15.52</ele><time>2012-08-10T15:46:03Z</time></trkpt><trkpt lat="57.4771677889" lon="-4.2244108859"><ele>16.00</ele><time>2012-08-10T15:46:09Z</time></trkpt><trkpt lat="57.4770730734" lon="-4.2243641987"><ele>16.00</ele><time>2012-08-10T15:46:11Z</time></trkpt><trkpt lat="57.4770309124" lon="-4.2243546434"><ele>16.00</ele><time>2012-08-10T15:46:12Z</time></trkpt><trkpt lat="57.4769556429" lon="-4.2243674677"><ele>16.00</ele><time>2012-08-10T15:46:20Z</time></trkpt><trkpt lat="57.4769097939" lon="-4.2244113050"><ele>16.48</ele><time>2012-08-10T15:46:44Z</time></trkpt><trkpt lat="57.4769023340" lon="-4.2244143225"><ele>16.96</ele><time>2012-08-10T15:46:47Z</time></trkpt><trkpt lat="57.4768811278" lon="-4.2244216148"><ele>16.48</ele><time>2012-08-10T15:46:48Z</time></trkpt><trkpt lat="57.4768533837" lon="-4.2244231235"><ele>16.96</ele><time>2012-08-10T15:46:49Z</time></trkpt><trkpt lat="57.4768290762" lon="-4.2244176753"><ele>16.96</ele><time>2012-08-10T15:46:50Z</time></trkpt><trkpt lat="57.4768104684" lon="-4.2244100478"><ele>16.96</ele><time>2012-08-10T15:46:51Z</time></trkpt><trkpt lat="57.4768131506" lon="-4.2244025879"><ele>16.48</ele><time>2012-08-10T15:47:03Z</time></trkpt><trkpt lat="57.4765937123" lon="-4.2244202737"><ele>17.92</ele><time>2012-08-10T15:47:15Z</time></trkpt><trkpt lat="57.4762262497" lon="-4.2245841399"><ele>19.84</ele><time>2012-08-10T15:47:22Z</time></trkpt><trkpt lat="57.4761958234" lon="-4.2246283125"><ele>19.84</ele><time>2012-08-10T15:47:23Z</time></trkpt><trkpt lat="57.4761798978" lon="-4.2246809509"><ele>19.84</ele><time>2012-08-10T15:47:24Z</time></trkpt><trkpt lat="57.4761683308" lon="-4.2247170769"><ele>19.84</ele><time>2012-08-10T15:47:25Z</time></trkpt><trkpt lat="57.4761531595" lon="-4.2247281410"><ele>19.84</ele><time>2012-08-10T15:47:26Z</time></trkpt><trkpt lat="57.4761817418" lon="-4.2247012351"><ele>19.84</ele><time>2012-08-10T15:47:38Z</time></trkpt><trkpt lat="57.4761647265" lon="-4.2246877402"><ele>19.84</ele><time>2012-08-10T15:47:49Z</time></trkpt><trkpt lat="57.4761726055" lon="-4.2246634327"><ele>19.84</ele><time>2012-08-10T15:48:11Z</time></trkpt><trkpt lat="57.4761700910" lon="-4.2246372811"><ele>19.84</ele><time>2012-08-10T15:48:32Z</time></trkpt><trkpt lat="57.4761792272" lon="-4.2246701382"><ele>13.12</ele><time>2012-08-10T15:49:00Z</time></trkpt><trkpt lat="57.4761783890" lon="-4.2246727366"><ele>20.32</ele><time>2012-08-10T15:49:01Z</time></trkpt><trkpt lat="57.4761799816" lon="-4.2246760055"><ele>22.25</ele><time>2012-08-10T15:49:03Z</time></trkpt><trkpt lat="57.4761863519" lon="-4.2246814538"><ele>18.88</ele><time>2012-08-10T15:49:07Z</time></trkpt><trkpt lat="57.4761864357" lon="-4.2247264646"><ele>17.92</ele><time>2012-08-10T15:49:27Z</time></trkpt><trkpt lat="57.4761771318" lon="-4.2247266322"><ele>19.36</ele><time>2012-08-10T15:49:29Z</time></trkpt><trkpt lat="57.4761830829" lon="-4.2246999778"><ele>19.84</ele><time>2012-08-10T15:49:46Z</time></trkpt><trkpt lat="57.4761322048" lon="-4.2246625107"><ele>19.84</ele><time>2012-08-10T15:50:04Z</time></trkpt><trkpt lat="57.4760011956" lon="-4.2247886583"><ele>20.81</ele><time>2012-08-10T15:50:19Z</time></trkpt><trkpt lat="57.4759117607" lon="-4.2248502653"><ele>21.29</ele><time>2012-08-10T15:50:26Z</time></trkpt><trkpt lat="57.4759006966" lon="-4.2248597369"><ele>21.29</ele><time>2012-08-10T15:50:27Z</time></trkpt><trkpt lat="57.4757782370" lon="-4.2249435559"><ele>21.29</ele><time>2012-08-10T15:50:40Z</time></trkpt><trkpt lat="57.4756110180" lon="-4.2250337452"><ele>21.77</ele><time>2012-08-10T15:50:55Z</time></trkpt><trkpt lat="57.4754493311" lon="-4.2251143791"><ele>22.25</ele><time>2012-08-10T15:51:11Z</time></trkpt><trkpt lat="57.4754130375" lon="-4.2251219228"><ele>22.73</ele><time>2012-08-10T15:51:26Z</time></trkpt><trkpt lat="57.4753622431" lon="-4.2250898201"><ele>21.77</ele><time>2012-08-10T15:51:38Z</time></trkpt><trkpt lat="57.4753220100" lon="-4.2251092661"><ele>21.77</ele><time>2012-08-10T15:51:42Z</time></trkpt><trkpt lat="57.4752255343" lon="-4.2250983696"><ele>22.73</ele><time>2012-08-10T15:51:55Z</time></trkpt><trkpt lat="57.4750984646" lon="-4.2250517663"><ele>24.17</ele><time>2012-08-10T15:52:09Z</time></trkpt><trkpt lat="57.4750853051" lon="-4.2249988765"><ele>24.65</ele><time>2012-08-10T15:52:22Z</time></trkpt><trkpt lat="57.4751005601" lon="-4.2250614893"><ele>24.65</ele><time>2012-08-10T15:52:37Z</time></trkpt><trkpt lat="57.4751388654" lon="-4.2250456475"><ele>23.21</ele><time>2012-08-10T15:52:47Z</time></trkpt><trkpt lat="57.4751491752" lon="-4.2250552867"><ele>23.21</ele><time>2012-08-10T15:52:48Z</time></trkpt><trkpt lat="57.4751645140" lon="-4.2250614893"><ele>23.69</ele><time>2012-08-10T15:52:49Z</time></trkpt><trkpt lat="57.4751795176" lon="-4.2250639200"><ele>23.21</ele><time>2012-08-10T15:52:50Z</time></trkpt><trkpt lat="57.4753267039" lon="-4.2250299733"><ele>23.21</ele><time>2012-08-10T15:53:06Z</time></trkpt><trkpt lat="57.4753908254" lon="-4.2250007205"><ele>23.21</ele><time>2012-08-10T15:53:25Z</time></trkpt><trkpt lat="57.4755650014" lon="-4.2248814460"><ele>22.25</ele><time>2012-08-10T15:53:42Z</time></trkpt><trkpt lat="57.4756446294" lon="-4.2248497624"><ele>22.25</ele><time>2012-08-10T15:53:50Z</time></trkpt><trkpt lat="57.4756559450" lon="-4.2248378601"><ele>22.25</ele><time>2012-08-10T15:53:51Z</time></trkpt><trkpt lat="57.4757971801" lon="-4.2247874010"><ele>21.29</ele><time>2012-08-10T15:54:04Z</time></trkpt><trkpt lat="57.4760491401" lon="-4.2247397918"><ele>21.77</ele><time>2012-08-10T15:54:22Z</time></trkpt><trkpt lat="57.4761271756" lon="-4.2247025762"><ele>21.29</ele><time>2012-08-10T15:54:30Z</time></trkpt><trkpt lat="57.4761405028" lon="-4.2246941105"><ele>21.77</ele><time>2012-08-10T15:54:31Z</time></trkpt><trkpt lat="57.4761568476" lon="-4.2246725690"><ele>21.77</ele><time>2012-08-10T15:54:32Z</time></trkpt><trkpt lat="57.4762013555" lon="-4.2245667893"><ele>21.29</ele><time>2012-08-10T15:54:38Z</time></trkpt><trkpt lat="57.4762081448" lon="-4.2245471757"><ele>21.29</ele><time>2012-08-10T15:54:39Z</time></trkpt><trkpt lat="57.4762969092" lon="-4.2244482692"><ele>20.81</ele><time>2012-08-10T15:54:47Z</time></trkpt><trkpt lat="57.4764009286" lon="-4.2244458385"><ele>19.36</ele><time>2012-08-10T15:54:56Z</time></trkpt><trkpt lat="57.4764080532" lon="-4.2244517896"><ele>19.84</ele><time>2012-08-10T15:54:57Z</time></trkpt><trkpt lat="57.4764316902" lon="-4.2244391330"><ele>19.84</ele><time>2012-08-10T15:54:59Z</time></trkpt><trkpt lat="57.4764456041" lon="-4.2244273983"><ele>20.32</ele><time>2012-08-10T15:55:00Z</time></trkpt><trkpt lat="57.4765414931" lon="-4.2244284879"><ele>19.36</ele><time>2012-08-10T15:55:09Z</time></trkpt><trkpt lat="57.4765516352" lon="-4.2244214471"><ele>19.84</ele><time>2012-08-10T15:55:10Z</time></trkpt><trkpt lat="57.4766651262" lon="-4.2243590858"><ele>18.88</ele><time>2012-08-10T15:55:18Z</time></trkpt><trkpt lat="57.4766978994" lon="-4.2243641149"><ele>18.40</ele><time>2012-08-10T15:55:22Z</time></trkpt><trkpt lat="57.4767100532" lon="-4.2243604269"><ele>18.88</ele><time>2012-08-10T15:55:23Z</time></trkpt><trkpt lat="57.4767237995" lon="-4.2243570741"><ele>18.40</ele><time>2012-08-10T15:55:24Z</time></trkpt><trkpt lat="57.4767627753" lon="-4.2243702337"><ele>17.92</ele><time>2012-08-10T15:55:29Z</time></trkpt><trkpt lat="57.4767850712" lon="-4.2243817169"><ele>17.92</ele><time>2012-08-10T15:55:32Z</time></trkpt><trkpt lat="57.4767985661" lon="-4.2243771069"><ele>18.40</ele><time>2012-08-10T15:55:33Z</time></trkpt><trkpt lat="57.4768150784" lon="-4.2243723292"><ele>18.40</ele><time>2012-08-10T15:55:34Z</time></trkpt><trkpt lat="57.4768276513" lon="-4.2243689764"><ele>17.92</ele><time>2012-08-10T15:55:35Z</time></trkpt><trkpt lat="57.4768371228" lon="-4.2243679706"><ele>17.92</ele><time>2012-08-10T15:55:36Z</time></trkpt><trkpt lat="57.4768999033" lon="-4.2244439106"><ele>17.92</ele><time>2012-08-10T15:55:47Z</time></trkpt><trkpt lat="57.4771358538" lon="-4.2243968043"><ele>17.44</ele><time>2012-08-10T15:55:59Z</time></trkpt><trkpt lat="57.4771729019" lon="-4.2244183458"><ele>17.44</ele><time>2012-08-10T15:56:03Z</time></trkpt><trkpt lat="57.4773384444" lon="-4.2245802004"><ele>17.44</ele><time>2012-08-10T15:56:17Z</time></trkpt><trkpt lat="57.4774579704" lon="-4.2247429769"><ele>16.48</ele><time>2012-08-10T15:56:31Z</time></trkpt><trkpt lat="57.4774831161" lon="-4.2247718945"><ele>16.96</ele><time>2012-08-10T15:56:34Z</time></trkpt><trkpt lat="57.4775535241" lon="-4.2247448210"><ele>16.96</ele><time>2012-08-10T15:56:40Z</time></trkpt><trkpt lat="57.4775579665" lon="-4.2247542087"><ele>16.96</ele><time>2012-08-10T15:56:52Z</time></trkpt><trkpt lat="57.4774639215" lon="-4.2247612495"><ele>16.48</ele><time>2012-08-10T15:57:07Z</time></trkpt><trkpt lat="57.4774860498" lon="-4.2248506844"><ele>16.48</ele><time>2012-08-10T15:57:16Z</time></trkpt><trkpt lat="57.4775019754" lon="-4.2248898279"><ele>16.96</ele><time>2012-08-10T15:57:17Z</time></trkpt><trkpt lat="57.4775143806" lon="-4.2249243613"><ele>16.96</ele><time>2012-08-10T15:57:18Z</time></trkpt><trkpt lat="57.4775318988" lon="-4.2250914127"><ele>16.48</ele><time>2012-08-10T15:57:25Z</time></trkpt><trkpt lat="57.4775266182" lon="-4.2252583802"><ele>16.96</ele><time>2012-08-10T15:57:37Z</time></trkpt><trkpt lat="57.4773816112" lon="-4.2254041415"><ele>16.96</ele><time>2012-08-10T15:57:47Z</time></trkpt><trkpt lat="57.4773747381" lon="-4.2254102603"><ele>16.00</ele><time>2012-08-10T15:57:57Z</time></trkpt><trkpt lat="57.4773197528" lon="-4.2253589630"><ele>17.44</ele><time>2012-08-10T15:58:12Z</time></trkpt><trkpt lat="57.4772884045" lon="-4.2253940832"><ele>18.88</ele><time>2012-08-10T15:58:23Z</time></trkpt><trkpt lat="57.4772792682" lon="-4.2254442070"><ele>19.36</ele><time>2012-08-10T15:58:39Z</time></trkpt><trkpt lat="57.4771715607" lon="-4.2254538462"><ele>19.36</ele><time>2012-08-10T15:59:00Z</time></trkpt><trkpt lat="57.4771235324" lon="-4.2252123635"><ele>18.88</ele><time>2012-08-10T15:59:24Z</time></trkpt><trkpt lat="57.4771993887" lon="-4.2252289597"><ele>18.88</ele><time>2012-08-10T15:59:42Z</time></trkpt><trkpt lat="57.4772120453" lon="-4.2255112622"><ele>18.88</ele><time>2012-08-10T16:00:06Z</time></trkpt><trkpt lat="57.4774902407" lon="-4.2252953444"><ele>18.40</ele><time>2012-08-10T16:00:31Z</time></trkpt></trkseg><trkseg><trkpt lat="57.4771569762" lon="-4.2257022858"><ele>19.84</ele><time>2012-08-10T16:12:54Z</time></trkpt><trkpt lat="57.4772270489" lon="-4.2256872822"><ele>19.36</ele><time>2012-08-10T16:13:30Z</time></trkpt><trkpt lat="57.4772465788" lon="-4.2256860249"><ele>19.84</ele><time>2012-08-10T16:13:58Z</time></trkpt><trkpt lat="57.4772267975" lon="-4.2256276868"><ele>19.84</ele><time>2012-08-10T16:14:30Z</time></trkpt><trkpt lat="57.4772275519" lon="-4.2256523296"><ele>19.84</ele><time>2012-08-10T16:15:01Z</time></trkpt><trkpt lat="57.4772604089" lon="-4.2256322969"><ele>19.84</ele><time>2012-08-10T16:15:28Z</time></trkpt><trkpt lat="57.4772167392" lon="-4.2256144434"><ele>19.84</ele><time>2012-08-10T16:15:50Z</time></trkpt><trkpt lat="57.4772033282" lon="-4.2257901281"><ele>19.84</ele><time>2012-08-10T16:16:15Z</time></trkpt><trkpt lat="57.4772029091" lon="-4.2258365639"><ele>19.36</ele><time>2012-08-10T16:16:41Z</time></trkpt></trkseg><trkseg><trkpt lat="57.4771977123" lon="-4.2263725027"><ele>19.36</ele><time>2012-08-10T16:17:09Z</time></trkpt><trkpt lat="57.4771752488" lon="-4.2259940598"><ele>19.84</ele><time>2012-08-10T16:17:36Z</time></trkpt><trkpt lat="57.4772171583" lon="-4.2258437723"><ele>19.36</ele><time>2012-08-10T16:18:03Z</time></trkpt><trkpt lat="57.4772671144" lon="-4.2256957479"><ele>19.84</ele><time>2012-08-10T16:18:22Z</time></trkpt><trkpt lat="57.4771902524" lon="-4.2258602008"><ele>19.84</ele><time>2012-08-10T16:19:08Z</time></trkpt><trkpt lat="57.4772337545" lon="-4.2258773837"><ele>19.36</ele><time>2012-08-10T16:19:41Z</time></trkpt><trkpt lat="57.4772112910" lon="-4.2259514797"><ele>20.32</ele><time>2012-08-10T16:20:01Z</time></trkpt><trkpt lat="57.4772594869" lon="-4.2259243224"><ele>19.84</ele><time>2012-08-10T16:20:18Z</time></trkpt><trkpt lat="57.4773320742" lon="-4.2258087359"><ele>19.84</ele><time>2012-08-10T16:20:34Z</time></trkpt><trkpt lat="57.4774499238" lon="-4.2253055703"><ele>20.32</ele><time>2012-08-10T16:20:53Z</time></trkpt><trkpt lat="57.4773697089" lon="-4.2253280338"><ele>19.84</ele><time>2012-08-10T16:21:05Z</time></trkpt><trkpt lat="57.4773756601" lon="-4.2253914010"><ele>17.44</ele><time>2012-08-10T16:21:19Z</time></trkpt><trkpt lat="57.4773650151" lon="-4.2253701948"><ele>17.44</ele><time>2012-08-10T16:21:25Z</time></trkpt><trkpt lat="57.4774955213" lon="-4.2250743974"><ele>17.44</ele><time>2012-08-10T16:21:42Z</time></trkpt><trkpt lat="57.4774555396" lon="-4.2248130497"><ele>17.92</ele><time>2012-08-10T16:21:52Z</time></trkpt><trkpt lat="57.4773058388" lon="-4.2245633528"><ele>18.40</ele><time>2012-08-10T16:22:10Z</time></trkpt><trkpt lat="57.4770607520" lon="-4.2244229559"><ele>18.88</ele><time>2012-08-10T16:22:31Z</time></trkpt><trkpt lat="57.4769576546" lon="-4.2244295776"><ele>19.36</ele><time>2012-08-10T16:22:41Z</time></trkpt><trkpt lat="57.4767750129" lon="-4.2244380433"><ele>19.84</ele><time>2012-08-10T16:23:00Z</time></trkpt><trkpt lat="57.4764844961" lon="-4.2245289031"><ele>22.25</ele><time>2012-08-10T16:23:24Z</time></trkpt><trkpt lat="57.4763547443" lon="-4.2246195115"><ele>22.73</ele><time>2012-08-10T16:23:37Z</time></trkpt><trkpt lat="57.4762353860" lon="-4.2246690486"><ele>22.25</ele><time>2012-08-10T16:23:47Z</time></trkpt><trkpt lat="57.4762062170" lon="-4.2246996425"><ele>25.61</ele><time>2012-08-10T16:23:54Z</time></trkpt><trkpt lat="57.4762051273" lon="-4.2246981338"><ele>23.21</ele><time>2012-08-10T16:23:55Z</time></trkpt><trkpt lat="57.4761891179" lon="-4.2246822920"><ele>23.21</ele><time>2012-08-10T16:24:22Z</time></trkpt><trkpt lat="57.4761770479" lon="-4.2246905062"><ele>23.69</ele><time>2012-08-10T16:24:49Z</time></trkpt><trkpt lat="57.4761841726" lon="-4.2246640194"><ele>23.21</ele><time>2012-08-10T16:25:11Z</time></trkpt><trkpt lat="57.4761744495" lon="-4.2246404663"><ele>23.69</ele><time>2012-08-10T16:25:12Z</time></trkpt><trkpt lat="57.4761465378" lon="-4.2246200982"><ele>23.69</ele><time>2012-08-10T16:25:13Z</time></trkpt><trkpt lat="57.4761002697" lon="-4.2246210203"><ele>23.69</ele><time>2012-08-10T16:25:14Z</time></trkpt><trkpt lat="57.4760428537" lon="-4.2246384546"><ele>24.17</ele><time>2012-08-10T16:25:15Z</time></trkpt><trkpt lat="57.4759835936" lon="-4.2246749159"><ele>24.17</ele><time>2012-08-10T16:25:16Z</time></trkpt><trkpt lat="57.4759244174" lon="-4.2247193400"><ele>24.17</ele><time>2012-08-10T16:25:17Z</time></trkpt><trkpt lat="57.4756686017" lon="-4.2248555459"><ele>25.13</ele><time>2012-08-10T16:25:21Z</time></trkpt><trkpt lat="57.4756147899" lon="-4.2248767521"><ele>25.13</ele><time>2012-08-10T16:25:22Z</time></trkpt><trkpt lat="57.4751867261" lon="-4.2250413727"><ele>26.09</ele><time>2012-08-10T16:25:29Z</time></trkpt><trkpt lat="57.4751207605" lon="-4.2250366788"><ele>26.57</ele><time>2012-08-10T16:25:30Z</time></trkpt><trkpt lat="57.4750529509" lon="-4.2250179872"><ele>26.57</ele><time>2012-08-10T16:25:31Z</time></trkpt><trkpt lat="57.4747429881" lon="-4.2248941027"><ele>29.94</ele><time>2012-08-10T16:25:35Z</time></trkpt><trkpt lat="57.4744631164" lon="-4.2248016503"><ele>32.34</ele><time>2012-08-10T16:25:41Z</time></trkpt><trkpt lat="57.4743186962" lon="-4.2247268837"><ele>33.78</ele><time>2012-08-10T16:25:44Z</time></trkpt><trkpt lat="57.4742812291" lon="-4.2246516980"><ele>34.26</ele><time>2012-08-10T16:25:45Z</time></trkpt><trkpt lat="57.4742571730" lon="-4.2245488521"><ele>34.74</ele><time>2012-08-10T16:25:46Z</time></trkpt><trkpt lat="57.4742461089" lon="-4.2244306672"><ele>35.71</ele><time>2012-08-10T16:25:47Z</time></trkpt><trkpt lat="57.4742440134" lon="-4.2243076209"><ele>35.23</ele><time>2012-08-10T16:25:48Z</time></trkpt><trkpt lat="57.4742428400" lon="-4.2241890170"><ele>36.67</ele><time>2012-08-10T16:25:49Z</time></trkpt><trkpt lat="57.4742153473" lon="-4.2234777287"><ele>38.11</ele><time>2012-08-10T16:25:54Z</time></trkpt><trkpt lat="57.4741581827" lon="-4.2222513724"><ele>40.03</ele><time>2012-08-10T16:26:02Z</time></trkpt><trkpt lat="57.4741363898" lon="-4.2220916133"><ele>39.55</ele><time>2012-08-10T16:26:03Z</time></trkpt><trkpt lat="57.4738937337" lon="-4.2205846310"><ele>38.59</ele><time>2012-08-10T16:26:14Z</time></trkpt><trkpt lat="57.4738686718" lon="-4.2204708047"><ele>38.11</ele><time>2012-08-10T16:26:15Z</time></trkpt><trkpt lat="57.4735940807" lon="-4.2193790618"><ele>37.63</ele><time>2012-08-10T16:26:24Z</time></trkpt><trkpt lat="57.4735163804" lon="-4.2192167882"><ele>37.15</ele><time>2012-08-10T16:26:26Z</time></trkpt><trkpt lat="57.4734189827" lon="-4.2189539317"><ele>36.19</ele><time>2012-08-10T16:26:34Z</time></trkpt><trkpt lat="57.4733746424" lon="-4.2188441288"><ele>36.67</ele><time>2012-08-10T16:26:46Z</time></trkpt><trkpt lat="57.4731155578" lon="-4.2180789448"><ele>37.15</ele><time>2012-08-10T16:26:55Z</time></trkpt><trkpt lat="57.4730129633" lon="-4.2178324331"><ele>37.63</ele><time>2012-08-10T16:26:58Z</time></trkpt><trkpt lat="57.4729900807" lon="-4.2177869193"><ele>37.15</ele><time>2012-08-10T16:26:59Z</time></trkpt><trkpt lat="57.4729772564" lon="-4.2177605163"><ele>37.15</ele><time>2012-08-10T16:27:00Z</time></trkpt><trkpt lat="57.4728105403" lon="-4.2173725180"><ele>38.11</ele><time>2012-08-10T16:27:08Z</time></trkpt><trkpt lat="57.4727832153" lon="-4.2172589432"><ele>38.11</ele><time>2012-08-10T16:27:09Z</time></trkpt><trkpt lat="57.4727610871" lon="-4.2171333823"><ele>38.11</ele><time>2012-08-10T16:27:10Z</time></trkpt><trkpt lat="57.4727445748" lon="-4.2170040496"><ele>38.59</ele><time>2012-08-10T16:27:11Z</time></trkpt><trkpt lat="57.4727295712" lon="-4.2168732081"><ele>38.59</ele><time>2012-08-10T16:27:12Z</time></trkpt><trkpt lat="57.4725299142" lon="-4.2153137550"><ele>40.51</ele><time>2012-08-10T16:27:22Z</time></trkpt><trkpt lat="57.4723088834" lon="-4.2140613310"><ele>39.55</ele><time>2012-08-10T16:27:31Z</time></trkpt><trkpt lat="57.4723155890" lon="-4.2140219361"><ele>40.03</ele><time>2012-08-10T16:27:32Z</time></trkpt><trkpt lat="57.4723871704" lon="-4.2138877418"><ele>40.03</ele><time>2012-08-10T16:27:36Z</time></trkpt><trkpt lat="57.4724863283" lon="-4.2138269730"><ele>39.55</ele><time>2012-08-10T16:27:43Z</time></trkpt><trkpt lat="57.4725112226" lon="-4.2138734926"><ele>40.03</ele><time>2012-08-10T16:28:02Z</time></trkpt><trkpt lat="57.4725213647" lon="-4.2138738278"><ele>39.07</ele><time>2012-08-10T16:28:04Z</time></trkpt><trkpt lat="57.4724671338" lon="-4.2139961198"><ele>39.55</ele><time>2012-08-10T16:28:12Z</time></trkpt><trkpt lat="57.4725101329" lon="-4.2139244545"><ele>40.03</ele><time>2012-08-10T16:28:23Z</time></trkpt><trkpt lat="57.4726074468" lon="-4.2139341775"><ele>40.03</ele><time>2012-08-10T16:28:29Z</time></trkpt><trkpt lat="57.4725886714" lon="-4.2139901686"><ele>39.55</ele><time>2012-08-10T16:28:49Z</time></trkpt><trkpt lat="57.4725958798" lon="-4.2139738239"><ele>34.74</ele><time>2012-08-10T16:29:08Z</time></trkpt><trkpt lat="57.4725951254" lon="-4.2139729857"><ele>44.36</ele><time>2012-08-10T16:29:09Z</time></trkpt><trkpt lat="57.4725927785" lon="-4.2139707226"><ele>39.55</ele><time>2012-08-10T16:29:10Z</time></trkpt><trkpt lat="57.4725845642" lon="-4.2139659449"><ele>36.19</ele><time>2012-08-10T16:29:16Z</time></trkpt><trkpt lat="57.4725848995" lon="-4.2139703035"><ele>42.92</ele><time>2012-08-10T16:29:17Z</time></trkpt><trkpt lat="57.4725865759" lon="-4.2139712255"><ele>39.55</ele><time>2012-08-10T16:29:19Z</time></trkpt><trkpt lat="57.4725894257" lon="-4.2139994726"><ele>39.55</ele><time>2012-08-10T16:29:41Z</time></trkpt><trkpt lat="57.4726024177" lon="-4.2140104529"><ele>40.03</ele><time>2012-08-10T16:30:01Z</time></trkpt><trkpt lat="57.4726030882" lon="-4.2140138894"><ele>36.67</ele><time>2012-08-10T16:30:02Z</time></trkpt><trkpt lat="57.4726051837" lon="-4.2140128836"><ele>36.67</ele><time>2012-08-10T16:30:03Z</time></trkpt><trkpt lat="57.4726061057" lon="-4.2140081897"><ele>40.03</ele><time>2012-08-10T16:30:04Z</time></trkpt><trkpt lat="57.4726030882" lon="-4.2139598262"><ele>39.55</ele><time>2012-08-10T16:30:21Z</time></trkpt><trkpt lat="57.4726118892" lon="-4.2139714770"><ele>40.03</ele><time>2012-08-10T16:30:25Z</time></trkpt><trkpt lat="57.4726159964" lon="-4.2139687110"><ele>39.55</ele><time>2012-08-10T16:30:27Z</time></trkpt><trkpt lat="57.4724881724" lon="-4.2138692178"><ele>39.55</ele><time>2012-08-10T16:30:46Z</time></trkpt><trkpt lat="57.4723956361" lon="-4.2136848997"><ele>39.07</ele><time>2012-08-10T16:31:12Z</time></trkpt></trkseg><trkseg><trkpt lat="57.4724848196" lon="-4.2135848198"><ele>42.44</ele><time>2012-08-10T16:33:59Z</time></trkpt><trkpt lat="57.4724892620" lon="-4.2135691456"><ele>31.86</ele><time>2012-08-10T16:34:00Z</time></trkpt><trkpt lat="57.4724909384" lon="-4.2135632783"><ele>31.86</ele><time>2012-08-10T16:34:01Z</time></trkpt><trkpt lat="57.4724939559" lon="-4.2135524657"><ele>53.97</ele><time>2012-08-10T16:34:02Z</time></trkpt><trkpt lat="57.4724957161" lon="-4.2135460116"><ele>43.88</ele><time>2012-08-10T16:34:03Z</time></trkpt><trkpt lat="57.4725062773" lon="-4.2137193494"><ele>41.95</ele><time>2012-08-10T16:34:24Z</time></trkpt><trkpt lat="57.4724865798" lon="-4.2137341853"><ele>42.44</ele><time>2012-08-10T16:34:46Z</time></trkpt><trkpt lat="57.4725284893" lon="-4.2137177568"><ele>41.95</ele><time>2012-08-10T16:35:12Z</time></trkpt><trkpt lat="57.4724996556" lon="-4.2136976402"><ele>41.95</ele><time>2012-08-10T16:35:36Z</time></trkpt><trkpt lat="57.4725358654" lon="-4.2136517912"><ele>42.44</ele><time>2012-08-10T16:36:04Z</time></trkpt><trkpt lat="57.4724782817" lon="-4.2138029169"><ele>41.95</ele><time>2012-08-10T16:36:29Z</time></trkpt><trkpt lat="57.4725205265" lon="-4.2137740832"><ele>41.95</ele><time>2012-08-10T16:36:57Z</time></trkpt><trkpt lat="57.4725072831" lon="-4.2138048448"><ele>42.44</ele><time>2012-08-10T16:37:22Z</time></trkpt><trkpt lat="57.4725180957" lon="-4.2138117179"><ele>41.95</ele><time>2012-08-10T16:37:49Z</time></trkpt><trkpt lat="57.4724925309" lon="-4.2137288209"><ele>41.95</ele><time>2012-08-10T16:38:22Z</time></trkpt><trkpt lat="57.4724919442" lon="-4.2137967143"><ele>40.99</ele><time>2012-08-10T16:38:52Z</time></trkpt><trkpt lat="57.4724830594" lon="-4.2138445750"><ele>41.95</ele><time>2012-08-10T16:39:26Z</time></trkpt><trkpt lat="57.4724929500" lon="-4.2137811240"><ele>41.95</ele><time>2012-08-10T16:39:46Z</time></trkpt><trkpt lat="57.4724823050" lon="-4.2137339339"><ele>41.95</ele><time>2012-08-10T16:40:14Z</time></trkpt><trkpt lat="57.4725103844" lon="-4.2136843130"><ele>41.47</ele><time>2012-08-10T16:40:45Z</time></trkpt><trkpt lat="57.4725130666" lon="-4.2137372028"><ele>41.95</ele><time>2012-08-10T16:41:19Z</time></trkpt><trkpt lat="57.4725236278" lon="-4.2136755958"><ele>41.47</ele><time>2012-08-10T16:41:50Z</time></trkpt><trkpt lat="57.4725336861" lon="-4.2136952933"><ele>41.47</ele><time>2012-08-10T16:42:19Z</time></trkpt><trkpt lat="57.4725394696" lon="-4.2135917768"><ele>41.47</ele><time>2012-08-10T16:42:49Z</time></trkpt><trkpt lat="57.4725577421" lon="-4.2136626877"><ele>41.47</ele><time>2012-08-10T16:43:19Z</time></trkpt><trkpt lat="57.4725276511" lon="-4.2137353588"><ele>41.47</ele><time>2012-08-10T16:43:55Z</time></trkpt><trkpt lat="57.4725475162" lon="-4.2136534676"><ele>41.47</ele><time>2012-08-10T16:44:30Z</time></trkpt><trkpt lat="57.4725415651" lon="-4.2136891745"><ele>41.47</ele><time>2012-08-10T16:45:06Z</time></trkpt><trkpt lat="57.4725085404" lon="-4.2137327604"><ele>41.95</ele><time>2012-08-10T16:45:46Z</time></trkpt><trkpt lat="57.4725252204" lon="-4.2136632744"><ele>41.47</ele><time>2012-08-10T16:46:25Z</time></trkpt><trkpt lat="57.4725268967" lon="-4.2136564013"><ele>41.95</ele><time>2012-08-10T16:47:06Z</time></trkpt><trkpt lat="57.4725139886" lon="-4.2136615142"><ele>41.95</ele><time>2012-08-10T16:47:40Z</time></trkpt><trkpt lat="57.4725097977" lon="-4.2136679683"><ele>41.47</ele><time>2012-08-10T16:48:16Z</time></trkpt><trkpt lat="57.4724606797" lon="-4.2137463391"><ele>41.95</ele><time>2012-08-10T16:48:52Z</time></trkpt><trkpt lat="57.4724378809" lon="-4.2137284856"><ele>40.99</ele><time>2012-08-10T16:49:27Z</time></trkpt><trkpt lat="57.4724044371" lon="-4.2136968020"><ele>41.47</ele><time>2012-08-10T16:49:58Z</time></trkpt><trkpt lat="57.4724021740" lon="-4.2136769369"><ele>41.47</ele><time>2012-08-10T16:50:27Z</time></trkpt><trkpt lat="57.4724363722" lon="-4.2136480194"><ele>41.47</ele><time>2012-08-10T16:50:54Z</time></trkpt><trkpt lat="57.4724477716" lon="-4.2136547249"><ele>41.47</ele><time>2012-08-10T16:51:21Z</time></trkpt><trkpt lat="57.4724522140" lon="-4.2136767693"><ele>41.95</ele><time>2012-08-10T16:51:52Z</time></trkpt><trkpt lat="57.4724282417" lon="-4.2137263063"><ele>41.47</ele><time>2012-08-10T16:52:21Z</time></trkpt><trkpt lat="57.4724785332" lon="-4.2137473449"><ele>41.47</ele><time>2012-08-10T16:52:48Z</time></trkpt><trkpt lat="57.4725215323" lon="-4.2137192655"><ele>41.95</ele><time>2012-08-10T16:53:14Z</time></trkpt><trkpt lat="57.4724864960" lon="-4.2137379572"><ele>41.95</ele><time>2012-08-10T16:53:43Z</time></trkpt><trkpt lat="57.4725040980" lon="-4.2137131467"><ele>41.47</ele><time>2012-08-10T16:54:10Z</time></trkpt><trkpt lat="57.4725238793" lon="-4.2137123924"><ele>41.47</ele><time>2012-08-10T16:54:40Z</time></trkpt><trkpt lat="57.4725231249" lon="-4.2137034237"><ele>41.95</ele><time>2012-08-10T16:55:11Z</time></trkpt><trkpt lat="57.4725033436" lon="-4.2136939522"><ele>38.11</ele><time>2012-08-10T16:55:37Z</time></trkpt><trkpt lat="57.4725040141" lon="-4.2136953771"><ele>42.92</ele><time>2012-08-10T16:55:38Z</time></trkpt><trkpt lat="57.4725740030" lon="-4.2136081215"><ele>41.47</ele><time>2012-08-10T16:56:00Z</time></trkpt><trkpt lat="57.4725268967" lon="-4.2137780227"><ele>40.99</ele><time>2012-08-10T16:56:23Z</time></trkpt><trkpt lat="57.4725112226" lon="-4.2137128115"><ele>41.95</ele><time>2012-08-10T16:56:48Z</time></trkpt><trkpt lat="57.4724929500" lon="-4.2136888392"><ele>41.95</ele><time>2012-08-10T16:57:15Z</time></trkpt><trkpt lat="57.4725326803" lon="-4.2136258911"><ele>41.95</ele><time>2012-08-10T16:57:36Z</time></trkpt><trkpt lat="57.4724886753" lon="-4.2136619333"><ele>41.47</ele><time>2012-08-10T16:57:59Z</time></trkpt><trkpt lat="57.4725116417" lon="-4.2137486860"><ele>41.95</ele><time>2012-08-10T16:58:26Z</time></trkpt><trkpt lat="57.4725135695" lon="-4.2137162481"><ele>41.95</ele><time>2012-08-10T16:59:04Z</time></trkpt><trkpt lat="57.4725097138" lon="-4.2136439960"><ele>41.95</ele><time>2012-08-10T16:59:33Z</time></trkpt><trkpt lat="57.4725094624" lon="-4.2136225384"><ele>42.44</ele><time>2012-08-10T17:00:08Z</time></trkpt><trkpt lat="57.4725044332" lon="-4.2136695608"><ele>41.95</ele><time>2012-08-10T17:00:40Z</time></trkpt><trkpt lat="57.4725119770" lon="-4.2136797030"><ele>42.44</ele><time>2012-08-10T17:01:14Z</time></trkpt><trkpt lat="57.4725092109" lon="-4.2137660366"><ele>42.44</ele><time>2012-08-10T17:01:54Z</time></trkpt><trkpt lat="57.4724849872" lon="-4.2137229536"><ele>41.95</ele><time>2012-08-10T17:02:22Z</time></trkpt><trkpt lat="57.4724704027" lon="-4.2137049325"><ele>42.44</ele><time>2012-08-10T17:02:57Z</time></trkpt><trkpt lat="57.4724818021" lon="-4.2136894260"><ele>42.44</ele><time>2012-08-10T17:03:34Z</time></trkpt><trkpt lat="57.4724908546" lon="-4.2136781104"><ele>42.44</ele><time>2012-08-10T17:04:13Z</time></trkpt><trkpt lat="57.4724778626" lon="-4.2136700638"><ele>42.44</ele><time>2012-08-10T17:04:49Z</time></trkpt><trkpt lat="57.4724819697" lon="-4.2136874143"><ele>42.92</ele><time>2012-08-10T17:05:23Z</time></trkpt><trkpt lat="57.4724963866" lon="-4.2136893421"><ele>42.92</ele><time>2012-08-10T17:05:53Z</time></trkpt><trkpt lat="57.4725720752" lon="-4.2137404718"><ele>42.92</ele><time>2012-08-10T17:06:19Z</time></trkpt></trkseg><trkseg><trkpt lat="57.4725745898" lon="-4.2137421481"><ele>24.65</ele><time>2012-08-10T17:07:15Z</time></trkpt><trkpt lat="57.4725553114" lon="-4.2137429863"><ele>24.65</ele><time>2012-08-10T17:07:16Z</time></trkpt><trkpt lat="57.4725446664" lon="-4.2136728298"><ele>24.65</ele><time>2012-08-10T17:07:42Z</time></trkpt><trkpt lat="57.4726071116" lon="-4.2137859855"><ele>25.13</ele><time>2012-08-10T17:08:21Z</time></trkpt><trkpt lat="57.4726142362" lon="-4.2137703951"><ele>27.05</ele><time>2012-08-10T17:08:26Z</time></trkpt><trkpt lat="57.4725896772" lon="-4.2137721553"><ele>30.90</ele><time>2012-08-10T17:08:33Z</time></trkpt><trkpt lat="57.4725890066" lon="-4.2137694731"><ele>30.90</ele><time>2012-08-10T17:08:34Z</time></trkpt><trkpt lat="57.4725880846" lon="-4.2137670424"><ele>34.26</ele><time>2012-08-10T17:08:38Z</time></trkpt><trkpt lat="57.4725677166" lon="-4.2137814593"><ele>37.63</ele><time>2012-08-10T17:08:47Z</time></trkpt><trkpt lat="57.4725852348" lon="-4.2138007376"><ele>39.07</ele><time>2012-08-10T17:08:53Z</time></trkpt><trkpt lat="57.4725866597" lon="-4.2137473449"><ele>43.40</ele><time>2012-08-10T17:09:05Z</time></trkpt><trkpt lat="57.4725871626" lon="-4.2137455009"><ele>43.40</ele><time>2012-08-10T17:09:06Z</time></trkpt><trkpt lat="57.4726023339" lon="-4.2137369514"><ele>44.36</ele><time>2012-08-10T17:09:12Z</time></trkpt><trkpt lat="57.4726122245" lon="-4.2137485184"><ele>47.72</ele><time>2012-08-10T17:09:23Z</time></trkpt><trkpt lat="57.4726154096" lon="-4.2137529608"><ele>47.72</ele><time>2012-08-10T17:09:24Z</time></trkpt><trkpt lat="57.4726053514" lon="-4.2138013244"><ele>51.57</ele><time>2012-08-10T17:09:39Z</time></trkpt><trkpt lat="57.4726025015" lon="-4.2137896735"><ele>52.05</ele><time>2012-08-10T17:09:44Z</time></trkpt><trkpt lat="57.4725632742" lon="-4.2137233727"><ele>52.05</ele><time>2012-08-10T17:10:16Z</time></trkpt><trkpt lat="57.4725877494" lon="-4.2137952894"><ele>51.57</ele><time>2012-08-10T17:10:52Z</time></trkpt><trkpt lat="57.4725916889" lon="-4.2137712333"><ele>52.05</ele><time>2012-08-10T17:11:19Z</time></trkpt><trkpt lat="57.4725909345" lon="-4.2137028370"><ele>52.05</ele><time>2012-08-10T17:11:48Z</time></trkpt><trkpt lat="57.4725257233" lon="-4.2136962153"><ele>52.53</ele><time>2012-08-10T17:12:15Z</time></trkpt><trkpt lat="57.4724712409" lon="-4.2137738317"><ele>52.05</ele><time>2012-08-10T17:12:48Z</time></trkpt><trkpt lat="57.4724704865" lon="-4.2137725744"><ele>52.05</ele><time>2012-08-10T17:13:22Z</time></trkpt><trkpt lat="57.4724576622" lon="-4.2137835547"><ele>52.05</ele><time>2012-08-10T17:13:58Z</time></trkpt><trkpt lat="57.4725162517" lon="-4.2137039267"><ele>51.57</ele><time>2012-08-10T17:14:34Z</time></trkpt><trkpt lat="57.4725910183" lon="-4.2135455087"><ele>52.05</ele><time>2012-08-10T17:15:04Z</time></trkpt><trkpt lat="57.4725465942" lon="-4.2135920282"><ele>52.05</ele><time>2012-08-10T17:15:30Z</time></trkpt><trkpt lat="57.4725274835" lon="-4.2136367876"><ele>52.05</ele><time>2012-08-10T17:16:06Z</time></trkpt><trkpt lat="57.4725272320" lon="-4.2135905195"><ele>51.57</ele><time>2012-08-10T17:16:36Z</time></trkpt><trkpt lat="57.4725710694" lon="-4.2135647871"><ele>51.57</ele><time>2012-08-10T17:17:05Z</time></trkpt><trkpt lat="57.4725852348" lon="-4.2135412339"><ele>51.57</ele><time>2012-08-10T17:17:08Z</time></trkpt><trkpt lat="57.4726960436" lon="-4.2134314310"><ele>51.57</ele><time>2012-08-10T17:17:33Z</time></trkpt><trkpt lat="57.4725768529" lon="-4.2136305850"><ele>51.09</ele><time>2012-08-10T17:17:58Z</time></trkpt><trkpt lat="57.4725280702" lon="-4.2136831395"><ele>51.57</ele><time>2012-08-10T17:18:25Z</time></trkpt><trkpt lat="57.4724396411" lon="-4.2138037551"><ele>50.61</ele><time>2012-08-10T17:18:50Z</time></trkpt><trkpt lat="57.4725042656" lon="-4.2136450857"><ele>51.09</ele><time>2012-08-10T17:19:17Z</time></trkpt><trkpt lat="57.4725569040" lon="-4.2135917768"><ele>51.57</ele><time>2012-08-10T17:19:50Z</time></trkpt><trkpt lat="57.4725032598" lon="-4.2136734165"><ele>51.57</ele><time>2012-08-10T17:20:23Z</time></trkpt><trkpt lat="57.4724384677" lon="-4.2137732450"><ele>51.09</ele><time>2012-08-10T17:20:51Z</time></trkpt><trkpt lat="57.4724844005" lon="-4.2137444112"><ele>51.09</ele><time>2012-08-10T17:21:20Z</time></trkpt><trkpt lat="57.4724973086" lon="-4.2137260549"><ele>51.09</ele><time>2012-08-10T17:21:43Z</time></trkpt><trkpt lat="57.4724825565" lon="-4.2138034198"><ele>51.09</ele><time>2012-08-10T17:22:12Z</time></trkpt><trkpt lat="57.4724632781" lon="-4.2138618417"><ele>50.61</ele><time>2012-08-10T17:22:38Z</time></trkpt><trkpt lat="57.4724678881" lon="-4.2138070241"><ele>51.09</ele><time>2012-08-10T17:23:08Z</time></trkpt><trkpt lat="57.4725135695" lon="-4.2136348598"><ele>51.09</ele><time>2012-08-10T17:23:35Z</time></trkpt><trkpt lat="57.4724841490" lon="-4.2136689741"><ele>51.09</ele><time>2012-08-10T17:23:57Z</time></trkpt><trkpt lat="57.4724768568" lon="-4.2137765978"><ele>50.61</ele><time>2012-08-10T17:24:27Z</time></trkpt><trkpt lat="57.4724919442" lon="-4.2137266416"><ele>50.61</ele><time>2012-08-10T17:24:54Z</time></trkpt><trkpt lat="57.4725080375" lon="-4.2137204390"><ele>50.13</ele><time>2012-08-10T17:25:22Z</time></trkpt><trkpt lat="57.4725236278" lon="-4.2137185950"><ele>49.65</ele><time>2012-08-10T17:25:50Z</time></trkpt><trkpt lat="57.4725014996" lon="-4.2136642803"><ele>49.16</ele><time>2012-08-10T17:26:16Z</time></trkpt><trkpt lat="57.4725390505" lon="-4.2136725783"><ele>49.16</ele><time>2012-08-10T17:26:42Z</time></trkpt><trkpt lat="57.4725424033" lon="-4.2136196885"><ele>49.16</ele><time>2012-08-10T17:27:12Z</time></trkpt><trkpt lat="57.4724849034" lon="-4.2136680521"><ele>48.68</ele><time>2012-08-10T17:27:40Z</time></trkpt><trkpt lat="57.4724260624" lon="-4.2137695570"><ele>48.68</ele><time>2012-08-10T17:28:06Z</time></trkpt><trkpt lat="57.4724106397" lon="-4.2138368636"><ele>49.16</ele><time>2012-08-10T17:28:31Z</time></trkpt><trkpt lat="57.4724155013" lon="-4.2138122208"><ele>49.16</ele><time>2012-08-10T17:28:33Z</time></trkpt><trkpt lat="57.4726152420" lon="-4.2134739272"><ele>49.16</ele><time>2012-08-10T17:28:56Z</time></trkpt><trkpt lat="57.4725926109" lon="-4.2135690618"><ele>48.68</ele><time>2012-08-10T17:29:22Z</time></trkpt><trkpt lat="57.4725589156" lon="-4.2135369591"><ele>49.16</ele><time>2012-08-10T17:29:49Z</time></trkpt><trkpt lat="57.4725665431" lon="-4.2135157529"><ele>49.16</ele><time>2012-08-10T17:30:16Z</time></trkpt><trkpt lat="57.4726308323" lon="-4.2134502903"><ele>49.16</ele><time>2012-08-10T17:30:38Z</time></trkpt><trkpt lat="57.4725308362" lon="-4.2136030085"><ele>49.16</ele><time>2012-08-10T17:30:58Z</time></trkpt><trkpt lat="57.4724427424" lon="-4.2137583252"><ele>49.16</ele><time>2012-08-10T17:31:24Z</time></trkpt><trkpt lat="57.4723853264" lon="-4.2138745822"><ele>48.68</ele><time>2012-08-10T17:31:51Z</time></trkpt><trkpt lat="57.4723337777" lon="-4.2139195930"><ele>48.68</ele><time>2012-08-10T17:32:16Z</time></trkpt><trkpt lat="57.4723588396" lon="-4.2138521187"><ele>48.68</ele><time>2012-08-10T17:32:43Z</time></trkpt><trkpt lat="57.4725665431" lon="-4.2135450896"><ele>48.68</ele><time>2012-08-10T17:33:05Z</time></trkpt><trkpt lat="57.4724789523" lon="-4.2136904318"><ele>48.20</ele><time>2012-08-10T17:33:32Z</time></trkpt><trkpt lat="57.4725056905" lon="-4.2135980632"><ele>48.20</ele><time>2012-08-10T17:34:01Z</time></trkpt><trkpt lat="57.4724867474" lon="-4.2136357818"><ele>48.20</ele><time>2012-08-10T17:34:33Z</time></trkpt><trkpt lat="57.4724838976" lon="-4.2136247177"><ele>47.24</ele><time>2012-08-10T17:35:06Z</time></trkpt><trkpt lat="57.4724625237" lon="-4.2137522902"><ele>47.24</ele><time>2012-08-10T17:35:36Z</time></trkpt><trkpt lat="57.4724816345" lon="-4.2137252167"><ele>47.72</ele><time>2012-08-10T17:36:02Z</time></trkpt><trkpt lat="57.4725268129" lon="-4.2136750091"><ele>47.24</ele><time>2012-08-10T17:36:29Z</time></trkpt><trkpt lat="57.4725704826" lon="-4.2138819583"><ele>47.24</ele><time>2012-08-10T17:37:06Z</time></trkpt><trkpt lat="57.4724725820" lon="-4.2139894143"><ele>47.24</ele><time>2012-08-10T17:37:31Z</time></trkpt><trkpt lat="57.4724876694" lon="-4.2139703874"><ele>47.72</ele><time>2012-08-10T17:37:57Z</time></trkpt><trkpt lat="57.4724793714" lon="-4.2139263824"><ele>47.24</ele><time>2012-08-10T17:38:10Z</time></trkpt><trkpt lat="57.4724051077" lon="-4.2141402885"><ele>47.24</ele><time>2012-08-10T17:38:31Z</time></trkpt><trkpt lat="57.4723913614" lon="-4.2139755003"><ele>47.72</ele><time>2012-08-10T17:38:56Z</time></trkpt><trkpt lat="57.4725021701" lon="-4.2136807088"><ele>47.72</ele><time>2012-08-10T17:39:20Z</time></trkpt><trkpt lat="57.4725037627" lon="-4.2136061098"><ele>47.24</ele><time>2012-08-10T17:39:46Z</time></trkpt><trkpt lat="57.4724825565" lon="-4.2138134781"><ele>47.24</ele><time>2012-08-10T17:40:15Z</time></trkpt><trkpt lat="57.4724477716" lon="-4.2137578223"><ele>47.24</ele><time>2012-08-10T17:40:41Z</time></trkpt><trkpt lat="57.4725004937" lon="-4.2137703951"><ele>46.76</ele><time>2012-08-10T17:41:09Z</time></trkpt><trkpt lat="57.4724671338" lon="-4.2138246261"><ele>47.24</ele><time>2012-08-10T17:41:35Z</time></trkpt><trkpt lat="57.4724772759" lon="-4.2138122208"><ele>46.28</ele><time>2012-08-10T17:41:58Z</time></trkpt><trkpt lat="57.4724827241" lon="-4.2137474287"><ele>46.76</ele><time>2012-08-10T17:42:26Z</time></trkpt><trkpt lat="57.4724849872" lon="-4.2138358578"><ele>46.76</ele><time>2012-08-10T17:42:49Z</time></trkpt><trkpt lat="57.4724367913" lon="-4.2136648670"><ele>46.76</ele><time>2012-08-10T17:43:15Z</time></trkpt><trkpt lat="57.4724446703" lon="-4.2136870790"><ele>46.76</ele><time>2012-08-10T17:43:43Z</time></trkpt><trkpt lat="57.4724364560" lon="-4.2136527132"><ele>46.28</ele><time>2012-08-10T17:44:09Z</time></trkpt><trkpt lat="57.4724099692" lon="-4.2136342730"><ele>46.28</ele><time>2012-08-10T17:44:34Z</time></trkpt><trkpt lat="57.4724274036" lon="-4.2135744262"><ele>45.80</ele><time>2012-08-10T17:45:02Z</time></trkpt></trkseg></trk></gpx>